<?xml version="1.0" encoding="UTF-8" standalone="no" ?>
<gpx xmlns="http://www.topografix.com/GPX/1/1" xmlns:xsi="http://www.w3.org/2001/XMLSchema-instance" xsi:schemaLocation="http://www.topografix.com/GPX/1/1 http://www.topografix.com/GPX/1/1/gpx.xsd" version="1.1" creator="VisuGPX - https://www.visugpx.com">
  <metadata>
    <name>Esterel - Mont Vinaigre</name>
    <desc><![CDATA[Montée au mont Vinaigre depuis St Raphael]]></desc>
  </metadata>
  <wpt lat="43.46575" lon="6.79001">
    <ele>167</ele>
    <name><![CDATA[Start]]></name>
  </wpt>
  <wpt lat="43.47264" lon="6.79284">
    <ele>203</ele>
    <name><![CDATA[Pause]]></name>
  </wpt>
  <wpt lat="43.4725" lon="6.79288">
    <ele>203</ele>
    <name><![CDATA[Resume]]></name>
  </wpt>
  <wpt lat="43.4801" lon="6.79125">
    <ele>287</ele>
    <name><![CDATA[Pause]]></name>
  </wpt>
  <wpt lat="43.48028" lon="6.79127">
    <ele>292</ele>
    <name><![CDATA[Resume]]></name>
  </wpt>
  <wpt lat="43.48801" lon="6.79541">
    <ele>407</ele>
    <name><![CDATA[Pause]]></name>
  </wpt>
  <wpt lat="43.48811" lon="6.79522">
    <ele>409</ele>
    <name><![CDATA[Resume]]></name>
  </wpt>
  <wpt lat="43.49435" lon="6.80064">
    <ele>414</ele>
    <name><![CDATA[Pause]]></name>
  </wpt>
  <wpt lat="43.49438" lon="6.80088">
    <ele>413</ele>
    <name><![CDATA[Resume]]></name>
  </wpt>
  <wpt lat="43.504" lon="6.81222">
    <ele>529</ele>
    <name><![CDATA[Pause]]></name>
  </wpt>
  <wpt lat="43.50385" lon="6.81208">
    <ele>531</ele>
    <name><![CDATA[Resume]]></name>
  </wpt>
  <wpt lat="43.50298" lon="6.81652">
    <ele>603</ele>
    <name><![CDATA[Pause]]></name>
  </wpt>
  <wpt lat="43.50293" lon="6.81674">
    <ele>603</ele>
    <name><![CDATA[Resume]]></name>
  </wpt>
  <wpt lat="43.46666" lon="6.78948">
    <ele>157</ele>
    <name><![CDATA[Pause]]></name>
  </wpt>
  <wpt lat="43.46659" lon="6.78942">
    <ele>158</ele>
    <name><![CDATA[Resume]]></name>
  </wpt>
  <wpt lat="43.46654" lon="6.78939">
    <ele>157</ele>
    <name><![CDATA[End]]></name>
  </wpt>
  <trk>
    <name><![CDATA[Esterel - Mont Vinaigre_1]]></name>
    <trkseg>
      <trkpt lat="43.46575" lon="6.79001">
        <ele>167</ele>
        <time>2011-06-03T09:34:11Z</time>
      </trkpt>
      <trkpt lat="43.46573" lon="6.79">
        <ele>167</ele>
        <time>2011-06-03T09:34:12Z</time>
      </trkpt>
      <trkpt lat="43.46572" lon="6.78997">
        <ele>168</ele>
        <time>2011-06-03T09:34:13Z</time>
      </trkpt>
      <trkpt lat="43.46572" lon="6.78995">
        <ele>169</ele>
        <time>2011-06-03T09:34:14Z</time>
      </trkpt>
      <trkpt lat="43.46572" lon="6.78995">
        <ele>169</ele>
        <time>2011-06-03T09:34:15Z</time>
      </trkpt>
      <trkpt lat="43.46572" lon="6.78993">
        <ele>169</ele>
        <time>2011-06-03T09:34:16Z</time>
      </trkpt>
      <trkpt lat="43.46571" lon="6.78991">
        <ele>171</ele>
        <time>2011-06-03T09:34:17Z</time>
      </trkpt>
      <trkpt lat="43.46571" lon="6.7899">
        <ele>170</ele>
        <time>2011-06-03T09:34:18Z</time>
      </trkpt>
      <trkpt lat="43.46571" lon="6.78988">
        <ele>170</ele>
        <time>2011-06-03T09:34:19Z</time>
      </trkpt>
      <trkpt lat="43.4657" lon="6.78987">
        <ele>170</ele>
        <time>2011-06-03T09:34:20Z</time>
      </trkpt>
      <trkpt lat="43.4657" lon="6.78986">
        <ele>170</ele>
        <time>2011-06-03T09:34:21Z</time>
      </trkpt>
      <trkpt lat="43.46569" lon="6.78985">
        <ele>169</ele>
        <time>2011-06-03T09:34:22Z</time>
      </trkpt>
      <trkpt lat="43.46569" lon="6.78984">
        <ele>169</ele>
        <time>2011-06-03T09:34:23Z</time>
      </trkpt>
      <trkpt lat="43.46568" lon="6.78984">
        <ele>169</ele>
        <time>2011-06-03T09:34:24Z</time>
      </trkpt>
      <trkpt lat="43.46567" lon="6.78982">
        <ele>169</ele>
        <time>2011-06-03T09:34:25Z</time>
      </trkpt>
      <trkpt lat="43.46567" lon="6.7898">
        <ele>168</ele>
        <time>2011-06-03T09:34:26Z</time>
      </trkpt>
      <trkpt lat="43.46566" lon="6.78978">
        <ele>167</ele>
        <time>2011-06-03T09:34:27Z</time>
      </trkpt>
      <trkpt lat="43.46567" lon="6.78976">
        <ele>167</ele>
        <time>2011-06-03T09:34:28Z</time>
      </trkpt>
      <trkpt lat="43.46567" lon="6.78974">
        <ele>166</ele>
        <time>2011-06-03T09:34:29Z</time>
      </trkpt>
      <trkpt lat="43.46567" lon="6.78973">
        <ele>166</ele>
        <time>2011-06-03T09:34:30Z</time>
      </trkpt>
      <trkpt lat="43.46568" lon="6.78971">
        <ele>166</ele>
        <time>2011-06-03T09:34:31Z</time>
      </trkpt>
      <trkpt lat="43.46568" lon="6.78967">
        <ele>167</ele>
        <time>2011-06-03T09:34:32Z</time>
      </trkpt>
      <trkpt lat="43.46569" lon="6.78964">
        <ele>167</ele>
        <time>2011-06-03T09:34:33Z</time>
      </trkpt>
      <trkpt lat="43.4657" lon="6.7896">
        <ele>166</ele>
        <time>2011-06-03T09:34:34Z</time>
      </trkpt>
      <trkpt lat="43.4657" lon="6.78957">
        <ele>166</ele>
        <time>2011-06-03T09:34:35Z</time>
      </trkpt>
      <trkpt lat="43.46571" lon="6.78954">
        <ele>167</ele>
        <time>2011-06-03T09:34:36Z</time>
      </trkpt>
      <trkpt lat="43.46571" lon="6.78951">
        <ele>166</ele>
        <time>2011-06-03T09:34:37Z</time>
      </trkpt>
      <trkpt lat="43.46572" lon="6.78948">
        <ele>166</ele>
        <time>2011-06-03T09:34:38Z</time>
      </trkpt>
      <trkpt lat="43.46574" lon="6.78945">
        <ele>166</ele>
        <time>2011-06-03T09:34:39Z</time>
      </trkpt>
      <trkpt lat="43.46575" lon="6.78943">
        <ele>166</ele>
        <time>2011-06-03T09:34:40Z</time>
      </trkpt>
      <trkpt lat="43.46577" lon="6.7894">
        <ele>165</ele>
        <time>2011-06-03T09:34:41Z</time>
      </trkpt>
      <trkpt lat="43.46578" lon="6.78937">
        <ele>165</ele>
        <time>2011-06-03T09:34:42Z</time>
      </trkpt>
      <trkpt lat="43.4658" lon="6.78935">
        <ele>165</ele>
        <time>2011-06-03T09:34:43Z</time>
      </trkpt>
      <trkpt lat="43.46582" lon="6.78934">
        <ele>165</ele>
        <time>2011-06-03T09:34:44Z</time>
      </trkpt>
      <trkpt lat="43.46585" lon="6.78933">
        <ele>166</ele>
        <time>2011-06-03T09:34:45Z</time>
      </trkpt>
      <trkpt lat="43.46587" lon="6.78931">
        <ele>166</ele>
        <time>2011-06-03T09:34:46Z</time>
      </trkpt>
      <trkpt lat="43.46589" lon="6.78931">
        <ele>165</ele>
        <time>2011-06-03T09:34:47Z</time>
      </trkpt>
      <trkpt lat="43.46592" lon="6.78929">
        <ele>165</ele>
        <time>2011-06-03T09:34:48Z</time>
      </trkpt>
      <trkpt lat="43.46595" lon="6.78929">
        <ele>165</ele>
        <time>2011-06-03T09:34:49Z</time>
      </trkpt>
      <trkpt lat="43.46597" lon="6.78929">
        <ele>165</ele>
        <time>2011-06-03T09:34:50Z</time>
      </trkpt>
      <trkpt lat="43.46599" lon="6.78928">
        <ele>166</ele>
        <time>2011-06-03T09:34:51Z</time>
      </trkpt>
      <trkpt lat="43.46602" lon="6.78928">
        <ele>166</ele>
        <time>2011-06-03T09:34:52Z</time>
      </trkpt>
      <trkpt lat="43.46604" lon="6.78928">
        <ele>167</ele>
        <time>2011-06-03T09:34:53Z</time>
      </trkpt>
      <trkpt lat="43.46607" lon="6.78928">
        <ele>167</ele>
        <time>2011-06-03T09:34:54Z</time>
      </trkpt>
      <trkpt lat="43.4661" lon="6.78928">
        <ele>167</ele>
        <time>2011-06-03T09:34:55Z</time>
      </trkpt>
      <trkpt lat="43.46613" lon="6.78928">
        <ele>167</ele>
        <time>2011-06-03T09:34:56Z</time>
      </trkpt>
      <trkpt lat="43.46615" lon="6.78929">
        <ele>166</ele>
        <time>2011-06-03T09:34:57Z</time>
      </trkpt>
      <trkpt lat="43.46618" lon="6.7893">
        <ele>166</ele>
        <time>2011-06-03T09:34:58Z</time>
      </trkpt>
      <trkpt lat="43.46621" lon="6.78932">
        <ele>166</ele>
        <time>2011-06-03T09:34:59Z</time>
      </trkpt>
      <trkpt lat="43.46623" lon="6.78933">
        <ele>166</ele>
        <time>2011-06-03T09:35:00Z</time>
      </trkpt>
      <trkpt lat="43.46626" lon="6.78933">
        <ele>165</ele>
        <time>2011-06-03T09:35:01Z</time>
      </trkpt>
      <trkpt lat="43.46629" lon="6.78933">
        <ele>164</ele>
        <time>2011-06-03T09:35:02Z</time>
      </trkpt>
      <trkpt lat="43.46631" lon="6.78934">
        <ele>164</ele>
        <time>2011-06-03T09:35:03Z</time>
      </trkpt>
      <trkpt lat="43.46634" lon="6.78934">
        <ele>163</ele>
        <time>2011-06-03T09:35:04Z</time>
      </trkpt>
      <trkpt lat="43.46637" lon="6.78935">
        <ele>163</ele>
        <time>2011-06-03T09:35:05Z</time>
      </trkpt>
      <trkpt lat="43.46639" lon="6.78935">
        <ele>164</ele>
        <time>2011-06-03T09:35:06Z</time>
      </trkpt>
      <trkpt lat="43.46642" lon="6.78936">
        <ele>163</ele>
        <time>2011-06-03T09:35:07Z</time>
      </trkpt>
      <trkpt lat="43.46644" lon="6.78936">
        <ele>163</ele>
        <time>2011-06-03T09:35:08Z</time>
      </trkpt>
      <trkpt lat="43.46647" lon="6.78936">
        <ele>163</ele>
        <time>2011-06-03T09:35:09Z</time>
      </trkpt>
      <trkpt lat="43.4665" lon="6.78936">
        <ele>163</ele>
        <time>2011-06-03T09:35:10Z</time>
      </trkpt>
      <trkpt lat="43.46652" lon="6.78936">
        <ele>163</ele>
        <time>2011-06-03T09:35:11Z</time>
      </trkpt>
      <trkpt lat="43.46655" lon="6.78937">
        <ele>163</ele>
        <time>2011-06-03T09:35:12Z</time>
      </trkpt>
      <trkpt lat="43.46658" lon="6.78937">
        <ele>162</ele>
        <time>2011-06-03T09:35:13Z</time>
      </trkpt>
      <trkpt lat="43.4666" lon="6.78938">
        <ele>162</ele>
        <time>2011-06-03T09:35:14Z</time>
      </trkpt>
      <trkpt lat="43.46663" lon="6.78939">
        <ele>162</ele>
        <time>2011-06-03T09:35:15Z</time>
      </trkpt>
      <trkpt lat="43.46666" lon="6.78942">
        <ele>161</ele>
        <time>2011-06-03T09:35:16Z</time>
      </trkpt>
      <trkpt lat="43.46668" lon="6.78944">
        <ele>161</ele>
        <time>2011-06-03T09:35:17Z</time>
      </trkpt>
      <trkpt lat="43.46671" lon="6.78946">
        <ele>161</ele>
        <time>2011-06-03T09:35:18Z</time>
      </trkpt>
      <trkpt lat="43.46673" lon="6.78949">
        <ele>161</ele>
        <time>2011-06-03T09:35:19Z</time>
      </trkpt>
      <trkpt lat="43.46675" lon="6.78951">
        <ele>160</ele>
        <time>2011-06-03T09:35:20Z</time>
      </trkpt>
      <trkpt lat="43.46676" lon="6.78955">
        <ele>160</ele>
        <time>2011-06-03T09:35:21Z</time>
      </trkpt>
      <trkpt lat="43.46678" lon="6.78957">
        <ele>160</ele>
        <time>2011-06-03T09:35:22Z</time>
      </trkpt>
      <trkpt lat="43.4668" lon="6.7896">
        <ele>160</ele>
        <time>2011-06-03T09:35:23Z</time>
      </trkpt>
      <trkpt lat="43.46682" lon="6.78963">
        <ele>160</ele>
        <time>2011-06-03T09:35:24Z</time>
      </trkpt>
      <trkpt lat="43.46683" lon="6.78966">
        <ele>160</ele>
        <time>2011-06-03T09:35:25Z</time>
      </trkpt>
      <trkpt lat="43.46685" lon="6.7897">
        <ele>160</ele>
        <time>2011-06-03T09:35:26Z</time>
      </trkpt>
      <trkpt lat="43.46686" lon="6.78972">
        <ele>160</ele>
        <time>2011-06-03T09:35:27Z</time>
      </trkpt>
      <trkpt lat="43.46688" lon="6.78975">
        <ele>160</ele>
        <time>2011-06-03T09:35:28Z</time>
      </trkpt>
      <trkpt lat="43.46689" lon="6.78979">
        <ele>159</ele>
        <time>2011-06-03T09:35:29Z</time>
      </trkpt>
      <trkpt lat="43.4669" lon="6.78981">
        <ele>159</ele>
        <time>2011-06-03T09:35:30Z</time>
      </trkpt>
      <trkpt lat="43.46692" lon="6.78984">
        <ele>159</ele>
        <time>2011-06-03T09:35:31Z</time>
      </trkpt>
      <trkpt lat="43.46694" lon="6.78987">
        <ele>159</ele>
        <time>2011-06-03T09:35:32Z</time>
      </trkpt>
      <trkpt lat="43.46696" lon="6.7899">
        <ele>159</ele>
        <time>2011-06-03T09:35:33Z</time>
      </trkpt>
      <trkpt lat="43.46697" lon="6.78991">
        <ele>159</ele>
        <time>2011-06-03T09:35:34Z</time>
      </trkpt>
      <trkpt lat="43.46698" lon="6.78995">
        <ele>158</ele>
        <time>2011-06-03T09:35:35Z</time>
      </trkpt>
      <trkpt lat="43.467" lon="6.78997">
        <ele>159</ele>
        <time>2011-06-03T09:35:36Z</time>
      </trkpt>
      <trkpt lat="43.46703" lon="6.79">
        <ele>159</ele>
        <time>2011-06-03T09:35:37Z</time>
      </trkpt>
      <trkpt lat="43.46704" lon="6.79002">
        <ele>158</ele>
        <time>2011-06-03T09:35:38Z</time>
      </trkpt>
      <trkpt lat="43.46706" lon="6.79006">
        <ele>158</ele>
        <time>2011-06-03T09:35:39Z</time>
      </trkpt>
      <trkpt lat="43.46708" lon="6.79008">
        <ele>158</ele>
        <time>2011-06-03T09:35:40Z</time>
      </trkpt>
      <trkpt lat="43.4671" lon="6.7901">
        <ele>158</ele>
        <time>2011-06-03T09:35:41Z</time>
      </trkpt>
      <trkpt lat="43.46712" lon="6.79012">
        <ele>158</ele>
        <time>2011-06-03T09:35:42Z</time>
      </trkpt>
      <trkpt lat="43.46713" lon="6.79014">
        <ele>158</ele>
        <time>2011-06-03T09:35:43Z</time>
      </trkpt>
      <trkpt lat="43.46715" lon="6.79016">
        <ele>158</ele>
        <time>2011-06-03T09:35:44Z</time>
      </trkpt>
      <trkpt lat="43.46717" lon="6.79018">
        <ele>158</ele>
        <time>2011-06-03T09:35:45Z</time>
      </trkpt>
      <trkpt lat="43.46719" lon="6.79021">
        <ele>157</ele>
        <time>2011-06-03T09:35:46Z</time>
      </trkpt>
      <trkpt lat="43.4672" lon="6.79023">
        <ele>157</ele>
        <time>2011-06-03T09:35:47Z</time>
      </trkpt>
      <trkpt lat="43.46722" lon="6.79024">
        <ele>157</ele>
        <time>2011-06-03T09:35:48Z</time>
      </trkpt>
      <trkpt lat="43.46722" lon="6.79028">
        <ele>157</ele>
        <time>2011-06-03T09:35:49Z</time>
      </trkpt>
      <trkpt lat="43.46724" lon="6.7903">
        <ele>158</ele>
        <time>2011-06-03T09:35:50Z</time>
      </trkpt>
      <trkpt lat="43.46726" lon="6.79032">
        <ele>158</ele>
        <time>2011-06-03T09:35:51Z</time>
      </trkpt>
      <trkpt lat="43.46728" lon="6.79035">
        <ele>157</ele>
        <time>2011-06-03T09:35:52Z</time>
      </trkpt>
      <trkpt lat="43.46731" lon="6.79037">
        <ele>157</ele>
        <time>2011-06-03T09:35:53Z</time>
      </trkpt>
      <trkpt lat="43.46733" lon="6.7904">
        <ele>157</ele>
        <time>2011-06-03T09:35:54Z</time>
      </trkpt>
      <trkpt lat="43.46734" lon="6.79043">
        <ele>157</ele>
        <time>2011-06-03T09:35:55Z</time>
      </trkpt>
      <trkpt lat="43.46735" lon="6.79045">
        <ele>156</ele>
        <time>2011-06-03T09:35:56Z</time>
      </trkpt>
      <trkpt lat="43.46736" lon="6.79048">
        <ele>155</ele>
        <time>2011-06-03T09:35:57Z</time>
      </trkpt>
      <trkpt lat="43.46738" lon="6.79052">
        <ele>155</ele>
        <time>2011-06-03T09:35:58Z</time>
      </trkpt>
      <trkpt lat="43.46739" lon="6.79055">
        <ele>155</ele>
        <time>2011-06-03T09:35:59Z</time>
      </trkpt>
      <trkpt lat="43.4674" lon="6.79058">
        <ele>155</ele>
        <time>2011-06-03T09:36:00Z</time>
      </trkpt>
      <trkpt lat="43.46741" lon="6.79061">
        <ele>155</ele>
        <time>2011-06-03T09:36:01Z</time>
      </trkpt>
      <trkpt lat="43.46742" lon="6.79065">
        <ele>155</ele>
        <time>2011-06-03T09:36:02Z</time>
      </trkpt>
      <trkpt lat="43.46743" lon="6.79068">
        <ele>155</ele>
        <time>2011-06-03T09:36:03Z</time>
      </trkpt>
      <trkpt lat="43.46744" lon="6.79071">
        <ele>155</ele>
        <time>2011-06-03T09:36:04Z</time>
      </trkpt>
      <trkpt lat="43.46746" lon="6.79074">
        <ele>155</ele>
        <time>2011-06-03T09:36:05Z</time>
      </trkpt>
      <trkpt lat="43.46747" lon="6.79078">
        <ele>155</ele>
        <time>2011-06-03T09:36:06Z</time>
      </trkpt>
      <trkpt lat="43.46749" lon="6.79082">
        <ele>155</ele>
        <time>2011-06-03T09:36:07Z</time>
      </trkpt>
      <trkpt lat="43.4675" lon="6.79085">
        <ele>155</ele>
        <time>2011-06-03T09:36:08Z</time>
      </trkpt>
      <trkpt lat="43.4675" lon="6.79089">
        <ele>154</ele>
        <time>2011-06-03T09:36:09Z</time>
      </trkpt>
      <trkpt lat="43.46752" lon="6.79092">
        <ele>154</ele>
        <time>2011-06-03T09:36:10Z</time>
      </trkpt>
      <trkpt lat="43.46753" lon="6.79095">
        <ele>154</ele>
        <time>2011-06-03T09:36:11Z</time>
      </trkpt>
      <trkpt lat="43.46754" lon="6.79098">
        <ele>155</ele>
        <time>2011-06-03T09:36:12Z</time>
      </trkpt>
      <trkpt lat="43.46755" lon="6.79102">
        <ele>156</ele>
        <time>2011-06-03T09:36:13Z</time>
      </trkpt>
      <trkpt lat="43.46756" lon="6.79105">
        <ele>157</ele>
        <time>2011-06-03T09:36:14Z</time>
      </trkpt>
      <trkpt lat="43.46757" lon="6.7911">
        <ele>157</ele>
        <time>2011-06-03T09:36:15Z</time>
      </trkpt>
      <trkpt lat="43.46758" lon="6.79113">
        <ele>157</ele>
        <time>2011-06-03T09:36:16Z</time>
      </trkpt>
      <trkpt lat="43.46759" lon="6.79117">
        <ele>157</ele>
        <time>2011-06-03T09:36:17Z</time>
      </trkpt>
      <trkpt lat="43.46759" lon="6.79121">
        <ele>157</ele>
        <time>2011-06-03T09:36:18Z</time>
      </trkpt>
      <trkpt lat="43.46759" lon="6.79125">
        <ele>158</ele>
        <time>2011-06-03T09:36:19Z</time>
      </trkpt>
      <trkpt lat="43.46759" lon="6.79128">
        <ele>158</ele>
        <time>2011-06-03T09:36:20Z</time>
      </trkpt>
      <trkpt lat="43.46761" lon="6.79132">
        <ele>157</ele>
        <time>2011-06-03T09:36:21Z</time>
      </trkpt>
      <trkpt lat="43.46762" lon="6.79135">
        <ele>157</ele>
        <time>2011-06-03T09:36:22Z</time>
      </trkpt>
      <trkpt lat="43.46762" lon="6.79139">
        <ele>157</ele>
        <time>2011-06-03T09:36:23Z</time>
      </trkpt>
      <trkpt lat="43.46763" lon="6.79141">
        <ele>156</ele>
        <time>2011-06-03T09:36:24Z</time>
      </trkpt>
      <trkpt lat="43.46764" lon="6.79145">
        <ele>156</ele>
        <time>2011-06-03T09:36:25Z</time>
      </trkpt>
      <trkpt lat="43.46764" lon="6.79148">
        <ele>156</ele>
        <time>2011-06-03T09:36:26Z</time>
      </trkpt>
      <trkpt lat="43.46765" lon="6.79151">
        <ele>155</ele>
        <time>2011-06-03T09:36:27Z</time>
      </trkpt>
      <trkpt lat="43.46766" lon="6.79154">
        <ele>155</ele>
        <time>2011-06-03T09:36:28Z</time>
      </trkpt>
      <trkpt lat="43.46769" lon="6.79157">
        <ele>155</ele>
        <time>2011-06-03T09:36:29Z</time>
      </trkpt>
      <trkpt lat="43.4677" lon="6.79159">
        <ele>155</ele>
        <time>2011-06-03T09:36:30Z</time>
      </trkpt>
      <trkpt lat="43.46772" lon="6.79162">
        <ele>155</ele>
        <time>2011-06-03T09:36:31Z</time>
      </trkpt>
      <trkpt lat="43.46773" lon="6.79165">
        <ele>155</ele>
        <time>2011-06-03T09:36:32Z</time>
      </trkpt>
      <trkpt lat="43.46775" lon="6.79167">
        <ele>155</ele>
        <time>2011-06-03T09:36:33Z</time>
      </trkpt>
      <trkpt lat="43.46777" lon="6.7917">
        <ele>154</ele>
        <time>2011-06-03T09:36:34Z</time>
      </trkpt>
      <trkpt lat="43.46779" lon="6.79172">
        <ele>154</ele>
        <time>2011-06-03T09:36:35Z</time>
      </trkpt>
      <trkpt lat="43.4678" lon="6.79176">
        <ele>154</ele>
        <time>2011-06-03T09:36:36Z</time>
      </trkpt>
      <trkpt lat="43.46782" lon="6.79178">
        <ele>154</ele>
        <time>2011-06-03T09:36:37Z</time>
      </trkpt>
      <trkpt lat="43.46784" lon="6.7918">
        <ele>153</ele>
        <time>2011-06-03T09:36:38Z</time>
      </trkpt>
      <trkpt lat="43.46786" lon="6.79183">
        <ele>153</ele>
        <time>2011-06-03T09:36:39Z</time>
      </trkpt>
      <trkpt lat="43.46788" lon="6.79186">
        <ele>153</ele>
        <time>2011-06-03T09:36:40Z</time>
      </trkpt>
      <trkpt lat="43.4679" lon="6.79189">
        <ele>153</ele>
        <time>2011-06-03T09:36:41Z</time>
      </trkpt>
      <trkpt lat="43.46791" lon="6.79192">
        <ele>153</ele>
        <time>2011-06-03T09:36:42Z</time>
      </trkpt>
      <trkpt lat="43.46793" lon="6.79195">
        <ele>153</ele>
        <time>2011-06-03T09:36:43Z</time>
      </trkpt>
      <trkpt lat="43.46793" lon="6.79196">
        <ele>153</ele>
        <time>2011-06-03T09:36:44Z</time>
      </trkpt>
      <trkpt lat="43.46794" lon="6.79199">
        <ele>153</ele>
        <time>2011-06-03T09:36:45Z</time>
      </trkpt>
      <trkpt lat="43.46796" lon="6.79203">
        <ele>154</ele>
        <time>2011-06-03T09:36:46Z</time>
      </trkpt>
      <trkpt lat="43.46798" lon="6.79206">
        <ele>154</ele>
        <time>2011-06-03T09:36:47Z</time>
      </trkpt>
      <trkpt lat="43.468" lon="6.79208">
        <ele>154</ele>
        <time>2011-06-03T09:36:48Z</time>
      </trkpt>
      <trkpt lat="43.46802" lon="6.79211">
        <ele>154</ele>
        <time>2011-06-03T09:36:49Z</time>
      </trkpt>
      <trkpt lat="43.46803" lon="6.79216">
        <ele>154</ele>
        <time>2011-06-03T09:36:50Z</time>
      </trkpt>
      <trkpt lat="43.46805" lon="6.7922">
        <ele>154</ele>
        <time>2011-06-03T09:36:51Z</time>
      </trkpt>
      <trkpt lat="43.46806" lon="6.79223">
        <ele>155</ele>
        <time>2011-06-03T09:36:52Z</time>
      </trkpt>
      <trkpt lat="43.46808" lon="6.79226">
        <ele>155</ele>
        <time>2011-06-03T09:36:53Z</time>
      </trkpt>
      <trkpt lat="43.46809" lon="6.79229">
        <ele>155</ele>
        <time>2011-06-03T09:36:54Z</time>
      </trkpt>
      <trkpt lat="43.4681" lon="6.79232">
        <ele>155</ele>
        <time>2011-06-03T09:36:55Z</time>
      </trkpt>
      <trkpt lat="43.46812" lon="6.79235">
        <ele>155</ele>
        <time>2011-06-03T09:36:56Z</time>
      </trkpt>
      <trkpt lat="43.46813" lon="6.79238">
        <ele>156</ele>
        <time>2011-06-03T09:36:57Z</time>
      </trkpt>
      <trkpt lat="43.46814" lon="6.7924">
        <ele>157</ele>
        <time>2011-06-03T09:36:58Z</time>
      </trkpt>
      <trkpt lat="43.46815" lon="6.79244">
        <ele>157</ele>
        <time>2011-06-03T09:36:59Z</time>
      </trkpt>
      <trkpt lat="43.46817" lon="6.79246">
        <ele>156</ele>
        <time>2011-06-03T09:37:00Z</time>
      </trkpt>
      <trkpt lat="43.4682" lon="6.79248">
        <ele>156</ele>
        <time>2011-06-03T09:37:01Z</time>
      </trkpt>
      <trkpt lat="43.46822" lon="6.79251">
        <ele>156</ele>
        <time>2011-06-03T09:37:02Z</time>
      </trkpt>
      <trkpt lat="43.46824" lon="6.79252">
        <ele>155</ele>
        <time>2011-06-03T09:37:03Z</time>
      </trkpt>
      <trkpt lat="43.46827" lon="6.79253">
        <ele>154</ele>
        <time>2011-06-03T09:37:04Z</time>
      </trkpt>
      <trkpt lat="43.46829" lon="6.79254">
        <ele>154</ele>
        <time>2011-06-03T09:37:05Z</time>
      </trkpt>
      <trkpt lat="43.46831" lon="6.79255">
        <ele>154</ele>
        <time>2011-06-03T09:37:06Z</time>
      </trkpt>
      <trkpt lat="43.46834" lon="6.79256">
        <ele>155</ele>
        <time>2011-06-03T09:37:07Z</time>
      </trkpt>
      <trkpt lat="43.46837" lon="6.79257">
        <ele>156</ele>
        <time>2011-06-03T09:37:08Z</time>
      </trkpt>
      <trkpt lat="43.46839" lon="6.79257">
        <ele>156</ele>
        <time>2011-06-03T09:37:09Z</time>
      </trkpt>
      <trkpt lat="43.46841" lon="6.79258">
        <ele>156</ele>
        <time>2011-06-03T09:37:10Z</time>
      </trkpt>
      <trkpt lat="43.46844" lon="6.79258">
        <ele>156</ele>
        <time>2011-06-03T09:37:11Z</time>
      </trkpt>
      <trkpt lat="43.46846" lon="6.7926">
        <ele>157</ele>
        <time>2011-06-03T09:37:12Z</time>
      </trkpt>
      <trkpt lat="43.46849" lon="6.7926">
        <ele>157</ele>
        <time>2011-06-03T09:37:13Z</time>
      </trkpt>
      <trkpt lat="43.46851" lon="6.79261">
        <ele>157</ele>
        <time>2011-06-03T09:37:14Z</time>
      </trkpt>
      <trkpt lat="43.46854" lon="6.79262">
        <ele>157</ele>
        <time>2011-06-03T09:37:15Z</time>
      </trkpt>
      <trkpt lat="43.46857" lon="6.79263">
        <ele>158</ele>
        <time>2011-06-03T09:37:16Z</time>
      </trkpt>
      <trkpt lat="43.46859" lon="6.79264">
        <ele>157</ele>
        <time>2011-06-03T09:37:17Z</time>
      </trkpt>
      <trkpt lat="43.46861" lon="6.79265">
        <ele>158</ele>
        <time>2011-06-03T09:37:18Z</time>
      </trkpt>
      <trkpt lat="43.46864" lon="6.79265">
        <ele>158</ele>
        <time>2011-06-03T09:37:19Z</time>
      </trkpt>
      <trkpt lat="43.46866" lon="6.79265">
        <ele>158</ele>
        <time>2011-06-03T09:37:20Z</time>
      </trkpt>
      <trkpt lat="43.46868" lon="6.79266">
        <ele>158</ele>
        <time>2011-06-03T09:37:21Z</time>
      </trkpt>
      <trkpt lat="43.46871" lon="6.79266">
        <ele>158</ele>
        <time>2011-06-03T09:37:22Z</time>
      </trkpt>
      <trkpt lat="43.46872" lon="6.79266">
        <ele>158</ele>
        <time>2011-06-03T09:37:23Z</time>
      </trkpt>
      <trkpt lat="43.46874" lon="6.79264">
        <ele>158</ele>
        <time>2011-06-03T09:37:24Z</time>
      </trkpt>
      <trkpt lat="43.46876" lon="6.79264">
        <ele>158</ele>
        <time>2011-06-03T09:37:25Z</time>
      </trkpt>
      <trkpt lat="43.46878" lon="6.79264">
        <ele>158</ele>
        <time>2011-06-03T09:37:26Z</time>
      </trkpt>
      <trkpt lat="43.4688" lon="6.79264">
        <ele>158</ele>
        <time>2011-06-03T09:37:27Z</time>
      </trkpt>
      <trkpt lat="43.46882" lon="6.79264">
        <ele>158</ele>
        <time>2011-06-03T09:37:28Z</time>
      </trkpt>
      <trkpt lat="43.46884" lon="6.79264">
        <ele>158</ele>
        <time>2011-06-03T09:37:29Z</time>
      </trkpt>
      <trkpt lat="43.46886" lon="6.79263">
        <ele>158</ele>
        <time>2011-06-03T09:37:30Z</time>
      </trkpt>
      <trkpt lat="43.46888" lon="6.79263">
        <ele>158</ele>
        <time>2011-06-03T09:37:31Z</time>
      </trkpt>
      <trkpt lat="43.46891" lon="6.79262">
        <ele>158</ele>
        <time>2011-06-03T09:37:32Z</time>
      </trkpt>
      <trkpt lat="43.46893" lon="6.79261">
        <ele>158</ele>
        <time>2011-06-03T09:37:33Z</time>
      </trkpt>
      <trkpt lat="43.46895" lon="6.7926">
        <ele>158</ele>
        <time>2011-06-03T09:37:34Z</time>
      </trkpt>
      <trkpt lat="43.46898" lon="6.7926">
        <ele>158</ele>
        <time>2011-06-03T09:37:35Z</time>
      </trkpt>
      <trkpt lat="43.469" lon="6.7926">
        <ele>158</ele>
        <time>2011-06-03T09:37:36Z</time>
      </trkpt>
      <trkpt lat="43.46902" lon="6.79258">
        <ele>158</ele>
        <time>2011-06-03T09:37:37Z</time>
      </trkpt>
      <trkpt lat="43.46904" lon="6.79257">
        <ele>158</ele>
        <time>2011-06-03T09:37:38Z</time>
      </trkpt>
      <trkpt lat="43.46908" lon="6.79257">
        <ele>158</ele>
        <time>2011-06-03T09:37:39Z</time>
      </trkpt>
      <trkpt lat="43.4691" lon="6.79256">
        <ele>159</ele>
        <time>2011-06-03T09:37:40Z</time>
      </trkpt>
      <trkpt lat="43.46912" lon="6.79255">
        <ele>160</ele>
        <time>2011-06-03T09:37:41Z</time>
      </trkpt>
      <trkpt lat="43.46914" lon="6.79254">
        <ele>161</ele>
        <time>2011-06-03T09:37:42Z</time>
      </trkpt>
      <trkpt lat="43.46916" lon="6.79254">
        <ele>160</ele>
        <time>2011-06-03T09:37:43Z</time>
      </trkpt>
      <trkpt lat="43.46919" lon="6.79253">
        <ele>159</ele>
        <time>2011-06-03T09:37:44Z</time>
      </trkpt>
      <trkpt lat="43.46922" lon="6.79252">
        <ele>159</ele>
        <time>2011-06-03T09:37:45Z</time>
      </trkpt>
      <trkpt lat="43.46925" lon="6.79252">
        <ele>158</ele>
        <time>2011-06-03T09:37:46Z</time>
      </trkpt>
      <trkpt lat="43.46927" lon="6.7925">
        <ele>158</ele>
        <time>2011-06-03T09:37:47Z</time>
      </trkpt>
      <trkpt lat="43.4693" lon="6.7925">
        <ele>158</ele>
        <time>2011-06-03T09:37:48Z</time>
      </trkpt>
      <trkpt lat="43.46933" lon="6.79249">
        <ele>157</ele>
        <time>2011-06-03T09:37:49Z</time>
      </trkpt>
      <trkpt lat="43.46935" lon="6.79247">
        <ele>157</ele>
        <time>2011-06-03T09:37:50Z</time>
      </trkpt>
      <trkpt lat="43.46938" lon="6.79246">
        <ele>158</ele>
        <time>2011-06-03T09:37:51Z</time>
      </trkpt>
      <trkpt lat="43.46939" lon="6.79245">
        <ele>158</ele>
        <time>2011-06-03T09:37:52Z</time>
      </trkpt>
      <trkpt lat="43.46941" lon="6.79244">
        <ele>158</ele>
        <time>2011-06-03T09:37:53Z</time>
      </trkpt>
      <trkpt lat="43.46943" lon="6.79243">
        <ele>158</ele>
        <time>2011-06-03T09:37:54Z</time>
      </trkpt>
      <trkpt lat="43.46945" lon="6.79241">
        <ele>159</ele>
        <time>2011-06-03T09:37:55Z</time>
      </trkpt>
      <trkpt lat="43.46948" lon="6.7924">
        <ele>159</ele>
        <time>2011-06-03T09:37:56Z</time>
      </trkpt>
      <trkpt lat="43.4695" lon="6.79239">
        <ele>159</ele>
        <time>2011-06-03T09:37:57Z</time>
      </trkpt>
      <trkpt lat="43.46953" lon="6.79239">
        <ele>158</ele>
        <time>2011-06-03T09:37:58Z</time>
      </trkpt>
      <trkpt lat="43.46955" lon="6.79239">
        <ele>159</ele>
        <time>2011-06-03T09:37:59Z</time>
      </trkpt>
      <trkpt lat="43.46957" lon="6.79243">
        <ele>159</ele>
        <time>2011-06-03T09:38:00Z</time>
      </trkpt>
      <trkpt lat="43.46961" lon="6.79246">
        <ele>159</ele>
        <time>2011-06-03T09:38:01Z</time>
      </trkpt>
      <trkpt lat="43.46963" lon="6.7925">
        <ele>159</ele>
        <time>2011-06-03T09:38:02Z</time>
      </trkpt>
      <trkpt lat="43.46964" lon="6.79254">
        <ele>159</ele>
        <time>2011-06-03T09:38:03Z</time>
      </trkpt>
      <trkpt lat="43.46963" lon="6.79258">
        <ele>159</ele>
        <time>2011-06-03T09:38:04Z</time>
      </trkpt>
      <trkpt lat="43.46962" lon="6.79261">
        <ele>159</ele>
        <time>2011-06-03T09:38:05Z</time>
      </trkpt>
      <trkpt lat="43.4696" lon="6.79264">
        <ele>159</ele>
        <time>2011-06-03T09:38:06Z</time>
      </trkpt>
      <trkpt lat="43.46959" lon="6.79268">
        <ele>159</ele>
        <time>2011-06-03T09:38:07Z</time>
      </trkpt>
      <trkpt lat="43.46957" lon="6.79271">
        <ele>159</ele>
        <time>2011-06-03T09:38:08Z</time>
      </trkpt>
      <trkpt lat="43.46955" lon="6.79274">
        <ele>159</ele>
        <time>2011-06-03T09:38:09Z</time>
      </trkpt>
      <trkpt lat="43.46954" lon="6.79277">
        <ele>159</ele>
        <time>2011-06-03T09:38:10Z</time>
      </trkpt>
      <trkpt lat="43.46953" lon="6.79279">
        <ele>159</ele>
        <time>2011-06-03T09:38:11Z</time>
      </trkpt>
      <trkpt lat="43.46951" lon="6.79281">
        <ele>159</ele>
        <time>2011-06-03T09:38:12Z</time>
      </trkpt>
      <trkpt lat="43.4695" lon="6.79284">
        <ele>159</ele>
        <time>2011-06-03T09:38:13Z</time>
      </trkpt>
      <trkpt lat="43.46949" lon="6.79288">
        <ele>159</ele>
        <time>2011-06-03T09:38:14Z</time>
      </trkpt>
      <trkpt lat="43.46947" lon="6.79291">
        <ele>160</ele>
        <time>2011-06-03T09:38:15Z</time>
      </trkpt>
      <trkpt lat="43.46944" lon="6.79294">
        <ele>160</ele>
        <time>2011-06-03T09:38:16Z</time>
      </trkpt>
      <trkpt lat="43.46943" lon="6.79297">
        <ele>160</ele>
        <time>2011-06-03T09:38:17Z</time>
      </trkpt>
      <trkpt lat="43.46942" lon="6.793">
        <ele>159</ele>
        <time>2011-06-03T09:38:18Z</time>
      </trkpt>
      <trkpt lat="43.4694" lon="6.79303">
        <ele>159</ele>
        <time>2011-06-03T09:38:19Z</time>
      </trkpt>
      <trkpt lat="43.46939" lon="6.79305">
        <ele>159</ele>
        <time>2011-06-03T09:38:20Z</time>
      </trkpt>
      <trkpt lat="43.46938" lon="6.79307">
        <ele>159</ele>
        <time>2011-06-03T09:38:21Z</time>
      </trkpt>
      <trkpt lat="43.46936" lon="6.7931">
        <ele>159</ele>
        <time>2011-06-03T09:38:22Z</time>
      </trkpt>
      <trkpt lat="43.46934" lon="6.79312">
        <ele>159</ele>
        <time>2011-06-03T09:38:23Z</time>
      </trkpt>
      <trkpt lat="43.46933" lon="6.79314">
        <ele>159</ele>
        <time>2011-06-03T09:38:24Z</time>
      </trkpt>
      <trkpt lat="43.46931" lon="6.79318">
        <ele>159</ele>
        <time>2011-06-03T09:38:25Z</time>
      </trkpt>
      <trkpt lat="43.4693" lon="6.7932">
        <ele>159</ele>
        <time>2011-06-03T09:38:26Z</time>
      </trkpt>
      <trkpt lat="43.46928" lon="6.79323">
        <ele>160</ele>
        <time>2011-06-03T09:38:27Z</time>
      </trkpt>
      <trkpt lat="43.46927" lon="6.79325">
        <ele>159</ele>
        <time>2011-06-03T09:38:28Z</time>
      </trkpt>
      <trkpt lat="43.46926" lon="6.79328">
        <ele>159</ele>
        <time>2011-06-03T09:38:29Z</time>
      </trkpt>
      <trkpt lat="43.46925" lon="6.79331">
        <ele>159</ele>
        <time>2011-06-03T09:38:30Z</time>
      </trkpt>
      <trkpt lat="43.46924" lon="6.79334">
        <ele>159</ele>
        <time>2011-06-03T09:38:31Z</time>
      </trkpt>
      <trkpt lat="43.46924" lon="6.79338">
        <ele>159</ele>
        <time>2011-06-03T09:38:32Z</time>
      </trkpt>
      <trkpt lat="43.46924" lon="6.7934">
        <ele>159</ele>
        <time>2011-06-03T09:38:33Z</time>
      </trkpt>
      <trkpt lat="43.46924" lon="6.79343">
        <ele>158</ele>
        <time>2011-06-03T09:38:34Z</time>
      </trkpt>
      <trkpt lat="43.46924" lon="6.79346">
        <ele>158</ele>
        <time>2011-06-03T09:38:35Z</time>
      </trkpt>
      <trkpt lat="43.46924" lon="6.79349">
        <ele>158</ele>
        <time>2011-06-03T09:38:36Z</time>
      </trkpt>
      <trkpt lat="43.46925" lon="6.79351">
        <ele>158</ele>
        <time>2011-06-03T09:38:37Z</time>
      </trkpt>
      <trkpt lat="43.46927" lon="6.79354">
        <ele>158</ele>
        <time>2011-06-03T09:38:38Z</time>
      </trkpt>
      <trkpt lat="43.46928" lon="6.79356">
        <ele>158</ele>
        <time>2011-06-03T09:38:39Z</time>
      </trkpt>
      <trkpt lat="43.46931" lon="6.79357">
        <ele>158</ele>
        <time>2011-06-03T09:38:40Z</time>
      </trkpt>
      <trkpt lat="43.46933" lon="6.79358">
        <ele>159</ele>
        <time>2011-06-03T09:38:41Z</time>
      </trkpt>
      <trkpt lat="43.46934" lon="6.7936">
        <ele>159</ele>
        <time>2011-06-03T09:38:42Z</time>
      </trkpt>
      <trkpt lat="43.46936" lon="6.79362">
        <ele>160</ele>
        <time>2011-06-03T09:38:43Z</time>
      </trkpt>
      <trkpt lat="43.46938" lon="6.79365">
        <ele>160</ele>
        <time>2011-06-03T09:38:44Z</time>
      </trkpt>
      <trkpt lat="43.46939" lon="6.79369">
        <ele>160</ele>
        <time>2011-06-03T09:38:45Z</time>
      </trkpt>
      <trkpt lat="43.46939" lon="6.79373">
        <ele>160</ele>
        <time>2011-06-03T09:38:46Z</time>
      </trkpt>
      <trkpt lat="43.46938" lon="6.79377">
        <ele>160</ele>
        <time>2011-06-03T09:38:47Z</time>
      </trkpt>
      <trkpt lat="43.46938" lon="6.7938">
        <ele>160</ele>
        <time>2011-06-03T09:38:48Z</time>
      </trkpt>
      <trkpt lat="43.46938" lon="6.79384">
        <ele>160</ele>
        <time>2011-06-03T09:38:49Z</time>
      </trkpt>
      <trkpt lat="43.46937" lon="6.79386">
        <ele>161</ele>
        <time>2011-06-03T09:38:50Z</time>
      </trkpt>
      <trkpt lat="43.46936" lon="6.7939">
        <ele>161</ele>
        <time>2011-06-03T09:38:51Z</time>
      </trkpt>
      <trkpt lat="43.46935" lon="6.79392">
        <ele>161</ele>
        <time>2011-06-03T09:38:52Z</time>
      </trkpt>
      <trkpt lat="43.46934" lon="6.79395">
        <ele>161</ele>
        <time>2011-06-03T09:38:53Z</time>
      </trkpt>
      <trkpt lat="43.46933" lon="6.79399">
        <ele>161</ele>
        <time>2011-06-03T09:38:54Z</time>
      </trkpt>
      <trkpt lat="43.46932" lon="6.79402">
        <ele>161</ele>
        <time>2011-06-03T09:38:55Z</time>
      </trkpt>
      <trkpt lat="43.46931" lon="6.79405">
        <ele>161</ele>
        <time>2011-06-03T09:38:56Z</time>
      </trkpt>
      <trkpt lat="43.4693" lon="6.79408">
        <ele>161</ele>
        <time>2011-06-03T09:38:57Z</time>
      </trkpt>
      <trkpt lat="43.46928" lon="6.79411">
        <ele>162</ele>
        <time>2011-06-03T09:38:58Z</time>
      </trkpt>
      <trkpt lat="43.46928" lon="6.79415">
        <ele>162</ele>
        <time>2011-06-03T09:38:59Z</time>
      </trkpt>
      <trkpt lat="43.46927" lon="6.79419">
        <ele>162</ele>
        <time>2011-06-03T09:39:00Z</time>
      </trkpt>
      <trkpt lat="43.46926" lon="6.79423">
        <ele>162</ele>
        <time>2011-06-03T09:39:01Z</time>
      </trkpt>
      <trkpt lat="43.46926" lon="6.79426">
        <ele>161</ele>
        <time>2011-06-03T09:39:02Z</time>
      </trkpt>
      <trkpt lat="43.46925" lon="6.79429">
        <ele>161</ele>
        <time>2011-06-03T09:39:03Z</time>
      </trkpt>
      <trkpt lat="43.46924" lon="6.79433">
        <ele>161</ele>
        <time>2011-06-03T09:39:04Z</time>
      </trkpt>
      <trkpt lat="43.46924" lon="6.79436">
        <ele>161</ele>
        <time>2011-06-03T09:39:05Z</time>
      </trkpt>
      <trkpt lat="43.46924" lon="6.7944">
        <ele>161</ele>
        <time>2011-06-03T09:39:06Z</time>
      </trkpt>
      <trkpt lat="43.46923" lon="6.79444">
        <ele>160</ele>
        <time>2011-06-03T09:39:07Z</time>
      </trkpt>
      <trkpt lat="43.46923" lon="6.79448">
        <ele>161</ele>
        <time>2011-06-03T09:39:08Z</time>
      </trkpt>
      <trkpt lat="43.46923" lon="6.7945">
        <ele>161</ele>
        <time>2011-06-03T09:39:09Z</time>
      </trkpt>
      <trkpt lat="43.46923" lon="6.79454">
        <ele>161</ele>
        <time>2011-06-03T09:39:10Z</time>
      </trkpt>
      <trkpt lat="43.46923" lon="6.79457">
        <ele>162</ele>
        <time>2011-06-03T09:39:11Z</time>
      </trkpt>
      <trkpt lat="43.46923" lon="6.7946">
        <ele>162</ele>
        <time>2011-06-03T09:39:12Z</time>
      </trkpt>
      <trkpt lat="43.46923" lon="6.79464">
        <ele>162</ele>
        <time>2011-06-03T09:39:13Z</time>
      </trkpt>
      <trkpt lat="43.46921" lon="6.79468">
        <ele>163</ele>
        <time>2011-06-03T09:39:14Z</time>
      </trkpt>
      <trkpt lat="43.46921" lon="6.79471">
        <ele>163</ele>
        <time>2011-06-03T09:39:15Z</time>
      </trkpt>
      <trkpt lat="43.46921" lon="6.79473">
        <ele>163</ele>
        <time>2011-06-03T09:39:16Z</time>
      </trkpt>
      <trkpt lat="43.4692" lon="6.79476">
        <ele>163</ele>
        <time>2011-06-03T09:39:17Z</time>
      </trkpt>
      <trkpt lat="43.46919" lon="6.79479">
        <ele>165</ele>
        <time>2011-06-03T09:39:18Z</time>
      </trkpt>
      <trkpt lat="43.46919" lon="6.79482">
        <ele>165</ele>
        <time>2011-06-03T09:39:19Z</time>
      </trkpt>
      <trkpt lat="43.46918" lon="6.79486">
        <ele>165</ele>
        <time>2011-06-03T09:39:20Z</time>
      </trkpt>
      <trkpt lat="43.46918" lon="6.79489">
        <ele>165</ele>
        <time>2011-06-03T09:39:21Z</time>
      </trkpt>
      <trkpt lat="43.46918" lon="6.79493">
        <ele>166</ele>
        <time>2011-06-03T09:39:22Z</time>
      </trkpt>
      <trkpt lat="43.46919" lon="6.79495">
        <ele>165</ele>
        <time>2011-06-03T09:39:23Z</time>
      </trkpt>
      <trkpt lat="43.4692" lon="6.79498">
        <ele>166</ele>
        <time>2011-06-03T09:39:24Z</time>
      </trkpt>
      <trkpt lat="43.4692" lon="6.795">
        <ele>165</ele>
        <time>2011-06-03T09:39:25Z</time>
      </trkpt>
      <trkpt lat="43.46922" lon="6.79501">
        <ele>166</ele>
        <time>2011-06-03T09:39:26Z</time>
      </trkpt>
      <trkpt lat="43.46925" lon="6.79503">
        <ele>166</ele>
        <time>2011-06-03T09:39:27Z</time>
      </trkpt>
      <trkpt lat="43.46926" lon="6.79502">
        <ele>167</ele>
        <time>2011-06-03T09:39:28Z</time>
      </trkpt>
      <trkpt lat="43.46928" lon="6.795">
        <ele>167</ele>
        <time>2011-06-03T09:39:29Z</time>
      </trkpt>
      <trkpt lat="43.4693" lon="6.79498">
        <ele>166</ele>
        <time>2011-06-03T09:39:30Z</time>
      </trkpt>
      <trkpt lat="43.46932" lon="6.79498">
        <ele>166</ele>
        <time>2011-06-03T09:39:31Z</time>
      </trkpt>
      <trkpt lat="43.46934" lon="6.79497">
        <ele>166</ele>
        <time>2011-06-03T09:39:32Z</time>
      </trkpt>
      <trkpt lat="43.46936" lon="6.79496">
        <ele>165</ele>
        <time>2011-06-03T09:39:33Z</time>
      </trkpt>
      <trkpt lat="43.46939" lon="6.79495">
        <ele>165</ele>
        <time>2011-06-03T09:39:34Z</time>
      </trkpt>
      <trkpt lat="43.46941" lon="6.79493">
        <ele>165</ele>
        <time>2011-06-03T09:39:35Z</time>
      </trkpt>
      <trkpt lat="43.46943" lon="6.79491">
        <ele>165</ele>
        <time>2011-06-03T09:39:36Z</time>
      </trkpt>
      <trkpt lat="43.46945" lon="6.7949">
        <ele>165</ele>
        <time>2011-06-03T09:39:37Z</time>
      </trkpt>
      <trkpt lat="43.46947" lon="6.79488">
        <ele>165</ele>
        <time>2011-06-03T09:39:38Z</time>
      </trkpt>
      <trkpt lat="43.46948" lon="6.79486">
        <ele>166</ele>
        <time>2011-06-03T09:39:39Z</time>
      </trkpt>
      <trkpt lat="43.4695" lon="6.79485">
        <ele>166</ele>
        <time>2011-06-03T09:39:40Z</time>
      </trkpt>
      <trkpt lat="43.46953" lon="6.79484">
        <ele>166</ele>
        <time>2011-06-03T09:39:41Z</time>
      </trkpt>
      <trkpt lat="43.46956" lon="6.79483">
        <ele>166</ele>
        <time>2011-06-03T09:39:42Z</time>
      </trkpt>
      <trkpt lat="43.46958" lon="6.79482">
        <ele>166</ele>
        <time>2011-06-03T09:39:43Z</time>
      </trkpt>
      <trkpt lat="43.4696" lon="6.79481">
        <ele>166</ele>
        <time>2011-06-03T09:39:44Z</time>
      </trkpt>
      <trkpt lat="43.46962" lon="6.79479">
        <ele>167</ele>
        <time>2011-06-03T09:39:45Z</time>
      </trkpt>
      <trkpt lat="43.46964" lon="6.79478">
        <ele>168</ele>
        <time>2011-06-03T09:39:46Z</time>
      </trkpt>
      <trkpt lat="43.46967" lon="6.79476">
        <ele>169</ele>
        <time>2011-06-03T09:39:47Z</time>
      </trkpt>
      <trkpt lat="43.46969" lon="6.79476">
        <ele>170</ele>
        <time>2011-06-03T09:39:48Z</time>
      </trkpt>
      <trkpt lat="43.46971" lon="6.79475">
        <ele>170</ele>
        <time>2011-06-03T09:39:49Z</time>
      </trkpt>
      <trkpt lat="43.46973" lon="6.79474">
        <ele>170</ele>
        <time>2011-06-03T09:39:50Z</time>
      </trkpt>
      <trkpt lat="43.46975" lon="6.79473">
        <ele>170</ele>
        <time>2011-06-03T09:39:51Z</time>
      </trkpt>
      <trkpt lat="43.46977" lon="6.79472">
        <ele>170</ele>
        <time>2011-06-03T09:39:52Z</time>
      </trkpt>
      <trkpt lat="43.46979" lon="6.79471">
        <ele>171</ele>
        <time>2011-06-03T09:39:53Z</time>
      </trkpt>
      <trkpt lat="43.46982" lon="6.7947">
        <ele>171</ele>
        <time>2011-06-03T09:39:54Z</time>
      </trkpt>
      <trkpt lat="43.46984" lon="6.79468">
        <ele>171</ele>
        <time>2011-06-03T09:39:55Z</time>
      </trkpt>
      <trkpt lat="43.46987" lon="6.79468">
        <ele>171</ele>
        <time>2011-06-03T09:39:56Z</time>
      </trkpt>
      <trkpt lat="43.46989" lon="6.79467">
        <ele>170</ele>
        <time>2011-06-03T09:39:57Z</time>
      </trkpt>
      <trkpt lat="43.46991" lon="6.79466">
        <ele>171</ele>
        <time>2011-06-03T09:39:58Z</time>
      </trkpt>
      <trkpt lat="43.46993" lon="6.79465">
        <ele>171</ele>
        <time>2011-06-03T09:39:59Z</time>
      </trkpt>
      <trkpt lat="43.46994" lon="6.79464">
        <ele>171</ele>
        <time>2011-06-03T09:40:00Z</time>
      </trkpt>
      <trkpt lat="43.46996" lon="6.79463">
        <ele>171</ele>
        <time>2011-06-03T09:40:01Z</time>
      </trkpt>
      <trkpt lat="43.46998" lon="6.79461">
        <ele>172</ele>
        <time>2011-06-03T09:40:02Z</time>
      </trkpt>
      <trkpt lat="43.46999" lon="6.79461">
        <ele>172</ele>
        <time>2011-06-03T09:40:03Z</time>
      </trkpt>
      <trkpt lat="43.47001" lon="6.7946">
        <ele>172</ele>
        <time>2011-06-03T09:40:04Z</time>
      </trkpt>
      <trkpt lat="43.47004" lon="6.79459">
        <ele>172</ele>
        <time>2011-06-03T09:40:05Z</time>
      </trkpt>
      <trkpt lat="43.47006" lon="6.79459">
        <ele>172</ele>
        <time>2011-06-03T09:40:06Z</time>
      </trkpt>
      <trkpt lat="43.47009" lon="6.79459">
        <ele>173</ele>
        <time>2011-06-03T09:40:07Z</time>
      </trkpt>
      <trkpt lat="43.47011" lon="6.79457">
        <ele>173</ele>
        <time>2011-06-03T09:40:08Z</time>
      </trkpt>
      <trkpt lat="43.47013" lon="6.79457">
        <ele>173</ele>
        <time>2011-06-03T09:40:09Z</time>
      </trkpt>
      <trkpt lat="43.47015" lon="6.79456">
        <ele>173</ele>
        <time>2011-06-03T09:40:10Z</time>
      </trkpt>
      <trkpt lat="43.47018" lon="6.79453">
        <ele>173</ele>
        <time>2011-06-03T09:40:11Z</time>
      </trkpt>
      <trkpt lat="43.47019" lon="6.79452">
        <ele>173</ele>
        <time>2011-06-03T09:40:12Z</time>
      </trkpt>
      <trkpt lat="43.47021" lon="6.79451">
        <ele>173</ele>
        <time>2011-06-03T09:40:13Z</time>
      </trkpt>
      <trkpt lat="43.47025" lon="6.7945">
        <ele>173</ele>
        <time>2011-06-03T09:40:14Z</time>
      </trkpt>
      <trkpt lat="43.47026" lon="6.7945">
        <ele>172</ele>
        <time>2011-06-03T09:40:15Z</time>
      </trkpt>
      <trkpt lat="43.47029" lon="6.7945">
        <ele>172</ele>
        <time>2011-06-03T09:40:16Z</time>
      </trkpt>
      <trkpt lat="43.47031" lon="6.79449">
        <ele>172</ele>
        <time>2011-06-03T09:40:17Z</time>
      </trkpt>
      <trkpt lat="43.47034" lon="6.79447">
        <ele>172</ele>
        <time>2011-06-03T09:40:18Z</time>
      </trkpt>
      <trkpt lat="43.47035" lon="6.79445">
        <ele>172</ele>
        <time>2011-06-03T09:40:19Z</time>
      </trkpt>
      <trkpt lat="43.47037" lon="6.79445">
        <ele>173</ele>
        <time>2011-06-03T09:40:20Z</time>
      </trkpt>
      <trkpt lat="43.4704" lon="6.79443">
        <ele>172</ele>
        <time>2011-06-03T09:40:21Z</time>
      </trkpt>
      <trkpt lat="43.47042" lon="6.79442">
        <ele>172</ele>
        <time>2011-06-03T09:40:22Z</time>
      </trkpt>
      <trkpt lat="43.47043" lon="6.79441">
        <ele>172</ele>
        <time>2011-06-03T09:40:23Z</time>
      </trkpt>
      <trkpt lat="43.47045" lon="6.79438">
        <ele>172</ele>
        <time>2011-06-03T09:40:24Z</time>
      </trkpt>
      <trkpt lat="43.47046" lon="6.79437">
        <ele>171</ele>
        <time>2011-06-03T09:40:25Z</time>
      </trkpt>
      <trkpt lat="43.47047" lon="6.79435">
        <ele>172</ele>
        <time>2011-06-03T09:40:26Z</time>
      </trkpt>
      <trkpt lat="43.4705" lon="6.79434">
        <ele>172</ele>
        <time>2011-06-03T09:40:27Z</time>
      </trkpt>
      <trkpt lat="43.47051" lon="6.79431">
        <ele>172</ele>
        <time>2011-06-03T09:40:28Z</time>
      </trkpt>
      <trkpt lat="43.47053" lon="6.79429">
        <ele>172</ele>
        <time>2011-06-03T09:40:29Z</time>
      </trkpt>
      <trkpt lat="43.47055" lon="6.79428">
        <ele>172</ele>
        <time>2011-06-03T09:40:30Z</time>
      </trkpt>
      <trkpt lat="43.47057" lon="6.79429">
        <ele>173</ele>
        <time>2011-06-03T09:40:31Z</time>
      </trkpt>
      <trkpt lat="43.47058" lon="6.79428">
        <ele>173</ele>
        <time>2011-06-03T09:40:32Z</time>
      </trkpt>
      <trkpt lat="43.4706" lon="6.79427">
        <ele>172</ele>
        <time>2011-06-03T09:40:33Z</time>
      </trkpt>
      <trkpt lat="43.47063" lon="6.79426">
        <ele>174</ele>
        <time>2011-06-03T09:40:34Z</time>
      </trkpt>
      <trkpt lat="43.47065" lon="6.79426">
        <ele>174</ele>
        <time>2011-06-03T09:40:35Z</time>
      </trkpt>
      <trkpt lat="43.47067" lon="6.79426">
        <ele>175</ele>
        <time>2011-06-03T09:40:36Z</time>
      </trkpt>
      <trkpt lat="43.47069" lon="6.79426">
        <ele>176</ele>
        <time>2011-06-03T09:40:37Z</time>
      </trkpt>
      <trkpt lat="43.47072" lon="6.79428">
        <ele>176</ele>
        <time>2011-06-03T09:40:38Z</time>
      </trkpt>
      <trkpt lat="43.47075" lon="6.79431">
        <ele>175</ele>
        <time>2011-06-03T09:40:39Z</time>
      </trkpt>
      <trkpt lat="43.47075" lon="6.79433">
        <ele>176</ele>
        <time>2011-06-03T09:40:40Z</time>
      </trkpt>
      <trkpt lat="43.47077" lon="6.79438">
        <ele>175</ele>
        <time>2011-06-03T09:40:41Z</time>
      </trkpt>
      <trkpt lat="43.47077" lon="6.79444">
        <ele>175</ele>
        <time>2011-06-03T09:40:42Z</time>
      </trkpt>
      <trkpt lat="43.47078" lon="6.79448">
        <ele>174</ele>
        <time>2011-06-03T09:40:43Z</time>
      </trkpt>
      <trkpt lat="43.47078" lon="6.79451">
        <ele>174</ele>
        <time>2011-06-03T09:40:44Z</time>
      </trkpt>
      <trkpt lat="43.47078" lon="6.79455">
        <ele>174</ele>
        <time>2011-06-03T09:40:45Z</time>
      </trkpt>
      <trkpt lat="43.47078" lon="6.79457">
        <ele>174</ele>
        <time>2011-06-03T09:40:46Z</time>
      </trkpt>
      <trkpt lat="43.47077" lon="6.7946">
        <ele>173</ele>
        <time>2011-06-03T09:40:47Z</time>
      </trkpt>
      <trkpt lat="43.47076" lon="6.79463">
        <ele>173</ele>
        <time>2011-06-03T09:40:48Z</time>
      </trkpt>
      <trkpt lat="43.47075" lon="6.79466">
        <ele>173</ele>
        <time>2011-06-03T09:40:49Z</time>
      </trkpt>
      <trkpt lat="43.47075" lon="6.7947">
        <ele>173</ele>
        <time>2011-06-03T09:40:50Z</time>
      </trkpt>
      <trkpt lat="43.47076" lon="6.79472">
        <ele>173</ele>
        <time>2011-06-03T09:40:51Z</time>
      </trkpt>
      <trkpt lat="43.47075" lon="6.79475">
        <ele>173</ele>
        <time>2011-06-03T09:40:52Z</time>
      </trkpt>
      <trkpt lat="43.47074" lon="6.79478">
        <ele>174</ele>
        <time>2011-06-03T09:40:53Z</time>
      </trkpt>
      <trkpt lat="43.47073" lon="6.79482">
        <ele>174</ele>
        <time>2011-06-03T09:40:54Z</time>
      </trkpt>
      <trkpt lat="43.47073" lon="6.79485">
        <ele>174</ele>
        <time>2011-06-03T09:40:55Z</time>
      </trkpt>
      <trkpt lat="43.47072" lon="6.79486">
        <ele>174</ele>
        <time>2011-06-03T09:40:56Z</time>
      </trkpt>
      <trkpt lat="43.47072" lon="6.79489">
        <ele>174</ele>
        <time>2011-06-03T09:40:57Z</time>
      </trkpt>
      <trkpt lat="43.4707" lon="6.79492">
        <ele>174</ele>
        <time>2011-06-03T09:40:58Z</time>
      </trkpt>
      <trkpt lat="43.4707" lon="6.79495">
        <ele>175</ele>
        <time>2011-06-03T09:40:59Z</time>
      </trkpt>
      <trkpt lat="43.4707" lon="6.79498">
        <ele>175</ele>
        <time>2011-06-03T09:41:00Z</time>
      </trkpt>
      <trkpt lat="43.47068" lon="6.795">
        <ele>175</ele>
        <time>2011-06-03T09:41:01Z</time>
      </trkpt>
      <trkpt lat="43.47068" lon="6.79503">
        <ele>174</ele>
        <time>2011-06-03T09:41:02Z</time>
      </trkpt>
      <trkpt lat="43.47067" lon="6.79506">
        <ele>175</ele>
        <time>2011-06-03T09:41:03Z</time>
      </trkpt>
      <trkpt lat="43.47065" lon="6.79509">
        <ele>175</ele>
        <time>2011-06-03T09:41:04Z</time>
      </trkpt>
      <trkpt lat="43.47064" lon="6.79511">
        <ele>175</ele>
        <time>2011-06-03T09:41:05Z</time>
      </trkpt>
      <trkpt lat="43.47063" lon="6.79514">
        <ele>175</ele>
        <time>2011-06-03T09:41:06Z</time>
      </trkpt>
      <trkpt lat="43.47061" lon="6.79517">
        <ele>175</ele>
        <time>2011-06-03T09:41:07Z</time>
      </trkpt>
      <trkpt lat="43.4706" lon="6.7952">
        <ele>175</ele>
        <time>2011-06-03T09:41:08Z</time>
      </trkpt>
      <trkpt lat="43.47058" lon="6.79523">
        <ele>175</ele>
        <time>2011-06-03T09:41:09Z</time>
      </trkpt>
      <trkpt lat="43.47057" lon="6.79526">
        <ele>176</ele>
        <time>2011-06-03T09:41:10Z</time>
      </trkpt>
      <trkpt lat="43.47054" lon="6.79529">
        <ele>176</ele>
        <time>2011-06-03T09:41:11Z</time>
      </trkpt>
      <trkpt lat="43.47052" lon="6.79532">
        <ele>176</ele>
        <time>2011-06-03T09:41:12Z</time>
      </trkpt>
      <trkpt lat="43.47051" lon="6.79534">
        <ele>176</ele>
        <time>2011-06-03T09:41:13Z</time>
      </trkpt>
      <trkpt lat="43.4705" lon="6.79536">
        <ele>177</ele>
        <time>2011-06-03T09:41:14Z</time>
      </trkpt>
      <trkpt lat="43.47048" lon="6.79538">
        <ele>177</ele>
        <time>2011-06-03T09:41:15Z</time>
      </trkpt>
      <trkpt lat="43.47048" lon="6.7954">
        <ele>177</ele>
        <time>2011-06-03T09:41:16Z</time>
      </trkpt>
      <trkpt lat="43.47046" lon="6.79544">
        <ele>177</ele>
        <time>2011-06-03T09:41:17Z</time>
      </trkpt>
      <trkpt lat="43.47046" lon="6.79546">
        <ele>177</ele>
        <time>2011-06-03T09:41:18Z</time>
      </trkpt>
      <trkpt lat="43.47046" lon="6.79549">
        <ele>178</ele>
        <time>2011-06-03T09:41:19Z</time>
      </trkpt>
      <trkpt lat="43.47045" lon="6.79553">
        <ele>179</ele>
        <time>2011-06-03T09:41:20Z</time>
      </trkpt>
      <trkpt lat="43.47044" lon="6.79556">
        <ele>180</ele>
        <time>2011-06-03T09:41:21Z</time>
      </trkpt>
      <trkpt lat="43.47044" lon="6.79559">
        <ele>180</ele>
        <time>2011-06-03T09:41:22Z</time>
      </trkpt>
      <trkpt lat="43.47043" lon="6.79562">
        <ele>180</ele>
        <time>2011-06-03T09:41:23Z</time>
      </trkpt>
      <trkpt lat="43.47043" lon="6.79566">
        <ele>181</ele>
        <time>2011-06-03T09:41:24Z</time>
      </trkpt>
      <trkpt lat="43.47043" lon="6.79569">
        <ele>182</ele>
        <time>2011-06-03T09:41:25Z</time>
      </trkpt>
      <trkpt lat="43.47043" lon="6.79571">
        <ele>182</ele>
        <time>2011-06-03T09:41:26Z</time>
      </trkpt>
      <trkpt lat="43.47043" lon="6.79574">
        <ele>182</ele>
        <time>2011-06-03T09:41:27Z</time>
      </trkpt>
      <trkpt lat="43.47044" lon="6.79576">
        <ele>182</ele>
        <time>2011-06-03T09:41:28Z</time>
      </trkpt>
      <trkpt lat="43.47046" lon="6.79578">
        <ele>183</ele>
        <time>2011-06-03T09:41:29Z</time>
      </trkpt>
      <trkpt lat="43.47048" lon="6.79581">
        <ele>184</ele>
        <time>2011-06-03T09:41:30Z</time>
      </trkpt>
      <trkpt lat="43.4705" lon="6.79582">
        <ele>184</ele>
        <time>2011-06-03T09:41:31Z</time>
      </trkpt>
      <trkpt lat="43.47052" lon="6.79583">
        <ele>184</ele>
        <time>2011-06-03T09:41:32Z</time>
      </trkpt>
      <trkpt lat="43.47054" lon="6.79584">
        <ele>184</ele>
        <time>2011-06-03T09:41:33Z</time>
      </trkpt>
      <trkpt lat="43.47056" lon="6.79585">
        <ele>184</ele>
        <time>2011-06-03T09:41:34Z</time>
      </trkpt>
      <trkpt lat="43.47058" lon="6.79586">
        <ele>184</ele>
        <time>2011-06-03T09:41:35Z</time>
      </trkpt>
      <trkpt lat="43.4706" lon="6.79586">
        <ele>184</ele>
        <time>2011-06-03T09:41:36Z</time>
      </trkpt>
      <trkpt lat="43.47063" lon="6.79587">
        <ele>183</ele>
        <time>2011-06-03T09:41:37Z</time>
      </trkpt>
      <trkpt lat="43.47065" lon="6.79588">
        <ele>183</ele>
        <time>2011-06-03T09:41:38Z</time>
      </trkpt>
      <trkpt lat="43.47068" lon="6.79588">
        <ele>182</ele>
        <time>2011-06-03T09:41:39Z</time>
      </trkpt>
      <trkpt lat="43.47071" lon="6.79589">
        <ele>182</ele>
        <time>2011-06-03T09:41:40Z</time>
      </trkpt>
      <trkpt lat="43.47073" lon="6.79589">
        <ele>182</ele>
        <time>2011-06-03T09:41:41Z</time>
      </trkpt>
      <trkpt lat="43.47075" lon="6.79589">
        <ele>182</ele>
        <time>2011-06-03T09:41:42Z</time>
      </trkpt>
      <trkpt lat="43.47078" lon="6.79589">
        <ele>182</ele>
        <time>2011-06-03T09:41:43Z</time>
      </trkpt>
      <trkpt lat="43.4708" lon="6.79589">
        <ele>182</ele>
        <time>2011-06-03T09:41:44Z</time>
      </trkpt>
      <trkpt lat="43.47082" lon="6.7959">
        <ele>182</ele>
        <time>2011-06-03T09:41:45Z</time>
      </trkpt>
      <trkpt lat="43.47084" lon="6.7959">
        <ele>182</ele>
        <time>2011-06-03T09:41:46Z</time>
      </trkpt>
      <trkpt lat="43.47086" lon="6.7959">
        <ele>182</ele>
        <time>2011-06-03T09:41:47Z</time>
      </trkpt>
      <trkpt lat="43.47088" lon="6.7959">
        <ele>182</ele>
        <time>2011-06-03T09:41:48Z</time>
      </trkpt>
      <trkpt lat="43.47092" lon="6.7959">
        <ele>183</ele>
        <time>2011-06-03T09:41:49Z</time>
      </trkpt>
      <trkpt lat="43.47093" lon="6.79589">
        <ele>183</ele>
        <time>2011-06-03T09:41:50Z</time>
      </trkpt>
      <trkpt lat="43.47095" lon="6.79589">
        <ele>183</ele>
        <time>2011-06-03T09:41:51Z</time>
      </trkpt>
      <trkpt lat="43.47098" lon="6.79589">
        <ele>183</ele>
        <time>2011-06-03T09:41:52Z</time>
      </trkpt>
      <trkpt lat="43.471" lon="6.79589">
        <ele>183</ele>
        <time>2011-06-03T09:41:53Z</time>
      </trkpt>
      <trkpt lat="43.47102" lon="6.79589">
        <ele>183</ele>
        <time>2011-06-03T09:41:54Z</time>
      </trkpt>
      <trkpt lat="43.47104" lon="6.7959">
        <ele>183</ele>
        <time>2011-06-03T09:41:55Z</time>
      </trkpt>
      <trkpt lat="43.47107" lon="6.7959">
        <ele>183</ele>
        <time>2011-06-03T09:41:56Z</time>
      </trkpt>
      <trkpt lat="43.47109" lon="6.7959">
        <ele>184</ele>
        <time>2011-06-03T09:41:57Z</time>
      </trkpt>
      <trkpt lat="43.47111" lon="6.7959">
        <ele>184</ele>
        <time>2011-06-03T09:41:58Z</time>
      </trkpt>
      <trkpt lat="43.47112" lon="6.7959">
        <ele>184</ele>
        <time>2011-06-03T09:41:59Z</time>
      </trkpt>
      <trkpt lat="43.47115" lon="6.79591">
        <ele>185</ele>
        <time>2011-06-03T09:42:00Z</time>
      </trkpt>
      <trkpt lat="43.47116" lon="6.79591">
        <ele>185</ele>
        <time>2011-06-03T09:42:01Z</time>
      </trkpt>
      <trkpt lat="43.47117" lon="6.7959">
        <ele>186</ele>
        <time>2011-06-03T09:42:02Z</time>
      </trkpt>
      <trkpt lat="43.4712" lon="6.7959">
        <ele>186</ele>
        <time>2011-06-03T09:42:03Z</time>
      </trkpt>
      <trkpt lat="43.47123" lon="6.79588">
        <ele>185</ele>
        <time>2011-06-03T09:42:04Z</time>
      </trkpt>
      <trkpt lat="43.47124" lon="6.79587">
        <ele>186</ele>
        <time>2011-06-03T09:42:05Z</time>
      </trkpt>
      <trkpt lat="43.47126" lon="6.79586">
        <ele>186</ele>
        <time>2011-06-03T09:42:06Z</time>
      </trkpt>
      <trkpt lat="43.47128" lon="6.79585">
        <ele>185</ele>
        <time>2011-06-03T09:42:07Z</time>
      </trkpt>
      <trkpt lat="43.4713" lon="6.79583">
        <ele>184</ele>
        <time>2011-06-03T09:42:08Z</time>
      </trkpt>
      <trkpt lat="43.47131" lon="6.79581">
        <ele>185</ele>
        <time>2011-06-03T09:42:09Z</time>
      </trkpt>
      <trkpt lat="43.47133" lon="6.79578">
        <ele>185</ele>
        <time>2011-06-03T09:42:10Z</time>
      </trkpt>
      <trkpt lat="43.47134" lon="6.79576">
        <ele>185</ele>
        <time>2011-06-03T09:42:11Z</time>
      </trkpt>
      <trkpt lat="43.47136" lon="6.79573">
        <ele>185</ele>
        <time>2011-06-03T09:42:12Z</time>
      </trkpt>
      <trkpt lat="43.47137" lon="6.79571">
        <ele>185</ele>
        <time>2011-06-03T09:42:13Z</time>
      </trkpt>
      <trkpt lat="43.47139" lon="6.79569">
        <ele>185</ele>
        <time>2011-06-03T09:42:14Z</time>
      </trkpt>
      <trkpt lat="43.47141" lon="6.79568">
        <ele>185</ele>
        <time>2011-06-03T09:42:15Z</time>
      </trkpt>
      <trkpt lat="43.47142" lon="6.79566">
        <ele>185</ele>
        <time>2011-06-03T09:42:16Z</time>
      </trkpt>
      <trkpt lat="43.47144" lon="6.79565">
        <ele>185</ele>
        <time>2011-06-03T09:42:17Z</time>
      </trkpt>
      <trkpt lat="43.47144" lon="6.79562">
        <ele>185</ele>
        <time>2011-06-03T09:42:18Z</time>
      </trkpt>
      <trkpt lat="43.47145" lon="6.79559">
        <ele>185</ele>
        <time>2011-06-03T09:42:19Z</time>
      </trkpt>
      <trkpt lat="43.47146" lon="6.79556">
        <ele>186</ele>
        <time>2011-06-03T09:42:20Z</time>
      </trkpt>
      <trkpt lat="43.47147" lon="6.79553">
        <ele>186</ele>
        <time>2011-06-03T09:42:21Z</time>
      </trkpt>
      <trkpt lat="43.47148" lon="6.7955">
        <ele>187</ele>
        <time>2011-06-03T09:42:22Z</time>
      </trkpt>
      <trkpt lat="43.47148" lon="6.79548">
        <ele>187</ele>
        <time>2011-06-03T09:42:23Z</time>
      </trkpt>
      <trkpt lat="43.47147" lon="6.79545">
        <ele>187</ele>
        <time>2011-06-03T09:42:24Z</time>
      </trkpt>
      <trkpt lat="43.47149" lon="6.79542">
        <ele>187</ele>
        <time>2011-06-03T09:42:25Z</time>
      </trkpt>
      <trkpt lat="43.47149" lon="6.79539">
        <ele>188</ele>
        <time>2011-06-03T09:42:26Z</time>
      </trkpt>
      <trkpt lat="43.4715" lon="6.79536">
        <ele>187</ele>
        <time>2011-06-03T09:42:27Z</time>
      </trkpt>
      <trkpt lat="43.4715" lon="6.79534">
        <ele>187</ele>
        <time>2011-06-03T09:42:28Z</time>
      </trkpt>
      <trkpt lat="43.47151" lon="6.79531">
        <ele>187</ele>
        <time>2011-06-03T09:42:29Z</time>
      </trkpt>
      <trkpt lat="43.47152" lon="6.79526">
        <ele>188</ele>
        <time>2011-06-03T09:42:30Z</time>
      </trkpt>
      <trkpt lat="43.47152" lon="6.79524">
        <ele>188</ele>
        <time>2011-06-03T09:42:31Z</time>
      </trkpt>
      <trkpt lat="43.47152" lon="6.79522">
        <ele>188</ele>
        <time>2011-06-03T09:42:32Z</time>
      </trkpt>
      <trkpt lat="43.47152" lon="6.79519">
        <ele>188</ele>
        <time>2011-06-03T09:42:33Z</time>
      </trkpt>
      <trkpt lat="43.47153" lon="6.79516">
        <ele>188</ele>
        <time>2011-06-03T09:42:34Z</time>
      </trkpt>
      <trkpt lat="43.47153" lon="6.79514">
        <ele>188</ele>
        <time>2011-06-03T09:42:35Z</time>
      </trkpt>
      <trkpt lat="43.47154" lon="6.7951">
        <ele>187</ele>
        <time>2011-06-03T09:42:36Z</time>
      </trkpt>
      <trkpt lat="43.47155" lon="6.79507">
        <ele>187</ele>
        <time>2011-06-03T09:42:37Z</time>
      </trkpt>
      <trkpt lat="43.47156" lon="6.79504">
        <ele>188</ele>
        <time>2011-06-03T09:42:38Z</time>
      </trkpt>
      <trkpt lat="43.47157" lon="6.79501">
        <ele>188</ele>
        <time>2011-06-03T09:42:39Z</time>
      </trkpt>
      <trkpt lat="43.47158" lon="6.79498">
        <ele>188</ele>
        <time>2011-06-03T09:42:40Z</time>
      </trkpt>
      <trkpt lat="43.47158" lon="6.79496">
        <ele>189</ele>
        <time>2011-06-03T09:42:41Z</time>
      </trkpt>
      <trkpt lat="43.47158" lon="6.79493">
        <ele>189</ele>
        <time>2011-06-03T09:42:42Z</time>
      </trkpt>
      <trkpt lat="43.47158" lon="6.7949">
        <ele>189</ele>
        <time>2011-06-03T09:42:43Z</time>
      </trkpt>
      <trkpt lat="43.47159" lon="6.79487">
        <ele>190</ele>
        <time>2011-06-03T09:42:44Z</time>
      </trkpt>
      <trkpt lat="43.4716" lon="6.79485">
        <ele>191</ele>
        <time>2011-06-03T09:42:45Z</time>
      </trkpt>
      <trkpt lat="43.4716" lon="6.79481">
        <ele>190</ele>
        <time>2011-06-03T09:42:46Z</time>
      </trkpt>
      <trkpt lat="43.4716" lon="6.79479">
        <ele>190</ele>
        <time>2011-06-03T09:42:47Z</time>
      </trkpt>
      <trkpt lat="43.4716" lon="6.79475">
        <ele>189</ele>
        <time>2011-06-03T09:42:48Z</time>
      </trkpt>
      <trkpt lat="43.4716" lon="6.79472">
        <ele>190</ele>
        <time>2011-06-03T09:42:49Z</time>
      </trkpt>
      <trkpt lat="43.47161" lon="6.7947">
        <ele>191</ele>
        <time>2011-06-03T09:42:50Z</time>
      </trkpt>
      <trkpt lat="43.47162" lon="6.79466">
        <ele>191</ele>
        <time>2011-06-03T09:42:51Z</time>
      </trkpt>
      <trkpt lat="43.47162" lon="6.79464">
        <ele>191</ele>
        <time>2011-06-03T09:42:52Z</time>
      </trkpt>
      <trkpt lat="43.47163" lon="6.7946">
        <ele>191</ele>
        <time>2011-06-03T09:42:53Z</time>
      </trkpt>
      <trkpt lat="43.47163" lon="6.79457">
        <ele>191</ele>
        <time>2011-06-03T09:42:54Z</time>
      </trkpt>
      <trkpt lat="43.47164" lon="6.79455">
        <ele>191</ele>
        <time>2011-06-03T09:42:55Z</time>
      </trkpt>
      <trkpt lat="43.47163" lon="6.79451">
        <ele>190</ele>
        <time>2011-06-03T09:42:56Z</time>
      </trkpt>
      <trkpt lat="43.47164" lon="6.79449">
        <ele>190</ele>
        <time>2011-06-03T09:42:57Z</time>
      </trkpt>
      <trkpt lat="43.47164" lon="6.79445">
        <ele>190</ele>
        <time>2011-06-03T09:42:58Z</time>
      </trkpt>
      <trkpt lat="43.47165" lon="6.79443">
        <ele>190</ele>
        <time>2011-06-03T09:42:59Z</time>
      </trkpt>
      <trkpt lat="43.47165" lon="6.79439">
        <ele>191</ele>
        <time>2011-06-03T09:43:00Z</time>
      </trkpt>
      <trkpt lat="43.47166" lon="6.79436">
        <ele>191</ele>
        <time>2011-06-03T09:43:01Z</time>
      </trkpt>
      <trkpt lat="43.47167" lon="6.79435">
        <ele>191</ele>
        <time>2011-06-03T09:43:02Z</time>
      </trkpt>
      <trkpt lat="43.47167" lon="6.79431">
        <ele>190</ele>
        <time>2011-06-03T09:43:03Z</time>
      </trkpt>
      <trkpt lat="43.47167" lon="6.79429">
        <ele>191</ele>
        <time>2011-06-03T09:43:04Z</time>
      </trkpt>
      <trkpt lat="43.47167" lon="6.79427">
        <ele>192</ele>
        <time>2011-06-03T09:43:05Z</time>
      </trkpt>
      <trkpt lat="43.47168" lon="6.79423">
        <ele>193</ele>
        <time>2011-06-03T09:43:06Z</time>
      </trkpt>
      <trkpt lat="43.47168" lon="6.7942">
        <ele>193</ele>
        <time>2011-06-03T09:43:07Z</time>
      </trkpt>
      <trkpt lat="43.47169" lon="6.79418">
        <ele>193</ele>
        <time>2011-06-03T09:43:08Z</time>
      </trkpt>
      <trkpt lat="43.4717" lon="6.79415">
        <ele>193</ele>
        <time>2011-06-03T09:43:09Z</time>
      </trkpt>
      <trkpt lat="43.4717" lon="6.79412">
        <ele>194</ele>
        <time>2011-06-03T09:43:10Z</time>
      </trkpt>
      <trkpt lat="43.47171" lon="6.79408">
        <ele>194</ele>
        <time>2011-06-03T09:43:11Z</time>
      </trkpt>
      <trkpt lat="43.47171" lon="6.79405">
        <ele>194</ele>
        <time>2011-06-03T09:43:12Z</time>
      </trkpt>
      <trkpt lat="43.47173" lon="6.79403">
        <ele>194</ele>
        <time>2011-06-03T09:43:13Z</time>
      </trkpt>
      <trkpt lat="43.47173" lon="6.794">
        <ele>194</ele>
        <time>2011-06-03T09:43:14Z</time>
      </trkpt>
      <trkpt lat="43.47174" lon="6.79398">
        <ele>194</ele>
        <time>2011-06-03T09:43:15Z</time>
      </trkpt>
      <trkpt lat="43.47175" lon="6.79394">
        <ele>194</ele>
        <time>2011-06-03T09:43:16Z</time>
      </trkpt>
      <trkpt lat="43.47176" lon="6.79392">
        <ele>193</ele>
        <time>2011-06-03T09:43:17Z</time>
      </trkpt>
      <trkpt lat="43.47178" lon="6.7939">
        <ele>192</ele>
        <time>2011-06-03T09:43:18Z</time>
      </trkpt>
      <trkpt lat="43.47179" lon="6.79387">
        <ele>192</ele>
        <time>2011-06-03T09:43:19Z</time>
      </trkpt>
      <trkpt lat="43.4718" lon="6.79384">
        <ele>192</ele>
        <time>2011-06-03T09:43:20Z</time>
      </trkpt>
      <trkpt lat="43.4718" lon="6.79381">
        <ele>192</ele>
        <time>2011-06-03T09:43:21Z</time>
      </trkpt>
      <trkpt lat="43.47181" lon="6.79378">
        <ele>193</ele>
        <time>2011-06-03T09:43:22Z</time>
      </trkpt>
      <trkpt lat="43.47181" lon="6.79376">
        <ele>193</ele>
        <time>2011-06-03T09:43:23Z</time>
      </trkpt>
      <trkpt lat="43.47183" lon="6.79371">
        <ele>193</ele>
        <time>2011-06-03T09:43:24Z</time>
      </trkpt>
      <trkpt lat="43.47184" lon="6.79368">
        <ele>193</ele>
        <time>2011-06-03T09:43:25Z</time>
      </trkpt>
      <trkpt lat="43.47185" lon="6.79365">
        <ele>194</ele>
        <time>2011-06-03T09:43:26Z</time>
      </trkpt>
      <trkpt lat="43.47187" lon="6.79363">
        <ele>194</ele>
        <time>2011-06-03T09:43:27Z</time>
      </trkpt>
      <trkpt lat="43.47187" lon="6.79361">
        <ele>194</ele>
        <time>2011-06-03T09:43:28Z</time>
      </trkpt>
      <trkpt lat="43.47188" lon="6.79358">
        <ele>194</ele>
        <time>2011-06-03T09:43:29Z</time>
      </trkpt>
      <trkpt lat="43.47189" lon="6.79355">
        <ele>194</ele>
        <time>2011-06-03T09:43:30Z</time>
      </trkpt>
      <trkpt lat="43.4719" lon="6.79352">
        <ele>194</ele>
        <time>2011-06-03T09:43:31Z</time>
      </trkpt>
      <trkpt lat="43.4719" lon="6.79349">
        <ele>195</ele>
        <time>2011-06-03T09:43:32Z</time>
      </trkpt>
      <trkpt lat="43.4719" lon="6.79346">
        <ele>195</ele>
        <time>2011-06-03T09:43:33Z</time>
      </trkpt>
      <trkpt lat="43.47191" lon="6.79343">
        <ele>196</ele>
        <time>2011-06-03T09:43:34Z</time>
      </trkpt>
      <trkpt lat="43.47192" lon="6.7934">
        <ele>196</ele>
        <time>2011-06-03T09:43:35Z</time>
      </trkpt>
      <trkpt lat="43.47193" lon="6.79336">
        <ele>196</ele>
        <time>2011-06-03T09:43:36Z</time>
      </trkpt>
      <trkpt lat="43.47195" lon="6.79334">
        <ele>196</ele>
        <time>2011-06-03T09:43:37Z</time>
      </trkpt>
      <trkpt lat="43.47196" lon="6.79332">
        <ele>197</ele>
        <time>2011-06-03T09:43:38Z</time>
      </trkpt>
      <trkpt lat="43.47197" lon="6.7933">
        <ele>197</ele>
        <time>2011-06-03T09:43:39Z</time>
      </trkpt>
      <trkpt lat="43.47198" lon="6.79327">
        <ele>197</ele>
        <time>2011-06-03T09:43:40Z</time>
      </trkpt>
      <trkpt lat="43.47199" lon="6.79326">
        <ele>197</ele>
        <time>2011-06-03T09:43:41Z</time>
      </trkpt>
      <trkpt lat="43.472" lon="6.79324">
        <ele>198</ele>
        <time>2011-06-03T09:43:42Z</time>
      </trkpt>
      <trkpt lat="43.47203" lon="6.79322">
        <ele>198</ele>
        <time>2011-06-03T09:43:43Z</time>
      </trkpt>
      <trkpt lat="43.47204" lon="6.7932">
        <ele>198</ele>
        <time>2011-06-03T09:43:44Z</time>
      </trkpt>
      <trkpt lat="43.47207" lon="6.79319">
        <ele>198</ele>
        <time>2011-06-03T09:43:45Z</time>
      </trkpt>
      <trkpt lat="43.4721" lon="6.79318">
        <ele>198</ele>
        <time>2011-06-03T09:43:46Z</time>
      </trkpt>
      <trkpt lat="43.47211" lon="6.79317">
        <ele>198</ele>
        <time>2011-06-03T09:43:47Z</time>
      </trkpt>
      <trkpt lat="43.47213" lon="6.79315">
        <ele>199</ele>
        <time>2011-06-03T09:43:48Z</time>
      </trkpt>
      <trkpt lat="43.47215" lon="6.79313">
        <ele>200</ele>
        <time>2011-06-03T09:43:49Z</time>
      </trkpt>
      <trkpt lat="43.47217" lon="6.79311">
        <ele>201</ele>
        <time>2011-06-03T09:43:50Z</time>
      </trkpt>
      <trkpt lat="43.47219" lon="6.7931">
        <ele>201</ele>
        <time>2011-06-03T09:43:51Z</time>
      </trkpt>
      <trkpt lat="43.47221" lon="6.79308">
        <ele>200</ele>
        <time>2011-06-03T09:43:52Z</time>
      </trkpt>
      <trkpt lat="43.47224" lon="6.79306">
        <ele>200</ele>
        <time>2011-06-03T09:43:53Z</time>
      </trkpt>
      <trkpt lat="43.47226" lon="6.79304">
        <ele>200</ele>
        <time>2011-06-03T09:43:54Z</time>
      </trkpt>
      <trkpt lat="43.47228" lon="6.79303">
        <ele>200</ele>
        <time>2011-06-03T09:43:55Z</time>
      </trkpt>
      <trkpt lat="43.4723" lon="6.79301">
        <ele>200</ele>
        <time>2011-06-03T09:43:56Z</time>
      </trkpt>
      <trkpt lat="43.47232" lon="6.793">
        <ele>200</ele>
        <time>2011-06-03T09:43:57Z</time>
      </trkpt>
      <trkpt lat="43.47234" lon="6.79299">
        <ele>200</ele>
        <time>2011-06-03T09:43:58Z</time>
      </trkpt>
      <trkpt lat="43.47236" lon="6.79298">
        <ele>200</ele>
        <time>2011-06-03T09:43:59Z</time>
      </trkpt>
      <trkpt lat="43.47238" lon="6.79297">
        <ele>201</ele>
        <time>2011-06-03T09:44:00Z</time>
      </trkpt>
      <trkpt lat="43.4724" lon="6.79296">
        <ele>201</ele>
        <time>2011-06-03T09:44:01Z</time>
      </trkpt>
      <trkpt lat="43.47242" lon="6.79294">
        <ele>201</ele>
        <time>2011-06-03T09:44:02Z</time>
      </trkpt>
      <trkpt lat="43.47244" lon="6.79293">
        <ele>201</ele>
        <time>2011-06-03T09:44:03Z</time>
      </trkpt>
      <trkpt lat="43.47246" lon="6.79291">
        <ele>201</ele>
        <time>2011-06-03T09:44:04Z</time>
      </trkpt>
      <trkpt lat="43.47248" lon="6.79289">
        <ele>201</ele>
        <time>2011-06-03T09:44:05Z</time>
      </trkpt>
      <trkpt lat="43.4725" lon="6.79288">
        <ele>201</ele>
        <time>2011-06-03T09:44:06Z</time>
      </trkpt>
      <trkpt lat="43.47251" lon="6.79286">
        <ele>202</ele>
        <time>2011-06-03T09:44:07Z</time>
      </trkpt>
      <trkpt lat="43.47253" lon="6.79285">
        <ele>203</ele>
        <time>2011-06-03T09:44:08Z</time>
      </trkpt>
      <trkpt lat="43.47255" lon="6.79283">
        <ele>203</ele>
        <time>2011-06-03T09:44:09Z</time>
      </trkpt>
      <trkpt lat="43.47257" lon="6.79282">
        <ele>204</ele>
        <time>2011-06-03T09:44:10Z</time>
      </trkpt>
      <trkpt lat="43.47259" lon="6.7928">
        <ele>205</ele>
        <time>2011-06-03T09:44:11Z</time>
      </trkpt>
      <trkpt lat="43.47261" lon="6.79279">
        <ele>205</ele>
        <time>2011-06-03T09:44:12Z</time>
      </trkpt>
      <trkpt lat="43.47263" lon="6.79277">
        <ele>205</ele>
        <time>2011-06-03T09:44:13Z</time>
      </trkpt>
      <trkpt lat="43.47263" lon="6.79279">
        <ele>205</ele>
        <time>2011-06-03T09:44:14Z</time>
      </trkpt>
      <trkpt lat="43.47263" lon="6.79278">
        <ele>204</ele>
        <time>2011-06-03T09:44:15Z</time>
      </trkpt>
      <trkpt lat="43.47264" lon="6.79277">
        <ele>204</ele>
        <time>2011-06-03T09:44:16Z</time>
      </trkpt>
      <trkpt lat="43.47264" lon="6.79277">
        <ele>205</ele>
        <time>2011-06-03T09:44:17Z</time>
      </trkpt>
      <trkpt lat="43.47264" lon="6.79278">
        <ele>205</ele>
        <time>2011-06-03T09:44:18Z</time>
      </trkpt>
      <trkpt lat="43.47263" lon="6.79278">
        <ele>205</ele>
        <time>2011-06-03T09:44:19Z</time>
      </trkpt>
      <trkpt lat="43.47263" lon="6.79279">
        <ele>205</ele>
        <time>2011-06-03T09:44:20Z</time>
      </trkpt>
      <trkpt lat="43.47263" lon="6.79279">
        <ele>205</ele>
        <time>2011-06-03T09:44:21Z</time>
      </trkpt>
      <trkpt lat="43.47263" lon="6.79279">
        <ele>205</ele>
        <time>2011-06-03T09:44:22Z</time>
      </trkpt>
      <trkpt lat="43.47263" lon="6.79279">
        <ele>205</ele>
        <time>2011-06-03T09:44:23Z</time>
      </trkpt>
      <trkpt lat="43.47264" lon="6.79279">
        <ele>204</ele>
        <time>2011-06-03T09:44:24Z</time>
      </trkpt>
      <trkpt lat="43.47264" lon="6.79281">
        <ele>203</ele>
        <time>2011-06-03T09:44:25Z</time>
      </trkpt>
      <trkpt lat="43.47264" lon="6.79283">
        <ele>203</ele>
        <time>2011-06-03T09:44:26Z</time>
      </trkpt>
      <trkpt lat="43.47264" lon="6.79284">
        <ele>203</ele>
        <time>2011-06-03T09:44:27Z</time>
      </trkpt>
      <trkpt lat="43.4725" lon="6.79288">
        <ele>203</ele>
        <time>2011-06-03T09:44:42Z</time>
      </trkpt>
      <trkpt lat="43.4725" lon="6.79288">
        <ele>203</ele>
        <time>2011-06-03T09:44:43Z</time>
      </trkpt>
      <trkpt lat="43.4725" lon="6.79288">
        <ele>203</ele>
        <time>2011-06-03T09:44:44Z</time>
      </trkpt>
      <trkpt lat="43.4725" lon="6.79288">
        <ele>203</ele>
        <time>2011-06-03T09:44:45Z</time>
      </trkpt>
      <trkpt lat="43.47251" lon="6.79287">
        <ele>203</ele>
        <time>2011-06-03T09:44:46Z</time>
      </trkpt>
      <trkpt lat="43.47254" lon="6.79286">
        <ele>204</ele>
        <time>2011-06-03T09:44:47Z</time>
      </trkpt>
      <trkpt lat="43.47256" lon="6.79284">
        <ele>204</ele>
        <time>2011-06-03T09:44:48Z</time>
      </trkpt>
      <trkpt lat="43.47258" lon="6.79282">
        <ele>204</ele>
        <time>2011-06-03T09:44:49Z</time>
      </trkpt>
      <trkpt lat="43.47261" lon="6.7928">
        <ele>204</ele>
        <time>2011-06-03T09:44:50Z</time>
      </trkpt>
      <trkpt lat="43.47263" lon="6.79277">
        <ele>204</ele>
        <time>2011-06-03T09:44:51Z</time>
      </trkpt>
      <trkpt lat="43.47266" lon="6.79276">
        <ele>204</ele>
        <time>2011-06-03T09:44:52Z</time>
      </trkpt>
      <trkpt lat="43.47269" lon="6.79274">
        <ele>204</ele>
        <time>2011-06-03T09:44:53Z</time>
      </trkpt>
      <trkpt lat="43.47272" lon="6.79272">
        <ele>204</ele>
        <time>2011-06-03T09:44:54Z</time>
      </trkpt>
      <trkpt lat="43.47275" lon="6.79272">
        <ele>204</ele>
        <time>2011-06-03T09:44:55Z</time>
      </trkpt>
      <trkpt lat="43.47278" lon="6.79269">
        <ele>204</ele>
        <time>2011-06-03T09:44:56Z</time>
      </trkpt>
      <trkpt lat="43.47279" lon="6.79268">
        <ele>204</ele>
        <time>2011-06-03T09:44:57Z</time>
      </trkpt>
      <trkpt lat="43.47281" lon="6.79265">
        <ele>204</ele>
        <time>2011-06-03T09:44:58Z</time>
      </trkpt>
      <trkpt lat="43.47283" lon="6.79262">
        <ele>203</ele>
        <time>2011-06-03T09:44:59Z</time>
      </trkpt>
      <trkpt lat="43.47285" lon="6.7926">
        <ele>203</ele>
        <time>2011-06-03T09:45:00Z</time>
      </trkpt>
      <trkpt lat="43.47287" lon="6.79258">
        <ele>203</ele>
        <time>2011-06-03T09:45:01Z</time>
      </trkpt>
      <trkpt lat="43.4729" lon="6.79254">
        <ele>204</ele>
        <time>2011-06-03T09:45:02Z</time>
      </trkpt>
      <trkpt lat="43.47292" lon="6.79252">
        <ele>205</ele>
        <time>2011-06-03T09:45:03Z</time>
      </trkpt>
      <trkpt lat="43.47294" lon="6.7925">
        <ele>205</ele>
        <time>2011-06-03T09:45:04Z</time>
      </trkpt>
      <trkpt lat="43.47297" lon="6.79247">
        <ele>204</ele>
        <time>2011-06-03T09:45:05Z</time>
      </trkpt>
      <trkpt lat="43.47299" lon="6.79244">
        <ele>204</ele>
        <time>2011-06-03T09:45:06Z</time>
      </trkpt>
      <trkpt lat="43.47301" lon="6.79242">
        <ele>204</ele>
        <time>2011-06-03T09:45:07Z</time>
      </trkpt>
      <trkpt lat="43.47304" lon="6.79238">
        <ele>204</ele>
        <time>2011-06-03T09:45:08Z</time>
      </trkpt>
      <trkpt lat="43.47307" lon="6.79237">
        <ele>204</ele>
        <time>2011-06-03T09:45:09Z</time>
      </trkpt>
      <trkpt lat="43.47309" lon="6.79235">
        <ele>205</ele>
        <time>2011-06-03T09:45:10Z</time>
      </trkpt>
      <trkpt lat="43.47311" lon="6.79233">
        <ele>205</ele>
        <time>2011-06-03T09:45:11Z</time>
      </trkpt>
      <trkpt lat="43.47314" lon="6.79231">
        <ele>205</ele>
        <time>2011-06-03T09:45:12Z</time>
      </trkpt>
      <trkpt lat="43.47316" lon="6.7923">
        <ele>205</ele>
        <time>2011-06-03T09:45:13Z</time>
      </trkpt>
      <trkpt lat="43.47318" lon="6.79228">
        <ele>205</ele>
        <time>2011-06-03T09:45:14Z</time>
      </trkpt>
      <trkpt lat="43.47322" lon="6.79226">
        <ele>205</ele>
        <time>2011-06-03T09:45:15Z</time>
      </trkpt>
      <trkpt lat="43.47324" lon="6.79224">
        <ele>204</ele>
        <time>2011-06-03T09:45:16Z</time>
      </trkpt>
      <trkpt lat="43.47327" lon="6.79223">
        <ele>205</ele>
        <time>2011-06-03T09:45:17Z</time>
      </trkpt>
      <trkpt lat="43.47329" lon="6.79222">
        <ele>204</ele>
        <time>2011-06-03T09:45:18Z</time>
      </trkpt>
      <trkpt lat="43.47331" lon="6.7922">
        <ele>204</ele>
        <time>2011-06-03T09:45:19Z</time>
      </trkpt>
      <trkpt lat="43.47333" lon="6.79218">
        <ele>204</ele>
        <time>2011-06-03T09:45:20Z</time>
      </trkpt>
      <trkpt lat="43.47336" lon="6.79217">
        <ele>204</ele>
        <time>2011-06-03T09:45:21Z</time>
      </trkpt>
      <trkpt lat="43.47338" lon="6.79215">
        <ele>204</ele>
        <time>2011-06-03T09:45:22Z</time>
      </trkpt>
      <trkpt lat="43.47341" lon="6.79213">
        <ele>204</ele>
        <time>2011-06-03T09:45:23Z</time>
      </trkpt>
      <trkpt lat="43.47344" lon="6.79213">
        <ele>203</ele>
        <time>2011-06-03T09:45:24Z</time>
      </trkpt>
      <trkpt lat="43.47347" lon="6.79211">
        <ele>202</ele>
        <time>2011-06-03T09:45:25Z</time>
      </trkpt>
      <trkpt lat="43.4735" lon="6.79211">
        <ele>202</ele>
        <time>2011-06-03T09:45:26Z</time>
      </trkpt>
      <trkpt lat="43.47351" lon="6.79208">
        <ele>202</ele>
        <time>2011-06-03T09:45:27Z</time>
      </trkpt>
      <trkpt lat="43.47352" lon="6.79205">
        <ele>201</ele>
        <time>2011-06-03T09:45:28Z</time>
      </trkpt>
      <trkpt lat="43.47353" lon="6.79201">
        <ele>201</ele>
        <time>2011-06-03T09:45:29Z</time>
      </trkpt>
      <trkpt lat="43.47352" lon="6.79196">
        <ele>202</ele>
        <time>2011-06-03T09:45:30Z</time>
      </trkpt>
      <trkpt lat="43.47353" lon="6.79193">
        <ele>201</ele>
        <time>2011-06-03T09:45:31Z</time>
      </trkpt>
      <trkpt lat="43.47353" lon="6.7919">
        <ele>201</ele>
        <time>2011-06-03T09:45:32Z</time>
      </trkpt>
      <trkpt lat="43.47353" lon="6.79186">
        <ele>200</ele>
        <time>2011-06-03T09:45:33Z</time>
      </trkpt>
      <trkpt lat="43.47353" lon="6.79181">
        <ele>200</ele>
        <time>2011-06-03T09:45:34Z</time>
      </trkpt>
      <trkpt lat="43.47353" lon="6.79177">
        <ele>199</ele>
        <time>2011-06-03T09:45:35Z</time>
      </trkpt>
      <trkpt lat="43.47354" lon="6.79173">
        <ele>199</ele>
        <time>2011-06-03T09:45:36Z</time>
      </trkpt>
      <trkpt lat="43.47354" lon="6.7917">
        <ele>199</ele>
        <time>2011-06-03T09:45:37Z</time>
      </trkpt>
      <trkpt lat="43.47355" lon="6.79166">
        <ele>199</ele>
        <time>2011-06-03T09:45:38Z</time>
      </trkpt>
      <trkpt lat="43.47356" lon="6.79162">
        <ele>199</ele>
        <time>2011-06-03T09:45:39Z</time>
      </trkpt>
      <trkpt lat="43.47358" lon="6.79158">
        <ele>199</ele>
        <time>2011-06-03T09:45:40Z</time>
      </trkpt>
      <trkpt lat="43.47359" lon="6.79155">
        <ele>198</ele>
        <time>2011-06-03T09:45:41Z</time>
      </trkpt>
      <trkpt lat="43.47361" lon="6.79152">
        <ele>198</ele>
        <time>2011-06-03T09:45:42Z</time>
      </trkpt>
      <trkpt lat="43.47364" lon="6.79149">
        <ele>196</ele>
        <time>2011-06-03T09:45:43Z</time>
      </trkpt>
      <trkpt lat="43.47366" lon="6.79148">
        <ele>196</ele>
        <time>2011-06-03T09:45:44Z</time>
      </trkpt>
      <trkpt lat="43.47369" lon="6.79147">
        <ele>196</ele>
        <time>2011-06-03T09:45:45Z</time>
      </trkpt>
      <trkpt lat="43.47373" lon="6.79147">
        <ele>195</ele>
        <time>2011-06-03T09:45:46Z</time>
      </trkpt>
      <trkpt lat="43.47376" lon="6.79147">
        <ele>195</ele>
        <time>2011-06-03T09:45:47Z</time>
      </trkpt>
      <trkpt lat="43.47379" lon="6.79148">
        <ele>195</ele>
        <time>2011-06-03T09:45:48Z</time>
      </trkpt>
      <trkpt lat="43.47382" lon="6.79147">
        <ele>195</ele>
        <time>2011-06-03T09:45:49Z</time>
      </trkpt>
      <trkpt lat="43.47385" lon="6.79146">
        <ele>195</ele>
        <time>2011-06-03T09:45:50Z</time>
      </trkpt>
      <trkpt lat="43.47388" lon="6.79146">
        <ele>195</ele>
        <time>2011-06-03T09:45:51Z</time>
      </trkpt>
      <trkpt lat="43.4739" lon="6.79143">
        <ele>195</ele>
        <time>2011-06-03T09:45:52Z</time>
      </trkpt>
      <trkpt lat="43.47392" lon="6.79141">
        <ele>195</ele>
        <time>2011-06-03T09:45:53Z</time>
      </trkpt>
      <trkpt lat="43.47396" lon="6.79139">
        <ele>195</ele>
        <time>2011-06-03T09:45:54Z</time>
      </trkpt>
      <trkpt lat="43.47398" lon="6.79137">
        <ele>195</ele>
        <time>2011-06-03T09:45:55Z</time>
      </trkpt>
      <trkpt lat="43.474" lon="6.79134">
        <ele>194</ele>
        <time>2011-06-03T09:45:56Z</time>
      </trkpt>
      <trkpt lat="43.47402" lon="6.79132">
        <ele>194</ele>
        <time>2011-06-03T09:45:57Z</time>
      </trkpt>
      <trkpt lat="43.47405" lon="6.7913">
        <ele>194</ele>
        <time>2011-06-03T09:45:58Z</time>
      </trkpt>
      <trkpt lat="43.47408" lon="6.79129">
        <ele>194</ele>
        <time>2011-06-03T09:45:59Z</time>
      </trkpt>
      <trkpt lat="43.4741" lon="6.79128">
        <ele>194</ele>
        <time>2011-06-03T09:46:00Z</time>
      </trkpt>
      <trkpt lat="43.47413" lon="6.79127">
        <ele>193</ele>
        <time>2011-06-03T09:46:01Z</time>
      </trkpt>
      <trkpt lat="43.47416" lon="6.79126">
        <ele>194</ele>
        <time>2011-06-03T09:46:02Z</time>
      </trkpt>
      <trkpt lat="43.47418" lon="6.79125">
        <ele>194</ele>
        <time>2011-06-03T09:46:03Z</time>
      </trkpt>
      <trkpt lat="43.4742" lon="6.79124">
        <ele>193</ele>
        <time>2011-06-03T09:46:04Z</time>
      </trkpt>
      <trkpt lat="43.47423" lon="6.79122">
        <ele>193</ele>
        <time>2011-06-03T09:46:05Z</time>
      </trkpt>
      <trkpt lat="43.47426" lon="6.79121">
        <ele>193</ele>
        <time>2011-06-03T09:46:06Z</time>
      </trkpt>
      <trkpt lat="43.47428" lon="6.79119">
        <ele>193</ele>
        <time>2011-06-03T09:46:07Z</time>
      </trkpt>
      <trkpt lat="43.4743" lon="6.79116">
        <ele>193</ele>
        <time>2011-06-03T09:46:08Z</time>
      </trkpt>
      <trkpt lat="43.4743" lon="6.79111">
        <ele>192</ele>
        <time>2011-06-03T09:46:09Z</time>
      </trkpt>
      <trkpt lat="43.47431" lon="6.79107">
        <ele>192</ele>
        <time>2011-06-03T09:46:10Z</time>
      </trkpt>
      <trkpt lat="43.47431" lon="6.79103">
        <ele>192</ele>
        <time>2011-06-03T09:46:11Z</time>
      </trkpt>
      <trkpt lat="43.47431" lon="6.791">
        <ele>192</ele>
        <time>2011-06-03T09:46:12Z</time>
      </trkpt>
      <trkpt lat="43.4743" lon="6.79097">
        <ele>192</ele>
        <time>2011-06-03T09:46:13Z</time>
      </trkpt>
      <trkpt lat="43.47428" lon="6.79095">
        <ele>191</ele>
        <time>2011-06-03T09:46:14Z</time>
      </trkpt>
      <trkpt lat="43.47425" lon="6.79092">
        <ele>192</ele>
        <time>2011-06-03T09:46:15Z</time>
      </trkpt>
      <trkpt lat="43.47422" lon="6.7909">
        <ele>192</ele>
        <time>2011-06-03T09:46:16Z</time>
      </trkpt>
      <trkpt lat="43.4742" lon="6.79087">
        <ele>192</ele>
        <time>2011-06-03T09:46:17Z</time>
      </trkpt>
      <trkpt lat="43.47417" lon="6.79084">
        <ele>192</ele>
        <time>2011-06-03T09:46:18Z</time>
      </trkpt>
      <trkpt lat="43.47415" lon="6.79082">
        <ele>192</ele>
        <time>2011-06-03T09:46:19Z</time>
      </trkpt>
      <trkpt lat="43.47412" lon="6.79081">
        <ele>192</ele>
        <time>2011-06-03T09:46:20Z</time>
      </trkpt>
      <trkpt lat="43.4741" lon="6.79079">
        <ele>192</ele>
        <time>2011-06-03T09:46:21Z</time>
      </trkpt>
      <trkpt lat="43.47407" lon="6.79077">
        <ele>192</ele>
        <time>2011-06-03T09:46:22Z</time>
      </trkpt>
      <trkpt lat="43.47405" lon="6.79074">
        <ele>192</ele>
        <time>2011-06-03T09:46:23Z</time>
      </trkpt>
      <trkpt lat="43.47403" lon="6.79071">
        <ele>192</ele>
        <time>2011-06-03T09:46:24Z</time>
      </trkpt>
      <trkpt lat="43.47402" lon="6.79068">
        <ele>193</ele>
        <time>2011-06-03T09:46:25Z</time>
      </trkpt>
      <trkpt lat="43.47399" lon="6.79065">
        <ele>193</ele>
        <time>2011-06-03T09:46:26Z</time>
      </trkpt>
      <trkpt lat="43.47398" lon="6.79062">
        <ele>193</ele>
        <time>2011-06-03T09:46:27Z</time>
      </trkpt>
      <trkpt lat="43.47395" lon="6.79058">
        <ele>193</ele>
        <time>2011-06-03T09:46:28Z</time>
      </trkpt>
      <trkpt lat="43.47394" lon="6.79054">
        <ele>193</ele>
        <time>2011-06-03T09:46:29Z</time>
      </trkpt>
      <trkpt lat="43.47391" lon="6.79052">
        <ele>193</ele>
        <time>2011-06-03T09:46:30Z</time>
      </trkpt>
      <trkpt lat="43.4739" lon="6.79048">
        <ele>193</ele>
        <time>2011-06-03T09:46:31Z</time>
      </trkpt>
      <trkpt lat="43.47388" lon="6.79046">
        <ele>193</ele>
        <time>2011-06-03T09:46:32Z</time>
      </trkpt>
      <trkpt lat="43.47387" lon="6.79043">
        <ele>193</ele>
        <time>2011-06-03T09:46:33Z</time>
      </trkpt>
      <trkpt lat="43.47385" lon="6.79039">
        <ele>193</ele>
        <time>2011-06-03T09:46:34Z</time>
      </trkpt>
      <trkpt lat="43.47383" lon="6.79036">
        <ele>193</ele>
        <time>2011-06-03T09:46:35Z</time>
      </trkpt>
      <trkpt lat="43.47382" lon="6.79034">
        <ele>192</ele>
        <time>2011-06-03T09:46:36Z</time>
      </trkpt>
      <trkpt lat="43.4738" lon="6.79031">
        <ele>192</ele>
        <time>2011-06-03T09:46:37Z</time>
      </trkpt>
      <trkpt lat="43.47379" lon="6.79027">
        <ele>191</ele>
        <time>2011-06-03T09:46:38Z</time>
      </trkpt>
      <trkpt lat="43.47377" lon="6.79024">
        <ele>190</ele>
        <time>2011-06-03T09:46:39Z</time>
      </trkpt>
      <trkpt lat="43.47375" lon="6.79021">
        <ele>190</ele>
        <time>2011-06-03T09:46:40Z</time>
      </trkpt>
      <trkpt lat="43.47374" lon="6.79018">
        <ele>189</ele>
        <time>2011-06-03T09:46:41Z</time>
      </trkpt>
      <trkpt lat="43.47373" lon="6.79015">
        <ele>189</ele>
        <time>2011-06-03T09:46:42Z</time>
      </trkpt>
      <trkpt lat="43.47371" lon="6.79011">
        <ele>189</ele>
        <time>2011-06-03T09:46:43Z</time>
      </trkpt>
      <trkpt lat="43.47369" lon="6.79007">
        <ele>189</ele>
        <time>2011-06-03T09:46:44Z</time>
      </trkpt>
      <trkpt lat="43.47368" lon="6.79004">
        <ele>189</ele>
        <time>2011-06-03T09:46:45Z</time>
      </trkpt>
      <trkpt lat="43.47366" lon="6.79001">
        <ele>189</ele>
        <time>2011-06-03T09:46:46Z</time>
      </trkpt>
      <trkpt lat="43.47364" lon="6.78997">
        <ele>189</ele>
        <time>2011-06-03T09:46:47Z</time>
      </trkpt>
      <trkpt lat="43.47362" lon="6.78995">
        <ele>188</ele>
        <time>2011-06-03T09:46:48Z</time>
      </trkpt>
      <trkpt lat="43.47362" lon="6.78992">
        <ele>188</ele>
        <time>2011-06-03T09:46:49Z</time>
      </trkpt>
      <trkpt lat="43.4736" lon="6.78989">
        <ele>188</ele>
        <time>2011-06-03T09:46:50Z</time>
      </trkpt>
      <trkpt lat="43.4736" lon="6.78986">
        <ele>187</ele>
        <time>2011-06-03T09:46:51Z</time>
      </trkpt>
      <trkpt lat="43.47359" lon="6.78982">
        <ele>186</ele>
        <time>2011-06-03T09:46:52Z</time>
      </trkpt>
      <trkpt lat="43.47358" lon="6.78978">
        <ele>186</ele>
        <time>2011-06-03T09:46:53Z</time>
      </trkpt>
      <trkpt lat="43.47358" lon="6.78973">
        <ele>186</ele>
        <time>2011-06-03T09:46:54Z</time>
      </trkpt>
      <trkpt lat="43.47359" lon="6.78969">
        <ele>185</ele>
        <time>2011-06-03T09:46:55Z</time>
      </trkpt>
      <trkpt lat="43.4736" lon="6.78965">
        <ele>185</ele>
        <time>2011-06-03T09:46:56Z</time>
      </trkpt>
      <trkpt lat="43.47361" lon="6.78961">
        <ele>184</ele>
        <time>2011-06-03T09:46:57Z</time>
      </trkpt>
      <trkpt lat="43.47361" lon="6.78957">
        <ele>184</ele>
        <time>2011-06-03T09:46:58Z</time>
      </trkpt>
      <trkpt lat="43.47361" lon="6.78953">
        <ele>185</ele>
        <time>2011-06-03T09:46:59Z</time>
      </trkpt>
      <trkpt lat="43.47362" lon="6.7895">
        <ele>185</ele>
        <time>2011-06-03T09:47:00Z</time>
      </trkpt>
      <trkpt lat="43.47363" lon="6.78946">
        <ele>185</ele>
        <time>2011-06-03T09:47:01Z</time>
      </trkpt>
      <trkpt lat="43.47363" lon="6.78941">
        <ele>187</ele>
        <time>2011-06-03T09:47:02Z</time>
      </trkpt>
      <trkpt lat="43.47364" lon="6.78937">
        <ele>188</ele>
        <time>2011-06-03T09:47:03Z</time>
      </trkpt>
      <trkpt lat="43.47364" lon="6.78933">
        <ele>187</ele>
        <time>2011-06-03T09:47:04Z</time>
      </trkpt>
      <trkpt lat="43.47365" lon="6.78929">
        <ele>187</ele>
        <time>2011-06-03T09:47:05Z</time>
      </trkpt>
      <trkpt lat="43.47366" lon="6.78925">
        <ele>188</ele>
        <time>2011-06-03T09:47:06Z</time>
      </trkpt>
      <trkpt lat="43.47367" lon="6.78922">
        <ele>188</ele>
        <time>2011-06-03T09:47:07Z</time>
      </trkpt>
      <trkpt lat="43.47369" lon="6.78919">
        <ele>188</ele>
        <time>2011-06-03T09:47:08Z</time>
      </trkpt>
      <trkpt lat="43.4737" lon="6.78915">
        <ele>188</ele>
        <time>2011-06-03T09:47:09Z</time>
      </trkpt>
      <trkpt lat="43.47372" lon="6.78912">
        <ele>188</ele>
        <time>2011-06-03T09:47:10Z</time>
      </trkpt>
      <trkpt lat="43.47374" lon="6.78909">
        <ele>188</ele>
        <time>2011-06-03T09:47:11Z</time>
      </trkpt>
      <trkpt lat="43.47375" lon="6.78906">
        <ele>188</ele>
        <time>2011-06-03T09:47:12Z</time>
      </trkpt>
      <trkpt lat="43.47377" lon="6.78903">
        <ele>188</ele>
        <time>2011-06-03T09:47:13Z</time>
      </trkpt>
      <trkpt lat="43.4738" lon="6.78901">
        <ele>187</ele>
        <time>2011-06-03T09:47:14Z</time>
      </trkpt>
      <trkpt lat="43.47382" lon="6.78899">
        <ele>187</ele>
        <time>2011-06-03T09:47:15Z</time>
      </trkpt>
      <trkpt lat="43.47384" lon="6.78897">
        <ele>187</ele>
        <time>2011-06-03T09:47:16Z</time>
      </trkpt>
      <trkpt lat="43.47386" lon="6.78895">
        <ele>187</ele>
        <time>2011-06-03T09:47:17Z</time>
      </trkpt>
      <trkpt lat="43.47388" lon="6.78893">
        <ele>187</ele>
        <time>2011-06-03T09:47:18Z</time>
      </trkpt>
      <trkpt lat="43.4739" lon="6.78892">
        <ele>187</ele>
        <time>2011-06-03T09:47:19Z</time>
      </trkpt>
      <trkpt lat="43.47391" lon="6.7889">
        <ele>187</ele>
        <time>2011-06-03T09:47:20Z</time>
      </trkpt>
      <trkpt lat="43.47393" lon="6.78887">
        <ele>187</ele>
        <time>2011-06-03T09:47:21Z</time>
      </trkpt>
      <trkpt lat="43.47396" lon="6.78885">
        <ele>187</ele>
        <time>2011-06-03T09:47:22Z</time>
      </trkpt>
      <trkpt lat="43.47397" lon="6.78882">
        <ele>187</ele>
        <time>2011-06-03T09:47:23Z</time>
      </trkpt>
      <trkpt lat="43.47398" lon="6.78879">
        <ele>187</ele>
        <time>2011-06-03T09:47:24Z</time>
      </trkpt>
      <trkpt lat="43.47401" lon="6.78878">
        <ele>187</ele>
        <time>2011-06-03T09:47:25Z</time>
      </trkpt>
      <trkpt lat="43.47403" lon="6.78877">
        <ele>187</ele>
        <time>2011-06-03T09:47:26Z</time>
      </trkpt>
      <trkpt lat="43.47405" lon="6.78875">
        <ele>186</ele>
        <time>2011-06-03T09:47:27Z</time>
      </trkpt>
      <trkpt lat="43.47408" lon="6.78874">
        <ele>186</ele>
        <time>2011-06-03T09:47:28Z</time>
      </trkpt>
      <trkpt lat="43.47409" lon="6.78873">
        <ele>186</ele>
        <time>2011-06-03T09:47:29Z</time>
      </trkpt>
      <trkpt lat="43.47412" lon="6.78872">
        <ele>186</ele>
        <time>2011-06-03T09:47:30Z</time>
      </trkpt>
      <trkpt lat="43.47414" lon="6.7887">
        <ele>185</ele>
        <time>2011-06-03T09:47:31Z</time>
      </trkpt>
      <trkpt lat="43.47417" lon="6.78869">
        <ele>185</ele>
        <time>2011-06-03T09:47:32Z</time>
      </trkpt>
      <trkpt lat="43.47419" lon="6.78868">
        <ele>185</ele>
        <time>2011-06-03T09:47:33Z</time>
      </trkpt>
      <trkpt lat="43.47422" lon="6.78867">
        <ele>185</ele>
        <time>2011-06-03T09:47:34Z</time>
      </trkpt>
      <trkpt lat="43.47425" lon="6.78868">
        <ele>185</ele>
        <time>2011-06-03T09:47:35Z</time>
      </trkpt>
      <trkpt lat="43.47427" lon="6.78867">
        <ele>186</ele>
        <time>2011-06-03T09:47:36Z</time>
      </trkpt>
      <trkpt lat="43.4743" lon="6.78867">
        <ele>186</ele>
        <time>2011-06-03T09:47:37Z</time>
      </trkpt>
      <trkpt lat="43.47431" lon="6.78865">
        <ele>186</ele>
        <time>2011-06-03T09:47:38Z</time>
      </trkpt>
      <trkpt lat="43.47433" lon="6.78864">
        <ele>186</ele>
        <time>2011-06-03T09:47:39Z</time>
      </trkpt>
      <trkpt lat="43.47436" lon="6.78863">
        <ele>186</ele>
        <time>2011-06-03T09:47:40Z</time>
      </trkpt>
      <trkpt lat="43.47439" lon="6.78862">
        <ele>186</ele>
        <time>2011-06-03T09:47:41Z</time>
      </trkpt>
      <trkpt lat="43.47441" lon="6.78862">
        <ele>186</ele>
        <time>2011-06-03T09:47:42Z</time>
      </trkpt>
      <trkpt lat="43.47443" lon="6.78861">
        <ele>187</ele>
        <time>2011-06-03T09:47:43Z</time>
      </trkpt>
      <trkpt lat="43.47446" lon="6.78859">
        <ele>187</ele>
        <time>2011-06-03T09:47:44Z</time>
      </trkpt>
      <trkpt lat="43.47448" lon="6.78859">
        <ele>186</ele>
        <time>2011-06-03T09:47:45Z</time>
      </trkpt>
      <trkpt lat="43.47449" lon="6.78856">
        <ele>188</ele>
        <time>2011-06-03T09:47:46Z</time>
      </trkpt>
      <trkpt lat="43.47452" lon="6.78855">
        <ele>190</ele>
        <time>2011-06-03T09:47:47Z</time>
      </trkpt>
      <trkpt lat="43.47454" lon="6.78853">
        <ele>190</ele>
        <time>2011-06-03T09:47:48Z</time>
      </trkpt>
      <trkpt lat="43.47455" lon="6.78851">
        <ele>190</ele>
        <time>2011-06-03T09:47:49Z</time>
      </trkpt>
      <trkpt lat="43.47456" lon="6.78848">
        <ele>190</ele>
        <time>2011-06-03T09:47:50Z</time>
      </trkpt>
      <trkpt lat="43.47456" lon="6.78846">
        <ele>190</ele>
        <time>2011-06-03T09:47:51Z</time>
      </trkpt>
      <trkpt lat="43.47456" lon="6.78843">
        <ele>190</ele>
        <time>2011-06-03T09:47:52Z</time>
      </trkpt>
      <trkpt lat="43.47454" lon="6.7884">
        <ele>190</ele>
        <time>2011-06-03T09:47:53Z</time>
      </trkpt>
      <trkpt lat="43.47453" lon="6.78839">
        <ele>190</ele>
        <time>2011-06-03T09:47:54Z</time>
      </trkpt>
      <trkpt lat="43.47452" lon="6.78838">
        <ele>191</ele>
        <time>2011-06-03T09:47:55Z</time>
      </trkpt>
      <trkpt lat="43.47449" lon="6.78837">
        <ele>191</ele>
        <time>2011-06-03T09:47:56Z</time>
      </trkpt>
      <trkpt lat="43.47447" lon="6.78836">
        <ele>191</ele>
        <time>2011-06-03T09:47:57Z</time>
      </trkpt>
      <trkpt lat="43.47445" lon="6.78835">
        <ele>192</ele>
        <time>2011-06-03T09:47:58Z</time>
      </trkpt>
      <trkpt lat="43.47442" lon="6.78835">
        <ele>193</ele>
        <time>2011-06-03T09:47:59Z</time>
      </trkpt>
      <trkpt lat="43.4744" lon="6.78834">
        <ele>193</ele>
        <time>2011-06-03T09:48:00Z</time>
      </trkpt>
      <trkpt lat="43.47438" lon="6.78833">
        <ele>193</ele>
        <time>2011-06-03T09:48:01Z</time>
      </trkpt>
      <trkpt lat="43.47435" lon="6.78833">
        <ele>193</ele>
        <time>2011-06-03T09:48:02Z</time>
      </trkpt>
      <trkpt lat="43.47432" lon="6.78833">
        <ele>194</ele>
        <time>2011-06-03T09:48:03Z</time>
      </trkpt>
      <trkpt lat="43.4743" lon="6.78832">
        <ele>194</ele>
        <time>2011-06-03T09:48:04Z</time>
      </trkpt>
      <trkpt lat="43.47427" lon="6.78832">
        <ele>195</ele>
        <time>2011-06-03T09:48:05Z</time>
      </trkpt>
      <trkpt lat="43.47425" lon="6.7883">
        <ele>195</ele>
        <time>2011-06-03T09:48:06Z</time>
      </trkpt>
      <trkpt lat="43.47423" lon="6.78827">
        <ele>195</ele>
        <time>2011-06-03T09:48:07Z</time>
      </trkpt>
      <trkpt lat="43.4742" lon="6.78826">
        <ele>196</ele>
        <time>2011-06-03T09:48:08Z</time>
      </trkpt>
      <trkpt lat="43.47417" lon="6.78825">
        <ele>196</ele>
        <time>2011-06-03T09:48:09Z</time>
      </trkpt>
      <trkpt lat="43.47416" lon="6.78823">
        <ele>196</ele>
        <time>2011-06-03T09:48:10Z</time>
      </trkpt>
      <trkpt lat="43.47414" lon="6.7882">
        <ele>195</ele>
        <time>2011-06-03T09:48:11Z</time>
      </trkpt>
      <trkpt lat="43.47412" lon="6.78819">
        <ele>195</ele>
        <time>2011-06-03T09:48:12Z</time>
      </trkpt>
      <trkpt lat="43.4741" lon="6.78817">
        <ele>195</ele>
        <time>2011-06-03T09:48:13Z</time>
      </trkpt>
      <trkpt lat="43.47408" lon="6.78815">
        <ele>195</ele>
        <time>2011-06-03T09:48:14Z</time>
      </trkpt>
      <trkpt lat="43.47406" lon="6.78813">
        <ele>194</ele>
        <time>2011-06-03T09:48:15Z</time>
      </trkpt>
      <trkpt lat="43.47403" lon="6.78811">
        <ele>193</ele>
        <time>2011-06-03T09:48:16Z</time>
      </trkpt>
      <trkpt lat="43.47399" lon="6.78809">
        <ele>194</ele>
        <time>2011-06-03T09:48:17Z</time>
      </trkpt>
      <trkpt lat="43.47398" lon="6.78805">
        <ele>194</ele>
        <time>2011-06-03T09:48:18Z</time>
      </trkpt>
      <trkpt lat="43.47397" lon="6.78803">
        <ele>195</ele>
        <time>2011-06-03T09:48:19Z</time>
      </trkpt>
      <trkpt lat="43.47395" lon="6.788">
        <ele>194</ele>
        <time>2011-06-03T09:48:20Z</time>
      </trkpt>
      <trkpt lat="43.47394" lon="6.78797">
        <ele>194</ele>
        <time>2011-06-03T09:48:21Z</time>
      </trkpt>
      <trkpt lat="43.47392" lon="6.78794">
        <ele>194</ele>
        <time>2011-06-03T09:48:22Z</time>
      </trkpt>
      <trkpt lat="43.47392" lon="6.78791">
        <ele>194</ele>
        <time>2011-06-03T09:48:23Z</time>
      </trkpt>
      <trkpt lat="43.47391" lon="6.78789">
        <ele>193</ele>
        <time>2011-06-03T09:48:24Z</time>
      </trkpt>
      <trkpt lat="43.4739" lon="6.78786">
        <ele>193</ele>
        <time>2011-06-03T09:48:25Z</time>
      </trkpt>
      <trkpt lat="43.47389" lon="6.78782">
        <ele>193</ele>
        <time>2011-06-03T09:48:26Z</time>
      </trkpt>
      <trkpt lat="43.47389" lon="6.78778">
        <ele>193</ele>
        <time>2011-06-03T09:48:27Z</time>
      </trkpt>
      <trkpt lat="43.4739" lon="6.78775">
        <ele>193</ele>
        <time>2011-06-03T09:48:28Z</time>
      </trkpt>
      <trkpt lat="43.47392" lon="6.78772">
        <ele>193</ele>
        <time>2011-06-03T09:48:29Z</time>
      </trkpt>
      <trkpt lat="43.47394" lon="6.78768">
        <ele>193</ele>
        <time>2011-06-03T09:48:30Z</time>
      </trkpt>
      <trkpt lat="43.47396" lon="6.78765">
        <ele>192</ele>
        <time>2011-06-03T09:48:31Z</time>
      </trkpt>
      <trkpt lat="43.47398" lon="6.78763">
        <ele>192</ele>
        <time>2011-06-03T09:48:32Z</time>
      </trkpt>
      <trkpt lat="43.47401" lon="6.78761">
        <ele>192</ele>
        <time>2011-06-03T09:48:33Z</time>
      </trkpt>
      <trkpt lat="43.47404" lon="6.7876">
        <ele>191</ele>
        <time>2011-06-03T09:48:34Z</time>
      </trkpt>
      <trkpt lat="43.47406" lon="6.78759">
        <ele>191</ele>
        <time>2011-06-03T09:48:35Z</time>
      </trkpt>
      <trkpt lat="43.47408" lon="6.78757">
        <ele>191</ele>
        <time>2011-06-03T09:48:36Z</time>
      </trkpt>
      <trkpt lat="43.47411" lon="6.78756">
        <ele>191</ele>
        <time>2011-06-03T09:48:37Z</time>
      </trkpt>
      <trkpt lat="43.47413" lon="6.78754">
        <ele>190</ele>
        <time>2011-06-03T09:48:38Z</time>
      </trkpt>
      <trkpt lat="43.47416" lon="6.78752">
        <ele>191</ele>
        <time>2011-06-03T09:48:39Z</time>
      </trkpt>
      <trkpt lat="43.47418" lon="6.78751">
        <ele>190</ele>
        <time>2011-06-03T09:48:40Z</time>
      </trkpt>
      <trkpt lat="43.4742" lon="6.78749">
        <ele>191</ele>
        <time>2011-06-03T09:48:41Z</time>
      </trkpt>
      <trkpt lat="43.47421" lon="6.78747">
        <ele>191</ele>
        <time>2011-06-03T09:48:42Z</time>
      </trkpt>
      <trkpt lat="43.47424" lon="6.78745">
        <ele>191</ele>
        <time>2011-06-03T09:48:43Z</time>
      </trkpt>
      <trkpt lat="43.47424" lon="6.78742">
        <ele>193</ele>
        <time>2011-06-03T09:48:44Z</time>
      </trkpt>
      <trkpt lat="43.47425" lon="6.7874">
        <ele>193.93394470215</ele>
        <time>2011-06-03T09:48:45Z</time>
      </trkpt>
      <trkpt lat="43.47425" lon="6.78736">
        <ele>195</ele>
        <time>2011-06-03T09:48:46Z</time>
      </trkpt>
      <trkpt lat="43.47425" lon="6.78734">
        <ele>195</ele>
        <time>2011-06-03T09:48:47Z</time>
      </trkpt>
      <trkpt lat="43.47424" lon="6.78731">
        <ele>196</ele>
        <time>2011-06-03T09:48:48Z</time>
      </trkpt>
      <trkpt lat="43.47424" lon="6.78729">
        <ele>196</ele>
        <time>2011-06-03T09:48:49Z</time>
      </trkpt>
      <trkpt lat="43.47422" lon="6.78727">
        <ele>197</ele>
        <time>2011-06-03T09:48:50Z</time>
      </trkpt>
      <trkpt lat="43.47421" lon="6.78723">
        <ele>197</ele>
        <time>2011-06-03T09:48:51Z</time>
      </trkpt>
      <trkpt lat="43.4742" lon="6.7872">
        <ele>197</ele>
        <time>2011-06-03T09:48:52Z</time>
      </trkpt>
      <trkpt lat="43.4742" lon="6.78717">
        <ele>198</ele>
        <time>2011-06-03T09:48:53Z</time>
      </trkpt>
      <trkpt lat="43.47419" lon="6.78714">
        <ele>198</ele>
        <time>2011-06-03T09:48:54Z</time>
      </trkpt>
      <trkpt lat="43.47418" lon="6.78712">
        <ele>197</ele>
        <time>2011-06-03T09:48:55Z</time>
      </trkpt>
      <trkpt lat="43.47417" lon="6.78707">
        <ele>197</ele>
        <time>2011-06-03T09:48:56Z</time>
      </trkpt>
      <trkpt lat="43.47417" lon="6.78703">
        <ele>196</ele>
        <time>2011-06-03T09:48:57Z</time>
      </trkpt>
      <trkpt lat="43.47417" lon="6.787">
        <ele>196</ele>
        <time>2011-06-03T09:48:58Z</time>
      </trkpt>
      <trkpt lat="43.47417" lon="6.78698">
        <ele>196</ele>
        <time>2011-06-03T09:48:59Z</time>
      </trkpt>
      <trkpt lat="43.47417" lon="6.78695">
        <ele>196</ele>
        <time>2011-06-03T09:49:00Z</time>
      </trkpt>
      <trkpt lat="43.47419" lon="6.78693">
        <ele>196</ele>
        <time>2011-06-03T09:49:01Z</time>
      </trkpt>
      <trkpt lat="43.47419" lon="6.78691">
        <ele>196</ele>
        <time>2011-06-03T09:49:02Z</time>
      </trkpt>
      <trkpt lat="43.47419" lon="6.78687">
        <ele>196</ele>
        <time>2011-06-03T09:49:03Z</time>
      </trkpt>
      <trkpt lat="43.47419" lon="6.78684">
        <ele>197</ele>
        <time>2011-06-03T09:49:04Z</time>
      </trkpt>
      <trkpt lat="43.47418" lon="6.7868">
        <ele>198</ele>
        <time>2011-06-03T09:49:05Z</time>
      </trkpt>
      <trkpt lat="43.47418" lon="6.78678">
        <ele>198</ele>
        <time>2011-06-03T09:49:06Z</time>
      </trkpt>
      <trkpt lat="43.47418" lon="6.78675">
        <ele>197</ele>
        <time>2011-06-03T09:49:07Z</time>
      </trkpt>
      <trkpt lat="43.47419" lon="6.78671">
        <ele>197</ele>
        <time>2011-06-03T09:49:08Z</time>
      </trkpt>
      <trkpt lat="43.4742" lon="6.78668">
        <ele>196</ele>
        <time>2011-06-03T09:49:09Z</time>
      </trkpt>
      <trkpt lat="43.47421" lon="6.78665">
        <ele>196</ele>
        <time>2011-06-03T09:49:10Z</time>
      </trkpt>
      <trkpt lat="43.47422" lon="6.78662">
        <ele>196</ele>
        <time>2011-06-03T09:49:11Z</time>
      </trkpt>
      <trkpt lat="43.47421" lon="6.78659">
        <ele>197</ele>
        <time>2011-06-03T09:49:12Z</time>
      </trkpt>
      <trkpt lat="43.47421" lon="6.78657">
        <ele>197</ele>
        <time>2011-06-03T09:49:13Z</time>
      </trkpt>
      <trkpt lat="43.47419" lon="6.78654">
        <ele>197</ele>
        <time>2011-06-03T09:49:14Z</time>
      </trkpt>
      <trkpt lat="43.47419" lon="6.78652">
        <ele>197</ele>
        <time>2011-06-03T09:49:15Z</time>
      </trkpt>
      <trkpt lat="43.47418" lon="6.78649">
        <ele>198</ele>
        <time>2011-06-03T09:49:16Z</time>
      </trkpt>
      <trkpt lat="43.47417" lon="6.78646">
        <ele>198</ele>
        <time>2011-06-03T09:49:17Z</time>
      </trkpt>
      <trkpt lat="43.47416" lon="6.78643">
        <ele>198</ele>
        <time>2011-06-03T09:49:18Z</time>
      </trkpt>
      <trkpt lat="43.47415" lon="6.7864">
        <ele>198</ele>
        <time>2011-06-03T09:49:19Z</time>
      </trkpt>
      <trkpt lat="43.47415" lon="6.78635">
        <ele>198</ele>
        <time>2011-06-03T09:49:20Z</time>
      </trkpt>
      <trkpt lat="43.47414" lon="6.78633">
        <ele>198</ele>
        <time>2011-06-03T09:49:21Z</time>
      </trkpt>
      <trkpt lat="43.47414" lon="6.7863">
        <ele>197</ele>
        <time>2011-06-03T09:49:22Z</time>
      </trkpt>
      <trkpt lat="43.47414" lon="6.78627">
        <ele>197</ele>
        <time>2011-06-03T09:49:23Z</time>
      </trkpt>
      <trkpt lat="43.47414" lon="6.78625">
        <ele>196</ele>
        <time>2011-06-03T09:49:24Z</time>
      </trkpt>
      <trkpt lat="43.47415" lon="6.78621">
        <ele>197</ele>
        <time>2011-06-03T09:49:25Z</time>
      </trkpt>
      <trkpt lat="43.47416" lon="6.78618">
        <ele>197</ele>
        <time>2011-06-03T09:49:26Z</time>
      </trkpt>
      <trkpt lat="43.47418" lon="6.78614">
        <ele>197</ele>
        <time>2011-06-03T09:49:27Z</time>
      </trkpt>
      <trkpt lat="43.47419" lon="6.78611">
        <ele>198</ele>
        <time>2011-06-03T09:49:28Z</time>
      </trkpt>
      <trkpt lat="43.4742" lon="6.78609">
        <ele>198</ele>
        <time>2011-06-03T09:49:29Z</time>
      </trkpt>
      <trkpt lat="43.4742" lon="6.78605">
        <ele>198</ele>
        <time>2011-06-03T09:49:30Z</time>
      </trkpt>
      <trkpt lat="43.47419" lon="6.78603">
        <ele>199</ele>
        <time>2011-06-03T09:49:31Z</time>
      </trkpt>
      <trkpt lat="43.47418" lon="6.786">
        <ele>199</ele>
        <time>2011-06-03T09:49:32Z</time>
      </trkpt>
      <trkpt lat="43.47417" lon="6.78597">
        <ele>200</ele>
        <time>2011-06-03T09:49:33Z</time>
      </trkpt>
      <trkpt lat="43.47416" lon="6.78595">
        <ele>200</ele>
        <time>2011-06-03T09:49:34Z</time>
      </trkpt>
      <trkpt lat="43.47414" lon="6.78594">
        <ele>200</ele>
        <time>2011-06-03T09:49:35Z</time>
      </trkpt>
      <trkpt lat="43.47413" lon="6.78591">
        <ele>200</ele>
        <time>2011-06-03T09:49:36Z</time>
      </trkpt>
      <trkpt lat="43.47412" lon="6.78588">
        <ele>201</ele>
        <time>2011-06-03T09:49:37Z</time>
      </trkpt>
      <trkpt lat="43.47412" lon="6.78585">
        <ele>199</ele>
        <time>2011-06-03T09:49:38Z</time>
      </trkpt>
      <trkpt lat="43.47411" lon="6.78581">
        <ele>199</ele>
        <time>2011-06-03T09:49:39Z</time>
      </trkpt>
      <trkpt lat="43.4741" lon="6.78577">
        <ele>199</ele>
        <time>2011-06-03T09:49:40Z</time>
      </trkpt>
      <trkpt lat="43.4741" lon="6.78574">
        <ele>199</ele>
        <time>2011-06-03T09:49:41Z</time>
      </trkpt>
      <trkpt lat="43.47411" lon="6.7857">
        <ele>198</ele>
        <time>2011-06-03T09:49:42Z</time>
      </trkpt>
      <trkpt lat="43.47411" lon="6.78567">
        <ele>198</ele>
        <time>2011-06-03T09:49:43Z</time>
      </trkpt>
      <trkpt lat="43.47412" lon="6.78565">
        <ele>198</ele>
        <time>2011-06-03T09:49:44Z</time>
      </trkpt>
      <trkpt lat="43.47413" lon="6.78561">
        <ele>198</ele>
        <time>2011-06-03T09:49:45Z</time>
      </trkpt>
      <trkpt lat="43.47414" lon="6.78559">
        <ele>197</ele>
        <time>2011-06-03T09:49:46Z</time>
      </trkpt>
      <trkpt lat="43.47417" lon="6.78557">
        <ele>197</ele>
        <time>2011-06-03T09:49:47Z</time>
      </trkpt>
      <trkpt lat="43.47418" lon="6.78554">
        <ele>198</ele>
        <time>2011-06-03T09:49:48Z</time>
      </trkpt>
      <trkpt lat="43.47419" lon="6.78552">
        <ele>198</ele>
        <time>2011-06-03T09:49:49Z</time>
      </trkpt>
      <trkpt lat="43.4742" lon="6.7855">
        <ele>200</ele>
        <time>2011-06-03T09:49:50Z</time>
      </trkpt>
      <trkpt lat="43.47423" lon="6.78547">
        <ele>200</ele>
        <time>2011-06-03T09:49:51Z</time>
      </trkpt>
      <trkpt lat="43.47424" lon="6.78546">
        <ele>200</ele>
        <time>2011-06-03T09:49:52Z</time>
      </trkpt>
      <trkpt lat="43.47426" lon="6.78544">
        <ele>200</ele>
        <time>2011-06-03T09:49:53Z</time>
      </trkpt>
      <trkpt lat="43.47427" lon="6.78542">
        <ele>200</ele>
        <time>2011-06-03T09:49:54Z</time>
      </trkpt>
      <trkpt lat="43.4743" lon="6.78541">
        <ele>201</ele>
        <time>2011-06-03T09:49:55Z</time>
      </trkpt>
      <trkpt lat="43.47431" lon="6.7854">
        <ele>201</ele>
        <time>2011-06-03T09:49:56Z</time>
      </trkpt>
      <trkpt lat="43.47433" lon="6.78539">
        <ele>201</ele>
        <time>2011-06-03T09:49:57Z</time>
      </trkpt>
      <trkpt lat="43.47436" lon="6.78538">
        <ele>201</ele>
        <time>2011-06-03T09:49:58Z</time>
      </trkpt>
      <trkpt lat="43.47438" lon="6.78537">
        <ele>202</ele>
        <time>2011-06-03T09:49:59Z</time>
      </trkpt>
      <trkpt lat="43.4744" lon="6.78537">
        <ele>202</ele>
        <time>2011-06-03T09:50:00Z</time>
      </trkpt>
      <trkpt lat="43.47442" lon="6.78536">
        <ele>202</ele>
        <time>2011-06-03T09:50:01Z</time>
      </trkpt>
      <trkpt lat="43.47445" lon="6.78535">
        <ele>203</ele>
        <time>2011-06-03T09:50:02Z</time>
      </trkpt>
      <trkpt lat="43.47448" lon="6.78533">
        <ele>203</ele>
        <time>2011-06-03T09:50:03Z</time>
      </trkpt>
      <trkpt lat="43.47448" lon="6.78532">
        <ele>203</ele>
        <time>2011-06-03T09:50:04Z</time>
      </trkpt>
      <trkpt lat="43.47452" lon="6.78531">
        <ele>204</ele>
        <time>2011-06-03T09:50:05Z</time>
      </trkpt>
      <trkpt lat="43.47453" lon="6.7853">
        <ele>204</ele>
        <time>2011-06-03T09:50:06Z</time>
      </trkpt>
      <trkpt lat="43.47455" lon="6.78529">
        <ele>205</ele>
        <time>2011-06-03T09:50:07Z</time>
      </trkpt>
      <trkpt lat="43.47457" lon="6.78529">
        <ele>205</ele>
        <time>2011-06-03T09:50:08Z</time>
      </trkpt>
      <trkpt lat="43.4746" lon="6.78527">
        <ele>205</ele>
        <time>2011-06-03T09:50:09Z</time>
      </trkpt>
      <trkpt lat="43.47462" lon="6.78526">
        <ele>206</ele>
        <time>2011-06-03T09:50:10Z</time>
      </trkpt>
      <trkpt lat="43.47463" lon="6.78525">
        <ele>207</ele>
        <time>2011-06-03T09:50:11Z</time>
      </trkpt>
      <trkpt lat="43.47465" lon="6.78524">
        <ele>207</ele>
        <time>2011-06-03T09:50:12Z</time>
      </trkpt>
      <trkpt lat="43.47468" lon="6.78523">
        <ele>207</ele>
        <time>2011-06-03T09:50:13Z</time>
      </trkpt>
      <trkpt lat="43.4747" lon="6.78523">
        <ele>207</ele>
        <time>2011-06-03T09:50:14Z</time>
      </trkpt>
      <trkpt lat="43.47472" lon="6.78522">
        <ele>207</ele>
        <time>2011-06-03T09:50:15Z</time>
      </trkpt>
      <trkpt lat="43.47474" lon="6.78522">
        <ele>207</ele>
        <time>2011-06-03T09:50:16Z</time>
      </trkpt>
      <trkpt lat="43.47477" lon="6.78522">
        <ele>207</ele>
        <time>2011-06-03T09:50:17Z</time>
      </trkpt>
      <trkpt lat="43.47479" lon="6.78522">
        <ele>207</ele>
        <time>2011-06-03T09:50:18Z</time>
      </trkpt>
      <trkpt lat="43.4748" lon="6.78521">
        <ele>207</ele>
        <time>2011-06-03T09:50:19Z</time>
      </trkpt>
      <trkpt lat="43.47482" lon="6.78521">
        <ele>206</ele>
        <time>2011-06-03T09:50:20Z</time>
      </trkpt>
      <trkpt lat="43.47484" lon="6.78521">
        <ele>207</ele>
        <time>2011-06-03T09:50:21Z</time>
      </trkpt>
      <trkpt lat="43.47486" lon="6.78521">
        <ele>206</ele>
        <time>2011-06-03T09:50:22Z</time>
      </trkpt>
      <trkpt lat="43.4749" lon="6.78522">
        <ele>206</ele>
        <time>2011-06-03T09:50:23Z</time>
      </trkpt>
      <trkpt lat="43.47492" lon="6.78521">
        <ele>206</ele>
        <time>2011-06-03T09:50:24Z</time>
      </trkpt>
      <trkpt lat="43.47494" lon="6.78521">
        <ele>207</ele>
        <time>2011-06-03T09:50:25Z</time>
      </trkpt>
      <trkpt lat="43.47497" lon="6.78521">
        <ele>206</ele>
        <time>2011-06-03T09:50:26Z</time>
      </trkpt>
      <trkpt lat="43.47499" lon="6.78522">
        <ele>206</ele>
        <time>2011-06-03T09:50:27Z</time>
      </trkpt>
      <trkpt lat="43.47501" lon="6.78522">
        <ele>206</ele>
        <time>2011-06-03T09:50:28Z</time>
      </trkpt>
      <trkpt lat="43.47503" lon="6.78522">
        <ele>206</ele>
        <time>2011-06-03T09:50:29Z</time>
      </trkpt>
      <trkpt lat="43.47505" lon="6.78523">
        <ele>205</ele>
        <time>2011-06-03T09:50:30Z</time>
      </trkpt>
      <trkpt lat="43.47508" lon="6.78524">
        <ele>205</ele>
        <time>2011-06-03T09:50:31Z</time>
      </trkpt>
      <trkpt lat="43.4751" lon="6.78524">
        <ele>206</ele>
        <time>2011-06-03T09:50:32Z</time>
      </trkpt>
      <trkpt lat="43.47512" lon="6.78524">
        <ele>206</ele>
        <time>2011-06-03T09:50:33Z</time>
      </trkpt>
      <trkpt lat="43.47514" lon="6.78524">
        <ele>207</ele>
        <time>2011-06-03T09:50:34Z</time>
      </trkpt>
      <trkpt lat="43.47517" lon="6.78524">
        <ele>205</ele>
        <time>2011-06-03T09:50:35Z</time>
      </trkpt>
      <trkpt lat="43.4752" lon="6.78525">
        <ele>204</ele>
        <time>2011-06-03T09:50:36Z</time>
      </trkpt>
      <trkpt lat="43.47523" lon="6.78525">
        <ele>205</ele>
        <time>2011-06-03T09:50:37Z</time>
      </trkpt>
      <trkpt lat="43.47525" lon="6.78525">
        <ele>205</ele>
        <time>2011-06-03T09:50:38Z</time>
      </trkpt>
      <trkpt lat="43.47527" lon="6.78526">
        <ele>205</ele>
        <time>2011-06-03T09:50:39Z</time>
      </trkpt>
      <trkpt lat="43.47529" lon="6.78526">
        <ele>205</ele>
        <time>2011-06-03T09:50:40Z</time>
      </trkpt>
      <trkpt lat="43.47531" lon="6.78526">
        <ele>206</ele>
        <time>2011-06-03T09:50:41Z</time>
      </trkpt>
      <trkpt lat="43.47534" lon="6.78528">
        <ele>206</ele>
        <time>2011-06-03T09:50:42Z</time>
      </trkpt>
      <trkpt lat="43.47535" lon="6.78528">
        <ele>206</ele>
        <time>2011-06-03T09:50:43Z</time>
      </trkpt>
      <trkpt lat="43.47537" lon="6.78529">
        <ele>207</ele>
        <time>2011-06-03T09:50:44Z</time>
      </trkpt>
      <trkpt lat="43.47539" lon="6.78529">
        <ele>207</ele>
        <time>2011-06-03T09:50:45Z</time>
      </trkpt>
      <trkpt lat="43.47542" lon="6.78528">
        <ele>208</ele>
        <time>2011-06-03T09:50:46Z</time>
      </trkpt>
      <trkpt lat="43.47544" lon="6.78528">
        <ele>208</ele>
        <time>2011-06-03T09:50:47Z</time>
      </trkpt>
      <trkpt lat="43.47544" lon="6.78524">
        <ele>209</ele>
        <time>2011-06-03T09:50:48Z</time>
      </trkpt>
      <trkpt lat="43.47546" lon="6.78522">
        <ele>208</ele>
        <time>2011-06-03T09:50:49Z</time>
      </trkpt>
      <trkpt lat="43.47548" lon="6.78519">
        <ele>208</ele>
        <time>2011-06-03T09:50:50Z</time>
      </trkpt>
      <trkpt lat="43.47551" lon="6.78517">
        <ele>208</ele>
        <time>2011-06-03T09:50:51Z</time>
      </trkpt>
      <trkpt lat="43.47552" lon="6.78516">
        <ele>207</ele>
        <time>2011-06-03T09:50:52Z</time>
      </trkpt>
      <trkpt lat="43.47555" lon="6.78515">
        <ele>207</ele>
        <time>2011-06-03T09:50:53Z</time>
      </trkpt>
      <trkpt lat="43.47558" lon="6.78514">
        <ele>206</ele>
        <time>2011-06-03T09:50:54Z</time>
      </trkpt>
      <trkpt lat="43.47559" lon="6.78513">
        <ele>206</ele>
        <time>2011-06-03T09:50:55Z</time>
      </trkpt>
      <trkpt lat="43.4756" lon="6.7851">
        <ele>205</ele>
        <time>2011-06-03T09:50:56Z</time>
      </trkpt>
      <trkpt lat="43.47562" lon="6.78509">
        <ele>205</ele>
        <time>2011-06-03T09:50:57Z</time>
      </trkpt>
      <trkpt lat="43.47565" lon="6.78509">
        <ele>204</ele>
        <time>2011-06-03T09:50:58Z</time>
      </trkpt>
      <trkpt lat="43.47568" lon="6.78509">
        <ele>203</ele>
        <time>2011-06-03T09:50:59Z</time>
      </trkpt>
      <trkpt lat="43.4757" lon="6.78508">
        <ele>203</ele>
        <time>2011-06-03T09:51:00Z</time>
      </trkpt>
      <trkpt lat="43.47573" lon="6.78508">
        <ele>203</ele>
        <time>2011-06-03T09:51:01Z</time>
      </trkpt>
      <trkpt lat="43.47576" lon="6.78507">
        <ele>203</ele>
        <time>2011-06-03T09:51:02Z</time>
      </trkpt>
      <trkpt lat="43.47578" lon="6.78507">
        <ele>203</ele>
        <time>2011-06-03T09:51:03Z</time>
      </trkpt>
      <trkpt lat="43.4758" lon="6.78507">
        <ele>202</ele>
        <time>2011-06-03T09:51:04Z</time>
      </trkpt>
      <trkpt lat="43.47582" lon="6.78507">
        <ele>203</ele>
        <time>2011-06-03T09:51:05Z</time>
      </trkpt>
      <trkpt lat="43.47585" lon="6.78506">
        <ele>203</ele>
        <time>2011-06-03T09:51:06Z</time>
      </trkpt>
      <trkpt lat="43.47586" lon="6.78504">
        <ele>204</ele>
        <time>2011-06-03T09:51:07Z</time>
      </trkpt>
      <trkpt lat="43.47588" lon="6.78504">
        <ele>204</ele>
        <time>2011-06-03T09:51:08Z</time>
      </trkpt>
      <trkpt lat="43.47589" lon="6.78503">
        <ele>204</ele>
        <time>2011-06-03T09:51:09Z</time>
      </trkpt>
      <trkpt lat="43.47591" lon="6.78502">
        <ele>204</ele>
        <time>2011-06-03T09:51:10Z</time>
      </trkpt>
      <trkpt lat="43.47594" lon="6.78503">
        <ele>204</ele>
        <time>2011-06-03T09:51:11Z</time>
      </trkpt>
      <trkpt lat="43.47596" lon="6.78502">
        <ele>204</ele>
        <time>2011-06-03T09:51:12Z</time>
      </trkpt>
      <trkpt lat="43.47598" lon="6.78501">
        <ele>203</ele>
        <time>2011-06-03T09:51:13Z</time>
      </trkpt>
      <trkpt lat="43.476" lon="6.78502">
        <ele>204</ele>
        <time>2011-06-03T09:51:14Z</time>
      </trkpt>
      <trkpt lat="43.47602" lon="6.78501">
        <ele>204</ele>
        <time>2011-06-03T09:51:15Z</time>
      </trkpt>
      <trkpt lat="43.47604" lon="6.78501">
        <ele>203</ele>
        <time>2011-06-03T09:51:16Z</time>
      </trkpt>
      <trkpt lat="43.47607" lon="6.78501">
        <ele>203</ele>
        <time>2011-06-03T09:51:17Z</time>
      </trkpt>
      <trkpt lat="43.47609" lon="6.78502">
        <ele>204</ele>
        <time>2011-06-03T09:51:18Z</time>
      </trkpt>
      <trkpt lat="43.47611" lon="6.78502">
        <ele>205</ele>
        <time>2011-06-03T09:51:19Z</time>
      </trkpt>
      <trkpt lat="43.47613" lon="6.78502">
        <ele>205</ele>
        <time>2011-06-03T09:51:20Z</time>
      </trkpt>
      <trkpt lat="43.47615" lon="6.78501">
        <ele>206</ele>
        <time>2011-06-03T09:51:21Z</time>
      </trkpt>
      <trkpt lat="43.47617" lon="6.78502">
        <ele>206</ele>
        <time>2011-06-03T09:51:22Z</time>
      </trkpt>
      <trkpt lat="43.47619" lon="6.78502">
        <ele>206</ele>
        <time>2011-06-03T09:51:23Z</time>
      </trkpt>
      <trkpt lat="43.47622" lon="6.78502">
        <ele>207</ele>
        <time>2011-06-03T09:51:24Z</time>
      </trkpt>
      <trkpt lat="43.47623" lon="6.78502">
        <ele>207</ele>
        <time>2011-06-03T09:51:25Z</time>
      </trkpt>
      <trkpt lat="43.47625" lon="6.78501">
        <ele>206</ele>
        <time>2011-06-03T09:51:26Z</time>
      </trkpt>
      <trkpt lat="43.47628" lon="6.78501">
        <ele>207</ele>
        <time>2011-06-03T09:51:27Z</time>
      </trkpt>
      <trkpt lat="43.4763" lon="6.78501">
        <ele>207</ele>
        <time>2011-06-03T09:51:28Z</time>
      </trkpt>
      <trkpt lat="43.47632" lon="6.78501">
        <ele>207</ele>
        <time>2011-06-03T09:51:29Z</time>
      </trkpt>
      <trkpt lat="43.47634" lon="6.78501">
        <ele>206</ele>
        <time>2011-06-03T09:51:30Z</time>
      </trkpt>
      <trkpt lat="43.47637" lon="6.78502">
        <ele>206</ele>
        <time>2011-06-03T09:51:31Z</time>
      </trkpt>
      <trkpt lat="43.4764" lon="6.78503">
        <ele>206</ele>
        <time>2011-06-03T09:51:32Z</time>
      </trkpt>
      <trkpt lat="43.47641" lon="6.78502">
        <ele>207</ele>
        <time>2011-06-03T09:51:33Z</time>
      </trkpt>
      <trkpt lat="43.47644" lon="6.78503">
        <ele>207</ele>
        <time>2011-06-03T09:51:34Z</time>
      </trkpt>
      <trkpt lat="43.47646" lon="6.78503">
        <ele>208</ele>
        <time>2011-06-03T09:51:35Z</time>
      </trkpt>
      <trkpt lat="43.47648" lon="6.78504">
        <ele>207</ele>
        <time>2011-06-03T09:51:36Z</time>
      </trkpt>
      <trkpt lat="43.47649" lon="6.78504">
        <ele>208</ele>
        <time>2011-06-03T09:51:37Z</time>
      </trkpt>
      <trkpt lat="43.47652" lon="6.78506">
        <ele>208</ele>
        <time>2011-06-03T09:51:38Z</time>
      </trkpt>
      <trkpt lat="43.47654" lon="6.78508">
        <ele>209</ele>
        <time>2011-06-03T09:51:39Z</time>
      </trkpt>
      <trkpt lat="43.47658" lon="6.78509">
        <ele>208</ele>
        <time>2011-06-03T09:51:40Z</time>
      </trkpt>
      <trkpt lat="43.47659" lon="6.7851">
        <ele>210</ele>
        <time>2011-06-03T09:51:41Z</time>
      </trkpt>
      <trkpt lat="43.47661" lon="6.78513">
        <ele>211</ele>
        <time>2011-06-03T09:51:42Z</time>
      </trkpt>
      <trkpt lat="43.47663" lon="6.78515">
        <ele>210</ele>
        <time>2011-06-03T09:51:43Z</time>
      </trkpt>
      <trkpt lat="43.47665" lon="6.78517">
        <ele>210</ele>
        <time>2011-06-03T09:51:44Z</time>
      </trkpt>
      <trkpt lat="43.47666" lon="6.78519">
        <ele>211</ele>
        <time>2011-06-03T09:51:45Z</time>
      </trkpt>
      <trkpt lat="43.47667" lon="6.78522">
        <ele>210</ele>
        <time>2011-06-03T09:51:46Z</time>
      </trkpt>
      <trkpt lat="43.47669" lon="6.78526">
        <ele>210</ele>
        <time>2011-06-03T09:51:47Z</time>
      </trkpt>
      <trkpt lat="43.4767" lon="6.78528">
        <ele>210</ele>
        <time>2011-06-03T09:51:48Z</time>
      </trkpt>
      <trkpt lat="43.47672" lon="6.7853">
        <ele>210</ele>
        <time>2011-06-03T09:51:49Z</time>
      </trkpt>
      <trkpt lat="43.47674" lon="6.78533">
        <ele>209</ele>
        <time>2011-06-03T09:51:50Z</time>
      </trkpt>
      <trkpt lat="43.47678" lon="6.78535">
        <ele>208</ele>
        <time>2011-06-03T09:51:51Z</time>
      </trkpt>
      <trkpt lat="43.47681" lon="6.78537">
        <ele>208</ele>
        <time>2011-06-03T09:51:52Z</time>
      </trkpt>
      <trkpt lat="43.47683" lon="6.78539">
        <ele>208</ele>
        <time>2011-06-03T09:51:53Z</time>
      </trkpt>
      <trkpt lat="43.47684" lon="6.7854">
        <ele>209</ele>
        <time>2011-06-03T09:51:54Z</time>
      </trkpt>
      <trkpt lat="43.47686" lon="6.78543">
        <ele>208</ele>
        <time>2011-06-03T09:51:55Z</time>
      </trkpt>
      <trkpt lat="43.47688" lon="6.78545">
        <ele>209</ele>
        <time>2011-06-03T09:51:56Z</time>
      </trkpt>
      <trkpt lat="43.47689" lon="6.78546">
        <ele>208</ele>
        <time>2011-06-03T09:51:57Z</time>
      </trkpt>
      <trkpt lat="43.4769" lon="6.78548">
        <ele>207</ele>
        <time>2011-06-03T09:51:58Z</time>
      </trkpt>
      <trkpt lat="43.47691" lon="6.7855">
        <ele>206</ele>
        <time>2011-06-03T09:51:59Z</time>
      </trkpt>
      <trkpt lat="43.47693" lon="6.78552">
        <ele>207</ele>
        <time>2011-06-03T09:52:00Z</time>
      </trkpt>
      <trkpt lat="43.47696" lon="6.78555">
        <ele>205</ele>
        <time>2011-06-03T09:52:01Z</time>
      </trkpt>
      <trkpt lat="43.47698" lon="6.78557">
        <ele>204</ele>
        <time>2011-06-03T09:52:02Z</time>
      </trkpt>
      <trkpt lat="43.47699" lon="6.78559">
        <ele>204</ele>
        <time>2011-06-03T09:52:03Z</time>
      </trkpt>
      <trkpt lat="43.47701" lon="6.78561">
        <ele>204</ele>
        <time>2011-06-03T09:52:04Z</time>
      </trkpt>
      <trkpt lat="43.47703" lon="6.78563">
        <ele>204</ele>
        <time>2011-06-03T09:52:05Z</time>
      </trkpt>
      <trkpt lat="43.47704" lon="6.78566">
        <ele>204</ele>
        <time>2011-06-03T09:52:06Z</time>
      </trkpt>
      <trkpt lat="43.47704" lon="6.78568">
        <ele>205</ele>
        <time>2011-06-03T09:52:07Z</time>
      </trkpt>
      <trkpt lat="43.47705" lon="6.78571">
        <ele>204</ele>
        <time>2011-06-03T09:52:08Z</time>
      </trkpt>
      <trkpt lat="43.47705" lon="6.78573">
        <ele>206</ele>
        <time>2011-06-03T09:52:09Z</time>
      </trkpt>
      <trkpt lat="43.47706" lon="6.78576">
        <ele>207</ele>
        <time>2011-06-03T09:52:10Z</time>
      </trkpt>
      <trkpt lat="43.47707" lon="6.78578">
        <ele>207</ele>
        <time>2011-06-03T09:52:11Z</time>
      </trkpt>
      <trkpt lat="43.47708" lon="6.78581">
        <ele>207</ele>
        <time>2011-06-03T09:52:12Z</time>
      </trkpt>
      <trkpt lat="43.47708" lon="6.78583">
        <ele>208</ele>
        <time>2011-06-03T09:52:13Z</time>
      </trkpt>
      <trkpt lat="43.47708" lon="6.78587">
        <ele>208</ele>
        <time>2011-06-03T09:52:14Z</time>
      </trkpt>
      <trkpt lat="43.47709" lon="6.78589">
        <ele>209</ele>
        <time>2011-06-03T09:52:15Z</time>
      </trkpt>
      <trkpt lat="43.4771" lon="6.78592">
        <ele>210</ele>
        <time>2011-06-03T09:52:16Z</time>
      </trkpt>
      <trkpt lat="43.47709" lon="6.78594">
        <ele>211</ele>
        <time>2011-06-03T09:52:17Z</time>
      </trkpt>
      <trkpt lat="43.47708" lon="6.78598">
        <ele>211</ele>
        <time>2011-06-03T09:52:18Z</time>
      </trkpt>
      <trkpt lat="43.47708" lon="6.78602">
        <ele>210</ele>
        <time>2011-06-03T09:52:19Z</time>
      </trkpt>
      <trkpt lat="43.47709" lon="6.78605">
        <ele>210</ele>
        <time>2011-06-03T09:52:20Z</time>
      </trkpt>
      <trkpt lat="43.4771" lon="6.78609">
        <ele>210</ele>
        <time>2011-06-03T09:52:21Z</time>
      </trkpt>
      <trkpt lat="43.47711" lon="6.78612">
        <ele>211</ele>
        <time>2011-06-03T09:52:22Z</time>
      </trkpt>
      <trkpt lat="43.47712" lon="6.78615">
        <ele>210</ele>
        <time>2011-06-03T09:52:23Z</time>
      </trkpt>
      <trkpt lat="43.47711" lon="6.78619">
        <ele>211</ele>
        <time>2011-06-03T09:52:24Z</time>
      </trkpt>
      <trkpt lat="43.47711" lon="6.78621">
        <ele>212</ele>
        <time>2011-06-03T09:52:25Z</time>
      </trkpt>
      <trkpt lat="43.47708" lon="6.78624">
        <ele>212</ele>
        <time>2011-06-03T09:52:26Z</time>
      </trkpt>
      <trkpt lat="43.47708" lon="6.78626">
        <ele>212</ele>
        <time>2011-06-03T09:52:27Z</time>
      </trkpt>
      <trkpt lat="43.47708" lon="6.78629">
        <ele>212</ele>
        <time>2011-06-03T09:52:28Z</time>
      </trkpt>
      <trkpt lat="43.47708" lon="6.78633">
        <ele>212</ele>
        <time>2011-06-03T09:52:29Z</time>
      </trkpt>
      <trkpt lat="43.47709" lon="6.78635">
        <ele>212</ele>
        <time>2011-06-03T09:52:30Z</time>
      </trkpt>
      <trkpt lat="43.47709" lon="6.78637">
        <ele>212</ele>
        <time>2011-06-03T09:52:31Z</time>
      </trkpt>
      <trkpt lat="43.47711" lon="6.7864">
        <ele>211</ele>
        <time>2011-06-03T09:52:32Z</time>
      </trkpt>
      <trkpt lat="43.47711" lon="6.78643">
        <ele>212</ele>
        <time>2011-06-03T09:52:33Z</time>
      </trkpt>
      <trkpt lat="43.47711" lon="6.78646">
        <ele>212</ele>
        <time>2011-06-03T09:52:34Z</time>
      </trkpt>
      <trkpt lat="43.47711" lon="6.78649">
        <ele>212</ele>
        <time>2011-06-03T09:52:35Z</time>
      </trkpt>
      <trkpt lat="43.47712" lon="6.78651">
        <ele>212</ele>
        <time>2011-06-03T09:52:36Z</time>
      </trkpt>
      <trkpt lat="43.47713" lon="6.78655">
        <ele>212</ele>
        <time>2011-06-03T09:52:37Z</time>
      </trkpt>
      <trkpt lat="43.47714" lon="6.78658">
        <ele>213</ele>
        <time>2011-06-03T09:52:38Z</time>
      </trkpt>
      <trkpt lat="43.47712" lon="6.78662">
        <ele>215</ele>
        <time>2011-06-03T09:52:39Z</time>
      </trkpt>
      <trkpt lat="43.47713" lon="6.78665">
        <ele>216</ele>
        <time>2011-06-03T09:52:40Z</time>
      </trkpt>
      <trkpt lat="43.47714" lon="6.78669">
        <ele>218</ele>
        <time>2011-06-03T09:52:41Z</time>
      </trkpt>
      <trkpt lat="43.47713" lon="6.78671">
        <ele>218</ele>
        <time>2011-06-03T09:52:42Z</time>
      </trkpt>
      <trkpt lat="43.47713" lon="6.78674">
        <ele>217</ele>
        <time>2011-06-03T09:52:43Z</time>
      </trkpt>
      <trkpt lat="43.47714" lon="6.78677">
        <ele>218</ele>
        <time>2011-06-03T09:52:44Z</time>
      </trkpt>
      <trkpt lat="43.47714" lon="6.78678">
        <ele>218</ele>
        <time>2011-06-03T09:52:45Z</time>
      </trkpt>
      <trkpt lat="43.47715" lon="6.78681">
        <ele>218</ele>
        <time>2011-06-03T09:52:46Z</time>
      </trkpt>
      <trkpt lat="43.47716" lon="6.78686">
        <ele>219</ele>
        <time>2011-06-03T09:52:47Z</time>
      </trkpt>
      <trkpt lat="43.47717" lon="6.7869">
        <ele>220</ele>
        <time>2011-06-03T09:52:48Z</time>
      </trkpt>
      <trkpt lat="43.47717" lon="6.78693">
        <ele>220</ele>
        <time>2011-06-03T09:52:49Z</time>
      </trkpt>
      <trkpt lat="43.47717" lon="6.78697">
        <ele>219</ele>
        <time>2011-06-03T09:52:50Z</time>
      </trkpt>
      <trkpt lat="43.47718" lon="6.787">
        <ele>220</ele>
        <time>2011-06-03T09:52:51Z</time>
      </trkpt>
      <trkpt lat="43.47719" lon="6.78702">
        <ele>220</ele>
        <time>2011-06-03T09:52:52Z</time>
      </trkpt>
      <trkpt lat="43.4772" lon="6.78705">
        <ele>220</ele>
        <time>2011-06-03T09:52:53Z</time>
      </trkpt>
      <trkpt lat="43.4772" lon="6.78708">
        <ele>221</ele>
        <time>2011-06-03T09:52:54Z</time>
      </trkpt>
      <trkpt lat="43.47721" lon="6.78712">
        <ele>220</ele>
        <time>2011-06-03T09:52:55Z</time>
      </trkpt>
      <trkpt lat="43.47721" lon="6.78715">
        <ele>220</ele>
        <time>2011-06-03T09:52:56Z</time>
      </trkpt>
      <trkpt lat="43.4772" lon="6.7872">
        <ele>220</ele>
        <time>2011-06-03T09:52:57Z</time>
      </trkpt>
      <trkpt lat="43.4772" lon="6.78723">
        <ele>220</ele>
        <time>2011-06-03T09:52:58Z</time>
      </trkpt>
      <trkpt lat="43.47719" lon="6.78728">
        <ele>221</ele>
        <time>2011-06-03T09:52:59Z</time>
      </trkpt>
      <trkpt lat="43.47719" lon="6.78731">
        <ele>222</ele>
        <time>2011-06-03T09:53:00Z</time>
      </trkpt>
      <trkpt lat="43.47719" lon="6.78732">
        <ele>222</ele>
        <time>2011-06-03T09:53:01Z</time>
      </trkpt>
      <trkpt lat="43.47718" lon="6.78736">
        <ele>222</ele>
        <time>2011-06-03T09:53:02Z</time>
      </trkpt>
      <trkpt lat="43.47718" lon="6.7874">
        <ele>223</ele>
        <time>2011-06-03T09:53:03Z</time>
      </trkpt>
      <trkpt lat="43.4772" lon="6.78742">
        <ele>223</ele>
        <time>2011-06-03T09:53:04Z</time>
      </trkpt>
      <trkpt lat="43.47719" lon="6.78745">
        <ele>222</ele>
        <time>2011-06-03T09:53:05Z</time>
      </trkpt>
      <trkpt lat="43.47718" lon="6.78747">
        <ele>223</ele>
        <time>2011-06-03T09:53:06Z</time>
      </trkpt>
      <trkpt lat="43.47719" lon="6.78751">
        <ele>223</ele>
        <time>2011-06-03T09:53:07Z</time>
      </trkpt>
      <trkpt lat="43.4772" lon="6.78754">
        <ele>223</ele>
        <time>2011-06-03T09:53:08Z</time>
      </trkpt>
      <trkpt lat="43.47719" lon="6.78757">
        <ele>224</ele>
        <time>2011-06-03T09:53:09Z</time>
      </trkpt>
      <trkpt lat="43.47721" lon="6.78761">
        <ele>224</ele>
        <time>2011-06-03T09:53:10Z</time>
      </trkpt>
      <trkpt lat="43.47721" lon="6.78763">
        <ele>225</ele>
        <time>2011-06-03T09:53:11Z</time>
      </trkpt>
      <trkpt lat="43.47722" lon="6.78765">
        <ele>225</ele>
        <time>2011-06-03T09:53:12Z</time>
      </trkpt>
      <trkpt lat="43.47722" lon="6.78768">
        <ele>225</ele>
        <time>2011-06-03T09:53:13Z</time>
      </trkpt>
      <trkpt lat="43.47723" lon="6.78771">
        <ele>225</ele>
        <time>2011-06-03T09:53:14Z</time>
      </trkpt>
      <trkpt lat="43.47725" lon="6.78773">
        <ele>224</ele>
        <time>2011-06-03T09:53:15Z</time>
      </trkpt>
      <trkpt lat="43.47724" lon="6.78778">
        <ele>226</ele>
        <time>2011-06-03T09:53:16Z</time>
      </trkpt>
      <trkpt lat="43.47725" lon="6.7878">
        <ele>227</ele>
        <time>2011-06-03T09:53:17Z</time>
      </trkpt>
      <trkpt lat="43.47723" lon="6.78783">
        <ele>228</ele>
        <time>2011-06-03T09:53:18Z</time>
      </trkpt>
      <trkpt lat="43.47723" lon="6.78786">
        <ele>229</ele>
        <time>2011-06-03T09:53:19Z</time>
      </trkpt>
      <trkpt lat="43.47723" lon="6.78789">
        <ele>229</ele>
        <time>2011-06-03T09:53:20Z</time>
      </trkpt>
      <trkpt lat="43.47723" lon="6.78791">
        <ele>230</ele>
        <time>2011-06-03T09:53:21Z</time>
      </trkpt>
      <trkpt lat="43.47723" lon="6.78794">
        <ele>229</ele>
        <time>2011-06-03T09:53:22Z</time>
      </trkpt>
      <trkpt lat="43.47723" lon="6.78798">
        <ele>230</ele>
        <time>2011-06-03T09:53:23Z</time>
      </trkpt>
      <trkpt lat="43.47724" lon="6.78801">
        <ele>232</ele>
        <time>2011-06-03T09:53:24Z</time>
      </trkpt>
      <trkpt lat="43.47725" lon="6.78803">
        <ele>232</ele>
        <time>2011-06-03T09:53:25Z</time>
      </trkpt>
      <trkpt lat="43.47726" lon="6.78806">
        <ele>233</ele>
        <time>2011-06-03T09:53:26Z</time>
      </trkpt>
      <trkpt lat="43.47726" lon="6.78809">
        <ele>233</ele>
        <time>2011-06-03T09:53:27Z</time>
      </trkpt>
      <trkpt lat="43.47725" lon="6.78813">
        <ele>234</ele>
        <time>2011-06-03T09:53:28Z</time>
      </trkpt>
      <trkpt lat="43.47725" lon="6.78817">
        <ele>237</ele>
        <time>2011-06-03T09:53:29Z</time>
      </trkpt>
      <trkpt lat="43.47725" lon="6.7882">
        <ele>238</ele>
        <time>2011-06-03T09:53:30Z</time>
      </trkpt>
      <trkpt lat="43.47725" lon="6.78823">
        <ele>237</ele>
        <time>2011-06-03T09:53:31Z</time>
      </trkpt>
      <trkpt lat="43.47725" lon="6.78826">
        <ele>238</ele>
        <time>2011-06-03T09:53:32Z</time>
      </trkpt>
      <trkpt lat="43.47724" lon="6.78828">
        <ele>238</ele>
        <time>2011-06-03T09:53:33Z</time>
      </trkpt>
      <trkpt lat="43.47723" lon="6.78831">
        <ele>238</ele>
        <time>2011-06-03T09:53:34Z</time>
      </trkpt>
      <trkpt lat="43.47723" lon="6.78833">
        <ele>238</ele>
        <time>2011-06-03T09:53:35Z</time>
      </trkpt>
      <trkpt lat="43.47723" lon="6.78835">
        <ele>237</ele>
        <time>2011-06-03T09:53:36Z</time>
      </trkpt>
      <trkpt lat="43.47723" lon="6.78838">
        <ele>238</ele>
        <time>2011-06-03T09:53:37Z</time>
      </trkpt>
      <trkpt lat="43.47723" lon="6.7884">
        <ele>237</ele>
        <time>2011-06-03T09:53:38Z</time>
      </trkpt>
      <trkpt lat="43.47722" lon="6.78842">
        <ele>237</ele>
        <time>2011-06-03T09:53:39Z</time>
      </trkpt>
      <trkpt lat="43.47721" lon="6.78847">
        <ele>238</ele>
        <time>2011-06-03T09:53:40Z</time>
      </trkpt>
      <trkpt lat="43.4772" lon="6.78849">
        <ele>238</ele>
        <time>2011-06-03T09:53:41Z</time>
      </trkpt>
      <trkpt lat="43.47719" lon="6.7885">
        <ele>239</ele>
        <time>2011-06-03T09:53:42Z</time>
      </trkpt>
      <trkpt lat="43.47717" lon="6.78853">
        <ele>239</ele>
        <time>2011-06-03T09:53:43Z</time>
      </trkpt>
      <trkpt lat="43.47717" lon="6.78854">
        <ele>239</ele>
        <time>2011-06-03T09:53:44Z</time>
      </trkpt>
      <trkpt lat="43.47717" lon="6.78857">
        <ele>239</ele>
        <time>2011-06-03T09:53:45Z</time>
      </trkpt>
      <trkpt lat="43.47716" lon="6.7886">
        <ele>240</ele>
        <time>2011-06-03T09:53:46Z</time>
      </trkpt>
      <trkpt lat="43.47716" lon="6.78862">
        <ele>240</ele>
        <time>2011-06-03T09:53:47Z</time>
      </trkpt>
      <trkpt lat="43.47715" lon="6.78863">
        <ele>240</ele>
        <time>2011-06-03T09:53:48Z</time>
      </trkpt>
      <trkpt lat="43.47714" lon="6.78866">
        <ele>240</ele>
        <time>2011-06-03T09:53:49Z</time>
      </trkpt>
      <trkpt lat="43.47714" lon="6.78869">
        <ele>239</ele>
        <time>2011-06-03T09:53:50Z</time>
      </trkpt>
      <trkpt lat="43.47713" lon="6.78872">
        <ele>240</ele>
        <time>2011-06-03T09:53:51Z</time>
      </trkpt>
      <trkpt lat="43.47712" lon="6.78875">
        <ele>241</ele>
        <time>2011-06-03T09:53:52Z</time>
      </trkpt>
      <trkpt lat="43.47712" lon="6.78877">
        <ele>241</ele>
        <time>2011-06-03T09:53:53Z</time>
      </trkpt>
      <trkpt lat="43.47711" lon="6.7888">
        <ele>241</ele>
        <time>2011-06-03T09:53:54Z</time>
      </trkpt>
      <trkpt lat="43.4771" lon="6.78883">
        <ele>241</ele>
        <time>2011-06-03T09:53:55Z</time>
      </trkpt>
      <trkpt lat="43.47709" lon="6.78885">
        <ele>242</ele>
        <time>2011-06-03T09:53:56Z</time>
      </trkpt>
      <trkpt lat="43.47708" lon="6.78887">
        <ele>242</ele>
        <time>2011-06-03T09:53:57Z</time>
      </trkpt>
      <trkpt lat="43.47706" lon="6.7889">
        <ele>243</ele>
        <time>2011-06-03T09:53:58Z</time>
      </trkpt>
      <trkpt lat="43.47706" lon="6.78892">
        <ele>243</ele>
        <time>2011-06-03T09:53:59Z</time>
      </trkpt>
      <trkpt lat="43.47706" lon="6.78893">
        <ele>244</ele>
        <time>2011-06-03T09:54:00Z</time>
      </trkpt>
      <trkpt lat="43.47706" lon="6.78895">
        <ele>243</ele>
        <time>2011-06-03T09:54:01Z</time>
      </trkpt>
      <trkpt lat="43.47706" lon="6.78898">
        <ele>242</ele>
        <time>2011-06-03T09:54:02Z</time>
      </trkpt>
      <trkpt lat="43.47705" lon="6.78899">
        <ele>242</ele>
        <time>2011-06-03T09:54:03Z</time>
      </trkpt>
      <trkpt lat="43.47706" lon="6.78902">
        <ele>242</ele>
        <time>2011-06-03T09:54:04Z</time>
      </trkpt>
      <trkpt lat="43.47706" lon="6.78905">
        <ele>242</ele>
        <time>2011-06-03T09:54:05Z</time>
      </trkpt>
      <trkpt lat="43.47706" lon="6.78907">
        <ele>242</ele>
        <time>2011-06-03T09:54:06Z</time>
      </trkpt>
      <trkpt lat="43.47708" lon="6.78911">
        <ele>242</ele>
        <time>2011-06-03T09:54:07Z</time>
      </trkpt>
      <trkpt lat="43.47707" lon="6.78913">
        <ele>242</ele>
        <time>2011-06-03T09:54:08Z</time>
      </trkpt>
      <trkpt lat="43.47707" lon="6.78916">
        <ele>241</ele>
        <time>2011-06-03T09:54:09Z</time>
      </trkpt>
      <trkpt lat="43.47707" lon="6.78919">
        <ele>240</ele>
        <time>2011-06-03T09:54:10Z</time>
      </trkpt>
      <trkpt lat="43.47707" lon="6.78922">
        <ele>240</ele>
        <time>2011-06-03T09:54:11Z</time>
      </trkpt>
      <trkpt lat="43.47706" lon="6.78925">
        <ele>241</ele>
        <time>2011-06-03T09:54:12Z</time>
      </trkpt>
      <trkpt lat="43.47706" lon="6.78929">
        <ele>240</ele>
        <time>2011-06-03T09:54:13Z</time>
      </trkpt>
      <trkpt lat="43.47706" lon="6.78933">
        <ele>241</ele>
        <time>2011-06-03T09:54:14Z</time>
      </trkpt>
      <trkpt lat="43.47706" lon="6.78936">
        <ele>241</ele>
        <time>2011-06-03T09:54:15Z</time>
      </trkpt>
      <trkpt lat="43.47706" lon="6.78939">
        <ele>242</ele>
        <time>2011-06-03T09:54:16Z</time>
      </trkpt>
      <trkpt lat="43.47707" lon="6.78941">
        <ele>242</ele>
        <time>2011-06-03T09:54:17Z</time>
      </trkpt>
      <trkpt lat="43.47707" lon="6.78945">
        <ele>242</ele>
        <time>2011-06-03T09:54:18Z</time>
      </trkpt>
      <trkpt lat="43.47707" lon="6.78949">
        <ele>242</ele>
        <time>2011-06-03T09:54:19Z</time>
      </trkpt>
      <trkpt lat="43.47707" lon="6.78951">
        <ele>243</ele>
        <time>2011-06-03T09:54:20Z</time>
      </trkpt>
      <trkpt lat="43.47708" lon="6.78955">
        <ele>243</ele>
        <time>2011-06-03T09:54:21Z</time>
      </trkpt>
      <trkpt lat="43.47708" lon="6.78957">
        <ele>243</ele>
        <time>2011-06-03T09:54:22Z</time>
      </trkpt>
      <trkpt lat="43.47709" lon="6.7896">
        <ele>242</ele>
        <time>2011-06-03T09:54:23Z</time>
      </trkpt>
      <trkpt lat="43.4771" lon="6.78962">
        <ele>243</ele>
        <time>2011-06-03T09:54:24Z</time>
      </trkpt>
      <trkpt lat="43.4771" lon="6.78966">
        <ele>243</ele>
        <time>2011-06-03T09:54:25Z</time>
      </trkpt>
      <trkpt lat="43.47708" lon="6.78971">
        <ele>244</ele>
        <time>2011-06-03T09:54:26Z</time>
      </trkpt>
      <trkpt lat="43.47708" lon="6.78973">
        <ele>244</ele>
        <time>2011-06-03T09:54:27Z</time>
      </trkpt>
      <trkpt lat="43.47709" lon="6.78975">
        <ele>245</ele>
        <time>2011-06-03T09:54:28Z</time>
      </trkpt>
      <trkpt lat="43.4771" lon="6.78978">
        <ele>245</ele>
        <time>2011-06-03T09:54:29Z</time>
      </trkpt>
      <trkpt lat="43.4771" lon="6.7898">
        <ele>245</ele>
        <time>2011-06-03T09:54:30Z</time>
      </trkpt>
      <trkpt lat="43.47711" lon="6.78981">
        <ele>245</ele>
        <time>2011-06-03T09:54:31Z</time>
      </trkpt>
      <trkpt lat="43.47713" lon="6.78983">
        <ele>244</ele>
        <time>2011-06-03T09:54:32Z</time>
      </trkpt>
      <trkpt lat="43.47713" lon="6.78986">
        <ele>244</ele>
        <time>2011-06-03T09:54:33Z</time>
      </trkpt>
      <trkpt lat="43.47714" lon="6.78989">
        <ele>244</ele>
        <time>2011-06-03T09:54:34Z</time>
      </trkpt>
      <trkpt lat="43.47715" lon="6.78992">
        <ele>245</ele>
        <time>2011-06-03T09:54:35Z</time>
      </trkpt>
      <trkpt lat="43.47716" lon="6.78993">
        <ele>245</ele>
        <time>2011-06-03T09:54:36Z</time>
      </trkpt>
      <trkpt lat="43.47718" lon="6.78995">
        <ele>244</ele>
        <time>2011-06-03T09:54:37Z</time>
      </trkpt>
      <trkpt lat="43.4772" lon="6.78997">
        <ele>245</ele>
        <time>2011-06-03T09:54:38Z</time>
      </trkpt>
      <trkpt lat="43.47722" lon="6.78999">
        <ele>245</ele>
        <time>2011-06-03T09:54:39Z</time>
      </trkpt>
      <trkpt lat="43.47723" lon="6.79">
        <ele>244</ele>
        <time>2011-06-03T09:54:40Z</time>
      </trkpt>
      <trkpt lat="43.47725" lon="6.79002">
        <ele>245</ele>
        <time>2011-06-03T09:54:41Z</time>
      </trkpt>
      <trkpt lat="43.47726" lon="6.79004">
        <ele>245</ele>
        <time>2011-06-03T09:54:42Z</time>
      </trkpt>
      <trkpt lat="43.47726" lon="6.79007">
        <ele>244</ele>
        <time>2011-06-03T09:54:43Z</time>
      </trkpt>
      <trkpt lat="43.47727" lon="6.79009">
        <ele>245</ele>
        <time>2011-06-03T09:54:44Z</time>
      </trkpt>
      <trkpt lat="43.47728" lon="6.79011">
        <ele>245</ele>
        <time>2011-06-03T09:54:45Z</time>
      </trkpt>
      <trkpt lat="43.4773" lon="6.79012">
        <ele>245</ele>
        <time>2011-06-03T09:54:46Z</time>
      </trkpt>
      <trkpt lat="43.47732" lon="6.79015">
        <ele>245</ele>
        <time>2011-06-03T09:54:47Z</time>
      </trkpt>
      <trkpt lat="43.47732" lon="6.79018">
        <ele>245</ele>
        <time>2011-06-03T09:54:48Z</time>
      </trkpt>
      <trkpt lat="43.47732" lon="6.79022">
        <ele>244</ele>
        <time>2011-06-03T09:54:49Z</time>
      </trkpt>
      <trkpt lat="43.47732" lon="6.79026">
        <ele>244</ele>
        <time>2011-06-03T09:54:50Z</time>
      </trkpt>
      <trkpt lat="43.47733" lon="6.7903">
        <ele>244</ele>
        <time>2011-06-03T09:54:51Z</time>
      </trkpt>
      <trkpt lat="43.47732" lon="6.79032">
        <ele>246</ele>
        <time>2011-06-03T09:54:52Z</time>
      </trkpt>
      <trkpt lat="43.47731" lon="6.79037">
        <ele>247</ele>
        <time>2011-06-03T09:54:53Z</time>
      </trkpt>
      <trkpt lat="43.47731" lon="6.79039">
        <ele>247</ele>
        <time>2011-06-03T09:54:54Z</time>
      </trkpt>
      <trkpt lat="43.47731" lon="6.79043">
        <ele>247</ele>
        <time>2011-06-03T09:54:55Z</time>
      </trkpt>
      <trkpt lat="43.47731" lon="6.79045">
        <ele>248</ele>
        <time>2011-06-03T09:54:56Z</time>
      </trkpt>
      <trkpt lat="43.47732" lon="6.79047">
        <ele>247</ele>
        <time>2011-06-03T09:54:57Z</time>
      </trkpt>
      <trkpt lat="43.47735" lon="6.79043">
        <ele>248</ele>
        <time>2011-06-03T09:54:58Z</time>
      </trkpt>
      <trkpt lat="43.47736" lon="6.79044">
        <ele>248</ele>
        <time>2011-06-03T09:54:59Z</time>
      </trkpt>
      <trkpt lat="43.47738" lon="6.79043">
        <ele>249</ele>
        <time>2011-06-03T09:55:00Z</time>
      </trkpt>
      <trkpt lat="43.4774" lon="6.79043">
        <ele>247</ele>
        <time>2011-06-03T09:55:01Z</time>
      </trkpt>
      <trkpt lat="43.47742" lon="6.79043">
        <ele>247</ele>
        <time>2011-06-03T09:55:02Z</time>
      </trkpt>
      <trkpt lat="43.47744" lon="6.79042">
        <ele>247</ele>
        <time>2011-06-03T09:55:03Z</time>
      </trkpt>
      <trkpt lat="43.47745" lon="6.79042">
        <ele>247</ele>
        <time>2011-06-03T09:55:04Z</time>
      </trkpt>
      <trkpt lat="43.47748" lon="6.79043">
        <ele>247</ele>
        <time>2011-06-03T09:55:05Z</time>
      </trkpt>
      <trkpt lat="43.4775" lon="6.79043">
        <ele>247</ele>
        <time>2011-06-03T09:55:06Z</time>
      </trkpt>
      <trkpt lat="43.47751" lon="6.79043">
        <ele>248</ele>
        <time>2011-06-03T09:55:07Z</time>
      </trkpt>
      <trkpt lat="43.47754" lon="6.79043">
        <ele>248</ele>
        <time>2011-06-03T09:55:08Z</time>
      </trkpt>
      <trkpt lat="43.47755" lon="6.79044">
        <ele>249</ele>
        <time>2011-06-03T09:55:09Z</time>
      </trkpt>
      <trkpt lat="43.47757" lon="6.79046">
        <ele>251</ele>
        <time>2011-06-03T09:55:10Z</time>
      </trkpt>
      <trkpt lat="43.47758" lon="6.79047">
        <ele>252</ele>
        <time>2011-06-03T09:55:11Z</time>
      </trkpt>
      <trkpt lat="43.47759" lon="6.79049">
        <ele>253</ele>
        <time>2011-06-03T09:55:12Z</time>
      </trkpt>
      <trkpt lat="43.47761" lon="6.79053">
        <ele>253</ele>
        <time>2011-06-03T09:55:13Z</time>
      </trkpt>
      <trkpt lat="43.47763" lon="6.79055">
        <ele>253</ele>
        <time>2011-06-03T09:55:14Z</time>
      </trkpt>
      <trkpt lat="43.47764" lon="6.79059">
        <ele>254</ele>
        <time>2011-06-03T09:55:15Z</time>
      </trkpt>
      <trkpt lat="43.47765" lon="6.79061">
        <ele>254</ele>
        <time>2011-06-03T09:55:16Z</time>
      </trkpt>
      <trkpt lat="43.47766" lon="6.79063">
        <ele>254</ele>
        <time>2011-06-03T09:55:17Z</time>
      </trkpt>
      <trkpt lat="43.47767" lon="6.79063">
        <ele>254</ele>
        <time>2011-06-03T09:55:18Z</time>
      </trkpt>
      <trkpt lat="43.47769" lon="6.79063">
        <ele>254</ele>
        <time>2011-06-03T09:55:19Z</time>
      </trkpt>
      <trkpt lat="43.4777" lon="6.79063">
        <ele>255</ele>
        <time>2011-06-03T09:55:20Z</time>
      </trkpt>
      <trkpt lat="43.47772" lon="6.79063">
        <ele>255</ele>
        <time>2011-06-03T09:55:21Z</time>
      </trkpt>
      <trkpt lat="43.47772" lon="6.79062">
        <ele>255</ele>
        <time>2011-06-03T09:55:22Z</time>
      </trkpt>
      <trkpt lat="43.47774" lon="6.79063">
        <ele>255.57327270508</ele>
        <time>2011-06-03T09:55:23Z</time>
      </trkpt>
      <trkpt lat="43.47776" lon="6.79065">
        <ele>256</ele>
        <time>2011-06-03T09:55:24Z</time>
      </trkpt>
      <trkpt lat="43.47778" lon="6.79065">
        <ele>256</ele>
        <time>2011-06-03T09:55:25Z</time>
      </trkpt>
      <trkpt lat="43.4778" lon="6.79066">
        <ele>256</ele>
        <time>2011-06-03T09:55:26Z</time>
      </trkpt>
      <trkpt lat="43.47781" lon="6.79067">
        <ele>256</ele>
        <time>2011-06-03T09:55:27Z</time>
      </trkpt>
      <trkpt lat="43.47784" lon="6.79069">
        <ele>254.32843017578</ele>
        <time>2011-06-03T09:55:28Z</time>
      </trkpt>
      <trkpt lat="43.47787" lon="6.7907">
        <ele>253</ele>
        <time>2011-06-03T09:55:29Z</time>
      </trkpt>
      <trkpt lat="43.47788" lon="6.79073">
        <ele>254</ele>
        <time>2011-06-03T09:55:30Z</time>
      </trkpt>
      <trkpt lat="43.4779" lon="6.79076">
        <ele>253</ele>
        <time>2011-06-03T09:55:31Z</time>
      </trkpt>
      <trkpt lat="43.47793" lon="6.79077">
        <ele>252</ele>
        <time>2011-06-03T09:55:32Z</time>
      </trkpt>
      <trkpt lat="43.47795" lon="6.7908">
        <ele>252</ele>
        <time>2011-06-03T09:55:33Z</time>
      </trkpt>
      <trkpt lat="43.47798" lon="6.79081">
        <ele>252</ele>
        <time>2011-06-03T09:55:34Z</time>
      </trkpt>
      <trkpt lat="43.47799" lon="6.79081">
        <ele>253</ele>
        <time>2011-06-03T09:55:35Z</time>
      </trkpt>
      <trkpt lat="43.47801" lon="6.79082">
        <ele>254</ele>
        <time>2011-06-03T09:55:36Z</time>
      </trkpt>
      <trkpt lat="43.47802" lon="6.79083">
        <ele>254</ele>
        <time>2011-06-03T09:55:37Z</time>
      </trkpt>
      <trkpt lat="43.47804" lon="6.79083">
        <ele>254</ele>
        <time>2011-06-03T09:55:38Z</time>
      </trkpt>
      <trkpt lat="43.47806" lon="6.79084">
        <ele>254</ele>
        <time>2011-06-03T09:55:39Z</time>
      </trkpt>
      <trkpt lat="43.47808" lon="6.79084">
        <ele>255</ele>
        <time>2011-06-03T09:55:40Z</time>
      </trkpt>
      <trkpt lat="43.4781" lon="6.79084">
        <ele>256</ele>
        <time>2011-06-03T09:55:41Z</time>
      </trkpt>
      <trkpt lat="43.47811" lon="6.79085">
        <ele>256</ele>
        <time>2011-06-03T09:55:42Z</time>
      </trkpt>
      <trkpt lat="43.47813" lon="6.79085">
        <ele>257</ele>
        <time>2011-06-03T09:55:43Z</time>
      </trkpt>
      <trkpt lat="43.47816" lon="6.79086">
        <ele>256</ele>
        <time>2011-06-03T09:55:44Z</time>
      </trkpt>
      <trkpt lat="43.47819" lon="6.79087">
        <ele>256</ele>
        <time>2011-06-03T09:55:45Z</time>
      </trkpt>
      <trkpt lat="43.47821" lon="6.79088">
        <ele>256</ele>
        <time>2011-06-03T09:55:46Z</time>
      </trkpt>
      <trkpt lat="43.47824" lon="6.79091">
        <ele>255</ele>
        <time>2011-06-03T09:55:47Z</time>
      </trkpt>
      <trkpt lat="43.47825" lon="6.79093">
        <ele>255</ele>
        <time>2011-06-03T09:55:48Z</time>
      </trkpt>
      <trkpt lat="43.47827" lon="6.79096">
        <ele>255</ele>
        <time>2011-06-03T09:55:49Z</time>
      </trkpt>
      <trkpt lat="43.47828" lon="6.79098">
        <ele>255</ele>
        <time>2011-06-03T09:55:50Z</time>
      </trkpt>
      <trkpt lat="43.47829" lon="6.791">
        <ele>256</ele>
        <time>2011-06-03T09:55:51Z</time>
      </trkpt>
      <trkpt lat="43.47829" lon="6.79103">
        <ele>255</ele>
        <time>2011-06-03T09:55:52Z</time>
      </trkpt>
      <trkpt lat="43.47833" lon="6.79105">
        <ele>255</ele>
        <time>2011-06-03T09:55:53Z</time>
      </trkpt>
      <trkpt lat="43.47836" lon="6.79105">
        <ele>255</ele>
        <time>2011-06-03T09:55:54Z</time>
      </trkpt>
      <trkpt lat="43.47838" lon="6.79105">
        <ele>254</ele>
        <time>2011-06-03T09:55:55Z</time>
      </trkpt>
      <trkpt lat="43.4784" lon="6.79105">
        <ele>255</ele>
        <time>2011-06-03T09:55:56Z</time>
      </trkpt>
      <trkpt lat="43.47842" lon="6.79105">
        <ele>255</ele>
        <time>2011-06-03T09:55:57Z</time>
      </trkpt>
      <trkpt lat="43.47844" lon="6.79105">
        <ele>255</ele>
        <time>2011-06-03T09:55:58Z</time>
      </trkpt>
      <trkpt lat="43.47846" lon="6.79104">
        <ele>256</ele>
        <time>2011-06-03T09:55:59Z</time>
      </trkpt>
      <trkpt lat="43.47848" lon="6.79103">
        <ele>255</ele>
        <time>2011-06-03T09:56:00Z</time>
      </trkpt>
      <trkpt lat="43.47851" lon="6.79103">
        <ele>256</ele>
        <time>2011-06-03T09:56:01Z</time>
      </trkpt>
      <trkpt lat="43.47852" lon="6.79103">
        <ele>256</ele>
        <time>2011-06-03T09:56:02Z</time>
      </trkpt>
      <trkpt lat="43.47854" lon="6.79103">
        <ele>255</ele>
        <time>2011-06-03T09:56:03Z</time>
      </trkpt>
      <trkpt lat="43.47855" lon="6.79104">
        <ele>256</ele>
        <time>2011-06-03T09:56:04Z</time>
      </trkpt>
      <trkpt lat="43.47857" lon="6.79105">
        <ele>256</ele>
        <time>2011-06-03T09:56:05Z</time>
      </trkpt>
      <trkpt lat="43.47857" lon="6.79106">
        <ele>257</ele>
        <time>2011-06-03T09:56:06Z</time>
      </trkpt>
      <trkpt lat="43.47858" lon="6.79107">
        <ele>258</ele>
        <time>2011-06-03T09:56:07Z</time>
      </trkpt>
      <trkpt lat="43.47859" lon="6.79108">
        <ele>259</ele>
        <time>2011-06-03T09:56:08Z</time>
      </trkpt>
      <trkpt lat="43.47859" lon="6.79111">
        <ele>259</ele>
        <time>2011-06-03T09:56:09Z</time>
      </trkpt>
      <trkpt lat="43.4786" lon="6.79112">
        <ele>259</ele>
        <time>2011-06-03T09:56:10Z</time>
      </trkpt>
      <trkpt lat="43.47862" lon="6.79114">
        <ele>259</ele>
        <time>2011-06-03T09:56:11Z</time>
      </trkpt>
      <trkpt lat="43.47864" lon="6.79114">
        <ele>259</ele>
        <time>2011-06-03T09:56:12Z</time>
      </trkpt>
      <trkpt lat="43.47866" lon="6.79114">
        <ele>260</ele>
        <time>2011-06-03T09:56:13Z</time>
      </trkpt>
      <trkpt lat="43.47868" lon="6.79114">
        <ele>260</ele>
        <time>2011-06-03T09:56:14Z</time>
      </trkpt>
      <trkpt lat="43.47869" lon="6.79114">
        <ele>261</ele>
        <time>2011-06-03T09:56:15Z</time>
      </trkpt>
      <trkpt lat="43.47872" lon="6.79114">
        <ele>262</ele>
        <time>2011-06-03T09:56:16Z</time>
      </trkpt>
      <trkpt lat="43.47874" lon="6.79115">
        <ele>262</ele>
        <time>2011-06-03T09:56:17Z</time>
      </trkpt>
      <trkpt lat="43.47876" lon="6.79117">
        <ele>262</ele>
        <time>2011-06-03T09:56:18Z</time>
      </trkpt>
      <trkpt lat="43.47879" lon="6.79117">
        <ele>262</ele>
        <time>2011-06-03T09:56:19Z</time>
      </trkpt>
      <trkpt lat="43.4788" lon="6.79118">
        <ele>263</ele>
        <time>2011-06-03T09:56:20Z</time>
      </trkpt>
      <trkpt lat="43.47882" lon="6.79118">
        <ele>263</ele>
        <time>2011-06-03T09:56:21Z</time>
      </trkpt>
      <trkpt lat="43.47884" lon="6.79119">
        <ele>263</ele>
        <time>2011-06-03T09:56:22Z</time>
      </trkpt>
      <trkpt lat="43.47887" lon="6.79119">
        <ele>263</ele>
        <time>2011-06-03T09:56:23Z</time>
      </trkpt>
      <trkpt lat="43.47887" lon="6.7912">
        <ele>263</ele>
        <time>2011-06-03T09:56:24Z</time>
      </trkpt>
      <trkpt lat="43.47888" lon="6.79122">
        <ele>265</ele>
        <time>2011-06-03T09:56:25Z</time>
      </trkpt>
      <trkpt lat="43.4789" lon="6.79123">
        <ele>265</ele>
        <time>2011-06-03T09:56:26Z</time>
      </trkpt>
      <trkpt lat="43.4789" lon="6.79125">
        <ele>266</ele>
        <time>2011-06-03T09:56:27Z</time>
      </trkpt>
      <trkpt lat="43.47892" lon="6.79126">
        <ele>266</ele>
        <time>2011-06-03T09:56:28Z</time>
      </trkpt>
      <trkpt lat="43.47892" lon="6.79127">
        <ele>266</ele>
        <time>2011-06-03T09:56:29Z</time>
      </trkpt>
      <trkpt lat="43.47894" lon="6.79129">
        <ele>267</ele>
        <time>2011-06-03T09:56:30Z</time>
      </trkpt>
      <trkpt lat="43.47895" lon="6.79128">
        <ele>267</ele>
        <time>2011-06-03T09:56:31Z</time>
      </trkpt>
      <trkpt lat="43.47897" lon="6.79129">
        <ele>268</ele>
        <time>2011-06-03T09:56:32Z</time>
      </trkpt>
      <trkpt lat="43.47898" lon="6.79129">
        <ele>268</ele>
        <time>2011-06-03T09:56:33Z</time>
      </trkpt>
      <trkpt lat="43.479" lon="6.79128">
        <ele>269</ele>
        <time>2011-06-03T09:56:34Z</time>
      </trkpt>
      <trkpt lat="43.47902" lon="6.79127">
        <ele>269</ele>
        <time>2011-06-03T09:56:35Z</time>
      </trkpt>
      <trkpt lat="43.47903" lon="6.79126">
        <ele>269</ele>
        <time>2011-06-03T09:56:36Z</time>
      </trkpt>
      <trkpt lat="43.47904" lon="6.79127">
        <ele>270</ele>
        <time>2011-06-03T09:56:37Z</time>
      </trkpt>
      <trkpt lat="43.47906" lon="6.79128">
        <ele>270</ele>
        <time>2011-06-03T09:56:38Z</time>
      </trkpt>
      <trkpt lat="43.47907" lon="6.79128">
        <ele>271</ele>
        <time>2011-06-03T09:56:39Z</time>
      </trkpt>
      <trkpt lat="43.47909" lon="6.79129">
        <ele>272</ele>
        <time>2011-06-03T09:56:40Z</time>
      </trkpt>
      <trkpt lat="43.4791" lon="6.7913">
        <ele>272</ele>
        <time>2011-06-03T09:56:41Z</time>
      </trkpt>
      <trkpt lat="43.47912" lon="6.7913">
        <ele>274</ele>
        <time>2011-06-03T09:56:42Z</time>
      </trkpt>
      <trkpt lat="43.47913" lon="6.79129">
        <ele>274</ele>
        <time>2011-06-03T09:56:43Z</time>
      </trkpt>
      <trkpt lat="43.47915" lon="6.79129">
        <ele>275</ele>
        <time>2011-06-03T09:56:44Z</time>
      </trkpt>
      <trkpt lat="43.47918" lon="6.79129">
        <ele>275</ele>
        <time>2011-06-03T09:56:45Z</time>
      </trkpt>
      <trkpt lat="43.47919" lon="6.79128">
        <ele>275</ele>
        <time>2011-06-03T09:56:46Z</time>
      </trkpt>
      <trkpt lat="43.47921" lon="6.79128">
        <ele>275</ele>
        <time>2011-06-03T09:56:47Z</time>
      </trkpt>
      <trkpt lat="43.47923" lon="6.79128">
        <ele>276</ele>
        <time>2011-06-03T09:56:48Z</time>
      </trkpt>
      <trkpt lat="43.47924" lon="6.79128">
        <ele>276</ele>
        <time>2011-06-03T09:56:49Z</time>
      </trkpt>
      <trkpt lat="43.47926" lon="6.79129">
        <ele>276</ele>
        <time>2011-06-03T09:56:50Z</time>
      </trkpt>
      <trkpt lat="43.47927" lon="6.79128">
        <ele>276</ele>
        <time>2011-06-03T09:56:51Z</time>
      </trkpt>
      <trkpt lat="43.47929" lon="6.79128">
        <ele>276</ele>
        <time>2011-06-03T09:56:52Z</time>
      </trkpt>
      <trkpt lat="43.47931" lon="6.79127">
        <ele>276</ele>
        <time>2011-06-03T09:56:53Z</time>
      </trkpt>
      <trkpt lat="43.47934" lon="6.79127">
        <ele>276</ele>
        <time>2011-06-03T09:56:54Z</time>
      </trkpt>
      <trkpt lat="43.47935" lon="6.79127">
        <ele>277</ele>
        <time>2011-06-03T09:56:55Z</time>
      </trkpt>
      <trkpt lat="43.47937" lon="6.79127">
        <ele>277</ele>
        <time>2011-06-03T09:56:56Z</time>
      </trkpt>
      <trkpt lat="43.47939" lon="6.79126">
        <ele>278</ele>
        <time>2011-06-03T09:56:57Z</time>
      </trkpt>
      <trkpt lat="43.47939" lon="6.79126">
        <ele>278</ele>
        <time>2011-06-03T09:56:58Z</time>
      </trkpt>
      <trkpt lat="43.47941" lon="6.79126">
        <ele>278</ele>
        <time>2011-06-03T09:56:59Z</time>
      </trkpt>
      <trkpt lat="43.47943" lon="6.79126">
        <ele>278</ele>
        <time>2011-06-03T09:57:00Z</time>
      </trkpt>
      <trkpt lat="43.47945" lon="6.79125">
        <ele>278</ele>
        <time>2011-06-03T09:57:01Z</time>
      </trkpt>
      <trkpt lat="43.47948" lon="6.79126">
        <ele>276</ele>
        <time>2011-06-03T09:57:02Z</time>
      </trkpt>
      <trkpt lat="43.47949" lon="6.79126">
        <ele>276</ele>
        <time>2011-06-03T09:57:03Z</time>
      </trkpt>
      <trkpt lat="43.47951" lon="6.79125">
        <ele>276</ele>
        <time>2011-06-03T09:57:04Z</time>
      </trkpt>
      <trkpt lat="43.47954" lon="6.79125">
        <ele>275</ele>
        <time>2011-06-03T09:57:05Z</time>
      </trkpt>
      <trkpt lat="43.47956" lon="6.79126">
        <ele>275</ele>
        <time>2011-06-03T09:57:06Z</time>
      </trkpt>
      <trkpt lat="43.47956" lon="6.79125">
        <ele>275</ele>
        <time>2011-06-03T09:57:07Z</time>
      </trkpt>
      <trkpt lat="43.47957" lon="6.79124">
        <ele>276</ele>
        <time>2011-06-03T09:57:08Z</time>
      </trkpt>
      <trkpt lat="43.4796" lon="6.79125">
        <ele>276</ele>
        <time>2011-06-03T09:57:09Z</time>
      </trkpt>
      <trkpt lat="43.47961" lon="6.79124">
        <ele>276</ele>
        <time>2011-06-03T09:57:10Z</time>
      </trkpt>
      <trkpt lat="43.47963" lon="6.79124">
        <ele>276</ele>
        <time>2011-06-03T09:57:11Z</time>
      </trkpt>
      <trkpt lat="43.47964" lon="6.79124">
        <ele>276</ele>
        <time>2011-06-03T09:57:12Z</time>
      </trkpt>
      <trkpt lat="43.47965" lon="6.79123">
        <ele>276</ele>
        <time>2011-06-03T09:57:13Z</time>
      </trkpt>
      <trkpt lat="43.47967" lon="6.79123">
        <ele>277</ele>
        <time>2011-06-03T09:57:14Z</time>
      </trkpt>
      <trkpt lat="43.47968" lon="6.79122">
        <ele>276</ele>
        <time>2011-06-03T09:57:15Z</time>
      </trkpt>
      <trkpt lat="43.4797" lon="6.79122">
        <ele>277</ele>
        <time>2011-06-03T09:57:16Z</time>
      </trkpt>
      <trkpt lat="43.47971" lon="6.79122">
        <ele>277</ele>
        <time>2011-06-03T09:57:17Z</time>
      </trkpt>
      <trkpt lat="43.47973" lon="6.79122">
        <ele>278</ele>
        <time>2011-06-03T09:57:18Z</time>
      </trkpt>
      <trkpt lat="43.47975" lon="6.79121">
        <ele>278</ele>
        <time>2011-06-03T09:57:19Z</time>
      </trkpt>
      <trkpt lat="43.47977" lon="6.79121">
        <ele>279</ele>
        <time>2011-06-03T09:57:20Z</time>
      </trkpt>
      <trkpt lat="43.47978" lon="6.79121">
        <ele>279</ele>
        <time>2011-06-03T09:57:21Z</time>
      </trkpt>
      <trkpt lat="43.4798" lon="6.79121">
        <ele>280</ele>
        <time>2011-06-03T09:57:22Z</time>
      </trkpt>
      <trkpt lat="43.47982" lon="6.79121">
        <ele>280</ele>
        <time>2011-06-03T09:57:23Z</time>
      </trkpt>
      <trkpt lat="43.47983" lon="6.79121">
        <ele>282</ele>
        <time>2011-06-03T09:57:24Z</time>
      </trkpt>
      <trkpt lat="43.47984" lon="6.79121">
        <ele>283</ele>
        <time>2011-06-03T09:57:25Z</time>
      </trkpt>
      <trkpt lat="43.47986" lon="6.79122">
        <ele>283</ele>
        <time>2011-06-03T09:57:26Z</time>
      </trkpt>
      <trkpt lat="43.47988" lon="6.79122">
        <ele>283</ele>
        <time>2011-06-03T09:57:27Z</time>
      </trkpt>
      <trkpt lat="43.4799" lon="6.79123">
        <ele>283</ele>
        <time>2011-06-03T09:57:28Z</time>
      </trkpt>
      <trkpt lat="43.47991" lon="6.79124">
        <ele>283</ele>
        <time>2011-06-03T09:57:29Z</time>
      </trkpt>
      <trkpt lat="43.47992" lon="6.79125">
        <ele>283</ele>
        <time>2011-06-03T09:57:30Z</time>
      </trkpt>
      <trkpt lat="43.47994" lon="6.79126">
        <ele>283</ele>
        <time>2011-06-03T09:57:31Z</time>
      </trkpt>
      <trkpt lat="43.47996" lon="6.79127">
        <ele>284</ele>
        <time>2011-06-03T09:57:32Z</time>
      </trkpt>
      <trkpt lat="43.47998" lon="6.79128">
        <ele>284</ele>
        <time>2011-06-03T09:57:33Z</time>
      </trkpt>
      <trkpt lat="43.48" lon="6.7913">
        <ele>282</ele>
        <time>2011-06-03T09:57:34Z</time>
      </trkpt>
      <trkpt lat="43.48002" lon="6.7913">
        <ele>282</ele>
        <time>2011-06-03T09:57:35Z</time>
      </trkpt>
      <trkpt lat="43.48004" lon="6.7913">
        <ele>282</ele>
        <time>2011-06-03T09:57:36Z</time>
      </trkpt>
      <trkpt lat="43.48005" lon="6.79131">
        <ele>283</ele>
        <time>2011-06-03T09:57:37Z</time>
      </trkpt>
      <trkpt lat="43.48006" lon="6.79132">
        <ele>283</ele>
        <time>2011-06-03T09:57:38Z</time>
      </trkpt>
      <trkpt lat="43.48007" lon="6.79132">
        <ele>284</ele>
        <time>2011-06-03T09:57:39Z</time>
      </trkpt>
      <trkpt lat="43.48008" lon="6.79133">
        <ele>284</ele>
        <time>2011-06-03T09:57:40Z</time>
      </trkpt>
      <trkpt lat="43.48009" lon="6.79134">
        <ele>284</ele>
        <time>2011-06-03T09:57:41Z</time>
      </trkpt>
      <trkpt lat="43.4801" lon="6.79133">
        <ele>284</ele>
        <time>2011-06-03T09:57:42Z</time>
      </trkpt>
      <trkpt lat="43.4801" lon="6.79133">
        <ele>284</ele>
        <time>2011-06-03T09:57:43Z</time>
      </trkpt>
      <trkpt lat="43.4801" lon="6.79133">
        <ele>285</ele>
        <time>2011-06-03T09:57:44Z</time>
      </trkpt>
      <trkpt lat="43.4801" lon="6.79132">
        <ele>286</ele>
        <time>2011-06-03T09:57:45Z</time>
      </trkpt>
      <trkpt lat="43.48012" lon="6.7913">
        <ele>286</ele>
        <time>2011-06-03T09:57:46Z</time>
      </trkpt>
      <trkpt lat="43.48011" lon="6.79129">
        <ele>286</ele>
        <time>2011-06-03T09:57:47Z</time>
      </trkpt>
      <trkpt lat="43.48011" lon="6.79128">
        <ele>286</ele>
        <time>2011-06-03T09:57:48Z</time>
      </trkpt>
      <trkpt lat="43.48011" lon="6.79128">
        <ele>286</ele>
        <time>2011-06-03T09:57:49Z</time>
      </trkpt>
      <trkpt lat="43.4801" lon="6.79126">
        <ele>288</ele>
        <time>2011-06-03T09:57:50Z</time>
      </trkpt>
      <trkpt lat="43.4801" lon="6.79125">
        <ele>287</ele>
        <time>2011-06-03T09:57:51Z</time>
      </trkpt>
      <trkpt lat="43.48028" lon="6.79127">
        <ele>292</ele>
        <time>2011-06-03T09:58:37Z</time>
      </trkpt>
      <trkpt lat="43.4803" lon="6.79126">
        <ele>293</ele>
        <time>2011-06-03T09:58:38Z</time>
      </trkpt>
      <trkpt lat="43.48032" lon="6.79125">
        <ele>293</ele>
        <time>2011-06-03T09:58:39Z</time>
      </trkpt>
      <trkpt lat="43.48035" lon="6.79125">
        <ele>293</ele>
        <time>2011-06-03T09:58:40Z</time>
      </trkpt>
      <trkpt lat="43.48037" lon="6.79124">
        <ele>293</ele>
        <time>2011-06-03T09:58:41Z</time>
      </trkpt>
      <trkpt lat="43.48039" lon="6.79124">
        <ele>293</ele>
        <time>2011-06-03T09:58:42Z</time>
      </trkpt>
      <trkpt lat="43.48043" lon="6.79124">
        <ele>293</ele>
        <time>2011-06-03T09:58:43Z</time>
      </trkpt>
      <trkpt lat="43.48044" lon="6.79122">
        <ele>294</ele>
        <time>2011-06-03T09:58:44Z</time>
      </trkpt>
      <trkpt lat="43.48047" lon="6.79122">
        <ele>294</ele>
        <time>2011-06-03T09:58:45Z</time>
      </trkpt>
      <trkpt lat="43.48049" lon="6.79122">
        <ele>293</ele>
        <time>2011-06-03T09:58:46Z</time>
      </trkpt>
      <trkpt lat="43.48052" lon="6.79122">
        <ele>294</ele>
        <time>2011-06-03T09:58:47Z</time>
      </trkpt>
      <trkpt lat="43.48053" lon="6.79122">
        <ele>294</ele>
        <time>2011-06-03T09:58:48Z</time>
      </trkpt>
      <trkpt lat="43.48055" lon="6.79122">
        <ele>294</ele>
        <time>2011-06-03T09:58:49Z</time>
      </trkpt>
      <trkpt lat="43.48057" lon="6.79121">
        <ele>294</ele>
        <time>2011-06-03T09:58:50Z</time>
      </trkpt>
      <trkpt lat="43.48059" lon="6.79122">
        <ele>295</ele>
        <time>2011-06-03T09:58:51Z</time>
      </trkpt>
      <trkpt lat="43.48061" lon="6.79122">
        <ele>295</ele>
        <time>2011-06-03T09:58:52Z</time>
      </trkpt>
      <trkpt lat="43.48063" lon="6.79122">
        <ele>295</ele>
        <time>2011-06-03T09:58:53Z</time>
      </trkpt>
      <trkpt lat="43.48065" lon="6.79122">
        <ele>296</ele>
        <time>2011-06-03T09:58:54Z</time>
      </trkpt>
      <trkpt lat="43.48067" lon="6.79121">
        <ele>296</ele>
        <time>2011-06-03T09:58:55Z</time>
      </trkpt>
      <trkpt lat="43.48069" lon="6.79121">
        <ele>296</ele>
        <time>2011-06-03T09:58:56Z</time>
      </trkpt>
      <trkpt lat="43.48071" lon="6.79121">
        <ele>297</ele>
        <time>2011-06-03T09:58:57Z</time>
      </trkpt>
      <trkpt lat="43.48073" lon="6.79121">
        <ele>297</ele>
        <time>2011-06-03T09:58:58Z</time>
      </trkpt>
      <trkpt lat="43.48075" lon="6.7912">
        <ele>296</ele>
        <time>2011-06-03T09:58:59Z</time>
      </trkpt>
      <trkpt lat="43.48078" lon="6.7912">
        <ele>297</ele>
        <time>2011-06-03T09:59:00Z</time>
      </trkpt>
      <trkpt lat="43.48079" lon="6.7912">
        <ele>297</ele>
        <time>2011-06-03T09:59:01Z</time>
      </trkpt>
      <trkpt lat="43.48081" lon="6.79119">
        <ele>297</ele>
        <time>2011-06-03T09:59:02Z</time>
      </trkpt>
      <trkpt lat="43.48083" lon="6.79117">
        <ele>298</ele>
        <time>2011-06-03T09:59:03Z</time>
      </trkpt>
      <trkpt lat="43.48085" lon="6.79117">
        <ele>298</ele>
        <time>2011-06-03T09:59:04Z</time>
      </trkpt>
      <trkpt lat="43.48087" lon="6.79117">
        <ele>298</ele>
        <time>2011-06-03T09:59:05Z</time>
      </trkpt>
      <trkpt lat="43.48089" lon="6.79117">
        <ele>298</ele>
        <time>2011-06-03T09:59:06Z</time>
      </trkpt>
      <trkpt lat="43.48091" lon="6.79115">
        <ele>298</ele>
        <time>2011-06-03T09:59:07Z</time>
      </trkpt>
      <trkpt lat="43.48093" lon="6.79114">
        <ele>298</ele>
        <time>2011-06-03T09:59:08Z</time>
      </trkpt>
      <trkpt lat="43.48096" lon="6.79114">
        <ele>298</ele>
        <time>2011-06-03T09:59:09Z</time>
      </trkpt>
      <trkpt lat="43.48097" lon="6.79113">
        <ele>298</ele>
        <time>2011-06-03T09:59:10Z</time>
      </trkpt>
      <trkpt lat="43.481" lon="6.79112">
        <ele>299</ele>
        <time>2011-06-03T09:59:11Z</time>
      </trkpt>
      <trkpt lat="43.48102" lon="6.79111">
        <ele>299</ele>
        <time>2011-06-03T09:59:12Z</time>
      </trkpt>
      <trkpt lat="43.48104" lon="6.79111">
        <ele>299</ele>
        <time>2011-06-03T09:59:13Z</time>
      </trkpt>
      <trkpt lat="43.48105" lon="6.7911">
        <ele>299</ele>
        <time>2011-06-03T09:59:14Z</time>
      </trkpt>
      <trkpt lat="43.48107" lon="6.79109">
        <ele>299</ele>
        <time>2011-06-03T09:59:15Z</time>
      </trkpt>
      <trkpt lat="43.4811" lon="6.79107">
        <ele>298</ele>
        <time>2011-06-03T09:59:16Z</time>
      </trkpt>
      <trkpt lat="43.48111" lon="6.79107">
        <ele>298</ele>
        <time>2011-06-03T09:59:17Z</time>
      </trkpt>
      <trkpt lat="43.48113" lon="6.79106">
        <ele>299</ele>
        <time>2011-06-03T09:59:18Z</time>
      </trkpt>
      <trkpt lat="43.48115" lon="6.79106">
        <ele>299</ele>
        <time>2011-06-03T09:59:19Z</time>
      </trkpt>
      <trkpt lat="43.48117" lon="6.79105">
        <ele>299</ele>
        <time>2011-06-03T09:59:20Z</time>
      </trkpt>
      <trkpt lat="43.48119" lon="6.79105">
        <ele>300</ele>
        <time>2011-06-03T09:59:21Z</time>
      </trkpt>
      <trkpt lat="43.4812" lon="6.79105">
        <ele>300</ele>
        <time>2011-06-03T09:59:22Z</time>
      </trkpt>
      <trkpt lat="43.48123" lon="6.79105">
        <ele>300</ele>
        <time>2011-06-03T09:59:23Z</time>
      </trkpt>
      <trkpt lat="43.48124" lon="6.79105">
        <ele>300</ele>
        <time>2011-06-03T09:59:24Z</time>
      </trkpt>
      <trkpt lat="43.48126" lon="6.79105">
        <ele>300</ele>
        <time>2011-06-03T09:59:25Z</time>
      </trkpt>
      <trkpt lat="43.48128" lon="6.79106">
        <ele>300</ele>
        <time>2011-06-03T09:59:26Z</time>
      </trkpt>
      <trkpt lat="43.4813" lon="6.79108">
        <ele>301</ele>
        <time>2011-06-03T09:59:27Z</time>
      </trkpt>
      <trkpt lat="43.48132" lon="6.79109">
        <ele>301</ele>
        <time>2011-06-03T09:59:28Z</time>
      </trkpt>
      <trkpt lat="43.48134" lon="6.7911">
        <ele>300</ele>
        <time>2011-06-03T09:59:29Z</time>
      </trkpt>
      <trkpt lat="43.48137" lon="6.79111">
        <ele>300</ele>
        <time>2011-06-03T09:59:30Z</time>
      </trkpt>
      <trkpt lat="43.48138" lon="6.79111">
        <ele>301</ele>
        <time>2011-06-03T09:59:31Z</time>
      </trkpt>
      <trkpt lat="43.4814" lon="6.79112">
        <ele>301</ele>
        <time>2011-06-03T09:59:32Z</time>
      </trkpt>
      <trkpt lat="43.48142" lon="6.79113">
        <ele>301</ele>
        <time>2011-06-03T09:59:33Z</time>
      </trkpt>
      <trkpt lat="43.48144" lon="6.79114">
        <ele>301</ele>
        <time>2011-06-03T09:59:34Z</time>
      </trkpt>
      <trkpt lat="43.48146" lon="6.79114">
        <ele>301</ele>
        <time>2011-06-03T09:59:35Z</time>
      </trkpt>
      <trkpt lat="43.48148" lon="6.79114">
        <ele>301</ele>
        <time>2011-06-03T09:59:36Z</time>
      </trkpt>
      <trkpt lat="43.4815" lon="6.79116">
        <ele>301</ele>
        <time>2011-06-03T09:59:37Z</time>
      </trkpt>
      <trkpt lat="43.48152" lon="6.79117">
        <ele>302</ele>
        <time>2011-06-03T09:59:38Z</time>
      </trkpt>
      <trkpt lat="43.48152" lon="6.79117">
        <ele>302</ele>
        <time>2011-06-03T09:59:39Z</time>
      </trkpt>
      <trkpt lat="43.48153" lon="6.79117">
        <ele>302</ele>
        <time>2011-06-03T09:59:40Z</time>
      </trkpt>
      <trkpt lat="43.48155" lon="6.79116">
        <ele>302</ele>
        <time>2011-06-03T09:59:41Z</time>
      </trkpt>
      <trkpt lat="43.48156" lon="6.79116">
        <ele>303</ele>
        <time>2011-06-03T09:59:42Z</time>
      </trkpt>
      <trkpt lat="43.48159" lon="6.79115">
        <ele>303</ele>
        <time>2011-06-03T09:59:43Z</time>
      </trkpt>
      <trkpt lat="43.48161" lon="6.79117">
        <ele>304</ele>
        <time>2011-06-03T09:59:44Z</time>
      </trkpt>
      <trkpt lat="43.48163" lon="6.79117">
        <ele>305</ele>
        <time>2011-06-03T09:59:45Z</time>
      </trkpt>
      <trkpt lat="43.48165" lon="6.79117">
        <ele>305</ele>
        <time>2011-06-03T09:59:46Z</time>
      </trkpt>
      <trkpt lat="43.48167" lon="6.79117">
        <ele>306</ele>
        <time>2011-06-03T09:59:47Z</time>
      </trkpt>
      <trkpt lat="43.48168" lon="6.79118">
        <ele>306</ele>
        <time>2011-06-03T09:59:48Z</time>
      </trkpt>
      <trkpt lat="43.4817" lon="6.79118">
        <ele>306</ele>
        <time>2011-06-03T09:59:49Z</time>
      </trkpt>
      <trkpt lat="43.48172" lon="6.79119">
        <ele>306</ele>
        <time>2011-06-03T09:59:50Z</time>
      </trkpt>
      <trkpt lat="43.48174" lon="6.79119">
        <ele>305</ele>
        <time>2011-06-03T09:59:51Z</time>
      </trkpt>
      <trkpt lat="43.48175" lon="6.79119">
        <ele>305</ele>
        <time>2011-06-03T09:59:52Z</time>
      </trkpt>
      <trkpt lat="43.48177" lon="6.79119">
        <ele>305</ele>
        <time>2011-06-03T09:59:53Z</time>
      </trkpt>
      <trkpt lat="43.48178" lon="6.7912">
        <ele>306</ele>
        <time>2011-06-03T09:59:54Z</time>
      </trkpt>
      <trkpt lat="43.48179" lon="6.7912">
        <ele>306</ele>
        <time>2011-06-03T09:59:55Z</time>
      </trkpt>
      <trkpt lat="43.48182" lon="6.79121">
        <ele>306</ele>
        <time>2011-06-03T09:59:56Z</time>
      </trkpt>
      <trkpt lat="43.48184" lon="6.7912">
        <ele>307</ele>
        <time>2011-06-03T09:59:57Z</time>
      </trkpt>
      <trkpt lat="43.48186" lon="6.79121">
        <ele>308</ele>
        <time>2011-06-03T09:59:58Z</time>
      </trkpt>
      <trkpt lat="43.48187" lon="6.7912">
        <ele>308</ele>
        <time>2011-06-03T09:59:59Z</time>
      </trkpt>
      <trkpt lat="43.48189" lon="6.79119">
        <ele>309</ele>
        <time>2011-06-03T10:00:00Z</time>
      </trkpt>
      <trkpt lat="43.4819" lon="6.79118">
        <ele>309</ele>
        <time>2011-06-03T10:00:01Z</time>
      </trkpt>
      <trkpt lat="43.48192" lon="6.79118">
        <ele>309</ele>
        <time>2011-06-03T10:00:02Z</time>
      </trkpt>
      <trkpt lat="43.48194" lon="6.79118">
        <ele>309</ele>
        <time>2011-06-03T10:00:03Z</time>
      </trkpt>
      <trkpt lat="43.48196" lon="6.79118">
        <ele>309</ele>
        <time>2011-06-03T10:00:04Z</time>
      </trkpt>
      <trkpt lat="43.48198" lon="6.79118">
        <ele>309</ele>
        <time>2011-06-03T10:00:05Z</time>
      </trkpt>
      <trkpt lat="43.482" lon="6.79118">
        <ele>311</ele>
        <time>2011-06-03T10:00:06Z</time>
      </trkpt>
      <trkpt lat="43.48203" lon="6.79119">
        <ele>311</ele>
        <time>2011-06-03T10:00:07Z</time>
      </trkpt>
      <trkpt lat="43.48204" lon="6.79119">
        <ele>311</ele>
        <time>2011-06-03T10:00:08Z</time>
      </trkpt>
      <trkpt lat="43.48206" lon="6.79121">
        <ele>312</ele>
        <time>2011-06-03T10:00:09Z</time>
      </trkpt>
      <trkpt lat="43.48207" lon="6.79122">
        <ele>312</ele>
        <time>2011-06-03T10:00:10Z</time>
      </trkpt>
      <trkpt lat="43.48209" lon="6.79122">
        <ele>313</ele>
        <time>2011-06-03T10:00:11Z</time>
      </trkpt>
      <trkpt lat="43.48211" lon="6.79123">
        <ele>313</ele>
        <time>2011-06-03T10:00:12Z</time>
      </trkpt>
      <trkpt lat="43.48213" lon="6.79123">
        <ele>313</ele>
        <time>2011-06-03T10:00:13Z</time>
      </trkpt>
      <trkpt lat="43.48214" lon="6.79123">
        <ele>313</ele>
        <time>2011-06-03T10:00:14Z</time>
      </trkpt>
      <trkpt lat="43.48216" lon="6.79124">
        <ele>313</ele>
        <time>2011-06-03T10:00:15Z</time>
      </trkpt>
      <trkpt lat="43.48218" lon="6.79124">
        <ele>312</ele>
        <time>2011-06-03T10:00:16Z</time>
      </trkpt>
      <trkpt lat="43.4822" lon="6.79124">
        <ele>312</ele>
        <time>2011-06-03T10:00:17Z</time>
      </trkpt>
      <trkpt lat="43.48222" lon="6.79124">
        <ele>313</ele>
        <time>2011-06-03T10:00:18Z</time>
      </trkpt>
      <trkpt lat="43.48225" lon="6.79125">
        <ele>313</ele>
        <time>2011-06-03T10:00:19Z</time>
      </trkpt>
      <trkpt lat="43.48226" lon="6.79126">
        <ele>313</ele>
        <time>2011-06-03T10:00:20Z</time>
      </trkpt>
      <trkpt lat="43.48228" lon="6.79127">
        <ele>313</ele>
        <time>2011-06-03T10:00:21Z</time>
      </trkpt>
      <trkpt lat="43.48229" lon="6.79128">
        <ele>314</ele>
        <time>2011-06-03T10:00:22Z</time>
      </trkpt>
      <trkpt lat="43.48231" lon="6.79128">
        <ele>315</ele>
        <time>2011-06-03T10:00:23Z</time>
      </trkpt>
      <trkpt lat="43.48232" lon="6.79128">
        <ele>315</ele>
        <time>2011-06-03T10:00:24Z</time>
      </trkpt>
      <trkpt lat="43.48235" lon="6.79128">
        <ele>314</ele>
        <time>2011-06-03T10:00:25Z</time>
      </trkpt>
      <trkpt lat="43.48237" lon="6.79129">
        <ele>313</ele>
        <time>2011-06-03T10:00:26Z</time>
      </trkpt>
      <trkpt lat="43.4824" lon="6.7913">
        <ele>313</ele>
        <time>2011-06-03T10:00:27Z</time>
      </trkpt>
      <trkpt lat="43.48241" lon="6.7913">
        <ele>312</ele>
        <time>2011-06-03T10:00:28Z</time>
      </trkpt>
      <trkpt lat="43.48243" lon="6.79131">
        <ele>312</ele>
        <time>2011-06-03T10:00:29Z</time>
      </trkpt>
      <trkpt lat="43.48245" lon="6.79132">
        <ele>311</ele>
        <time>2011-06-03T10:00:30Z</time>
      </trkpt>
      <trkpt lat="43.48248" lon="6.79132">
        <ele>312</ele>
        <time>2011-06-03T10:00:31Z</time>
      </trkpt>
      <trkpt lat="43.48249" lon="6.79133">
        <ele>312</ele>
        <time>2011-06-03T10:00:32Z</time>
      </trkpt>
      <trkpt lat="43.48251" lon="6.79133">
        <ele>311</ele>
        <time>2011-06-03T10:00:33Z</time>
      </trkpt>
      <trkpt lat="43.48252" lon="6.79133">
        <ele>312</ele>
        <time>2011-06-03T10:00:34Z</time>
      </trkpt>
      <trkpt lat="43.48254" lon="6.79133">
        <ele>311</ele>
        <time>2011-06-03T10:00:35Z</time>
      </trkpt>
      <trkpt lat="43.48256" lon="6.79133">
        <ele>312</ele>
        <time>2011-06-03T10:00:36Z</time>
      </trkpt>
      <trkpt lat="43.48258" lon="6.79133">
        <ele>312</ele>
        <time>2011-06-03T10:00:37Z</time>
      </trkpt>
      <trkpt lat="43.4826" lon="6.79132">
        <ele>312</ele>
        <time>2011-06-03T10:00:38Z</time>
      </trkpt>
      <trkpt lat="43.48262" lon="6.79132">
        <ele>312</ele>
        <time>2011-06-03T10:00:39Z</time>
      </trkpt>
      <trkpt lat="43.48264" lon="6.7913">
        <ele>312</ele>
        <time>2011-06-03T10:00:40Z</time>
      </trkpt>
      <trkpt lat="43.48265" lon="6.79129">
        <ele>312</ele>
        <time>2011-06-03T10:00:41Z</time>
      </trkpt>
      <trkpt lat="43.48266" lon="6.79129">
        <ele>312</ele>
        <time>2011-06-03T10:00:42Z</time>
      </trkpt>
      <trkpt lat="43.48268" lon="6.79128">
        <ele>311</ele>
        <time>2011-06-03T10:00:43Z</time>
      </trkpt>
      <trkpt lat="43.48269" lon="6.79127">
        <ele>311</ele>
        <time>2011-06-03T10:00:44Z</time>
      </trkpt>
      <trkpt lat="43.48271" lon="6.79126">
        <ele>311</ele>
        <time>2011-06-03T10:00:45Z</time>
      </trkpt>
      <trkpt lat="43.48272" lon="6.79124">
        <ele>312</ele>
        <time>2011-06-03T10:00:46Z</time>
      </trkpt>
      <trkpt lat="43.48273" lon="6.79123">
        <ele>312</ele>
        <time>2011-06-03T10:00:47Z</time>
      </trkpt>
      <trkpt lat="43.48275" lon="6.79122">
        <ele>312</ele>
        <time>2011-06-03T10:00:48Z</time>
      </trkpt>
      <trkpt lat="43.48277" lon="6.7912">
        <ele>312</ele>
        <time>2011-06-03T10:00:49Z</time>
      </trkpt>
      <trkpt lat="43.48277" lon="6.79119">
        <ele>313</ele>
        <time>2011-06-03T10:00:50Z</time>
      </trkpt>
      <trkpt lat="43.48279" lon="6.79118">
        <ele>313</ele>
        <time>2011-06-03T10:00:51Z</time>
      </trkpt>
      <trkpt lat="43.4828" lon="6.79117">
        <ele>314</ele>
        <time>2011-06-03T10:00:52Z</time>
      </trkpt>
      <trkpt lat="43.48281" lon="6.79115">
        <ele>315</ele>
        <time>2011-06-03T10:00:53Z</time>
      </trkpt>
      <trkpt lat="43.48282" lon="6.79114">
        <ele>316</ele>
        <time>2011-06-03T10:00:54Z</time>
      </trkpt>
      <trkpt lat="43.48284" lon="6.79113">
        <ele>316</ele>
        <time>2011-06-03T10:00:55Z</time>
      </trkpt>
      <trkpt lat="43.48286" lon="6.79112">
        <ele>316</ele>
        <time>2011-06-03T10:00:56Z</time>
      </trkpt>
      <trkpt lat="43.48287" lon="6.79111">
        <ele>316</ele>
        <time>2011-06-03T10:00:57Z</time>
      </trkpt>
      <trkpt lat="43.48288" lon="6.7911">
        <ele>315</ele>
        <time>2011-06-03T10:00:58Z</time>
      </trkpt>
      <trkpt lat="43.48291" lon="6.7911">
        <ele>314</ele>
        <time>2011-06-03T10:00:59Z</time>
      </trkpt>
      <trkpt lat="43.48292" lon="6.79109">
        <ele>314</ele>
        <time>2011-06-03T10:01:00Z</time>
      </trkpt>
      <trkpt lat="43.48294" lon="6.79108">
        <ele>314</ele>
        <time>2011-06-03T10:01:01Z</time>
      </trkpt>
      <trkpt lat="43.48295" lon="6.79107">
        <ele>315</ele>
        <time>2011-06-03T10:01:02Z</time>
      </trkpt>
      <trkpt lat="43.48297" lon="6.79106">
        <ele>315</ele>
        <time>2011-06-03T10:01:03Z</time>
      </trkpt>
      <trkpt lat="43.48299" lon="6.79106">
        <ele>315</ele>
        <time>2011-06-03T10:01:04Z</time>
      </trkpt>
      <trkpt lat="43.483" lon="6.79105">
        <ele>315</ele>
        <time>2011-06-03T10:01:05Z</time>
      </trkpt>
      <trkpt lat="43.48302" lon="6.79105">
        <ele>315</ele>
        <time>2011-06-03T10:01:06Z</time>
      </trkpt>
      <trkpt lat="43.48303" lon="6.79103">
        <ele>316</ele>
        <time>2011-06-03T10:01:07Z</time>
      </trkpt>
      <trkpt lat="43.48304" lon="6.79103">
        <ele>316</ele>
        <time>2011-06-03T10:01:08Z</time>
      </trkpt>
      <trkpt lat="43.48306" lon="6.79102">
        <ele>316</ele>
        <time>2011-06-03T10:01:09Z</time>
      </trkpt>
      <trkpt lat="43.48308" lon="6.79101">
        <ele>316</ele>
        <time>2011-06-03T10:01:10Z</time>
      </trkpt>
      <trkpt lat="43.48308" lon="6.791">
        <ele>316</ele>
        <time>2011-06-03T10:01:11Z</time>
      </trkpt>
      <trkpt lat="43.48309" lon="6.79099">
        <ele>316</ele>
        <time>2011-06-03T10:01:12Z</time>
      </trkpt>
      <trkpt lat="43.48311" lon="6.79099">
        <ele>317</ele>
        <time>2011-06-03T10:01:13Z</time>
      </trkpt>
      <trkpt lat="43.48314" lon="6.79099">
        <ele>317</ele>
        <time>2011-06-03T10:01:14Z</time>
      </trkpt>
      <trkpt lat="43.48316" lon="6.79099">
        <ele>317</ele>
        <time>2011-06-03T10:01:15Z</time>
      </trkpt>
      <trkpt lat="43.48319" lon="6.79099">
        <ele>316</ele>
        <time>2011-06-03T10:01:16Z</time>
      </trkpt>
      <trkpt lat="43.48322" lon="6.79099">
        <ele>316</ele>
        <time>2011-06-03T10:01:17Z</time>
      </trkpt>
      <trkpt lat="43.48324" lon="6.79099">
        <ele>316</ele>
        <time>2011-06-03T10:01:18Z</time>
      </trkpt>
      <trkpt lat="43.48325" lon="6.79097">
        <ele>316</ele>
        <time>2011-06-03T10:01:19Z</time>
      </trkpt>
      <trkpt lat="43.48326" lon="6.79097">
        <ele>316</ele>
        <time>2011-06-03T10:01:20Z</time>
      </trkpt>
      <trkpt lat="43.48328" lon="6.79097">
        <ele>316</ele>
        <time>2011-06-03T10:01:21Z</time>
      </trkpt>
      <trkpt lat="43.4833" lon="6.79096">
        <ele>316</ele>
        <time>2011-06-03T10:01:22Z</time>
      </trkpt>
      <trkpt lat="43.48332" lon="6.79095">
        <ele>317</ele>
        <time>2011-06-03T10:01:23Z</time>
      </trkpt>
      <trkpt lat="43.48334" lon="6.79095">
        <ele>316</ele>
        <time>2011-06-03T10:01:24Z</time>
      </trkpt>
      <trkpt lat="43.48337" lon="6.79095">
        <ele>317</ele>
        <time>2011-06-03T10:01:25Z</time>
      </trkpt>
      <trkpt lat="43.48338" lon="6.79095">
        <ele>316</ele>
        <time>2011-06-03T10:01:26Z</time>
      </trkpt>
      <trkpt lat="43.4834" lon="6.79094">
        <ele>316</ele>
        <time>2011-06-03T10:01:27Z</time>
      </trkpt>
      <trkpt lat="43.48342" lon="6.79094">
        <ele>317</ele>
        <time>2011-06-03T10:01:28Z</time>
      </trkpt>
      <trkpt lat="43.48343" lon="6.79093">
        <ele>317</ele>
        <time>2011-06-03T10:01:29Z</time>
      </trkpt>
      <trkpt lat="43.48345" lon="6.79092">
        <ele>317</ele>
        <time>2011-06-03T10:01:30Z</time>
      </trkpt>
      <trkpt lat="43.48346" lon="6.79092">
        <ele>318</ele>
        <time>2011-06-03T10:01:31Z</time>
      </trkpt>
      <trkpt lat="43.48348" lon="6.79091">
        <ele>318</ele>
        <time>2011-06-03T10:01:32Z</time>
      </trkpt>
      <trkpt lat="43.48349" lon="6.79091">
        <ele>318</ele>
        <time>2011-06-03T10:01:33Z</time>
      </trkpt>
      <trkpt lat="43.48351" lon="6.7909">
        <ele>319</ele>
        <time>2011-06-03T10:01:34Z</time>
      </trkpt>
      <trkpt lat="43.48353" lon="6.79089">
        <ele>318</ele>
        <time>2011-06-03T10:01:35Z</time>
      </trkpt>
      <trkpt lat="43.48354" lon="6.79088">
        <ele>320</ele>
        <time>2011-06-03T10:01:36Z</time>
      </trkpt>
      <trkpt lat="43.48356" lon="6.79087">
        <ele>320</ele>
        <time>2011-06-03T10:01:37Z</time>
      </trkpt>
      <trkpt lat="43.48358" lon="6.79086">
        <ele>321</ele>
        <time>2011-06-03T10:01:38Z</time>
      </trkpt>
      <trkpt lat="43.48359" lon="6.79084">
        <ele>322</ele>
        <time>2011-06-03T10:01:39Z</time>
      </trkpt>
      <trkpt lat="43.48361" lon="6.79083">
        <ele>322</ele>
        <time>2011-06-03T10:01:40Z</time>
      </trkpt>
      <trkpt lat="43.48362" lon="6.79081">
        <ele>322</ele>
        <time>2011-06-03T10:01:41Z</time>
      </trkpt>
      <trkpt lat="43.48365" lon="6.79081">
        <ele>323</ele>
        <time>2011-06-03T10:01:42Z</time>
      </trkpt>
      <trkpt lat="43.48367" lon="6.7908">
        <ele>323</ele>
        <time>2011-06-03T10:01:43Z</time>
      </trkpt>
      <trkpt lat="43.48367" lon="6.79077">
        <ele>323</ele>
        <time>2011-06-03T10:01:44Z</time>
      </trkpt>
      <trkpt lat="43.48368" lon="6.79075">
        <ele>323</ele>
        <time>2011-06-03T10:01:45Z</time>
      </trkpt>
      <trkpt lat="43.4837" lon="6.79074">
        <ele>323</ele>
        <time>2011-06-03T10:01:46Z</time>
      </trkpt>
      <trkpt lat="43.48372" lon="6.79073">
        <ele>324</ele>
        <time>2011-06-03T10:01:47Z</time>
      </trkpt>
      <trkpt lat="43.48373" lon="6.79072">
        <ele>324</ele>
        <time>2011-06-03T10:01:48Z</time>
      </trkpt>
      <trkpt lat="43.48375" lon="6.79074">
        <ele>324</ele>
        <time>2011-06-03T10:01:49Z</time>
      </trkpt>
      <trkpt lat="43.48377" lon="6.79073">
        <ele>325</ele>
        <time>2011-06-03T10:01:50Z</time>
      </trkpt>
      <trkpt lat="43.48379" lon="6.79074">
        <ele>326</ele>
        <time>2011-06-03T10:01:51Z</time>
      </trkpt>
      <trkpt lat="43.48381" lon="6.79075">
        <ele>326</ele>
        <time>2011-06-03T10:01:52Z</time>
      </trkpt>
      <trkpt lat="43.48382" lon="6.79076">
        <ele>325</ele>
        <time>2011-06-03T10:01:53Z</time>
      </trkpt>
      <trkpt lat="43.48384" lon="6.79077">
        <ele>325</ele>
        <time>2011-06-03T10:01:54Z</time>
      </trkpt>
      <trkpt lat="43.48386" lon="6.79077">
        <ele>325</ele>
        <time>2011-06-03T10:01:55Z</time>
      </trkpt>
      <trkpt lat="43.48388" lon="6.79077">
        <ele>325</ele>
        <time>2011-06-03T10:01:56Z</time>
      </trkpt>
      <trkpt lat="43.4839" lon="6.79078">
        <ele>325</ele>
        <time>2011-06-03T10:01:57Z</time>
      </trkpt>
      <trkpt lat="43.48392" lon="6.79077">
        <ele>325</ele>
        <time>2011-06-03T10:01:58Z</time>
      </trkpt>
      <trkpt lat="43.48395" lon="6.79077">
        <ele>325</ele>
        <time>2011-06-03T10:01:59Z</time>
      </trkpt>
      <trkpt lat="43.48397" lon="6.79076">
        <ele>325</ele>
        <time>2011-06-03T10:02:00Z</time>
      </trkpt>
      <trkpt lat="43.484" lon="6.79077">
        <ele>326</ele>
        <time>2011-06-03T10:02:01Z</time>
      </trkpt>
      <trkpt lat="43.48402" lon="6.79077">
        <ele>326</ele>
        <time>2011-06-03T10:02:02Z</time>
      </trkpt>
      <trkpt lat="43.48404" lon="6.79076">
        <ele>326</ele>
        <time>2011-06-03T10:02:03Z</time>
      </trkpt>
      <trkpt lat="43.48406" lon="6.79076">
        <ele>327</ele>
        <time>2011-06-03T10:02:04Z</time>
      </trkpt>
      <trkpt lat="43.48407" lon="6.79075">
        <ele>327</ele>
        <time>2011-06-03T10:02:05Z</time>
      </trkpt>
      <trkpt lat="43.4841" lon="6.79075">
        <ele>327</ele>
        <time>2011-06-03T10:02:06Z</time>
      </trkpt>
      <trkpt lat="43.48411" lon="6.79075">
        <ele>327</ele>
        <time>2011-06-03T10:02:07Z</time>
      </trkpt>
      <trkpt lat="43.48413" lon="6.79075">
        <ele>327</ele>
        <time>2011-06-03T10:02:08Z</time>
      </trkpt>
      <trkpt lat="43.48414" lon="6.79074">
        <ele>327</ele>
        <time>2011-06-03T10:02:09Z</time>
      </trkpt>
      <trkpt lat="43.48417" lon="6.79073">
        <ele>327</ele>
        <time>2011-06-03T10:02:10Z</time>
      </trkpt>
      <trkpt lat="43.48418" lon="6.79073">
        <ele>328</ele>
        <time>2011-06-03T10:02:11Z</time>
      </trkpt>
      <trkpt lat="43.4842" lon="6.79073">
        <ele>329</ele>
        <time>2011-06-03T10:02:12Z</time>
      </trkpt>
      <trkpt lat="43.48421" lon="6.79072">
        <ele>329</ele>
        <time>2011-06-03T10:02:13Z</time>
      </trkpt>
      <trkpt lat="43.48422" lon="6.79071">
        <ele>330</ele>
        <time>2011-06-03T10:02:14Z</time>
      </trkpt>
      <trkpt lat="43.48424" lon="6.7907">
        <ele>331</ele>
        <time>2011-06-03T10:02:15Z</time>
      </trkpt>
      <trkpt lat="43.48426" lon="6.79068">
        <ele>331</ele>
        <time>2011-06-03T10:02:16Z</time>
      </trkpt>
      <trkpt lat="43.48428" lon="6.79068">
        <ele>331</ele>
        <time>2011-06-03T10:02:17Z</time>
      </trkpt>
      <trkpt lat="43.48429" lon="6.79067">
        <ele>331</ele>
        <time>2011-06-03T10:02:18Z</time>
      </trkpt>
      <trkpt lat="43.48431" lon="6.79066">
        <ele>331</ele>
        <time>2011-06-03T10:02:19Z</time>
      </trkpt>
      <trkpt lat="43.48433" lon="6.79066">
        <ele>331</ele>
        <time>2011-06-03T10:02:20Z</time>
      </trkpt>
      <trkpt lat="43.48436" lon="6.79065">
        <ele>329</ele>
        <time>2011-06-03T10:02:21Z</time>
      </trkpt>
      <trkpt lat="43.48438" lon="6.79064">
        <ele>329</ele>
        <time>2011-06-03T10:02:22Z</time>
      </trkpt>
      <trkpt lat="43.4844" lon="6.79063">
        <ele>329</ele>
        <time>2011-06-03T10:02:23Z</time>
      </trkpt>
      <trkpt lat="43.48443" lon="6.79062">
        <ele>328</ele>
        <time>2011-06-03T10:02:24Z</time>
      </trkpt>
      <trkpt lat="43.48445" lon="6.79061">
        <ele>328</ele>
        <time>2011-06-03T10:02:25Z</time>
      </trkpt>
      <trkpt lat="43.48447" lon="6.7906">
        <ele>329</ele>
        <time>2011-06-03T10:02:26Z</time>
      </trkpt>
      <trkpt lat="43.48448" lon="6.79059">
        <ele>329</ele>
        <time>2011-06-03T10:02:27Z</time>
      </trkpt>
      <trkpt lat="43.4845" lon="6.79059">
        <ele>329</ele>
        <time>2011-06-03T10:02:28Z</time>
      </trkpt>
      <trkpt lat="43.48451" lon="6.79061">
        <ele>329</ele>
        <time>2011-06-03T10:02:29Z</time>
      </trkpt>
      <trkpt lat="43.48451" lon="6.79064">
        <ele>329</ele>
        <time>2011-06-03T10:02:30Z</time>
      </trkpt>
      <trkpt lat="43.48449" lon="6.79067">
        <ele>329</ele>
        <time>2011-06-03T10:02:31Z</time>
      </trkpt>
      <trkpt lat="43.48449" lon="6.79069">
        <ele>329</ele>
        <time>2011-06-03T10:02:32Z</time>
      </trkpt>
      <trkpt lat="43.48449" lon="6.79071">
        <ele>330</ele>
        <time>2011-06-03T10:02:33Z</time>
      </trkpt>
      <trkpt lat="43.48449" lon="6.79073">
        <ele>330</ele>
        <time>2011-06-03T10:02:34Z</time>
      </trkpt>
      <trkpt lat="43.48449" lon="6.79076">
        <ele>330</ele>
        <time>2011-06-03T10:02:35Z</time>
      </trkpt>
      <trkpt lat="43.48448" lon="6.79079">
        <ele>331</ele>
        <time>2011-06-03T10:02:36Z</time>
      </trkpt>
      <trkpt lat="43.48449" lon="6.79082">
        <ele>331</ele>
        <time>2011-06-03T10:02:37Z</time>
      </trkpt>
      <trkpt lat="43.48448" lon="6.79084">
        <ele>332</ele>
        <time>2011-06-03T10:02:38Z</time>
      </trkpt>
      <trkpt lat="43.48448" lon="6.79087">
        <ele>333</ele>
        <time>2011-06-03T10:02:39Z</time>
      </trkpt>
      <trkpt lat="43.48448" lon="6.79089">
        <ele>333</ele>
        <time>2011-06-03T10:02:40Z</time>
      </trkpt>
      <trkpt lat="43.48448" lon="6.79091">
        <ele>333</ele>
        <time>2011-06-03T10:02:41Z</time>
      </trkpt>
      <trkpt lat="43.48449" lon="6.79094">
        <ele>334</ele>
        <time>2011-06-03T10:02:42Z</time>
      </trkpt>
      <trkpt lat="43.48449" lon="6.79097">
        <ele>335</ele>
        <time>2011-06-03T10:02:43Z</time>
      </trkpt>
      <trkpt lat="43.48449" lon="6.79099">
        <ele>335</ele>
        <time>2011-06-03T10:02:44Z</time>
      </trkpt>
      <trkpt lat="43.4845" lon="6.79102">
        <ele>336</ele>
        <time>2011-06-03T10:02:45Z</time>
      </trkpt>
      <trkpt lat="43.4845" lon="6.79104">
        <ele>336</ele>
        <time>2011-06-03T10:02:46Z</time>
      </trkpt>
      <trkpt lat="43.48449" lon="6.79106">
        <ele>336</ele>
        <time>2011-06-03T10:02:47Z</time>
      </trkpt>
      <trkpt lat="43.4845" lon="6.79109">
        <ele>336</ele>
        <time>2011-06-03T10:02:48Z</time>
      </trkpt>
      <trkpt lat="43.48451" lon="6.79112">
        <ele>337</ele>
        <time>2011-06-03T10:02:49Z</time>
      </trkpt>
      <trkpt lat="43.48452" lon="6.79113">
        <ele>337</ele>
        <time>2011-06-03T10:02:50Z</time>
      </trkpt>
      <trkpt lat="43.48453" lon="6.79116">
        <ele>337</ele>
        <time>2011-06-03T10:02:51Z</time>
      </trkpt>
      <trkpt lat="43.48453" lon="6.79118">
        <ele>337</ele>
        <time>2011-06-03T10:02:52Z</time>
      </trkpt>
      <trkpt lat="43.48453" lon="6.7912">
        <ele>336</ele>
        <time>2011-06-03T10:02:53Z</time>
      </trkpt>
      <trkpt lat="43.48454" lon="6.79122">
        <ele>336</ele>
        <time>2011-06-03T10:02:54Z</time>
      </trkpt>
      <trkpt lat="43.48455" lon="6.79125">
        <ele>336</ele>
        <time>2011-06-03T10:02:55Z</time>
      </trkpt>
      <trkpt lat="43.48456" lon="6.79127">
        <ele>335</ele>
        <time>2011-06-03T10:02:56Z</time>
      </trkpt>
      <trkpt lat="43.48456" lon="6.79129">
        <ele>335</ele>
        <time>2011-06-03T10:02:57Z</time>
      </trkpt>
      <trkpt lat="43.48457" lon="6.79131">
        <ele>335</ele>
        <time>2011-06-03T10:02:58Z</time>
      </trkpt>
      <trkpt lat="43.48458" lon="6.79133">
        <ele>335</ele>
        <time>2011-06-03T10:02:59Z</time>
      </trkpt>
      <trkpt lat="43.48459" lon="6.79135">
        <ele>335</ele>
        <time>2011-06-03T10:03:00Z</time>
      </trkpt>
      <trkpt lat="43.48459" lon="6.79136">
        <ele>335</ele>
        <time>2011-06-03T10:03:01Z</time>
      </trkpt>
      <trkpt lat="43.48459" lon="6.79139">
        <ele>335</ele>
        <time>2011-06-03T10:03:02Z</time>
      </trkpt>
      <trkpt lat="43.48461" lon="6.79141">
        <ele>336</ele>
        <time>2011-06-03T10:03:03Z</time>
      </trkpt>
      <trkpt lat="43.48461" lon="6.79144">
        <ele>336</ele>
        <time>2011-06-03T10:03:04Z</time>
      </trkpt>
      <trkpt lat="43.4846" lon="6.79147">
        <ele>336</ele>
        <time>2011-06-03T10:03:05Z</time>
      </trkpt>
      <trkpt lat="43.48461" lon="6.7915">
        <ele>336</ele>
        <time>2011-06-03T10:03:06Z</time>
      </trkpt>
      <trkpt lat="43.4846" lon="6.79154">
        <ele>336</ele>
        <time>2011-06-03T10:03:07Z</time>
      </trkpt>
      <trkpt lat="43.4846" lon="6.79156">
        <ele>336</ele>
        <time>2011-06-03T10:03:08Z</time>
      </trkpt>
      <trkpt lat="43.48461" lon="6.79158">
        <ele>336</ele>
        <time>2011-06-03T10:03:09Z</time>
      </trkpt>
      <trkpt lat="43.4846" lon="6.79159">
        <ele>336</ele>
        <time>2011-06-03T10:03:10Z</time>
      </trkpt>
      <trkpt lat="43.48462" lon="6.79162">
        <ele>337</ele>
        <time>2011-06-03T10:03:11Z</time>
      </trkpt>
      <trkpt lat="43.48461" lon="6.79165">
        <ele>337</ele>
        <time>2011-06-03T10:03:12Z</time>
      </trkpt>
      <trkpt lat="43.48461" lon="6.79169">
        <ele>337</ele>
        <time>2011-06-03T10:03:13Z</time>
      </trkpt>
      <trkpt lat="43.48461" lon="6.79171">
        <ele>337</ele>
        <time>2011-06-03T10:03:14Z</time>
      </trkpt>
      <trkpt lat="43.48461" lon="6.79173">
        <ele>337</ele>
        <time>2011-06-03T10:03:15Z</time>
      </trkpt>
      <trkpt lat="43.4846" lon="6.79176">
        <ele>338</ele>
        <time>2011-06-03T10:03:16Z</time>
      </trkpt>
      <trkpt lat="43.48461" lon="6.79178">
        <ele>338</ele>
        <time>2011-06-03T10:03:17Z</time>
      </trkpt>
      <trkpt lat="43.48461" lon="6.7918">
        <ele>337</ele>
        <time>2011-06-03T10:03:18Z</time>
      </trkpt>
      <trkpt lat="43.48462" lon="6.79183">
        <ele>337</ele>
        <time>2011-06-03T10:03:19Z</time>
      </trkpt>
      <trkpt lat="43.48462" lon="6.79186">
        <ele>337</ele>
        <time>2011-06-03T10:03:20Z</time>
      </trkpt>
      <trkpt lat="43.48463" lon="6.79187">
        <ele>337</ele>
        <time>2011-06-03T10:03:21Z</time>
      </trkpt>
      <trkpt lat="43.48463" lon="6.79191">
        <ele>336</ele>
        <time>2011-06-03T10:03:22Z</time>
      </trkpt>
      <trkpt lat="43.48464" lon="6.79192">
        <ele>336</ele>
        <time>2011-06-03T10:03:23Z</time>
      </trkpt>
      <trkpt lat="43.48464" lon="6.79194">
        <ele>336</ele>
        <time>2011-06-03T10:03:24Z</time>
      </trkpt>
      <trkpt lat="43.48464" lon="6.79198">
        <ele>337</ele>
        <time>2011-06-03T10:03:25Z</time>
      </trkpt>
      <trkpt lat="43.48465" lon="6.79199">
        <ele>337</ele>
        <time>2011-06-03T10:03:26Z</time>
      </trkpt>
      <trkpt lat="43.48466" lon="6.79202">
        <ele>338</ele>
        <time>2011-06-03T10:03:27Z</time>
      </trkpt>
      <trkpt lat="43.48466" lon="6.79204">
        <ele>338</ele>
        <time>2011-06-03T10:03:28Z</time>
      </trkpt>
      <trkpt lat="43.48466" lon="6.79206">
        <ele>338</ele>
        <time>2011-06-03T10:03:29Z</time>
      </trkpt>
      <trkpt lat="43.48465" lon="6.79208">
        <ele>338</ele>
        <time>2011-06-03T10:03:30Z</time>
      </trkpt>
      <trkpt lat="43.48466" lon="6.7921">
        <ele>339</ele>
        <time>2011-06-03T10:03:31Z</time>
      </trkpt>
      <trkpt lat="43.48467" lon="6.79213">
        <ele>339</ele>
        <time>2011-06-03T10:03:32Z</time>
      </trkpt>
      <trkpt lat="43.48468" lon="6.79215">
        <ele>338</ele>
        <time>2011-06-03T10:03:33Z</time>
      </trkpt>
      <trkpt lat="43.48468" lon="6.79218">
        <ele>339</ele>
        <time>2011-06-03T10:03:34Z</time>
      </trkpt>
      <trkpt lat="43.48469" lon="6.79221">
        <ele>339</ele>
        <time>2011-06-03T10:03:35Z</time>
      </trkpt>
      <trkpt lat="43.4847" lon="6.79223">
        <ele>339</ele>
        <time>2011-06-03T10:03:36Z</time>
      </trkpt>
      <trkpt lat="43.48469" lon="6.79227">
        <ele>339</ele>
        <time>2011-06-03T10:03:37Z</time>
      </trkpt>
      <trkpt lat="43.48469" lon="6.79229">
        <ele>340</ele>
        <time>2011-06-03T10:03:38Z</time>
      </trkpt>
      <trkpt lat="43.4847" lon="6.79232">
        <ele>340</ele>
        <time>2011-06-03T10:03:39Z</time>
      </trkpt>
      <trkpt lat="43.48471" lon="6.79235">
        <ele>340</ele>
        <time>2011-06-03T10:03:40Z</time>
      </trkpt>
      <trkpt lat="43.48472" lon="6.79236">
        <ele>340</ele>
        <time>2011-06-03T10:03:41Z</time>
      </trkpt>
      <trkpt lat="43.48472" lon="6.79239">
        <ele>341</ele>
        <time>2011-06-03T10:03:42Z</time>
      </trkpt>
      <trkpt lat="43.48472" lon="6.79242">
        <ele>341</ele>
        <time>2011-06-03T10:03:43Z</time>
      </trkpt>
      <trkpt lat="43.48472" lon="6.79243">
        <ele>340</ele>
        <time>2011-06-03T10:03:44Z</time>
      </trkpt>
      <trkpt lat="43.48473" lon="6.79245">
        <ele>341</ele>
        <time>2011-06-03T10:03:45Z</time>
      </trkpt>
      <trkpt lat="43.48474" lon="6.79247">
        <ele>342</ele>
        <time>2011-06-03T10:03:46Z</time>
      </trkpt>
      <trkpt lat="43.48475" lon="6.79249">
        <ele>342</ele>
        <time>2011-06-03T10:03:47Z</time>
      </trkpt>
      <trkpt lat="43.48476" lon="6.79252">
        <ele>342</ele>
        <time>2011-06-03T10:03:48Z</time>
      </trkpt>
      <trkpt lat="43.48476" lon="6.79254">
        <ele>343</ele>
        <time>2011-06-03T10:03:49Z</time>
      </trkpt>
      <trkpt lat="43.48477" lon="6.79256">
        <ele>343</ele>
        <time>2011-06-03T10:03:50Z</time>
      </trkpt>
      <trkpt lat="43.48478" lon="6.79258">
        <ele>342</ele>
        <time>2011-06-03T10:03:51Z</time>
      </trkpt>
      <trkpt lat="43.48478" lon="6.7926">
        <ele>342</ele>
        <time>2011-06-03T10:03:52Z</time>
      </trkpt>
      <trkpt lat="43.48479" lon="6.79264">
        <ele>342</ele>
        <time>2011-06-03T10:03:53Z</time>
      </trkpt>
      <trkpt lat="43.48479" lon="6.79266">
        <ele>342</ele>
        <time>2011-06-03T10:03:54Z</time>
      </trkpt>
      <trkpt lat="43.4848" lon="6.79269">
        <ele>342</ele>
        <time>2011-06-03T10:03:55Z</time>
      </trkpt>
      <trkpt lat="43.48481" lon="6.79272">
        <ele>342</ele>
        <time>2011-06-03T10:03:56Z</time>
      </trkpt>
      <trkpt lat="43.48481" lon="6.79274">
        <ele>343</ele>
        <time>2011-06-03T10:03:57Z</time>
      </trkpt>
      <trkpt lat="43.48483" lon="6.79277">
        <ele>343</ele>
        <time>2011-06-03T10:03:58Z</time>
      </trkpt>
      <trkpt lat="43.48483" lon="6.79279">
        <ele>343</ele>
        <time>2011-06-03T10:03:59Z</time>
      </trkpt>
      <trkpt lat="43.48483" lon="6.79281">
        <ele>344</ele>
        <time>2011-06-03T10:04:00Z</time>
      </trkpt>
      <trkpt lat="43.48483" lon="6.79284">
        <ele>344</ele>
        <time>2011-06-03T10:04:01Z</time>
      </trkpt>
      <trkpt lat="43.48484" lon="6.79287">
        <ele>344</ele>
        <time>2011-06-03T10:04:03Z</time>
      </trkpt>
      <trkpt lat="43.48484" lon="6.79287">
        <ele>344</ele>
        <time>2011-06-03T10:04:03Z</time>
      </trkpt>
      <trkpt lat="43.48483" lon="6.7929">
        <ele>344</ele>
        <time>2011-06-03T10:04:04Z</time>
      </trkpt>
      <trkpt lat="43.48483" lon="6.79295">
        <ele>344</ele>
        <time>2011-06-03T10:04:05Z</time>
      </trkpt>
      <trkpt lat="43.48484" lon="6.79297">
        <ele>344</ele>
        <time>2011-06-03T10:04:06Z</time>
      </trkpt>
      <trkpt lat="43.48484" lon="6.793">
        <ele>343</ele>
        <time>2011-06-03T10:04:07Z</time>
      </trkpt>
      <trkpt lat="43.48485" lon="6.79302">
        <ele>343</ele>
        <time>2011-06-03T10:04:08Z</time>
      </trkpt>
      <trkpt lat="43.48486" lon="6.79304">
        <ele>343</ele>
        <time>2011-06-03T10:04:09Z</time>
      </trkpt>
      <trkpt lat="43.48487" lon="6.79306">
        <ele>344</ele>
        <time>2011-06-03T10:04:10Z</time>
      </trkpt>
      <trkpt lat="43.48487" lon="6.79307">
        <ele>344</ele>
        <time>2011-06-03T10:04:11Z</time>
      </trkpt>
      <trkpt lat="43.48488" lon="6.79308">
        <ele>344</ele>
        <time>2011-06-03T10:04:12Z</time>
      </trkpt>
      <trkpt lat="43.48491" lon="6.79309">
        <ele>344</ele>
        <time>2011-06-03T10:04:13Z</time>
      </trkpt>
      <trkpt lat="43.48491" lon="6.7931">
        <ele>345</ele>
        <time>2011-06-03T10:04:14Z</time>
      </trkpt>
      <trkpt lat="43.48492" lon="6.79311">
        <ele>345</ele>
        <time>2011-06-03T10:04:15Z</time>
      </trkpt>
      <trkpt lat="43.48494" lon="6.79312">
        <ele>345</ele>
        <time>2011-06-03T10:04:16Z</time>
      </trkpt>
      <trkpt lat="43.48495" lon="6.79313">
        <ele>345</ele>
        <time>2011-06-03T10:04:17Z</time>
      </trkpt>
      <trkpt lat="43.48496" lon="6.79313">
        <ele>345</ele>
        <time>2011-06-03T10:04:18Z</time>
      </trkpt>
      <trkpt lat="43.48498" lon="6.79314">
        <ele>346</ele>
        <time>2011-06-03T10:04:19Z</time>
      </trkpt>
      <trkpt lat="43.485" lon="6.79313">
        <ele>346</ele>
        <time>2011-06-03T10:04:20Z</time>
      </trkpt>
      <trkpt lat="43.48501" lon="6.79313">
        <ele>347</ele>
        <time>2011-06-03T10:04:21Z</time>
      </trkpt>
      <trkpt lat="43.48502" lon="6.79313">
        <ele>348</ele>
        <time>2011-06-03T10:04:22Z</time>
      </trkpt>
      <trkpt lat="43.48503" lon="6.79313">
        <ele>348</ele>
        <time>2011-06-03T10:04:23Z</time>
      </trkpt>
      <trkpt lat="43.48505" lon="6.79314">
        <ele>349</ele>
        <time>2011-06-03T10:04:24Z</time>
      </trkpt>
      <trkpt lat="43.48507" lon="6.79314">
        <ele>349</ele>
        <time>2011-06-03T10:04:25Z</time>
      </trkpt>
      <trkpt lat="43.48508" lon="6.79315">
        <ele>349</ele>
        <time>2011-06-03T10:04:26Z</time>
      </trkpt>
      <trkpt lat="43.48509" lon="6.79314">
        <ele>350</ele>
        <time>2011-06-03T10:04:27Z</time>
      </trkpt>
      <trkpt lat="43.48511" lon="6.79313">
        <ele>351</ele>
        <time>2011-06-03T10:04:28Z</time>
      </trkpt>
      <trkpt lat="43.48513" lon="6.79313">
        <ele>351</ele>
        <time>2011-06-03T10:04:29Z</time>
      </trkpt>
      <trkpt lat="43.48515" lon="6.79313">
        <ele>352</ele>
        <time>2011-06-03T10:04:30Z</time>
      </trkpt>
      <trkpt lat="43.48516" lon="6.79313">
        <ele>352</ele>
        <time>2011-06-03T10:04:31Z</time>
      </trkpt>
      <trkpt lat="43.48518" lon="6.79312">
        <ele>352</ele>
        <time>2011-06-03T10:04:32Z</time>
      </trkpt>
      <trkpt lat="43.48521" lon="6.79312">
        <ele>352</ele>
        <time>2011-06-03T10:04:33Z</time>
      </trkpt>
      <trkpt lat="43.48523" lon="6.79313">
        <ele>352</ele>
        <time>2011-06-03T10:04:34Z</time>
      </trkpt>
      <trkpt lat="43.48524" lon="6.79312">
        <ele>353</ele>
        <time>2011-06-03T10:04:35Z</time>
      </trkpt>
      <trkpt lat="43.48527" lon="6.79311">
        <ele>353</ele>
        <time>2011-06-03T10:04:36Z</time>
      </trkpt>
      <trkpt lat="43.48529" lon="6.7931">
        <ele>352</ele>
        <time>2011-06-03T10:04:37Z</time>
      </trkpt>
      <trkpt lat="43.48531" lon="6.7931">
        <ele>351</ele>
        <time>2011-06-03T10:04:38Z</time>
      </trkpt>
      <trkpt lat="43.48533" lon="6.7931">
        <ele>351</ele>
        <time>2011-06-03T10:04:39Z</time>
      </trkpt>
      <trkpt lat="43.48535" lon="6.79309">
        <ele>351</ele>
        <time>2011-06-03T10:04:40Z</time>
      </trkpt>
      <trkpt lat="43.48536" lon="6.79307">
        <ele>351</ele>
        <time>2011-06-03T10:04:41Z</time>
      </trkpt>
      <trkpt lat="43.48537" lon="6.79306">
        <ele>351</ele>
        <time>2011-06-03T10:04:42Z</time>
      </trkpt>
      <trkpt lat="43.48538" lon="6.79306">
        <ele>351</ele>
        <time>2011-06-03T10:04:43Z</time>
      </trkpt>
      <trkpt lat="43.48541" lon="6.79308">
        <ele>351</ele>
        <time>2011-06-03T10:04:44Z</time>
      </trkpt>
      <trkpt lat="43.48542" lon="6.7931">
        <ele>351</ele>
        <time>2011-06-03T10:04:45Z</time>
      </trkpt>
      <trkpt lat="43.48542" lon="6.79313">
        <ele>350</ele>
        <time>2011-06-03T10:04:46Z</time>
      </trkpt>
      <trkpt lat="43.48539" lon="6.79318">
        <ele>351</ele>
        <time>2011-06-03T10:04:47Z</time>
      </trkpt>
      <trkpt lat="43.48539" lon="6.7932">
        <ele>352</ele>
        <time>2011-06-03T10:04:48Z</time>
      </trkpt>
      <trkpt lat="43.48539" lon="6.79324">
        <ele>352</ele>
        <time>2011-06-03T10:04:49Z</time>
      </trkpt>
      <trkpt lat="43.48539" lon="6.79326">
        <ele>353</ele>
        <time>2011-06-03T10:04:50Z</time>
      </trkpt>
      <trkpt lat="43.48539" lon="6.79327">
        <ele>353</ele>
        <time>2011-06-03T10:04:51Z</time>
      </trkpt>
      <trkpt lat="43.4854" lon="6.79328">
        <ele>353</ele>
        <time>2011-06-03T10:04:52Z</time>
      </trkpt>
      <trkpt lat="43.48542" lon="6.7933">
        <ele>353</ele>
        <time>2011-06-03T10:04:53Z</time>
      </trkpt>
      <trkpt lat="43.48544" lon="6.79331">
        <ele>354</ele>
        <time>2011-06-03T10:04:54Z</time>
      </trkpt>
      <trkpt lat="43.48545" lon="6.79333">
        <ele>354</ele>
        <time>2011-06-03T10:04:55Z</time>
      </trkpt>
      <trkpt lat="43.48547" lon="6.79335">
        <ele>354</ele>
        <time>2011-06-03T10:04:56Z</time>
      </trkpt>
      <trkpt lat="43.48549" lon="6.79337">
        <ele>355</ele>
        <time>2011-06-03T10:04:57Z</time>
      </trkpt>
      <trkpt lat="43.4855" lon="6.79339">
        <ele>354</ele>
        <time>2011-06-03T10:04:58Z</time>
      </trkpt>
      <trkpt lat="43.48551" lon="6.7934">
        <ele>355</ele>
        <time>2011-06-03T10:04:59Z</time>
      </trkpt>
      <trkpt lat="43.48553" lon="6.79341">
        <ele>355</ele>
        <time>2011-06-03T10:05:00Z</time>
      </trkpt>
      <trkpt lat="43.48554" lon="6.79343">
        <ele>355</ele>
        <time>2011-06-03T10:05:01Z</time>
      </trkpt>
      <trkpt lat="43.48556" lon="6.79345">
        <ele>357</ele>
        <time>2011-06-03T10:05:02Z</time>
      </trkpt>
      <trkpt lat="43.48558" lon="6.79347">
        <ele>360</ele>
        <time>2011-06-03T10:05:03Z</time>
      </trkpt>
      <trkpt lat="43.48559" lon="6.79348">
        <ele>361</ele>
        <time>2011-06-03T10:05:04Z</time>
      </trkpt>
      <trkpt lat="43.48561" lon="6.7935">
        <ele>361</ele>
        <time>2011-06-03T10:05:05Z</time>
      </trkpt>
      <trkpt lat="43.48562" lon="6.7935">
        <ele>361</ele>
        <time>2011-06-03T10:05:06Z</time>
      </trkpt>
      <trkpt lat="43.48564" lon="6.79353">
        <ele>361</ele>
        <time>2011-06-03T10:05:07Z</time>
      </trkpt>
      <trkpt lat="43.48565" lon="6.79355">
        <ele>361</ele>
        <time>2011-06-03T10:05:08Z</time>
      </trkpt>
      <trkpt lat="43.48567" lon="6.79356">
        <ele>361</ele>
        <time>2011-06-03T10:05:09Z</time>
      </trkpt>
      <trkpt lat="43.48568" lon="6.79358">
        <ele>361</ele>
        <time>2011-06-03T10:05:10Z</time>
      </trkpt>
      <trkpt lat="43.48569" lon="6.79359">
        <ele>361</ele>
        <time>2011-06-03T10:05:11Z</time>
      </trkpt>
      <trkpt lat="43.48571" lon="6.79361">
        <ele>361</ele>
        <time>2011-06-03T10:05:12Z</time>
      </trkpt>
      <trkpt lat="43.48572" lon="6.79363">
        <ele>361</ele>
        <time>2011-06-03T10:05:13Z</time>
      </trkpt>
      <trkpt lat="43.48574" lon="6.79364">
        <ele>361</ele>
        <time>2011-06-03T10:05:14Z</time>
      </trkpt>
      <trkpt lat="43.48575" lon="6.79365">
        <ele>361</ele>
        <time>2011-06-03T10:05:15Z</time>
      </trkpt>
      <trkpt lat="43.48576" lon="6.79366">
        <ele>360</ele>
        <time>2011-06-03T10:05:16Z</time>
      </trkpt>
      <trkpt lat="43.48577" lon="6.79368">
        <ele>361</ele>
        <time>2011-06-03T10:05:17Z</time>
      </trkpt>
      <trkpt lat="43.48579" lon="6.79369">
        <ele>362</ele>
        <time>2011-06-03T10:05:18Z</time>
      </trkpt>
      <trkpt lat="43.4858" lon="6.7937">
        <ele>363</ele>
        <time>2011-06-03T10:05:19Z</time>
      </trkpt>
      <trkpt lat="43.48581" lon="6.79371">
        <ele>363</ele>
        <time>2011-06-03T10:05:20Z</time>
      </trkpt>
      <trkpt lat="43.48582" lon="6.79372">
        <ele>363</ele>
        <time>2011-06-03T10:05:21Z</time>
      </trkpt>
      <trkpt lat="43.48584" lon="6.79374">
        <ele>364</ele>
        <time>2011-06-03T10:05:22Z</time>
      </trkpt>
      <trkpt lat="43.48586" lon="6.79374">
        <ele>364</ele>
        <time>2011-06-03T10:05:23Z</time>
      </trkpt>
      <trkpt lat="43.48587" lon="6.79375">
        <ele>364</ele>
        <time>2011-06-03T10:05:24Z</time>
      </trkpt>
      <trkpt lat="43.48588" lon="6.79375">
        <ele>364</ele>
        <time>2011-06-03T10:05:25Z</time>
      </trkpt>
      <trkpt lat="43.48589" lon="6.79376">
        <ele>364</ele>
        <time>2011-06-03T10:05:26Z</time>
      </trkpt>
      <trkpt lat="43.48591" lon="6.79376">
        <ele>364</ele>
        <time>2011-06-03T10:05:27Z</time>
      </trkpt>
      <trkpt lat="43.48593" lon="6.79376">
        <ele>365</ele>
        <time>2011-06-03T10:05:28Z</time>
      </trkpt>
      <trkpt lat="43.48594" lon="6.79377">
        <ele>365</ele>
        <time>2011-06-03T10:05:29Z</time>
      </trkpt>
      <trkpt lat="43.48595" lon="6.79378">
        <ele>365</ele>
        <time>2011-06-03T10:05:30Z</time>
      </trkpt>
      <trkpt lat="43.48596" lon="6.7938">
        <ele>366</ele>
        <time>2011-06-03T10:05:31Z</time>
      </trkpt>
      <trkpt lat="43.48598" lon="6.79382">
        <ele>366</ele>
        <time>2011-06-03T10:05:32Z</time>
      </trkpt>
      <trkpt lat="43.486" lon="6.79383">
        <ele>366</ele>
        <time>2011-06-03T10:05:33Z</time>
      </trkpt>
      <trkpt lat="43.48601" lon="6.79384">
        <ele>366</ele>
        <time>2011-06-03T10:05:34Z</time>
      </trkpt>
      <trkpt lat="43.48603" lon="6.79385">
        <ele>367</ele>
        <time>2011-06-03T10:05:35Z</time>
      </trkpt>
      <trkpt lat="43.48605" lon="6.79386">
        <ele>366</ele>
        <time>2011-06-03T10:05:36Z</time>
      </trkpt>
      <trkpt lat="43.48608" lon="6.79386">
        <ele>366</ele>
        <time>2011-06-03T10:05:37Z</time>
      </trkpt>
      <trkpt lat="43.4861" lon="6.79387">
        <ele>367</ele>
        <time>2011-06-03T10:05:38Z</time>
      </trkpt>
      <trkpt lat="43.48612" lon="6.79389">
        <ele>367</ele>
        <time>2011-06-03T10:05:39Z</time>
      </trkpt>
      <trkpt lat="43.48613" lon="6.79389">
        <ele>367</ele>
        <time>2011-06-03T10:05:40Z</time>
      </trkpt>
      <trkpt lat="43.48615" lon="6.79389">
        <ele>367</ele>
        <time>2011-06-03T10:05:41Z</time>
      </trkpt>
      <trkpt lat="43.48617" lon="6.7939">
        <ele>367</ele>
        <time>2011-06-03T10:05:42Z</time>
      </trkpt>
      <trkpt lat="43.48619" lon="6.79391">
        <ele>367</ele>
        <time>2011-06-03T10:05:43Z</time>
      </trkpt>
      <trkpt lat="43.48621" lon="6.79393">
        <ele>368</ele>
        <time>2011-06-03T10:05:44Z</time>
      </trkpt>
      <trkpt lat="43.48623" lon="6.79393">
        <ele>368</ele>
        <time>2011-06-03T10:05:45Z</time>
      </trkpt>
      <trkpt lat="43.48625" lon="6.79393">
        <ele>368</ele>
        <time>2011-06-03T10:05:46Z</time>
      </trkpt>
      <trkpt lat="43.48627" lon="6.79393">
        <ele>367</ele>
        <time>2011-06-03T10:05:47Z</time>
      </trkpt>
      <trkpt lat="43.48627" lon="6.79394">
        <ele>368</ele>
        <time>2011-06-03T10:05:48Z</time>
      </trkpt>
      <trkpt lat="43.48628" lon="6.79394">
        <ele>367</ele>
        <time>2011-06-03T10:05:49Z</time>
      </trkpt>
      <trkpt lat="43.48629" lon="6.79394">
        <ele>368</ele>
        <time>2011-06-03T10:05:50Z</time>
      </trkpt>
      <trkpt lat="43.48632" lon="6.79395">
        <ele>368</ele>
        <time>2011-06-03T10:05:51Z</time>
      </trkpt>
      <trkpt lat="43.48634" lon="6.79395">
        <ele>368</ele>
        <time>2011-06-03T10:05:52Z</time>
      </trkpt>
      <trkpt lat="43.48635" lon="6.79396">
        <ele>368</ele>
        <time>2011-06-03T10:05:53Z</time>
      </trkpt>
      <trkpt lat="43.48637" lon="6.79396">
        <ele>369</ele>
        <time>2011-06-03T10:05:54Z</time>
      </trkpt>
      <trkpt lat="43.48639" lon="6.79397">
        <ele>369</ele>
        <time>2011-06-03T10:05:55Z</time>
      </trkpt>
      <trkpt lat="43.4864" lon="6.79397">
        <ele>370</ele>
        <time>2011-06-03T10:05:56Z</time>
      </trkpt>
      <trkpt lat="43.48641" lon="6.79397">
        <ele>371</ele>
        <time>2011-06-03T10:05:57Z</time>
      </trkpt>
      <trkpt lat="43.48642" lon="6.79397">
        <ele>371</ele>
        <time>2011-06-03T10:05:58Z</time>
      </trkpt>
      <trkpt lat="43.48644" lon="6.79396">
        <ele>371</ele>
        <time>2011-06-03T10:05:59Z</time>
      </trkpt>
      <trkpt lat="43.48646" lon="6.79395">
        <ele>370</ele>
        <time>2011-06-03T10:06:00Z</time>
      </trkpt>
      <trkpt lat="43.48648" lon="6.79395">
        <ele>370</ele>
        <time>2011-06-03T10:06:01Z</time>
      </trkpt>
      <trkpt lat="43.4865" lon="6.79394">
        <ele>370</ele>
        <time>2011-06-03T10:06:02Z</time>
      </trkpt>
      <trkpt lat="43.48652" lon="6.79394">
        <ele>370</ele>
        <time>2011-06-03T10:06:03Z</time>
      </trkpt>
      <trkpt lat="43.48654" lon="6.79394">
        <ele>370</ele>
        <time>2011-06-03T10:06:04Z</time>
      </trkpt>
      <trkpt lat="43.48655" lon="6.79394">
        <ele>370</ele>
        <time>2011-06-03T10:06:05Z</time>
      </trkpt>
      <trkpt lat="43.48657" lon="6.79394">
        <ele>370</ele>
        <time>2011-06-03T10:06:06Z</time>
      </trkpt>
      <trkpt lat="43.48657" lon="6.79393">
        <ele>369</ele>
        <time>2011-06-03T10:06:07Z</time>
      </trkpt>
      <trkpt lat="43.48659" lon="6.79393">
        <ele>369</ele>
        <time>2011-06-03T10:06:08Z</time>
      </trkpt>
      <trkpt lat="43.48661" lon="6.79394">
        <ele>369</ele>
        <time>2011-06-03T10:06:09Z</time>
      </trkpt>
      <trkpt lat="43.48662" lon="6.79394">
        <ele>369</ele>
        <time>2011-06-03T10:06:10Z</time>
      </trkpt>
      <trkpt lat="43.48664" lon="6.79394">
        <ele>369</ele>
        <time>2011-06-03T10:06:11Z</time>
      </trkpt>
      <trkpt lat="43.48665" lon="6.79394">
        <ele>369</ele>
        <time>2011-06-03T10:06:12Z</time>
      </trkpt>
      <trkpt lat="43.48667" lon="6.79395">
        <ele>369</ele>
        <time>2011-06-03T10:06:13Z</time>
      </trkpt>
      <trkpt lat="43.48669" lon="6.79395">
        <ele>369</ele>
        <time>2011-06-03T10:06:14Z</time>
      </trkpt>
      <trkpt lat="43.48671" lon="6.79395">
        <ele>369</ele>
        <time>2011-06-03T10:06:15Z</time>
      </trkpt>
      <trkpt lat="43.48672" lon="6.79394">
        <ele>369</ele>
        <time>2011-06-03T10:06:16Z</time>
      </trkpt>
      <trkpt lat="43.48676" lon="6.79394">
        <ele>369</ele>
        <time>2011-06-03T10:06:17Z</time>
      </trkpt>
      <trkpt lat="43.48677" lon="6.79393">
        <ele>368</ele>
        <time>2011-06-03T10:06:18Z</time>
      </trkpt>
      <trkpt lat="43.48678" lon="6.79392">
        <ele>367</ele>
        <time>2011-06-03T10:06:19Z</time>
      </trkpt>
      <trkpt lat="43.4868" lon="6.79392">
        <ele>367</ele>
        <time>2011-06-03T10:06:20Z</time>
      </trkpt>
      <trkpt lat="43.48682" lon="6.79391">
        <ele>366</ele>
        <time>2011-06-03T10:06:21Z</time>
      </trkpt>
      <trkpt lat="43.48684" lon="6.7939">
        <ele>366</ele>
        <time>2011-06-03T10:06:22Z</time>
      </trkpt>
      <trkpt lat="43.48685" lon="6.79389">
        <ele>366</ele>
        <time>2011-06-03T10:06:23Z</time>
      </trkpt>
      <trkpt lat="43.48688" lon="6.79388">
        <ele>366</ele>
        <time>2011-06-03T10:06:24Z</time>
      </trkpt>
      <trkpt lat="43.48691" lon="6.79388">
        <ele>367</ele>
        <time>2011-06-03T10:06:25Z</time>
      </trkpt>
      <trkpt lat="43.48693" lon="6.79387">
        <ele>367</ele>
        <time>2011-06-03T10:06:26Z</time>
      </trkpt>
      <trkpt lat="43.48694" lon="6.79386">
        <ele>367</ele>
        <time>2011-06-03T10:06:27Z</time>
      </trkpt>
      <trkpt lat="43.48696" lon="6.79386">
        <ele>367</ele>
        <time>2011-06-03T10:06:28Z</time>
      </trkpt>
      <trkpt lat="43.48698" lon="6.79385">
        <ele>367</ele>
        <time>2011-06-03T10:06:29Z</time>
      </trkpt>
      <trkpt lat="43.487" lon="6.79384">
        <ele>367</ele>
        <time>2011-06-03T10:06:30Z</time>
      </trkpt>
      <trkpt lat="43.48701" lon="6.79382">
        <ele>366</ele>
        <time>2011-06-03T10:06:31Z</time>
      </trkpt>
      <trkpt lat="43.48704" lon="6.79382">
        <ele>367</ele>
        <time>2011-06-03T10:06:32Z</time>
      </trkpt>
      <trkpt lat="43.48705" lon="6.7938">
        <ele>367</ele>
        <time>2011-06-03T10:06:33Z</time>
      </trkpt>
      <trkpt lat="43.48707" lon="6.7938">
        <ele>367</ele>
        <time>2011-06-03T10:06:34Z</time>
      </trkpt>
      <trkpt lat="43.48708" lon="6.7938">
        <ele>367</ele>
        <time>2011-06-03T10:06:35Z</time>
      </trkpt>
      <trkpt lat="43.48709" lon="6.79379">
        <ele>367</ele>
        <time>2011-06-03T10:06:36Z</time>
      </trkpt>
      <trkpt lat="43.48711" lon="6.79377">
        <ele>368</ele>
        <time>2011-06-03T10:06:37Z</time>
      </trkpt>
      <trkpt lat="43.48713" lon="6.79376">
        <ele>368</ele>
        <time>2011-06-03T10:06:38Z</time>
      </trkpt>
      <trkpt lat="43.48714" lon="6.79375">
        <ele>368</ele>
        <time>2011-06-03T10:06:39Z</time>
      </trkpt>
      <trkpt lat="43.48716" lon="6.79375">
        <ele>368</ele>
        <time>2011-06-03T10:06:40Z</time>
      </trkpt>
      <trkpt lat="43.48719" lon="6.79374">
        <ele>368</ele>
        <time>2011-06-03T10:06:41Z</time>
      </trkpt>
      <trkpt lat="43.48719" lon="6.79373">
        <ele>368</ele>
        <time>2011-06-03T10:06:42Z</time>
      </trkpt>
      <trkpt lat="43.4872" lon="6.79372">
        <ele>368</ele>
        <time>2011-06-03T10:06:43Z</time>
      </trkpt>
      <trkpt lat="43.48721" lon="6.7937">
        <ele>368</ele>
        <time>2011-06-03T10:06:44Z</time>
      </trkpt>
      <trkpt lat="43.48723" lon="6.79369">
        <ele>368</ele>
        <time>2011-06-03T10:06:45Z</time>
      </trkpt>
      <trkpt lat="43.48725" lon="6.79368">
        <ele>368</ele>
        <time>2011-06-03T10:06:46Z</time>
      </trkpt>
      <trkpt lat="43.48728" lon="6.79366">
        <ele>366</ele>
        <time>2011-06-03T10:06:47Z</time>
      </trkpt>
      <trkpt lat="43.48729" lon="6.79364">
        <ele>367</ele>
        <time>2011-06-03T10:06:48Z</time>
      </trkpt>
      <trkpt lat="43.48731" lon="6.79362">
        <ele>367</ele>
        <time>2011-06-03T10:06:49Z</time>
      </trkpt>
      <trkpt lat="43.48733" lon="6.79361">
        <ele>368</ele>
        <time>2011-06-03T10:06:50Z</time>
      </trkpt>
      <trkpt lat="43.48734" lon="6.79358">
        <ele>368</ele>
        <time>2011-06-03T10:06:51Z</time>
      </trkpt>
      <trkpt lat="43.48735" lon="6.79357">
        <ele>368</ele>
        <time>2011-06-03T10:06:52Z</time>
      </trkpt>
      <trkpt lat="43.48736" lon="6.79356">
        <ele>369</ele>
        <time>2011-06-03T10:06:53Z</time>
      </trkpt>
      <trkpt lat="43.48737" lon="6.79355">
        <ele>370</ele>
        <time>2011-06-03T10:06:54Z</time>
      </trkpt>
      <trkpt lat="43.48738" lon="6.79353">
        <ele>370</ele>
        <time>2011-06-03T10:06:55Z</time>
      </trkpt>
      <trkpt lat="43.48739" lon="6.7935">
        <ele>371</ele>
        <time>2011-06-03T10:06:56Z</time>
      </trkpt>
      <trkpt lat="43.4874" lon="6.79349">
        <ele>371</ele>
        <time>2011-06-03T10:06:57Z</time>
      </trkpt>
      <trkpt lat="43.48741" lon="6.79347">
        <ele>371</ele>
        <time>2011-06-03T10:06:58Z</time>
      </trkpt>
      <trkpt lat="43.48742" lon="6.79345">
        <ele>372</ele>
        <time>2011-06-03T10:06:59Z</time>
      </trkpt>
      <trkpt lat="43.48742" lon="6.79342">
        <ele>372</ele>
        <time>2011-06-03T10:07:00Z</time>
      </trkpt>
      <trkpt lat="43.48742" lon="6.79342">
        <ele>373</ele>
        <time>2011-06-03T10:07:01Z</time>
      </trkpt>
      <trkpt lat="43.48743" lon="6.7934">
        <ele>373</ele>
        <time>2011-06-03T10:07:02Z</time>
      </trkpt>
      <trkpt lat="43.48744" lon="6.79338">
        <ele>373</ele>
        <time>2011-06-03T10:07:03Z</time>
      </trkpt>
      <trkpt lat="43.48745" lon="6.79336">
        <ele>373</ele>
        <time>2011-06-03T10:07:04Z</time>
      </trkpt>
      <trkpt lat="43.48746" lon="6.79334">
        <ele>374</ele>
        <time>2011-06-03T10:07:05Z</time>
      </trkpt>
      <trkpt lat="43.48749" lon="6.79333">
        <ele>374</ele>
        <time>2011-06-03T10:07:06Z</time>
      </trkpt>
      <trkpt lat="43.4875" lon="6.79331">
        <ele>374</ele>
        <time>2011-06-03T10:07:07Z</time>
      </trkpt>
      <trkpt lat="43.48751" lon="6.79329">
        <ele>375</ele>
        <time>2011-06-03T10:07:08Z</time>
      </trkpt>
      <trkpt lat="43.48753" lon="6.79327">
        <ele>375</ele>
        <time>2011-06-03T10:07:09Z</time>
      </trkpt>
      <trkpt lat="43.48753" lon="6.79324">
        <ele>376</ele>
        <time>2011-06-03T10:07:10Z</time>
      </trkpt>
      <trkpt lat="43.48754" lon="6.79322">
        <ele>377</ele>
        <time>2011-06-03T10:07:11Z</time>
      </trkpt>
      <trkpt lat="43.48753" lon="6.7932">
        <ele>379</ele>
        <time>2011-06-03T10:07:12Z</time>
      </trkpt>
      <trkpt lat="43.48755" lon="6.79318">
        <ele>379</ele>
        <time>2011-06-03T10:07:13Z</time>
      </trkpt>
      <trkpt lat="43.48756" lon="6.79316">
        <ele>381</ele>
        <time>2011-06-03T10:07:14Z</time>
      </trkpt>
      <trkpt lat="43.48756" lon="6.79313">
        <ele>380</ele>
        <time>2011-06-03T10:07:15Z</time>
      </trkpt>
      <trkpt lat="43.48755" lon="6.79311">
        <ele>381</ele>
        <time>2011-06-03T10:07:16Z</time>
      </trkpt>
      <trkpt lat="43.48756" lon="6.79309">
        <ele>381</ele>
        <time>2011-06-03T10:07:17Z</time>
      </trkpt>
      <trkpt lat="43.48756" lon="6.79306">
        <ele>381</ele>
        <time>2011-06-03T10:07:18Z</time>
      </trkpt>
      <trkpt lat="43.48756" lon="6.79304">
        <ele>381</ele>
        <time>2011-06-03T10:07:19Z</time>
      </trkpt>
      <trkpt lat="43.48756" lon="6.79302">
        <ele>381</ele>
        <time>2011-06-03T10:07:20Z</time>
      </trkpt>
      <trkpt lat="43.48757" lon="6.79302">
        <ele>381</ele>
        <time>2011-06-03T10:07:21Z</time>
      </trkpt>
      <trkpt lat="43.48759" lon="6.79303">
        <ele>381</ele>
        <time>2011-06-03T10:07:22Z</time>
      </trkpt>
      <trkpt lat="43.4876" lon="6.79304">
        <ele>381</ele>
        <time>2011-06-03T10:07:23Z</time>
      </trkpt>
      <trkpt lat="43.48762" lon="6.79308">
        <ele>383</ele>
        <time>2011-06-03T10:07:24Z</time>
      </trkpt>
      <trkpt lat="43.48764" lon="6.79309">
        <ele>383</ele>
        <time>2011-06-03T10:07:25Z</time>
      </trkpt>
      <trkpt lat="43.48765" lon="6.79311">
        <ele>383</ele>
        <time>2011-06-03T10:07:26Z</time>
      </trkpt>
      <trkpt lat="43.48767" lon="6.79312">
        <ele>383</ele>
        <time>2011-06-03T10:07:27Z</time>
      </trkpt>
      <trkpt lat="43.48768" lon="6.79312">
        <ele>382</ele>
        <time>2011-06-03T10:07:28Z</time>
      </trkpt>
      <trkpt lat="43.4877" lon="6.79311">
        <ele>383</ele>
        <time>2011-06-03T10:07:29Z</time>
      </trkpt>
      <trkpt lat="43.48772" lon="6.79312">
        <ele>384</ele>
        <time>2011-06-03T10:07:30Z</time>
      </trkpt>
      <trkpt lat="43.48773" lon="6.79314">
        <ele>384</ele>
        <time>2011-06-03T10:07:31Z</time>
      </trkpt>
      <trkpt lat="43.48774" lon="6.79316">
        <ele>384</ele>
        <time>2011-06-03T10:07:32Z</time>
      </trkpt>
      <trkpt lat="43.48775" lon="6.79318">
        <ele>385</ele>
        <time>2011-06-03T10:07:33Z</time>
      </trkpt>
      <trkpt lat="43.48774" lon="6.79321">
        <ele>384</ele>
        <time>2011-06-03T10:07:34Z</time>
      </trkpt>
      <trkpt lat="43.48774" lon="6.79323">
        <ele>385</ele>
        <time>2011-06-03T10:07:35Z</time>
      </trkpt>
      <trkpt lat="43.48774" lon="6.79326">
        <ele>384</ele>
        <time>2011-06-03T10:07:36Z</time>
      </trkpt>
      <trkpt lat="43.48774" lon="6.79328">
        <ele>384</ele>
        <time>2011-06-03T10:07:37Z</time>
      </trkpt>
      <trkpt lat="43.48775" lon="6.7933">
        <ele>384</ele>
        <time>2011-06-03T10:07:38Z</time>
      </trkpt>
      <trkpt lat="43.48777" lon="6.79332">
        <ele>385</ele>
        <time>2011-06-03T10:07:39Z</time>
      </trkpt>
      <trkpt lat="43.48778" lon="6.79335">
        <ele>385</ele>
        <time>2011-06-03T10:07:40Z</time>
      </trkpt>
      <trkpt lat="43.4878" lon="6.79338">
        <ele>386</ele>
        <time>2011-06-03T10:07:41Z</time>
      </trkpt>
      <trkpt lat="43.4878" lon="6.7934">
        <ele>386</ele>
        <time>2011-06-03T10:07:42Z</time>
      </trkpt>
      <trkpt lat="43.48782" lon="6.79342">
        <ele>387</ele>
        <time>2011-06-03T10:07:43Z</time>
      </trkpt>
      <trkpt lat="43.48783" lon="6.79345">
        <ele>388</ele>
        <time>2011-06-03T10:07:44Z</time>
      </trkpt>
      <trkpt lat="43.48784" lon="6.79347">
        <ele>388</ele>
        <time>2011-06-03T10:07:45Z</time>
      </trkpt>
      <trkpt lat="43.48785" lon="6.79349">
        <ele>388</ele>
        <time>2011-06-03T10:07:46Z</time>
      </trkpt>
      <trkpt lat="43.48786" lon="6.79352">
        <ele>389</ele>
        <time>2011-06-03T10:07:47Z</time>
      </trkpt>
      <trkpt lat="43.48786" lon="6.79353">
        <ele>389</ele>
        <time>2011-06-03T10:07:48Z</time>
      </trkpt>
      <trkpt lat="43.48787" lon="6.79355">
        <ele>389</ele>
        <time>2011-06-03T10:07:49Z</time>
      </trkpt>
      <trkpt lat="43.48788" lon="6.79357">
        <ele>389</ele>
        <time>2011-06-03T10:07:50Z</time>
      </trkpt>
      <trkpt lat="43.48789" lon="6.79359">
        <ele>389</ele>
        <time>2011-06-03T10:07:51Z</time>
      </trkpt>
      <trkpt lat="43.48789" lon="6.79361">
        <ele>389</ele>
        <time>2011-06-03T10:07:52Z</time>
      </trkpt>
      <trkpt lat="43.4879" lon="6.79364">
        <ele>389</ele>
        <time>2011-06-03T10:07:53Z</time>
      </trkpt>
      <trkpt lat="43.48791" lon="6.79366">
        <ele>389</ele>
        <time>2011-06-03T10:07:54Z</time>
      </trkpt>
      <trkpt lat="43.48792" lon="6.79369">
        <ele>389</ele>
        <time>2011-06-03T10:07:55Z</time>
      </trkpt>
      <trkpt lat="43.48793" lon="6.79371">
        <ele>388</ele>
        <time>2011-06-03T10:07:56Z</time>
      </trkpt>
      <trkpt lat="43.48793" lon="6.79373">
        <ele>389</ele>
        <time>2011-06-03T10:07:57Z</time>
      </trkpt>
      <trkpt lat="43.48794" lon="6.79375">
        <ele>388</ele>
        <time>2011-06-03T10:07:58Z</time>
      </trkpt>
      <trkpt lat="43.48794" lon="6.79378">
        <ele>388</ele>
        <time>2011-06-03T10:07:59Z</time>
      </trkpt>
      <trkpt lat="43.48794" lon="6.7938">
        <ele>388</ele>
        <time>2011-06-03T10:08:00Z</time>
      </trkpt>
      <trkpt lat="43.48794" lon="6.79382">
        <ele>389</ele>
        <time>2011-06-03T10:08:01Z</time>
      </trkpt>
      <trkpt lat="43.48795" lon="6.79386">
        <ele>390</ele>
        <time>2011-06-03T10:08:02Z</time>
      </trkpt>
      <trkpt lat="43.48794" lon="6.79389">
        <ele>390</ele>
        <time>2011-06-03T10:08:03Z</time>
      </trkpt>
      <trkpt lat="43.48795" lon="6.79391">
        <ele>388</ele>
        <time>2011-06-03T10:08:04Z</time>
      </trkpt>
      <trkpt lat="43.48797" lon="6.79394">
        <ele>388</ele>
        <time>2011-06-03T10:08:05Z</time>
      </trkpt>
      <trkpt lat="43.48797" lon="6.79397">
        <ele>388</ele>
        <time>2011-06-03T10:08:06Z</time>
      </trkpt>
      <trkpt lat="43.48799" lon="6.79399">
        <ele>388</ele>
        <time>2011-06-03T10:08:07Z</time>
      </trkpt>
      <trkpt lat="43.48799" lon="6.79401">
        <ele>388</ele>
        <time>2011-06-03T10:08:08Z</time>
      </trkpt>
      <trkpt lat="43.488" lon="6.79403">
        <ele>388</ele>
        <time>2011-06-03T10:08:09Z</time>
      </trkpt>
      <trkpt lat="43.488" lon="6.79407">
        <ele>388</ele>
        <time>2011-06-03T10:08:10Z</time>
      </trkpt>
      <trkpt lat="43.488" lon="6.79409">
        <ele>388</ele>
        <time>2011-06-03T10:08:11Z</time>
      </trkpt>
      <trkpt lat="43.48799" lon="6.79411">
        <ele>388</ele>
        <time>2011-06-03T10:08:12Z</time>
      </trkpt>
      <trkpt lat="43.488" lon="6.79415">
        <ele>388</ele>
        <time>2011-06-03T10:08:13Z</time>
      </trkpt>
      <trkpt lat="43.48801" lon="6.79416">
        <ele>388</ele>
        <time>2011-06-03T10:08:14Z</time>
      </trkpt>
      <trkpt lat="43.48801" lon="6.79419">
        <ele>388</ele>
        <time>2011-06-03T10:08:15Z</time>
      </trkpt>
      <trkpt lat="43.48801" lon="6.79421">
        <ele>388</ele>
        <time>2011-06-03T10:08:16Z</time>
      </trkpt>
      <trkpt lat="43.48802" lon="6.79424">
        <ele>388</ele>
        <time>2011-06-03T10:08:17Z</time>
      </trkpt>
      <trkpt lat="43.48801" lon="6.79427">
        <ele>389</ele>
        <time>2011-06-03T10:08:18Z</time>
      </trkpt>
      <trkpt lat="43.48801" lon="6.79429">
        <ele>389</ele>
        <time>2011-06-03T10:08:19Z</time>
      </trkpt>
      <trkpt lat="43.48802" lon="6.79432">
        <ele>390</ele>
        <time>2011-06-03T10:08:20Z</time>
      </trkpt>
      <trkpt lat="43.48802" lon="6.79435">
        <ele>391</ele>
        <time>2011-06-03T10:08:21Z</time>
      </trkpt>
      <trkpt lat="43.48802" lon="6.79437">
        <ele>391</ele>
        <time>2011-06-03T10:08:22Z</time>
      </trkpt>
      <trkpt lat="43.48802" lon="6.79441">
        <ele>392</ele>
        <time>2011-06-03T10:08:23Z</time>
      </trkpt>
      <trkpt lat="43.48802" lon="6.79443">
        <ele>393</ele>
        <time>2011-06-03T10:08:24Z</time>
      </trkpt>
      <trkpt lat="43.48802" lon="6.79445">
        <ele>393</ele>
        <time>2011-06-03T10:08:25Z</time>
      </trkpt>
      <trkpt lat="43.48802" lon="6.79448">
        <ele>393</ele>
        <time>2011-06-03T10:08:26Z</time>
      </trkpt>
      <trkpt lat="43.48802" lon="6.79451">
        <ele>393</ele>
        <time>2011-06-03T10:08:27Z</time>
      </trkpt>
      <trkpt lat="43.48802" lon="6.79453">
        <ele>393</ele>
        <time>2011-06-03T10:08:28Z</time>
      </trkpt>
      <trkpt lat="43.48803" lon="6.79455">
        <ele>393</ele>
        <time>2011-06-03T10:08:29Z</time>
      </trkpt>
      <trkpt lat="43.48803" lon="6.79458">
        <ele>394</ele>
        <time>2011-06-03T10:08:30Z</time>
      </trkpt>
      <trkpt lat="43.48803" lon="6.79461">
        <ele>393</ele>
        <time>2011-06-03T10:08:31Z</time>
      </trkpt>
      <trkpt lat="43.48802" lon="6.79463">
        <ele>394</ele>
        <time>2011-06-03T10:08:32Z</time>
      </trkpt>
      <trkpt lat="43.48801" lon="6.79466">
        <ele>394</ele>
        <time>2011-06-03T10:08:33Z</time>
      </trkpt>
      <trkpt lat="43.488" lon="6.79468">
        <ele>394</ele>
        <time>2011-06-03T10:08:34Z</time>
      </trkpt>
      <trkpt lat="43.48801" lon="6.79471">
        <ele>393</ele>
        <time>2011-06-03T10:08:35Z</time>
      </trkpt>
      <trkpt lat="43.48801" lon="6.79474">
        <ele>393</ele>
        <time>2011-06-03T10:08:36Z</time>
      </trkpt>
      <trkpt lat="43.48801" lon="6.79476">
        <ele>393</ele>
        <time>2011-06-03T10:08:37Z</time>
      </trkpt>
      <trkpt lat="43.488" lon="6.7948">
        <ele>393</ele>
        <time>2011-06-03T10:08:38Z</time>
      </trkpt>
      <trkpt lat="43.488" lon="6.79483">
        <ele>393</ele>
        <time>2011-06-03T10:08:39Z</time>
      </trkpt>
      <trkpt lat="43.488" lon="6.79486">
        <ele>393</ele>
        <time>2011-06-03T10:08:40Z</time>
      </trkpt>
      <trkpt lat="43.488" lon="6.79488">
        <ele>393</ele>
        <time>2011-06-03T10:08:41Z</time>
      </trkpt>
      <trkpt lat="43.488" lon="6.79492">
        <ele>393</ele>
        <time>2011-06-03T10:08:42Z</time>
      </trkpt>
      <trkpt lat="43.488" lon="6.79494">
        <ele>394</ele>
        <time>2011-06-03T10:08:43Z</time>
      </trkpt>
      <trkpt lat="43.488" lon="6.79497">
        <ele>394</ele>
        <time>2011-06-03T10:08:44Z</time>
      </trkpt>
      <trkpt lat="43.488" lon="6.795">
        <ele>395</ele>
        <time>2011-06-03T10:08:45Z</time>
      </trkpt>
      <trkpt lat="43.48799" lon="6.79503">
        <ele>395</ele>
        <time>2011-06-03T10:08:46Z</time>
      </trkpt>
      <trkpt lat="43.48799" lon="6.79505">
        <ele>396</ele>
        <time>2011-06-03T10:08:47Z</time>
      </trkpt>
      <trkpt lat="43.48799" lon="6.79508">
        <ele>396</ele>
        <time>2011-06-03T10:08:48Z</time>
      </trkpt>
      <trkpt lat="43.48799" lon="6.7951">
        <ele>398</ele>
        <time>2011-06-03T10:08:49Z</time>
      </trkpt>
      <trkpt lat="43.48799" lon="6.79513">
        <ele>399</ele>
        <time>2011-06-03T10:08:50Z</time>
      </trkpt>
      <trkpt lat="43.48799" lon="6.79516">
        <ele>399</ele>
        <time>2011-06-03T10:08:51Z</time>
      </trkpt>
      <trkpt lat="43.48799" lon="6.79517">
        <ele>400</ele>
        <time>2011-06-03T10:08:52Z</time>
      </trkpt>
      <trkpt lat="43.48799" lon="6.79519">
        <ele>400</ele>
        <time>2011-06-03T10:08:53Z</time>
      </trkpt>
      <trkpt lat="43.48799" lon="6.79522">
        <ele>400</ele>
        <time>2011-06-03T10:08:54Z</time>
      </trkpt>
      <trkpt lat="43.48799" lon="6.79524">
        <ele>401</ele>
        <time>2011-06-03T10:08:55Z</time>
      </trkpt>
      <trkpt lat="43.48799" lon="6.79526">
        <ele>401</ele>
        <time>2011-06-03T10:08:56Z</time>
      </trkpt>
      <trkpt lat="43.488" lon="6.79529">
        <ele>400</ele>
        <time>2011-06-03T10:08:57Z</time>
      </trkpt>
      <trkpt lat="43.488" lon="6.79532">
        <ele>402</ele>
        <time>2011-06-03T10:08:58Z</time>
      </trkpt>
      <trkpt lat="43.488" lon="6.79535">
        <ele>401</ele>
        <time>2011-06-03T10:08:59Z</time>
      </trkpt>
      <trkpt lat="43.488" lon="6.79537">
        <ele>402</ele>
        <time>2011-06-03T10:09:00Z</time>
      </trkpt>
      <trkpt lat="43.48799" lon="6.79539">
        <ele>402</ele>
        <time>2011-06-03T10:09:01Z</time>
      </trkpt>
      <trkpt lat="43.48798" lon="6.79542">
        <ele>403</ele>
        <time>2011-06-03T10:09:02Z</time>
      </trkpt>
      <trkpt lat="43.48797" lon="6.79542">
        <ele>404</ele>
        <time>2011-06-03T10:09:03Z</time>
      </trkpt>
      <trkpt lat="43.48797" lon="6.79545">
        <ele>404</ele>
        <time>2011-06-03T10:09:04Z</time>
      </trkpt>
      <trkpt lat="43.48797" lon="6.79546">
        <ele>404</ele>
        <time>2011-06-03T10:09:05Z</time>
      </trkpt>
      <trkpt lat="43.48798" lon="6.79547">
        <ele>405</ele>
        <time>2011-06-03T10:09:06Z</time>
      </trkpt>
      <trkpt lat="43.48799" lon="6.79548">
        <ele>404</ele>
        <time>2011-06-03T10:09:07Z</time>
      </trkpt>
      <trkpt lat="43.488" lon="6.79549">
        <ele>405</ele>
        <time>2011-06-03T10:09:08Z</time>
      </trkpt>
      <trkpt lat="43.488" lon="6.79548">
        <ele>405</ele>
        <time>2011-06-03T10:09:09Z</time>
      </trkpt>
      <trkpt lat="43.488" lon="6.79548">
        <ele>405</ele>
        <time>2011-06-03T10:09:10Z</time>
      </trkpt>
      <trkpt lat="43.48799" lon="6.79548">
        <ele>406</ele>
        <time>2011-06-03T10:09:11Z</time>
      </trkpt>
      <trkpt lat="43.48799" lon="6.79546">
        <ele>407</ele>
        <time>2011-06-03T10:09:12Z</time>
      </trkpt>
      <trkpt lat="43.48801" lon="6.79544">
        <ele>407</ele>
        <time>2011-06-03T10:09:13Z</time>
      </trkpt>
      <trkpt lat="43.48801" lon="6.79541">
        <ele>407</ele>
        <time>2011-06-03T10:09:14Z</time>
      </trkpt>
      <trkpt lat="43.48811" lon="6.79522">
        <ele>409</ele>
        <time>2011-06-03T10:09:23Z</time>
      </trkpt>
      <trkpt lat="43.48812" lon="6.79519">
        <ele>409</ele>
        <time>2011-06-03T10:09:24Z</time>
      </trkpt>
      <trkpt lat="43.48814" lon="6.79517">
        <ele>411</ele>
        <time>2011-06-03T10:09:25Z</time>
      </trkpt>
      <trkpt lat="43.48814" lon="6.79515">
        <ele>411</ele>
        <time>2011-06-03T10:09:26Z</time>
      </trkpt>
      <trkpt lat="43.48816" lon="6.79513">
        <ele>412</ele>
        <time>2011-06-03T10:09:27Z</time>
      </trkpt>
      <trkpt lat="43.48817" lon="6.79511">
        <ele>412</ele>
        <time>2011-06-03T10:09:28Z</time>
      </trkpt>
      <trkpt lat="43.48817" lon="6.79509">
        <ele>412</ele>
        <time>2011-06-03T10:09:29Z</time>
      </trkpt>
      <trkpt lat="43.48819" lon="6.79507">
        <ele>412</ele>
        <time>2011-06-03T10:09:30Z</time>
      </trkpt>
      <trkpt lat="43.48821" lon="6.79506">
        <ele>412</ele>
        <time>2011-06-03T10:09:31Z</time>
      </trkpt>
      <trkpt lat="43.48821" lon="6.79503">
        <ele>412</ele>
        <time>2011-06-03T10:09:32Z</time>
      </trkpt>
      <trkpt lat="43.48822" lon="6.79502">
        <ele>412</ele>
        <time>2011-06-03T10:09:33Z</time>
      </trkpt>
      <trkpt lat="43.48824" lon="6.79499">
        <ele>413</ele>
        <time>2011-06-03T10:09:34Z</time>
      </trkpt>
      <trkpt lat="43.48826" lon="6.79497">
        <ele>414</ele>
        <time>2011-06-03T10:09:35Z</time>
      </trkpt>
      <trkpt lat="43.48827" lon="6.79495">
        <ele>414</ele>
        <time>2011-06-03T10:09:36Z</time>
      </trkpt>
      <trkpt lat="43.48829" lon="6.79494">
        <ele>414</ele>
        <time>2011-06-03T10:09:37Z</time>
      </trkpt>
      <trkpt lat="43.48831" lon="6.79492">
        <ele>414</ele>
        <time>2011-06-03T10:09:38Z</time>
      </trkpt>
      <trkpt lat="43.48832" lon="6.79491">
        <ele>415</ele>
        <time>2011-06-03T10:09:39Z</time>
      </trkpt>
      <trkpt lat="43.48834" lon="6.79489">
        <ele>415</ele>
        <time>2011-06-03T10:09:40Z</time>
      </trkpt>
      <trkpt lat="43.48836" lon="6.79488">
        <ele>415</ele>
        <time>2011-06-03T10:09:41Z</time>
      </trkpt>
      <trkpt lat="43.48837" lon="6.79486">
        <ele>415</ele>
        <time>2011-06-03T10:09:42Z</time>
      </trkpt>
      <trkpt lat="43.4884" lon="6.79486">
        <ele>415</ele>
        <time>2011-06-03T10:09:43Z</time>
      </trkpt>
      <trkpt lat="43.48842" lon="6.79485">
        <ele>416</ele>
        <time>2011-06-03T10:09:44Z</time>
      </trkpt>
      <trkpt lat="43.48844" lon="6.79483">
        <ele>415</ele>
        <time>2011-06-03T10:09:45Z</time>
      </trkpt>
      <trkpt lat="43.48846" lon="6.79483">
        <ele>416</ele>
        <time>2011-06-03T10:09:46Z</time>
      </trkpt>
      <trkpt lat="43.48848" lon="6.79481">
        <ele>415</ele>
        <time>2011-06-03T10:09:47Z</time>
      </trkpt>
      <trkpt lat="43.48848" lon="6.79478">
        <ele>415</ele>
        <time>2011-06-03T10:09:48Z</time>
      </trkpt>
      <trkpt lat="43.48849" lon="6.79475">
        <ele>416</ele>
        <time>2011-06-03T10:09:49Z</time>
      </trkpt>
      <trkpt lat="43.48851" lon="6.79473">
        <ele>416</ele>
        <time>2011-06-03T10:09:50Z</time>
      </trkpt>
      <trkpt lat="43.48852" lon="6.79472">
        <ele>415</ele>
        <time>2011-06-03T10:09:51Z</time>
      </trkpt>
      <trkpt lat="43.48854" lon="6.7947">
        <ele>413</ele>
        <time>2011-06-03T10:09:52Z</time>
      </trkpt>
      <trkpt lat="43.48855" lon="6.79468">
        <ele>413</ele>
        <time>2011-06-03T10:09:53Z</time>
      </trkpt>
      <trkpt lat="43.48856" lon="6.79466">
        <ele>413</ele>
        <time>2011-06-03T10:09:54Z</time>
      </trkpt>
      <trkpt lat="43.48858" lon="6.79464">
        <ele>413</ele>
        <time>2011-06-03T10:09:55Z</time>
      </trkpt>
      <trkpt lat="43.48859" lon="6.79462">
        <ele>413</ele>
        <time>2011-06-03T10:09:56Z</time>
      </trkpt>
      <trkpt lat="43.48861" lon="6.7946">
        <ele>413</ele>
        <time>2011-06-03T10:09:57Z</time>
      </trkpt>
      <trkpt lat="43.48862" lon="6.79458">
        <ele>413</ele>
        <time>2011-06-03T10:09:58Z</time>
      </trkpt>
      <trkpt lat="43.48863" lon="6.79456">
        <ele>413</ele>
        <time>2011-06-03T10:09:59Z</time>
      </trkpt>
      <trkpt lat="43.48865" lon="6.79454">
        <ele>413</ele>
        <time>2011-06-03T10:10:00Z</time>
      </trkpt>
      <trkpt lat="43.48867" lon="6.79452">
        <ele>413</ele>
        <time>2011-06-03T10:10:01Z</time>
      </trkpt>
      <trkpt lat="43.48867" lon="6.7945">
        <ele>413</ele>
        <time>2011-06-03T10:10:02Z</time>
      </trkpt>
      <trkpt lat="43.48869" lon="6.79448">
        <ele>413</ele>
        <time>2011-06-03T10:10:03Z</time>
      </trkpt>
      <trkpt lat="43.4887" lon="6.79446">
        <ele>413</ele>
        <time>2011-06-03T10:10:04Z</time>
      </trkpt>
      <trkpt lat="43.48873" lon="6.79445">
        <ele>412</ele>
        <time>2011-06-03T10:10:05Z</time>
      </trkpt>
      <trkpt lat="43.48876" lon="6.79443">
        <ele>412</ele>
        <time>2011-06-03T10:10:06Z</time>
      </trkpt>
      <trkpt lat="43.48878" lon="6.79442">
        <ele>412</ele>
        <time>2011-06-03T10:10:07Z</time>
      </trkpt>
      <trkpt lat="43.4888" lon="6.7944">
        <ele>412</ele>
        <time>2011-06-03T10:10:08Z</time>
      </trkpt>
      <trkpt lat="43.48881" lon="6.79438">
        <ele>411</ele>
        <time>2011-06-03T10:10:09Z</time>
      </trkpt>
      <trkpt lat="43.48883" lon="6.79436">
        <ele>411</ele>
        <time>2011-06-03T10:10:10Z</time>
      </trkpt>
      <trkpt lat="43.48885" lon="6.79435">
        <ele>410</ele>
        <time>2011-06-03T10:10:11Z</time>
      </trkpt>
      <trkpt lat="43.48887" lon="6.79433">
        <ele>411</ele>
        <time>2011-06-03T10:10:12Z</time>
      </trkpt>
      <trkpt lat="43.48889" lon="6.79431">
        <ele>410</ele>
        <time>2011-06-03T10:10:13Z</time>
      </trkpt>
      <trkpt lat="43.48891" lon="6.79429">
        <ele>410</ele>
        <time>2011-06-03T10:10:14Z</time>
      </trkpt>
      <trkpt lat="43.48893" lon="6.79429">
        <ele>409</ele>
        <time>2011-06-03T10:10:15Z</time>
      </trkpt>
      <trkpt lat="43.48895" lon="6.79427">
        <ele>409</ele>
        <time>2011-06-03T10:10:16Z</time>
      </trkpt>
      <trkpt lat="43.48897" lon="6.79426">
        <ele>409</ele>
        <time>2011-06-03T10:10:17Z</time>
      </trkpt>
      <trkpt lat="43.48899" lon="6.79426">
        <ele>409</ele>
        <time>2011-06-03T10:10:18Z</time>
      </trkpt>
      <trkpt lat="43.489" lon="6.79424">
        <ele>409</ele>
        <time>2011-06-03T10:10:19Z</time>
      </trkpt>
      <trkpt lat="43.48901" lon="6.79422">
        <ele>410</ele>
        <time>2011-06-03T10:10:20Z</time>
      </trkpt>
      <trkpt lat="43.48901" lon="6.7942">
        <ele>410</ele>
        <time>2011-06-03T10:10:21Z</time>
      </trkpt>
      <trkpt lat="43.48903" lon="6.79417">
        <ele>410</ele>
        <time>2011-06-03T10:10:22Z</time>
      </trkpt>
      <trkpt lat="43.48904" lon="6.79416">
        <ele>411</ele>
        <time>2011-06-03T10:10:23Z</time>
      </trkpt>
      <trkpt lat="43.48906" lon="6.79415">
        <ele>412</ele>
        <time>2011-06-03T10:10:24Z</time>
      </trkpt>
      <trkpt lat="43.48909" lon="6.79414">
        <ele>413</ele>
        <time>2011-06-03T10:10:25Z</time>
      </trkpt>
      <trkpt lat="43.48911" lon="6.79413">
        <ele>414</ele>
        <time>2011-06-03T10:10:26Z</time>
      </trkpt>
      <trkpt lat="43.48913" lon="6.79413">
        <ele>415</ele>
        <time>2011-06-03T10:10:27Z</time>
      </trkpt>
      <trkpt lat="43.48915" lon="6.79412">
        <ele>415</ele>
        <time>2011-06-03T10:10:28Z</time>
      </trkpt>
      <trkpt lat="43.48917" lon="6.79411">
        <ele>415</ele>
        <time>2011-06-03T10:10:29Z</time>
      </trkpt>
      <trkpt lat="43.4892" lon="6.7941">
        <ele>415</ele>
        <time>2011-06-03T10:10:30Z</time>
      </trkpt>
      <trkpt lat="43.48922" lon="6.79409">
        <ele>415</ele>
        <time>2011-06-03T10:10:31Z</time>
      </trkpt>
      <trkpt lat="43.48925" lon="6.79409">
        <ele>415</ele>
        <time>2011-06-03T10:10:32Z</time>
      </trkpt>
      <trkpt lat="43.48927" lon="6.79408">
        <ele>415</ele>
        <time>2011-06-03T10:10:33Z</time>
      </trkpt>
      <trkpt lat="43.48929" lon="6.79407">
        <ele>416</ele>
        <time>2011-06-03T10:10:34Z</time>
      </trkpt>
      <trkpt lat="43.48932" lon="6.79408">
        <ele>416</ele>
        <time>2011-06-03T10:10:35Z</time>
      </trkpt>
      <trkpt lat="43.48934" lon="6.79408">
        <ele>416</ele>
        <time>2011-06-03T10:10:36Z</time>
      </trkpt>
      <trkpt lat="43.48935" lon="6.79409">
        <ele>417</ele>
        <time>2011-06-03T10:10:37Z</time>
      </trkpt>
      <trkpt lat="43.48938" lon="6.79411">
        <ele>417</ele>
        <time>2011-06-03T10:10:38Z</time>
      </trkpt>
      <trkpt lat="43.48939" lon="6.79414">
        <ele>416</ele>
        <time>2011-06-03T10:10:39Z</time>
      </trkpt>
      <trkpt lat="43.4894" lon="6.79418">
        <ele>418</ele>
        <time>2011-06-03T10:10:40Z</time>
      </trkpt>
      <trkpt lat="43.48941" lon="6.79422">
        <ele>418</ele>
        <time>2011-06-03T10:10:41Z</time>
      </trkpt>
      <trkpt lat="43.48942" lon="6.79424">
        <ele>418</ele>
        <time>2011-06-03T10:10:42Z</time>
      </trkpt>
      <trkpt lat="43.48944" lon="6.79427">
        <ele>417</ele>
        <time>2011-06-03T10:10:43Z</time>
      </trkpt>
      <trkpt lat="43.48945" lon="6.7943">
        <ele>417</ele>
        <time>2011-06-03T10:10:44Z</time>
      </trkpt>
      <trkpt lat="43.48947" lon="6.79433">
        <ele>417</ele>
        <time>2011-06-03T10:10:45Z</time>
      </trkpt>
      <trkpt lat="43.48949" lon="6.79436">
        <ele>418</ele>
        <time>2011-06-03T10:10:46Z</time>
      </trkpt>
      <trkpt lat="43.4895" lon="6.79438">
        <ele>418</ele>
        <time>2011-06-03T10:10:47Z</time>
      </trkpt>
      <trkpt lat="43.48951" lon="6.79441">
        <ele>418</ele>
        <time>2011-06-03T10:10:48Z</time>
      </trkpt>
      <trkpt lat="43.48953" lon="6.79443">
        <ele>418</ele>
        <time>2011-06-03T10:10:49Z</time>
      </trkpt>
      <trkpt lat="43.48955" lon="6.79445">
        <ele>418</ele>
        <time>2011-06-03T10:10:50Z</time>
      </trkpt>
      <trkpt lat="43.48956" lon="6.79447">
        <ele>417</ele>
        <time>2011-06-03T10:10:51Z</time>
      </trkpt>
      <trkpt lat="43.48957" lon="6.7945">
        <ele>417</ele>
        <time>2011-06-03T10:10:52Z</time>
      </trkpt>
      <trkpt lat="43.48957" lon="6.79452">
        <ele>418</ele>
        <time>2011-06-03T10:10:53Z</time>
      </trkpt>
      <trkpt lat="43.48959" lon="6.79454">
        <ele>418</ele>
        <time>2011-06-03T10:10:54Z</time>
      </trkpt>
      <trkpt lat="43.4896" lon="6.79456">
        <ele>418</ele>
        <time>2011-06-03T10:10:55Z</time>
      </trkpt>
      <trkpt lat="43.48961" lon="6.79458">
        <ele>418</ele>
        <time>2011-06-03T10:10:56Z</time>
      </trkpt>
      <trkpt lat="43.48962" lon="6.7946">
        <ele>418</ele>
        <time>2011-06-03T10:10:57Z</time>
      </trkpt>
      <trkpt lat="43.48962" lon="6.79463">
        <ele>418</ele>
        <time>2011-06-03T10:10:58Z</time>
      </trkpt>
      <trkpt lat="43.48964" lon="6.79466">
        <ele>417</ele>
        <time>2011-06-03T10:10:59Z</time>
      </trkpt>
      <trkpt lat="43.48966" lon="6.79468">
        <ele>417</ele>
        <time>2011-06-03T10:11:00Z</time>
      </trkpt>
      <trkpt lat="43.48968" lon="6.7947">
        <ele>417</ele>
        <time>2011-06-03T10:11:01Z</time>
      </trkpt>
      <trkpt lat="43.48969" lon="6.79472">
        <ele>417</ele>
        <time>2011-06-03T10:11:02Z</time>
      </trkpt>
      <trkpt lat="43.4897" lon="6.79474">
        <ele>417</ele>
        <time>2011-06-03T10:11:03Z</time>
      </trkpt>
      <trkpt lat="43.48971" lon="6.79476">
        <ele>419</ele>
        <time>2011-06-03T10:11:04Z</time>
      </trkpt>
      <trkpt lat="43.48972" lon="6.79478">
        <ele>419</ele>
        <time>2011-06-03T10:11:05Z</time>
      </trkpt>
      <trkpt lat="43.48973" lon="6.7948">
        <ele>420</ele>
        <time>2011-06-03T10:11:06Z</time>
      </trkpt>
      <trkpt lat="43.48974" lon="6.79483">
        <ele>419</ele>
        <time>2011-06-03T10:11:07Z</time>
      </trkpt>
      <trkpt lat="43.48976" lon="6.79484">
        <ele>419</ele>
        <time>2011-06-03T10:11:08Z</time>
      </trkpt>
      <trkpt lat="43.48978" lon="6.79486">
        <ele>419</ele>
        <time>2011-06-03T10:11:09Z</time>
      </trkpt>
      <trkpt lat="43.48979" lon="6.79488">
        <ele>418</ele>
        <time>2011-06-03T10:11:10Z</time>
      </trkpt>
      <trkpt lat="43.48981" lon="6.7949">
        <ele>419</ele>
        <time>2011-06-03T10:11:11Z</time>
      </trkpt>
      <trkpt lat="43.48984" lon="6.79492">
        <ele>420</ele>
        <time>2011-06-03T10:11:12Z</time>
      </trkpt>
      <trkpt lat="43.48985" lon="6.79494">
        <ele>421</ele>
        <time>2011-06-03T10:11:13Z</time>
      </trkpt>
      <trkpt lat="43.48987" lon="6.79495">
        <ele>422</ele>
        <time>2011-06-03T10:11:14Z</time>
      </trkpt>
      <trkpt lat="43.48987" lon="6.79497">
        <ele>422</ele>
        <time>2011-06-03T10:11:15Z</time>
      </trkpt>
      <trkpt lat="43.48989" lon="6.79498">
        <ele>422</ele>
        <time>2011-06-03T10:11:16Z</time>
      </trkpt>
      <trkpt lat="43.48991" lon="6.79498">
        <ele>422</ele>
        <time>2011-06-03T10:11:17Z</time>
      </trkpt>
      <trkpt lat="43.48993" lon="6.79498">
        <ele>423</ele>
        <time>2011-06-03T10:11:18Z</time>
      </trkpt>
      <trkpt lat="43.48997" lon="6.79498">
        <ele>421</ele>
        <time>2011-06-03T10:11:19Z</time>
      </trkpt>
      <trkpt lat="43.48998" lon="6.79501">
        <ele>421</ele>
        <time>2011-06-03T10:11:20Z</time>
      </trkpt>
      <trkpt lat="43.49001" lon="6.79501">
        <ele>420</ele>
        <time>2011-06-03T10:11:21Z</time>
      </trkpt>
      <trkpt lat="43.49003" lon="6.79501">
        <ele>420</ele>
        <time>2011-06-03T10:11:22Z</time>
      </trkpt>
      <trkpt lat="43.49005" lon="6.79501">
        <ele>420</ele>
        <time>2011-06-03T10:11:23Z</time>
      </trkpt>
      <trkpt lat="43.49007" lon="6.795">
        <ele>420</ele>
        <time>2011-06-03T10:11:24Z</time>
      </trkpt>
      <trkpt lat="43.49009" lon="6.79499">
        <ele>420</ele>
        <time>2011-06-03T10:11:25Z</time>
      </trkpt>
      <trkpt lat="43.49011" lon="6.79498">
        <ele>420</ele>
        <time>2011-06-03T10:11:26Z</time>
      </trkpt>
      <trkpt lat="43.49013" lon="6.79497">
        <ele>420</ele>
        <time>2011-06-03T10:11:27Z</time>
      </trkpt>
      <trkpt lat="43.49014" lon="6.79496">
        <ele>420</ele>
        <time>2011-06-03T10:11:28Z</time>
      </trkpt>
      <trkpt lat="43.49015" lon="6.79495">
        <ele>419</ele>
        <time>2011-06-03T10:11:29Z</time>
      </trkpt>
      <trkpt lat="43.49016" lon="6.79493">
        <ele>419</ele>
        <time>2011-06-03T10:11:30Z</time>
      </trkpt>
      <trkpt lat="43.49018" lon="6.79491">
        <ele>419</ele>
        <time>2011-06-03T10:11:31Z</time>
      </trkpt>
      <trkpt lat="43.4902" lon="6.7949">
        <ele>419</ele>
        <time>2011-06-03T10:11:32Z</time>
      </trkpt>
      <trkpt lat="43.49022" lon="6.79488">
        <ele>419</ele>
        <time>2011-06-03T10:11:33Z</time>
      </trkpt>
      <trkpt lat="43.49023" lon="6.79486">
        <ele>419</ele>
        <time>2011-06-03T10:11:34Z</time>
      </trkpt>
      <trkpt lat="43.49025" lon="6.79485">
        <ele>419</ele>
        <time>2011-06-03T10:11:35Z</time>
      </trkpt>
      <trkpt lat="43.49027" lon="6.79485">
        <ele>419</ele>
        <time>2011-06-03T10:11:36Z</time>
      </trkpt>
      <trkpt lat="43.4903" lon="6.79482">
        <ele>418</ele>
        <time>2011-06-03T10:11:37Z</time>
      </trkpt>
      <trkpt lat="43.49032" lon="6.79481">
        <ele>418</ele>
        <time>2011-06-03T10:11:38Z</time>
      </trkpt>
      <trkpt lat="43.49035" lon="6.7948">
        <ele>419</ele>
        <time>2011-06-03T10:11:39Z</time>
      </trkpt>
      <trkpt lat="43.49037" lon="6.79479">
        <ele>419</ele>
        <time>2011-06-03T10:11:40Z</time>
      </trkpt>
      <trkpt lat="43.49039" lon="6.79478">
        <ele>419</ele>
        <time>2011-06-03T10:11:41Z</time>
      </trkpt>
      <trkpt lat="43.49043" lon="6.79479">
        <ele>417</ele>
        <time>2011-06-03T10:11:42Z</time>
      </trkpt>
      <trkpt lat="43.49047" lon="6.79479">
        <ele>416</ele>
        <time>2011-06-03T10:11:43Z</time>
      </trkpt>
      <trkpt lat="43.4905" lon="6.79479">
        <ele>415</ele>
        <time>2011-06-03T10:11:44Z</time>
      </trkpt>
      <trkpt lat="43.49052" lon="6.79479">
        <ele>415</ele>
        <time>2011-06-03T10:11:45Z</time>
      </trkpt>
      <trkpt lat="43.49054" lon="6.7948">
        <ele>415</ele>
        <time>2011-06-03T10:11:46Z</time>
      </trkpt>
      <trkpt lat="43.49056" lon="6.7948">
        <ele>415</ele>
        <time>2011-06-03T10:11:47Z</time>
      </trkpt>
      <trkpt lat="43.49058" lon="6.79481">
        <ele>416</ele>
        <time>2011-06-03T10:11:48Z</time>
      </trkpt>
      <trkpt lat="43.4906" lon="6.79481">
        <ele>416</ele>
        <time>2011-06-03T10:11:49Z</time>
      </trkpt>
      <trkpt lat="43.49062" lon="6.79481">
        <ele>417</ele>
        <time>2011-06-03T10:11:50Z</time>
      </trkpt>
      <trkpt lat="43.49064" lon="6.7948">
        <ele>416</ele>
        <time>2011-06-03T10:11:51Z</time>
      </trkpt>
      <trkpt lat="43.49067" lon="6.7948">
        <ele>417</ele>
        <time>2011-06-03T10:11:52Z</time>
      </trkpt>
      <trkpt lat="43.4907" lon="6.79483">
        <ele>417</ele>
        <time>2011-06-03T10:11:53Z</time>
      </trkpt>
      <trkpt lat="43.49072" lon="6.79485">
        <ele>419</ele>
        <time>2011-06-03T10:11:54Z</time>
      </trkpt>
      <trkpt lat="43.49073" lon="6.79487">
        <ele>419</ele>
        <time>2011-06-03T10:11:55Z</time>
      </trkpt>
      <trkpt lat="43.49075" lon="6.7949">
        <ele>419</ele>
        <time>2011-06-03T10:11:56Z</time>
      </trkpt>
      <trkpt lat="43.49076" lon="6.79493">
        <ele>419</ele>
        <time>2011-06-03T10:11:57Z</time>
      </trkpt>
      <trkpt lat="43.49078" lon="6.79496">
        <ele>418</ele>
        <time>2011-06-03T10:11:58Z</time>
      </trkpt>
      <trkpt lat="43.49077" lon="6.79501">
        <ele>419</ele>
        <time>2011-06-03T10:11:59Z</time>
      </trkpt>
      <trkpt lat="43.49076" lon="6.79504">
        <ele>419</ele>
        <time>2011-06-03T10:12:00Z</time>
      </trkpt>
      <trkpt lat="43.49075" lon="6.79507">
        <ele>419</ele>
        <time>2011-06-03T10:12:01Z</time>
      </trkpt>
      <trkpt lat="43.49075" lon="6.79511">
        <ele>419</ele>
        <time>2011-06-03T10:12:02Z</time>
      </trkpt>
      <trkpt lat="43.49075" lon="6.79515">
        <ele>420</ele>
        <time>2011-06-03T10:12:03Z</time>
      </trkpt>
      <trkpt lat="43.49075" lon="6.79518">
        <ele>420</ele>
        <time>2011-06-03T10:12:04Z</time>
      </trkpt>
      <trkpt lat="43.49075" lon="6.79521">
        <ele>420</ele>
        <time>2011-06-03T10:12:05Z</time>
      </trkpt>
      <trkpt lat="43.49075" lon="6.79525">
        <ele>420</ele>
        <time>2011-06-03T10:12:06Z</time>
      </trkpt>
      <trkpt lat="43.49076" lon="6.79527">
        <ele>420</ele>
        <time>2011-06-03T10:12:07Z</time>
      </trkpt>
      <trkpt lat="43.49077" lon="6.79531">
        <ele>420</ele>
        <time>2011-06-03T10:12:08Z</time>
      </trkpt>
      <trkpt lat="43.49078" lon="6.79533">
        <ele>420</ele>
        <time>2011-06-03T10:12:09Z</time>
      </trkpt>
      <trkpt lat="43.49079" lon="6.79536">
        <ele>420</ele>
        <time>2011-06-03T10:12:10Z</time>
      </trkpt>
      <trkpt lat="43.4908" lon="6.79539">
        <ele>420</ele>
        <time>2011-06-03T10:12:11Z</time>
      </trkpt>
      <trkpt lat="43.49081" lon="6.79542">
        <ele>419</ele>
        <time>2011-06-03T10:12:12Z</time>
      </trkpt>
      <trkpt lat="43.49082" lon="6.79545">
        <ele>419</ele>
        <time>2011-06-03T10:12:13Z</time>
      </trkpt>
      <trkpt lat="43.49083" lon="6.79548">
        <ele>419</ele>
        <time>2011-06-03T10:12:14Z</time>
      </trkpt>
      <trkpt lat="43.49085" lon="6.79551">
        <ele>419</ele>
        <time>2011-06-03T10:12:15Z</time>
      </trkpt>
      <trkpt lat="43.49086" lon="6.79554">
        <ele>419</ele>
        <time>2011-06-03T10:12:16Z</time>
      </trkpt>
      <trkpt lat="43.49087" lon="6.79557">
        <ele>420</ele>
        <time>2011-06-03T10:12:17Z</time>
      </trkpt>
      <trkpt lat="43.49089" lon="6.79559">
        <ele>420</ele>
        <time>2011-06-03T10:12:18Z</time>
      </trkpt>
      <trkpt lat="43.49091" lon="6.79561">
        <ele>420</ele>
        <time>2011-06-03T10:12:19Z</time>
      </trkpt>
      <trkpt lat="43.49092" lon="6.79564">
        <ele>419</ele>
        <time>2011-06-03T10:12:20Z</time>
      </trkpt>
      <trkpt lat="43.49094" lon="6.79566">
        <ele>420</ele>
        <time>2011-06-03T10:12:21Z</time>
      </trkpt>
      <trkpt lat="43.49095" lon="6.79569">
        <ele>420</ele>
        <time>2011-06-03T10:12:22Z</time>
      </trkpt>
      <trkpt lat="43.49096" lon="6.79573">
        <ele>420</ele>
        <time>2011-06-03T10:12:23Z</time>
      </trkpt>
      <trkpt lat="43.49097" lon="6.79576">
        <ele>420</ele>
        <time>2011-06-03T10:12:24Z</time>
      </trkpt>
      <trkpt lat="43.49098" lon="6.79579">
        <ele>420</ele>
        <time>2011-06-03T10:12:25Z</time>
      </trkpt>
      <trkpt lat="43.49098" lon="6.79583">
        <ele>421</ele>
        <time>2011-06-03T10:12:26Z</time>
      </trkpt>
      <trkpt lat="43.49098" lon="6.79588">
        <ele>422</ele>
        <time>2011-06-03T10:12:27Z</time>
      </trkpt>
      <trkpt lat="43.49099" lon="6.79591">
        <ele>423</ele>
        <time>2011-06-03T10:12:28Z</time>
      </trkpt>
      <trkpt lat="43.49099" lon="6.79595">
        <ele>423</ele>
        <time>2011-06-03T10:12:29Z</time>
      </trkpt>
      <trkpt lat="43.49102" lon="6.79597">
        <ele>423</ele>
        <time>2011-06-03T10:12:30Z</time>
      </trkpt>
      <trkpt lat="43.49104" lon="6.79599">
        <ele>422</ele>
        <time>2011-06-03T10:12:31Z</time>
      </trkpt>
      <trkpt lat="43.49105" lon="6.79602">
        <ele>422</ele>
        <time>2011-06-03T10:12:32Z</time>
      </trkpt>
      <trkpt lat="43.49106" lon="6.79605">
        <ele>422</ele>
        <time>2011-06-03T10:12:33Z</time>
      </trkpt>
      <trkpt lat="43.49106" lon="6.79608">
        <ele>422</ele>
        <time>2011-06-03T10:12:34Z</time>
      </trkpt>
      <trkpt lat="43.49107" lon="6.79611">
        <ele>422</ele>
        <time>2011-06-03T10:12:35Z</time>
      </trkpt>
      <trkpt lat="43.49107" lon="6.79615">
        <ele>422</ele>
        <time>2011-06-03T10:12:36Z</time>
      </trkpt>
      <trkpt lat="43.49108" lon="6.79619">
        <ele>422</ele>
        <time>2011-06-03T10:12:37Z</time>
      </trkpt>
      <trkpt lat="43.49109" lon="6.79622">
        <ele>421</ele>
        <time>2011-06-03T10:12:38Z</time>
      </trkpt>
      <trkpt lat="43.49109" lon="6.79625">
        <ele>420</ele>
        <time>2011-06-03T10:12:39Z</time>
      </trkpt>
      <trkpt lat="43.4911" lon="6.79628">
        <ele>421</ele>
        <time>2011-06-03T10:12:40Z</time>
      </trkpt>
      <trkpt lat="43.49111" lon="6.79631">
        <ele>420</ele>
        <time>2011-06-03T10:12:41Z</time>
      </trkpt>
      <trkpt lat="43.49113" lon="6.79635">
        <ele>420</ele>
        <time>2011-06-03T10:12:42Z</time>
      </trkpt>
      <trkpt lat="43.49113" lon="6.79639">
        <ele>420</ele>
        <time>2011-06-03T10:12:43Z</time>
      </trkpt>
      <trkpt lat="43.49113" lon="6.79643">
        <ele>420</ele>
        <time>2011-06-03T10:12:44Z</time>
      </trkpt>
      <trkpt lat="43.49114" lon="6.79647">
        <ele>420</ele>
        <time>2011-06-03T10:12:45Z</time>
      </trkpt>
      <trkpt lat="43.49116" lon="6.7965">
        <ele>420</ele>
        <time>2011-06-03T10:12:46Z</time>
      </trkpt>
      <trkpt lat="43.49117" lon="6.79654">
        <ele>420</ele>
        <time>2011-06-03T10:12:47Z</time>
      </trkpt>
      <trkpt lat="43.49118" lon="6.79657">
        <ele>420</ele>
        <time>2011-06-03T10:12:48Z</time>
      </trkpt>
      <trkpt lat="43.49119" lon="6.7966">
        <ele>420</ele>
        <time>2011-06-03T10:12:49Z</time>
      </trkpt>
      <trkpt lat="43.49119" lon="6.79665">
        <ele>421</ele>
        <time>2011-06-03T10:12:50Z</time>
      </trkpt>
      <trkpt lat="43.49117" lon="6.7967">
        <ele>420</ele>
        <time>2011-06-03T10:12:51Z</time>
      </trkpt>
      <trkpt lat="43.49116" lon="6.79673">
        <ele>419</ele>
        <time>2011-06-03T10:12:52Z</time>
      </trkpt>
      <trkpt lat="43.49116" lon="6.79677">
        <ele>419</ele>
        <time>2011-06-03T10:12:53Z</time>
      </trkpt>
      <trkpt lat="43.49115" lon="6.79681">
        <ele>418</ele>
        <time>2011-06-03T10:12:54Z</time>
      </trkpt>
      <trkpt lat="43.49115" lon="6.79684">
        <ele>418</ele>
        <time>2011-06-03T10:12:55Z</time>
      </trkpt>
      <trkpt lat="43.49114" lon="6.79687">
        <ele>418</ele>
        <time>2011-06-03T10:12:56Z</time>
      </trkpt>
      <trkpt lat="43.49116" lon="6.79691">
        <ele>418</ele>
        <time>2011-06-03T10:12:57Z</time>
      </trkpt>
      <trkpt lat="43.49116" lon="6.79694">
        <ele>419</ele>
        <time>2011-06-03T10:12:58Z</time>
      </trkpt>
      <trkpt lat="43.49117" lon="6.79697">
        <ele>419</ele>
        <time>2011-06-03T10:12:59Z</time>
      </trkpt>
      <trkpt lat="43.49118" lon="6.797">
        <ele>419</ele>
        <time>2011-06-03T10:13:01Z</time>
      </trkpt>
      <trkpt lat="43.49118" lon="6.797">
        <ele>419</ele>
        <time>2011-06-03T10:13:01Z</time>
      </trkpt>
      <trkpt lat="43.49122" lon="6.79706">
        <ele>419</ele>
        <time>2011-06-03T10:13:02Z</time>
      </trkpt>
      <trkpt lat="43.49124" lon="6.7971">
        <ele>419</ele>
        <time>2011-06-03T10:13:03Z</time>
      </trkpt>
      <trkpt lat="43.49125" lon="6.79713">
        <ele>419</ele>
        <time>2011-06-03T10:13:04Z</time>
      </trkpt>
      <trkpt lat="43.49127" lon="6.79715">
        <ele>419</ele>
        <time>2011-06-03T10:13:05Z</time>
      </trkpt>
      <trkpt lat="43.49128" lon="6.79718">
        <ele>419</ele>
        <time>2011-06-03T10:13:06Z</time>
      </trkpt>
      <trkpt lat="43.49131" lon="6.79721">
        <ele>418</ele>
        <time>2011-06-03T10:13:07Z</time>
      </trkpt>
      <trkpt lat="43.49132" lon="6.79723">
        <ele>418</ele>
        <time>2011-06-03T10:13:08Z</time>
      </trkpt>
      <trkpt lat="43.49133" lon="6.79726">
        <ele>418</ele>
        <time>2011-06-03T10:13:09Z</time>
      </trkpt>
      <trkpt lat="43.49134" lon="6.79729">
        <ele>419</ele>
        <time>2011-06-03T10:13:10Z</time>
      </trkpt>
      <trkpt lat="43.49135" lon="6.79731">
        <ele>419</ele>
        <time>2011-06-03T10:13:11Z</time>
      </trkpt>
      <trkpt lat="43.49137" lon="6.79733">
        <ele>418</ele>
        <time>2011-06-03T10:13:12Z</time>
      </trkpt>
      <trkpt lat="43.49138" lon="6.79736">
        <ele>418</ele>
        <time>2011-06-03T10:13:13Z</time>
      </trkpt>
      <trkpt lat="43.4914" lon="6.79737">
        <ele>418</ele>
        <time>2011-06-03T10:13:14Z</time>
      </trkpt>
      <trkpt lat="43.49141" lon="6.79739">
        <ele>418</ele>
        <time>2011-06-03T10:13:15Z</time>
      </trkpt>
      <trkpt lat="43.49142" lon="6.79742">
        <ele>418</ele>
        <time>2011-06-03T10:13:16Z</time>
      </trkpt>
      <trkpt lat="43.49144" lon="6.79744">
        <ele>419</ele>
        <time>2011-06-03T10:13:17Z</time>
      </trkpt>
      <trkpt lat="43.49146" lon="6.79746">
        <ele>420</ele>
        <time>2011-06-03T10:13:18Z</time>
      </trkpt>
      <trkpt lat="43.49148" lon="6.79748">
        <ele>420</ele>
        <time>2011-06-03T10:13:19Z</time>
      </trkpt>
      <trkpt lat="43.4915" lon="6.79752">
        <ele>419</ele>
        <time>2011-06-03T10:13:20Z</time>
      </trkpt>
      <trkpt lat="43.49152" lon="6.79754">
        <ele>419</ele>
        <time>2011-06-03T10:13:21Z</time>
      </trkpt>
      <trkpt lat="43.49153" lon="6.79757">
        <ele>418</ele>
        <time>2011-06-03T10:13:22Z</time>
      </trkpt>
      <trkpt lat="43.49155" lon="6.79759">
        <ele>418</ele>
        <time>2011-06-03T10:13:23Z</time>
      </trkpt>
      <trkpt lat="43.49155" lon="6.79761">
        <ele>418</ele>
        <time>2011-06-03T10:13:24Z</time>
      </trkpt>
      <trkpt lat="43.49156" lon="6.79764">
        <ele>417</ele>
        <time>2011-06-03T10:13:25Z</time>
      </trkpt>
      <trkpt lat="43.49157" lon="6.79767">
        <ele>417</ele>
        <time>2011-06-03T10:13:26Z</time>
      </trkpt>
      <trkpt lat="43.49159" lon="6.79769">
        <ele>417</ele>
        <time>2011-06-03T10:13:27Z</time>
      </trkpt>
      <trkpt lat="43.49161" lon="6.79772">
        <ele>417</ele>
        <time>2011-06-03T10:13:28Z</time>
      </trkpt>
      <trkpt lat="43.49163" lon="6.79774">
        <ele>417</ele>
        <time>2011-06-03T10:13:29Z</time>
      </trkpt>
      <trkpt lat="43.49165" lon="6.79776">
        <ele>417</ele>
        <time>2011-06-03T10:13:30Z</time>
      </trkpt>
      <trkpt lat="43.49168" lon="6.79778">
        <ele>415</ele>
        <time>2011-06-03T10:13:31Z</time>
      </trkpt>
      <trkpt lat="43.4917" lon="6.79781">
        <ele>415</ele>
        <time>2011-06-03T10:13:32Z</time>
      </trkpt>
      <trkpt lat="43.49172" lon="6.79783">
        <ele>415</ele>
        <time>2011-06-03T10:13:33Z</time>
      </trkpt>
      <trkpt lat="43.49175" lon="6.79785">
        <ele>415</ele>
        <time>2011-06-03T10:13:34Z</time>
      </trkpt>
      <trkpt lat="43.49176" lon="6.79787">
        <ele>415</ele>
        <time>2011-06-03T10:13:35Z</time>
      </trkpt>
      <trkpt lat="43.49178" lon="6.79789">
        <ele>415</ele>
        <time>2011-06-03T10:13:36Z</time>
      </trkpt>
      <trkpt lat="43.4918" lon="6.79792">
        <ele>415</ele>
        <time>2011-06-03T10:13:37Z</time>
      </trkpt>
      <trkpt lat="43.49182" lon="6.79795">
        <ele>415</ele>
        <time>2011-06-03T10:13:38Z</time>
      </trkpt>
      <trkpt lat="43.49182" lon="6.79798">
        <ele>415</ele>
        <time>2011-06-03T10:13:39Z</time>
      </trkpt>
      <trkpt lat="43.49184" lon="6.79801">
        <ele>416</ele>
        <time>2011-06-03T10:13:40Z</time>
      </trkpt>
      <trkpt lat="43.49186" lon="6.79803">
        <ele>415</ele>
        <time>2011-06-03T10:13:41Z</time>
      </trkpt>
      <trkpt lat="43.49187" lon="6.79805">
        <ele>415</ele>
        <time>2011-06-03T10:13:42Z</time>
      </trkpt>
      <trkpt lat="43.49189" lon="6.79807">
        <ele>415</ele>
        <time>2011-06-03T10:13:43Z</time>
      </trkpt>
      <trkpt lat="43.49191" lon="6.79811">
        <ele>415</ele>
        <time>2011-06-03T10:13:44Z</time>
      </trkpt>
      <trkpt lat="43.49192" lon="6.79814">
        <ele>416</ele>
        <time>2011-06-03T10:13:45Z</time>
      </trkpt>
      <trkpt lat="43.49194" lon="6.79817">
        <ele>416</ele>
        <time>2011-06-03T10:13:46Z</time>
      </trkpt>
      <trkpt lat="43.49195" lon="6.79821">
        <ele>416</ele>
        <time>2011-06-03T10:13:47Z</time>
      </trkpt>
      <trkpt lat="43.49196" lon="6.79824">
        <ele>416</ele>
        <time>2011-06-03T10:13:48Z</time>
      </trkpt>
      <trkpt lat="43.49198" lon="6.79827">
        <ele>416</ele>
        <time>2011-06-03T10:13:49Z</time>
      </trkpt>
      <trkpt lat="43.49199" lon="6.7983">
        <ele>416</ele>
        <time>2011-06-03T10:13:50Z</time>
      </trkpt>
      <trkpt lat="43.492" lon="6.79833">
        <ele>417</ele>
        <time>2011-06-03T10:13:51Z</time>
      </trkpt>
      <trkpt lat="43.49201" lon="6.79835">
        <ele>417</ele>
        <time>2011-06-03T10:13:52Z</time>
      </trkpt>
      <trkpt lat="43.49202" lon="6.79838">
        <ele>417</ele>
        <time>2011-06-03T10:13:53Z</time>
      </trkpt>
      <trkpt lat="43.49204" lon="6.7984">
        <ele>417</ele>
        <time>2011-06-03T10:13:54Z</time>
      </trkpt>
      <trkpt lat="43.49205" lon="6.79843">
        <ele>417</ele>
        <time>2011-06-03T10:13:55Z</time>
      </trkpt>
      <trkpt lat="43.49205" lon="6.79847">
        <ele>417</ele>
        <time>2011-06-03T10:13:56Z</time>
      </trkpt>
      <trkpt lat="43.49208" lon="6.79848">
        <ele>417</ele>
        <time>2011-06-03T10:13:57Z</time>
      </trkpt>
      <trkpt lat="43.49209" lon="6.79852">
        <ele>417</ele>
        <time>2011-06-03T10:13:58Z</time>
      </trkpt>
      <trkpt lat="43.49211" lon="6.79855">
        <ele>417</ele>
        <time>2011-06-03T10:13:59Z</time>
      </trkpt>
      <trkpt lat="43.49212" lon="6.79858">
        <ele>416</ele>
        <time>2011-06-03T10:14:00Z</time>
      </trkpt>
      <trkpt lat="43.49212" lon="6.79859">
        <ele>417</ele>
        <time>2011-06-03T10:14:01Z</time>
      </trkpt>
      <trkpt lat="43.49213" lon="6.79861">
        <ele>418</ele>
        <time>2011-06-03T10:14:02Z</time>
      </trkpt>
      <trkpt lat="43.49214" lon="6.79864">
        <ele>418</ele>
        <time>2011-06-03T10:14:03Z</time>
      </trkpt>
      <trkpt lat="43.49216" lon="6.79868">
        <ele>419</ele>
        <time>2011-06-03T10:14:04Z</time>
      </trkpt>
      <trkpt lat="43.49217" lon="6.79871">
        <ele>419</ele>
        <time>2011-06-03T10:14:05Z</time>
      </trkpt>
      <trkpt lat="43.4922" lon="6.79874">
        <ele>419</ele>
        <time>2011-06-03T10:14:06Z</time>
      </trkpt>
      <trkpt lat="43.4922" lon="6.79876">
        <ele>419</ele>
        <time>2011-06-03T10:14:07Z</time>
      </trkpt>
      <trkpt lat="43.49222" lon="6.7988">
        <ele>419</ele>
        <time>2011-06-03T10:14:08Z</time>
      </trkpt>
      <trkpt lat="43.49223" lon="6.79883">
        <ele>418</ele>
        <time>2011-06-03T10:14:09Z</time>
      </trkpt>
      <trkpt lat="43.49224" lon="6.79886">
        <ele>418</ele>
        <time>2011-06-03T10:14:10Z</time>
      </trkpt>
      <trkpt lat="43.49225" lon="6.7989">
        <ele>417</ele>
        <time>2011-06-03T10:14:11Z</time>
      </trkpt>
      <trkpt lat="43.49227" lon="6.79892">
        <ele>418</ele>
        <time>2011-06-03T10:14:12Z</time>
      </trkpt>
      <trkpt lat="43.49228" lon="6.79894">
        <ele>418</ele>
        <time>2011-06-03T10:14:13Z</time>
      </trkpt>
      <trkpt lat="43.4923" lon="6.79897">
        <ele>418</ele>
        <time>2011-06-03T10:14:14Z</time>
      </trkpt>
      <trkpt lat="43.49231" lon="6.799">
        <ele>418</ele>
        <time>2011-06-03T10:14:15Z</time>
      </trkpt>
      <trkpt lat="43.49233" lon="6.79904">
        <ele>418</ele>
        <time>2011-06-03T10:14:16Z</time>
      </trkpt>
      <trkpt lat="43.49236" lon="6.79906">
        <ele>418</ele>
        <time>2011-06-03T10:14:17Z</time>
      </trkpt>
      <trkpt lat="43.49237" lon="6.79909">
        <ele>420</ele>
        <time>2011-06-03T10:14:18Z</time>
      </trkpt>
      <trkpt lat="43.49238" lon="6.79911">
        <ele>419</ele>
        <time>2011-06-03T10:14:19Z</time>
      </trkpt>
      <trkpt lat="43.49241" lon="6.79912">
        <ele>419</ele>
        <time>2011-06-03T10:14:20Z</time>
      </trkpt>
      <trkpt lat="43.49243" lon="6.79914">
        <ele>419</ele>
        <time>2011-06-03T10:14:21Z</time>
      </trkpt>
      <trkpt lat="43.49244" lon="6.79915">
        <ele>419</ele>
        <time>2011-06-03T10:14:22Z</time>
      </trkpt>
      <trkpt lat="43.49247" lon="6.79916">
        <ele>419</ele>
        <time>2011-06-03T10:14:23Z</time>
      </trkpt>
      <trkpt lat="43.49249" lon="6.79919">
        <ele>419</ele>
        <time>2011-06-03T10:14:24Z</time>
      </trkpt>
      <trkpt lat="43.49249" lon="6.79919">
        <ele>419</ele>
        <time>2011-06-03T10:14:25Z</time>
      </trkpt>
      <trkpt lat="43.49252" lon="6.79921">
        <ele>419</ele>
        <time>2011-06-03T10:14:26Z</time>
      </trkpt>
      <trkpt lat="43.49253" lon="6.79923">
        <ele>419</ele>
        <time>2011-06-03T10:14:27Z</time>
      </trkpt>
      <trkpt lat="43.49256" lon="6.79926">
        <ele>419</ele>
        <time>2011-06-03T10:14:28Z</time>
      </trkpt>
      <trkpt lat="43.49257" lon="6.79928">
        <ele>419</ele>
        <time>2011-06-03T10:14:29Z</time>
      </trkpt>
      <trkpt lat="43.49259" lon="6.79929">
        <ele>419</ele>
        <time>2011-06-03T10:14:30Z</time>
      </trkpt>
      <trkpt lat="43.49261" lon="6.7993">
        <ele>419</ele>
        <time>2011-06-03T10:14:31Z</time>
      </trkpt>
      <trkpt lat="43.49263" lon="6.79931">
        <ele>419</ele>
        <time>2011-06-03T10:14:32Z</time>
      </trkpt>
      <trkpt lat="43.49265" lon="6.79932">
        <ele>421</ele>
        <time>2011-06-03T10:14:33Z</time>
      </trkpt>
      <trkpt lat="43.49266" lon="6.79933">
        <ele>421</ele>
        <time>2011-06-03T10:14:34Z</time>
      </trkpt>
      <trkpt lat="43.49268" lon="6.79934">
        <ele>422</ele>
        <time>2011-06-03T10:14:35Z</time>
      </trkpt>
      <trkpt lat="43.49271" lon="6.79935">
        <ele>422</ele>
        <time>2011-06-03T10:14:36Z</time>
      </trkpt>
      <trkpt lat="43.49274" lon="6.79935">
        <ele>422</ele>
        <time>2011-06-03T10:14:37Z</time>
      </trkpt>
      <trkpt lat="43.49276" lon="6.79936">
        <ele>422</ele>
        <time>2011-06-03T10:14:38Z</time>
      </trkpt>
      <trkpt lat="43.49279" lon="6.79936">
        <ele>422</ele>
        <time>2011-06-03T10:14:39Z</time>
      </trkpt>
      <trkpt lat="43.49282" lon="6.79936">
        <ele>422</ele>
        <time>2011-06-03T10:14:40Z</time>
      </trkpt>
      <trkpt lat="43.49284" lon="6.79936">
        <ele>422</ele>
        <time>2011-06-03T10:14:41Z</time>
      </trkpt>
      <trkpt lat="43.49286" lon="6.79938">
        <ele>422</ele>
        <time>2011-06-03T10:14:42Z</time>
      </trkpt>
      <trkpt lat="43.49288" lon="6.79939">
        <ele>422</ele>
        <time>2011-06-03T10:14:43Z</time>
      </trkpt>
      <trkpt lat="43.4929" lon="6.7994">
        <ele>421</ele>
        <time>2011-06-03T10:14:44Z</time>
      </trkpt>
      <trkpt lat="43.49293" lon="6.79941">
        <ele>421</ele>
        <time>2011-06-03T10:14:45Z</time>
      </trkpt>
      <trkpt lat="43.49295" lon="6.79942">
        <ele>421</ele>
        <time>2011-06-03T10:14:46Z</time>
      </trkpt>
      <trkpt lat="43.49297" lon="6.79943">
        <ele>420</ele>
        <time>2011-06-03T10:14:47Z</time>
      </trkpt>
      <trkpt lat="43.49301" lon="6.79945">
        <ele>420</ele>
        <time>2011-06-03T10:14:48Z</time>
      </trkpt>
      <trkpt lat="43.49303" lon="6.79947">
        <ele>421</ele>
        <time>2011-06-03T10:14:49Z</time>
      </trkpt>
      <trkpt lat="43.49304" lon="6.79951">
        <ele>421</ele>
        <time>2011-06-03T10:14:50Z</time>
      </trkpt>
      <trkpt lat="43.49306" lon="6.79953">
        <ele>421</ele>
        <time>2011-06-03T10:14:51Z</time>
      </trkpt>
      <trkpt lat="43.49308" lon="6.79956">
        <ele>423</ele>
        <time>2011-06-03T10:14:52Z</time>
      </trkpt>
      <trkpt lat="43.49311" lon="6.79958">
        <ele>423</ele>
        <time>2011-06-03T10:14:53Z</time>
      </trkpt>
      <trkpt lat="43.49312" lon="6.79959">
        <ele>424</ele>
        <time>2011-06-03T10:14:54Z</time>
      </trkpt>
      <trkpt lat="43.49314" lon="6.79961">
        <ele>424</ele>
        <time>2011-06-03T10:14:55Z</time>
      </trkpt>
      <trkpt lat="43.49317" lon="6.79963">
        <ele>424</ele>
        <time>2011-06-03T10:14:56Z</time>
      </trkpt>
      <trkpt lat="43.49318" lon="6.79966">
        <ele>423</ele>
        <time>2011-06-03T10:14:57Z</time>
      </trkpt>
      <trkpt lat="43.4932" lon="6.79967">
        <ele>424</ele>
        <time>2011-06-03T10:14:58Z</time>
      </trkpt>
      <trkpt lat="43.49323" lon="6.79969">
        <ele>424</ele>
        <time>2011-06-03T10:14:59Z</time>
      </trkpt>
      <trkpt lat="43.49325" lon="6.79971">
        <ele>424</ele>
        <time>2011-06-03T10:15:00Z</time>
      </trkpt>
      <trkpt lat="43.49327" lon="6.79972">
        <ele>424</ele>
        <time>2011-06-03T10:15:01Z</time>
      </trkpt>
      <trkpt lat="43.4933" lon="6.79974">
        <ele>422</ele>
        <time>2011-06-03T10:15:02Z</time>
      </trkpt>
      <trkpt lat="43.49332" lon="6.79976">
        <ele>422</ele>
        <time>2011-06-03T10:15:03Z</time>
      </trkpt>
      <trkpt lat="43.49334" lon="6.79978">
        <ele>422</ele>
        <time>2011-06-03T10:15:04Z</time>
      </trkpt>
      <trkpt lat="43.49337" lon="6.79979">
        <ele>422</ele>
        <time>2011-06-03T10:15:05Z</time>
      </trkpt>
      <trkpt lat="43.49339" lon="6.7998">
        <ele>421</ele>
        <time>2011-06-03T10:15:06Z</time>
      </trkpt>
      <trkpt lat="43.49341" lon="6.79981">
        <ele>422</ele>
        <time>2011-06-03T10:15:07Z</time>
      </trkpt>
      <trkpt lat="43.49343" lon="6.79983">
        <ele>422</ele>
        <time>2011-06-03T10:15:08Z</time>
      </trkpt>
      <trkpt lat="43.49345" lon="6.79984">
        <ele>422</ele>
        <time>2011-06-03T10:15:09Z</time>
      </trkpt>
      <trkpt lat="43.49348" lon="6.79985">
        <ele>422</ele>
        <time>2011-06-03T10:15:10Z</time>
      </trkpt>
      <trkpt lat="43.49351" lon="6.79986">
        <ele>422</ele>
        <time>2011-06-03T10:15:11Z</time>
      </trkpt>
      <trkpt lat="43.49352" lon="6.79988">
        <ele>421</ele>
        <time>2011-06-03T10:15:12Z</time>
      </trkpt>
      <trkpt lat="43.49354" lon="6.79989">
        <ele>421</ele>
        <time>2011-06-03T10:15:13Z</time>
      </trkpt>
      <trkpt lat="43.49355" lon="6.79989">
        <ele>422</ele>
        <time>2011-06-03T10:15:14Z</time>
      </trkpt>
      <trkpt lat="43.49358" lon="6.7999">
        <ele>422</ele>
        <time>2011-06-03T10:15:15Z</time>
      </trkpt>
      <trkpt lat="43.4936" lon="6.79991">
        <ele>422</ele>
        <time>2011-06-03T10:15:16Z</time>
      </trkpt>
      <trkpt lat="43.49362" lon="6.79992">
        <ele>422</ele>
        <time>2011-06-03T10:15:17Z</time>
      </trkpt>
      <trkpt lat="43.49364" lon="6.79993">
        <ele>422</ele>
        <time>2011-06-03T10:15:18Z</time>
      </trkpt>
      <trkpt lat="43.49366" lon="6.79993">
        <ele>422</ele>
        <time>2011-06-03T10:15:19Z</time>
      </trkpt>
      <trkpt lat="43.49367" lon="6.79995">
        <ele>422</ele>
        <time>2011-06-03T10:15:20Z</time>
      </trkpt>
      <trkpt lat="43.49369" lon="6.79996">
        <ele>422</ele>
        <time>2011-06-03T10:15:21Z</time>
      </trkpt>
      <trkpt lat="43.4937" lon="6.79998">
        <ele>422</ele>
        <time>2011-06-03T10:15:22Z</time>
      </trkpt>
      <trkpt lat="43.49373" lon="6.8">
        <ele>421</ele>
        <time>2011-06-03T10:15:23Z</time>
      </trkpt>
      <trkpt lat="43.49374" lon="6.80002">
        <ele>421</ele>
        <time>2011-06-03T10:15:24Z</time>
      </trkpt>
      <trkpt lat="43.49376" lon="6.80004">
        <ele>422</ele>
        <time>2011-06-03T10:15:25Z</time>
      </trkpt>
      <trkpt lat="43.49378" lon="6.80007">
        <ele>422</ele>
        <time>2011-06-03T10:15:26Z</time>
      </trkpt>
      <trkpt lat="43.49379" lon="6.80009">
        <ele>422</ele>
        <time>2011-06-03T10:15:27Z</time>
      </trkpt>
      <trkpt lat="43.49382" lon="6.80011">
        <ele>420</ele>
        <time>2011-06-03T10:15:28Z</time>
      </trkpt>
      <trkpt lat="43.49384" lon="6.80013">
        <ele>420</ele>
        <time>2011-06-03T10:15:29Z</time>
      </trkpt>
      <trkpt lat="43.49386" lon="6.80015">
        <ele>420</ele>
        <time>2011-06-03T10:15:30Z</time>
      </trkpt>
      <trkpt lat="43.49388" lon="6.80017">
        <ele>420</ele>
        <time>2011-06-03T10:15:31Z</time>
      </trkpt>
      <trkpt lat="43.4939" lon="6.80018">
        <ele>420</ele>
        <time>2011-06-03T10:15:32Z</time>
      </trkpt>
      <trkpt lat="43.49392" lon="6.8002">
        <ele>420</ele>
        <time>2011-06-03T10:15:33Z</time>
      </trkpt>
      <trkpt lat="43.49394" lon="6.80023">
        <ele>420</ele>
        <time>2011-06-03T10:15:34Z</time>
      </trkpt>
      <trkpt lat="43.49396" lon="6.80024">
        <ele>420</ele>
        <time>2011-06-03T10:15:35Z</time>
      </trkpt>
      <trkpt lat="43.49399" lon="6.80026">
        <ele>420</ele>
        <time>2011-06-03T10:15:36Z</time>
      </trkpt>
      <trkpt lat="43.49401" lon="6.80028">
        <ele>420</ele>
        <time>2011-06-03T10:15:37Z</time>
      </trkpt>
      <trkpt lat="43.49404" lon="6.80031">
        <ele>420</ele>
        <time>2011-06-03T10:15:38Z</time>
      </trkpt>
      <trkpt lat="43.49405" lon="6.80032">
        <ele>420</ele>
        <time>2011-06-03T10:15:39Z</time>
      </trkpt>
      <trkpt lat="43.49407" lon="6.80034">
        <ele>420</ele>
        <time>2011-06-03T10:15:40Z</time>
      </trkpt>
      <trkpt lat="43.49408" lon="6.80036">
        <ele>420</ele>
        <time>2011-06-03T10:15:41Z</time>
      </trkpt>
      <trkpt lat="43.4941" lon="6.80038">
        <ele>420</ele>
        <time>2011-06-03T10:15:42Z</time>
      </trkpt>
      <trkpt lat="43.49412" lon="6.80041">
        <ele>420</ele>
        <time>2011-06-03T10:15:43Z</time>
      </trkpt>
      <trkpt lat="43.49415" lon="6.80042">
        <ele>419</ele>
        <time>2011-06-03T10:15:44Z</time>
      </trkpt>
      <trkpt lat="43.49418" lon="6.80044">
        <ele>418</ele>
        <time>2011-06-03T10:15:45Z</time>
      </trkpt>
      <trkpt lat="43.4942" lon="6.80045">
        <ele>418</ele>
        <time>2011-06-03T10:15:46Z</time>
      </trkpt>
      <trkpt lat="43.49421" lon="6.80046">
        <ele>418</ele>
        <time>2011-06-03T10:15:47Z</time>
      </trkpt>
      <trkpt lat="43.49423" lon="6.80047">
        <ele>417</ele>
        <time>2011-06-03T10:15:48Z</time>
      </trkpt>
      <trkpt lat="43.49425" lon="6.80049">
        <ele>417</ele>
        <time>2011-06-03T10:15:49Z</time>
      </trkpt>
      <trkpt lat="43.49427" lon="6.8005">
        <ele>417</ele>
        <time>2011-06-03T10:15:50Z</time>
      </trkpt>
      <trkpt lat="43.49429" lon="6.80052">
        <ele>417</ele>
        <time>2011-06-03T10:15:51Z</time>
      </trkpt>
      <trkpt lat="43.4943" lon="6.80053">
        <ele>417</ele>
        <time>2011-06-03T10:15:52Z</time>
      </trkpt>
      <trkpt lat="43.49432" lon="6.80053">
        <ele>417</ele>
        <time>2011-06-03T10:15:53Z</time>
      </trkpt>
      <trkpt lat="43.49433" lon="6.80054">
        <ele>417</ele>
        <time>2011-06-03T10:15:54Z</time>
      </trkpt>
      <trkpt lat="43.49434" lon="6.80054">
        <ele>417</ele>
        <time>2011-06-03T10:15:55Z</time>
      </trkpt>
      <trkpt lat="43.49435" lon="6.80053">
        <ele>417</ele>
        <time>2011-06-03T10:15:56Z</time>
      </trkpt>
      <trkpt lat="43.49436" lon="6.80053">
        <ele>417</ele>
        <time>2011-06-03T10:15:57Z</time>
      </trkpt>
      <trkpt lat="43.49437" lon="6.80054">
        <ele>417</ele>
        <time>2011-06-03T10:15:58Z</time>
      </trkpt>
      <trkpt lat="43.49438" lon="6.80055">
        <ele>418</ele>
        <time>2011-06-03T10:15:59Z</time>
      </trkpt>
      <trkpt lat="43.4944" lon="6.80057">
        <ele>417</ele>
        <time>2011-06-03T10:16:00Z</time>
      </trkpt>
      <trkpt lat="43.4944" lon="6.8006">
        <ele>416</ele>
        <time>2011-06-03T10:16:01Z</time>
      </trkpt>
      <trkpt lat="43.49438" lon="6.8006">
        <ele>415</ele>
        <time>2011-06-03T10:16:02Z</time>
      </trkpt>
      <trkpt lat="43.49438" lon="6.8006">
        <ele>415</ele>
        <time>2011-06-03T10:16:03Z</time>
      </trkpt>
      <trkpt lat="43.49438" lon="6.80061">
        <ele>415</ele>
        <time>2011-06-03T10:16:04Z</time>
      </trkpt>
      <trkpt lat="43.49437" lon="6.80061">
        <ele>415</ele>
        <time>2011-06-03T10:16:05Z</time>
      </trkpt>
      <trkpt lat="43.49437" lon="6.80061">
        <ele>414</ele>
        <time>2011-06-03T10:16:06Z</time>
      </trkpt>
      <trkpt lat="43.49437" lon="6.80062">
        <ele>414</ele>
        <time>2011-06-03T10:16:07Z</time>
      </trkpt>
      <trkpt lat="43.49436" lon="6.80063">
        <ele>415</ele>
        <time>2011-06-03T10:16:08Z</time>
      </trkpt>
      <trkpt lat="43.49435" lon="6.80064">
        <ele>414</ele>
        <time>2011-06-03T10:16:09Z</time>
      </trkpt>
      <trkpt lat="43.49438" lon="6.80088">
        <ele>413</ele>
        <time>2011-06-03T10:16:47Z</time>
      </trkpt>
      <trkpt lat="43.49438" lon="6.80092">
        <ele>413</ele>
        <time>2011-06-03T10:16:48Z</time>
      </trkpt>
      <trkpt lat="43.49438" lon="6.80096">
        <ele>413</ele>
        <time>2011-06-03T10:16:49Z</time>
      </trkpt>
      <trkpt lat="43.49438" lon="6.80099">
        <ele>412</ele>
        <time>2011-06-03T10:16:50Z</time>
      </trkpt>
      <trkpt lat="43.49437" lon="6.80103">
        <ele>412</ele>
        <time>2011-06-03T10:16:51Z</time>
      </trkpt>
      <trkpt lat="43.49437" lon="6.80107">
        <ele>412</ele>
        <time>2011-06-03T10:16:52Z</time>
      </trkpt>
      <trkpt lat="43.49437" lon="6.8011">
        <ele>412</ele>
        <time>2011-06-03T10:16:53Z</time>
      </trkpt>
      <trkpt lat="43.49437" lon="6.80114">
        <ele>411</ele>
        <time>2011-06-03T10:16:54Z</time>
      </trkpt>
      <trkpt lat="43.49437" lon="6.80118">
        <ele>411</ele>
        <time>2011-06-03T10:16:55Z</time>
      </trkpt>
      <trkpt lat="43.49435" lon="6.80122">
        <ele>411</ele>
        <time>2011-06-03T10:16:56Z</time>
      </trkpt>
      <trkpt lat="43.49434" lon="6.80126">
        <ele>411</ele>
        <time>2011-06-03T10:16:57Z</time>
      </trkpt>
      <trkpt lat="43.49433" lon="6.80129">
        <ele>410</ele>
        <time>2011-06-03T10:16:58Z</time>
      </trkpt>
      <trkpt lat="43.49433" lon="6.80133">
        <ele>410</ele>
        <time>2011-06-03T10:16:59Z</time>
      </trkpt>
      <trkpt lat="43.49432" lon="6.80136">
        <ele>409</ele>
        <time>2011-06-03T10:17:00Z</time>
      </trkpt>
      <trkpt lat="43.49432" lon="6.8014">
        <ele>409</ele>
        <time>2011-06-03T10:17:01Z</time>
      </trkpt>
      <trkpt lat="43.49432" lon="6.80143">
        <ele>409</ele>
        <time>2011-06-03T10:17:02Z</time>
      </trkpt>
      <trkpt lat="43.49433" lon="6.80147">
        <ele>409</ele>
        <time>2011-06-03T10:17:03Z</time>
      </trkpt>
      <trkpt lat="43.49433" lon="6.8015">
        <ele>409</ele>
        <time>2011-06-03T10:17:04Z</time>
      </trkpt>
      <trkpt lat="43.49433" lon="6.80153">
        <ele>408</ele>
        <time>2011-06-03T10:17:05Z</time>
      </trkpt>
      <trkpt lat="43.49434" lon="6.80156">
        <ele>408</ele>
        <time>2011-06-03T10:17:06Z</time>
      </trkpt>
      <trkpt lat="43.49434" lon="6.80159">
        <ele>408</ele>
        <time>2011-06-03T10:17:07Z</time>
      </trkpt>
      <trkpt lat="43.49434" lon="6.80163">
        <ele>407</ele>
        <time>2011-06-03T10:17:08Z</time>
      </trkpt>
      <trkpt lat="43.49436" lon="6.80165">
        <ele>407</ele>
        <time>2011-06-03T10:17:09Z</time>
      </trkpt>
      <trkpt lat="43.49436" lon="6.80167">
        <ele>407</ele>
        <time>2011-06-03T10:17:10Z</time>
      </trkpt>
      <trkpt lat="43.49437" lon="6.80169">
        <ele>407</ele>
        <time>2011-06-03T10:17:11Z</time>
      </trkpt>
      <trkpt lat="43.49437" lon="6.80172">
        <ele>407</ele>
        <time>2011-06-03T10:17:12Z</time>
      </trkpt>
      <trkpt lat="43.49439" lon="6.80175">
        <ele>406</ele>
        <time>2011-06-03T10:17:13Z</time>
      </trkpt>
      <trkpt lat="43.4944" lon="6.80178">
        <ele>406</ele>
        <time>2011-06-03T10:17:14Z</time>
      </trkpt>
      <trkpt lat="43.49441" lon="6.8018">
        <ele>407</ele>
        <time>2011-06-03T10:17:15Z</time>
      </trkpt>
      <trkpt lat="43.49443" lon="6.80182">
        <ele>406</ele>
        <time>2011-06-03T10:17:16Z</time>
      </trkpt>
      <trkpt lat="43.49444" lon="6.80184">
        <ele>407</ele>
        <time>2011-06-03T10:17:17Z</time>
      </trkpt>
      <trkpt lat="43.49445" lon="6.80186">
        <ele>407</ele>
        <time>2011-06-03T10:17:18Z</time>
      </trkpt>
      <trkpt lat="43.49447" lon="6.80187">
        <ele>407</ele>
        <time>2011-06-03T10:17:19Z</time>
      </trkpt>
      <trkpt lat="43.49449" lon="6.80189">
        <ele>407</ele>
        <time>2011-06-03T10:17:20Z</time>
      </trkpt>
      <trkpt lat="43.49452" lon="6.80192">
        <ele>407</ele>
        <time>2011-06-03T10:17:21Z</time>
      </trkpt>
      <trkpt lat="43.49454" lon="6.80193">
        <ele>407</ele>
        <time>2011-06-03T10:17:22Z</time>
      </trkpt>
      <trkpt lat="43.49457" lon="6.80194">
        <ele>408</ele>
        <time>2011-06-03T10:17:23Z</time>
      </trkpt>
      <trkpt lat="43.49458" lon="6.80195">
        <ele>408</ele>
        <time>2011-06-03T10:17:24Z</time>
      </trkpt>
      <trkpt lat="43.4946" lon="6.80196">
        <ele>408</ele>
        <time>2011-06-03T10:17:25Z</time>
      </trkpt>
      <trkpt lat="43.49462" lon="6.80196">
        <ele>409</ele>
        <time>2011-06-03T10:17:26Z</time>
      </trkpt>
      <trkpt lat="43.49464" lon="6.80197">
        <ele>409</ele>
        <time>2011-06-03T10:17:27Z</time>
      </trkpt>
      <trkpt lat="43.49465" lon="6.80198">
        <ele>409</ele>
        <time>2011-06-03T10:17:28Z</time>
      </trkpt>
      <trkpt lat="43.49466" lon="6.80197">
        <ele>410</ele>
        <time>2011-06-03T10:17:29Z</time>
      </trkpt>
      <trkpt lat="43.49467" lon="6.80197">
        <ele>411</ele>
        <time>2011-06-03T10:17:30Z</time>
      </trkpt>
      <trkpt lat="43.4947" lon="6.80197">
        <ele>411</ele>
        <time>2011-06-03T10:17:31Z</time>
      </trkpt>
      <trkpt lat="43.49471" lon="6.80197">
        <ele>411</ele>
        <time>2011-06-03T10:17:32Z</time>
      </trkpt>
      <trkpt lat="43.49474" lon="6.80196">
        <ele>410</ele>
        <time>2011-06-03T10:17:33Z</time>
      </trkpt>
      <trkpt lat="43.49476" lon="6.80196">
        <ele>410</ele>
        <time>2011-06-03T10:17:34Z</time>
      </trkpt>
      <trkpt lat="43.49478" lon="6.80196">
        <ele>411</ele>
        <time>2011-06-03T10:17:35Z</time>
      </trkpt>
      <trkpt lat="43.4948" lon="6.80196">
        <ele>411</ele>
        <time>2011-06-03T10:17:36Z</time>
      </trkpt>
      <trkpt lat="43.49482" lon="6.80196">
        <ele>410</ele>
        <time>2011-06-03T10:17:37Z</time>
      </trkpt>
      <trkpt lat="43.49485" lon="6.80196">
        <ele>410</ele>
        <time>2011-06-03T10:17:38Z</time>
      </trkpt>
      <trkpt lat="43.49486" lon="6.80195">
        <ele>410</ele>
        <time>2011-06-03T10:17:39Z</time>
      </trkpt>
      <trkpt lat="43.49489" lon="6.80194">
        <ele>410</ele>
        <time>2011-06-03T10:17:40Z</time>
      </trkpt>
      <trkpt lat="43.49491" lon="6.80192">
        <ele>410</ele>
        <time>2011-06-03T10:17:41Z</time>
      </trkpt>
      <trkpt lat="43.49493" lon="6.80191">
        <ele>410</ele>
        <time>2011-06-03T10:17:42Z</time>
      </trkpt>
      <trkpt lat="43.49495" lon="6.8019">
        <ele>409</ele>
        <time>2011-06-03T10:17:43Z</time>
      </trkpt>
      <trkpt lat="43.49497" lon="6.80189">
        <ele>409</ele>
        <time>2011-06-03T10:17:44Z</time>
      </trkpt>
      <trkpt lat="43.495" lon="6.80188">
        <ele>410</ele>
        <time>2011-06-03T10:17:45Z</time>
      </trkpt>
      <trkpt lat="43.49503" lon="6.80188">
        <ele>410</ele>
        <time>2011-06-03T10:17:46Z</time>
      </trkpt>
      <trkpt lat="43.49506" lon="6.80187">
        <ele>411</ele>
        <time>2011-06-03T10:17:47Z</time>
      </trkpt>
      <trkpt lat="43.49508" lon="6.80186">
        <ele>411</ele>
        <time>2011-06-03T10:17:48Z</time>
      </trkpt>
      <trkpt lat="43.4951" lon="6.80185">
        <ele>411</ele>
        <time>2011-06-03T10:17:49Z</time>
      </trkpt>
      <trkpt lat="43.49512" lon="6.80183">
        <ele>411</ele>
        <time>2011-06-03T10:17:50Z</time>
      </trkpt>
      <trkpt lat="43.49514" lon="6.80182">
        <ele>411</ele>
        <time>2011-06-03T10:17:51Z</time>
      </trkpt>
      <trkpt lat="43.49517" lon="6.80182">
        <ele>411</ele>
        <time>2011-06-03T10:17:52Z</time>
      </trkpt>
      <trkpt lat="43.4952" lon="6.80181">
        <ele>411</ele>
        <time>2011-06-03T10:17:53Z</time>
      </trkpt>
      <trkpt lat="43.49522" lon="6.8018">
        <ele>411</ele>
        <time>2011-06-03T10:17:54Z</time>
      </trkpt>
      <trkpt lat="43.49524" lon="6.80179">
        <ele>412</ele>
        <time>2011-06-03T10:17:55Z</time>
      </trkpt>
      <trkpt lat="43.49525" lon="6.80178">
        <ele>412</ele>
        <time>2011-06-03T10:17:56Z</time>
      </trkpt>
      <trkpt lat="43.49528" lon="6.80177">
        <ele>412</ele>
        <time>2011-06-03T10:17:57Z</time>
      </trkpt>
      <trkpt lat="43.49529" lon="6.80175">
        <ele>412</ele>
        <time>2011-06-03T10:17:58Z</time>
      </trkpt>
      <trkpt lat="43.49531" lon="6.80174">
        <ele>412</ele>
        <time>2011-06-03T10:17:59Z</time>
      </trkpt>
      <trkpt lat="43.49533" lon="6.80174">
        <ele>411</ele>
        <time>2011-06-03T10:18:00Z</time>
      </trkpt>
      <trkpt lat="43.49535" lon="6.80173">
        <ele>412</ele>
        <time>2011-06-03T10:18:01Z</time>
      </trkpt>
      <trkpt lat="43.49538" lon="6.80173">
        <ele>412</ele>
        <time>2011-06-03T10:18:02Z</time>
      </trkpt>
      <trkpt lat="43.49541" lon="6.80171">
        <ele>411</ele>
        <time>2011-06-03T10:18:03Z</time>
      </trkpt>
      <trkpt lat="43.49544" lon="6.8017">
        <ele>412</ele>
        <time>2011-06-03T10:18:04Z</time>
      </trkpt>
      <trkpt lat="43.49545" lon="6.80169">
        <ele>411</ele>
        <time>2011-06-03T10:18:05Z</time>
      </trkpt>
      <trkpt lat="43.49548" lon="6.80169">
        <ele>411</ele>
        <time>2011-06-03T10:18:06Z</time>
      </trkpt>
      <trkpt lat="43.4955" lon="6.80167">
        <ele>411</ele>
        <time>2011-06-03T10:18:07Z</time>
      </trkpt>
      <trkpt lat="43.49552" lon="6.80166">
        <ele>411</ele>
        <time>2011-06-03T10:18:08Z</time>
      </trkpt>
      <trkpt lat="43.49553" lon="6.80165">
        <ele>411</ele>
        <time>2011-06-03T10:18:09Z</time>
      </trkpt>
      <trkpt lat="43.49556" lon="6.80162">
        <ele>411</ele>
        <time>2011-06-03T10:18:10Z</time>
      </trkpt>
      <trkpt lat="43.49557" lon="6.80163">
        <ele>410</ele>
        <time>2011-06-03T10:18:11Z</time>
      </trkpt>
      <trkpt lat="43.4956" lon="6.80164">
        <ele>412</ele>
        <time>2011-06-03T10:18:12Z</time>
      </trkpt>
      <trkpt lat="43.49563" lon="6.80165">
        <ele>414</ele>
        <time>2011-06-03T10:18:13Z</time>
      </trkpt>
      <trkpt lat="43.49565" lon="6.80165">
        <ele>414</ele>
        <time>2011-06-03T10:18:14Z</time>
      </trkpt>
      <trkpt lat="43.49568" lon="6.80166">
        <ele>415</ele>
        <time>2011-06-03T10:18:15Z</time>
      </trkpt>
      <trkpt lat="43.4957" lon="6.80169">
        <ele>415</ele>
        <time>2011-06-03T10:18:16Z</time>
      </trkpt>
      <trkpt lat="43.49573" lon="6.8017">
        <ele>415</ele>
        <time>2011-06-03T10:18:17Z</time>
      </trkpt>
      <trkpt lat="43.49575" lon="6.80173">
        <ele>416</ele>
        <time>2011-06-03T10:18:18Z</time>
      </trkpt>
      <trkpt lat="43.49577" lon="6.80175">
        <ele>415</ele>
        <time>2011-06-03T10:18:19Z</time>
      </trkpt>
      <trkpt lat="43.4958" lon="6.80178">
        <ele>415</ele>
        <time>2011-06-03T10:18:20Z</time>
      </trkpt>
      <trkpt lat="43.49581" lon="6.80181">
        <ele>414</ele>
        <time>2011-06-03T10:18:21Z</time>
      </trkpt>
      <trkpt lat="43.49583" lon="6.80184">
        <ele>414</ele>
        <time>2011-06-03T10:18:22Z</time>
      </trkpt>
      <trkpt lat="43.49584" lon="6.80186">
        <ele>414</ele>
        <time>2011-06-03T10:18:23Z</time>
      </trkpt>
      <trkpt lat="43.49586" lon="6.80189">
        <ele>414</ele>
        <time>2011-06-03T10:18:24Z</time>
      </trkpt>
      <trkpt lat="43.49588" lon="6.80192">
        <ele>414</ele>
        <time>2011-06-03T10:18:25Z</time>
      </trkpt>
      <trkpt lat="43.4959" lon="6.80195">
        <ele>414</ele>
        <time>2011-06-03T10:18:26Z</time>
      </trkpt>
      <trkpt lat="43.49591" lon="6.80197">
        <ele>414</ele>
        <time>2011-06-03T10:18:27Z</time>
      </trkpt>
      <trkpt lat="43.49592" lon="6.80201">
        <ele>413</ele>
        <time>2011-06-03T10:18:28Z</time>
      </trkpt>
      <trkpt lat="43.49594" lon="6.80204">
        <ele>413</ele>
        <time>2011-06-03T10:18:29Z</time>
      </trkpt>
      <trkpt lat="43.49595" lon="6.80207">
        <ele>412</ele>
        <time>2011-06-03T10:18:30Z</time>
      </trkpt>
      <trkpt lat="43.49596" lon="6.80211">
        <ele>413</ele>
        <time>2011-06-03T10:18:31Z</time>
      </trkpt>
      <trkpt lat="43.49596" lon="6.80214">
        <ele>412</ele>
        <time>2011-06-03T10:18:32Z</time>
      </trkpt>
      <trkpt lat="43.49598" lon="6.80217">
        <ele>412</ele>
        <time>2011-06-03T10:18:33Z</time>
      </trkpt>
      <trkpt lat="43.496" lon="6.8022">
        <ele>413</ele>
        <time>2011-06-03T10:18:34Z</time>
      </trkpt>
      <trkpt lat="43.49601" lon="6.80223">
        <ele>413</ele>
        <time>2011-06-03T10:18:35Z</time>
      </trkpt>
      <trkpt lat="43.49602" lon="6.80227">
        <ele>412</ele>
        <time>2011-06-03T10:18:36Z</time>
      </trkpt>
      <trkpt lat="43.49604" lon="6.8023">
        <ele>412</ele>
        <time>2011-06-03T10:18:37Z</time>
      </trkpt>
      <trkpt lat="43.49604" lon="6.80231">
        <ele>412</ele>
        <time>2011-06-03T10:18:38Z</time>
      </trkpt>
      <trkpt lat="43.49605" lon="6.80235">
        <ele>412</ele>
        <time>2011-06-03T10:18:39Z</time>
      </trkpt>
      <trkpt lat="43.49607" lon="6.80236">
        <ele>412</ele>
        <time>2011-06-03T10:18:40Z</time>
      </trkpt>
      <trkpt lat="43.49609" lon="6.80238">
        <ele>412</ele>
        <time>2011-06-03T10:18:41Z</time>
      </trkpt>
      <trkpt lat="43.4961" lon="6.8024">
        <ele>412</ele>
        <time>2011-06-03T10:18:42Z</time>
      </trkpt>
      <trkpt lat="43.49612" lon="6.80243">
        <ele>411</ele>
        <time>2011-06-03T10:18:43Z</time>
      </trkpt>
      <trkpt lat="43.49613" lon="6.80245">
        <ele>411</ele>
        <time>2011-06-03T10:18:44Z</time>
      </trkpt>
      <trkpt lat="43.49615" lon="6.80247">
        <ele>411</ele>
        <time>2011-06-03T10:18:45Z</time>
      </trkpt>
      <trkpt lat="43.49616" lon="6.80249">
        <ele>411</ele>
        <time>2011-06-03T10:18:46Z</time>
      </trkpt>
      <trkpt lat="43.49618" lon="6.80251">
        <ele>411</ele>
        <time>2011-06-03T10:18:47Z</time>
      </trkpt>
      <trkpt lat="43.49619" lon="6.80254">
        <ele>413</ele>
        <time>2011-06-03T10:18:48Z</time>
      </trkpt>
      <trkpt lat="43.4962" lon="6.80255">
        <ele>413</ele>
        <time>2011-06-03T10:18:49Z</time>
      </trkpt>
      <trkpt lat="43.49622" lon="6.80258">
        <ele>414</ele>
        <time>2011-06-03T10:18:50Z</time>
      </trkpt>
      <trkpt lat="43.49624" lon="6.8026">
        <ele>416</ele>
        <time>2011-06-03T10:18:51Z</time>
      </trkpt>
      <trkpt lat="43.49626" lon="6.80262">
        <ele>416</ele>
        <time>2011-06-03T10:18:52Z</time>
      </trkpt>
      <trkpt lat="43.49628" lon="6.80264">
        <ele>416</ele>
        <time>2011-06-03T10:18:53Z</time>
      </trkpt>
      <trkpt lat="43.49629" lon="6.80266">
        <ele>416</ele>
        <time>2011-06-03T10:18:54Z</time>
      </trkpt>
      <trkpt lat="43.49631" lon="6.80268">
        <ele>416</ele>
        <time>2011-06-03T10:18:55Z</time>
      </trkpt>
      <trkpt lat="43.49632" lon="6.80269">
        <ele>416</ele>
        <time>2011-06-03T10:18:56Z</time>
      </trkpt>
      <trkpt lat="43.49633" lon="6.80272">
        <ele>416</ele>
        <time>2011-06-03T10:18:57Z</time>
      </trkpt>
      <trkpt lat="43.49634" lon="6.80273">
        <ele>416</ele>
        <time>2011-06-03T10:18:58Z</time>
      </trkpt>
      <trkpt lat="43.49636" lon="6.80275">
        <ele>416</ele>
        <time>2011-06-03T10:18:59Z</time>
      </trkpt>
      <trkpt lat="43.49638" lon="6.80277">
        <ele>416</ele>
        <time>2011-06-03T10:19:00Z</time>
      </trkpt>
      <trkpt lat="43.4964" lon="6.8028">
        <ele>416</ele>
        <time>2011-06-03T10:19:01Z</time>
      </trkpt>
      <trkpt lat="43.49641" lon="6.80282">
        <ele>416</ele>
        <time>2011-06-03T10:19:02Z</time>
      </trkpt>
      <trkpt lat="43.49643" lon="6.80284">
        <ele>416</ele>
        <time>2011-06-03T10:19:03Z</time>
      </trkpt>
      <trkpt lat="43.49646" lon="6.80287">
        <ele>415</ele>
        <time>2011-06-03T10:19:04Z</time>
      </trkpt>
      <trkpt lat="43.49647" lon="6.80288">
        <ele>415</ele>
        <time>2011-06-03T10:19:05Z</time>
      </trkpt>
      <trkpt lat="43.49649" lon="6.80291">
        <ele>415</ele>
        <time>2011-06-03T10:19:06Z</time>
      </trkpt>
      <trkpt lat="43.49651" lon="6.80294">
        <ele>415</ele>
        <time>2011-06-03T10:19:07Z</time>
      </trkpt>
      <trkpt lat="43.49652" lon="6.80296">
        <ele>415</ele>
        <time>2011-06-03T10:19:08Z</time>
      </trkpt>
      <trkpt lat="43.49654" lon="6.803">
        <ele>415</ele>
        <time>2011-06-03T10:19:09Z</time>
      </trkpt>
      <trkpt lat="43.49655" lon="6.80303">
        <ele>415</ele>
        <time>2011-06-03T10:19:10Z</time>
      </trkpt>
      <trkpt lat="43.49655" lon="6.80306">
        <ele>414</ele>
        <time>2011-06-03T10:19:11Z</time>
      </trkpt>
      <trkpt lat="43.49656" lon="6.80309">
        <ele>414</ele>
        <time>2011-06-03T10:19:12Z</time>
      </trkpt>
      <trkpt lat="43.49656" lon="6.80313">
        <ele>414</ele>
        <time>2011-06-03T10:19:13Z</time>
      </trkpt>
      <trkpt lat="43.49656" lon="6.80316">
        <ele>414</ele>
        <time>2011-06-03T10:19:14Z</time>
      </trkpt>
      <trkpt lat="43.49657" lon="6.80319">
        <ele>414</ele>
        <time>2011-06-03T10:19:15Z</time>
      </trkpt>
      <trkpt lat="43.49657" lon="6.80324">
        <ele>414</ele>
        <time>2011-06-03T10:19:16Z</time>
      </trkpt>
      <trkpt lat="43.49657" lon="6.80327">
        <ele>415</ele>
        <time>2011-06-03T10:19:17Z</time>
      </trkpt>
      <trkpt lat="43.49657" lon="6.8033">
        <ele>415</ele>
        <time>2011-06-03T10:19:18Z</time>
      </trkpt>
      <trkpt lat="43.49656" lon="6.80334">
        <ele>414</ele>
        <time>2011-06-03T10:19:19Z</time>
      </trkpt>
      <trkpt lat="43.49657" lon="6.80337">
        <ele>414</ele>
        <time>2011-06-03T10:19:20Z</time>
      </trkpt>
      <trkpt lat="43.49656" lon="6.8034">
        <ele>414</ele>
        <time>2011-06-03T10:19:21Z</time>
      </trkpt>
      <trkpt lat="43.49656" lon="6.80343">
        <ele>414</ele>
        <time>2011-06-03T10:19:22Z</time>
      </trkpt>
      <trkpt lat="43.49656" lon="6.80346">
        <ele>414</ele>
        <time>2011-06-03T10:19:23Z</time>
      </trkpt>
      <trkpt lat="43.49656" lon="6.80349">
        <ele>414</ele>
        <time>2011-06-03T10:19:24Z</time>
      </trkpt>
      <trkpt lat="43.49657" lon="6.80352">
        <ele>415</ele>
        <time>2011-06-03T10:19:25Z</time>
      </trkpt>
      <trkpt lat="43.49657" lon="6.80355">
        <ele>415</ele>
        <time>2011-06-03T10:19:26Z</time>
      </trkpt>
      <trkpt lat="43.49658" lon="6.80358">
        <ele>415</ele>
        <time>2011-06-03T10:19:27Z</time>
      </trkpt>
      <trkpt lat="43.49659" lon="6.80361">
        <ele>415</ele>
        <time>2011-06-03T10:19:28Z</time>
      </trkpt>
      <trkpt lat="43.4966" lon="6.80363">
        <ele>415</ele>
        <time>2011-06-03T10:19:29Z</time>
      </trkpt>
      <trkpt lat="43.49661" lon="6.80367">
        <ele>414</ele>
        <time>2011-06-03T10:19:30Z</time>
      </trkpt>
      <trkpt lat="43.49662" lon="6.8037">
        <ele>414</ele>
        <time>2011-06-03T10:19:31Z</time>
      </trkpt>
      <trkpt lat="43.49662" lon="6.80373">
        <ele>415</ele>
        <time>2011-06-03T10:19:32Z</time>
      </trkpt>
      <trkpt lat="43.49663" lon="6.80376">
        <ele>415</ele>
        <time>2011-06-03T10:19:33Z</time>
      </trkpt>
      <trkpt lat="43.49664" lon="6.80378">
        <ele>415</ele>
        <time>2011-06-03T10:19:34Z</time>
      </trkpt>
      <trkpt lat="43.49665" lon="6.8038">
        <ele>415</ele>
        <time>2011-06-03T10:19:35Z</time>
      </trkpt>
      <trkpt lat="43.49666" lon="6.80382">
        <ele>415</ele>
        <time>2011-06-03T10:19:36Z</time>
      </trkpt>
      <trkpt lat="43.49667" lon="6.80384">
        <ele>417</ele>
        <time>2011-06-03T10:19:37Z</time>
      </trkpt>
      <trkpt lat="43.49669" lon="6.80386">
        <ele>418</ele>
        <time>2011-06-03T10:19:38Z</time>
      </trkpt>
      <trkpt lat="43.4967" lon="6.80388">
        <ele>418</ele>
        <time>2011-06-03T10:19:39Z</time>
      </trkpt>
      <trkpt lat="43.49672" lon="6.80391">
        <ele>418</ele>
        <time>2011-06-03T10:19:40Z</time>
      </trkpt>
      <trkpt lat="43.49673" lon="6.80393">
        <ele>419</ele>
        <time>2011-06-03T10:19:41Z</time>
      </trkpt>
      <trkpt lat="43.49675" lon="6.80395">
        <ele>419</ele>
        <time>2011-06-03T10:19:42Z</time>
      </trkpt>
      <trkpt lat="43.49676" lon="6.80397">
        <ele>420</ele>
        <time>2011-06-03T10:19:43Z</time>
      </trkpt>
      <trkpt lat="43.49677" lon="6.80399">
        <ele>420</ele>
        <time>2011-06-03T10:19:44Z</time>
      </trkpt>
      <trkpt lat="43.49679" lon="6.804">
        <ele>421</ele>
        <time>2011-06-03T10:19:45Z</time>
      </trkpt>
      <trkpt lat="43.49681" lon="6.80401">
        <ele>422</ele>
        <time>2011-06-03T10:19:46Z</time>
      </trkpt>
      <trkpt lat="43.49682" lon="6.80402">
        <ele>422</ele>
        <time>2011-06-03T10:19:47Z</time>
      </trkpt>
      <trkpt lat="43.49684" lon="6.80403">
        <ele>423</ele>
        <time>2011-06-03T10:19:48Z</time>
      </trkpt>
      <trkpt lat="43.49686" lon="6.80405">
        <ele>422</ele>
        <time>2011-06-03T10:19:49Z</time>
      </trkpt>
      <trkpt lat="43.49688" lon="6.80406">
        <ele>422</ele>
        <time>2011-06-03T10:19:50Z</time>
      </trkpt>
      <trkpt lat="43.4969" lon="6.80408">
        <ele>422</ele>
        <time>2011-06-03T10:19:51Z</time>
      </trkpt>
      <trkpt lat="43.49691" lon="6.80409">
        <ele>423</ele>
        <time>2011-06-03T10:19:52Z</time>
      </trkpt>
      <trkpt lat="43.49693" lon="6.80411">
        <ele>423</ele>
        <time>2011-06-03T10:19:53Z</time>
      </trkpt>
      <trkpt lat="43.49695" lon="6.80414">
        <ele>423</ele>
        <time>2011-06-03T10:19:54Z</time>
      </trkpt>
      <trkpt lat="43.49697" lon="6.80415">
        <ele>424</ele>
        <time>2011-06-03T10:19:55Z</time>
      </trkpt>
      <trkpt lat="43.49699" lon="6.80417">
        <ele>424</ele>
        <time>2011-06-03T10:19:56Z</time>
      </trkpt>
      <trkpt lat="43.49701" lon="6.8042">
        <ele>424</ele>
        <time>2011-06-03T10:19:57Z</time>
      </trkpt>
      <trkpt lat="43.49703" lon="6.80422">
        <ele>424</ele>
        <time>2011-06-03T10:19:58Z</time>
      </trkpt>
      <trkpt lat="43.49706" lon="6.80425">
        <ele>423</ele>
        <time>2011-06-03T10:19:59Z</time>
      </trkpt>
      <trkpt lat="43.49707" lon="6.80427">
        <ele>423</ele>
        <time>2011-06-03T10:20:00Z</time>
      </trkpt>
      <trkpt lat="43.49709" lon="6.80428">
        <ele>423</ele>
        <time>2011-06-03T10:20:01Z</time>
      </trkpt>
      <trkpt lat="43.4971" lon="6.80432">
        <ele>423</ele>
        <time>2011-06-03T10:20:02Z</time>
      </trkpt>
      <trkpt lat="43.49712" lon="6.80435">
        <ele>422</ele>
        <time>2011-06-03T10:20:03Z</time>
      </trkpt>
      <trkpt lat="43.49714" lon="6.80438">
        <ele>422</ele>
        <time>2011-06-03T10:20:04Z</time>
      </trkpt>
      <trkpt lat="43.49715" lon="6.8044">
        <ele>422</ele>
        <time>2011-06-03T10:20:05Z</time>
      </trkpt>
      <trkpt lat="43.49716" lon="6.80444">
        <ele>422</ele>
        <time>2011-06-03T10:20:06Z</time>
      </trkpt>
      <trkpt lat="43.49717" lon="6.80447">
        <ele>422</ele>
        <time>2011-06-03T10:20:07Z</time>
      </trkpt>
      <trkpt lat="43.49719" lon="6.8045">
        <ele>422</ele>
        <time>2011-06-03T10:20:08Z</time>
      </trkpt>
      <trkpt lat="43.4972" lon="6.80453">
        <ele>421</ele>
        <time>2011-06-03T10:20:09Z</time>
      </trkpt>
      <trkpt lat="43.49721" lon="6.80457">
        <ele>421</ele>
        <time>2011-06-03T10:20:10Z</time>
      </trkpt>
      <trkpt lat="43.49722" lon="6.80459">
        <ele>421</ele>
        <time>2011-06-03T10:20:11Z</time>
      </trkpt>
      <trkpt lat="43.49723" lon="6.80462">
        <ele>422</ele>
        <time>2011-06-03T10:20:12Z</time>
      </trkpt>
      <trkpt lat="43.49724" lon="6.80465">
        <ele>421</ele>
        <time>2011-06-03T10:20:13Z</time>
      </trkpt>
      <trkpt lat="43.49725" lon="6.80468">
        <ele>422</ele>
        <time>2011-06-03T10:20:14Z</time>
      </trkpt>
      <trkpt lat="43.49726" lon="6.8047">
        <ele>423</ele>
        <time>2011-06-03T10:20:15Z</time>
      </trkpt>
      <trkpt lat="43.49727" lon="6.80473">
        <ele>424</ele>
        <time>2011-06-03T10:20:16Z</time>
      </trkpt>
      <trkpt lat="43.49728" lon="6.80475">
        <ele>424</ele>
        <time>2011-06-03T10:20:17Z</time>
      </trkpt>
      <trkpt lat="43.49729" lon="6.80479">
        <ele>425</ele>
        <time>2011-06-03T10:20:18Z</time>
      </trkpt>
      <trkpt lat="43.49729" lon="6.80481">
        <ele>425</ele>
        <time>2011-06-03T10:20:19Z</time>
      </trkpt>
      <trkpt lat="43.49731" lon="6.80483">
        <ele>425</ele>
        <time>2011-06-03T10:20:20Z</time>
      </trkpt>
      <trkpt lat="43.49732" lon="6.80487">
        <ele>425</ele>
        <time>2011-06-03T10:20:21Z</time>
      </trkpt>
      <trkpt lat="43.49733" lon="6.80489">
        <ele>425</ele>
        <time>2011-06-03T10:20:22Z</time>
      </trkpt>
      <trkpt lat="43.49735" lon="6.8049">
        <ele>425</ele>
        <time>2011-06-03T10:20:23Z</time>
      </trkpt>
      <trkpt lat="43.49736" lon="6.80493">
        <ele>425</ele>
        <time>2011-06-03T10:20:24Z</time>
      </trkpt>
      <trkpt lat="43.49736" lon="6.80496">
        <ele>425</ele>
        <time>2011-06-03T10:20:25Z</time>
      </trkpt>
      <trkpt lat="43.49737" lon="6.80499">
        <ele>425</ele>
        <time>2011-06-03T10:20:26Z</time>
      </trkpt>
      <trkpt lat="43.49738" lon="6.80503">
        <ele>425</ele>
        <time>2011-06-03T10:20:27Z</time>
      </trkpt>
      <trkpt lat="43.49739" lon="6.80506">
        <ele>425</ele>
        <time>2011-06-03T10:20:28Z</time>
      </trkpt>
      <trkpt lat="43.49741" lon="6.80509">
        <ele>426</ele>
        <time>2011-06-03T10:20:29Z</time>
      </trkpt>
      <trkpt lat="43.49741" lon="6.80512">
        <ele>426</ele>
        <time>2011-06-03T10:20:30Z</time>
      </trkpt>
      <trkpt lat="43.49742" lon="6.80515">
        <ele>425</ele>
        <time>2011-06-03T10:20:31Z</time>
      </trkpt>
      <trkpt lat="43.49743" lon="6.80518">
        <ele>424</ele>
        <time>2011-06-03T10:20:32Z</time>
      </trkpt>
      <trkpt lat="43.49743" lon="6.80519">
        <ele>423</ele>
        <time>2011-06-03T10:20:33Z</time>
      </trkpt>
      <trkpt lat="43.49744" lon="6.80522">
        <ele>423</ele>
        <time>2011-06-03T10:20:34Z</time>
      </trkpt>
      <trkpt lat="43.49744" lon="6.80525">
        <ele>422</ele>
        <time>2011-06-03T10:20:35Z</time>
      </trkpt>
      <trkpt lat="43.49743" lon="6.80527">
        <ele>423</ele>
        <time>2011-06-03T10:20:36Z</time>
      </trkpt>
      <trkpt lat="43.49743" lon="6.8053">
        <ele>423</ele>
        <time>2011-06-03T10:20:37Z</time>
      </trkpt>
      <trkpt lat="43.49743" lon="6.80533">
        <ele>423</ele>
        <time>2011-06-03T10:20:38Z</time>
      </trkpt>
      <trkpt lat="43.49743" lon="6.80535">
        <ele>423</ele>
        <time>2011-06-03T10:20:39Z</time>
      </trkpt>
      <trkpt lat="43.49742" lon="6.80538">
        <ele>423</ele>
        <time>2011-06-03T10:20:40Z</time>
      </trkpt>
      <trkpt lat="43.49741" lon="6.80541">
        <ele>423</ele>
        <time>2011-06-03T10:20:41Z</time>
      </trkpt>
      <trkpt lat="43.4974" lon="6.80544">
        <ele>426</ele>
        <time>2011-06-03T10:20:42Z</time>
      </trkpt>
      <trkpt lat="43.49739" lon="6.80547">
        <ele>426</ele>
        <time>2011-06-03T10:20:43Z</time>
      </trkpt>
      <trkpt lat="43.49737" lon="6.8055">
        <ele>427</ele>
        <time>2011-06-03T10:20:44Z</time>
      </trkpt>
      <trkpt lat="43.49734" lon="6.80553">
        <ele>428</ele>
        <time>2011-06-03T10:20:45Z</time>
      </trkpt>
      <trkpt lat="43.49733" lon="6.80556">
        <ele>429</ele>
        <time>2011-06-03T10:20:46Z</time>
      </trkpt>
      <trkpt lat="43.49731" lon="6.8056">
        <ele>430</ele>
        <time>2011-06-03T10:20:47Z</time>
      </trkpt>
      <trkpt lat="43.49729" lon="6.80563">
        <ele>429</ele>
        <time>2011-06-03T10:20:48Z</time>
      </trkpt>
      <trkpt lat="43.49726" lon="6.80567">
        <ele>429</ele>
        <time>2011-06-03T10:20:49Z</time>
      </trkpt>
      <trkpt lat="43.49724" lon="6.80569">
        <ele>429</ele>
        <time>2011-06-03T10:20:50Z</time>
      </trkpt>
      <trkpt lat="43.49722" lon="6.80571">
        <ele>429</ele>
        <time>2011-06-03T10:20:51Z</time>
      </trkpt>
      <trkpt lat="43.4972" lon="6.80574">
        <ele>429</ele>
        <time>2011-06-03T10:20:52Z</time>
      </trkpt>
      <trkpt lat="43.49719" lon="6.80576">
        <ele>428</ele>
        <time>2011-06-03T10:20:53Z</time>
      </trkpt>
      <trkpt lat="43.49715" lon="6.80578">
        <ele>428</ele>
        <time>2011-06-03T10:20:54Z</time>
      </trkpt>
      <trkpt lat="43.49713" lon="6.80581">
        <ele>427</ele>
        <time>2011-06-03T10:20:55Z</time>
      </trkpt>
      <trkpt lat="43.4971" lon="6.80583">
        <ele>428</ele>
        <time>2011-06-03T10:20:56Z</time>
      </trkpt>
      <trkpt lat="43.49708" lon="6.80585">
        <ele>428</ele>
        <time>2011-06-03T10:20:57Z</time>
      </trkpt>
      <trkpt lat="43.49706" lon="6.80587">
        <ele>428</ele>
        <time>2011-06-03T10:20:58Z</time>
      </trkpt>
      <trkpt lat="43.49704" lon="6.8059">
        <ele>428</ele>
        <time>2011-06-03T10:20:59Z</time>
      </trkpt>
      <trkpt lat="43.49702" lon="6.80593">
        <ele>428</ele>
        <time>2011-06-03T10:21:00Z</time>
      </trkpt>
      <trkpt lat="43.497" lon="6.80595">
        <ele>428</ele>
        <time>2011-06-03T10:21:01Z</time>
      </trkpt>
      <trkpt lat="43.49698" lon="6.80597">
        <ele>428</ele>
        <time>2011-06-03T10:21:02Z</time>
      </trkpt>
      <trkpt lat="43.49695" lon="6.80599">
        <ele>428</ele>
        <time>2011-06-03T10:21:03Z</time>
      </trkpt>
      <trkpt lat="43.49693" lon="6.80601">
        <ele>428</ele>
        <time>2011-06-03T10:21:04Z</time>
      </trkpt>
      <trkpt lat="43.49691" lon="6.80603">
        <ele>428</ele>
        <time>2011-06-03T10:21:05Z</time>
      </trkpt>
      <trkpt lat="43.49689" lon="6.80605">
        <ele>429</ele>
        <time>2011-06-03T10:21:06Z</time>
      </trkpt>
      <trkpt lat="43.49687" lon="6.80606">
        <ele>429</ele>
        <time>2011-06-03T10:21:07Z</time>
      </trkpt>
      <trkpt lat="43.49685" lon="6.80606">
        <ele>430</ele>
        <time>2011-06-03T10:21:08Z</time>
      </trkpt>
      <trkpt lat="43.49684" lon="6.80608">
        <ele>430</ele>
        <time>2011-06-03T10:21:09Z</time>
      </trkpt>
      <trkpt lat="43.49683" lon="6.8061">
        <ele>430</ele>
        <time>2011-06-03T10:21:10Z</time>
      </trkpt>
      <trkpt lat="43.49681" lon="6.80613">
        <ele>429</ele>
        <time>2011-06-03T10:21:11Z</time>
      </trkpt>
      <trkpt lat="43.49681" lon="6.80617">
        <ele>429</ele>
        <time>2011-06-03T10:21:12Z</time>
      </trkpt>
      <trkpt lat="43.49681" lon="6.8062">
        <ele>429</ele>
        <time>2011-06-03T10:21:13Z</time>
      </trkpt>
      <trkpt lat="43.4968" lon="6.80623">
        <ele>429</ele>
        <time>2011-06-03T10:21:14Z</time>
      </trkpt>
      <trkpt lat="43.4968" lon="6.80625">
        <ele>429</ele>
        <time>2011-06-03T10:21:15Z</time>
      </trkpt>
      <trkpt lat="43.4968" lon="6.80629">
        <ele>429</ele>
        <time>2011-06-03T10:21:16Z</time>
      </trkpt>
      <trkpt lat="43.4968" lon="6.80633">
        <ele>428</ele>
        <time>2011-06-03T10:21:17Z</time>
      </trkpt>
      <trkpt lat="43.49683" lon="6.80634">
        <ele>429</ele>
        <time>2011-06-03T10:21:18Z</time>
      </trkpt>
      <trkpt lat="43.49685" lon="6.80636">
        <ele>430</ele>
        <time>2011-06-03T10:21:19Z</time>
      </trkpt>
      <trkpt lat="43.49686" lon="6.80637">
        <ele>431</ele>
        <time>2011-06-03T10:21:20Z</time>
      </trkpt>
      <trkpt lat="43.49688" lon="6.80638">
        <ele>431</ele>
        <time>2011-06-03T10:21:21Z</time>
      </trkpt>
      <trkpt lat="43.4969" lon="6.80638">
        <ele>432</ele>
        <time>2011-06-03T10:21:22Z</time>
      </trkpt>
      <trkpt lat="43.49692" lon="6.8064">
        <ele>432</ele>
        <time>2011-06-03T10:21:23Z</time>
      </trkpt>
      <trkpt lat="43.49694" lon="6.80642">
        <ele>432</ele>
        <time>2011-06-03T10:21:24Z</time>
      </trkpt>
      <trkpt lat="43.49697" lon="6.80644">
        <ele>432</ele>
        <time>2011-06-03T10:21:25Z</time>
      </trkpt>
      <trkpt lat="43.49698" lon="6.80647">
        <ele>432</ele>
        <time>2011-06-03T10:21:26Z</time>
      </trkpt>
      <trkpt lat="43.497" lon="6.8065">
        <ele>432</ele>
        <time>2011-06-03T10:21:27Z</time>
      </trkpt>
      <trkpt lat="43.49701" lon="6.80652">
        <ele>432</ele>
        <time>2011-06-03T10:21:28Z</time>
      </trkpt>
      <trkpt lat="43.49703" lon="6.80655">
        <ele>433</ele>
        <time>2011-06-03T10:21:29Z</time>
      </trkpt>
      <trkpt lat="43.49705" lon="6.80657">
        <ele>433</ele>
        <time>2011-06-03T10:21:30Z</time>
      </trkpt>
      <trkpt lat="43.49707" lon="6.80659">
        <ele>433</ele>
        <time>2011-06-03T10:21:31Z</time>
      </trkpt>
      <trkpt lat="43.49709" lon="6.8066">
        <ele>432</ele>
        <time>2011-06-03T10:21:32Z</time>
      </trkpt>
      <trkpt lat="43.4971" lon="6.80662">
        <ele>433</ele>
        <time>2011-06-03T10:21:33Z</time>
      </trkpt>
      <trkpt lat="43.49711" lon="6.80663">
        <ele>433</ele>
        <time>2011-06-03T10:21:34Z</time>
      </trkpt>
      <trkpt lat="43.49714" lon="6.80665">
        <ele>433</ele>
        <time>2011-06-03T10:21:35Z</time>
      </trkpt>
      <trkpt lat="43.49716" lon="6.80667">
        <ele>433</ele>
        <time>2011-06-03T10:21:36Z</time>
      </trkpt>
      <trkpt lat="43.49718" lon="6.80671">
        <ele>433</ele>
        <time>2011-06-03T10:21:37Z</time>
      </trkpt>
      <trkpt lat="43.49721" lon="6.80674">
        <ele>433</ele>
        <time>2011-06-03T10:21:38Z</time>
      </trkpt>
      <trkpt lat="43.49722" lon="6.80678">
        <ele>432</ele>
        <time>2011-06-03T10:21:39Z</time>
      </trkpt>
      <trkpt lat="43.49724" lon="6.80681">
        <ele>432</ele>
        <time>2011-06-03T10:21:40Z</time>
      </trkpt>
      <trkpt lat="43.49726" lon="6.80685">
        <ele>432</ele>
        <time>2011-06-03T10:21:41Z</time>
      </trkpt>
      <trkpt lat="43.49728" lon="6.80689">
        <ele>432</ele>
        <time>2011-06-03T10:21:42Z</time>
      </trkpt>
      <trkpt lat="43.49729" lon="6.80693">
        <ele>431</ele>
        <time>2011-06-03T10:21:43Z</time>
      </trkpt>
      <trkpt lat="43.4973" lon="6.80696">
        <ele>431</ele>
        <time>2011-06-03T10:21:44Z</time>
      </trkpt>
      <trkpt lat="43.49731" lon="6.807">
        <ele>431</ele>
        <time>2011-06-03T10:21:45Z</time>
      </trkpt>
      <trkpt lat="43.49732" lon="6.80704">
        <ele>430</ele>
        <time>2011-06-03T10:21:46Z</time>
      </trkpt>
      <trkpt lat="43.49733" lon="6.80708">
        <ele>431</ele>
        <time>2011-06-03T10:21:47Z</time>
      </trkpt>
      <trkpt lat="43.49734" lon="6.80711">
        <ele>431</ele>
        <time>2011-06-03T10:21:48Z</time>
      </trkpt>
      <trkpt lat="43.49735" lon="6.80714">
        <ele>430</ele>
        <time>2011-06-03T10:21:49Z</time>
      </trkpt>
      <trkpt lat="43.49735" lon="6.80717">
        <ele>430</ele>
        <time>2011-06-03T10:21:50Z</time>
      </trkpt>
      <trkpt lat="43.49736" lon="6.80722">
        <ele>429</ele>
        <time>2011-06-03T10:21:51Z</time>
      </trkpt>
      <trkpt lat="43.49737" lon="6.80726">
        <ele>429</ele>
        <time>2011-06-03T10:21:52Z</time>
      </trkpt>
      <trkpt lat="43.49738" lon="6.8073">
        <ele>429</ele>
        <time>2011-06-03T10:21:53Z</time>
      </trkpt>
      <trkpt lat="43.49737" lon="6.80734">
        <ele>429</ele>
        <time>2011-06-03T10:21:54Z</time>
      </trkpt>
      <trkpt lat="43.49738" lon="6.80737">
        <ele>429</ele>
        <time>2011-06-03T10:21:55Z</time>
      </trkpt>
      <trkpt lat="43.49739" lon="6.80741">
        <ele>429</ele>
        <time>2011-06-03T10:21:56Z</time>
      </trkpt>
      <trkpt lat="43.49739" lon="6.80744">
        <ele>429</ele>
        <time>2011-06-03T10:21:57Z</time>
      </trkpt>
      <trkpt lat="43.49741" lon="6.80748">
        <ele>428</ele>
        <time>2011-06-03T10:21:58Z</time>
      </trkpt>
      <trkpt lat="43.49739" lon="6.80753">
        <ele>428</ele>
        <time>2011-06-03T10:21:59Z</time>
      </trkpt>
      <trkpt lat="43.49741" lon="6.80756">
        <ele>427</ele>
        <time>2011-06-03T10:22:00Z</time>
      </trkpt>
      <trkpt lat="43.49742" lon="6.80759">
        <ele>427</ele>
        <time>2011-06-03T10:22:01Z</time>
      </trkpt>
      <trkpt lat="43.49743" lon="6.80762">
        <ele>427</ele>
        <time>2011-06-03T10:22:02Z</time>
      </trkpt>
      <trkpt lat="43.49742" lon="6.80766">
        <ele>426</ele>
        <time>2011-06-03T10:22:03Z</time>
      </trkpt>
      <trkpt lat="43.49742" lon="6.80768">
        <ele>426</ele>
        <time>2011-06-03T10:22:04Z</time>
      </trkpt>
      <trkpt lat="43.49742" lon="6.80774">
        <ele>425</ele>
        <time>2011-06-03T10:22:05Z</time>
      </trkpt>
      <trkpt lat="43.49742" lon="6.80777">
        <ele>425</ele>
        <time>2011-06-03T10:22:06Z</time>
      </trkpt>
      <trkpt lat="43.49742" lon="6.80781">
        <ele>425</ele>
        <time>2011-06-03T10:22:07Z</time>
      </trkpt>
      <trkpt lat="43.49742" lon="6.80784">
        <ele>426</ele>
        <time>2011-06-03T10:22:08Z</time>
      </trkpt>
      <trkpt lat="43.49742" lon="6.80788">
        <ele>427</ele>
        <time>2011-06-03T10:22:09Z</time>
      </trkpt>
      <trkpt lat="43.49742" lon="6.80791">
        <ele>427</ele>
        <time>2011-06-03T10:22:10Z</time>
      </trkpt>
      <trkpt lat="43.49742" lon="6.80795">
        <ele>427</ele>
        <time>2011-06-03T10:22:11Z</time>
      </trkpt>
      <trkpt lat="43.49742" lon="6.80799">
        <ele>428</ele>
        <time>2011-06-03T10:22:12Z</time>
      </trkpt>
      <trkpt lat="43.49742" lon="6.80802">
        <ele>428</ele>
        <time>2011-06-03T10:22:13Z</time>
      </trkpt>
      <trkpt lat="43.49744" lon="6.80805">
        <ele>427</ele>
        <time>2011-06-03T10:22:14Z</time>
      </trkpt>
      <trkpt lat="43.49744" lon="6.80809">
        <ele>427</ele>
        <time>2011-06-03T10:22:15Z</time>
      </trkpt>
      <trkpt lat="43.49744" lon="6.80812">
        <ele>427</ele>
        <time>2011-06-03T10:22:16Z</time>
      </trkpt>
      <trkpt lat="43.49745" lon="6.80815">
        <ele>427</ele>
        <time>2011-06-03T10:22:17Z</time>
      </trkpt>
      <trkpt lat="43.49745" lon="6.80817">
        <ele>427</ele>
        <time>2011-06-03T10:22:18Z</time>
      </trkpt>
      <trkpt lat="43.49746" lon="6.80822">
        <ele>427</ele>
        <time>2011-06-03T10:22:19Z</time>
      </trkpt>
      <trkpt lat="43.49744" lon="6.80826">
        <ele>427</ele>
        <time>2011-06-03T10:22:20Z</time>
      </trkpt>
      <trkpt lat="43.49744" lon="6.80829">
        <ele>427</ele>
        <time>2011-06-03T10:22:21Z</time>
      </trkpt>
      <trkpt lat="43.49745" lon="6.80833">
        <ele>426</ele>
        <time>2011-06-03T10:22:22Z</time>
      </trkpt>
      <trkpt lat="43.49745" lon="6.80835">
        <ele>426</ele>
        <time>2011-06-03T10:22:23Z</time>
      </trkpt>
      <trkpt lat="43.49745" lon="6.80839">
        <ele>426</ele>
        <time>2011-06-03T10:22:24Z</time>
      </trkpt>
      <trkpt lat="43.49746" lon="6.80842">
        <ele>426</ele>
        <time>2011-06-03T10:22:25Z</time>
      </trkpt>
      <trkpt lat="43.49748" lon="6.80844">
        <ele>425</ele>
        <time>2011-06-03T10:22:26Z</time>
      </trkpt>
      <trkpt lat="43.4975" lon="6.80848">
        <ele>424</ele>
        <time>2011-06-03T10:22:27Z</time>
      </trkpt>
      <trkpt lat="43.4975" lon="6.80851">
        <ele>423</ele>
        <time>2011-06-03T10:22:28Z</time>
      </trkpt>
      <trkpt lat="43.49751" lon="6.80854">
        <ele>423</ele>
        <time>2011-06-03T10:22:29Z</time>
      </trkpt>
      <trkpt lat="43.49752" lon="6.80858">
        <ele>423</ele>
        <time>2011-06-03T10:22:30Z</time>
      </trkpt>
      <trkpt lat="43.49754" lon="6.80862">
        <ele>423</ele>
        <time>2011-06-03T10:22:31Z</time>
      </trkpt>
      <trkpt lat="43.49755" lon="6.80864">
        <ele>423</ele>
        <time>2011-06-03T10:22:32Z</time>
      </trkpt>
      <trkpt lat="43.49756" lon="6.80868">
        <ele>423</ele>
        <time>2011-06-03T10:22:33Z</time>
      </trkpt>
      <trkpt lat="43.49757" lon="6.80871">
        <ele>423</ele>
        <time>2011-06-03T10:22:34Z</time>
      </trkpt>
      <trkpt lat="43.49759" lon="6.80874">
        <ele>422</ele>
        <time>2011-06-03T10:22:35Z</time>
      </trkpt>
      <trkpt lat="43.49761" lon="6.80877">
        <ele>422</ele>
        <time>2011-06-03T10:22:36Z</time>
      </trkpt>
      <trkpt lat="43.49762" lon="6.8088">
        <ele>422</ele>
        <time>2011-06-03T10:22:37Z</time>
      </trkpt>
      <trkpt lat="43.49764" lon="6.80883">
        <ele>422</ele>
        <time>2011-06-03T10:22:38Z</time>
      </trkpt>
      <trkpt lat="43.49765" lon="6.80884">
        <ele>421</ele>
        <time>2011-06-03T10:22:39Z</time>
      </trkpt>
      <trkpt lat="43.49765" lon="6.80886">
        <ele>421</ele>
        <time>2011-06-03T10:22:40Z</time>
      </trkpt>
      <trkpt lat="43.49768" lon="6.80889">
        <ele>423</ele>
        <time>2011-06-03T10:22:41Z</time>
      </trkpt>
      <trkpt lat="43.49769" lon="6.80891">
        <ele>423</ele>
        <time>2011-06-03T10:22:42Z</time>
      </trkpt>
      <trkpt lat="43.49772" lon="6.80893">
        <ele>424</ele>
        <time>2011-06-03T10:22:43Z</time>
      </trkpt>
      <trkpt lat="43.49773" lon="6.80894">
        <ele>424</ele>
        <time>2011-06-03T10:22:44Z</time>
      </trkpt>
      <trkpt lat="43.49775" lon="6.80895">
        <ele>425</ele>
        <time>2011-06-03T10:22:45Z</time>
      </trkpt>
      <trkpt lat="43.49777" lon="6.80896">
        <ele>425</ele>
        <time>2011-06-03T10:22:46Z</time>
      </trkpt>
      <trkpt lat="43.49779" lon="6.80898">
        <ele>425</ele>
        <time>2011-06-03T10:22:47Z</time>
      </trkpt>
      <trkpt lat="43.49781" lon="6.80899">
        <ele>426</ele>
        <time>2011-06-03T10:22:48Z</time>
      </trkpt>
      <trkpt lat="43.49782" lon="6.80899">
        <ele>426</ele>
        <time>2011-06-03T10:22:49Z</time>
      </trkpt>
      <trkpt lat="43.49783" lon="6.80901">
        <ele>427</ele>
        <time>2011-06-03T10:22:50Z</time>
      </trkpt>
      <trkpt lat="43.49786" lon="6.80901">
        <ele>427</ele>
        <time>2011-06-03T10:22:51Z</time>
      </trkpt>
      <trkpt lat="43.49788" lon="6.80902">
        <ele>427</ele>
        <time>2011-06-03T10:22:52Z</time>
      </trkpt>
      <trkpt lat="43.4979" lon="6.80903">
        <ele>427</ele>
        <time>2011-06-03T10:22:53Z</time>
      </trkpt>
      <trkpt lat="43.49793" lon="6.80904">
        <ele>427</ele>
        <time>2011-06-03T10:22:54Z</time>
      </trkpt>
      <trkpt lat="43.49795" lon="6.80906">
        <ele>429</ele>
        <time>2011-06-03T10:22:55Z</time>
      </trkpt>
      <trkpt lat="43.49797" lon="6.80908">
        <ele>431</ele>
        <time>2011-06-03T10:22:56Z</time>
      </trkpt>
      <trkpt lat="43.49799" lon="6.8091">
        <ele>431</ele>
        <time>2011-06-03T10:22:57Z</time>
      </trkpt>
      <trkpt lat="43.49801" lon="6.8091">
        <ele>431</ele>
        <time>2011-06-03T10:22:58Z</time>
      </trkpt>
      <trkpt lat="43.49803" lon="6.8091">
        <ele>431</ele>
        <time>2011-06-03T10:22:59Z</time>
      </trkpt>
      <trkpt lat="43.49806" lon="6.80911">
        <ele>432</ele>
        <time>2011-06-03T10:23:00Z</time>
      </trkpt>
      <trkpt lat="43.49808" lon="6.80914">
        <ele>433</ele>
        <time>2011-06-03T10:23:01Z</time>
      </trkpt>
      <trkpt lat="43.49809" lon="6.80914">
        <ele>433</ele>
        <time>2011-06-03T10:23:02Z</time>
      </trkpt>
      <trkpt lat="43.49812" lon="6.80916">
        <ele>433</ele>
        <time>2011-06-03T10:23:03Z</time>
      </trkpt>
      <trkpt lat="43.49814" lon="6.80917">
        <ele>433</ele>
        <time>2011-06-03T10:23:04Z</time>
      </trkpt>
      <trkpt lat="43.49816" lon="6.80918">
        <ele>434</ele>
        <time>2011-06-03T10:23:05Z</time>
      </trkpt>
      <trkpt lat="43.49818" lon="6.80918">
        <ele>434</ele>
        <time>2011-06-03T10:23:06Z</time>
      </trkpt>
      <trkpt lat="43.49819" lon="6.8092">
        <ele>434</ele>
        <time>2011-06-03T10:23:07Z</time>
      </trkpt>
      <trkpt lat="43.49822" lon="6.80921">
        <ele>434</ele>
        <time>2011-06-03T10:23:08Z</time>
      </trkpt>
      <trkpt lat="43.49824" lon="6.80922">
        <ele>434</ele>
        <time>2011-06-03T10:23:09Z</time>
      </trkpt>
      <trkpt lat="43.49826" lon="6.80923">
        <ele>434</ele>
        <time>2011-06-03T10:23:10Z</time>
      </trkpt>
      <trkpt lat="43.49828" lon="6.80923">
        <ele>434</ele>
        <time>2011-06-03T10:23:11Z</time>
      </trkpt>
      <trkpt lat="43.49831" lon="6.80924">
        <ele>434</ele>
        <time>2011-06-03T10:23:12Z</time>
      </trkpt>
      <trkpt lat="43.49833" lon="6.80925">
        <ele>434</ele>
        <time>2011-06-03T10:23:13Z</time>
      </trkpt>
      <trkpt lat="43.49835" lon="6.80927">
        <ele>434</ele>
        <time>2011-06-03T10:23:14Z</time>
      </trkpt>
      <trkpt lat="43.49838" lon="6.80929">
        <ele>433</ele>
        <time>2011-06-03T10:23:15Z</time>
      </trkpt>
      <trkpt lat="43.4984" lon="6.80931">
        <ele>433</ele>
        <time>2011-06-03T10:23:16Z</time>
      </trkpt>
      <trkpt lat="43.49842" lon="6.80932">
        <ele>433</ele>
        <time>2011-06-03T10:23:17Z</time>
      </trkpt>
      <trkpt lat="43.49844" lon="6.80932">
        <ele>432</ele>
        <time>2011-06-03T10:23:18Z</time>
      </trkpt>
      <trkpt lat="43.49847" lon="6.80932">
        <ele>432</ele>
        <time>2011-06-03T10:23:19Z</time>
      </trkpt>
      <trkpt lat="43.49848" lon="6.80933">
        <ele>432</ele>
        <time>2011-06-03T10:23:20Z</time>
      </trkpt>
      <trkpt lat="43.4985" lon="6.80934">
        <ele>433</ele>
        <time>2011-06-03T10:23:21Z</time>
      </trkpt>
      <trkpt lat="43.49852" lon="6.80935">
        <ele>433</ele>
        <time>2011-06-03T10:23:22Z</time>
      </trkpt>
      <trkpt lat="43.49854" lon="6.80936">
        <ele>433</ele>
        <time>2011-06-03T10:23:23Z</time>
      </trkpt>
      <trkpt lat="43.49854" lon="6.80936">
        <ele>433.39630126953</ele>
        <time>2011-06-03T10:23:24Z</time>
      </trkpt>
      <trkpt lat="43.49858" lon="6.80938">
        <ele>434</ele>
        <time>2011-06-03T10:23:25Z</time>
      </trkpt>
      <trkpt lat="43.4986" lon="6.8094">
        <ele>434</ele>
        <time>2011-06-03T10:23:26Z</time>
      </trkpt>
      <trkpt lat="43.49861" lon="6.8094">
        <ele>435</ele>
        <time>2011-06-03T10:23:27Z</time>
      </trkpt>
      <trkpt lat="43.49864" lon="6.8094">
        <ele>435</ele>
        <time>2011-06-03T10:23:28Z</time>
      </trkpt>
      <trkpt lat="43.49866" lon="6.80942">
        <ele>436</ele>
        <time>2011-06-03T10:23:29Z</time>
      </trkpt>
      <trkpt lat="43.49868" lon="6.80943">
        <ele>436</ele>
        <time>2011-06-03T10:23:30Z</time>
      </trkpt>
      <trkpt lat="43.4987" lon="6.80944">
        <ele>436</ele>
        <time>2011-06-03T10:23:31Z</time>
      </trkpt>
      <trkpt lat="43.49871" lon="6.80945">
        <ele>436</ele>
        <time>2011-06-03T10:23:32Z</time>
      </trkpt>
      <trkpt lat="43.49874" lon="6.80946">
        <ele>435</ele>
        <time>2011-06-03T10:23:33Z</time>
      </trkpt>
      <trkpt lat="43.49877" lon="6.80947">
        <ele>435</ele>
        <time>2011-06-03T10:23:34Z</time>
      </trkpt>
      <trkpt lat="43.49879" lon="6.80948">
        <ele>436</ele>
        <time>2011-06-03T10:23:35Z</time>
      </trkpt>
      <trkpt lat="43.49881" lon="6.80948">
        <ele>436</ele>
        <time>2011-06-03T10:23:36Z</time>
      </trkpt>
      <trkpt lat="43.49883" lon="6.80949">
        <ele>435</ele>
        <time>2011-06-03T10:23:37Z</time>
      </trkpt>
      <trkpt lat="43.49885" lon="6.80951">
        <ele>435</ele>
        <time>2011-06-03T10:23:38Z</time>
      </trkpt>
      <trkpt lat="43.49886" lon="6.80951">
        <ele>435</ele>
        <time>2011-06-03T10:23:39Z</time>
      </trkpt>
      <trkpt lat="43.49889" lon="6.80952">
        <ele>435</ele>
        <time>2011-06-03T10:23:40Z</time>
      </trkpt>
      <trkpt lat="43.49891" lon="6.80953">
        <ele>435</ele>
        <time>2011-06-03T10:23:41Z</time>
      </trkpt>
      <trkpt lat="43.49893" lon="6.80954">
        <ele>436</ele>
        <time>2011-06-03T10:23:42Z</time>
      </trkpt>
      <trkpt lat="43.49896" lon="6.80955">
        <ele>436</ele>
        <time>2011-06-03T10:23:43Z</time>
      </trkpt>
      <trkpt lat="43.49898" lon="6.80955">
        <ele>437</ele>
        <time>2011-06-03T10:23:44Z</time>
      </trkpt>
      <trkpt lat="43.499" lon="6.80957">
        <ele>436</ele>
        <time>2011-06-03T10:23:45Z</time>
      </trkpt>
      <trkpt lat="43.49903" lon="6.80957">
        <ele>436</ele>
        <time>2011-06-03T10:23:46Z</time>
      </trkpt>
      <trkpt lat="43.49905" lon="6.80957">
        <ele>436</ele>
        <time>2011-06-03T10:23:47Z</time>
      </trkpt>
      <trkpt lat="43.49907" lon="6.80958">
        <ele>436</ele>
        <time>2011-06-03T10:23:48Z</time>
      </trkpt>
      <trkpt lat="43.49909" lon="6.80958">
        <ele>436</ele>
        <time>2011-06-03T10:23:49Z</time>
      </trkpt>
      <trkpt lat="43.49911" lon="6.80959">
        <ele>436</ele>
        <time>2011-06-03T10:23:50Z</time>
      </trkpt>
      <trkpt lat="43.49913" lon="6.8096">
        <ele>437</ele>
        <time>2011-06-03T10:23:51Z</time>
      </trkpt>
      <trkpt lat="43.49915" lon="6.80961">
        <ele>437</ele>
        <time>2011-06-03T10:23:52Z</time>
      </trkpt>
      <trkpt lat="43.49918" lon="6.80962">
        <ele>438</ele>
        <time>2011-06-03T10:23:53Z</time>
      </trkpt>
      <trkpt lat="43.49919" lon="6.80964">
        <ele>437</ele>
        <time>2011-06-03T10:23:54Z</time>
      </trkpt>
      <trkpt lat="43.49921" lon="6.80965">
        <ele>438</ele>
        <time>2011-06-03T10:23:55Z</time>
      </trkpt>
      <trkpt lat="43.49922" lon="6.80966">
        <ele>437</ele>
        <time>2011-06-03T10:23:56Z</time>
      </trkpt>
      <trkpt lat="43.49924" lon="6.80968">
        <ele>437</ele>
        <time>2011-06-03T10:23:57Z</time>
      </trkpt>
      <trkpt lat="43.49925" lon="6.80969">
        <ele>438</ele>
        <time>2011-06-03T10:23:58Z</time>
      </trkpt>
      <trkpt lat="43.49927" lon="6.8097">
        <ele>438</ele>
        <time>2011-06-03T10:23:59Z</time>
      </trkpt>
      <trkpt lat="43.49928" lon="6.80972">
        <ele>438</ele>
        <time>2011-06-03T10:24:00Z</time>
      </trkpt>
      <trkpt lat="43.4993" lon="6.80973">
        <ele>438</ele>
        <time>2011-06-03T10:24:01Z</time>
      </trkpt>
      <trkpt lat="43.49931" lon="6.80975">
        <ele>438</ele>
        <time>2011-06-03T10:24:02Z</time>
      </trkpt>
      <trkpt lat="43.49933" lon="6.80976">
        <ele>440</ele>
        <time>2011-06-03T10:24:03Z</time>
      </trkpt>
      <trkpt lat="43.49934" lon="6.80978">
        <ele>440</ele>
        <time>2011-06-03T10:24:04Z</time>
      </trkpt>
      <trkpt lat="43.49935" lon="6.80979">
        <ele>439</ele>
        <time>2011-06-03T10:24:05Z</time>
      </trkpt>
      <trkpt lat="43.49937" lon="6.80981">
        <ele>439</ele>
        <time>2011-06-03T10:24:06Z</time>
      </trkpt>
      <trkpt lat="43.49938" lon="6.80981">
        <ele>438</ele>
        <time>2011-06-03T10:24:07Z</time>
      </trkpt>
      <trkpt lat="43.49939" lon="6.80982">
        <ele>438</ele>
        <time>2011-06-03T10:24:08Z</time>
      </trkpt>
      <trkpt lat="43.49942" lon="6.80984">
        <ele>439</ele>
        <time>2011-06-03T10:24:09Z</time>
      </trkpt>
      <trkpt lat="43.49944" lon="6.80986">
        <ele>440</ele>
        <time>2011-06-03T10:24:10Z</time>
      </trkpt>
      <trkpt lat="43.49945" lon="6.80987">
        <ele>440</ele>
        <time>2011-06-03T10:24:11Z</time>
      </trkpt>
      <trkpt lat="43.49948" lon="6.80987">
        <ele>441</ele>
        <time>2011-06-03T10:24:12Z</time>
      </trkpt>
      <trkpt lat="43.4995" lon="6.80988">
        <ele>442</ele>
        <time>2011-06-03T10:24:13Z</time>
      </trkpt>
      <trkpt lat="43.49952" lon="6.8099">
        <ele>443</ele>
        <time>2011-06-03T10:24:14Z</time>
      </trkpt>
      <trkpt lat="43.49954" lon="6.80991">
        <ele>444</ele>
        <time>2011-06-03T10:24:15Z</time>
      </trkpt>
      <trkpt lat="43.49956" lon="6.80992">
        <ele>444</ele>
        <time>2011-06-03T10:24:16Z</time>
      </trkpt>
      <trkpt lat="43.49958" lon="6.80994">
        <ele>445</ele>
        <time>2011-06-03T10:24:17Z</time>
      </trkpt>
      <trkpt lat="43.4996" lon="6.80995">
        <ele>445</ele>
        <time>2011-06-03T10:24:18Z</time>
      </trkpt>
      <trkpt lat="43.49963" lon="6.80996">
        <ele>444</ele>
        <time>2011-06-03T10:24:19Z</time>
      </trkpt>
      <trkpt lat="43.49965" lon="6.80998">
        <ele>444</ele>
        <time>2011-06-03T10:24:20Z</time>
      </trkpt>
      <trkpt lat="43.49966" lon="6.81">
        <ele>444</ele>
        <time>2011-06-03T10:24:21Z</time>
      </trkpt>
      <trkpt lat="43.49968" lon="6.81002">
        <ele>444</ele>
        <time>2011-06-03T10:24:22Z</time>
      </trkpt>
      <trkpt lat="43.4997" lon="6.81003">
        <ele>444</ele>
        <time>2011-06-03T10:24:23Z</time>
      </trkpt>
      <trkpt lat="43.49972" lon="6.81004">
        <ele>444</ele>
        <time>2011-06-03T10:24:24Z</time>
      </trkpt>
      <trkpt lat="43.49973" lon="6.81006">
        <ele>444</ele>
        <time>2011-06-03T10:24:25Z</time>
      </trkpt>
      <trkpt lat="43.49974" lon="6.81008">
        <ele>444</ele>
        <time>2011-06-03T10:24:26Z</time>
      </trkpt>
      <trkpt lat="43.49976" lon="6.81011">
        <ele>444</ele>
        <time>2011-06-03T10:24:27Z</time>
      </trkpt>
      <trkpt lat="43.49976" lon="6.81013">
        <ele>444</ele>
        <time>2011-06-03T10:24:28Z</time>
      </trkpt>
      <trkpt lat="43.49977" lon="6.81013">
        <ele>444</ele>
        <time>2011-06-03T10:24:29Z</time>
      </trkpt>
      <trkpt lat="43.49977" lon="6.81013">
        <ele>444.80963134766</ele>
        <time>2011-06-03T10:24:30Z</time>
      </trkpt>
      <trkpt lat="43.49977" lon="6.81013">
        <ele>444</ele>
        <time>2011-06-03T10:24:31Z</time>
      </trkpt>
      <trkpt lat="43.49977" lon="6.81013">
        <ele>444</ele>
        <time>2011-06-03T10:24:32Z</time>
      </trkpt>
      <trkpt lat="43.49977" lon="6.81013">
        <ele>444</ele>
        <time>2011-06-03T10:24:33Z</time>
      </trkpt>
      <trkpt lat="43.49977" lon="6.81013">
        <ele>444</ele>
        <time>2011-06-03T10:24:34Z</time>
      </trkpt>
      <trkpt lat="43.49977" lon="6.81014">
        <ele>445</ele>
        <time>2011-06-03T10:24:35Z</time>
      </trkpt>
      <trkpt lat="43.49978" lon="6.81016">
        <ele>444</ele>
        <time>2011-06-03T10:24:36Z</time>
      </trkpt>
      <trkpt lat="43.49979" lon="6.81017">
        <ele>445</ele>
        <time>2011-06-03T10:24:37Z</time>
      </trkpt>
      <trkpt lat="43.4998" lon="6.81018">
        <ele>445</ele>
        <time>2011-06-03T10:24:38Z</time>
      </trkpt>
      <trkpt lat="43.49982" lon="6.81018">
        <ele>447</ele>
        <time>2011-06-03T10:24:39Z</time>
      </trkpt>
      <trkpt lat="43.49984" lon="6.81019">
        <ele>449</ele>
        <time>2011-06-03T10:24:40Z</time>
      </trkpt>
      <trkpt lat="43.49985" lon="6.8102">
        <ele>449</ele>
        <time>2011-06-03T10:24:41Z</time>
      </trkpt>
      <trkpt lat="43.49987" lon="6.81022">
        <ele>449</ele>
        <time>2011-06-03T10:24:42Z</time>
      </trkpt>
      <trkpt lat="43.49988" lon="6.81023">
        <ele>450</ele>
        <time>2011-06-03T10:24:43Z</time>
      </trkpt>
      <trkpt lat="43.49989" lon="6.81025">
        <ele>450</ele>
        <time>2011-06-03T10:24:44Z</time>
      </trkpt>
      <trkpt lat="43.4999" lon="6.81025">
        <ele>450</ele>
        <time>2011-06-03T10:24:45Z</time>
      </trkpt>
      <trkpt lat="43.49992" lon="6.81025">
        <ele>449</ele>
        <time>2011-06-03T10:24:46Z</time>
      </trkpt>
      <trkpt lat="43.49993" lon="6.81026">
        <ele>450</ele>
        <time>2011-06-03T10:24:47Z</time>
      </trkpt>
      <trkpt lat="43.49995" lon="6.81027">
        <ele>450</ele>
        <time>2011-06-03T10:24:48Z</time>
      </trkpt>
      <trkpt lat="43.49996" lon="6.81028">
        <ele>449</ele>
        <time>2011-06-03T10:24:49Z</time>
      </trkpt>
      <trkpt lat="43.49997" lon="6.81029">
        <ele>449</ele>
        <time>2011-06-03T10:24:50Z</time>
      </trkpt>
      <trkpt lat="43.5" lon="6.81031">
        <ele>449</ele>
        <time>2011-06-03T10:24:51Z</time>
      </trkpt>
      <trkpt lat="43.50001" lon="6.81031">
        <ele>449</ele>
        <time>2011-06-03T10:24:52Z</time>
      </trkpt>
      <trkpt lat="43.50003" lon="6.81033">
        <ele>450</ele>
        <time>2011-06-03T10:24:53Z</time>
      </trkpt>
      <trkpt lat="43.50005" lon="6.81033">
        <ele>451</ele>
        <time>2011-06-03T10:24:54Z</time>
      </trkpt>
      <trkpt lat="43.50006" lon="6.81035">
        <ele>451</ele>
        <time>2011-06-03T10:24:55Z</time>
      </trkpt>
      <trkpt lat="43.50007" lon="6.81035">
        <ele>451</ele>
        <time>2011-06-03T10:24:56Z</time>
      </trkpt>
      <trkpt lat="43.50009" lon="6.81035">
        <ele>451</ele>
        <time>2011-06-03T10:24:57Z</time>
      </trkpt>
      <trkpt lat="43.50011" lon="6.81037">
        <ele>451</ele>
        <time>2011-06-03T10:24:58Z</time>
      </trkpt>
      <trkpt lat="43.50013" lon="6.81038">
        <ele>452</ele>
        <time>2011-06-03T10:24:59Z</time>
      </trkpt>
      <trkpt lat="43.50015" lon="6.81039">
        <ele>453</ele>
        <time>2011-06-03T10:25:00Z</time>
      </trkpt>
      <trkpt lat="43.50016" lon="6.81039">
        <ele>453</ele>
        <time>2011-06-03T10:25:01Z</time>
      </trkpt>
      <trkpt lat="43.50017" lon="6.8104">
        <ele>453</ele>
        <time>2011-06-03T10:25:02Z</time>
      </trkpt>
      <trkpt lat="43.50019" lon="6.8104">
        <ele>453</ele>
        <time>2011-06-03T10:25:03Z</time>
      </trkpt>
      <trkpt lat="43.5002" lon="6.81041">
        <ele>453</ele>
        <time>2011-06-03T10:25:04Z</time>
      </trkpt>
      <trkpt lat="43.50022" lon="6.81041">
        <ele>453</ele>
        <time>2011-06-03T10:25:05Z</time>
      </trkpt>
      <trkpt lat="43.50023" lon="6.81042">
        <ele>452</ele>
        <time>2011-06-03T10:25:06Z</time>
      </trkpt>
      <trkpt lat="43.50024" lon="6.81042">
        <ele>452</ele>
        <time>2011-06-03T10:25:07Z</time>
      </trkpt>
      <trkpt lat="43.50024" lon="6.81043">
        <ele>452</ele>
        <time>2011-06-03T10:25:08Z</time>
      </trkpt>
      <trkpt lat="43.50025" lon="6.81043">
        <ele>452</ele>
        <time>2011-06-03T10:25:09Z</time>
      </trkpt>
      <trkpt lat="43.50026" lon="6.81043">
        <ele>451</ele>
        <time>2011-06-03T10:25:10Z</time>
      </trkpt>
      <trkpt lat="43.50029" lon="6.81046">
        <ele>450</ele>
        <time>2011-06-03T10:25:11Z</time>
      </trkpt>
      <trkpt lat="43.50032" lon="6.81047">
        <ele>449</ele>
        <time>2011-06-03T10:25:12Z</time>
      </trkpt>
      <trkpt lat="43.50033" lon="6.81048">
        <ele>448</ele>
        <time>2011-06-03T10:25:13Z</time>
      </trkpt>
      <trkpt lat="43.50035" lon="6.81049">
        <ele>448</ele>
        <time>2011-06-03T10:25:14Z</time>
      </trkpt>
      <trkpt lat="43.50037" lon="6.81049">
        <ele>448</ele>
        <time>2011-06-03T10:25:15Z</time>
      </trkpt>
      <trkpt lat="43.50038" lon="6.8105">
        <ele>448</ele>
        <time>2011-06-03T10:25:16Z</time>
      </trkpt>
      <trkpt lat="43.5004" lon="6.81051">
        <ele>448</ele>
        <time>2011-06-03T10:25:17Z</time>
      </trkpt>
      <trkpt lat="43.50041" lon="6.81052">
        <ele>449</ele>
        <time>2011-06-03T10:25:18Z</time>
      </trkpt>
      <trkpt lat="43.50043" lon="6.81053">
        <ele>449</ele>
        <time>2011-06-03T10:25:19Z</time>
      </trkpt>
      <trkpt lat="43.50044" lon="6.81053">
        <ele>449</ele>
        <time>2011-06-03T10:25:20Z</time>
      </trkpt>
      <trkpt lat="43.50046" lon="6.81052">
        <ele>450</ele>
        <time>2011-06-03T10:25:21Z</time>
      </trkpt>
      <trkpt lat="43.50047" lon="6.81051">
        <ele>450</ele>
        <time>2011-06-03T10:25:22Z</time>
      </trkpt>
      <trkpt lat="43.50048" lon="6.8105">
        <ele>451</ele>
        <time>2011-06-03T10:25:23Z</time>
      </trkpt>
      <trkpt lat="43.5005" lon="6.8105">
        <ele>451</ele>
        <time>2011-06-03T10:25:24Z</time>
      </trkpt>
      <trkpt lat="43.50052" lon="6.81053">
        <ele>452</ele>
        <time>2011-06-03T10:25:25Z</time>
      </trkpt>
      <trkpt lat="43.50053" lon="6.81054">
        <ele>453</ele>
        <time>2011-06-03T10:25:26Z</time>
      </trkpt>
      <trkpt lat="43.50054" lon="6.81054">
        <ele>453</ele>
        <time>2011-06-03T10:25:27Z</time>
      </trkpt>
      <trkpt lat="43.50055" lon="6.81055">
        <ele>453</ele>
        <time>2011-06-03T10:25:28Z</time>
      </trkpt>
      <trkpt lat="43.50056" lon="6.81054">
        <ele>454</ele>
        <time>2011-06-03T10:25:29Z</time>
      </trkpt>
      <trkpt lat="43.50058" lon="6.81054">
        <ele>454</ele>
        <time>2011-06-03T10:25:30Z</time>
      </trkpt>
      <trkpt lat="43.50059" lon="6.81054">
        <ele>453</ele>
        <time>2011-06-03T10:25:31Z</time>
      </trkpt>
      <trkpt lat="43.50061" lon="6.81054">
        <ele>454</ele>
        <time>2011-06-03T10:25:32Z</time>
      </trkpt>
      <trkpt lat="43.50064" lon="6.81051">
        <ele>454</ele>
        <time>2011-06-03T10:25:33Z</time>
      </trkpt>
      <trkpt lat="43.50066" lon="6.81051">
        <ele>455</ele>
        <time>2011-06-03T10:25:34Z</time>
      </trkpt>
      <trkpt lat="43.50068" lon="6.81051">
        <ele>455</ele>
        <time>2011-06-03T10:25:36Z</time>
      </trkpt>
      <trkpt lat="43.50068" lon="6.81051">
        <ele>454.99609375</ele>
        <time>2011-06-03T10:25:36Z</time>
      </trkpt>
      <trkpt lat="43.50071" lon="6.81052">
        <ele>454</ele>
        <time>2011-06-03T10:25:37Z</time>
      </trkpt>
      <trkpt lat="43.50073" lon="6.81052">
        <ele>454</ele>
        <time>2011-06-03T10:25:38Z</time>
      </trkpt>
      <trkpt lat="43.50075" lon="6.81053">
        <ele>454</ele>
        <time>2011-06-03T10:25:39Z</time>
      </trkpt>
      <trkpt lat="43.50077" lon="6.81052">
        <ele>453</ele>
        <time>2011-06-03T10:25:40Z</time>
      </trkpt>
      <trkpt lat="43.5008" lon="6.81052">
        <ele>452</ele>
        <time>2011-06-03T10:25:41Z</time>
      </trkpt>
      <trkpt lat="43.50081" lon="6.81051">
        <ele>452</ele>
        <time>2011-06-03T10:25:42Z</time>
      </trkpt>
      <trkpt lat="43.50083" lon="6.81051">
        <ele>452</ele>
        <time>2011-06-03T10:25:43Z</time>
      </trkpt>
      <trkpt lat="43.50084" lon="6.81051">
        <ele>452</ele>
        <time>2011-06-03T10:25:44Z</time>
      </trkpt>
      <trkpt lat="43.50086" lon="6.8105">
        <ele>452</ele>
        <time>2011-06-03T10:25:45Z</time>
      </trkpt>
      <trkpt lat="43.50088" lon="6.81049">
        <ele>452</ele>
        <time>2011-06-03T10:25:46Z</time>
      </trkpt>
      <trkpt lat="43.5009" lon="6.81049">
        <ele>453</ele>
        <time>2011-06-03T10:25:47Z</time>
      </trkpt>
      <trkpt lat="43.50091" lon="6.81049">
        <ele>454</ele>
        <time>2011-06-03T10:25:48Z</time>
      </trkpt>
      <trkpt lat="43.50092" lon="6.81048">
        <ele>454</ele>
        <time>2011-06-03T10:25:49Z</time>
      </trkpt>
      <trkpt lat="43.50093" lon="6.81048">
        <ele>455</ele>
        <time>2011-06-03T10:25:50Z</time>
      </trkpt>
      <trkpt lat="43.50095" lon="6.81047">
        <ele>456</ele>
        <time>2011-06-03T10:25:51Z</time>
      </trkpt>
      <trkpt lat="43.50095" lon="6.81046">
        <ele>456</ele>
        <time>2011-06-03T10:25:52Z</time>
      </trkpt>
      <trkpt lat="43.50097" lon="6.81045">
        <ele>455</ele>
        <time>2011-06-03T10:25:53Z</time>
      </trkpt>
      <trkpt lat="43.50097" lon="6.81043">
        <ele>456</ele>
        <time>2011-06-03T10:25:54Z</time>
      </trkpt>
      <trkpt lat="43.50098" lon="6.81042">
        <ele>456</ele>
        <time>2011-06-03T10:25:55Z</time>
      </trkpt>
      <trkpt lat="43.501" lon="6.81041">
        <ele>456</ele>
        <time>2011-06-03T10:25:56Z</time>
      </trkpt>
      <trkpt lat="43.50102" lon="6.81041">
        <ele>458</ele>
        <time>2011-06-03T10:25:57Z</time>
      </trkpt>
      <trkpt lat="43.50103" lon="6.81039">
        <ele>458.76403808594</ele>
        <time>2011-06-03T10:25:58Z</time>
      </trkpt>
      <trkpt lat="43.50105" lon="6.81039">
        <ele>460</ele>
        <time>2011-06-03T10:25:59Z</time>
      </trkpt>
      <trkpt lat="43.50108" lon="6.81039">
        <ele>459</ele>
        <time>2011-06-03T10:26:00Z</time>
      </trkpt>
      <trkpt lat="43.5011" lon="6.81039">
        <ele>460</ele>
        <time>2011-06-03T10:26:01Z</time>
      </trkpt>
      <trkpt lat="43.50112" lon="6.81039">
        <ele>460</ele>
        <time>2011-06-03T10:26:02Z</time>
      </trkpt>
      <trkpt lat="43.50113" lon="6.81038">
        <ele>461</ele>
        <time>2011-06-03T10:26:03Z</time>
      </trkpt>
      <trkpt lat="43.50115" lon="6.81038">
        <ele>460</ele>
        <time>2011-06-03T10:26:04Z</time>
      </trkpt>
      <trkpt lat="43.50117" lon="6.81038">
        <ele>460</ele>
        <time>2011-06-03T10:26:05Z</time>
      </trkpt>
      <trkpt lat="43.50119" lon="6.81039">
        <ele>460</ele>
        <time>2011-06-03T10:26:06Z</time>
      </trkpt>
      <trkpt lat="43.5012" lon="6.81039">
        <ele>461</ele>
        <time>2011-06-03T10:26:07Z</time>
      </trkpt>
      <trkpt lat="43.50121" lon="6.81038">
        <ele>461</ele>
        <time>2011-06-03T10:26:08Z</time>
      </trkpt>
      <trkpt lat="43.50124" lon="6.81039">
        <ele>461</ele>
        <time>2011-06-03T10:26:09Z</time>
      </trkpt>
      <trkpt lat="43.50123" lon="6.81036">
        <ele>462</ele>
        <time>2011-06-03T10:26:10Z</time>
      </trkpt>
      <trkpt lat="43.50125" lon="6.81036">
        <ele>462</ele>
        <time>2011-06-03T10:26:11Z</time>
      </trkpt>
      <trkpt lat="43.50126" lon="6.81035">
        <ele>462</ele>
        <time>2011-06-03T10:26:12Z</time>
      </trkpt>
      <trkpt lat="43.50126" lon="6.81034">
        <ele>464</ele>
        <time>2011-06-03T10:26:13Z</time>
      </trkpt>
      <trkpt lat="43.50127" lon="6.81034">
        <ele>465</ele>
        <time>2011-06-03T10:26:14Z</time>
      </trkpt>
      <trkpt lat="43.50127" lon="6.81033">
        <ele>465</ele>
        <time>2011-06-03T10:26:15Z</time>
      </trkpt>
      <trkpt lat="43.50128" lon="6.81032">
        <ele>465</ele>
        <time>2011-06-03T10:26:16Z</time>
      </trkpt>
      <trkpt lat="43.5013" lon="6.81031">
        <ele>466</ele>
        <time>2011-06-03T10:26:17Z</time>
      </trkpt>
      <trkpt lat="43.50132" lon="6.81029">
        <ele>466</ele>
        <time>2011-06-03T10:26:18Z</time>
      </trkpt>
      <trkpt lat="43.50133" lon="6.81027">
        <ele>466</ele>
        <time>2011-06-03T10:26:19Z</time>
      </trkpt>
      <trkpt lat="43.50134" lon="6.81026">
        <ele>466.73416137695</ele>
        <time>2011-06-03T10:26:20Z</time>
      </trkpt>
      <trkpt lat="43.50135" lon="6.81025">
        <ele>467</ele>
        <time>2011-06-03T10:26:21Z</time>
      </trkpt>
      <trkpt lat="43.50137" lon="6.81024">
        <ele>467</ele>
        <time>2011-06-03T10:26:22Z</time>
      </trkpt>
      <trkpt lat="43.50139" lon="6.81023">
        <ele>467</ele>
        <time>2011-06-03T10:26:23Z</time>
      </trkpt>
      <trkpt lat="43.50142" lon="6.81024">
        <ele>467</ele>
        <time>2011-06-03T10:26:24Z</time>
      </trkpt>
      <trkpt lat="43.50144" lon="6.81024">
        <ele>468</ele>
        <time>2011-06-03T10:26:25Z</time>
      </trkpt>
      <trkpt lat="43.50147" lon="6.81024">
        <ele>468</ele>
        <time>2011-06-03T10:26:26Z</time>
      </trkpt>
      <trkpt lat="43.50147" lon="6.81024">
        <ele>468</ele>
        <time>2011-06-03T10:26:27Z</time>
      </trkpt>
      <trkpt lat="43.50148" lon="6.81023">
        <ele>469</ele>
        <time>2011-06-03T10:26:28Z</time>
      </trkpt>
      <trkpt lat="43.50151" lon="6.81022">
        <ele>468</ele>
        <time>2011-06-03T10:26:29Z</time>
      </trkpt>
      <trkpt lat="43.50152" lon="6.81021">
        <ele>468</ele>
        <time>2011-06-03T10:26:30Z</time>
      </trkpt>
      <trkpt lat="43.50153" lon="6.8102">
        <ele>469</ele>
        <time>2011-06-03T10:26:31Z</time>
      </trkpt>
      <trkpt lat="43.50155" lon="6.81019">
        <ele>469</ele>
        <time>2011-06-03T10:26:32Z</time>
      </trkpt>
      <trkpt lat="43.50156" lon="6.81019">
        <ele>469</ele>
        <time>2011-06-03T10:26:33Z</time>
      </trkpt>
      <trkpt lat="43.50157" lon="6.81019">
        <ele>470</ele>
        <time>2011-06-03T10:26:34Z</time>
      </trkpt>
      <trkpt lat="43.50159" lon="6.81018">
        <ele>470</ele>
        <time>2011-06-03T10:26:35Z</time>
      </trkpt>
      <trkpt lat="43.50161" lon="6.81018">
        <ele>470</ele>
        <time>2011-06-03T10:26:36Z</time>
      </trkpt>
      <trkpt lat="43.50162" lon="6.81017">
        <ele>470</ele>
        <time>2011-06-03T10:26:37Z</time>
      </trkpt>
      <trkpt lat="43.50164" lon="6.81018">
        <ele>470</ele>
        <time>2011-06-03T10:26:38Z</time>
      </trkpt>
      <trkpt lat="43.50165" lon="6.81017">
        <ele>470</ele>
        <time>2011-06-03T10:26:39Z</time>
      </trkpt>
      <trkpt lat="43.50166" lon="6.81015">
        <ele>470</ele>
        <time>2011-06-03T10:26:40Z</time>
      </trkpt>
      <trkpt lat="43.50169" lon="6.81014">
        <ele>470</ele>
        <time>2011-06-03T10:26:41Z</time>
      </trkpt>
      <trkpt lat="43.5017" lon="6.81014">
        <ele>470</ele>
        <time>2011-06-03T10:26:42Z</time>
      </trkpt>
      <trkpt lat="43.50172" lon="6.81014">
        <ele>470</ele>
        <time>2011-06-03T10:26:43Z</time>
      </trkpt>
      <trkpt lat="43.50174" lon="6.81014">
        <ele>470</ele>
        <time>2011-06-03T10:26:44Z</time>
      </trkpt>
      <trkpt lat="43.50175" lon="6.81014">
        <ele>470</ele>
        <time>2011-06-03T10:26:45Z</time>
      </trkpt>
      <trkpt lat="43.50176" lon="6.81014">
        <ele>470</ele>
        <time>2011-06-03T10:26:46Z</time>
      </trkpt>
      <trkpt lat="43.50178" lon="6.81014">
        <ele>470</ele>
        <time>2011-06-03T10:26:47Z</time>
      </trkpt>
      <trkpt lat="43.5018" lon="6.81014">
        <ele>471</ele>
        <time>2011-06-03T10:26:48Z</time>
      </trkpt>
      <trkpt lat="43.50181" lon="6.81014">
        <ele>471</ele>
        <time>2011-06-03T10:26:49Z</time>
      </trkpt>
      <trkpt lat="43.50183" lon="6.81014">
        <ele>471</ele>
        <time>2011-06-03T10:26:50Z</time>
      </trkpt>
      <trkpt lat="43.50184" lon="6.81013">
        <ele>471</ele>
        <time>2011-06-03T10:26:51Z</time>
      </trkpt>
      <trkpt lat="43.50186" lon="6.81013">
        <ele>472</ele>
        <time>2011-06-03T10:26:52Z</time>
      </trkpt>
      <trkpt lat="43.50188" lon="6.81013">
        <ele>472</ele>
        <time>2011-06-03T10:26:53Z</time>
      </trkpt>
      <trkpt lat="43.50189" lon="6.81013">
        <ele>472</ele>
        <time>2011-06-03T10:26:54Z</time>
      </trkpt>
      <trkpt lat="43.50191" lon="6.81012">
        <ele>472</ele>
        <time>2011-06-03T10:26:55Z</time>
      </trkpt>
      <trkpt lat="43.50193" lon="6.81011">
        <ele>473</ele>
        <time>2011-06-03T10:26:56Z</time>
      </trkpt>
      <trkpt lat="43.50195" lon="6.81011">
        <ele>473</ele>
        <time>2011-06-03T10:26:57Z</time>
      </trkpt>
      <trkpt lat="43.50195" lon="6.81011">
        <ele>474</ele>
        <time>2011-06-03T10:26:58Z</time>
      </trkpt>
      <trkpt lat="43.50197" lon="6.81011">
        <ele>473</ele>
        <time>2011-06-03T10:26:59Z</time>
      </trkpt>
      <trkpt lat="43.50198" lon="6.8101">
        <ele>474</ele>
        <time>2011-06-03T10:27:00Z</time>
      </trkpt>
      <trkpt lat="43.50199" lon="6.8101">
        <ele>475</ele>
        <time>2011-06-03T10:27:01Z</time>
      </trkpt>
      <trkpt lat="43.502" lon="6.81009">
        <ele>475</ele>
        <time>2011-06-03T10:27:02Z</time>
      </trkpt>
      <trkpt lat="43.50202" lon="6.81009">
        <ele>475</ele>
        <time>2011-06-03T10:27:04Z</time>
      </trkpt>
      <trkpt lat="43.50202" lon="6.81009">
        <ele>475</ele>
        <time>2011-06-03T10:27:04Z</time>
      </trkpt>
      <trkpt lat="43.50205" lon="6.81009">
        <ele>476</ele>
        <time>2011-06-03T10:27:05Z</time>
      </trkpt>
      <trkpt lat="43.50206" lon="6.81009">
        <ele>477</ele>
        <time>2011-06-03T10:27:06Z</time>
      </trkpt>
      <trkpt lat="43.50208" lon="6.81009">
        <ele>477</ele>
        <time>2011-06-03T10:27:07Z</time>
      </trkpt>
      <trkpt lat="43.50209" lon="6.81008">
        <ele>477</ele>
        <time>2011-06-03T10:27:08Z</time>
      </trkpt>
      <trkpt lat="43.50211" lon="6.81009">
        <ele>477</ele>
        <time>2011-06-03T10:27:09Z</time>
      </trkpt>
      <trkpt lat="43.50212" lon="6.81008">
        <ele>477</ele>
        <time>2011-06-03T10:27:10Z</time>
      </trkpt>
      <trkpt lat="43.50214" lon="6.81008">
        <ele>477</ele>
        <time>2011-06-03T10:27:11Z</time>
      </trkpt>
      <trkpt lat="43.50216" lon="6.81007">
        <ele>478</ele>
        <time>2011-06-03T10:27:12Z</time>
      </trkpt>
      <trkpt lat="43.50217" lon="6.81006">
        <ele>479</ele>
        <time>2011-06-03T10:27:13Z</time>
      </trkpt>
      <trkpt lat="43.50219" lon="6.81006">
        <ele>479</ele>
        <time>2011-06-03T10:27:14Z</time>
      </trkpt>
      <trkpt lat="43.50221" lon="6.81006">
        <ele>479</ele>
        <time>2011-06-03T10:27:15Z</time>
      </trkpt>
      <trkpt lat="43.50222" lon="6.81006">
        <ele>479</ele>
        <time>2011-06-03T10:27:16Z</time>
      </trkpt>
      <trkpt lat="43.50223" lon="6.81005">
        <ele>479</ele>
        <time>2011-06-03T10:27:17Z</time>
      </trkpt>
      <trkpt lat="43.50225" lon="6.81005">
        <ele>479</ele>
        <time>2011-06-03T10:27:18Z</time>
      </trkpt>
      <trkpt lat="43.50226" lon="6.81005">
        <ele>479</ele>
        <time>2011-06-03T10:27:19Z</time>
      </trkpt>
      <trkpt lat="43.50227" lon="6.81004">
        <ele>480</ele>
        <time>2011-06-03T10:27:20Z</time>
      </trkpt>
      <trkpt lat="43.50229" lon="6.81005">
        <ele>479</ele>
        <time>2011-06-03T10:27:21Z</time>
      </trkpt>
      <trkpt lat="43.50231" lon="6.81004">
        <ele>479</ele>
        <time>2011-06-03T10:27:22Z</time>
      </trkpt>
      <trkpt lat="43.50232" lon="6.81004">
        <ele>480</ele>
        <time>2011-06-03T10:27:23Z</time>
      </trkpt>
      <trkpt lat="43.50233" lon="6.81004">
        <ele>480</ele>
        <time>2011-06-03T10:27:24Z</time>
      </trkpt>
      <trkpt lat="43.50235" lon="6.81003">
        <ele>480</ele>
        <time>2011-06-03T10:27:25Z</time>
      </trkpt>
      <trkpt lat="43.50236" lon="6.81003">
        <ele>480</ele>
        <time>2011-06-03T10:27:26Z</time>
      </trkpt>
      <trkpt lat="43.50238" lon="6.81003">
        <ele>480</ele>
        <time>2011-06-03T10:27:27Z</time>
      </trkpt>
      <trkpt lat="43.50239" lon="6.81002">
        <ele>480</ele>
        <time>2011-06-03T10:27:28Z</time>
      </trkpt>
      <trkpt lat="43.5024" lon="6.81002">
        <ele>480</ele>
        <time>2011-06-03T10:27:29Z</time>
      </trkpt>
      <trkpt lat="43.50243" lon="6.81002">
        <ele>480</ele>
        <time>2011-06-03T10:27:30Z</time>
      </trkpt>
      <trkpt lat="43.50244" lon="6.81002">
        <ele>480</ele>
        <time>2011-06-03T10:27:31Z</time>
      </trkpt>
      <trkpt lat="43.50246" lon="6.81002">
        <ele>480</ele>
        <time>2011-06-03T10:27:32Z</time>
      </trkpt>
      <trkpt lat="43.50247" lon="6.81002">
        <ele>480</ele>
        <time>2011-06-03T10:27:33Z</time>
      </trkpt>
      <trkpt lat="43.50249" lon="6.81002">
        <ele>480</ele>
        <time>2011-06-03T10:27:34Z</time>
      </trkpt>
      <trkpt lat="43.50249" lon="6.81001">
        <ele>481</ele>
        <time>2011-06-03T10:27:35Z</time>
      </trkpt>
      <trkpt lat="43.50251" lon="6.81001">
        <ele>481</ele>
        <time>2011-06-03T10:27:36Z</time>
      </trkpt>
      <trkpt lat="43.50252" lon="6.81001">
        <ele>481</ele>
        <time>2011-06-03T10:27:37Z</time>
      </trkpt>
      <trkpt lat="43.50253" lon="6.81">
        <ele>481</ele>
        <time>2011-06-03T10:27:38Z</time>
      </trkpt>
      <trkpt lat="43.50254" lon="6.80999">
        <ele>482</ele>
        <time>2011-06-03T10:27:39Z</time>
      </trkpt>
      <trkpt lat="43.50255" lon="6.80998">
        <ele>482</ele>
        <time>2011-06-03T10:27:40Z</time>
      </trkpt>
      <trkpt lat="43.50257" lon="6.80999">
        <ele>482</ele>
        <time>2011-06-03T10:27:41Z</time>
      </trkpt>
      <trkpt lat="43.50259" lon="6.80999">
        <ele>483</ele>
        <time>2011-06-03T10:27:42Z</time>
      </trkpt>
      <trkpt lat="43.50261" lon="6.80999">
        <ele>484</ele>
        <time>2011-06-03T10:27:43Z</time>
      </trkpt>
      <trkpt lat="43.50262" lon="6.80998">
        <ele>485</ele>
        <time>2011-06-03T10:27:44Z</time>
      </trkpt>
      <trkpt lat="43.50264" lon="6.80997">
        <ele>485</ele>
        <time>2011-06-03T10:27:45Z</time>
      </trkpt>
      <trkpt lat="43.50264" lon="6.80996">
        <ele>486</ele>
        <time>2011-06-03T10:27:46Z</time>
      </trkpt>
      <trkpt lat="43.50265" lon="6.80995">
        <ele>487</ele>
        <time>2011-06-03T10:27:47Z</time>
      </trkpt>
      <trkpt lat="43.50266" lon="6.80995">
        <ele>487</ele>
        <time>2011-06-03T10:27:48Z</time>
      </trkpt>
      <trkpt lat="43.50269" lon="6.80995">
        <ele>488</ele>
        <time>2011-06-03T10:27:49Z</time>
      </trkpt>
      <trkpt lat="43.50271" lon="6.80995">
        <ele>488</ele>
        <time>2011-06-03T10:27:50Z</time>
      </trkpt>
      <trkpt lat="43.50272" lon="6.80994">
        <ele>489</ele>
        <time>2011-06-03T10:27:51Z</time>
      </trkpt>
      <trkpt lat="43.50273" lon="6.80992">
        <ele>489</ele>
        <time>2011-06-03T10:27:52Z</time>
      </trkpt>
      <trkpt lat="43.50275" lon="6.80992">
        <ele>489</ele>
        <time>2011-06-03T10:27:53Z</time>
      </trkpt>
      <trkpt lat="43.50276" lon="6.80991">
        <ele>489</ele>
        <time>2011-06-03T10:27:54Z</time>
      </trkpt>
      <trkpt lat="43.50278" lon="6.80991">
        <ele>489</ele>
        <time>2011-06-03T10:27:55Z</time>
      </trkpt>
      <trkpt lat="43.50279" lon="6.8099">
        <ele>489</ele>
        <time>2011-06-03T10:27:56Z</time>
      </trkpt>
      <trkpt lat="43.5028" lon="6.80989">
        <ele>489</ele>
        <time>2011-06-03T10:27:57Z</time>
      </trkpt>
      <trkpt lat="43.50281" lon="6.8099">
        <ele>490</ele>
        <time>2011-06-03T10:27:58Z</time>
      </trkpt>
      <trkpt lat="43.50284" lon="6.8099">
        <ele>490</ele>
        <time>2011-06-03T10:27:59Z</time>
      </trkpt>
      <trkpt lat="43.50286" lon="6.80989">
        <ele>490</ele>
        <time>2011-06-03T10:28:00Z</time>
      </trkpt>
      <trkpt lat="43.50286" lon="6.80989">
        <ele>491</ele>
        <time>2011-06-03T10:28:01Z</time>
      </trkpt>
      <trkpt lat="43.50289" lon="6.80989">
        <ele>491</ele>
        <time>2011-06-03T10:28:02Z</time>
      </trkpt>
      <trkpt lat="43.50291" lon="6.8099">
        <ele>492</ele>
        <time>2011-06-03T10:28:03Z</time>
      </trkpt>
      <trkpt lat="43.50293" lon="6.8099">
        <ele>492</ele>
        <time>2011-06-03T10:28:04Z</time>
      </trkpt>
      <trkpt lat="43.50294" lon="6.8099">
        <ele>492</ele>
        <time>2011-06-03T10:28:05Z</time>
      </trkpt>
      <trkpt lat="43.50295" lon="6.80989">
        <ele>493</ele>
        <time>2011-06-03T10:28:06Z</time>
      </trkpt>
      <trkpt lat="43.50297" lon="6.80989">
        <ele>493</ele>
        <time>2011-06-03T10:28:07Z</time>
      </trkpt>
      <trkpt lat="43.50298" lon="6.80989">
        <ele>494</ele>
        <time>2011-06-03T10:28:08Z</time>
      </trkpt>
      <trkpt lat="43.503" lon="6.80989">
        <ele>494</ele>
        <time>2011-06-03T10:28:10Z</time>
      </trkpt>
      <trkpt lat="43.503" lon="6.80989">
        <ele>494</ele>
        <time>2011-06-03T10:28:10Z</time>
      </trkpt>
      <trkpt lat="43.50302" lon="6.80989">
        <ele>494</ele>
        <time>2011-06-03T10:28:11Z</time>
      </trkpt>
      <trkpt lat="43.50304" lon="6.8099">
        <ele>494</ele>
        <time>2011-06-03T10:28:12Z</time>
      </trkpt>
      <trkpt lat="43.50305" lon="6.8099">
        <ele>494</ele>
        <time>2011-06-03T10:28:13Z</time>
      </trkpt>
      <trkpt lat="43.50306" lon="6.80989">
        <ele>494</ele>
        <time>2011-06-03T10:28:14Z</time>
      </trkpt>
      <trkpt lat="43.50308" lon="6.8099">
        <ele>494</ele>
        <time>2011-06-03T10:28:15Z</time>
      </trkpt>
      <trkpt lat="43.50309" lon="6.80991">
        <ele>495</ele>
        <time>2011-06-03T10:28:16Z</time>
      </trkpt>
      <trkpt lat="43.50311" lon="6.80992">
        <ele>495</ele>
        <time>2011-06-03T10:28:17Z</time>
      </trkpt>
      <trkpt lat="43.50311" lon="6.80993">
        <ele>496</ele>
        <time>2011-06-03T10:28:18Z</time>
      </trkpt>
      <trkpt lat="43.50312" lon="6.80992">
        <ele>496</ele>
        <time>2011-06-03T10:28:19Z</time>
      </trkpt>
      <trkpt lat="43.50312" lon="6.8099">
        <ele>497</ele>
        <time>2011-06-03T10:28:20Z</time>
      </trkpt>
      <trkpt lat="43.50313" lon="6.80989">
        <ele>498</ele>
        <time>2011-06-03T10:28:21Z</time>
      </trkpt>
      <trkpt lat="43.50314" lon="6.8099">
        <ele>499</ele>
        <time>2011-06-03T10:28:22Z</time>
      </trkpt>
      <trkpt lat="43.50316" lon="6.80989">
        <ele>499</ele>
        <time>2011-06-03T10:28:23Z</time>
      </trkpt>
      <trkpt lat="43.50318" lon="6.80989">
        <ele>499</ele>
        <time>2011-06-03T10:28:24Z</time>
      </trkpt>
      <trkpt lat="43.50319" lon="6.80989">
        <ele>500</ele>
        <time>2011-06-03T10:28:25Z</time>
      </trkpt>
      <trkpt lat="43.50321" lon="6.80989">
        <ele>500</ele>
        <time>2011-06-03T10:28:26Z</time>
      </trkpt>
      <trkpt lat="43.50323" lon="6.8099">
        <ele>501</ele>
        <time>2011-06-03T10:28:27Z</time>
      </trkpt>
      <trkpt lat="43.50325" lon="6.8099">
        <ele>501</ele>
        <time>2011-06-03T10:28:28Z</time>
      </trkpt>
      <trkpt lat="43.50326" lon="6.80991">
        <ele>501</ele>
        <time>2011-06-03T10:28:29Z</time>
      </trkpt>
      <trkpt lat="43.50327" lon="6.80992">
        <ele>501</ele>
        <time>2011-06-03T10:28:30Z</time>
      </trkpt>
      <trkpt lat="43.50329" lon="6.80992">
        <ele>500</ele>
        <time>2011-06-03T10:28:31Z</time>
      </trkpt>
      <trkpt lat="43.5033" lon="6.80993">
        <ele>500.82125854492</ele>
        <time>2011-06-03T10:28:32Z</time>
      </trkpt>
      <trkpt lat="43.50331" lon="6.80995">
        <ele>501</ele>
        <time>2011-06-03T10:28:33Z</time>
      </trkpt>
      <trkpt lat="43.50332" lon="6.80996">
        <ele>501</ele>
        <time>2011-06-03T10:28:34Z</time>
      </trkpt>
      <trkpt lat="43.50333" lon="6.80996">
        <ele>500</ele>
        <time>2011-06-03T10:28:35Z</time>
      </trkpt>
      <trkpt lat="43.50334" lon="6.80997">
        <ele>500</ele>
        <time>2011-06-03T10:28:36Z</time>
      </trkpt>
      <trkpt lat="43.50336" lon="6.80998">
        <ele>500</ele>
        <time>2011-06-03T10:28:37Z</time>
      </trkpt>
      <trkpt lat="43.50337" lon="6.80997">
        <ele>500</ele>
        <time>2011-06-03T10:28:38Z</time>
      </trkpt>
      <trkpt lat="43.50339" lon="6.80998">
        <ele>500</ele>
        <time>2011-06-03T10:28:39Z</time>
      </trkpt>
      <trkpt lat="43.5034" lon="6.80999">
        <ele>501</ele>
        <time>2011-06-03T10:28:40Z</time>
      </trkpt>
      <trkpt lat="43.50341" lon="6.81">
        <ele>501</ele>
        <time>2011-06-03T10:28:41Z</time>
      </trkpt>
      <trkpt lat="43.50343" lon="6.80999">
        <ele>501</ele>
        <time>2011-06-03T10:28:42Z</time>
      </trkpt>
      <trkpt lat="43.50345" lon="6.80999">
        <ele>501</ele>
        <time>2011-06-03T10:28:43Z</time>
      </trkpt>
      <trkpt lat="43.50347" lon="6.80999">
        <ele>501</ele>
        <time>2011-06-03T10:28:44Z</time>
      </trkpt>
      <trkpt lat="43.50349" lon="6.81001">
        <ele>502</ele>
        <time>2011-06-03T10:28:45Z</time>
      </trkpt>
      <trkpt lat="43.5035" lon="6.81002">
        <ele>502</ele>
        <time>2011-06-03T10:28:46Z</time>
      </trkpt>
      <trkpt lat="43.50352" lon="6.81002">
        <ele>502</ele>
        <time>2011-06-03T10:28:47Z</time>
      </trkpt>
      <trkpt lat="43.50353" lon="6.81002">
        <ele>503</ele>
        <time>2011-06-03T10:28:48Z</time>
      </trkpt>
      <trkpt lat="43.50354" lon="6.81002">
        <ele>504</ele>
        <time>2011-06-03T10:28:49Z</time>
      </trkpt>
      <trkpt lat="43.50355" lon="6.81001">
        <ele>504</ele>
        <time>2011-06-03T10:28:50Z</time>
      </trkpt>
      <trkpt lat="43.50356" lon="6.81001">
        <ele>505</ele>
        <time>2011-06-03T10:28:51Z</time>
      </trkpt>
      <trkpt lat="43.50357" lon="6.81002">
        <ele>505</ele>
        <time>2011-06-03T10:28:52Z</time>
      </trkpt>
      <trkpt lat="43.50358" lon="6.81002">
        <ele>506</ele>
        <time>2011-06-03T10:28:53Z</time>
      </trkpt>
      <trkpt lat="43.50359" lon="6.81003">
        <ele>506</ele>
        <time>2011-06-03T10:28:54Z</time>
      </trkpt>
      <trkpt lat="43.50362" lon="6.81005">
        <ele>508</ele>
        <time>2011-06-03T10:28:55Z</time>
      </trkpt>
      <trkpt lat="43.50363" lon="6.81006">
        <ele>508</ele>
        <time>2011-06-03T10:28:56Z</time>
      </trkpt>
      <trkpt lat="43.50365" lon="6.81007">
        <ele>509</ele>
        <time>2011-06-03T10:28:57Z</time>
      </trkpt>
      <trkpt lat="43.50367" lon="6.81009">
        <ele>509</ele>
        <time>2011-06-03T10:28:58Z</time>
      </trkpt>
      <trkpt lat="43.50368" lon="6.81009">
        <ele>509</ele>
        <time>2011-06-03T10:28:59Z</time>
      </trkpt>
      <trkpt lat="43.50369" lon="6.81011">
        <ele>509</ele>
        <time>2011-06-03T10:29:00Z</time>
      </trkpt>
      <trkpt lat="43.50369" lon="6.81011">
        <ele>509</ele>
        <time>2011-06-03T10:29:01Z</time>
      </trkpt>
      <trkpt lat="43.50369" lon="6.81011">
        <ele>509</ele>
        <time>2011-06-03T10:29:02Z</time>
      </trkpt>
      <trkpt lat="43.50369" lon="6.81011">
        <ele>509</ele>
        <time>2011-06-03T10:29:03Z</time>
      </trkpt>
      <trkpt lat="43.50371" lon="6.81014">
        <ele>509</ele>
        <time>2011-06-03T10:29:04Z</time>
      </trkpt>
      <trkpt lat="43.50374" lon="6.81017">
        <ele>509</ele>
        <time>2011-06-03T10:29:05Z</time>
      </trkpt>
      <trkpt lat="43.50375" lon="6.81019">
        <ele>509</ele>
        <time>2011-06-03T10:29:06Z</time>
      </trkpt>
      <trkpt lat="43.50376" lon="6.81021">
        <ele>509</ele>
        <time>2011-06-03T10:29:07Z</time>
      </trkpt>
      <trkpt lat="43.50377" lon="6.81023">
        <ele>509</ele>
        <time>2011-06-03T10:29:08Z</time>
      </trkpt>
      <trkpt lat="43.50377" lon="6.81024">
        <ele>509</ele>
        <time>2011-06-03T10:29:09Z</time>
      </trkpt>
      <trkpt lat="43.50377" lon="6.81025">
        <ele>510</ele>
        <time>2011-06-03T10:29:10Z</time>
      </trkpt>
      <trkpt lat="43.50378" lon="6.81025">
        <ele>511</ele>
        <time>2011-06-03T10:29:11Z</time>
      </trkpt>
      <trkpt lat="43.50379" lon="6.81027">
        <ele>511</ele>
        <time>2011-06-03T10:29:12Z</time>
      </trkpt>
      <trkpt lat="43.50379" lon="6.81029">
        <ele>511</ele>
        <time>2011-06-03T10:29:13Z</time>
      </trkpt>
      <trkpt lat="43.5038" lon="6.81031">
        <ele>511</ele>
        <time>2011-06-03T10:29:14Z</time>
      </trkpt>
      <trkpt lat="43.50381" lon="6.81032">
        <ele>511</ele>
        <time>2011-06-03T10:29:16Z</time>
      </trkpt>
      <trkpt lat="43.50381" lon="6.81032">
        <ele>511</ele>
        <time>2011-06-03T10:29:16Z</time>
      </trkpt>
      <trkpt lat="43.50383" lon="6.81035">
        <ele>512</ele>
        <time>2011-06-03T10:29:17Z</time>
      </trkpt>
      <trkpt lat="43.50385" lon="6.81037">
        <ele>511</ele>
        <time>2011-06-03T10:29:18Z</time>
      </trkpt>
      <trkpt lat="43.50386" lon="6.81039">
        <ele>512</ele>
        <time>2011-06-03T10:29:19Z</time>
      </trkpt>
      <trkpt lat="43.50387" lon="6.8104">
        <ele>512</ele>
        <time>2011-06-03T10:29:20Z</time>
      </trkpt>
      <trkpt lat="43.50388" lon="6.81041">
        <ele>513</ele>
        <time>2011-06-03T10:29:21Z</time>
      </trkpt>
      <trkpt lat="43.50389" lon="6.81042">
        <ele>514</ele>
        <time>2011-06-03T10:29:22Z</time>
      </trkpt>
      <trkpt lat="43.5039" lon="6.81043">
        <ele>515</ele>
        <time>2011-06-03T10:29:23Z</time>
      </trkpt>
      <trkpt lat="43.5039" lon="6.81045">
        <ele>516</ele>
        <time>2011-06-03T10:29:24Z</time>
      </trkpt>
      <trkpt lat="43.50391" lon="6.81045">
        <ele>516</ele>
        <time>2011-06-03T10:29:25Z</time>
      </trkpt>
      <trkpt lat="43.50392" lon="6.81049">
        <ele>515</ele>
        <time>2011-06-03T10:29:26Z</time>
      </trkpt>
      <trkpt lat="43.50393" lon="6.81051">
        <ele>515</ele>
        <time>2011-06-03T10:29:27Z</time>
      </trkpt>
      <trkpt lat="43.50394" lon="6.81053">
        <ele>515</ele>
        <time>2011-06-03T10:29:28Z</time>
      </trkpt>
      <trkpt lat="43.50396" lon="6.81054">
        <ele>515</ele>
        <time>2011-06-03T10:29:29Z</time>
      </trkpt>
      <trkpt lat="43.50396" lon="6.81057">
        <ele>515</ele>
        <time>2011-06-03T10:29:30Z</time>
      </trkpt>
      <trkpt lat="43.50397" lon="6.81059">
        <ele>515</ele>
        <time>2011-06-03T10:29:31Z</time>
      </trkpt>
      <trkpt lat="43.50397" lon="6.81061">
        <ele>515</ele>
        <time>2011-06-03T10:29:32Z</time>
      </trkpt>
      <trkpt lat="43.50398" lon="6.81063">
        <ele>516</ele>
        <time>2011-06-03T10:29:33Z</time>
      </trkpt>
      <trkpt lat="43.50398" lon="6.81065">
        <ele>516</ele>
        <time>2011-06-03T10:29:34Z</time>
      </trkpt>
      <trkpt lat="43.50399" lon="6.81066">
        <ele>516</ele>
        <time>2011-06-03T10:29:35Z</time>
      </trkpt>
      <trkpt lat="43.504" lon="6.81068">
        <ele>516</ele>
        <time>2011-06-03T10:29:36Z</time>
      </trkpt>
      <trkpt lat="43.504" lon="6.81069">
        <ele>516</ele>
        <time>2011-06-03T10:29:37Z</time>
      </trkpt>
      <trkpt lat="43.504" lon="6.8107">
        <ele>516</ele>
        <time>2011-06-03T10:29:38Z</time>
      </trkpt>
      <trkpt lat="43.50401" lon="6.81072">
        <ele>516</ele>
        <time>2011-06-03T10:29:39Z</time>
      </trkpt>
      <trkpt lat="43.50402" lon="6.81073">
        <ele>516</ele>
        <time>2011-06-03T10:29:40Z</time>
      </trkpt>
      <trkpt lat="43.50403" lon="6.81075">
        <ele>518</ele>
        <time>2011-06-03T10:29:41Z</time>
      </trkpt>
      <trkpt lat="43.50404" lon="6.81077">
        <ele>518</ele>
        <time>2011-06-03T10:29:42Z</time>
      </trkpt>
      <trkpt lat="43.50405" lon="6.81078">
        <ele>517</ele>
        <time>2011-06-03T10:29:43Z</time>
      </trkpt>
      <trkpt lat="43.50407" lon="6.81082">
        <ele>517</ele>
        <time>2011-06-03T10:29:44Z</time>
      </trkpt>
      <trkpt lat="43.50408" lon="6.81084">
        <ele>517</ele>
        <time>2011-06-03T10:29:45Z</time>
      </trkpt>
      <trkpt lat="43.50409" lon="6.81086">
        <ele>516</ele>
        <time>2011-06-03T10:29:46Z</time>
      </trkpt>
      <trkpt lat="43.5041" lon="6.81089">
        <ele>516</ele>
        <time>2011-06-03T10:29:47Z</time>
      </trkpt>
      <trkpt lat="43.50411" lon="6.81091">
        <ele>516</ele>
        <time>2011-06-03T10:29:48Z</time>
      </trkpt>
      <trkpt lat="43.50411" lon="6.81092">
        <ele>516</ele>
        <time>2011-06-03T10:29:49Z</time>
      </trkpt>
      <trkpt lat="43.50411" lon="6.81094">
        <ele>516</ele>
        <time>2011-06-03T10:29:50Z</time>
      </trkpt>
      <trkpt lat="43.50411" lon="6.81095">
        <ele>515</ele>
        <time>2011-06-03T10:29:51Z</time>
      </trkpt>
      <trkpt lat="43.50411" lon="6.81097">
        <ele>516</ele>
        <time>2011-06-03T10:29:52Z</time>
      </trkpt>
      <trkpt lat="43.50411" lon="6.81098">
        <ele>516</ele>
        <time>2011-06-03T10:29:53Z</time>
      </trkpt>
      <trkpt lat="43.50412" lon="6.811">
        <ele>516</ele>
        <time>2011-06-03T10:29:54Z</time>
      </trkpt>
      <trkpt lat="43.50411" lon="6.81102">
        <ele>516</ele>
        <time>2011-06-03T10:29:55Z</time>
      </trkpt>
      <trkpt lat="43.50411" lon="6.81103">
        <ele>516</ele>
        <time>2011-06-03T10:29:56Z</time>
      </trkpt>
      <trkpt lat="43.50411" lon="6.81106">
        <ele>516</ele>
        <time>2011-06-03T10:29:57Z</time>
      </trkpt>
      <trkpt lat="43.50412" lon="6.81109">
        <ele>516</ele>
        <time>2011-06-03T10:29:58Z</time>
      </trkpt>
      <trkpt lat="43.50412" lon="6.81112">
        <ele>516</ele>
        <time>2011-06-03T10:30:00Z</time>
      </trkpt>
      <trkpt lat="43.50412" lon="6.81112">
        <ele>516</ele>
        <time>2011-06-03T10:30:00Z</time>
      </trkpt>
      <trkpt lat="43.50413" lon="6.81116">
        <ele>517</ele>
        <time>2011-06-03T10:30:01Z</time>
      </trkpt>
      <trkpt lat="43.50412" lon="6.81119">
        <ele>517</ele>
        <time>2011-06-03T10:30:02Z</time>
      </trkpt>
      <trkpt lat="43.50413" lon="6.81122">
        <ele>517</ele>
        <time>2011-06-03T10:30:03Z</time>
      </trkpt>
      <trkpt lat="43.50413" lon="6.81124">
        <ele>517</ele>
        <time>2011-06-03T10:30:04Z</time>
      </trkpt>
      <trkpt lat="43.50413" lon="6.81127">
        <ele>517</ele>
        <time>2011-06-03T10:30:05Z</time>
      </trkpt>
      <trkpt lat="43.50413" lon="6.81129">
        <ele>516</ele>
        <time>2011-06-03T10:30:06Z</time>
      </trkpt>
      <trkpt lat="43.50414" lon="6.81131">
        <ele>516</ele>
        <time>2011-06-03T10:30:07Z</time>
      </trkpt>
      <trkpt lat="43.50414" lon="6.81135">
        <ele>516</ele>
        <time>2011-06-03T10:30:08Z</time>
      </trkpt>
      <trkpt lat="43.50414" lon="6.81136">
        <ele>516</ele>
        <time>2011-06-03T10:30:09Z</time>
      </trkpt>
      <trkpt lat="43.50412" lon="6.81138">
        <ele>516</ele>
        <time>2011-06-03T10:30:10Z</time>
      </trkpt>
      <trkpt lat="43.50411" lon="6.81141">
        <ele>515</ele>
        <time>2011-06-03T10:30:11Z</time>
      </trkpt>
      <trkpt lat="43.50411" lon="6.81141">
        <ele>516</ele>
        <time>2011-06-03T10:30:12Z</time>
      </trkpt>
      <trkpt lat="43.50412" lon="6.81142">
        <ele>516</ele>
        <time>2011-06-03T10:30:13Z</time>
      </trkpt>
      <trkpt lat="43.50411" lon="6.81143">
        <ele>516</ele>
        <time>2011-06-03T10:30:14Z</time>
      </trkpt>
      <trkpt lat="43.5041" lon="6.81145">
        <ele>516</ele>
        <time>2011-06-03T10:30:15Z</time>
      </trkpt>
      <trkpt lat="43.50409" lon="6.81146">
        <ele>516</ele>
        <time>2011-06-03T10:30:16Z</time>
      </trkpt>
      <trkpt lat="43.50409" lon="6.8115">
        <ele>516</ele>
        <time>2011-06-03T10:30:17Z</time>
      </trkpt>
      <trkpt lat="43.50409" lon="6.81152">
        <ele>516</ele>
        <time>2011-06-03T10:30:18Z</time>
      </trkpt>
      <trkpt lat="43.50408" lon="6.81154">
        <ele>515</ele>
        <time>2011-06-03T10:30:19Z</time>
      </trkpt>
      <trkpt lat="43.50407" lon="6.81157">
        <ele>515</ele>
        <time>2011-06-03T10:30:20Z</time>
      </trkpt>
      <trkpt lat="43.50407" lon="6.81159">
        <ele>516</ele>
        <time>2011-06-03T10:30:21Z</time>
      </trkpt>
      <trkpt lat="43.50407" lon="6.8116">
        <ele>517</ele>
        <time>2011-06-03T10:30:22Z</time>
      </trkpt>
      <trkpt lat="43.50406" lon="6.81162">
        <ele>516.17297363281</ele>
        <time>2011-06-03T10:30:23Z</time>
      </trkpt>
      <trkpt lat="43.50405" lon="6.81165">
        <ele>516</ele>
        <time>2011-06-03T10:30:24Z</time>
      </trkpt>
      <trkpt lat="43.50405" lon="6.81166">
        <ele>517</ele>
        <time>2011-06-03T10:30:25Z</time>
      </trkpt>
      <trkpt lat="43.50405" lon="6.81166">
        <ele>518</ele>
        <time>2011-06-03T10:30:26Z</time>
      </trkpt>
      <trkpt lat="43.50405" lon="6.81169">
        <ele>517</ele>
        <time>2011-06-03T10:30:27Z</time>
      </trkpt>
      <trkpt lat="43.50405" lon="6.8117">
        <ele>517</ele>
        <time>2011-06-03T10:30:28Z</time>
      </trkpt>
      <trkpt lat="43.50404" lon="6.81172">
        <ele>517</ele>
        <time>2011-06-03T10:30:29Z</time>
      </trkpt>
      <trkpt lat="43.50404" lon="6.81174">
        <ele>518</ele>
        <time>2011-06-03T10:30:30Z</time>
      </trkpt>
      <trkpt lat="43.50404" lon="6.81175">
        <ele>518</ele>
        <time>2011-06-03T10:30:31Z</time>
      </trkpt>
      <trkpt lat="43.50404" lon="6.81177">
        <ele>518</ele>
        <time>2011-06-03T10:30:32Z</time>
      </trkpt>
      <trkpt lat="43.50404" lon="6.81178">
        <ele>519</ele>
        <time>2011-06-03T10:30:33Z</time>
      </trkpt>
      <trkpt lat="43.50405" lon="6.8118">
        <ele>519</ele>
        <time>2011-06-03T10:30:34Z</time>
      </trkpt>
      <trkpt lat="43.50406" lon="6.81182">
        <ele>520</ele>
        <time>2011-06-03T10:30:35Z</time>
      </trkpt>
      <trkpt lat="43.50406" lon="6.81183">
        <ele>520</ele>
        <time>2011-06-03T10:30:36Z</time>
      </trkpt>
      <trkpt lat="43.50405" lon="6.81185">
        <ele>520</ele>
        <time>2011-06-03T10:30:37Z</time>
      </trkpt>
      <trkpt lat="43.50405" lon="6.81187">
        <ele>521</ele>
        <time>2011-06-03T10:30:38Z</time>
      </trkpt>
      <trkpt lat="43.50405" lon="6.81189">
        <ele>521</ele>
        <time>2011-06-03T10:30:39Z</time>
      </trkpt>
      <trkpt lat="43.50405" lon="6.81191">
        <ele>521</ele>
        <time>2011-06-03T10:30:40Z</time>
      </trkpt>
      <trkpt lat="43.50406" lon="6.81192">
        <ele>522</ele>
        <time>2011-06-03T10:30:41Z</time>
      </trkpt>
      <trkpt lat="43.50405" lon="6.81194">
        <ele>522</ele>
        <time>2011-06-03T10:30:42Z</time>
      </trkpt>
      <trkpt lat="43.50404" lon="6.81195">
        <ele>523</ele>
        <time>2011-06-03T10:30:43Z</time>
      </trkpt>
      <trkpt lat="43.50405" lon="6.81196">
        <ele>524</ele>
        <time>2011-06-03T10:30:44Z</time>
      </trkpt>
      <trkpt lat="43.50404" lon="6.81198">
        <ele>524.98950195312</ele>
        <time>2011-06-03T10:30:45Z</time>
      </trkpt>
      <trkpt lat="43.50404" lon="6.812">
        <ele>525</ele>
        <time>2011-06-03T10:30:46Z</time>
      </trkpt>
      <trkpt lat="43.50404" lon="6.81202">
        <ele>525</ele>
        <time>2011-06-03T10:30:47Z</time>
      </trkpt>
      <trkpt lat="43.50402" lon="6.81204">
        <ele>525</ele>
        <time>2011-06-03T10:30:48Z</time>
      </trkpt>
      <trkpt lat="43.50402" lon="6.81206">
        <ele>526</ele>
        <time>2011-06-03T10:30:49Z</time>
      </trkpt>
      <trkpt lat="43.50402" lon="6.81208">
        <ele>526</ele>
        <time>2011-06-03T10:30:50Z</time>
      </trkpt>
      <trkpt lat="43.50402" lon="6.81211">
        <ele>526</ele>
        <time>2011-06-03T10:30:51Z</time>
      </trkpt>
      <trkpt lat="43.50404" lon="6.81212">
        <ele>526</ele>
        <time>2011-06-03T10:30:52Z</time>
      </trkpt>
      <trkpt lat="43.50404" lon="6.81215">
        <ele>525</ele>
        <time>2011-06-03T10:30:53Z</time>
      </trkpt>
      <trkpt lat="43.50404" lon="6.81216">
        <ele>525</ele>
        <time>2011-06-03T10:30:54Z</time>
      </trkpt>
      <trkpt lat="43.50404" lon="6.81218">
        <ele>526</ele>
        <time>2011-06-03T10:30:55Z</time>
      </trkpt>
      <trkpt lat="43.50405" lon="6.81219">
        <ele>527</ele>
        <time>2011-06-03T10:30:56Z</time>
      </trkpt>
      <trkpt lat="43.50405" lon="6.81221">
        <ele>526</ele>
        <time>2011-06-03T10:30:57Z</time>
      </trkpt>
      <trkpt lat="43.50406" lon="6.81223">
        <ele>527</ele>
        <time>2011-06-03T10:30:58Z</time>
      </trkpt>
      <trkpt lat="43.50407" lon="6.81224">
        <ele>527</ele>
        <time>2011-06-03T10:30:59Z</time>
      </trkpt>
      <trkpt lat="43.50407" lon="6.81224">
        <ele>527</ele>
        <time>2011-06-03T10:31:00Z</time>
      </trkpt>
      <trkpt lat="43.50406" lon="6.81225">
        <ele>527</ele>
        <time>2011-06-03T10:31:01Z</time>
      </trkpt>
      <trkpt lat="43.50405" lon="6.81225">
        <ele>528</ele>
        <time>2011-06-03T10:31:02Z</time>
      </trkpt>
      <trkpt lat="43.50404" lon="6.81224">
        <ele>528</ele>
        <time>2011-06-03T10:31:03Z</time>
      </trkpt>
      <trkpt lat="43.50401" lon="6.81223">
        <ele>528</ele>
        <time>2011-06-03T10:31:04Z</time>
      </trkpt>
      <trkpt lat="43.504" lon="6.81222">
        <ele>529</ele>
        <time>2011-06-03T10:31:05Z</time>
      </trkpt>
      <trkpt lat="43.50385" lon="6.81208">
        <ele>531</ele>
        <time>2011-06-03T10:31:18Z</time>
      </trkpt>
      <trkpt lat="43.50385" lon="6.81208">
        <ele>531.15020751953</ele>
        <time>2011-06-03T10:31:18Z</time>
      </trkpt>
      <trkpt lat="43.50383" lon="6.81205">
        <ele>532</ele>
        <time>2011-06-03T10:31:19Z</time>
      </trkpt>
      <trkpt lat="43.50382" lon="6.81203">
        <ele>532</ele>
        <time>2011-06-03T10:31:20Z</time>
      </trkpt>
      <trkpt lat="43.5038" lon="6.81202">
        <ele>532</ele>
        <time>2011-06-03T10:31:21Z</time>
      </trkpt>
      <trkpt lat="43.5038" lon="6.812">
        <ele>534</ele>
        <time>2011-06-03T10:31:22Z</time>
      </trkpt>
      <trkpt lat="43.50379" lon="6.81199">
        <ele>535</ele>
        <time>2011-06-03T10:31:23Z</time>
      </trkpt>
      <trkpt lat="43.50378" lon="6.81197">
        <ele>535</ele>
        <time>2011-06-03T10:31:24Z</time>
      </trkpt>
      <trkpt lat="43.50377" lon="6.81196">
        <ele>535</ele>
        <time>2011-06-03T10:31:25Z</time>
      </trkpt>
      <trkpt lat="43.50376" lon="6.81194">
        <ele>536</ele>
        <time>2011-06-03T10:31:26Z</time>
      </trkpt>
      <trkpt lat="43.50375" lon="6.81193">
        <ele>537</ele>
        <time>2011-06-03T10:31:27Z</time>
      </trkpt>
      <trkpt lat="43.50375" lon="6.8119">
        <ele>537</ele>
        <time>2011-06-03T10:31:28Z</time>
      </trkpt>
      <trkpt lat="43.50374" lon="6.81189">
        <ele>536</ele>
        <time>2011-06-03T10:31:29Z</time>
      </trkpt>
      <trkpt lat="43.50374" lon="6.81188">
        <ele>536</ele>
        <time>2011-06-03T10:31:30Z</time>
      </trkpt>
      <trkpt lat="43.50373" lon="6.81186">
        <ele>537</ele>
        <time>2011-06-03T10:31:31Z</time>
      </trkpt>
      <trkpt lat="43.50372" lon="6.81184">
        <ele>537</ele>
        <time>2011-06-03T10:31:32Z</time>
      </trkpt>
      <trkpt lat="43.50372" lon="6.81182">
        <ele>537</ele>
        <time>2011-06-03T10:31:33Z</time>
      </trkpt>
      <trkpt lat="43.50371" lon="6.8118">
        <ele>537</ele>
        <time>2011-06-03T10:31:34Z</time>
      </trkpt>
      <trkpt lat="43.50371" lon="6.81179">
        <ele>538</ele>
        <time>2011-06-03T10:31:35Z</time>
      </trkpt>
      <trkpt lat="43.50369" lon="6.81178">
        <ele>538</ele>
        <time>2011-06-03T10:31:36Z</time>
      </trkpt>
      <trkpt lat="43.50367" lon="6.81176">
        <ele>538</ele>
        <time>2011-06-03T10:31:37Z</time>
      </trkpt>
      <trkpt lat="43.50365" lon="6.81176">
        <ele>538</ele>
        <time>2011-06-03T10:31:38Z</time>
      </trkpt>
      <trkpt lat="43.50364" lon="6.81174">
        <ele>539</ele>
        <time>2011-06-03T10:31:39Z</time>
      </trkpt>
      <trkpt lat="43.50365" lon="6.81173">
        <ele>539</ele>
        <time>2011-06-03T10:31:40Z</time>
      </trkpt>
      <trkpt lat="43.50365" lon="6.8117">
        <ele>539</ele>
        <time>2011-06-03T10:31:41Z</time>
      </trkpt>
      <trkpt lat="43.50365" lon="6.81167">
        <ele>540</ele>
        <time>2011-06-03T10:31:42Z</time>
      </trkpt>
      <trkpt lat="43.50365" lon="6.81165">
        <ele>540</ele>
        <time>2011-06-03T10:31:43Z</time>
      </trkpt>
      <trkpt lat="43.50364" lon="6.81163">
        <ele>541</ele>
        <time>2011-06-03T10:31:44Z</time>
      </trkpt>
      <trkpt lat="43.50362" lon="6.81161">
        <ele>540</ele>
        <time>2011-06-03T10:31:45Z</time>
      </trkpt>
      <trkpt lat="43.50361" lon="6.81159">
        <ele>539</ele>
        <time>2011-06-03T10:31:46Z</time>
      </trkpt>
      <trkpt lat="43.5036" lon="6.81158">
        <ele>540</ele>
        <time>2011-06-03T10:31:47Z</time>
      </trkpt>
      <trkpt lat="43.5036" lon="6.81156">
        <ele>539</ele>
        <time>2011-06-03T10:31:48Z</time>
      </trkpt>
      <trkpt lat="43.5036" lon="6.81154">
        <ele>539</ele>
        <time>2011-06-03T10:31:49Z</time>
      </trkpt>
      <trkpt lat="43.50358" lon="6.81153">
        <ele>539</ele>
        <time>2011-06-03T10:31:50Z</time>
      </trkpt>
      <trkpt lat="43.50357" lon="6.81152">
        <ele>539</ele>
        <time>2011-06-03T10:31:51Z</time>
      </trkpt>
      <trkpt lat="43.50356" lon="6.8115">
        <ele>539</ele>
        <time>2011-06-03T10:31:52Z</time>
      </trkpt>
      <trkpt lat="43.50355" lon="6.81149">
        <ele>539</ele>
        <time>2011-06-03T10:31:53Z</time>
      </trkpt>
      <trkpt lat="43.50355" lon="6.81149">
        <ele>540</ele>
        <time>2011-06-03T10:31:54Z</time>
      </trkpt>
      <trkpt lat="43.50354" lon="6.81146">
        <ele>540</ele>
        <time>2011-06-03T10:31:55Z</time>
      </trkpt>
      <trkpt lat="43.50353" lon="6.81146">
        <ele>540</ele>
        <time>2011-06-03T10:31:56Z</time>
      </trkpt>
      <trkpt lat="43.50353" lon="6.81144">
        <ele>541</ele>
        <time>2011-06-03T10:31:57Z</time>
      </trkpt>
      <trkpt lat="43.5035" lon="6.81141">
        <ele>542</ele>
        <time>2011-06-03T10:31:58Z</time>
      </trkpt>
      <trkpt lat="43.5035" lon="6.81139">
        <ele>542</ele>
        <time>2011-06-03T10:31:59Z</time>
      </trkpt>
      <trkpt lat="43.50348" lon="6.81138">
        <ele>542</ele>
        <time>2011-06-03T10:32:00Z</time>
      </trkpt>
      <trkpt lat="43.50347" lon="6.81137">
        <ele>541</ele>
        <time>2011-06-03T10:32:01Z</time>
      </trkpt>
      <trkpt lat="43.50346" lon="6.81136">
        <ele>541</ele>
        <time>2011-06-03T10:32:02Z</time>
      </trkpt>
      <trkpt lat="43.50345" lon="6.81135">
        <ele>541</ele>
        <time>2011-06-03T10:32:03Z</time>
      </trkpt>
      <trkpt lat="43.50343" lon="6.81134">
        <ele>541</ele>
        <time>2011-06-03T10:32:04Z</time>
      </trkpt>
      <trkpt lat="43.50342" lon="6.81132">
        <ele>541</ele>
        <time>2011-06-03T10:32:05Z</time>
      </trkpt>
      <trkpt lat="43.50341" lon="6.81132">
        <ele>542</ele>
        <time>2011-06-03T10:32:06Z</time>
      </trkpt>
      <trkpt lat="43.50341" lon="6.8113">
        <ele>543</ele>
        <time>2011-06-03T10:32:07Z</time>
      </trkpt>
      <trkpt lat="43.50341" lon="6.81129">
        <ele>544</ele>
        <time>2011-06-03T10:32:08Z</time>
      </trkpt>
      <trkpt lat="43.5034" lon="6.81128">
        <ele>545</ele>
        <time>2011-06-03T10:32:09Z</time>
      </trkpt>
      <trkpt lat="43.50339" lon="6.81127">
        <ele>545</ele>
        <time>2011-06-03T10:32:10Z</time>
      </trkpt>
      <trkpt lat="43.50338" lon="6.81127">
        <ele>545</ele>
        <time>2011-06-03T10:32:11Z</time>
      </trkpt>
      <trkpt lat="43.50337" lon="6.81126">
        <ele>545</ele>
        <time>2011-06-03T10:32:12Z</time>
      </trkpt>
      <trkpt lat="43.50336" lon="6.81126">
        <ele>545</ele>
        <time>2011-06-03T10:32:13Z</time>
      </trkpt>
      <trkpt lat="43.50335" lon="6.81125">
        <ele>546</ele>
        <time>2011-06-03T10:32:14Z</time>
      </trkpt>
      <trkpt lat="43.50334" lon="6.81125">
        <ele>547</ele>
        <time>2011-06-03T10:32:15Z</time>
      </trkpt>
      <trkpt lat="43.50333" lon="6.81125">
        <ele>547</ele>
        <time>2011-06-03T10:32:16Z</time>
      </trkpt>
      <trkpt lat="43.50332" lon="6.81125">
        <ele>547</ele>
        <time>2011-06-03T10:32:17Z</time>
      </trkpt>
      <trkpt lat="43.50331" lon="6.81124">
        <ele>547</ele>
        <time>2011-06-03T10:32:18Z</time>
      </trkpt>
      <trkpt lat="43.50331" lon="6.81124">
        <ele>547</ele>
        <time>2011-06-03T10:32:19Z</time>
      </trkpt>
      <trkpt lat="43.50329" lon="6.81124">
        <ele>547</ele>
        <time>2011-06-03T10:32:20Z</time>
      </trkpt>
      <trkpt lat="43.50328" lon="6.81125">
        <ele>548</ele>
        <time>2011-06-03T10:32:21Z</time>
      </trkpt>
      <trkpt lat="43.50327" lon="6.81125">
        <ele>548</ele>
        <time>2011-06-03T10:32:22Z</time>
      </trkpt>
      <trkpt lat="43.50326" lon="6.81125">
        <ele>549</ele>
        <time>2011-06-03T10:32:24Z</time>
      </trkpt>
      <trkpt lat="43.50325" lon="6.81125">
        <ele>549.18377685547</ele>
        <time>2011-06-03T10:32:24Z</time>
      </trkpt>
      <trkpt lat="43.50323" lon="6.81126">
        <ele>550</ele>
        <time>2011-06-03T10:32:25Z</time>
      </trkpt>
      <trkpt lat="43.50322" lon="6.81126">
        <ele>550</ele>
        <time>2011-06-03T10:32:26Z</time>
      </trkpt>
      <trkpt lat="43.50321" lon="6.81127">
        <ele>551</ele>
        <time>2011-06-03T10:32:27Z</time>
      </trkpt>
      <trkpt lat="43.50321" lon="6.81128">
        <ele>552</ele>
        <time>2011-06-03T10:32:28Z</time>
      </trkpt>
      <trkpt lat="43.50321" lon="6.81129">
        <ele>552</ele>
        <time>2011-06-03T10:32:29Z</time>
      </trkpt>
      <trkpt lat="43.5032" lon="6.8113">
        <ele>552</ele>
        <time>2011-06-03T10:32:30Z</time>
      </trkpt>
      <trkpt lat="43.50319" lon="6.81131">
        <ele>552</ele>
        <time>2011-06-03T10:32:31Z</time>
      </trkpt>
      <trkpt lat="43.50319" lon="6.81132">
        <ele>552</ele>
        <time>2011-06-03T10:32:32Z</time>
      </trkpt>
      <trkpt lat="43.50319" lon="6.81134">
        <ele>552</ele>
        <time>2011-06-03T10:32:33Z</time>
      </trkpt>
      <trkpt lat="43.50316" lon="6.81135">
        <ele>553</ele>
        <time>2011-06-03T10:32:34Z</time>
      </trkpt>
      <trkpt lat="43.50316" lon="6.81136">
        <ele>554</ele>
        <time>2011-06-03T10:32:35Z</time>
      </trkpt>
      <trkpt lat="43.50314" lon="6.81137">
        <ele>554</ele>
        <time>2011-06-03T10:32:36Z</time>
      </trkpt>
      <trkpt lat="43.50314" lon="6.81138">
        <ele>555</ele>
        <time>2011-06-03T10:32:37Z</time>
      </trkpt>
      <trkpt lat="43.50313" lon="6.81139">
        <ele>555</ele>
        <time>2011-06-03T10:32:38Z</time>
      </trkpt>
      <trkpt lat="43.50313" lon="6.81141">
        <ele>555</ele>
        <time>2011-06-03T10:32:39Z</time>
      </trkpt>
      <trkpt lat="43.50313" lon="6.81143">
        <ele>554</ele>
        <time>2011-06-03T10:32:40Z</time>
      </trkpt>
      <trkpt lat="43.50312" lon="6.81144">
        <ele>555</ele>
        <time>2011-06-03T10:32:41Z</time>
      </trkpt>
      <trkpt lat="43.50311" lon="6.81146">
        <ele>555</ele>
        <time>2011-06-03T10:32:42Z</time>
      </trkpt>
      <trkpt lat="43.50311" lon="6.81148">
        <ele>555</ele>
        <time>2011-06-03T10:32:43Z</time>
      </trkpt>
      <trkpt lat="43.50311" lon="6.81149">
        <ele>555</ele>
        <time>2011-06-03T10:32:44Z</time>
      </trkpt>
      <trkpt lat="43.5031" lon="6.81149">
        <ele>554</ele>
        <time>2011-06-03T10:32:45Z</time>
      </trkpt>
      <trkpt lat="43.50309" lon="6.8115">
        <ele>554</ele>
        <time>2011-06-03T10:32:46Z</time>
      </trkpt>
      <trkpt lat="43.50308" lon="6.81152">
        <ele>555</ele>
        <time>2011-06-03T10:32:47Z</time>
      </trkpt>
      <trkpt lat="43.50306" lon="6.81153">
        <ele>555</ele>
        <time>2011-06-03T10:32:48Z</time>
      </trkpt>
      <trkpt lat="43.50305" lon="6.81155">
        <ele>555</ele>
        <time>2011-06-03T10:32:49Z</time>
      </trkpt>
      <trkpt lat="43.50304" lon="6.81157">
        <ele>554</ele>
        <time>2011-06-03T10:32:50Z</time>
      </trkpt>
      <trkpt lat="43.50303" lon="6.81158">
        <ele>555</ele>
        <time>2011-06-03T10:32:51Z</time>
      </trkpt>
      <trkpt lat="43.50302" lon="6.81158">
        <ele>555</ele>
        <time>2011-06-03T10:32:52Z</time>
      </trkpt>
      <trkpt lat="43.50302" lon="6.8116">
        <ele>555</ele>
        <time>2011-06-03T10:32:53Z</time>
      </trkpt>
      <trkpt lat="43.50301" lon="6.81161">
        <ele>556</ele>
        <time>2011-06-03T10:32:54Z</time>
      </trkpt>
      <trkpt lat="43.50299" lon="6.81164">
        <ele>556</ele>
        <time>2011-06-03T10:32:55Z</time>
      </trkpt>
      <trkpt lat="43.503" lon="6.81166">
        <ele>556</ele>
        <time>2011-06-03T10:32:56Z</time>
      </trkpt>
      <trkpt lat="43.50299" lon="6.81167">
        <ele>556</ele>
        <time>2011-06-03T10:32:57Z</time>
      </trkpt>
      <trkpt lat="43.50298" lon="6.81168">
        <ele>556</ele>
        <time>2011-06-03T10:32:58Z</time>
      </trkpt>
      <trkpt lat="43.50298" lon="6.8117">
        <ele>556</ele>
        <time>2011-06-03T10:32:59Z</time>
      </trkpt>
      <trkpt lat="43.50297" lon="6.81172">
        <ele>556</ele>
        <time>2011-06-03T10:33:00Z</time>
      </trkpt>
      <trkpt lat="43.50297" lon="6.81172">
        <ele>556</ele>
        <time>2011-06-03T10:33:01Z</time>
      </trkpt>
      <trkpt lat="43.50297" lon="6.81173">
        <ele>556</ele>
        <time>2011-06-03T10:33:02Z</time>
      </trkpt>
      <trkpt lat="43.50297" lon="6.81174">
        <ele>556</ele>
        <time>2011-06-03T10:33:03Z</time>
      </trkpt>
      <trkpt lat="43.50296" lon="6.81175">
        <ele>556</ele>
        <time>2011-06-03T10:33:04Z</time>
      </trkpt>
      <trkpt lat="43.50295" lon="6.81178">
        <ele>557</ele>
        <time>2011-06-03T10:33:05Z</time>
      </trkpt>
      <trkpt lat="43.50294" lon="6.81179">
        <ele>558</ele>
        <time>2011-06-03T10:33:06Z</time>
      </trkpt>
      <trkpt lat="43.50294" lon="6.81181">
        <ele>558</ele>
        <time>2011-06-03T10:33:08Z</time>
      </trkpt>
      <trkpt lat="43.50294" lon="6.81181">
        <ele>558</ele>
        <time>2011-06-03T10:33:08Z</time>
      </trkpt>
      <trkpt lat="43.50291" lon="6.81183">
        <ele>558</ele>
        <time>2011-06-03T10:33:09Z</time>
      </trkpt>
      <trkpt lat="43.50291" lon="6.81185">
        <ele>558</ele>
        <time>2011-06-03T10:33:10Z</time>
      </trkpt>
      <trkpt lat="43.50291" lon="6.81186">
        <ele>560</ele>
        <time>2011-06-03T10:33:11Z</time>
      </trkpt>
      <trkpt lat="43.5029" lon="6.81187">
        <ele>561</ele>
        <time>2011-06-03T10:33:12Z</time>
      </trkpt>
      <trkpt lat="43.50289" lon="6.81188">
        <ele>562</ele>
        <time>2011-06-03T10:33:13Z</time>
      </trkpt>
      <trkpt lat="43.50289" lon="6.8119">
        <ele>562</ele>
        <time>2011-06-03T10:33:14Z</time>
      </trkpt>
      <trkpt lat="43.50288" lon="6.81192">
        <ele>562</ele>
        <time>2011-06-03T10:33:15Z</time>
      </trkpt>
      <trkpt lat="43.50288" lon="6.81193">
        <ele>562</ele>
        <time>2011-06-03T10:33:16Z</time>
      </trkpt>
      <trkpt lat="43.50287" lon="6.81194">
        <ele>562</ele>
        <time>2011-06-03T10:33:17Z</time>
      </trkpt>
      <trkpt lat="43.50285" lon="6.81195">
        <ele>563</ele>
        <time>2011-06-03T10:33:18Z</time>
      </trkpt>
      <trkpt lat="43.50284" lon="6.81196">
        <ele>562</ele>
        <time>2011-06-03T10:33:19Z</time>
      </trkpt>
      <trkpt lat="43.50282" lon="6.81198">
        <ele>562</ele>
        <time>2011-06-03T10:33:20Z</time>
      </trkpt>
      <trkpt lat="43.5028" lon="6.812">
        <ele>562</ele>
        <time>2011-06-03T10:33:21Z</time>
      </trkpt>
      <trkpt lat="43.50279" lon="6.81201">
        <ele>563</ele>
        <time>2011-06-03T10:33:22Z</time>
      </trkpt>
      <trkpt lat="43.50279" lon="6.81202">
        <ele>563</ele>
        <time>2011-06-03T10:33:23Z</time>
      </trkpt>
      <trkpt lat="43.50278" lon="6.81203">
        <ele>563</ele>
        <time>2011-06-03T10:33:24Z</time>
      </trkpt>
      <trkpt lat="43.50276" lon="6.81204">
        <ele>563</ele>
        <time>2011-06-03T10:33:25Z</time>
      </trkpt>
      <trkpt lat="43.50275" lon="6.81205">
        <ele>564</ele>
        <time>2011-06-03T10:33:26Z</time>
      </trkpt>
      <trkpt lat="43.50274" lon="6.81208">
        <ele>564</ele>
        <time>2011-06-03T10:33:27Z</time>
      </trkpt>
      <trkpt lat="43.50273" lon="6.81209">
        <ele>564</ele>
        <time>2011-06-03T10:33:28Z</time>
      </trkpt>
      <trkpt lat="43.50272" lon="6.8121">
        <ele>565</ele>
        <time>2011-06-03T10:33:29Z</time>
      </trkpt>
      <trkpt lat="43.50272" lon="6.81212">
        <ele>565</ele>
        <time>2011-06-03T10:33:30Z</time>
      </trkpt>
      <trkpt lat="43.50271" lon="6.81214">
        <ele>565</ele>
        <time>2011-06-03T10:33:31Z</time>
      </trkpt>
      <trkpt lat="43.50271" lon="6.81216">
        <ele>566</ele>
        <time>2011-06-03T10:33:32Z</time>
      </trkpt>
      <trkpt lat="43.50272" lon="6.81217">
        <ele>566</ele>
        <time>2011-06-03T10:33:33Z</time>
      </trkpt>
      <trkpt lat="43.50271" lon="6.81219">
        <ele>566</ele>
        <time>2011-06-03T10:33:34Z</time>
      </trkpt>
      <trkpt lat="43.50271" lon="6.8122">
        <ele>566</ele>
        <time>2011-06-03T10:33:35Z</time>
      </trkpt>
      <trkpt lat="43.50271" lon="6.81223">
        <ele>566</ele>
        <time>2011-06-03T10:33:36Z</time>
      </trkpt>
      <trkpt lat="43.50271" lon="6.81226">
        <ele>567</ele>
        <time>2011-06-03T10:33:37Z</time>
      </trkpt>
      <trkpt lat="43.50271" lon="6.81228">
        <ele>567</ele>
        <time>2011-06-03T10:33:38Z</time>
      </trkpt>
      <trkpt lat="43.50272" lon="6.81229">
        <ele>567</ele>
        <time>2011-06-03T10:33:39Z</time>
      </trkpt>
      <trkpt lat="43.50272" lon="6.8123">
        <ele>568</ele>
        <time>2011-06-03T10:33:40Z</time>
      </trkpt>
      <trkpt lat="43.50272" lon="6.81232">
        <ele>569</ele>
        <time>2011-06-03T10:33:41Z</time>
      </trkpt>
      <trkpt lat="43.50272" lon="6.81234">
        <ele>569</ele>
        <time>2011-06-03T10:33:42Z</time>
      </trkpt>
      <trkpt lat="43.50272" lon="6.81236">
        <ele>570</ele>
        <time>2011-06-03T10:33:43Z</time>
      </trkpt>
      <trkpt lat="43.50272" lon="6.81237">
        <ele>571</ele>
        <time>2011-06-03T10:33:44Z</time>
      </trkpt>
      <trkpt lat="43.50272" lon="6.81239">
        <ele>570</ele>
        <time>2011-06-03T10:33:45Z</time>
      </trkpt>
      <trkpt lat="43.50272" lon="6.8124">
        <ele>570</ele>
        <time>2011-06-03T10:33:46Z</time>
      </trkpt>
      <trkpt lat="43.50272" lon="6.81242">
        <ele>570</ele>
        <time>2011-06-03T10:33:47Z</time>
      </trkpt>
      <trkpt lat="43.50272" lon="6.81244">
        <ele>570</ele>
        <time>2011-06-03T10:33:48Z</time>
      </trkpt>
      <trkpt lat="43.50271" lon="6.81246">
        <ele>570</ele>
        <time>2011-06-03T10:33:49Z</time>
      </trkpt>
      <trkpt lat="43.50271" lon="6.81248">
        <ele>570</ele>
        <time>2011-06-03T10:33:50Z</time>
      </trkpt>
      <trkpt lat="43.50271" lon="6.81249">
        <ele>570</ele>
        <time>2011-06-03T10:33:51Z</time>
      </trkpt>
      <trkpt lat="43.5027" lon="6.8125">
        <ele>570</ele>
        <time>2011-06-03T10:33:52Z</time>
      </trkpt>
      <trkpt lat="43.50269" lon="6.81253">
        <ele>570</ele>
        <time>2011-06-03T10:33:53Z</time>
      </trkpt>
      <trkpt lat="43.50269" lon="6.81254">
        <ele>570</ele>
        <time>2011-06-03T10:33:54Z</time>
      </trkpt>
      <trkpt lat="43.50269" lon="6.81256">
        <ele>570</ele>
        <time>2011-06-03T10:33:55Z</time>
      </trkpt>
      <trkpt lat="43.50269" lon="6.81257">
        <ele>569</ele>
        <time>2011-06-03T10:33:56Z</time>
      </trkpt>
      <trkpt lat="43.50268" lon="6.81259">
        <ele>570</ele>
        <time>2011-06-03T10:33:57Z</time>
      </trkpt>
      <trkpt lat="43.50267" lon="6.81261">
        <ele>570</ele>
        <time>2011-06-03T10:33:58Z</time>
      </trkpt>
      <trkpt lat="43.50267" lon="6.81263">
        <ele>570</ele>
        <time>2011-06-03T10:33:59Z</time>
      </trkpt>
      <trkpt lat="43.50266" lon="6.81265">
        <ele>570</ele>
        <time>2011-06-03T10:34:00Z</time>
      </trkpt>
      <trkpt lat="43.50266" lon="6.81267">
        <ele>570</ele>
        <time>2011-06-03T10:34:01Z</time>
      </trkpt>
      <trkpt lat="43.50266" lon="6.81269">
        <ele>571</ele>
        <time>2011-06-03T10:34:02Z</time>
      </trkpt>
      <trkpt lat="43.50267" lon="6.81271">
        <ele>571</ele>
        <time>2011-06-03T10:34:03Z</time>
      </trkpt>
      <trkpt lat="43.50267" lon="6.81273">
        <ele>572</ele>
        <time>2011-06-03T10:34:04Z</time>
      </trkpt>
      <trkpt lat="43.50266" lon="6.81275">
        <ele>572</ele>
        <time>2011-06-03T10:34:05Z</time>
      </trkpt>
      <trkpt lat="43.50266" lon="6.81277">
        <ele>572</ele>
        <time>2011-06-03T10:34:06Z</time>
      </trkpt>
      <trkpt lat="43.50266" lon="6.81279">
        <ele>572</ele>
        <time>2011-06-03T10:34:08Z</time>
      </trkpt>
      <trkpt lat="43.50266" lon="6.81279">
        <ele>572</ele>
        <time>2011-06-03T10:34:08Z</time>
      </trkpt>
      <trkpt lat="43.50264" lon="6.81282">
        <ele>573</ele>
        <time>2011-06-03T10:34:09Z</time>
      </trkpt>
      <trkpt lat="43.50264" lon="6.81282">
        <ele>574</ele>
        <time>2011-06-03T10:34:10Z</time>
      </trkpt>
      <trkpt lat="43.50262" lon="6.81284">
        <ele>574</ele>
        <time>2011-06-03T10:34:11Z</time>
      </trkpt>
      <trkpt lat="43.50261" lon="6.81286">
        <ele>574</ele>
        <time>2011-06-03T10:34:12Z</time>
      </trkpt>
      <trkpt lat="43.5026" lon="6.81288">
        <ele>573</ele>
        <time>2011-06-03T10:34:14Z</time>
      </trkpt>
      <trkpt lat="43.5026" lon="6.81288">
        <ele>573</ele>
        <time>2011-06-03T10:34:14Z</time>
      </trkpt>
      <trkpt lat="43.50258" lon="6.81291">
        <ele>573</ele>
        <time>2011-06-03T10:34:15Z</time>
      </trkpt>
      <trkpt lat="43.50258" lon="6.81293">
        <ele>573</ele>
        <time>2011-06-03T10:34:16Z</time>
      </trkpt>
      <trkpt lat="43.50259" lon="6.81296">
        <ele>573</ele>
        <time>2011-06-03T10:34:17Z</time>
      </trkpt>
      <trkpt lat="43.50259" lon="6.81298">
        <ele>573</ele>
        <time>2011-06-03T10:34:18Z</time>
      </trkpt>
      <trkpt lat="43.50259" lon="6.813">
        <ele>573</ele>
        <time>2011-06-03T10:34:19Z</time>
      </trkpt>
      <trkpt lat="43.50259" lon="6.81301">
        <ele>574</ele>
        <time>2011-06-03T10:34:20Z</time>
      </trkpt>
      <trkpt lat="43.50259" lon="6.81303">
        <ele>574</ele>
        <time>2011-06-03T10:34:21Z</time>
      </trkpt>
      <trkpt lat="43.50259" lon="6.81304">
        <ele>574</ele>
        <time>2011-06-03T10:34:22Z</time>
      </trkpt>
      <trkpt lat="43.50259" lon="6.81306">
        <ele>574</ele>
        <time>2011-06-03T10:34:23Z</time>
      </trkpt>
      <trkpt lat="43.50259" lon="6.81308">
        <ele>574</ele>
        <time>2011-06-03T10:34:24Z</time>
      </trkpt>
      <trkpt lat="43.50261" lon="6.8131">
        <ele>575</ele>
        <time>2011-06-03T10:34:25Z</time>
      </trkpt>
      <trkpt lat="43.50261" lon="6.81312">
        <ele>575</ele>
        <time>2011-06-03T10:34:26Z</time>
      </trkpt>
      <trkpt lat="43.5026" lon="6.81315">
        <ele>574</ele>
        <time>2011-06-03T10:34:27Z</time>
      </trkpt>
      <trkpt lat="43.50262" lon="6.81316">
        <ele>576</ele>
        <time>2011-06-03T10:34:28Z</time>
      </trkpt>
      <trkpt lat="43.50262" lon="6.81318">
        <ele>576</ele>
        <time>2011-06-03T10:34:29Z</time>
      </trkpt>
      <trkpt lat="43.50263" lon="6.81319">
        <ele>577</ele>
        <time>2011-06-03T10:34:30Z</time>
      </trkpt>
      <trkpt lat="43.50264" lon="6.8132">
        <ele>578</ele>
        <time>2011-06-03T10:34:31Z</time>
      </trkpt>
      <trkpt lat="43.50266" lon="6.81321">
        <ele>578</ele>
        <time>2011-06-03T10:34:32Z</time>
      </trkpt>
      <trkpt lat="43.50267" lon="6.81323">
        <ele>579</ele>
        <time>2011-06-03T10:34:33Z</time>
      </trkpt>
      <trkpt lat="43.50268" lon="6.81325">
        <ele>579</ele>
        <time>2011-06-03T10:34:34Z</time>
      </trkpt>
      <trkpt lat="43.5027" lon="6.81326">
        <ele>578</ele>
        <time>2011-06-03T10:34:35Z</time>
      </trkpt>
      <trkpt lat="43.50271" lon="6.81328">
        <ele>578</ele>
        <time>2011-06-03T10:34:37Z</time>
      </trkpt>
      <trkpt lat="43.50271" lon="6.81328">
        <ele>578.00170898438</ele>
        <time>2011-06-03T10:34:37Z</time>
      </trkpt>
      <trkpt lat="43.50271" lon="6.81329">
        <ele>578.31365966797</ele>
        <time>2011-06-03T10:34:38Z</time>
      </trkpt>
      <trkpt lat="43.50274" lon="6.81334">
        <ele>579</ele>
        <time>2011-06-03T10:34:39Z</time>
      </trkpt>
      <trkpt lat="43.50274" lon="6.81336">
        <ele>579</ele>
        <time>2011-06-03T10:34:40Z</time>
      </trkpt>
      <trkpt lat="43.50275" lon="6.81338">
        <ele>580</ele>
        <time>2011-06-03T10:34:41Z</time>
      </trkpt>
      <trkpt lat="43.50274" lon="6.81341">
        <ele>580</ele>
        <time>2011-06-03T10:34:42Z</time>
      </trkpt>
      <trkpt lat="43.50275" lon="6.81343">
        <ele>580</ele>
        <time>2011-06-03T10:34:43Z</time>
      </trkpt>
      <trkpt lat="43.50275" lon="6.81345">
        <ele>580</ele>
        <time>2011-06-03T10:34:44Z</time>
      </trkpt>
      <trkpt lat="43.50275" lon="6.81348">
        <ele>580</ele>
        <time>2011-06-03T10:34:45Z</time>
      </trkpt>
      <trkpt lat="43.50276" lon="6.81351">
        <ele>580</ele>
        <time>2011-06-03T10:34:46Z</time>
      </trkpt>
      <trkpt lat="43.50277" lon="6.81353">
        <ele>580</ele>
        <time>2011-06-03T10:34:47Z</time>
      </trkpt>
      <trkpt lat="43.50277" lon="6.81356">
        <ele>580</ele>
        <time>2011-06-03T10:34:48Z</time>
      </trkpt>
      <trkpt lat="43.50277" lon="6.81357">
        <ele>580</ele>
        <time>2011-06-03T10:34:49Z</time>
      </trkpt>
      <trkpt lat="43.50279" lon="6.81359">
        <ele>581</ele>
        <time>2011-06-03T10:34:50Z</time>
      </trkpt>
      <trkpt lat="43.50279" lon="6.81361">
        <ele>580</ele>
        <time>2011-06-03T10:34:51Z</time>
      </trkpt>
      <trkpt lat="43.50279" lon="6.81363">
        <ele>581</ele>
        <time>2011-06-03T10:34:52Z</time>
      </trkpt>
      <trkpt lat="43.50281" lon="6.81364">
        <ele>581</ele>
        <time>2011-06-03T10:34:53Z</time>
      </trkpt>
      <trkpt lat="43.50282" lon="6.81366">
        <ele>582</ele>
        <time>2011-06-03T10:34:54Z</time>
      </trkpt>
      <trkpt lat="43.50283" lon="6.81369">
        <ele>582</ele>
        <time>2011-06-03T10:34:55Z</time>
      </trkpt>
      <trkpt lat="43.50283" lon="6.81369">
        <ele>582</ele>
        <time>2011-06-03T10:34:56Z</time>
      </trkpt>
      <trkpt lat="43.50283" lon="6.8137">
        <ele>583</ele>
        <time>2011-06-03T10:34:57Z</time>
      </trkpt>
      <trkpt lat="43.50283" lon="6.81371">
        <ele>583</ele>
        <time>2011-06-03T10:34:58Z</time>
      </trkpt>
      <trkpt lat="43.50284" lon="6.81373">
        <ele>583</ele>
        <time>2011-06-03T10:35:00Z</time>
      </trkpt>
      <trkpt lat="43.50284" lon="6.81373">
        <ele>583</ele>
        <time>2011-06-03T10:35:00Z</time>
      </trkpt>
      <trkpt lat="43.50285" lon="6.81375">
        <ele>583</ele>
        <time>2011-06-03T10:35:01Z</time>
      </trkpt>
      <trkpt lat="43.50286" lon="6.81379">
        <ele>583</ele>
        <time>2011-06-03T10:35:02Z</time>
      </trkpt>
      <trkpt lat="43.50288" lon="6.8138">
        <ele>583</ele>
        <time>2011-06-03T10:35:03Z</time>
      </trkpt>
      <trkpt lat="43.50289" lon="6.81383">
        <ele>584</ele>
        <time>2011-06-03T10:35:04Z</time>
      </trkpt>
      <trkpt lat="43.50289" lon="6.81385">
        <ele>584</ele>
        <time>2011-06-03T10:35:05Z</time>
      </trkpt>
      <trkpt lat="43.5029" lon="6.81387">
        <ele>584</ele>
        <time>2011-06-03T10:35:06Z</time>
      </trkpt>
      <trkpt lat="43.5029" lon="6.81389">
        <ele>583</ele>
        <time>2011-06-03T10:35:07Z</time>
      </trkpt>
      <trkpt lat="43.50291" lon="6.81392">
        <ele>583</ele>
        <time>2011-06-03T10:35:08Z</time>
      </trkpt>
      <trkpt lat="43.50291" lon="6.81394">
        <ele>584</ele>
        <time>2011-06-03T10:35:09Z</time>
      </trkpt>
      <trkpt lat="43.50291" lon="6.81397">
        <ele>584</ele>
        <time>2011-06-03T10:35:10Z</time>
      </trkpt>
      <trkpt lat="43.50293" lon="6.81399">
        <ele>584</ele>
        <time>2011-06-03T10:35:11Z</time>
      </trkpt>
      <trkpt lat="43.50294" lon="6.81401">
        <ele>585</ele>
        <time>2011-06-03T10:35:12Z</time>
      </trkpt>
      <trkpt lat="43.50294" lon="6.81404">
        <ele>584</ele>
        <time>2011-06-03T10:35:13Z</time>
      </trkpt>
      <trkpt lat="43.50294" lon="6.81406">
        <ele>585</ele>
        <time>2011-06-03T10:35:14Z</time>
      </trkpt>
      <trkpt lat="43.50295" lon="6.81407">
        <ele>586</ele>
        <time>2011-06-03T10:35:15Z</time>
      </trkpt>
      <trkpt lat="43.50295" lon="6.81409">
        <ele>586</ele>
        <time>2011-06-03T10:35:16Z</time>
      </trkpt>
      <trkpt lat="43.50295" lon="6.81411">
        <ele>586</ele>
        <time>2011-06-03T10:35:17Z</time>
      </trkpt>
      <trkpt lat="43.50296" lon="6.81414">
        <ele>586</ele>
        <time>2011-06-03T10:35:18Z</time>
      </trkpt>
      <trkpt lat="43.50297" lon="6.81415">
        <ele>585</ele>
        <time>2011-06-03T10:35:19Z</time>
      </trkpt>
      <trkpt lat="43.50298" lon="6.81416">
        <ele>586</ele>
        <time>2011-06-03T10:35:20Z</time>
      </trkpt>
      <trkpt lat="43.50298" lon="6.81417">
        <ele>586</ele>
        <time>2011-06-03T10:35:21Z</time>
      </trkpt>
      <trkpt lat="43.50298" lon="6.8142">
        <ele>586</ele>
        <time>2011-06-03T10:35:23Z</time>
      </trkpt>
      <trkpt lat="43.50299" lon="6.8142">
        <ele>586.27520751953</ele>
        <time>2011-06-03T10:35:23Z</time>
      </trkpt>
      <trkpt lat="43.50301" lon="6.81422">
        <ele>589</ele>
        <time>2011-06-03T10:35:24Z</time>
      </trkpt>
      <trkpt lat="43.50301" lon="6.81424">
        <ele>589</ele>
        <time>2011-06-03T10:35:25Z</time>
      </trkpt>
      <trkpt lat="43.50303" lon="6.81425">
        <ele>590</ele>
        <time>2011-06-03T10:35:26Z</time>
      </trkpt>
      <trkpt lat="43.50304" lon="6.81426">
        <ele>590</ele>
        <time>2011-06-03T10:35:27Z</time>
      </trkpt>
      <trkpt lat="43.50306" lon="6.81428">
        <ele>590</ele>
        <time>2011-06-03T10:35:28Z</time>
      </trkpt>
      <trkpt lat="43.50306" lon="6.81431">
        <ele>590</ele>
        <time>2011-06-03T10:35:29Z</time>
      </trkpt>
      <trkpt lat="43.50306" lon="6.81433">
        <ele>590</ele>
        <time>2011-06-03T10:35:30Z</time>
      </trkpt>
      <trkpt lat="43.50306" lon="6.81437">
        <ele>591</ele>
        <time>2011-06-03T10:35:31Z</time>
      </trkpt>
      <trkpt lat="43.50306" lon="6.81439">
        <ele>590</ele>
        <time>2011-06-03T10:35:32Z</time>
      </trkpt>
      <trkpt lat="43.50305" lon="6.81441">
        <ele>591</ele>
        <time>2011-06-03T10:35:33Z</time>
      </trkpt>
      <trkpt lat="43.50304" lon="6.81445">
        <ele>592</ele>
        <time>2011-06-03T10:35:34Z</time>
      </trkpt>
      <trkpt lat="43.50305" lon="6.81446">
        <ele>592</ele>
        <time>2011-06-03T10:35:35Z</time>
      </trkpt>
      <trkpt lat="43.50305" lon="6.81449">
        <ele>592</ele>
        <time>2011-06-03T10:35:36Z</time>
      </trkpt>
      <trkpt lat="43.50304" lon="6.81452">
        <ele>593</ele>
        <time>2011-06-03T10:35:37Z</time>
      </trkpt>
      <trkpt lat="43.50304" lon="6.81454">
        <ele>593</ele>
        <time>2011-06-03T10:35:38Z</time>
      </trkpt>
      <trkpt lat="43.50303" lon="6.81457">
        <ele>593</ele>
        <time>2011-06-03T10:35:39Z</time>
      </trkpt>
      <trkpt lat="43.50302" lon="6.81458">
        <ele>594</ele>
        <time>2011-06-03T10:35:40Z</time>
      </trkpt>
      <trkpt lat="43.50302" lon="6.81461">
        <ele>594</ele>
        <time>2011-06-03T10:35:41Z</time>
      </trkpt>
      <trkpt lat="43.50301" lon="6.81462">
        <ele>593</ele>
        <time>2011-06-03T10:35:42Z</time>
      </trkpt>
      <trkpt lat="43.503" lon="6.81464">
        <ele>593</ele>
        <time>2011-06-03T10:35:43Z</time>
      </trkpt>
      <trkpt lat="43.50302" lon="6.81467">
        <ele>594</ele>
        <time>2011-06-03T10:35:45Z</time>
      </trkpt>
      <trkpt lat="43.50302" lon="6.81467">
        <ele>593.9951171875</ele>
        <time>2011-06-03T10:35:45Z</time>
      </trkpt>
      <trkpt lat="43.50301" lon="6.81471">
        <ele>593.15905761719</ele>
        <time>2011-06-03T10:35:46Z</time>
      </trkpt>
      <trkpt lat="43.50301" lon="6.81474">
        <ele>593</ele>
        <time>2011-06-03T10:35:47Z</time>
      </trkpt>
      <trkpt lat="43.50301" lon="6.81476">
        <ele>594</ele>
        <time>2011-06-03T10:35:48Z</time>
      </trkpt>
      <trkpt lat="43.503" lon="6.81479">
        <ele>594</ele>
        <time>2011-06-03T10:35:49Z</time>
      </trkpt>
      <trkpt lat="43.50299" lon="6.8148">
        <ele>595</ele>
        <time>2011-06-03T10:35:50Z</time>
      </trkpt>
      <trkpt lat="43.50298" lon="6.81482">
        <ele>595</ele>
        <time>2011-06-03T10:35:51Z</time>
      </trkpt>
      <trkpt lat="43.50296" lon="6.81483">
        <ele>595</ele>
        <time>2011-06-03T10:35:52Z</time>
      </trkpt>
      <trkpt lat="43.50295" lon="6.81483">
        <ele>596</ele>
        <time>2011-06-03T10:35:53Z</time>
      </trkpt>
      <trkpt lat="43.50294" lon="6.81484">
        <ele>596</ele>
        <time>2011-06-03T10:35:54Z</time>
      </trkpt>
      <trkpt lat="43.50293" lon="6.81485">
        <ele>596</ele>
        <time>2011-06-03T10:35:55Z</time>
      </trkpt>
      <trkpt lat="43.50293" lon="6.81488">
        <ele>596</ele>
        <time>2011-06-03T10:35:56Z</time>
      </trkpt>
      <trkpt lat="43.50291" lon="6.81489">
        <ele>597</ele>
        <time>2011-06-03T10:35:57Z</time>
      </trkpt>
      <trkpt lat="43.50289" lon="6.81491">
        <ele>597</ele>
        <time>2011-06-03T10:35:58Z</time>
      </trkpt>
      <trkpt lat="43.50287" lon="6.81491">
        <ele>597</ele>
        <time>2011-06-03T10:35:59Z</time>
      </trkpt>
      <trkpt lat="43.50286" lon="6.81492">
        <ele>598</ele>
        <time>2011-06-03T10:36:00Z</time>
      </trkpt>
      <trkpt lat="43.50284" lon="6.81493">
        <ele>598</ele>
        <time>2011-06-03T10:36:01Z</time>
      </trkpt>
      <trkpt lat="43.50284" lon="6.81495">
        <ele>597</ele>
        <time>2011-06-03T10:36:02Z</time>
      </trkpt>
      <trkpt lat="43.50283" lon="6.81497">
        <ele>598</ele>
        <time>2011-06-03T10:36:03Z</time>
      </trkpt>
      <trkpt lat="43.50282" lon="6.81498">
        <ele>598</ele>
        <time>2011-06-03T10:36:04Z</time>
      </trkpt>
      <trkpt lat="43.50281" lon="6.815">
        <ele>598</ele>
        <time>2011-06-03T10:36:05Z</time>
      </trkpt>
      <trkpt lat="43.5028" lon="6.81501">
        <ele>598</ele>
        <time>2011-06-03T10:36:06Z</time>
      </trkpt>
      <trkpt lat="43.5028" lon="6.81503">
        <ele>599</ele>
        <time>2011-06-03T10:36:07Z</time>
      </trkpt>
      <trkpt lat="43.50279" lon="6.81504">
        <ele>599</ele>
        <time>2011-06-03T10:36:08Z</time>
      </trkpt>
      <trkpt lat="43.50278" lon="6.81507">
        <ele>599</ele>
        <time>2011-06-03T10:36:09Z</time>
      </trkpt>
      <trkpt lat="43.50277" lon="6.81509">
        <ele>600</ele>
        <time>2011-06-03T10:36:10Z</time>
      </trkpt>
      <trkpt lat="43.50277" lon="6.81512">
        <ele>600</ele>
        <time>2011-06-03T10:36:11Z</time>
      </trkpt>
      <trkpt lat="43.50275" lon="6.81514">
        <ele>599</ele>
        <time>2011-06-03T10:36:12Z</time>
      </trkpt>
      <trkpt lat="43.50276" lon="6.81517">
        <ele>600</ele>
        <time>2011-06-03T10:36:13Z</time>
      </trkpt>
      <trkpt lat="43.50275" lon="6.81519">
        <ele>601</ele>
        <time>2011-06-03T10:36:14Z</time>
      </trkpt>
      <trkpt lat="43.50275" lon="6.81522">
        <ele>602</ele>
        <time>2011-06-03T10:36:15Z</time>
      </trkpt>
      <trkpt lat="43.50274" lon="6.81524">
        <ele>602</ele>
        <time>2011-06-03T10:36:16Z</time>
      </trkpt>
      <trkpt lat="43.50274" lon="6.81526">
        <ele>602</ele>
        <time>2011-06-03T10:36:17Z</time>
      </trkpt>
      <trkpt lat="43.50274" lon="6.81528">
        <ele>602</ele>
        <time>2011-06-03T10:36:18Z</time>
      </trkpt>
      <trkpt lat="43.50274" lon="6.81531">
        <ele>601</ele>
        <time>2011-06-03T10:36:19Z</time>
      </trkpt>
      <trkpt lat="43.50274" lon="6.81532">
        <ele>602</ele>
        <time>2011-06-03T10:36:20Z</time>
      </trkpt>
      <trkpt lat="43.50273" lon="6.81534">
        <ele>602</ele>
        <time>2011-06-03T10:36:21Z</time>
      </trkpt>
      <trkpt lat="43.50272" lon="6.81536">
        <ele>602</ele>
        <time>2011-06-03T10:36:22Z</time>
      </trkpt>
      <trkpt lat="43.50271" lon="6.81538">
        <ele>602</ele>
        <time>2011-06-03T10:36:23Z</time>
      </trkpt>
      <trkpt lat="43.50271" lon="6.81539">
        <ele>603</ele>
        <time>2011-06-03T10:36:24Z</time>
      </trkpt>
      <trkpt lat="43.5027" lon="6.8154">
        <ele>603</ele>
        <time>2011-06-03T10:36:25Z</time>
      </trkpt>
      <trkpt lat="43.5027" lon="6.81541">
        <ele>603</ele>
        <time>2011-06-03T10:36:26Z</time>
      </trkpt>
      <trkpt lat="43.5027" lon="6.81543">
        <ele>602</ele>
        <time>2011-06-03T10:36:27Z</time>
      </trkpt>
      <trkpt lat="43.50273" lon="6.81544">
        <ele>603</ele>
        <time>2011-06-03T10:36:28Z</time>
      </trkpt>
      <trkpt lat="43.50272" lon="6.81547">
        <ele>603</ele>
        <time>2011-06-03T10:36:30Z</time>
      </trkpt>
      <trkpt lat="43.50272" lon="6.81547">
        <ele>603</ele>
        <time>2011-06-03T10:36:30Z</time>
      </trkpt>
      <trkpt lat="43.50271" lon="6.81549">
        <ele>603</ele>
        <time>2011-06-03T10:36:31Z</time>
      </trkpt>
      <trkpt lat="43.50271" lon="6.8155">
        <ele>603</ele>
        <time>2011-06-03T10:36:32Z</time>
      </trkpt>
      <trkpt lat="43.50271" lon="6.81551">
        <ele>602</ele>
        <time>2011-06-03T10:36:33Z</time>
      </trkpt>
      <trkpt lat="43.50271" lon="6.81553">
        <ele>602</ele>
        <time>2011-06-03T10:36:34Z</time>
      </trkpt>
      <trkpt lat="43.50271" lon="6.81554">
        <ele>601</ele>
        <time>2011-06-03T10:36:35Z</time>
      </trkpt>
      <trkpt lat="43.50272" lon="6.81556">
        <ele>602</ele>
        <time>2011-06-03T10:36:36Z</time>
      </trkpt>
      <trkpt lat="43.50273" lon="6.81557">
        <ele>602</ele>
        <time>2011-06-03T10:36:37Z</time>
      </trkpt>
      <trkpt lat="43.50272" lon="6.8156">
        <ele>603</ele>
        <time>2011-06-03T10:36:38Z</time>
      </trkpt>
      <trkpt lat="43.50271" lon="6.81559">
        <ele>603</ele>
        <time>2011-06-03T10:36:39Z</time>
      </trkpt>
      <trkpt lat="43.50271" lon="6.8156">
        <ele>603</ele>
        <time>2011-06-03T10:36:40Z</time>
      </trkpt>
      <trkpt lat="43.50271" lon="6.81562">
        <ele>603</ele>
        <time>2011-06-03T10:36:41Z</time>
      </trkpt>
      <trkpt lat="43.50272" lon="6.81563">
        <ele>603</ele>
        <time>2011-06-03T10:36:42Z</time>
      </trkpt>
      <trkpt lat="43.50273" lon="6.81564">
        <ele>603</ele>
        <time>2011-06-03T10:36:43Z</time>
      </trkpt>
      <trkpt lat="43.50275" lon="6.81565">
        <ele>603</ele>
        <time>2011-06-03T10:36:44Z</time>
      </trkpt>
      <trkpt lat="43.50276" lon="6.81566">
        <ele>604</ele>
        <time>2011-06-03T10:36:45Z</time>
      </trkpt>
      <trkpt lat="43.50277" lon="6.81568">
        <ele>604</ele>
        <time>2011-06-03T10:36:46Z</time>
      </trkpt>
      <trkpt lat="43.50279" lon="6.81569">
        <ele>604</ele>
        <time>2011-06-03T10:36:47Z</time>
      </trkpt>
      <trkpt lat="43.5028" lon="6.8157">
        <ele>604</ele>
        <time>2011-06-03T10:36:48Z</time>
      </trkpt>
      <trkpt lat="43.5028" lon="6.81571">
        <ele>604</ele>
        <time>2011-06-03T10:36:49Z</time>
      </trkpt>
      <trkpt lat="43.50281" lon="6.81573">
        <ele>605</ele>
        <time>2011-06-03T10:36:50Z</time>
      </trkpt>
      <trkpt lat="43.50281" lon="6.81575">
        <ele>605</ele>
        <time>2011-06-03T10:36:51Z</time>
      </trkpt>
      <trkpt lat="43.50282" lon="6.81576">
        <ele>605</ele>
        <time>2011-06-03T10:36:53Z</time>
      </trkpt>
      <trkpt lat="43.50282" lon="6.81577">
        <ele>604.75799560547</ele>
        <time>2011-06-03T10:36:53Z</time>
      </trkpt>
      <trkpt lat="43.50284" lon="6.81579">
        <ele>605</ele>
        <time>2011-06-03T10:36:54Z</time>
      </trkpt>
      <trkpt lat="43.50284" lon="6.81581">
        <ele>605</ele>
        <time>2011-06-03T10:36:55Z</time>
      </trkpt>
      <trkpt lat="43.50284" lon="6.81583">
        <ele>605</ele>
        <time>2011-06-03T10:36:56Z</time>
      </trkpt>
      <trkpt lat="43.50285" lon="6.81585">
        <ele>605</ele>
        <time>2011-06-03T10:36:57Z</time>
      </trkpt>
      <trkpt lat="43.50286" lon="6.81586">
        <ele>605</ele>
        <time>2011-06-03T10:36:58Z</time>
      </trkpt>
      <trkpt lat="43.50286" lon="6.81588">
        <ele>605</ele>
        <time>2011-06-03T10:36:59Z</time>
      </trkpt>
      <trkpt lat="43.50286" lon="6.81589">
        <ele>605</ele>
        <time>2011-06-03T10:37:00Z</time>
      </trkpt>
      <trkpt lat="43.50286" lon="6.81591">
        <ele>605</ele>
        <time>2011-06-03T10:37:01Z</time>
      </trkpt>
      <trkpt lat="43.50287" lon="6.81593">
        <ele>605</ele>
        <time>2011-06-03T10:37:02Z</time>
      </trkpt>
      <trkpt lat="43.50286" lon="6.81596">
        <ele>604</ele>
        <time>2011-06-03T10:37:03Z</time>
      </trkpt>
      <trkpt lat="43.50287" lon="6.81598">
        <ele>605</ele>
        <time>2011-06-03T10:37:04Z</time>
      </trkpt>
      <trkpt lat="43.50287" lon="6.81599">
        <ele>604</ele>
        <time>2011-06-03T10:37:05Z</time>
      </trkpt>
      <trkpt lat="43.50286" lon="6.81601">
        <ele>604</ele>
        <time>2011-06-03T10:37:06Z</time>
      </trkpt>
      <trkpt lat="43.50286" lon="6.81603">
        <ele>603</ele>
        <time>2011-06-03T10:37:07Z</time>
      </trkpt>
      <trkpt lat="43.50286" lon="6.81605">
        <ele>603</ele>
        <time>2011-06-03T10:37:08Z</time>
      </trkpt>
      <trkpt lat="43.50286" lon="6.81608">
        <ele>603</ele>
        <time>2011-06-03T10:37:09Z</time>
      </trkpt>
      <trkpt lat="43.50286" lon="6.8161">
        <ele>603</ele>
        <time>2011-06-03T10:37:10Z</time>
      </trkpt>
      <trkpt lat="43.50286" lon="6.81612">
        <ele>603</ele>
        <time>2011-06-03T10:37:11Z</time>
      </trkpt>
      <trkpt lat="43.50286" lon="6.81614">
        <ele>603</ele>
        <time>2011-06-03T10:37:12Z</time>
      </trkpt>
      <trkpt lat="43.50286" lon="6.81615">
        <ele>603</ele>
        <time>2011-06-03T10:37:13Z</time>
      </trkpt>
      <trkpt lat="43.50286" lon="6.81617">
        <ele>603</ele>
        <time>2011-06-03T10:37:14Z</time>
      </trkpt>
      <trkpt lat="43.50286" lon="6.81618">
        <ele>602.65161132812</ele>
        <time>2011-06-03T10:37:15Z</time>
      </trkpt>
      <trkpt lat="43.50287" lon="6.8162">
        <ele>602</ele>
        <time>2011-06-03T10:37:16Z</time>
      </trkpt>
      <trkpt lat="43.50288" lon="6.81622">
        <ele>602</ele>
        <time>2011-06-03T10:37:17Z</time>
      </trkpt>
      <trkpt lat="43.50288" lon="6.81624">
        <ele>602</ele>
        <time>2011-06-03T10:37:18Z</time>
      </trkpt>
      <trkpt lat="43.50288" lon="6.81626">
        <ele>602</ele>
        <time>2011-06-03T10:37:19Z</time>
      </trkpt>
      <trkpt lat="43.50288" lon="6.81627">
        <ele>602</ele>
        <time>2011-06-03T10:37:20Z</time>
      </trkpt>
      <trkpt lat="43.50288" lon="6.81629">
        <ele>602</ele>
        <time>2011-06-03T10:37:21Z</time>
      </trkpt>
      <trkpt lat="43.50288" lon="6.81631">
        <ele>602</ele>
        <time>2011-06-03T10:37:22Z</time>
      </trkpt>
      <trkpt lat="43.50289" lon="6.81632">
        <ele>603</ele>
        <time>2011-06-03T10:37:23Z</time>
      </trkpt>
      <trkpt lat="43.50289" lon="6.81633">
        <ele>603</ele>
        <time>2011-06-03T10:37:24Z</time>
      </trkpt>
      <trkpt lat="43.5029" lon="6.81635">
        <ele>604</ele>
        <time>2011-06-03T10:37:25Z</time>
      </trkpt>
      <trkpt lat="43.50291" lon="6.81636">
        <ele>603</ele>
        <time>2011-06-03T10:37:26Z</time>
      </trkpt>
      <trkpt lat="43.50291" lon="6.81637">
        <ele>603</ele>
        <time>2011-06-03T10:37:27Z</time>
      </trkpt>
      <trkpt lat="43.50292" lon="6.81638">
        <ele>603</ele>
        <time>2011-06-03T10:37:28Z</time>
      </trkpt>
      <trkpt lat="43.50293" lon="6.8164">
        <ele>603</ele>
        <time>2011-06-03T10:37:29Z</time>
      </trkpt>
      <trkpt lat="43.50293" lon="6.81642">
        <ele>603</ele>
        <time>2011-06-03T10:37:30Z</time>
      </trkpt>
      <trkpt lat="43.50294" lon="6.81643">
        <ele>603</ele>
        <time>2011-06-03T10:37:31Z</time>
      </trkpt>
      <trkpt lat="43.50294" lon="6.81644">
        <ele>603</ele>
        <time>2011-06-03T10:37:32Z</time>
      </trkpt>
      <trkpt lat="43.50295" lon="6.81645">
        <ele>603</ele>
        <time>2011-06-03T10:37:33Z</time>
      </trkpt>
      <trkpt lat="43.50296" lon="6.81647">
        <ele>604</ele>
        <time>2011-06-03T10:37:34Z</time>
      </trkpt>
      <trkpt lat="43.50296" lon="6.81647">
        <ele>603</ele>
        <time>2011-06-03T10:37:35Z</time>
      </trkpt>
      <trkpt lat="43.50297" lon="6.81649">
        <ele>603</ele>
        <time>2011-06-03T10:37:37Z</time>
      </trkpt>
      <trkpt lat="43.50298" lon="6.81649">
        <ele>603</ele>
        <time>2011-06-03T10:37:37Z</time>
      </trkpt>
      <trkpt lat="43.50297" lon="6.81651">
        <ele>603</ele>
        <time>2011-06-03T10:37:38Z</time>
      </trkpt>
      <trkpt lat="43.50297" lon="6.81652">
        <ele>603</ele>
        <time>2011-06-03T10:37:39Z</time>
      </trkpt>
      <trkpt lat="43.50297" lon="6.81652">
        <ele>603</ele>
        <time>2011-06-03T10:37:40Z</time>
      </trkpt>
      <trkpt lat="43.50298" lon="6.81652">
        <ele>603</ele>
        <time>2011-06-03T10:37:41Z</time>
      </trkpt>
      <trkpt lat="43.50298" lon="6.81652">
        <ele>603</ele>
        <time>2011-06-03T10:37:42Z</time>
      </trkpt>
      <trkpt lat="43.50298" lon="6.81652">
        <ele>603</ele>
        <time>2011-06-03T10:37:43Z</time>
      </trkpt>
      <trkpt lat="43.50298" lon="6.81652">
        <ele>603</ele>
        <time>2011-06-03T10:37:44Z</time>
      </trkpt>
      <trkpt lat="43.50298" lon="6.81652">
        <ele>603</ele>
        <time>2011-06-03T10:37:45Z</time>
      </trkpt>
      <trkpt lat="43.50293" lon="6.81674">
        <ele>603</ele>
        <time>2011-06-03T10:38:49Z</time>
      </trkpt>
      <trkpt lat="43.50292" lon="6.81675">
        <ele>602.63415527344</ele>
        <time>2011-06-03T10:38:50Z</time>
      </trkpt>
      <trkpt lat="43.50289" lon="6.81682">
        <ele>601</ele>
        <time>2011-06-03T10:38:51Z</time>
      </trkpt>
      <trkpt lat="43.50288" lon="6.81687">
        <ele>601</ele>
        <time>2011-06-03T10:38:52Z</time>
      </trkpt>
      <trkpt lat="43.50286" lon="6.8169">
        <ele>601</ele>
        <time>2011-06-03T10:38:53Z</time>
      </trkpt>
      <trkpt lat="43.50284" lon="6.81694">
        <ele>600</ele>
        <time>2011-06-03T10:38:54Z</time>
      </trkpt>
      <trkpt lat="43.50282" lon="6.81698">
        <ele>600</ele>
        <time>2011-06-03T10:38:55Z</time>
      </trkpt>
      <trkpt lat="43.50282" lon="6.81702">
        <ele>600</ele>
        <time>2011-06-03T10:38:56Z</time>
      </trkpt>
      <trkpt lat="43.50281" lon="6.81706">
        <ele>600</ele>
        <time>2011-06-03T10:38:57Z</time>
      </trkpt>
      <trkpt lat="43.50279" lon="6.81709">
        <ele>599</ele>
        <time>2011-06-03T10:38:58Z</time>
      </trkpt>
      <trkpt lat="43.50277" lon="6.81712">
        <ele>599</ele>
        <time>2011-06-03T10:38:59Z</time>
      </trkpt>
      <trkpt lat="43.50274" lon="6.81717">
        <ele>599</ele>
        <time>2011-06-03T10:39:00Z</time>
      </trkpt>
      <trkpt lat="43.50273" lon="6.8172">
        <ele>598</ele>
        <time>2011-06-03T10:39:01Z</time>
      </trkpt>
      <trkpt lat="43.50271" lon="6.81724">
        <ele>597</ele>
        <time>2011-06-03T10:39:02Z</time>
      </trkpt>
      <trkpt lat="43.50268" lon="6.81727">
        <ele>597</ele>
        <time>2011-06-03T10:39:03Z</time>
      </trkpt>
      <trkpt lat="43.50267" lon="6.8173">
        <ele>596</ele>
        <time>2011-06-03T10:39:04Z</time>
      </trkpt>
      <trkpt lat="43.50264" lon="6.81733">
        <ele>596</ele>
        <time>2011-06-03T10:39:05Z</time>
      </trkpt>
      <trkpt lat="43.50261" lon="6.81735">
        <ele>596</ele>
        <time>2011-06-03T10:39:06Z</time>
      </trkpt>
      <trkpt lat="43.50258" lon="6.81737">
        <ele>596</ele>
        <time>2011-06-03T10:39:07Z</time>
      </trkpt>
      <trkpt lat="43.50255" lon="6.81739">
        <ele>596</ele>
        <time>2011-06-03T10:39:08Z</time>
      </trkpt>
      <trkpt lat="43.50251" lon="6.8174">
        <ele>596</ele>
        <time>2011-06-03T10:39:09Z</time>
      </trkpt>
      <trkpt lat="43.50249" lon="6.81741">
        <ele>595</ele>
        <time>2011-06-03T10:39:10Z</time>
      </trkpt>
      <trkpt lat="43.50247" lon="6.81741">
        <ele>594</ele>
        <time>2011-06-03T10:39:12Z</time>
      </trkpt>
      <trkpt lat="43.50247" lon="6.81742">
        <ele>594</ele>
        <time>2011-06-03T10:39:12Z</time>
      </trkpt>
      <trkpt lat="43.50242" lon="6.81746">
        <ele>593.16839599609</ele>
        <time>2011-06-03T10:39:13Z</time>
      </trkpt>
      <trkpt lat="43.50239" lon="6.81748">
        <ele>593</ele>
        <time>2011-06-03T10:39:14Z</time>
      </trkpt>
      <trkpt lat="43.50237" lon="6.8175">
        <ele>594</ele>
        <time>2011-06-03T10:39:15Z</time>
      </trkpt>
      <trkpt lat="43.50234" lon="6.81752">
        <ele>594</ele>
        <time>2011-06-03T10:39:16Z</time>
      </trkpt>
      <trkpt lat="43.50231" lon="6.81753">
        <ele>594</ele>
        <time>2011-06-03T10:39:17Z</time>
      </trkpt>
      <trkpt lat="43.50228" lon="6.81754">
        <ele>594</ele>
        <time>2011-06-03T10:39:18Z</time>
      </trkpt>
      <trkpt lat="43.50224" lon="6.81755">
        <ele>595</ele>
        <time>2011-06-03T10:39:19Z</time>
      </trkpt>
      <trkpt lat="43.50221" lon="6.81755">
        <ele>594</ele>
        <time>2011-06-03T10:39:20Z</time>
      </trkpt>
      <trkpt lat="43.50217" lon="6.81756">
        <ele>594</ele>
        <time>2011-06-03T10:39:21Z</time>
      </trkpt>
      <trkpt lat="43.50214" lon="6.81756">
        <ele>594</ele>
        <time>2011-06-03T10:39:22Z</time>
      </trkpt>
      <trkpt lat="43.50212" lon="6.81756">
        <ele>595</ele>
        <time>2011-06-03T10:39:23Z</time>
      </trkpt>
      <trkpt lat="43.50208" lon="6.81757">
        <ele>595</ele>
        <time>2011-06-03T10:39:24Z</time>
      </trkpt>
      <trkpt lat="43.50206" lon="6.81758">
        <ele>594</ele>
        <time>2011-06-03T10:39:25Z</time>
      </trkpt>
      <trkpt lat="43.50202" lon="6.81759">
        <ele>594</ele>
        <time>2011-06-03T10:39:26Z</time>
      </trkpt>
      <trkpt lat="43.502" lon="6.81759">
        <ele>594</ele>
        <time>2011-06-03T10:39:27Z</time>
      </trkpt>
      <trkpt lat="43.50196" lon="6.8176">
        <ele>593</ele>
        <time>2011-06-03T10:39:28Z</time>
      </trkpt>
      <trkpt lat="43.50194" lon="6.8176">
        <ele>593</ele>
        <time>2011-06-03T10:39:29Z</time>
      </trkpt>
      <trkpt lat="43.50192" lon="6.81761">
        <ele>594</ele>
        <time>2011-06-03T10:39:30Z</time>
      </trkpt>
      <trkpt lat="43.5019" lon="6.81762">
        <ele>593</ele>
        <time>2011-06-03T10:39:31Z</time>
      </trkpt>
      <trkpt lat="43.50187" lon="6.81763">
        <ele>593</ele>
        <time>2011-06-03T10:39:32Z</time>
      </trkpt>
      <trkpt lat="43.50183" lon="6.81764">
        <ele>593</ele>
        <time>2011-06-03T10:39:33Z</time>
      </trkpt>
      <trkpt lat="43.50182" lon="6.81764">
        <ele>593</ele>
        <time>2011-06-03T10:39:34Z</time>
      </trkpt>
      <trkpt lat="43.50177" lon="6.81767">
        <ele>593</ele>
        <time>2011-06-03T10:39:35Z</time>
      </trkpt>
      <trkpt lat="43.50173" lon="6.81768">
        <ele>594</ele>
        <time>2011-06-03T10:39:36Z</time>
      </trkpt>
      <trkpt lat="43.50171" lon="6.81769">
        <ele>594</ele>
        <time>2011-06-03T10:39:37Z</time>
      </trkpt>
      <trkpt lat="43.50169" lon="6.81771">
        <ele>592</ele>
        <time>2011-06-03T10:39:38Z</time>
      </trkpt>
      <trkpt lat="43.50166" lon="6.81771">
        <ele>591</ele>
        <time>2011-06-03T10:39:39Z</time>
      </trkpt>
      <trkpt lat="43.50164" lon="6.81773">
        <ele>591</ele>
        <time>2011-06-03T10:39:40Z</time>
      </trkpt>
      <trkpt lat="43.50161" lon="6.81774">
        <ele>591</ele>
        <time>2011-06-03T10:39:41Z</time>
      </trkpt>
      <trkpt lat="43.50158" lon="6.81776">
        <ele>591</ele>
        <time>2011-06-03T10:39:42Z</time>
      </trkpt>
      <trkpt lat="43.50156" lon="6.81777">
        <ele>591</ele>
        <time>2011-06-03T10:39:43Z</time>
      </trkpt>
      <trkpt lat="43.50153" lon="6.81778">
        <ele>590</ele>
        <time>2011-06-03T10:39:44Z</time>
      </trkpt>
      <trkpt lat="43.50149" lon="6.8178">
        <ele>590</ele>
        <time>2011-06-03T10:39:45Z</time>
      </trkpt>
      <trkpt lat="43.50146" lon="6.81781">
        <ele>590</ele>
        <time>2011-06-03T10:39:46Z</time>
      </trkpt>
      <trkpt lat="43.50143" lon="6.81782">
        <ele>590</ele>
        <time>2011-06-03T10:39:47Z</time>
      </trkpt>
      <trkpt lat="43.5014" lon="6.81783">
        <ele>590</ele>
        <time>2011-06-03T10:39:48Z</time>
      </trkpt>
      <trkpt lat="43.50137" lon="6.81784">
        <ele>590</ele>
        <time>2011-06-03T10:39:49Z</time>
      </trkpt>
      <trkpt lat="43.50133" lon="6.81784">
        <ele>592</ele>
        <time>2011-06-03T10:39:50Z</time>
      </trkpt>
      <trkpt lat="43.5013" lon="6.81786">
        <ele>592</ele>
        <time>2011-06-03T10:39:51Z</time>
      </trkpt>
      <trkpt lat="43.50127" lon="6.81787">
        <ele>592</ele>
        <time>2011-06-03T10:39:52Z</time>
      </trkpt>
      <trkpt lat="43.50124" lon="6.81789">
        <ele>592</ele>
        <time>2011-06-03T10:39:53Z</time>
      </trkpt>
      <trkpt lat="43.50121" lon="6.8179">
        <ele>592</ele>
        <time>2011-06-03T10:39:54Z</time>
      </trkpt>
      <trkpt lat="43.50118" lon="6.81791">
        <ele>592</ele>
        <time>2011-06-03T10:39:56Z</time>
      </trkpt>
      <trkpt lat="43.50118" lon="6.81791">
        <ele>592.06872558594</ele>
        <time>2011-06-03T10:39:56Z</time>
      </trkpt>
      <trkpt lat="43.50113" lon="6.81793">
        <ele>593</ele>
        <time>2011-06-03T10:39:57Z</time>
      </trkpt>
      <trkpt lat="43.5011" lon="6.81795">
        <ele>593</ele>
        <time>2011-06-03T10:39:58Z</time>
      </trkpt>
      <trkpt lat="43.50107" lon="6.81796">
        <ele>593</ele>
        <time>2011-06-03T10:39:59Z</time>
      </trkpt>
      <trkpt lat="43.50104" lon="6.81798">
        <ele>593</ele>
        <time>2011-06-03T10:40:00Z</time>
      </trkpt>
      <trkpt lat="43.50102" lon="6.818">
        <ele>593</ele>
        <time>2011-06-03T10:40:01Z</time>
      </trkpt>
      <trkpt lat="43.50099" lon="6.818">
        <ele>592</ele>
        <time>2011-06-03T10:40:02Z</time>
      </trkpt>
      <trkpt lat="43.50096" lon="6.81802">
        <ele>593</ele>
        <time>2011-06-03T10:40:03Z</time>
      </trkpt>
      <trkpt lat="43.50093" lon="6.81803">
        <ele>593</ele>
        <time>2011-06-03T10:40:04Z</time>
      </trkpt>
      <trkpt lat="43.5009" lon="6.81805">
        <ele>592</ele>
        <time>2011-06-03T10:40:05Z</time>
      </trkpt>
      <trkpt lat="43.50088" lon="6.81807">
        <ele>591</ele>
        <time>2011-06-03T10:40:06Z</time>
      </trkpt>
      <trkpt lat="43.50085" lon="6.81808">
        <ele>590</ele>
        <time>2011-06-03T10:40:07Z</time>
      </trkpt>
      <trkpt lat="43.50083" lon="6.81811">
        <ele>588</ele>
        <time>2011-06-03T10:40:08Z</time>
      </trkpt>
      <trkpt lat="43.5008" lon="6.81813">
        <ele>587</ele>
        <time>2011-06-03T10:40:09Z</time>
      </trkpt>
      <trkpt lat="43.50077" lon="6.81815">
        <ele>587</ele>
        <time>2011-06-03T10:40:10Z</time>
      </trkpt>
      <trkpt lat="43.50074" lon="6.81816">
        <ele>587</ele>
        <time>2011-06-03T10:40:11Z</time>
      </trkpt>
      <trkpt lat="43.50071" lon="6.81817">
        <ele>586</ele>
        <time>2011-06-03T10:40:12Z</time>
      </trkpt>
      <trkpt lat="43.50069" lon="6.81818">
        <ele>587</ele>
        <time>2011-06-03T10:40:13Z</time>
      </trkpt>
      <trkpt lat="43.50068" lon="6.81813">
        <ele>587</ele>
        <time>2011-06-03T10:40:14Z</time>
      </trkpt>
      <trkpt lat="43.50068" lon="6.81809">
        <ele>585</ele>
        <time>2011-06-03T10:40:15Z</time>
      </trkpt>
      <trkpt lat="43.50071" lon="6.81805">
        <ele>584</ele>
        <time>2011-06-03T10:40:16Z</time>
      </trkpt>
      <trkpt lat="43.50073" lon="6.81802">
        <ele>584</ele>
        <time>2011-06-03T10:40:18Z</time>
      </trkpt>
      <trkpt lat="43.50073" lon="6.81802">
        <ele>584.00317382812</ele>
        <time>2011-06-03T10:40:18Z</time>
      </trkpt>
      <trkpt lat="43.50076" lon="6.81798">
        <ele>584.0009765625</ele>
        <time>2011-06-03T10:40:19Z</time>
      </trkpt>
      <trkpt lat="43.5008" lon="6.81794">
        <ele>584</ele>
        <time>2011-06-03T10:40:20Z</time>
      </trkpt>
      <trkpt lat="43.50082" lon="6.81793">
        <ele>584</ele>
        <time>2011-06-03T10:40:21Z</time>
      </trkpt>
      <trkpt lat="43.50085" lon="6.81792">
        <ele>584</ele>
        <time>2011-06-03T10:40:22Z</time>
      </trkpt>
      <trkpt lat="43.50088" lon="6.8179">
        <ele>583</ele>
        <time>2011-06-03T10:40:23Z</time>
      </trkpt>
      <trkpt lat="43.50091" lon="6.81788">
        <ele>583</ele>
        <time>2011-06-03T10:40:24Z</time>
      </trkpt>
      <trkpt lat="43.50096" lon="6.81786">
        <ele>582</ele>
        <time>2011-06-03T10:40:25Z</time>
      </trkpt>
      <trkpt lat="43.50098" lon="6.81785">
        <ele>581</ele>
        <time>2011-06-03T10:40:26Z</time>
      </trkpt>
      <trkpt lat="43.50101" lon="6.81783">
        <ele>581</ele>
        <time>2011-06-03T10:40:27Z</time>
      </trkpt>
      <trkpt lat="43.50104" lon="6.8178">
        <ele>581</ele>
        <time>2011-06-03T10:40:28Z</time>
      </trkpt>
      <trkpt lat="43.50106" lon="6.81778">
        <ele>581</ele>
        <time>2011-06-03T10:40:29Z</time>
      </trkpt>
      <trkpt lat="43.5011" lon="6.81776">
        <ele>582</ele>
        <time>2011-06-03T10:40:30Z</time>
      </trkpt>
      <trkpt lat="43.50113" lon="6.81774">
        <ele>581</ele>
        <time>2011-06-03T10:40:31Z</time>
      </trkpt>
      <trkpt lat="43.50115" lon="6.81771">
        <ele>581</ele>
        <time>2011-06-03T10:40:32Z</time>
      </trkpt>
      <trkpt lat="43.50117" lon="6.81769">
        <ele>581</ele>
        <time>2011-06-03T10:40:33Z</time>
      </trkpt>
      <trkpt lat="43.5012" lon="6.81765">
        <ele>580</ele>
        <time>2011-06-03T10:40:34Z</time>
      </trkpt>
      <trkpt lat="43.50121" lon="6.81763">
        <ele>579</ele>
        <time>2011-06-03T10:40:35Z</time>
      </trkpt>
      <trkpt lat="43.50124" lon="6.81761">
        <ele>579</ele>
        <time>2011-06-03T10:40:36Z</time>
      </trkpt>
      <trkpt lat="43.50126" lon="6.81759">
        <ele>579</ele>
        <time>2011-06-03T10:40:37Z</time>
      </trkpt>
      <trkpt lat="43.50129" lon="6.81756">
        <ele>578</ele>
        <time>2011-06-03T10:40:38Z</time>
      </trkpt>
      <trkpt lat="43.50132" lon="6.81754">
        <ele>578</ele>
        <time>2011-06-03T10:40:40Z</time>
      </trkpt>
      <trkpt lat="43.50132" lon="6.81753">
        <ele>578</ele>
        <time>2011-06-03T10:40:40Z</time>
      </trkpt>
      <trkpt lat="43.50137" lon="6.8175">
        <ele>578</ele>
        <time>2011-06-03T10:40:41Z</time>
      </trkpt>
      <trkpt lat="43.5014" lon="6.81748">
        <ele>578</ele>
        <time>2011-06-03T10:40:42Z</time>
      </trkpt>
      <trkpt lat="43.50142" lon="6.81745">
        <ele>578</ele>
        <time>2011-06-03T10:40:43Z</time>
      </trkpt>
      <trkpt lat="43.50144" lon="6.81742">
        <ele>577</ele>
        <time>2011-06-03T10:40:44Z</time>
      </trkpt>
      <trkpt lat="43.50147" lon="6.8174">
        <ele>577</ele>
        <time>2011-06-03T10:40:45Z</time>
      </trkpt>
      <trkpt lat="43.50149" lon="6.81738">
        <ele>577</ele>
        <time>2011-06-03T10:40:46Z</time>
      </trkpt>
      <trkpt lat="43.50151" lon="6.81736">
        <ele>577</ele>
        <time>2011-06-03T10:40:47Z</time>
      </trkpt>
      <trkpt lat="43.50153" lon="6.81733">
        <ele>577</ele>
        <time>2011-06-03T10:40:48Z</time>
      </trkpt>
      <trkpt lat="43.50156" lon="6.81731">
        <ele>576</ele>
        <time>2011-06-03T10:40:49Z</time>
      </trkpt>
      <trkpt lat="43.50158" lon="6.81728">
        <ele>576</ele>
        <time>2011-06-03T10:40:50Z</time>
      </trkpt>
      <trkpt lat="43.50161" lon="6.81726">
        <ele>576</ele>
        <time>2011-06-03T10:40:51Z</time>
      </trkpt>
      <trkpt lat="43.50163" lon="6.81724">
        <ele>576</ele>
        <time>2011-06-03T10:40:52Z</time>
      </trkpt>
      <trkpt lat="43.50166" lon="6.81722">
        <ele>575</ele>
        <time>2011-06-03T10:40:53Z</time>
      </trkpt>
      <trkpt lat="43.50169" lon="6.81719">
        <ele>575</ele>
        <time>2011-06-03T10:40:54Z</time>
      </trkpt>
      <trkpt lat="43.50171" lon="6.81716">
        <ele>575</ele>
        <time>2011-06-03T10:40:55Z</time>
      </trkpt>
      <trkpt lat="43.50174" lon="6.81714">
        <ele>575</ele>
        <time>2011-06-03T10:40:56Z</time>
      </trkpt>
      <trkpt lat="43.50177" lon="6.81712">
        <ele>574</ele>
        <time>2011-06-03T10:40:57Z</time>
      </trkpt>
      <trkpt lat="43.50179" lon="6.81708">
        <ele>574</ele>
        <time>2011-06-03T10:40:58Z</time>
      </trkpt>
      <trkpt lat="43.50181" lon="6.81706">
        <ele>574</ele>
        <time>2011-06-03T10:40:59Z</time>
      </trkpt>
      <trkpt lat="43.50184" lon="6.81703">
        <ele>573</ele>
        <time>2011-06-03T10:41:00Z</time>
      </trkpt>
      <trkpt lat="43.50186" lon="6.81701">
        <ele>572</ele>
        <time>2011-06-03T10:41:02Z</time>
      </trkpt>
      <trkpt lat="43.50186" lon="6.81701">
        <ele>571.99627685547</ele>
        <time>2011-06-03T10:41:02Z</time>
      </trkpt>
      <trkpt lat="43.50188" lon="6.81698">
        <ele>571.44525146484</ele>
        <time>2011-06-03T10:41:03Z</time>
      </trkpt>
      <trkpt lat="43.50192" lon="6.81692">
        <ele>571</ele>
        <time>2011-06-03T10:41:04Z</time>
      </trkpt>
      <trkpt lat="43.50194" lon="6.81689">
        <ele>571</ele>
        <time>2011-06-03T10:41:05Z</time>
      </trkpt>
      <trkpt lat="43.50196" lon="6.81686">
        <ele>571</ele>
        <time>2011-06-03T10:41:06Z</time>
      </trkpt>
      <trkpt lat="43.50198" lon="6.81683">
        <ele>571</ele>
        <time>2011-06-03T10:41:07Z</time>
      </trkpt>
      <trkpt lat="43.502" lon="6.8168">
        <ele>571</ele>
        <time>2011-06-03T10:41:08Z</time>
      </trkpt>
      <trkpt lat="43.502" lon="6.81675">
        <ele>572</ele>
        <time>2011-06-03T10:41:09Z</time>
      </trkpt>
      <trkpt lat="43.50202" lon="6.81671">
        <ele>571</ele>
        <time>2011-06-03T10:41:10Z</time>
      </trkpt>
      <trkpt lat="43.50204" lon="6.81668">
        <ele>571</ele>
        <time>2011-06-03T10:41:11Z</time>
      </trkpt>
      <trkpt lat="43.50205" lon="6.81664">
        <ele>570</ele>
        <time>2011-06-03T10:41:12Z</time>
      </trkpt>
      <trkpt lat="43.50206" lon="6.81661">
        <ele>571</ele>
        <time>2011-06-03T10:41:13Z</time>
      </trkpt>
      <trkpt lat="43.50206" lon="6.81657">
        <ele>570</ele>
        <time>2011-06-03T10:41:14Z</time>
      </trkpt>
      <trkpt lat="43.50207" lon="6.81653">
        <ele>571</ele>
        <time>2011-06-03T10:41:15Z</time>
      </trkpt>
      <trkpt lat="43.50207" lon="6.8165">
        <ele>571</ele>
        <time>2011-06-03T10:41:16Z</time>
      </trkpt>
      <trkpt lat="43.50207" lon="6.81646">
        <ele>571</ele>
        <time>2011-06-03T10:41:17Z</time>
      </trkpt>
      <trkpt lat="43.50206" lon="6.81643">
        <ele>570</ele>
        <time>2011-06-03T10:41:18Z</time>
      </trkpt>
      <trkpt lat="43.50207" lon="6.81639">
        <ele>570</ele>
        <time>2011-06-03T10:41:19Z</time>
      </trkpt>
      <trkpt lat="43.50207" lon="6.81636">
        <ele>569</ele>
        <time>2011-06-03T10:41:20Z</time>
      </trkpt>
      <trkpt lat="43.50206" lon="6.81631">
        <ele>569</ele>
        <time>2011-06-03T10:41:21Z</time>
      </trkpt>
      <trkpt lat="43.50207" lon="6.81628">
        <ele>568</ele>
        <time>2011-06-03T10:41:22Z</time>
      </trkpt>
      <trkpt lat="43.50206" lon="6.81624">
        <ele>567</ele>
        <time>2011-06-03T10:41:23Z</time>
      </trkpt>
      <trkpt lat="43.50205" lon="6.8162">
        <ele>567</ele>
        <time>2011-06-03T10:41:25Z</time>
      </trkpt>
      <trkpt lat="43.50205" lon="6.81619">
        <ele>567</ele>
        <time>2011-06-03T10:41:25Z</time>
      </trkpt>
      <trkpt lat="43.50205" lon="6.81611">
        <ele>567</ele>
        <time>2011-06-03T10:41:26Z</time>
      </trkpt>
      <trkpt lat="43.50204" lon="6.81607">
        <ele>566</ele>
        <time>2011-06-03T10:41:27Z</time>
      </trkpt>
      <trkpt lat="43.50203" lon="6.81602">
        <ele>566</ele>
        <time>2011-06-03T10:41:28Z</time>
      </trkpt>
      <trkpt lat="43.50202" lon="6.816">
        <ele>565</ele>
        <time>2011-06-03T10:41:29Z</time>
      </trkpt>
      <trkpt lat="43.50201" lon="6.81596">
        <ele>565</ele>
        <time>2011-06-03T10:41:30Z</time>
      </trkpt>
      <trkpt lat="43.50201" lon="6.81593">
        <ele>565</ele>
        <time>2011-06-03T10:41:31Z</time>
      </trkpt>
      <trkpt lat="43.50199" lon="6.81588">
        <ele>566</ele>
        <time>2011-06-03T10:41:32Z</time>
      </trkpt>
      <trkpt lat="43.50199" lon="6.81585">
        <ele>566</ele>
        <time>2011-06-03T10:41:33Z</time>
      </trkpt>
      <trkpt lat="43.50197" lon="6.81581">
        <ele>565</ele>
        <time>2011-06-03T10:41:34Z</time>
      </trkpt>
      <trkpt lat="43.50197" lon="6.81577">
        <ele>565</ele>
        <time>2011-06-03T10:41:35Z</time>
      </trkpt>
      <trkpt lat="43.50196" lon="6.81573">
        <ele>565</ele>
        <time>2011-06-03T10:41:36Z</time>
      </trkpt>
      <trkpt lat="43.50195" lon="6.8157">
        <ele>565</ele>
        <time>2011-06-03T10:41:37Z</time>
      </trkpt>
      <trkpt lat="43.50194" lon="6.81566">
        <ele>565</ele>
        <time>2011-06-03T10:41:38Z</time>
      </trkpt>
      <trkpt lat="43.50193" lon="6.81562">
        <ele>564</ele>
        <time>2011-06-03T10:41:39Z</time>
      </trkpt>
      <trkpt lat="43.50193" lon="6.81558">
        <ele>564</ele>
        <time>2011-06-03T10:41:40Z</time>
      </trkpt>
      <trkpt lat="43.50191" lon="6.81554">
        <ele>564</ele>
        <time>2011-06-03T10:41:41Z</time>
      </trkpt>
      <trkpt lat="43.50191" lon="6.81552">
        <ele>564</ele>
        <time>2011-06-03T10:41:42Z</time>
      </trkpt>
      <trkpt lat="43.5019" lon="6.81547">
        <ele>564</ele>
        <time>2011-06-03T10:41:43Z</time>
      </trkpt>
      <trkpt lat="43.5019" lon="6.81542">
        <ele>564</ele>
        <time>2011-06-03T10:41:44Z</time>
      </trkpt>
      <trkpt lat="43.5019" lon="6.81539">
        <ele>564</ele>
        <time>2011-06-03T10:41:45Z</time>
      </trkpt>
      <trkpt lat="43.5019" lon="6.81535">
        <ele>565</ele>
        <time>2011-06-03T10:41:47Z</time>
      </trkpt>
      <trkpt lat="43.5019" lon="6.81535">
        <ele>565</ele>
        <time>2011-06-03T10:41:47Z</time>
      </trkpt>
      <trkpt lat="43.5019" lon="6.81532">
        <ele>564.63220214844</ele>
        <time>2011-06-03T10:41:48Z</time>
      </trkpt>
      <trkpt lat="43.5019" lon="6.81522">
        <ele>564.04626464844</ele>
        <time>2011-06-03T10:41:49Z</time>
      </trkpt>
      <trkpt lat="43.5019" lon="6.81517">
        <ele>564</ele>
        <time>2011-06-03T10:41:50Z</time>
      </trkpt>
      <trkpt lat="43.5019" lon="6.81512">
        <ele>563</ele>
        <time>2011-06-03T10:41:51Z</time>
      </trkpt>
      <trkpt lat="43.5019" lon="6.81508">
        <ele>563</ele>
        <time>2011-06-03T10:41:52Z</time>
      </trkpt>
      <trkpt lat="43.5019" lon="6.81504">
        <ele>563</ele>
        <time>2011-06-03T10:41:53Z</time>
      </trkpt>
      <trkpt lat="43.5019" lon="6.815">
        <ele>562</ele>
        <time>2011-06-03T10:41:54Z</time>
      </trkpt>
      <trkpt lat="43.5019" lon="6.81495">
        <ele>562</ele>
        <time>2011-06-03T10:41:55Z</time>
      </trkpt>
      <trkpt lat="43.5019" lon="6.81491">
        <ele>562</ele>
        <time>2011-06-03T10:41:56Z</time>
      </trkpt>
      <trkpt lat="43.50189" lon="6.81488">
        <ele>561</ele>
        <time>2011-06-03T10:41:57Z</time>
      </trkpt>
      <trkpt lat="43.50188" lon="6.81484">
        <ele>561</ele>
        <time>2011-06-03T10:41:58Z</time>
      </trkpt>
      <trkpt lat="43.50187" lon="6.8148">
        <ele>561</ele>
        <time>2011-06-03T10:41:59Z</time>
      </trkpt>
      <trkpt lat="43.50186" lon="6.81476">
        <ele>562</ele>
        <time>2011-06-03T10:42:00Z</time>
      </trkpt>
      <trkpt lat="43.50186" lon="6.81471">
        <ele>563</ele>
        <time>2011-06-03T10:42:01Z</time>
      </trkpt>
      <trkpt lat="43.50185" lon="6.81467">
        <ele>562</ele>
        <time>2011-06-03T10:42:02Z</time>
      </trkpt>
      <trkpt lat="43.50184" lon="6.81463">
        <ele>563</ele>
        <time>2011-06-03T10:42:03Z</time>
      </trkpt>
      <trkpt lat="43.50183" lon="6.81458">
        <ele>564</ele>
        <time>2011-06-03T10:42:04Z</time>
      </trkpt>
      <trkpt lat="43.50183" lon="6.81453">
        <ele>564</ele>
        <time>2011-06-03T10:42:05Z</time>
      </trkpt>
      <trkpt lat="43.50182" lon="6.81448">
        <ele>565</ele>
        <time>2011-06-03T10:42:06Z</time>
      </trkpt>
      <trkpt lat="43.50181" lon="6.81445">
        <ele>565</ele>
        <time>2011-06-03T10:42:07Z</time>
      </trkpt>
      <trkpt lat="43.50181" lon="6.8144">
        <ele>565</ele>
        <time>2011-06-03T10:42:08Z</time>
      </trkpt>
      <trkpt lat="43.5018" lon="6.81436">
        <ele>565</ele>
        <time>2011-06-03T10:42:10Z</time>
      </trkpt>
      <trkpt lat="43.5018" lon="6.81435">
        <ele>565</ele>
        <time>2011-06-03T10:42:10Z</time>
      </trkpt>
      <trkpt lat="43.50181" lon="6.81429">
        <ele>564.24517822266</ele>
        <time>2011-06-03T10:42:11Z</time>
      </trkpt>
      <trkpt lat="43.50182" lon="6.81422">
        <ele>564</ele>
        <time>2011-06-03T10:42:12Z</time>
      </trkpt>
      <trkpt lat="43.50184" lon="6.81421">
        <ele>563</ele>
        <time>2011-06-03T10:42:13Z</time>
      </trkpt>
      <trkpt lat="43.50184" lon="6.81417">
        <ele>562</ele>
        <time>2011-06-03T10:42:14Z</time>
      </trkpt>
      <trkpt lat="43.50184" lon="6.81413">
        <ele>561</ele>
        <time>2011-06-03T10:42:15Z</time>
      </trkpt>
      <trkpt lat="43.50184" lon="6.81409">
        <ele>561</ele>
        <time>2011-06-03T10:42:16Z</time>
      </trkpt>
      <trkpt lat="43.50185" lon="6.81404">
        <ele>561</ele>
        <time>2011-06-03T10:42:17Z</time>
      </trkpt>
      <trkpt lat="43.50186" lon="6.81401">
        <ele>561</ele>
        <time>2011-06-03T10:42:18Z</time>
      </trkpt>
      <trkpt lat="43.50187" lon="6.81396">
        <ele>560</ele>
        <time>2011-06-03T10:42:19Z</time>
      </trkpt>
      <trkpt lat="43.5019" lon="6.81393">
        <ele>559</ele>
        <time>2011-06-03T10:42:20Z</time>
      </trkpt>
      <trkpt lat="43.50191" lon="6.81388">
        <ele>558</ele>
        <time>2011-06-03T10:42:21Z</time>
      </trkpt>
      <trkpt lat="43.50193" lon="6.81385">
        <ele>557</ele>
        <time>2011-06-03T10:42:22Z</time>
      </trkpt>
      <trkpt lat="43.50195" lon="6.81381">
        <ele>557</ele>
        <time>2011-06-03T10:42:23Z</time>
      </trkpt>
      <trkpt lat="43.50196" lon="6.81377">
        <ele>556</ele>
        <time>2011-06-03T10:42:24Z</time>
      </trkpt>
      <trkpt lat="43.50199" lon="6.81373">
        <ele>555</ele>
        <time>2011-06-03T10:42:25Z</time>
      </trkpt>
      <trkpt lat="43.502" lon="6.8137">
        <ele>555</ele>
        <time>2011-06-03T10:42:26Z</time>
      </trkpt>
      <trkpt lat="43.50202" lon="6.81369">
        <ele>555</ele>
        <time>2011-06-03T10:42:27Z</time>
      </trkpt>
      <trkpt lat="43.50202" lon="6.81362">
        <ele>555</ele>
        <time>2011-06-03T10:42:28Z</time>
      </trkpt>
      <trkpt lat="43.50203" lon="6.81358">
        <ele>555</ele>
        <time>2011-06-03T10:42:29Z</time>
      </trkpt>
      <trkpt lat="43.50205" lon="6.81355">
        <ele>554</ele>
        <time>2011-06-03T10:42:30Z</time>
      </trkpt>
      <trkpt lat="43.50206" lon="6.81352">
        <ele>554</ele>
        <time>2011-06-03T10:42:32Z</time>
      </trkpt>
      <trkpt lat="43.50206" lon="6.81352">
        <ele>553.99554443359</ele>
        <time>2011-06-03T10:42:32Z</time>
      </trkpt>
      <trkpt lat="43.50208" lon="6.81347">
        <ele>553</ele>
        <time>2011-06-03T10:42:33Z</time>
      </trkpt>
      <trkpt lat="43.50208" lon="6.81343">
        <ele>553</ele>
        <time>2011-06-03T10:42:34Z</time>
      </trkpt>
      <trkpt lat="43.50209" lon="6.81338">
        <ele>553</ele>
        <time>2011-06-03T10:42:35Z</time>
      </trkpt>
      <trkpt lat="43.50209" lon="6.81335">
        <ele>553</ele>
        <time>2011-06-03T10:42:36Z</time>
      </trkpt>
      <trkpt lat="43.50209" lon="6.8133">
        <ele>552</ele>
        <time>2011-06-03T10:42:37Z</time>
      </trkpt>
      <trkpt lat="43.50209" lon="6.81326">
        <ele>552</ele>
        <time>2011-06-03T10:42:38Z</time>
      </trkpt>
      <trkpt lat="43.5021" lon="6.81322">
        <ele>551</ele>
        <time>2011-06-03T10:42:39Z</time>
      </trkpt>
      <trkpt lat="43.5021" lon="6.81319">
        <ele>550</ele>
        <time>2011-06-03T10:42:40Z</time>
      </trkpt>
      <trkpt lat="43.50209" lon="6.81315">
        <ele>550</ele>
        <time>2011-06-03T10:42:41Z</time>
      </trkpt>
      <trkpt lat="43.50209" lon="6.81311">
        <ele>550</ele>
        <time>2011-06-03T10:42:42Z</time>
      </trkpt>
      <trkpt lat="43.50208" lon="6.81306">
        <ele>550</ele>
        <time>2011-06-03T10:42:43Z</time>
      </trkpt>
      <trkpt lat="43.50208" lon="6.81303">
        <ele>550</ele>
        <time>2011-06-03T10:42:44Z</time>
      </trkpt>
      <trkpt lat="43.50208" lon="6.813">
        <ele>549</ele>
        <time>2011-06-03T10:42:45Z</time>
      </trkpt>
      <trkpt lat="43.50209" lon="6.81297">
        <ele>548</ele>
        <time>2011-06-03T10:42:46Z</time>
      </trkpt>
      <trkpt lat="43.50209" lon="6.81293">
        <ele>549</ele>
        <time>2011-06-03T10:42:47Z</time>
      </trkpt>
      <trkpt lat="43.50209" lon="6.8129">
        <ele>548</ele>
        <time>2011-06-03T10:42:48Z</time>
      </trkpt>
      <trkpt lat="43.50207" lon="6.81285">
        <ele>547</ele>
        <time>2011-06-03T10:42:49Z</time>
      </trkpt>
      <trkpt lat="43.50208" lon="6.81281">
        <ele>547</ele>
        <time>2011-06-03T10:42:50Z</time>
      </trkpt>
      <trkpt lat="43.50208" lon="6.81277">
        <ele>547</ele>
        <time>2011-06-03T10:42:51Z</time>
      </trkpt>
      <trkpt lat="43.50208" lon="6.81273">
        <ele>547</ele>
        <time>2011-06-03T10:42:52Z</time>
      </trkpt>
      <trkpt lat="43.50209" lon="6.81268">
        <ele>547</ele>
        <time>2011-06-03T10:42:54Z</time>
      </trkpt>
      <trkpt lat="43.50209" lon="6.81267">
        <ele>547</ele>
        <time>2011-06-03T10:42:54Z</time>
      </trkpt>
      <trkpt lat="43.50209" lon="6.8126">
        <ele>547</ele>
        <time>2011-06-03T10:42:55Z</time>
      </trkpt>
      <trkpt lat="43.50209" lon="6.81254">
        <ele>547</ele>
        <time>2011-06-03T10:42:56Z</time>
      </trkpt>
      <trkpt lat="43.5021" lon="6.8125">
        <ele>547</ele>
        <time>2011-06-03T10:42:57Z</time>
      </trkpt>
      <trkpt lat="43.5021" lon="6.81247">
        <ele>547</ele>
        <time>2011-06-03T10:42:58Z</time>
      </trkpt>
      <trkpt lat="43.5021" lon="6.81242">
        <ele>547</ele>
        <time>2011-06-03T10:42:59Z</time>
      </trkpt>
      <trkpt lat="43.5021" lon="6.81238">
        <ele>546</ele>
        <time>2011-06-03T10:43:00Z</time>
      </trkpt>
      <trkpt lat="43.50211" lon="6.81233">
        <ele>546</ele>
        <time>2011-06-03T10:43:01Z</time>
      </trkpt>
      <trkpt lat="43.5021" lon="6.81229">
        <ele>546</ele>
        <time>2011-06-03T10:43:02Z</time>
      </trkpt>
      <trkpt lat="43.5021" lon="6.81225">
        <ele>546</ele>
        <time>2011-06-03T10:43:03Z</time>
      </trkpt>
      <trkpt lat="43.50209" lon="6.81221">
        <ele>545</ele>
        <time>2011-06-03T10:43:04Z</time>
      </trkpt>
      <trkpt lat="43.50209" lon="6.81217">
        <ele>546</ele>
        <time>2011-06-03T10:43:05Z</time>
      </trkpt>
      <trkpt lat="43.5021" lon="6.81212">
        <ele>545</ele>
        <time>2011-06-03T10:43:06Z</time>
      </trkpt>
      <trkpt lat="43.50211" lon="6.81208">
        <ele>545</ele>
        <time>2011-06-03T10:43:07Z</time>
      </trkpt>
      <trkpt lat="43.50211" lon="6.81204">
        <ele>545</ele>
        <time>2011-06-03T10:43:08Z</time>
      </trkpt>
      <trkpt lat="43.5021" lon="6.812">
        <ele>545</ele>
        <time>2011-06-03T10:43:09Z</time>
      </trkpt>
      <trkpt lat="43.50211" lon="6.81196">
        <ele>545</ele>
        <time>2011-06-03T10:43:10Z</time>
      </trkpt>
      <trkpt lat="43.50211" lon="6.81192">
        <ele>545</ele>
        <time>2011-06-03T10:43:11Z</time>
      </trkpt>
      <trkpt lat="43.50212" lon="6.81187">
        <ele>545</ele>
        <time>2011-06-03T10:43:12Z</time>
      </trkpt>
      <trkpt lat="43.50212" lon="6.81183">
        <ele>544</ele>
        <time>2011-06-03T10:43:13Z</time>
      </trkpt>
      <trkpt lat="43.50212" lon="6.8118">
        <ele>544</ele>
        <time>2011-06-03T10:43:14Z</time>
      </trkpt>
      <trkpt lat="43.50213" lon="6.81176">
        <ele>544</ele>
        <time>2011-06-03T10:43:16Z</time>
      </trkpt>
      <trkpt lat="43.50213" lon="6.81176">
        <ele>543.99682617188</ele>
        <time>2011-06-03T10:43:16Z</time>
      </trkpt>
      <trkpt lat="43.50214" lon="6.81171">
        <ele>541.92785644531</ele>
        <time>2011-06-03T10:43:17Z</time>
      </trkpt>
      <trkpt lat="43.50215" lon="6.81165">
        <ele>540</ele>
        <time>2011-06-03T10:43:18Z</time>
      </trkpt>
      <trkpt lat="43.50217" lon="6.81161">
        <ele>540</ele>
        <time>2011-06-03T10:43:19Z</time>
      </trkpt>
      <trkpt lat="43.50218" lon="6.81157">
        <ele>539</ele>
        <time>2011-06-03T10:43:20Z</time>
      </trkpt>
      <trkpt lat="43.5022" lon="6.81153">
        <ele>539</ele>
        <time>2011-06-03T10:43:21Z</time>
      </trkpt>
      <trkpt lat="43.50221" lon="6.8115">
        <ele>539</ele>
        <time>2011-06-03T10:43:22Z</time>
      </trkpt>
      <trkpt lat="43.50223" lon="6.81147">
        <ele>539</ele>
        <time>2011-06-03T10:43:23Z</time>
      </trkpt>
      <trkpt lat="43.50225" lon="6.81145">
        <ele>540</ele>
        <time>2011-06-03T10:43:24Z</time>
      </trkpt>
      <trkpt lat="43.50228" lon="6.81141">
        <ele>539</ele>
        <time>2011-06-03T10:43:25Z</time>
      </trkpt>
      <trkpt lat="43.50229" lon="6.81138">
        <ele>539</ele>
        <time>2011-06-03T10:43:26Z</time>
      </trkpt>
      <trkpt lat="43.50232" lon="6.81136">
        <ele>540</ele>
        <time>2011-06-03T10:43:27Z</time>
      </trkpt>
      <trkpt lat="43.50234" lon="6.81134">
        <ele>541</ele>
        <time>2011-06-03T10:43:28Z</time>
      </trkpt>
      <trkpt lat="43.50236" lon="6.81131">
        <ele>540</ele>
        <time>2011-06-03T10:43:29Z</time>
      </trkpt>
      <trkpt lat="43.50238" lon="6.81129">
        <ele>540</ele>
        <time>2011-06-03T10:43:30Z</time>
      </trkpt>
      <trkpt lat="43.5024" lon="6.81126">
        <ele>540</ele>
        <time>2011-06-03T10:43:31Z</time>
      </trkpt>
      <trkpt lat="43.50242" lon="6.81123">
        <ele>540</ele>
        <time>2011-06-03T10:43:32Z</time>
      </trkpt>
      <trkpt lat="43.50244" lon="6.81121">
        <ele>539</ele>
        <time>2011-06-03T10:43:33Z</time>
      </trkpt>
      <trkpt lat="43.50247" lon="6.8112">
        <ele>540</ele>
        <time>2011-06-03T10:43:34Z</time>
      </trkpt>
      <trkpt lat="43.50249" lon="6.81118">
        <ele>539</ele>
        <time>2011-06-03T10:43:35Z</time>
      </trkpt>
      <trkpt lat="43.50251" lon="6.81115">
        <ele>539</ele>
        <time>2011-06-03T10:43:36Z</time>
      </trkpt>
      <trkpt lat="43.50253" lon="6.81114">
        <ele>539</ele>
        <time>2011-06-03T10:43:37Z</time>
      </trkpt>
      <trkpt lat="43.50255" lon="6.81111">
        <ele>540</ele>
        <time>2011-06-03T10:43:39Z</time>
      </trkpt>
      <trkpt lat="43.50255" lon="6.8111">
        <ele>540</ele>
        <time>2011-06-03T10:43:39Z</time>
      </trkpt>
      <trkpt lat="43.50259" lon="6.81107">
        <ele>540</ele>
        <time>2011-06-03T10:43:40Z</time>
      </trkpt>
      <trkpt lat="43.50263" lon="6.81103">
        <ele>541</ele>
        <time>2011-06-03T10:43:41Z</time>
      </trkpt>
      <trkpt lat="43.50265" lon="6.811">
        <ele>540</ele>
        <time>2011-06-03T10:43:42Z</time>
      </trkpt>
      <trkpt lat="43.50267" lon="6.81099">
        <ele>540</ele>
        <time>2011-06-03T10:43:43Z</time>
      </trkpt>
      <trkpt lat="43.5027" lon="6.81097">
        <ele>540</ele>
        <time>2011-06-03T10:43:44Z</time>
      </trkpt>
      <trkpt lat="43.50273" lon="6.81094">
        <ele>540</ele>
        <time>2011-06-03T10:43:45Z</time>
      </trkpt>
      <trkpt lat="43.50275" lon="6.81093">
        <ele>539</ele>
        <time>2011-06-03T10:43:46Z</time>
      </trkpt>
      <trkpt lat="43.50278" lon="6.81092">
        <ele>539</ele>
        <time>2011-06-03T10:43:47Z</time>
      </trkpt>
      <trkpt lat="43.50281" lon="6.8109">
        <ele>538</ele>
        <time>2011-06-03T10:43:48Z</time>
      </trkpt>
      <trkpt lat="43.50284" lon="6.81087">
        <ele>538</ele>
        <time>2011-06-03T10:43:49Z</time>
      </trkpt>
      <trkpt lat="43.50287" lon="6.81087">
        <ele>538</ele>
        <time>2011-06-03T10:43:50Z</time>
      </trkpt>
      <trkpt lat="43.50289" lon="6.81085">
        <ele>537</ele>
        <time>2011-06-03T10:43:51Z</time>
      </trkpt>
      <trkpt lat="43.50291" lon="6.81082">
        <ele>537</ele>
        <time>2011-06-03T10:43:52Z</time>
      </trkpt>
      <trkpt lat="43.50294" lon="6.81079">
        <ele>536</ele>
        <time>2011-06-03T10:43:53Z</time>
      </trkpt>
      <trkpt lat="43.50297" lon="6.81077">
        <ele>536</ele>
        <time>2011-06-03T10:43:54Z</time>
      </trkpt>
      <trkpt lat="43.503" lon="6.81073">
        <ele>536</ele>
        <time>2011-06-03T10:43:55Z</time>
      </trkpt>
      <trkpt lat="43.50303" lon="6.81072">
        <ele>535</ele>
        <time>2011-06-03T10:43:56Z</time>
      </trkpt>
      <trkpt lat="43.50305" lon="6.8107">
        <ele>535</ele>
        <time>2011-06-03T10:43:57Z</time>
      </trkpt>
      <trkpt lat="43.50308" lon="6.81068">
        <ele>535</ele>
        <time>2011-06-03T10:43:58Z</time>
      </trkpt>
      <trkpt lat="43.50311" lon="6.81065">
        <ele>535</ele>
        <time>2011-06-03T10:43:59Z</time>
      </trkpt>
      <trkpt lat="43.50314" lon="6.81064">
        <ele>535</ele>
        <time>2011-06-03T10:44:01Z</time>
      </trkpt>
      <trkpt lat="43.50315" lon="6.81064">
        <ele>535</ele>
        <time>2011-06-03T10:44:01Z</time>
      </trkpt>
      <trkpt lat="43.50316" lon="6.81063">
        <ele>535</ele>
        <time>2011-06-03T10:44:02Z</time>
      </trkpt>
      <trkpt lat="43.50321" lon="6.81057">
        <ele>535</ele>
        <time>2011-06-03T10:44:03Z</time>
      </trkpt>
      <trkpt lat="43.50324" lon="6.81057">
        <ele>535</ele>
        <time>2011-06-03T10:44:04Z</time>
      </trkpt>
      <trkpt lat="43.50327" lon="6.81055">
        <ele>534</ele>
        <time>2011-06-03T10:44:05Z</time>
      </trkpt>
      <trkpt lat="43.5033" lon="6.81055">
        <ele>533</ele>
        <time>2011-06-03T10:44:06Z</time>
      </trkpt>
      <trkpt lat="43.50335" lon="6.8106">
        <ele>532</ele>
        <time>2011-06-03T10:44:07Z</time>
      </trkpt>
      <trkpt lat="43.50339" lon="6.8106">
        <ele>531</ele>
        <time>2011-06-03T10:44:08Z</time>
      </trkpt>
      <trkpt lat="43.50342" lon="6.81061">
        <ele>531</ele>
        <time>2011-06-03T10:44:09Z</time>
      </trkpt>
      <trkpt lat="43.50345" lon="6.81061">
        <ele>531</ele>
        <time>2011-06-03T10:44:10Z</time>
      </trkpt>
      <trkpt lat="43.50348" lon="6.8106">
        <ele>530</ele>
        <time>2011-06-03T10:44:11Z</time>
      </trkpt>
      <trkpt lat="43.5035" lon="6.8106">
        <ele>530</ele>
        <time>2011-06-03T10:44:12Z</time>
      </trkpt>
      <trkpt lat="43.50352" lon="6.81061">
        <ele>531</ele>
        <time>2011-06-03T10:44:13Z</time>
      </trkpt>
      <trkpt lat="43.50354" lon="6.81062">
        <ele>532</ele>
        <time>2011-06-03T10:44:14Z</time>
      </trkpt>
      <trkpt lat="43.50357" lon="6.81065">
        <ele>532</ele>
        <time>2011-06-03T10:44:15Z</time>
      </trkpt>
      <trkpt lat="43.5036" lon="6.81067">
        <ele>532</ele>
        <time>2011-06-03T10:44:16Z</time>
      </trkpt>
      <trkpt lat="43.50363" lon="6.8107">
        <ele>531</ele>
        <time>2011-06-03T10:44:17Z</time>
      </trkpt>
      <trkpt lat="43.50366" lon="6.81073">
        <ele>530</ele>
        <time>2011-06-03T10:44:18Z</time>
      </trkpt>
      <trkpt lat="43.50368" lon="6.81076">
        <ele>529</ele>
        <time>2011-06-03T10:44:19Z</time>
      </trkpt>
      <trkpt lat="43.5037" lon="6.81079">
        <ele>529</ele>
        <time>2011-06-03T10:44:20Z</time>
      </trkpt>
      <trkpt lat="43.50372" lon="6.81083">
        <ele>529</ele>
        <time>2011-06-03T10:44:21Z</time>
      </trkpt>
      <trkpt lat="43.50375" lon="6.81087">
        <ele>528</ele>
        <time>2011-06-03T10:44:22Z</time>
      </trkpt>
      <trkpt lat="43.50377" lon="6.81091">
        <ele>527</ele>
        <time>2011-06-03T10:44:24Z</time>
      </trkpt>
      <trkpt lat="43.50377" lon="6.81091">
        <ele>526.9140625</ele>
        <time>2011-06-03T10:44:24Z</time>
      </trkpt>
      <trkpt lat="43.50382" lon="6.81097">
        <ele>526</ele>
        <time>2011-06-03T10:44:25Z</time>
      </trkpt>
      <trkpt lat="43.50383" lon="6.811">
        <ele>526</ele>
        <time>2011-06-03T10:44:26Z</time>
      </trkpt>
      <trkpt lat="43.50385" lon="6.81105">
        <ele>526</ele>
        <time>2011-06-03T10:44:27Z</time>
      </trkpt>
      <trkpt lat="43.50387" lon="6.81108">
        <ele>525</ele>
        <time>2011-06-03T10:44:28Z</time>
      </trkpt>
      <trkpt lat="43.50389" lon="6.81112">
        <ele>525</ele>
        <time>2011-06-03T10:44:29Z</time>
      </trkpt>
      <trkpt lat="43.5039" lon="6.81115">
        <ele>525</ele>
        <time>2011-06-03T10:44:30Z</time>
      </trkpt>
      <trkpt lat="43.50391" lon="6.81119">
        <ele>525</ele>
        <time>2011-06-03T10:44:31Z</time>
      </trkpt>
      <trkpt lat="43.50392" lon="6.81122">
        <ele>525</ele>
        <time>2011-06-03T10:44:32Z</time>
      </trkpt>
      <trkpt lat="43.50394" lon="6.81126">
        <ele>525</ele>
        <time>2011-06-03T10:44:33Z</time>
      </trkpt>
      <trkpt lat="43.50395" lon="6.81129">
        <ele>525</ele>
        <time>2011-06-03T10:44:34Z</time>
      </trkpt>
      <trkpt lat="43.50396" lon="6.81132">
        <ele>524</ele>
        <time>2011-06-03T10:44:35Z</time>
      </trkpt>
      <trkpt lat="43.50396" lon="6.81137">
        <ele>524</ele>
        <time>2011-06-03T10:44:36Z</time>
      </trkpt>
      <trkpt lat="43.50396" lon="6.81141">
        <ele>523</ele>
        <time>2011-06-03T10:44:37Z</time>
      </trkpt>
      <trkpt lat="43.50397" lon="6.81145">
        <ele>523</ele>
        <time>2011-06-03T10:44:38Z</time>
      </trkpt>
      <trkpt lat="43.50397" lon="6.8115">
        <ele>522</ele>
        <time>2011-06-03T10:44:39Z</time>
      </trkpt>
      <trkpt lat="43.50397" lon="6.81154">
        <ele>523</ele>
        <time>2011-06-03T10:44:40Z</time>
      </trkpt>
      <trkpt lat="43.50398" lon="6.81158">
        <ele>523</ele>
        <time>2011-06-03T10:44:41Z</time>
      </trkpt>
      <trkpt lat="43.50399" lon="6.81162">
        <ele>523</ele>
        <time>2011-06-03T10:44:42Z</time>
      </trkpt>
      <trkpt lat="43.50399" lon="6.81166">
        <ele>523</ele>
        <time>2011-06-03T10:44:43Z</time>
      </trkpt>
      <trkpt lat="43.504" lon="6.8117">
        <ele>523</ele>
        <time>2011-06-03T10:44:44Z</time>
      </trkpt>
      <trkpt lat="43.50401" lon="6.81174">
        <ele>522</ele>
        <time>2011-06-03T10:44:46Z</time>
      </trkpt>
      <trkpt lat="43.50401" lon="6.81174">
        <ele>522</ele>
        <time>2011-06-03T10:44:46Z</time>
      </trkpt>
      <trkpt lat="43.50403" lon="6.81181">
        <ele>522.93707275391</ele>
        <time>2011-06-03T10:44:47Z</time>
      </trkpt>
      <trkpt lat="43.50404" lon="6.81185">
        <ele>523</ele>
        <time>2011-06-03T10:44:48Z</time>
      </trkpt>
      <trkpt lat="43.50405" lon="6.8119">
        <ele>523</ele>
        <time>2011-06-03T10:44:49Z</time>
      </trkpt>
      <trkpt lat="43.50405" lon="6.81194">
        <ele>523</ele>
        <time>2011-06-03T10:44:50Z</time>
      </trkpt>
      <trkpt lat="43.50407" lon="6.81198">
        <ele>523</ele>
        <time>2011-06-03T10:44:51Z</time>
      </trkpt>
      <trkpt lat="43.50408" lon="6.81203">
        <ele>523</ele>
        <time>2011-06-03T10:44:52Z</time>
      </trkpt>
      <trkpt lat="43.50413" lon="6.81208">
        <ele>524</ele>
        <time>2011-06-03T10:44:53Z</time>
      </trkpt>
      <trkpt lat="43.50414" lon="6.81212">
        <ele>524</ele>
        <time>2011-06-03T10:44:54Z</time>
      </trkpt>
      <trkpt lat="43.50415" lon="6.81217">
        <ele>524</ele>
        <time>2011-06-03T10:44:55Z</time>
      </trkpt>
      <trkpt lat="43.50415" lon="6.8122">
        <ele>524</ele>
        <time>2011-06-03T10:44:56Z</time>
      </trkpt>
      <trkpt lat="43.50416" lon="6.81224">
        <ele>525</ele>
        <time>2011-06-03T10:44:57Z</time>
      </trkpt>
      <trkpt lat="43.50417" lon="6.81227">
        <ele>525</ele>
        <time>2011-06-03T10:44:58Z</time>
      </trkpt>
      <trkpt lat="43.50418" lon="6.81231">
        <ele>524</ele>
        <time>2011-06-03T10:44:59Z</time>
      </trkpt>
      <trkpt lat="43.50419" lon="6.81235">
        <ele>524</ele>
        <time>2011-06-03T10:45:00Z</time>
      </trkpt>
      <trkpt lat="43.5042" lon="6.81239">
        <ele>524</ele>
        <time>2011-06-03T10:45:01Z</time>
      </trkpt>
      <trkpt lat="43.50421" lon="6.81243">
        <ele>524</ele>
        <time>2011-06-03T10:45:02Z</time>
      </trkpt>
      <trkpt lat="43.50422" lon="6.81246">
        <ele>523</ele>
        <time>2011-06-03T10:45:03Z</time>
      </trkpt>
      <trkpt lat="43.50424" lon="6.81251">
        <ele>524</ele>
        <time>2011-06-03T10:45:04Z</time>
      </trkpt>
      <trkpt lat="43.50424" lon="6.81254">
        <ele>525</ele>
        <time>2011-06-03T10:45:05Z</time>
      </trkpt>
      <trkpt lat="43.50426" lon="6.81258">
        <ele>525</ele>
        <time>2011-06-03T10:45:06Z</time>
      </trkpt>
      <trkpt lat="43.50427" lon="6.81262">
        <ele>527</ele>
        <time>2011-06-03T10:45:08Z</time>
      </trkpt>
      <trkpt lat="43.50427" lon="6.81262">
        <ele>527</ele>
        <time>2011-06-03T10:45:08Z</time>
      </trkpt>
      <trkpt lat="43.50428" lon="6.81263">
        <ele>527</ele>
        <time>2011-06-03T10:45:09Z</time>
      </trkpt>
      <trkpt lat="43.50431" lon="6.8127">
        <ele>526.30865478516</ele>
        <time>2011-06-03T10:45:10Z</time>
      </trkpt>
      <trkpt lat="43.50433" lon="6.81277">
        <ele>526</ele>
        <time>2011-06-03T10:45:11Z</time>
      </trkpt>
      <trkpt lat="43.50434" lon="6.81281">
        <ele>525</ele>
        <time>2011-06-03T10:45:12Z</time>
      </trkpt>
      <trkpt lat="43.50435" lon="6.81285">
        <ele>524</ele>
        <time>2011-06-03T10:45:13Z</time>
      </trkpt>
      <trkpt lat="43.50436" lon="6.81289">
        <ele>524</ele>
        <time>2011-06-03T10:45:14Z</time>
      </trkpt>
      <trkpt lat="43.50438" lon="6.81292">
        <ele>523</ele>
        <time>2011-06-03T10:45:15Z</time>
      </trkpt>
      <trkpt lat="43.50439" lon="6.81295">
        <ele>523</ele>
        <time>2011-06-03T10:45:16Z</time>
      </trkpt>
      <trkpt lat="43.50441" lon="6.81298">
        <ele>523</ele>
        <time>2011-06-03T10:45:17Z</time>
      </trkpt>
      <trkpt lat="43.50442" lon="6.81301">
        <ele>523</ele>
        <time>2011-06-03T10:45:18Z</time>
      </trkpt>
      <trkpt lat="43.50444" lon="6.81303">
        <ele>523</ele>
        <time>2011-06-03T10:45:19Z</time>
      </trkpt>
      <trkpt lat="43.50445" lon="6.81305">
        <ele>522</ele>
        <time>2011-06-03T10:45:20Z</time>
      </trkpt>
      <trkpt lat="43.50446" lon="6.81307">
        <ele>522</ele>
        <time>2011-06-03T10:45:21Z</time>
      </trkpt>
      <trkpt lat="43.50446" lon="6.8131">
        <ele>521</ele>
        <time>2011-06-03T10:45:22Z</time>
      </trkpt>
      <trkpt lat="43.50449" lon="6.81313">
        <ele>521</ele>
        <time>2011-06-03T10:45:23Z</time>
      </trkpt>
      <trkpt lat="43.5045" lon="6.81315">
        <ele>520</ele>
        <time>2011-06-03T10:45:24Z</time>
      </trkpt>
      <trkpt lat="43.50452" lon="6.81317">
        <ele>520</ele>
        <time>2011-06-03T10:45:25Z</time>
      </trkpt>
      <trkpt lat="43.50453" lon="6.81317">
        <ele>518</ele>
        <time>2011-06-03T10:45:26Z</time>
      </trkpt>
      <trkpt lat="43.50456" lon="6.81319">
        <ele>518</ele>
        <time>2011-06-03T10:45:27Z</time>
      </trkpt>
      <trkpt lat="43.50458" lon="6.8132">
        <ele>517</ele>
        <time>2011-06-03T10:45:28Z</time>
      </trkpt>
      <trkpt lat="43.50461" lon="6.81319">
        <ele>518</ele>
        <time>2011-06-03T10:45:29Z</time>
      </trkpt>
      <trkpt lat="43.50464" lon="6.81317">
        <ele>516</ele>
        <time>2011-06-03T10:45:31Z</time>
      </trkpt>
      <trkpt lat="43.50464" lon="6.81317">
        <ele>516</ele>
        <time>2011-06-03T10:45:31Z</time>
      </trkpt>
      <trkpt lat="43.50466" lon="6.81314">
        <ele>515.03228759766</ele>
        <time>2011-06-03T10:45:32Z</time>
      </trkpt>
      <trkpt lat="43.50467" lon="6.81312">
        <ele>515</ele>
        <time>2011-06-03T10:45:33Z</time>
      </trkpt>
      <trkpt lat="43.50465" lon="6.81312">
        <ele>515</ele>
        <time>2011-06-03T10:45:34Z</time>
      </trkpt>
      <trkpt lat="43.50463" lon="6.81311">
        <ele>515</ele>
        <time>2011-06-03T10:45:35Z</time>
      </trkpt>
      <trkpt lat="43.5046" lon="6.8131">
        <ele>514</ele>
        <time>2011-06-03T10:45:36Z</time>
      </trkpt>
      <trkpt lat="43.50458" lon="6.81308">
        <ele>514</ele>
        <time>2011-06-03T10:45:37Z</time>
      </trkpt>
      <trkpt lat="43.50455" lon="6.81307">
        <ele>514</ele>
        <time>2011-06-03T10:45:38Z</time>
      </trkpt>
      <trkpt lat="43.50453" lon="6.81305">
        <ele>514</ele>
        <time>2011-06-03T10:45:39Z</time>
      </trkpt>
      <trkpt lat="43.5045" lon="6.81303">
        <ele>514</ele>
        <time>2011-06-03T10:45:40Z</time>
      </trkpt>
      <trkpt lat="43.50448" lon="6.81299">
        <ele>514</ele>
        <time>2011-06-03T10:45:41Z</time>
      </trkpt>
      <trkpt lat="43.50445" lon="6.81297">
        <ele>514</ele>
        <time>2011-06-03T10:45:42Z</time>
      </trkpt>
      <trkpt lat="43.50443" lon="6.81294">
        <ele>514</ele>
        <time>2011-06-03T10:45:43Z</time>
      </trkpt>
      <trkpt lat="43.50441" lon="6.81291">
        <ele>515</ele>
        <time>2011-06-03T10:45:44Z</time>
      </trkpt>
      <trkpt lat="43.50439" lon="6.81288">
        <ele>515</ele>
        <time>2011-06-03T10:45:45Z</time>
      </trkpt>
      <trkpt lat="43.50437" lon="6.81282">
        <ele>515</ele>
        <time>2011-06-03T10:45:46Z</time>
      </trkpt>
      <trkpt lat="43.50435" lon="6.81279">
        <ele>515</ele>
        <time>2011-06-03T10:45:47Z</time>
      </trkpt>
      <trkpt lat="43.50434" lon="6.81275">
        <ele>516</ele>
        <time>2011-06-03T10:45:48Z</time>
      </trkpt>
      <trkpt lat="43.50434" lon="6.81273">
        <ele>515</ele>
        <time>2011-06-03T10:45:49Z</time>
      </trkpt>
      <trkpt lat="43.50432" lon="6.81269">
        <ele>515</ele>
        <time>2011-06-03T10:45:50Z</time>
      </trkpt>
      <trkpt lat="43.50431" lon="6.81266">
        <ele>515</ele>
        <time>2011-06-03T10:45:51Z</time>
      </trkpt>
      <trkpt lat="43.50431" lon="6.81262">
        <ele>515</ele>
        <time>2011-06-03T10:45:52Z</time>
      </trkpt>
      <trkpt lat="43.50431" lon="6.81258">
        <ele>515</ele>
        <time>2011-06-03T10:45:54Z</time>
      </trkpt>
      <trkpt lat="43.50431" lon="6.81258">
        <ele>515</ele>
        <time>2011-06-03T10:45:54Z</time>
      </trkpt>
      <trkpt lat="43.50431" lon="6.81255">
        <ele>514.71014404297</ele>
        <time>2011-06-03T10:45:55Z</time>
      </trkpt>
      <trkpt lat="43.50431" lon="6.81245">
        <ele>514.06604003906</ele>
        <time>2011-06-03T10:45:56Z</time>
      </trkpt>
      <trkpt lat="43.50433" lon="6.81239">
        <ele>514</ele>
        <time>2011-06-03T10:45:57Z</time>
      </trkpt>
      <trkpt lat="43.50433" lon="6.81234">
        <ele>514</ele>
        <time>2011-06-03T10:45:58Z</time>
      </trkpt>
      <trkpt lat="43.50433" lon="6.81229">
        <ele>513</ele>
        <time>2011-06-03T10:45:59Z</time>
      </trkpt>
      <trkpt lat="43.50434" lon="6.81224">
        <ele>513</ele>
        <time>2011-06-03T10:46:00Z</time>
      </trkpt>
      <trkpt lat="43.50435" lon="6.8122">
        <ele>513</ele>
        <time>2011-06-03T10:46:01Z</time>
      </trkpt>
      <trkpt lat="43.50435" lon="6.81217">
        <ele>513</ele>
        <time>2011-06-03T10:46:02Z</time>
      </trkpt>
      <trkpt lat="43.50435" lon="6.81211">
        <ele>513</ele>
        <time>2011-06-03T10:46:03Z</time>
      </trkpt>
      <trkpt lat="43.50436" lon="6.81207">
        <ele>514</ele>
        <time>2011-06-03T10:46:04Z</time>
      </trkpt>
      <trkpt lat="43.50436" lon="6.81201">
        <ele>513</ele>
        <time>2011-06-03T10:46:05Z</time>
      </trkpt>
      <trkpt lat="43.50436" lon="6.81197">
        <ele>513</ele>
        <time>2011-06-03T10:46:06Z</time>
      </trkpt>
      <trkpt lat="43.50437" lon="6.81194">
        <ele>512</ele>
        <time>2011-06-03T10:46:07Z</time>
      </trkpt>
      <trkpt lat="43.50437" lon="6.81189">
        <ele>511</ele>
        <time>2011-06-03T10:46:08Z</time>
      </trkpt>
      <trkpt lat="43.50437" lon="6.81185">
        <ele>511</ele>
        <time>2011-06-03T10:46:09Z</time>
      </trkpt>
      <trkpt lat="43.50438" lon="6.81182">
        <ele>511</ele>
        <time>2011-06-03T10:46:10Z</time>
      </trkpt>
      <trkpt lat="43.50438" lon="6.81178">
        <ele>511</ele>
        <time>2011-06-03T10:46:11Z</time>
      </trkpt>
      <trkpt lat="43.50437" lon="6.81175">
        <ele>511</ele>
        <time>2011-06-03T10:46:12Z</time>
      </trkpt>
      <trkpt lat="43.50437" lon="6.8117">
        <ele>510</ele>
        <time>2011-06-03T10:46:13Z</time>
      </trkpt>
      <trkpt lat="43.50436" lon="6.81164">
        <ele>510</ele>
        <time>2011-06-03T10:46:14Z</time>
      </trkpt>
      <trkpt lat="43.50435" lon="6.81159">
        <ele>509</ele>
        <time>2011-06-03T10:46:15Z</time>
      </trkpt>
      <trkpt lat="43.50434" lon="6.81154">
        <ele>509</ele>
        <time>2011-06-03T10:46:17Z</time>
      </trkpt>
      <trkpt lat="43.50434" lon="6.81154">
        <ele>509</ele>
        <time>2011-06-03T10:46:17Z</time>
      </trkpt>
      <trkpt lat="43.50433" lon="6.81149">
        <ele>509</ele>
        <time>2011-06-03T10:46:18Z</time>
      </trkpt>
      <trkpt lat="43.50433" lon="6.81143">
        <ele>509</ele>
        <time>2011-06-03T10:46:19Z</time>
      </trkpt>
      <trkpt lat="43.50433" lon="6.81139">
        <ele>508</ele>
        <time>2011-06-03T10:46:20Z</time>
      </trkpt>
      <trkpt lat="43.50431" lon="6.81136">
        <ele>508</ele>
        <time>2011-06-03T10:46:21Z</time>
      </trkpt>
      <trkpt lat="43.50431" lon="6.81132">
        <ele>508</ele>
        <time>2011-06-03T10:46:22Z</time>
      </trkpt>
      <trkpt lat="43.5043" lon="6.81127">
        <ele>506</ele>
        <time>2011-06-03T10:46:23Z</time>
      </trkpt>
      <trkpt lat="43.50429" lon="6.81123">
        <ele>505</ele>
        <time>2011-06-03T10:46:24Z</time>
      </trkpt>
      <trkpt lat="43.50428" lon="6.81119">
        <ele>504</ele>
        <time>2011-06-03T10:46:25Z</time>
      </trkpt>
      <trkpt lat="43.50427" lon="6.81115">
        <ele>504</ele>
        <time>2011-06-03T10:46:26Z</time>
      </trkpt>
      <trkpt lat="43.50426" lon="6.81108">
        <ele>502</ele>
        <time>2011-06-03T10:46:27Z</time>
      </trkpt>
      <trkpt lat="43.50425" lon="6.81103">
        <ele>502</ele>
        <time>2011-06-03T10:46:28Z</time>
      </trkpt>
      <trkpt lat="43.50424" lon="6.81099">
        <ele>501</ele>
        <time>2011-06-03T10:46:29Z</time>
      </trkpt>
      <trkpt lat="43.50423" lon="6.81095">
        <ele>498</ele>
        <time>2011-06-03T10:46:30Z</time>
      </trkpt>
      <trkpt lat="43.50422" lon="6.81093">
        <ele>493</ele>
        <time>2011-06-03T10:46:31Z</time>
      </trkpt>
      <trkpt lat="43.50421" lon="6.81089">
        <ele>491</ele>
        <time>2011-06-03T10:46:32Z</time>
      </trkpt>
      <trkpt lat="43.5042" lon="6.81085">
        <ele>492</ele>
        <time>2011-06-03T10:46:33Z</time>
      </trkpt>
      <trkpt lat="43.5042" lon="6.81081">
        <ele>491</ele>
        <time>2011-06-03T10:46:34Z</time>
      </trkpt>
      <trkpt lat="43.50419" lon="6.81077">
        <ele>492</ele>
        <time>2011-06-03T10:46:35Z</time>
      </trkpt>
      <trkpt lat="43.50419" lon="6.81072">
        <ele>492</ele>
        <time>2011-06-03T10:46:36Z</time>
      </trkpt>
      <trkpt lat="43.50418" lon="6.81068">
        <ele>492</ele>
        <time>2011-06-03T10:46:37Z</time>
      </trkpt>
      <trkpt lat="43.50417" lon="6.81064">
        <ele>491</ele>
        <time>2011-06-03T10:46:38Z</time>
      </trkpt>
      <trkpt lat="43.50416" lon="6.8106">
        <ele>491</ele>
        <time>2011-06-03T10:46:40Z</time>
      </trkpt>
      <trkpt lat="43.50416" lon="6.8106">
        <ele>491</ele>
        <time>2011-06-03T10:46:40Z</time>
      </trkpt>
      <trkpt lat="43.50415" lon="6.81053">
        <ele>491</ele>
        <time>2011-06-03T10:46:41Z</time>
      </trkpt>
      <trkpt lat="43.50413" lon="6.81048">
        <ele>490</ele>
        <time>2011-06-03T10:46:42Z</time>
      </trkpt>
      <trkpt lat="43.50412" lon="6.81043">
        <ele>489</ele>
        <time>2011-06-03T10:46:43Z</time>
      </trkpt>
      <trkpt lat="43.50411" lon="6.8104">
        <ele>489</ele>
        <time>2011-06-03T10:46:44Z</time>
      </trkpt>
      <trkpt lat="43.50409" lon="6.81037">
        <ele>488</ele>
        <time>2011-06-03T10:46:45Z</time>
      </trkpt>
      <trkpt lat="43.50408" lon="6.81033">
        <ele>488</ele>
        <time>2011-06-03T10:46:46Z</time>
      </trkpt>
      <trkpt lat="43.50407" lon="6.81027">
        <ele>488</ele>
        <time>2011-06-03T10:46:47Z</time>
      </trkpt>
      <trkpt lat="43.50407" lon="6.81023">
        <ele>488</ele>
        <time>2011-06-03T10:46:48Z</time>
      </trkpt>
      <trkpt lat="43.50406" lon="6.8102">
        <ele>488</ele>
        <time>2011-06-03T10:46:49Z</time>
      </trkpt>
      <trkpt lat="43.50404" lon="6.81018">
        <ele>487</ele>
        <time>2011-06-03T10:46:50Z</time>
      </trkpt>
      <trkpt lat="43.50401" lon="6.81016">
        <ele>487</ele>
        <time>2011-06-03T10:46:51Z</time>
      </trkpt>
      <trkpt lat="43.504" lon="6.81012">
        <ele>487</ele>
        <time>2011-06-03T10:46:52Z</time>
      </trkpt>
      <trkpt lat="43.50399" lon="6.81011">
        <ele>487</ele>
        <time>2011-06-03T10:46:53Z</time>
      </trkpt>
      <trkpt lat="43.50397" lon="6.81008">
        <ele>487</ele>
        <time>2011-06-03T10:46:54Z</time>
      </trkpt>
      <trkpt lat="43.50395" lon="6.81004">
        <ele>487</ele>
        <time>2011-06-03T10:46:55Z</time>
      </trkpt>
      <trkpt lat="43.50392" lon="6.81001">
        <ele>485</ele>
        <time>2011-06-03T10:46:56Z</time>
      </trkpt>
      <trkpt lat="43.5039" lon="6.80998">
        <ele>484</ele>
        <time>2011-06-03T10:46:57Z</time>
      </trkpt>
      <trkpt lat="43.50388" lon="6.80996">
        <ele>483</ele>
        <time>2011-06-03T10:46:58Z</time>
      </trkpt>
      <trkpt lat="43.50386" lon="6.80994">
        <ele>483</ele>
        <time>2011-06-03T10:46:59Z</time>
      </trkpt>
      <trkpt lat="43.50383" lon="6.8099">
        <ele>483</ele>
        <time>2011-06-03T10:47:00Z</time>
      </trkpt>
      <trkpt lat="43.5038" lon="6.80987">
        <ele>484</ele>
        <time>2011-06-03T10:47:02Z</time>
      </trkpt>
      <trkpt lat="43.5038" lon="6.80987">
        <ele>484</ele>
        <time>2011-06-03T10:47:02Z</time>
      </trkpt>
      <trkpt lat="43.50377" lon="6.80985">
        <ele>484</ele>
        <time>2011-06-03T10:47:03Z</time>
      </trkpt>
      <trkpt lat="43.50372" lon="6.8098">
        <ele>484</ele>
        <time>2011-06-03T10:47:04Z</time>
      </trkpt>
      <trkpt lat="43.50369" lon="6.80978">
        <ele>484</ele>
        <time>2011-06-03T10:47:05Z</time>
      </trkpt>
      <trkpt lat="43.50367" lon="6.80976">
        <ele>484</ele>
        <time>2011-06-03T10:47:06Z</time>
      </trkpt>
      <trkpt lat="43.50364" lon="6.80975">
        <ele>483</ele>
        <time>2011-06-03T10:47:07Z</time>
      </trkpt>
      <trkpt lat="43.50361" lon="6.80973">
        <ele>483</ele>
        <time>2011-06-03T10:47:08Z</time>
      </trkpt>
      <trkpt lat="43.50358" lon="6.80972">
        <ele>483</ele>
        <time>2011-06-03T10:47:09Z</time>
      </trkpt>
      <trkpt lat="43.50355" lon="6.8097">
        <ele>483</ele>
        <time>2011-06-03T10:47:10Z</time>
      </trkpt>
      <trkpt lat="43.50352" lon="6.80969">
        <ele>482</ele>
        <time>2011-06-03T10:47:11Z</time>
      </trkpt>
      <trkpt lat="43.50349" lon="6.80968">
        <ele>482</ele>
        <time>2011-06-03T10:47:12Z</time>
      </trkpt>
      <trkpt lat="43.50346" lon="6.80966">
        <ele>482</ele>
        <time>2011-06-03T10:47:13Z</time>
      </trkpt>
      <trkpt lat="43.50343" lon="6.80965">
        <ele>482</ele>
        <time>2011-06-03T10:47:14Z</time>
      </trkpt>
      <trkpt lat="43.5034" lon="6.80964">
        <ele>482</ele>
        <time>2011-06-03T10:47:15Z</time>
      </trkpt>
      <trkpt lat="43.50337" lon="6.80963">
        <ele>481</ele>
        <time>2011-06-03T10:47:16Z</time>
      </trkpt>
      <trkpt lat="43.50334" lon="6.80963">
        <ele>481</ele>
        <time>2011-06-03T10:47:17Z</time>
      </trkpt>
      <trkpt lat="43.50332" lon="6.80961">
        <ele>481</ele>
        <time>2011-06-03T10:47:18Z</time>
      </trkpt>
      <trkpt lat="43.50328" lon="6.8096">
        <ele>481</ele>
        <time>2011-06-03T10:47:19Z</time>
      </trkpt>
      <trkpt lat="43.50326" lon="6.80959">
        <ele>480</ele>
        <time>2011-06-03T10:47:20Z</time>
      </trkpt>
      <trkpt lat="43.50324" lon="6.8096">
        <ele>480</ele>
        <time>2011-06-03T10:47:21Z</time>
      </trkpt>
      <trkpt lat="43.50321" lon="6.80959">
        <ele>480</ele>
        <time>2011-06-03T10:47:22Z</time>
      </trkpt>
      <trkpt lat="43.50316" lon="6.80959">
        <ele>480</ele>
        <time>2011-06-03T10:47:23Z</time>
      </trkpt>
      <trkpt lat="43.50313" lon="6.80959">
        <ele>480</ele>
        <time>2011-06-03T10:47:25Z</time>
      </trkpt>
      <trkpt lat="43.50313" lon="6.80959">
        <ele>479.99554443359</ele>
        <time>2011-06-03T10:47:25Z</time>
      </trkpt>
      <trkpt lat="43.50308" lon="6.80958">
        <ele>479.36087036133</ele>
        <time>2011-06-03T10:47:26Z</time>
      </trkpt>
      <trkpt lat="43.50303" lon="6.80958">
        <ele>478</ele>
        <time>2011-06-03T10:47:27Z</time>
      </trkpt>
      <trkpt lat="43.503" lon="6.80958">
        <ele>478</ele>
        <time>2011-06-03T10:47:28Z</time>
      </trkpt>
      <trkpt lat="43.50297" lon="6.80958">
        <ele>477</ele>
        <time>2011-06-03T10:47:29Z</time>
      </trkpt>
      <trkpt lat="43.50294" lon="6.80958">
        <ele>477</ele>
        <time>2011-06-03T10:47:30Z</time>
      </trkpt>
      <trkpt lat="43.5029" lon="6.80959">
        <ele>477</ele>
        <time>2011-06-03T10:47:31Z</time>
      </trkpt>
      <trkpt lat="43.50287" lon="6.80959">
        <ele>476</ele>
        <time>2011-06-03T10:47:32Z</time>
      </trkpt>
      <trkpt lat="43.50284" lon="6.80959">
        <ele>476</ele>
        <time>2011-06-03T10:47:33Z</time>
      </trkpt>
      <trkpt lat="43.50281" lon="6.80959">
        <ele>476</ele>
        <time>2011-06-03T10:47:34Z</time>
      </trkpt>
      <trkpt lat="43.50279" lon="6.8096">
        <ele>475</ele>
        <time>2011-06-03T10:47:35Z</time>
      </trkpt>
      <trkpt lat="43.50276" lon="6.8096">
        <ele>475</ele>
        <time>2011-06-03T10:47:36Z</time>
      </trkpt>
      <trkpt lat="43.50273" lon="6.8096">
        <ele>475</ele>
        <time>2011-06-03T10:47:37Z</time>
      </trkpt>
      <trkpt lat="43.50269" lon="6.80961">
        <ele>475</ele>
        <time>2011-06-03T10:47:38Z</time>
      </trkpt>
      <trkpt lat="43.50266" lon="6.80961">
        <ele>474</ele>
        <time>2011-06-03T10:47:39Z</time>
      </trkpt>
      <trkpt lat="43.50262" lon="6.80961">
        <ele>474</ele>
        <time>2011-06-03T10:47:40Z</time>
      </trkpt>
      <trkpt lat="43.50259" lon="6.80962">
        <ele>473</ele>
        <time>2011-06-03T10:47:41Z</time>
      </trkpt>
      <trkpt lat="43.50255" lon="6.80963">
        <ele>473</ele>
        <time>2011-06-03T10:47:42Z</time>
      </trkpt>
      <trkpt lat="43.50252" lon="6.80963">
        <ele>473</ele>
        <time>2011-06-03T10:47:43Z</time>
      </trkpt>
      <trkpt lat="43.50249" lon="6.80964">
        <ele>472</ele>
        <time>2011-06-03T10:47:44Z</time>
      </trkpt>
      <trkpt lat="43.50246" lon="6.80965">
        <ele>472</ele>
        <time>2011-06-03T10:47:45Z</time>
      </trkpt>
      <trkpt lat="43.50244" lon="6.80966">
        <ele>472</ele>
        <time>2011-06-03T10:47:46Z</time>
      </trkpt>
      <trkpt lat="43.50241" lon="6.80968">
        <ele>471</ele>
        <time>2011-06-03T10:47:48Z</time>
      </trkpt>
      <trkpt lat="43.50241" lon="6.80968">
        <ele>471</ele>
        <time>2011-06-03T10:47:48Z</time>
      </trkpt>
      <trkpt lat="43.50238" lon="6.80969">
        <ele>471.4895324707</ele>
        <time>2011-06-03T10:47:49Z</time>
      </trkpt>
      <trkpt lat="43.50231" lon="6.80971">
        <ele>472.99407958984</ele>
        <time>2011-06-03T10:47:50Z</time>
      </trkpt>
      <trkpt lat="43.50228" lon="6.80973">
        <ele>472</ele>
        <time>2011-06-03T10:47:51Z</time>
      </trkpt>
      <trkpt lat="43.50224" lon="6.80973">
        <ele>472</ele>
        <time>2011-06-03T10:47:52Z</time>
      </trkpt>
      <trkpt lat="43.50221" lon="6.80974">
        <ele>471</ele>
        <time>2011-06-03T10:47:53Z</time>
      </trkpt>
      <trkpt lat="43.50218" lon="6.80975">
        <ele>471</ele>
        <time>2011-06-03T10:47:54Z</time>
      </trkpt>
      <trkpt lat="43.50215" lon="6.80976">
        <ele>471</ele>
        <time>2011-06-03T10:47:55Z</time>
      </trkpt>
      <trkpt lat="43.50212" lon="6.80976">
        <ele>471</ele>
        <time>2011-06-03T10:47:56Z</time>
      </trkpt>
      <trkpt lat="43.50209" lon="6.80977">
        <ele>471</ele>
        <time>2011-06-03T10:47:57Z</time>
      </trkpt>
      <trkpt lat="43.50207" lon="6.80979">
        <ele>471</ele>
        <time>2011-06-03T10:47:58Z</time>
      </trkpt>
      <trkpt lat="43.50204" lon="6.80981">
        <ele>471</ele>
        <time>2011-06-03T10:47:59Z</time>
      </trkpt>
      <trkpt lat="43.50201" lon="6.80981">
        <ele>471</ele>
        <time>2011-06-03T10:48:00Z</time>
      </trkpt>
      <trkpt lat="43.50198" lon="6.80981">
        <ele>471</ele>
        <time>2011-06-03T10:48:01Z</time>
      </trkpt>
      <trkpt lat="43.50195" lon="6.80982">
        <ele>471</ele>
        <time>2011-06-03T10:48:02Z</time>
      </trkpt>
      <trkpt lat="43.50192" lon="6.80983">
        <ele>470</ele>
        <time>2011-06-03T10:48:03Z</time>
      </trkpt>
      <trkpt lat="43.5019" lon="6.80984">
        <ele>470</ele>
        <time>2011-06-03T10:48:04Z</time>
      </trkpt>
      <trkpt lat="43.50186" lon="6.80985">
        <ele>469</ele>
        <time>2011-06-03T10:48:05Z</time>
      </trkpt>
      <trkpt lat="43.50183" lon="6.80986">
        <ele>468</ele>
        <time>2011-06-03T10:48:06Z</time>
      </trkpt>
      <trkpt lat="43.5018" lon="6.80988">
        <ele>468</ele>
        <time>2011-06-03T10:48:07Z</time>
      </trkpt>
      <trkpt lat="43.50177" lon="6.80988">
        <ele>467</ele>
        <time>2011-06-03T10:48:08Z</time>
      </trkpt>
      <trkpt lat="43.50173" lon="6.80988">
        <ele>466</ele>
        <time>2011-06-03T10:48:09Z</time>
      </trkpt>
      <trkpt lat="43.5017" lon="6.80988">
        <ele>465</ele>
        <time>2011-06-03T10:48:11Z</time>
      </trkpt>
      <trkpt lat="43.5017" lon="6.80988">
        <ele>465</ele>
        <time>2011-06-03T10:48:11Z</time>
      </trkpt>
      <trkpt lat="43.50167" lon="6.80989">
        <ele>465</ele>
        <time>2011-06-03T10:48:12Z</time>
      </trkpt>
      <trkpt lat="43.50162" lon="6.8099">
        <ele>465</ele>
        <time>2011-06-03T10:48:13Z</time>
      </trkpt>
      <trkpt lat="43.50159" lon="6.80991">
        <ele>465</ele>
        <time>2011-06-03T10:48:14Z</time>
      </trkpt>
      <trkpt lat="43.50157" lon="6.80991">
        <ele>465</ele>
        <time>2011-06-03T10:48:15Z</time>
      </trkpt>
      <trkpt lat="43.50154" lon="6.80992">
        <ele>465</ele>
        <time>2011-06-03T10:48:16Z</time>
      </trkpt>
      <trkpt lat="43.5015" lon="6.80993">
        <ele>465</ele>
        <time>2011-06-03T10:48:17Z</time>
      </trkpt>
      <trkpt lat="43.50146" lon="6.80994">
        <ele>465</ele>
        <time>2011-06-03T10:48:18Z</time>
      </trkpt>
      <trkpt lat="43.50143" lon="6.80995">
        <ele>465</ele>
        <time>2011-06-03T10:48:19Z</time>
      </trkpt>
      <trkpt lat="43.50141" lon="6.80997">
        <ele>464</ele>
        <time>2011-06-03T10:48:20Z</time>
      </trkpt>
      <trkpt lat="43.50138" lon="6.80998">
        <ele>464</ele>
        <time>2011-06-03T10:48:21Z</time>
      </trkpt>
      <trkpt lat="43.50134" lon="6.80999">
        <ele>463</ele>
        <time>2011-06-03T10:48:22Z</time>
      </trkpt>
      <trkpt lat="43.50132" lon="6.81">
        <ele>462</ele>
        <time>2011-06-03T10:48:23Z</time>
      </trkpt>
      <trkpt lat="43.50127" lon="6.81001">
        <ele>462</ele>
        <time>2011-06-03T10:48:24Z</time>
      </trkpt>
      <trkpt lat="43.50124" lon="6.81002">
        <ele>461</ele>
        <time>2011-06-03T10:48:25Z</time>
      </trkpt>
      <trkpt lat="43.50121" lon="6.81002">
        <ele>461</ele>
        <time>2011-06-03T10:48:26Z</time>
      </trkpt>
      <trkpt lat="43.50119" lon="6.81004">
        <ele>462</ele>
        <time>2011-06-03T10:48:27Z</time>
      </trkpt>
      <trkpt lat="43.50116" lon="6.81006">
        <ele>462</ele>
        <time>2011-06-03T10:48:28Z</time>
      </trkpt>
      <trkpt lat="43.50113" lon="6.81007">
        <ele>462</ele>
        <time>2011-06-03T10:48:29Z</time>
      </trkpt>
      <trkpt lat="43.5011" lon="6.81008">
        <ele>462</ele>
        <time>2011-06-03T10:48:30Z</time>
      </trkpt>
      <trkpt lat="43.50107" lon="6.8101">
        <ele>462</ele>
        <time>2011-06-03T10:48:31Z</time>
      </trkpt>
      <trkpt lat="43.50105" lon="6.81011">
        <ele>461</ele>
        <time>2011-06-03T10:48:32Z</time>
      </trkpt>
      <trkpt lat="43.50103" lon="6.81014">
        <ele>461</ele>
        <time>2011-06-03T10:48:34Z</time>
      </trkpt>
      <trkpt lat="43.50103" lon="6.81014">
        <ele>460.86157226562</ele>
        <time>2011-06-03T10:48:34Z</time>
      </trkpt>
      <trkpt lat="43.50098" lon="6.81017">
        <ele>460.0866394043</ele>
        <time>2011-06-03T10:48:35Z</time>
      </trkpt>
      <trkpt lat="43.50095" lon="6.81019">
        <ele>459</ele>
        <time>2011-06-03T10:48:36Z</time>
      </trkpt>
      <trkpt lat="43.50092" lon="6.8102">
        <ele>459</ele>
        <time>2011-06-03T10:48:37Z</time>
      </trkpt>
      <trkpt lat="43.50089" lon="6.8102">
        <ele>459</ele>
        <time>2011-06-03T10:48:38Z</time>
      </trkpt>
      <trkpt lat="43.50085" lon="6.8102">
        <ele>459</ele>
        <time>2011-06-03T10:48:39Z</time>
      </trkpt>
      <trkpt lat="43.50083" lon="6.81023">
        <ele>458</ele>
        <time>2011-06-03T10:48:40Z</time>
      </trkpt>
      <trkpt lat="43.5008" lon="6.81025">
        <ele>458</ele>
        <time>2011-06-03T10:48:41Z</time>
      </trkpt>
      <trkpt lat="43.50076" lon="6.81027">
        <ele>458</ele>
        <time>2011-06-03T10:48:42Z</time>
      </trkpt>
      <trkpt lat="43.50074" lon="6.81027">
        <ele>457</ele>
        <time>2011-06-03T10:48:43Z</time>
      </trkpt>
      <trkpt lat="43.50069" lon="6.81029">
        <ele>458</ele>
        <time>2011-06-03T10:48:44Z</time>
      </trkpt>
      <trkpt lat="43.50067" lon="6.8103">
        <ele>457</ele>
        <time>2011-06-03T10:48:45Z</time>
      </trkpt>
      <trkpt lat="43.50062" lon="6.8103">
        <ele>457</ele>
        <time>2011-06-03T10:48:46Z</time>
      </trkpt>
      <trkpt lat="43.5006" lon="6.81032">
        <ele>456</ele>
        <time>2011-06-03T10:48:47Z</time>
      </trkpt>
      <trkpt lat="43.50057" lon="6.81033">
        <ele>456</ele>
        <time>2011-06-03T10:48:48Z</time>
      </trkpt>
      <trkpt lat="43.50054" lon="6.81034">
        <ele>455</ele>
        <time>2011-06-03T10:48:49Z</time>
      </trkpt>
      <trkpt lat="43.50052" lon="6.81035">
        <ele>454</ele>
        <time>2011-06-03T10:48:50Z</time>
      </trkpt>
      <trkpt lat="43.50049" lon="6.81037">
        <ele>455</ele>
        <time>2011-06-03T10:48:51Z</time>
      </trkpt>
      <trkpt lat="43.50046" lon="6.81038">
        <ele>454</ele>
        <time>2011-06-03T10:48:52Z</time>
      </trkpt>
      <trkpt lat="43.50043" lon="6.81039">
        <ele>454</ele>
        <time>2011-06-03T10:48:53Z</time>
      </trkpt>
      <trkpt lat="43.50039" lon="6.81039">
        <ele>454</ele>
        <time>2011-06-03T10:48:54Z</time>
      </trkpt>
      <trkpt lat="43.50037" lon="6.81039">
        <ele>454</ele>
        <time>2011-06-03T10:48:56Z</time>
      </trkpt>
      <trkpt lat="43.50037" lon="6.81039">
        <ele>454</ele>
        <time>2011-06-03T10:48:56Z</time>
      </trkpt>
      <trkpt lat="43.50033" lon="6.81039">
        <ele>453.42343139648</ele>
        <time>2011-06-03T10:48:57Z</time>
      </trkpt>
      <trkpt lat="43.50028" lon="6.81039">
        <ele>453</ele>
        <time>2011-06-03T10:48:58Z</time>
      </trkpt>
      <trkpt lat="43.50024" lon="6.81039">
        <ele>452</ele>
        <time>2011-06-03T10:48:59Z</time>
      </trkpt>
      <trkpt lat="43.5002" lon="6.81038">
        <ele>452</ele>
        <time>2011-06-03T10:49:00Z</time>
      </trkpt>
      <trkpt lat="43.50017" lon="6.81037">
        <ele>451</ele>
        <time>2011-06-03T10:49:01Z</time>
      </trkpt>
      <trkpt lat="43.50013" lon="6.81037">
        <ele>451</ele>
        <time>2011-06-03T10:49:02Z</time>
      </trkpt>
      <trkpt lat="43.50009" lon="6.81036">
        <ele>451</ele>
        <time>2011-06-03T10:49:03Z</time>
      </trkpt>
      <trkpt lat="43.50006" lon="6.81035">
        <ele>451</ele>
        <time>2011-06-03T10:49:04Z</time>
      </trkpt>
      <trkpt lat="43.50002" lon="6.81035">
        <ele>450</ele>
        <time>2011-06-03T10:49:05Z</time>
      </trkpt>
      <trkpt lat="43.49999" lon="6.81032">
        <ele>450</ele>
        <time>2011-06-03T10:49:06Z</time>
      </trkpt>
      <trkpt lat="43.49996" lon="6.81031">
        <ele>448</ele>
        <time>2011-06-03T10:49:07Z</time>
      </trkpt>
      <trkpt lat="43.49994" lon="6.81028">
        <ele>447</ele>
        <time>2011-06-03T10:49:08Z</time>
      </trkpt>
      <trkpt lat="43.4999" lon="6.81028">
        <ele>446</ele>
        <time>2011-06-03T10:49:09Z</time>
      </trkpt>
      <trkpt lat="43.49987" lon="6.81026">
        <ele>446</ele>
        <time>2011-06-03T10:49:10Z</time>
      </trkpt>
      <trkpt lat="43.49984" lon="6.81025">
        <ele>446</ele>
        <time>2011-06-03T10:49:11Z</time>
      </trkpt>
      <trkpt lat="43.49981" lon="6.81023">
        <ele>446</ele>
        <time>2011-06-03T10:49:12Z</time>
      </trkpt>
      <trkpt lat="43.49979" lon="6.81021">
        <ele>446</ele>
        <time>2011-06-03T10:49:13Z</time>
      </trkpt>
      <trkpt lat="43.49977" lon="6.8102">
        <ele>445</ele>
        <time>2011-06-03T10:49:14Z</time>
      </trkpt>
      <trkpt lat="43.49973" lon="6.81019">
        <ele>446</ele>
        <time>2011-06-03T10:49:15Z</time>
      </trkpt>
      <trkpt lat="43.49969" lon="6.81017">
        <ele>445</ele>
        <time>2011-06-03T10:49:16Z</time>
      </trkpt>
      <trkpt lat="43.49966" lon="6.81013">
        <ele>444</ele>
        <time>2011-06-03T10:49:18Z</time>
      </trkpt>
      <trkpt lat="43.49966" lon="6.81013">
        <ele>444</ele>
        <time>2011-06-03T10:49:18Z</time>
      </trkpt>
      <trkpt lat="43.49964" lon="6.81011">
        <ele>444</ele>
        <time>2011-06-03T10:49:19Z</time>
      </trkpt>
      <trkpt lat="43.49959" lon="6.81007">
        <ele>443</ele>
        <time>2011-06-03T10:49:20Z</time>
      </trkpt>
      <trkpt lat="43.49956" lon="6.81005">
        <ele>443</ele>
        <time>2011-06-03T10:49:21Z</time>
      </trkpt>
      <trkpt lat="43.49953" lon="6.81004">
        <ele>443</ele>
        <time>2011-06-03T10:49:22Z</time>
      </trkpt>
      <trkpt lat="43.4995" lon="6.81001">
        <ele>442</ele>
        <time>2011-06-03T10:49:23Z</time>
      </trkpt>
      <trkpt lat="43.49947" lon="6.80998">
        <ele>442</ele>
        <time>2011-06-03T10:49:24Z</time>
      </trkpt>
      <trkpt lat="43.49944" lon="6.80996">
        <ele>441</ele>
        <time>2011-06-03T10:49:25Z</time>
      </trkpt>
      <trkpt lat="43.49942" lon="6.80995">
        <ele>440</ele>
        <time>2011-06-03T10:49:26Z</time>
      </trkpt>
      <trkpt lat="43.49939" lon="6.80991">
        <ele>440</ele>
        <time>2011-06-03T10:49:27Z</time>
      </trkpt>
      <trkpt lat="43.49936" lon="6.8099">
        <ele>440</ele>
        <time>2011-06-03T10:49:28Z</time>
      </trkpt>
      <trkpt lat="43.49934" lon="6.80988">
        <ele>440</ele>
        <time>2011-06-03T10:49:29Z</time>
      </trkpt>
      <trkpt lat="43.49931" lon="6.80987">
        <ele>440</ele>
        <time>2011-06-03T10:49:30Z</time>
      </trkpt>
      <trkpt lat="43.49929" lon="6.80984">
        <ele>439</ele>
        <time>2011-06-03T10:49:31Z</time>
      </trkpt>
      <trkpt lat="43.49927" lon="6.80981">
        <ele>439</ele>
        <time>2011-06-03T10:49:32Z</time>
      </trkpt>
      <trkpt lat="43.49925" lon="6.80977">
        <ele>440</ele>
        <time>2011-06-03T10:49:33Z</time>
      </trkpt>
      <trkpt lat="43.49924" lon="6.80972">
        <ele>439</ele>
        <time>2011-06-03T10:49:34Z</time>
      </trkpt>
      <trkpt lat="43.49923" lon="6.80967">
        <ele>439</ele>
        <time>2011-06-03T10:49:35Z</time>
      </trkpt>
      <trkpt lat="43.49922" lon="6.80961">
        <ele>438</ele>
        <time>2011-06-03T10:49:36Z</time>
      </trkpt>
      <trkpt lat="43.49922" lon="6.80957">
        <ele>438</ele>
        <time>2011-06-03T10:49:37Z</time>
      </trkpt>
      <trkpt lat="43.49921" lon="6.80951">
        <ele>437</ele>
        <time>2011-06-03T10:49:38Z</time>
      </trkpt>
      <trkpt lat="43.49921" lon="6.80947">
        <ele>438</ele>
        <time>2011-06-03T10:49:39Z</time>
      </trkpt>
      <trkpt lat="43.4992" lon="6.80943">
        <ele>438</ele>
        <time>2011-06-03T10:49:41Z</time>
      </trkpt>
      <trkpt lat="43.4992" lon="6.80943">
        <ele>438</ele>
        <time>2011-06-03T10:49:41Z</time>
      </trkpt>
      <trkpt lat="43.49919" lon="6.8094">
        <ele>438</ele>
        <time>2011-06-03T10:49:42Z</time>
      </trkpt>
      <trkpt lat="43.49918" lon="6.80932">
        <ele>438</ele>
        <time>2011-06-03T10:49:43Z</time>
      </trkpt>
      <trkpt lat="43.49918" lon="6.80928">
        <ele>438</ele>
        <time>2011-06-03T10:49:44Z</time>
      </trkpt>
      <trkpt lat="43.49917" lon="6.80925">
        <ele>438</ele>
        <time>2011-06-03T10:49:45Z</time>
      </trkpt>
      <trkpt lat="43.49916" lon="6.80922">
        <ele>438</ele>
        <time>2011-06-03T10:49:46Z</time>
      </trkpt>
      <trkpt lat="43.49915" lon="6.80917">
        <ele>437</ele>
        <time>2011-06-03T10:49:47Z</time>
      </trkpt>
      <trkpt lat="43.49915" lon="6.80915">
        <ele>437</ele>
        <time>2011-06-03T10:49:48Z</time>
      </trkpt>
      <trkpt lat="43.49914" lon="6.80913">
        <ele>437</ele>
        <time>2011-06-03T10:49:49Z</time>
      </trkpt>
      <trkpt lat="43.49913" lon="6.80909">
        <ele>437</ele>
        <time>2011-06-03T10:49:50Z</time>
      </trkpt>
      <trkpt lat="43.49912" lon="6.80906">
        <ele>437</ele>
        <time>2011-06-03T10:49:51Z</time>
      </trkpt>
      <trkpt lat="43.49908" lon="6.80902">
        <ele>438</ele>
        <time>2011-06-03T10:49:52Z</time>
      </trkpt>
      <trkpt lat="43.49906" lon="6.80899">
        <ele>438</ele>
        <time>2011-06-03T10:49:53Z</time>
      </trkpt>
      <trkpt lat="43.49905" lon="6.80895">
        <ele>438</ele>
        <time>2011-06-03T10:49:54Z</time>
      </trkpt>
      <trkpt lat="43.49904" lon="6.80893">
        <ele>437</ele>
        <time>2011-06-03T10:49:55Z</time>
      </trkpt>
      <trkpt lat="43.49902" lon="6.80889">
        <ele>437</ele>
        <time>2011-06-03T10:49:56Z</time>
      </trkpt>
      <trkpt lat="43.49901" lon="6.80886">
        <ele>436</ele>
        <time>2011-06-03T10:49:57Z</time>
      </trkpt>
      <trkpt lat="43.49899" lon="6.80883">
        <ele>437</ele>
        <time>2011-06-03T10:49:58Z</time>
      </trkpt>
      <trkpt lat="43.49898" lon="6.8088">
        <ele>436</ele>
        <time>2011-06-03T10:49:59Z</time>
      </trkpt>
      <trkpt lat="43.49896" lon="6.80878">
        <ele>436</ele>
        <time>2011-06-03T10:50:00Z</time>
      </trkpt>
      <trkpt lat="43.49894" lon="6.80876">
        <ele>436</ele>
        <time>2011-06-03T10:50:01Z</time>
      </trkpt>
      <trkpt lat="43.49892" lon="6.80871">
        <ele>436</ele>
        <time>2011-06-03T10:50:02Z</time>
      </trkpt>
      <trkpt lat="43.4989" lon="6.80867">
        <ele>435</ele>
        <time>2011-06-03T10:50:04Z</time>
      </trkpt>
      <trkpt lat="43.4989" lon="6.80867">
        <ele>435</ele>
        <time>2011-06-03T10:50:04Z</time>
      </trkpt>
      <trkpt lat="43.49889" lon="6.80864">
        <ele>435</ele>
        <time>2011-06-03T10:50:05Z</time>
      </trkpt>
      <trkpt lat="43.49885" lon="6.80856">
        <ele>435</ele>
        <time>2011-06-03T10:50:06Z</time>
      </trkpt>
      <trkpt lat="43.49883" lon="6.80853">
        <ele>435</ele>
        <time>2011-06-03T10:50:07Z</time>
      </trkpt>
      <trkpt lat="43.49882" lon="6.80849">
        <ele>434</ele>
        <time>2011-06-03T10:50:08Z</time>
      </trkpt>
      <trkpt lat="43.49881" lon="6.80845">
        <ele>434</ele>
        <time>2011-06-03T10:50:09Z</time>
      </trkpt>
      <trkpt lat="43.49879" lon="6.80842">
        <ele>433</ele>
        <time>2011-06-03T10:50:10Z</time>
      </trkpt>
      <trkpt lat="43.49876" lon="6.8084">
        <ele>433</ele>
        <time>2011-06-03T10:50:11Z</time>
      </trkpt>
      <trkpt lat="43.49874" lon="6.80836">
        <ele>432</ele>
        <time>2011-06-03T10:50:12Z</time>
      </trkpt>
      <trkpt lat="43.49871" lon="6.80833">
        <ele>432</ele>
        <time>2011-06-03T10:50:13Z</time>
      </trkpt>
      <trkpt lat="43.4987" lon="6.80831">
        <ele>432</ele>
        <time>2011-06-03T10:50:14Z</time>
      </trkpt>
      <trkpt lat="43.49869" lon="6.80828">
        <ele>432</ele>
        <time>2011-06-03T10:50:15Z</time>
      </trkpt>
      <trkpt lat="43.49865" lon="6.80825">
        <ele>432</ele>
        <time>2011-06-03T10:50:16Z</time>
      </trkpt>
      <trkpt lat="43.49863" lon="6.80821">
        <ele>431</ele>
        <time>2011-06-03T10:50:17Z</time>
      </trkpt>
      <trkpt lat="43.49861" lon="6.8082">
        <ele>431</ele>
        <time>2011-06-03T10:50:18Z</time>
      </trkpt>
      <trkpt lat="43.4986" lon="6.80818">
        <ele>431</ele>
        <time>2011-06-03T10:50:19Z</time>
      </trkpt>
      <trkpt lat="43.49857" lon="6.80814">
        <ele>431</ele>
        <time>2011-06-03T10:50:20Z</time>
      </trkpt>
      <trkpt lat="43.49856" lon="6.80812">
        <ele>430</ele>
        <time>2011-06-03T10:50:21Z</time>
      </trkpt>
      <trkpt lat="43.49855" lon="6.80808">
        <ele>430</ele>
        <time>2011-06-03T10:50:22Z</time>
      </trkpt>
      <trkpt lat="43.49854" lon="6.80805">
        <ele>430</ele>
        <time>2011-06-03T10:50:23Z</time>
      </trkpt>
      <trkpt lat="43.49852" lon="6.80803">
        <ele>429</ele>
        <time>2011-06-03T10:50:24Z</time>
      </trkpt>
      <trkpt lat="43.49851" lon="6.80799">
        <ele>430</ele>
        <time>2011-06-03T10:50:25Z</time>
      </trkpt>
      <trkpt lat="43.4985" lon="6.80795">
        <ele>430</ele>
        <time>2011-06-03T10:50:27Z</time>
      </trkpt>
      <trkpt lat="43.4985" lon="6.80795">
        <ele>430</ele>
        <time>2011-06-03T10:50:27Z</time>
      </trkpt>
      <trkpt lat="43.49849" lon="6.80793">
        <ele>430</ele>
        <time>2011-06-03T10:50:28Z</time>
      </trkpt>
      <trkpt lat="43.49846" lon="6.80785">
        <ele>429</ele>
        <time>2011-06-03T10:50:29Z</time>
      </trkpt>
      <trkpt lat="43.49844" lon="6.80782">
        <ele>428</ele>
        <time>2011-06-03T10:50:30Z</time>
      </trkpt>
      <trkpt lat="43.49842" lon="6.80778">
        <ele>428</ele>
        <time>2011-06-03T10:50:31Z</time>
      </trkpt>
      <trkpt lat="43.49841" lon="6.80776">
        <ele>428</ele>
        <time>2011-06-03T10:50:32Z</time>
      </trkpt>
      <trkpt lat="43.4984" lon="6.80772">
        <ele>428</ele>
        <time>2011-06-03T10:50:33Z</time>
      </trkpt>
      <trkpt lat="43.4984" lon="6.80768">
        <ele>428</ele>
        <time>2011-06-03T10:50:34Z</time>
      </trkpt>
      <trkpt lat="43.49839" lon="6.80765">
        <ele>428</ele>
        <time>2011-06-03T10:50:35Z</time>
      </trkpt>
      <trkpt lat="43.49835" lon="6.80762">
        <ele>428</ele>
        <time>2011-06-03T10:50:36Z</time>
      </trkpt>
      <trkpt lat="43.49834" lon="6.8076">
        <ele>429</ele>
        <time>2011-06-03T10:50:37Z</time>
      </trkpt>
      <trkpt lat="43.49832" lon="6.80759">
        <ele>429</ele>
        <time>2011-06-03T10:50:38Z</time>
      </trkpt>
      <trkpt lat="43.4983" lon="6.80756">
        <ele>429</ele>
        <time>2011-06-03T10:50:39Z</time>
      </trkpt>
      <trkpt lat="43.49827" lon="6.80753">
        <ele>429</ele>
        <time>2011-06-03T10:50:40Z</time>
      </trkpt>
      <trkpt lat="43.49825" lon="6.8075">
        <ele>429</ele>
        <time>2011-06-03T10:50:41Z</time>
      </trkpt>
      <trkpt lat="43.49823" lon="6.80747">
        <ele>429</ele>
        <time>2011-06-03T10:50:42Z</time>
      </trkpt>
      <trkpt lat="43.49821" lon="6.80743">
        <ele>429</ele>
        <time>2011-06-03T10:50:43Z</time>
      </trkpt>
      <trkpt lat="43.49819" lon="6.80741">
        <ele>429</ele>
        <time>2011-06-03T10:50:44Z</time>
      </trkpt>
      <trkpt lat="43.49818" lon="6.80739">
        <ele>429</ele>
        <time>2011-06-03T10:50:45Z</time>
      </trkpt>
      <trkpt lat="43.49816" lon="6.80735">
        <ele>429</ele>
        <time>2011-06-03T10:50:46Z</time>
      </trkpt>
      <trkpt lat="43.49815" lon="6.80732">
        <ele>429</ele>
        <time>2011-06-03T10:50:47Z</time>
      </trkpt>
      <trkpt lat="43.49812" lon="6.80729">
        <ele>429</ele>
        <time>2011-06-03T10:50:48Z</time>
      </trkpt>
      <trkpt lat="43.49811" lon="6.80727">
        <ele>430</ele>
        <time>2011-06-03T10:50:50Z</time>
      </trkpt>
      <trkpt lat="43.4981" lon="6.80726">
        <ele>430</ele>
        <time>2011-06-03T10:50:50Z</time>
      </trkpt>
      <trkpt lat="43.49809" lon="6.80723">
        <ele>430.53515625</ele>
        <time>2011-06-03T10:50:51Z</time>
      </trkpt>
      <trkpt lat="43.49807" lon="6.80718">
        <ele>430</ele>
        <time>2011-06-03T10:50:52Z</time>
      </trkpt>
      <trkpt lat="43.49805" lon="6.80715">
        <ele>430</ele>
        <time>2011-06-03T10:50:53Z</time>
      </trkpt>
      <trkpt lat="43.49804" lon="6.80712">
        <ele>430</ele>
        <time>2011-06-03T10:50:54Z</time>
      </trkpt>
      <trkpt lat="43.49802" lon="6.80709">
        <ele>430</ele>
        <time>2011-06-03T10:50:55Z</time>
      </trkpt>
      <trkpt lat="43.498" lon="6.80709">
        <ele>430</ele>
        <time>2011-06-03T10:50:56Z</time>
      </trkpt>
      <trkpt lat="43.49797" lon="6.80705">
        <ele>428</ele>
        <time>2011-06-03T10:50:57Z</time>
      </trkpt>
      <trkpt lat="43.49796" lon="6.80703">
        <ele>427</ele>
        <time>2011-06-03T10:50:58Z</time>
      </trkpt>
      <trkpt lat="43.49794" lon="6.80699">
        <ele>427</ele>
        <time>2011-06-03T10:50:59Z</time>
      </trkpt>
      <trkpt lat="43.49793" lon="6.80697">
        <ele>427</ele>
        <time>2011-06-03T10:51:00Z</time>
      </trkpt>
      <trkpt lat="43.49791" lon="6.80694">
        <ele>427</ele>
        <time>2011-06-03T10:51:01Z</time>
      </trkpt>
      <trkpt lat="43.49789" lon="6.8069">
        <ele>427</ele>
        <time>2011-06-03T10:51:02Z</time>
      </trkpt>
      <trkpt lat="43.49788" lon="6.80688">
        <ele>427</ele>
        <time>2011-06-03T10:51:03Z</time>
      </trkpt>
      <trkpt lat="43.49786" lon="6.80685">
        <ele>428</ele>
        <time>2011-06-03T10:51:04Z</time>
      </trkpt>
      <trkpt lat="43.49784" lon="6.80681">
        <ele>428</ele>
        <time>2011-06-03T10:51:05Z</time>
      </trkpt>
      <trkpt lat="43.49783" lon="6.80677">
        <ele>427</ele>
        <time>2011-06-03T10:51:06Z</time>
      </trkpt>
      <trkpt lat="43.49782" lon="6.80673">
        <ele>427</ele>
        <time>2011-06-03T10:51:07Z</time>
      </trkpt>
      <trkpt lat="43.49781" lon="6.8067">
        <ele>427</ele>
        <time>2011-06-03T10:51:08Z</time>
      </trkpt>
      <trkpt lat="43.4978" lon="6.80666">
        <ele>427</ele>
        <time>2011-06-03T10:51:09Z</time>
      </trkpt>
      <trkpt lat="43.49779" lon="6.80662">
        <ele>427</ele>
        <time>2011-06-03T10:51:10Z</time>
      </trkpt>
      <trkpt lat="43.49778" lon="6.80659">
        <ele>427</ele>
        <time>2011-06-03T10:51:12Z</time>
      </trkpt>
      <trkpt lat="43.49778" lon="6.80659">
        <ele>426.94989013672</ele>
        <time>2011-06-03T10:51:12Z</time>
      </trkpt>
      <trkpt lat="43.49776" lon="6.80652">
        <ele>426.0924987793</ele>
        <time>2011-06-03T10:51:13Z</time>
      </trkpt>
      <trkpt lat="43.49775" lon="6.80647">
        <ele>426</ele>
        <time>2011-06-03T10:51:14Z</time>
      </trkpt>
      <trkpt lat="43.49774" lon="6.80642">
        <ele>426</ele>
        <time>2011-06-03T10:51:15Z</time>
      </trkpt>
      <trkpt lat="43.49775" lon="6.80637">
        <ele>425</ele>
        <time>2011-06-03T10:51:16Z</time>
      </trkpt>
      <trkpt lat="43.49775" lon="6.80634">
        <ele>426</ele>
        <time>2011-06-03T10:51:17Z</time>
      </trkpt>
      <trkpt lat="43.49774" lon="6.8063">
        <ele>426</ele>
        <time>2011-06-03T10:51:18Z</time>
      </trkpt>
      <trkpt lat="43.49774" lon="6.80627">
        <ele>426</ele>
        <time>2011-06-03T10:51:19Z</time>
      </trkpt>
      <trkpt lat="43.49774" lon="6.80624">
        <ele>427</ele>
        <time>2011-06-03T10:51:20Z</time>
      </trkpt>
      <trkpt lat="43.49773" lon="6.80621">
        <ele>427</ele>
        <time>2011-06-03T10:51:21Z</time>
      </trkpt>
      <trkpt lat="43.49774" lon="6.80618">
        <ele>426</ele>
        <time>2011-06-03T10:51:22Z</time>
      </trkpt>
      <trkpt lat="43.49774" lon="6.80614">
        <ele>426</ele>
        <time>2011-06-03T10:51:23Z</time>
      </trkpt>
      <trkpt lat="43.49773" lon="6.80611">
        <ele>427</ele>
        <time>2011-06-03T10:51:24Z</time>
      </trkpt>
      <trkpt lat="43.49772" lon="6.80607">
        <ele>427</ele>
        <time>2011-06-03T10:51:25Z</time>
      </trkpt>
      <trkpt lat="43.49771" lon="6.80604">
        <ele>427</ele>
        <time>2011-06-03T10:51:26Z</time>
      </trkpt>
      <trkpt lat="43.4977" lon="6.80601">
        <ele>427</ele>
        <time>2011-06-03T10:51:27Z</time>
      </trkpt>
      <trkpt lat="43.49769" lon="6.80598">
        <ele>427</ele>
        <time>2011-06-03T10:51:28Z</time>
      </trkpt>
      <trkpt lat="43.49768" lon="6.80595">
        <ele>427</ele>
        <time>2011-06-03T10:51:29Z</time>
      </trkpt>
      <trkpt lat="43.49766" lon="6.80591">
        <ele>428</ele>
        <time>2011-06-03T10:51:30Z</time>
      </trkpt>
      <trkpt lat="43.49764" lon="6.80589">
        <ele>428</ele>
        <time>2011-06-03T10:51:31Z</time>
      </trkpt>
      <trkpt lat="43.49762" lon="6.80585">
        <ele>428</ele>
        <time>2011-06-03T10:51:32Z</time>
      </trkpt>
      <trkpt lat="43.49761" lon="6.80582">
        <ele>428</ele>
        <time>2011-06-03T10:51:34Z</time>
      </trkpt>
      <trkpt lat="43.49761" lon="6.80582">
        <ele>428</ele>
        <time>2011-06-03T10:51:34Z</time>
      </trkpt>
      <trkpt lat="43.4976" lon="6.80578">
        <ele>428</ele>
        <time>2011-06-03T10:51:35Z</time>
      </trkpt>
      <trkpt lat="43.49757" lon="6.80574">
        <ele>428</ele>
        <time>2011-06-03T10:51:36Z</time>
      </trkpt>
      <trkpt lat="43.49756" lon="6.80571">
        <ele>429</ele>
        <time>2011-06-03T10:51:37Z</time>
      </trkpt>
      <trkpt lat="43.49753" lon="6.80568">
        <ele>428</ele>
        <time>2011-06-03T10:51:38Z</time>
      </trkpt>
      <trkpt lat="43.49752" lon="6.80564">
        <ele>427</ele>
        <time>2011-06-03T10:51:39Z</time>
      </trkpt>
      <trkpt lat="43.49751" lon="6.80561">
        <ele>427</ele>
        <time>2011-06-03T10:51:40Z</time>
      </trkpt>
      <trkpt lat="43.4975" lon="6.80557">
        <ele>427</ele>
        <time>2011-06-03T10:51:41Z</time>
      </trkpt>
      <trkpt lat="43.49747" lon="6.80555">
        <ele>426</ele>
        <time>2011-06-03T10:51:42Z</time>
      </trkpt>
      <trkpt lat="43.49746" lon="6.80552">
        <ele>426</ele>
        <time>2011-06-03T10:51:43Z</time>
      </trkpt>
      <trkpt lat="43.49744" lon="6.80549">
        <ele>425</ele>
        <time>2011-06-03T10:51:44Z</time>
      </trkpt>
      <trkpt lat="43.49741" lon="6.80547">
        <ele>424</ele>
        <time>2011-06-03T10:51:45Z</time>
      </trkpt>
      <trkpt lat="43.49739" lon="6.80545">
        <ele>422</ele>
        <time>2011-06-03T10:51:46Z</time>
      </trkpt>
      <trkpt lat="43.49738" lon="6.80543">
        <ele>421</ele>
        <time>2011-06-03T10:51:47Z</time>
      </trkpt>
      <trkpt lat="43.49736" lon="6.8054">
        <ele>421</ele>
        <time>2011-06-03T10:51:48Z</time>
      </trkpt>
      <trkpt lat="43.49735" lon="6.80536">
        <ele>421</ele>
        <time>2011-06-03T10:51:49Z</time>
      </trkpt>
      <trkpt lat="43.49735" lon="6.80533">
        <ele>420</ele>
        <time>2011-06-03T10:51:50Z</time>
      </trkpt>
      <trkpt lat="43.49734" lon="6.80529">
        <ele>420</ele>
        <time>2011-06-03T10:51:51Z</time>
      </trkpt>
      <trkpt lat="43.49734" lon="6.80525">
        <ele>421</ele>
        <time>2011-06-03T10:51:52Z</time>
      </trkpt>
      <trkpt lat="43.49733" lon="6.80521">
        <ele>421</ele>
        <time>2011-06-03T10:51:53Z</time>
      </trkpt>
      <trkpt lat="43.49732" lon="6.80518">
        <ele>422</ele>
        <time>2011-06-03T10:51:54Z</time>
      </trkpt>
      <trkpt lat="43.49732" lon="6.80513">
        <ele>422</ele>
        <time>2011-06-03T10:51:55Z</time>
      </trkpt>
      <trkpt lat="43.49731" lon="6.80509">
        <ele>422</ele>
        <time>2011-06-03T10:51:57Z</time>
      </trkpt>
      <trkpt lat="43.49731" lon="6.80509">
        <ele>421.99633789062</ele>
        <time>2011-06-03T10:51:57Z</time>
      </trkpt>
      <trkpt lat="43.4973" lon="6.80505">
        <ele>421.06524658203</ele>
        <time>2011-06-03T10:51:58Z</time>
      </trkpt>
      <trkpt lat="43.49728" lon="6.80497">
        <ele>421</ele>
        <time>2011-06-03T10:51:59Z</time>
      </trkpt>
      <trkpt lat="43.49727" lon="6.80493">
        <ele>420</ele>
        <time>2011-06-03T10:52:00Z</time>
      </trkpt>
      <trkpt lat="43.49726" lon="6.80489">
        <ele>420</ele>
        <time>2011-06-03T10:52:01Z</time>
      </trkpt>
      <trkpt lat="43.49725" lon="6.80486">
        <ele>420</ele>
        <time>2011-06-03T10:52:02Z</time>
      </trkpt>
      <trkpt lat="43.49724" lon="6.80483">
        <ele>420</ele>
        <time>2011-06-03T10:52:03Z</time>
      </trkpt>
      <trkpt lat="43.49723" lon="6.80479">
        <ele>421</ele>
        <time>2011-06-03T10:52:04Z</time>
      </trkpt>
      <trkpt lat="43.49723" lon="6.80475">
        <ele>420</ele>
        <time>2011-06-03T10:52:05Z</time>
      </trkpt>
      <trkpt lat="43.49721" lon="6.80472">
        <ele>420</ele>
        <time>2011-06-03T10:52:06Z</time>
      </trkpt>
      <trkpt lat="43.4972" lon="6.80468">
        <ele>420</ele>
        <time>2011-06-03T10:52:07Z</time>
      </trkpt>
      <trkpt lat="43.49718" lon="6.80464">
        <ele>420</ele>
        <time>2011-06-03T10:52:08Z</time>
      </trkpt>
      <trkpt lat="43.49716" lon="6.80461">
        <ele>420</ele>
        <time>2011-06-03T10:52:09Z</time>
      </trkpt>
      <trkpt lat="43.49715" lon="6.80457">
        <ele>420</ele>
        <time>2011-06-03T10:52:10Z</time>
      </trkpt>
      <trkpt lat="43.49713" lon="6.80453">
        <ele>420</ele>
        <time>2011-06-03T10:52:11Z</time>
      </trkpt>
      <trkpt lat="43.49712" lon="6.8045">
        <ele>420</ele>
        <time>2011-06-03T10:52:12Z</time>
      </trkpt>
      <trkpt lat="43.49712" lon="6.80446">
        <ele>421</ele>
        <time>2011-06-03T10:52:13Z</time>
      </trkpt>
      <trkpt lat="43.4971" lon="6.80444">
        <ele>420</ele>
        <time>2011-06-03T10:52:14Z</time>
      </trkpt>
      <trkpt lat="43.49708" lon="6.8044">
        <ele>420</ele>
        <time>2011-06-03T10:52:15Z</time>
      </trkpt>
      <trkpt lat="43.49707" lon="6.80438">
        <ele>421</ele>
        <time>2011-06-03T10:52:16Z</time>
      </trkpt>
      <trkpt lat="43.49705" lon="6.80435">
        <ele>421</ele>
        <time>2011-06-03T10:52:17Z</time>
      </trkpt>
      <trkpt lat="43.49702" lon="6.80432">
        <ele>421</ele>
        <time>2011-06-03T10:52:18Z</time>
      </trkpt>
      <trkpt lat="43.497" lon="6.80428">
        <ele>421</ele>
        <time>2011-06-03T10:52:20Z</time>
      </trkpt>
      <trkpt lat="43.497" lon="6.80428">
        <ele>420.99670410156</ele>
        <time>2011-06-03T10:52:20Z</time>
      </trkpt>
      <trkpt lat="43.49699" lon="6.80427">
        <ele>420.728515625</ele>
        <time>2011-06-03T10:52:21Z</time>
      </trkpt>
      <trkpt lat="43.49694" lon="6.8042">
        <ele>419.19430541992</ele>
        <time>2011-06-03T10:52:22Z</time>
      </trkpt>
      <trkpt lat="43.49691" lon="6.80418">
        <ele>420</ele>
        <time>2011-06-03T10:52:23Z</time>
      </trkpt>
      <trkpt lat="43.49689" lon="6.80416">
        <ele>420</ele>
        <time>2011-06-03T10:52:24Z</time>
      </trkpt>
      <trkpt lat="43.49687" lon="6.80414">
        <ele>420</ele>
        <time>2011-06-03T10:52:25Z</time>
      </trkpt>
      <trkpt lat="43.49685" lon="6.80412">
        <ele>420</ele>
        <time>2011-06-03T10:52:26Z</time>
      </trkpt>
      <trkpt lat="43.49683" lon="6.80409">
        <ele>420</ele>
        <time>2011-06-03T10:52:27Z</time>
      </trkpt>
      <trkpt lat="43.4968" lon="6.80408">
        <ele>419</ele>
        <time>2011-06-03T10:52:28Z</time>
      </trkpt>
      <trkpt lat="43.49677" lon="6.80406">
        <ele>419</ele>
        <time>2011-06-03T10:52:29Z</time>
      </trkpt>
      <trkpt lat="43.49675" lon="6.80403">
        <ele>419</ele>
        <time>2011-06-03T10:52:30Z</time>
      </trkpt>
      <trkpt lat="43.49672" lon="6.80401">
        <ele>418</ele>
        <time>2011-06-03T10:52:31Z</time>
      </trkpt>
      <trkpt lat="43.49669" lon="6.80399">
        <ele>418</ele>
        <time>2011-06-03T10:52:32Z</time>
      </trkpt>
      <trkpt lat="43.49667" lon="6.80397">
        <ele>417</ele>
        <time>2011-06-03T10:52:33Z</time>
      </trkpt>
      <trkpt lat="43.49664" lon="6.80394">
        <ele>417</ele>
        <time>2011-06-03T10:52:34Z</time>
      </trkpt>
      <trkpt lat="43.49662" lon="6.80392">
        <ele>416</ele>
        <time>2011-06-03T10:52:35Z</time>
      </trkpt>
      <trkpt lat="43.4966" lon="6.8039">
        <ele>417</ele>
        <time>2011-06-03T10:52:36Z</time>
      </trkpt>
      <trkpt lat="43.49658" lon="6.80385">
        <ele>416</ele>
        <time>2011-06-03T10:52:37Z</time>
      </trkpt>
      <trkpt lat="43.49657" lon="6.80382">
        <ele>416</ele>
        <time>2011-06-03T10:52:38Z</time>
      </trkpt>
      <trkpt lat="43.49656" lon="6.80378">
        <ele>416</ele>
        <time>2011-06-03T10:52:39Z</time>
      </trkpt>
      <trkpt lat="43.49655" lon="6.80374">
        <ele>415</ele>
        <time>2011-06-03T10:52:40Z</time>
      </trkpt>
      <trkpt lat="43.49653" lon="6.8037">
        <ele>415</ele>
        <time>2011-06-03T10:52:41Z</time>
      </trkpt>
      <trkpt lat="43.49651" lon="6.80366">
        <ele>415</ele>
        <time>2011-06-03T10:52:43Z</time>
      </trkpt>
      <trkpt lat="43.49651" lon="6.80366">
        <ele>415</ele>
        <time>2011-06-03T10:52:43Z</time>
      </trkpt>
      <trkpt lat="43.49651" lon="6.80365">
        <ele>415</ele>
        <time>2011-06-03T10:52:44Z</time>
      </trkpt>
      <trkpt lat="43.4965" lon="6.80356">
        <ele>415</ele>
        <time>2011-06-03T10:52:45Z</time>
      </trkpt>
      <trkpt lat="43.4965" lon="6.8035">
        <ele>415</ele>
        <time>2011-06-03T10:52:46Z</time>
      </trkpt>
      <trkpt lat="43.4965" lon="6.80347">
        <ele>415</ele>
        <time>2011-06-03T10:52:47Z</time>
      </trkpt>
      <trkpt lat="43.4965" lon="6.80342">
        <ele>414</ele>
        <time>2011-06-03T10:52:48Z</time>
      </trkpt>
      <trkpt lat="43.4965" lon="6.80338">
        <ele>414</ele>
        <time>2011-06-03T10:52:49Z</time>
      </trkpt>
      <trkpt lat="43.49651" lon="6.80334">
        <ele>415</ele>
        <time>2011-06-03T10:52:50Z</time>
      </trkpt>
      <trkpt lat="43.49651" lon="6.80331">
        <ele>413</ele>
        <time>2011-06-03T10:52:51Z</time>
      </trkpt>
      <trkpt lat="43.49651" lon="6.80326">
        <ele>412</ele>
        <time>2011-06-03T10:52:52Z</time>
      </trkpt>
      <trkpt lat="43.49651" lon="6.80322">
        <ele>412</ele>
        <time>2011-06-03T10:52:53Z</time>
      </trkpt>
      <trkpt lat="43.49651" lon="6.80318">
        <ele>412</ele>
        <time>2011-06-03T10:52:54Z</time>
      </trkpt>
      <trkpt lat="43.4965" lon="6.80314">
        <ele>412</ele>
        <time>2011-06-03T10:52:55Z</time>
      </trkpt>
      <trkpt lat="43.49648" lon="6.8031">
        <ele>411</ele>
        <time>2011-06-03T10:52:56Z</time>
      </trkpt>
      <trkpt lat="43.49647" lon="6.80307">
        <ele>412</ele>
        <time>2011-06-03T10:52:57Z</time>
      </trkpt>
      <trkpt lat="43.49644" lon="6.80304">
        <ele>412</ele>
        <time>2011-06-03T10:52:58Z</time>
      </trkpt>
      <trkpt lat="43.49643" lon="6.803">
        <ele>412</ele>
        <time>2011-06-03T10:52:59Z</time>
      </trkpt>
      <trkpt lat="43.49642" lon="6.80297">
        <ele>412</ele>
        <time>2011-06-03T10:53:00Z</time>
      </trkpt>
      <trkpt lat="43.4964" lon="6.80295">
        <ele>412</ele>
        <time>2011-06-03T10:53:01Z</time>
      </trkpt>
      <trkpt lat="43.49638" lon="6.80292">
        <ele>413</ele>
        <time>2011-06-03T10:53:02Z</time>
      </trkpt>
      <trkpt lat="43.49636" lon="6.8029">
        <ele>413</ele>
        <time>2011-06-03T10:53:03Z</time>
      </trkpt>
      <trkpt lat="43.49634" lon="6.80287">
        <ele>413</ele>
        <time>2011-06-03T10:53:04Z</time>
      </trkpt>
      <trkpt lat="43.49632" lon="6.80284">
        <ele>413</ele>
        <time>2011-06-03T10:53:06Z</time>
      </trkpt>
      <trkpt lat="43.49632" lon="6.80284">
        <ele>413</ele>
        <time>2011-06-03T10:53:06Z</time>
      </trkpt>
      <trkpt lat="43.49631" lon="6.80283">
        <ele>413</ele>
        <time>2011-06-03T10:53:07Z</time>
      </trkpt>
      <trkpt lat="43.49627" lon="6.80277">
        <ele>412.31878662109</ele>
        <time>2011-06-03T10:53:08Z</time>
      </trkpt>
      <trkpt lat="43.49622" lon="6.80271">
        <ele>412</ele>
        <time>2011-06-03T10:53:09Z</time>
      </trkpt>
      <trkpt lat="43.4962" lon="6.80268">
        <ele>412</ele>
        <time>2011-06-03T10:53:10Z</time>
      </trkpt>
      <trkpt lat="43.49618" lon="6.80265">
        <ele>411</ele>
        <time>2011-06-03T10:53:11Z</time>
      </trkpt>
      <trkpt lat="43.49616" lon="6.80261">
        <ele>411</ele>
        <time>2011-06-03T10:53:12Z</time>
      </trkpt>
      <trkpt lat="43.49613" lon="6.80259">
        <ele>411</ele>
        <time>2011-06-03T10:53:13Z</time>
      </trkpt>
      <trkpt lat="43.49612" lon="6.80256">
        <ele>411</ele>
        <time>2011-06-03T10:53:14Z</time>
      </trkpt>
      <trkpt lat="43.4961" lon="6.80254">
        <ele>411</ele>
        <time>2011-06-03T10:53:15Z</time>
      </trkpt>
      <trkpt lat="43.49609" lon="6.80252">
        <ele>411</ele>
        <time>2011-06-03T10:53:16Z</time>
      </trkpt>
      <trkpt lat="43.49606" lon="6.80249">
        <ele>410</ele>
        <time>2011-06-03T10:53:17Z</time>
      </trkpt>
      <trkpt lat="43.49605" lon="6.80246">
        <ele>411</ele>
        <time>2011-06-03T10:53:18Z</time>
      </trkpt>
      <trkpt lat="43.49603" lon="6.80243">
        <ele>410</ele>
        <time>2011-06-03T10:53:19Z</time>
      </trkpt>
      <trkpt lat="43.49601" lon="6.80239">
        <ele>409</ele>
        <time>2011-06-03T10:53:20Z</time>
      </trkpt>
      <trkpt lat="43.49599" lon="6.80236">
        <ele>409</ele>
        <time>2011-06-03T10:53:21Z</time>
      </trkpt>
      <trkpt lat="43.49597" lon="6.80232">
        <ele>409</ele>
        <time>2011-06-03T10:53:22Z</time>
      </trkpt>
      <trkpt lat="43.49595" lon="6.80229">
        <ele>409</ele>
        <time>2011-06-03T10:53:23Z</time>
      </trkpt>
      <trkpt lat="43.49594" lon="6.80225">
        <ele>409</ele>
        <time>2011-06-03T10:53:24Z</time>
      </trkpt>
      <trkpt lat="43.49592" lon="6.80221">
        <ele>409</ele>
        <time>2011-06-03T10:53:25Z</time>
      </trkpt>
      <trkpt lat="43.4959" lon="6.80216">
        <ele>408</ele>
        <time>2011-06-03T10:53:26Z</time>
      </trkpt>
      <trkpt lat="43.4959" lon="6.80212">
        <ele>407</ele>
        <time>2011-06-03T10:53:27Z</time>
      </trkpt>
      <trkpt lat="43.49588" lon="6.80208">
        <ele>407</ele>
        <time>2011-06-03T10:53:29Z</time>
      </trkpt>
      <trkpt lat="43.49588" lon="6.80208">
        <ele>407</ele>
        <time>2011-06-03T10:53:29Z</time>
      </trkpt>
      <trkpt lat="43.49588" lon="6.80205">
        <ele>407</ele>
        <time>2011-06-03T10:53:30Z</time>
      </trkpt>
      <trkpt lat="43.49585" lon="6.80197">
        <ele>407</ele>
        <time>2011-06-03T10:53:31Z</time>
      </trkpt>
      <trkpt lat="43.49583" lon="6.80194">
        <ele>406</ele>
        <time>2011-06-03T10:53:32Z</time>
      </trkpt>
      <trkpt lat="43.49582" lon="6.80189">
        <ele>407</ele>
        <time>2011-06-03T10:53:33Z</time>
      </trkpt>
      <trkpt lat="43.4958" lon="6.80186">
        <ele>407</ele>
        <time>2011-06-03T10:53:34Z</time>
      </trkpt>
      <trkpt lat="43.49578" lon="6.80184">
        <ele>407</ele>
        <time>2011-06-03T10:53:35Z</time>
      </trkpt>
      <trkpt lat="43.49576" lon="6.80181">
        <ele>407</ele>
        <time>2011-06-03T10:53:36Z</time>
      </trkpt>
      <trkpt lat="43.49574" lon="6.80179">
        <ele>408</ele>
        <time>2011-06-03T10:53:37Z</time>
      </trkpt>
      <trkpt lat="43.49572" lon="6.80176">
        <ele>409</ele>
        <time>2011-06-03T10:53:38Z</time>
      </trkpt>
      <trkpt lat="43.49569" lon="6.80174">
        <ele>408</ele>
        <time>2011-06-03T10:53:39Z</time>
      </trkpt>
      <trkpt lat="43.49567" lon="6.80172">
        <ele>408</ele>
        <time>2011-06-03T10:53:40Z</time>
      </trkpt>
      <trkpt lat="43.49565" lon="6.80171">
        <ele>408</ele>
        <time>2011-06-03T10:53:41Z</time>
      </trkpt>
      <trkpt lat="43.49562" lon="6.80169">
        <ele>407</ele>
        <time>2011-06-03T10:53:42Z</time>
      </trkpt>
      <trkpt lat="43.4956" lon="6.80169">
        <ele>407</ele>
        <time>2011-06-03T10:53:43Z</time>
      </trkpt>
      <trkpt lat="43.49558" lon="6.80169">
        <ele>406</ele>
        <time>2011-06-03T10:53:44Z</time>
      </trkpt>
      <trkpt lat="43.49555" lon="6.8017">
        <ele>406</ele>
        <time>2011-06-03T10:53:45Z</time>
      </trkpt>
      <trkpt lat="43.49552" lon="6.8017">
        <ele>406</ele>
        <time>2011-06-03T10:53:46Z</time>
      </trkpt>
      <trkpt lat="43.4955" lon="6.80171">
        <ele>406</ele>
        <time>2011-06-03T10:53:47Z</time>
      </trkpt>
      <trkpt lat="43.49547" lon="6.80172">
        <ele>406</ele>
        <time>2011-06-03T10:53:48Z</time>
      </trkpt>
      <trkpt lat="43.49546" lon="6.80173">
        <ele>406</ele>
        <time>2011-06-03T10:53:49Z</time>
      </trkpt>
      <trkpt lat="43.49543" lon="6.80175">
        <ele>405</ele>
        <time>2011-06-03T10:53:50Z</time>
      </trkpt>
      <trkpt lat="43.49541" lon="6.80177">
        <ele>404</ele>
        <time>2011-06-03T10:53:52Z</time>
      </trkpt>
      <trkpt lat="43.49541" lon="6.80177">
        <ele>403.99710083008</ele>
        <time>2011-06-03T10:53:52Z</time>
      </trkpt>
      <trkpt lat="43.4954" lon="6.80177">
        <ele>403.88296508789</ele>
        <time>2011-06-03T10:53:53Z</time>
      </trkpt>
      <trkpt lat="43.49535" lon="6.80179">
        <ele>402.4137878418</ele>
        <time>2011-06-03T10:53:54Z</time>
      </trkpt>
      <trkpt lat="43.4953" lon="6.8018">
        <ele>401</ele>
        <time>2011-06-03T10:53:55Z</time>
      </trkpt>
      <trkpt lat="43.49528" lon="6.80181">
        <ele>401</ele>
        <time>2011-06-03T10:53:56Z</time>
      </trkpt>
      <trkpt lat="43.49525" lon="6.80183">
        <ele>402</ele>
        <time>2011-06-03T10:53:57Z</time>
      </trkpt>
      <trkpt lat="43.49523" lon="6.80185">
        <ele>402</ele>
        <time>2011-06-03T10:53:58Z</time>
      </trkpt>
      <trkpt lat="43.4952" lon="6.80187">
        <ele>401</ele>
        <time>2011-06-03T10:53:59Z</time>
      </trkpt>
      <trkpt lat="43.49518" lon="6.80188">
        <ele>401</ele>
        <time>2011-06-03T10:54:00Z</time>
      </trkpt>
      <trkpt lat="43.49515" lon="6.80189">
        <ele>401</ele>
        <time>2011-06-03T10:54:01Z</time>
      </trkpt>
      <trkpt lat="43.49512" lon="6.80189">
        <ele>401</ele>
        <time>2011-06-03T10:54:02Z</time>
      </trkpt>
      <trkpt lat="43.49509" lon="6.80189">
        <ele>401</ele>
        <time>2011-06-03T10:54:03Z</time>
      </trkpt>
      <trkpt lat="43.49507" lon="6.8019">
        <ele>400</ele>
        <time>2011-06-03T10:54:04Z</time>
      </trkpt>
      <trkpt lat="43.49503" lon="6.80192">
        <ele>400</ele>
        <time>2011-06-03T10:54:05Z</time>
      </trkpt>
      <trkpt lat="43.495" lon="6.80193">
        <ele>400</ele>
        <time>2011-06-03T10:54:06Z</time>
      </trkpt>
      <trkpt lat="43.49497" lon="6.80194">
        <ele>399</ele>
        <time>2011-06-03T10:54:07Z</time>
      </trkpt>
      <trkpt lat="43.49495" lon="6.80195">
        <ele>399</ele>
        <time>2011-06-03T10:54:08Z</time>
      </trkpt>
      <trkpt lat="43.49492" lon="6.80197">
        <ele>399</ele>
        <time>2011-06-03T10:54:09Z</time>
      </trkpt>
      <trkpt lat="43.49489" lon="6.80199">
        <ele>399</ele>
        <time>2011-06-03T10:54:10Z</time>
      </trkpt>
      <trkpt lat="43.49486" lon="6.80201">
        <ele>399</ele>
        <time>2011-06-03T10:54:11Z</time>
      </trkpt>
      <trkpt lat="43.49482" lon="6.80201">
        <ele>399</ele>
        <time>2011-06-03T10:54:12Z</time>
      </trkpt>
      <trkpt lat="43.4948" lon="6.80203">
        <ele>399</ele>
        <time>2011-06-03T10:54:13Z</time>
      </trkpt>
      <trkpt lat="43.49477" lon="6.80203">
        <ele>399</ele>
        <time>2011-06-03T10:54:15Z</time>
      </trkpt>
      <trkpt lat="43.49477" lon="6.80203">
        <ele>399</ele>
        <time>2011-06-03T10:54:15Z</time>
      </trkpt>
      <trkpt lat="43.49475" lon="6.80203">
        <ele>399</ele>
        <time>2011-06-03T10:54:16Z</time>
      </trkpt>
      <trkpt lat="43.49469" lon="6.80203">
        <ele>399</ele>
        <time>2011-06-03T10:54:17Z</time>
      </trkpt>
      <trkpt lat="43.49465" lon="6.80203">
        <ele>399</ele>
        <time>2011-06-03T10:54:18Z</time>
      </trkpt>
      <trkpt lat="43.49462" lon="6.80202">
        <ele>399</ele>
        <time>2011-06-03T10:54:19Z</time>
      </trkpt>
      <trkpt lat="43.49459" lon="6.80202">
        <ele>399</ele>
        <time>2011-06-03T10:54:20Z</time>
      </trkpt>
      <trkpt lat="43.49457" lon="6.80203">
        <ele>400</ele>
        <time>2011-06-03T10:54:21Z</time>
      </trkpt>
      <trkpt lat="43.49454" lon="6.80203">
        <ele>400</ele>
        <time>2011-06-03T10:54:22Z</time>
      </trkpt>
      <trkpt lat="43.4945" lon="6.80203">
        <ele>401</ele>
        <time>2011-06-03T10:54:23Z</time>
      </trkpt>
      <trkpt lat="43.49448" lon="6.80202">
        <ele>401</ele>
        <time>2011-06-03T10:54:24Z</time>
      </trkpt>
      <trkpt lat="43.49445" lon="6.80201">
        <ele>401</ele>
        <time>2011-06-03T10:54:25Z</time>
      </trkpt>
      <trkpt lat="43.49442" lon="6.80199">
        <ele>400</ele>
        <time>2011-06-03T10:54:26Z</time>
      </trkpt>
      <trkpt lat="43.4944" lon="6.80194">
        <ele>400</ele>
        <time>2011-06-03T10:54:27Z</time>
      </trkpt>
      <trkpt lat="43.49438" lon="6.80191">
        <ele>401</ele>
        <time>2011-06-03T10:54:28Z</time>
      </trkpt>
      <trkpt lat="43.49437" lon="6.80188">
        <ele>400</ele>
        <time>2011-06-03T10:54:29Z</time>
      </trkpt>
      <trkpt lat="43.49435" lon="6.80184">
        <ele>400</ele>
        <time>2011-06-03T10:54:30Z</time>
      </trkpt>
      <trkpt lat="43.49433" lon="6.80181">
        <ele>400</ele>
        <time>2011-06-03T10:54:31Z</time>
      </trkpt>
      <trkpt lat="43.49431" lon="6.80178">
        <ele>400</ele>
        <time>2011-06-03T10:54:32Z</time>
      </trkpt>
      <trkpt lat="43.49429" lon="6.80175">
        <ele>400</ele>
        <time>2011-06-03T10:54:33Z</time>
      </trkpt>
      <trkpt lat="43.49428" lon="6.80172">
        <ele>400</ele>
        <time>2011-06-03T10:54:34Z</time>
      </trkpt>
      <trkpt lat="43.49428" lon="6.80168">
        <ele>400</ele>
        <time>2011-06-03T10:54:35Z</time>
      </trkpt>
      <trkpt lat="43.49427" lon="6.80164">
        <ele>401</ele>
        <time>2011-06-03T10:54:36Z</time>
      </trkpt>
      <trkpt lat="43.49426" lon="6.8016">
        <ele>401</ele>
        <time>2011-06-03T10:54:39Z</time>
      </trkpt>
      <trkpt lat="43.49426" lon="6.8016">
        <ele>401</ele>
        <time>2011-06-03T10:54:39Z</time>
      </trkpt>
      <trkpt lat="43.49426" lon="6.8016">
        <ele>401</ele>
        <time>2011-06-03T10:54:39Z</time>
      </trkpt>
      <trkpt lat="43.49426" lon="6.80154">
        <ele>401</ele>
        <time>2011-06-03T10:54:40Z</time>
      </trkpt>
      <trkpt lat="43.49427" lon="6.80145">
        <ele>402</ele>
        <time>2011-06-03T10:54:41Z</time>
      </trkpt>
      <trkpt lat="43.49428" lon="6.80141">
        <ele>403</ele>
        <time>2011-06-03T10:54:42Z</time>
      </trkpt>
      <trkpt lat="43.49428" lon="6.80138">
        <ele>402</ele>
        <time>2011-06-03T10:54:43Z</time>
      </trkpt>
      <trkpt lat="43.49428" lon="6.80134">
        <ele>401</ele>
        <time>2011-06-03T10:54:44Z</time>
      </trkpt>
      <trkpt lat="43.49428" lon="6.80129">
        <ele>401</ele>
        <time>2011-06-03T10:54:45Z</time>
      </trkpt>
      <trkpt lat="43.49428" lon="6.80127">
        <ele>402</ele>
        <time>2011-06-03T10:54:46Z</time>
      </trkpt>
      <trkpt lat="43.49429" lon="6.80125">
        <ele>401</ele>
        <time>2011-06-03T10:54:47Z</time>
      </trkpt>
      <trkpt lat="43.49429" lon="6.80121">
        <ele>402</ele>
        <time>2011-06-03T10:54:48Z</time>
      </trkpt>
      <trkpt lat="43.49429" lon="6.80119">
        <ele>402</ele>
        <time>2011-06-03T10:54:49Z</time>
      </trkpt>
      <trkpt lat="43.49429" lon="6.80115">
        <ele>402</ele>
        <time>2011-06-03T10:54:50Z</time>
      </trkpt>
      <trkpt lat="43.4943" lon="6.80112">
        <ele>402</ele>
        <time>2011-06-03T10:54:51Z</time>
      </trkpt>
      <trkpt lat="43.4943" lon="6.80108">
        <ele>402</ele>
        <time>2011-06-03T10:54:52Z</time>
      </trkpt>
      <trkpt lat="43.4943" lon="6.80106">
        <ele>403</ele>
        <time>2011-06-03T10:54:53Z</time>
      </trkpt>
      <trkpt lat="43.49432" lon="6.80103">
        <ele>403</ele>
        <time>2011-06-03T10:54:54Z</time>
      </trkpt>
      <trkpt lat="43.49433" lon="6.80099">
        <ele>403</ele>
        <time>2011-06-03T10:54:55Z</time>
      </trkpt>
      <trkpt lat="43.49433" lon="6.80097">
        <ele>403</ele>
        <time>2011-06-03T10:54:56Z</time>
      </trkpt>
      <trkpt lat="43.49433" lon="6.80094">
        <ele>403</ele>
        <time>2011-06-03T10:54:57Z</time>
      </trkpt>
      <trkpt lat="43.49433" lon="6.80091">
        <ele>403</ele>
        <time>2011-06-03T10:54:58Z</time>
      </trkpt>
      <trkpt lat="43.49434" lon="6.80087">
        <ele>404</ele>
        <time>2011-06-03T10:54:59Z</time>
      </trkpt>
      <trkpt lat="43.49434" lon="6.80084">
        <ele>404</ele>
        <time>2011-06-03T10:55:02Z</time>
      </trkpt>
      <trkpt lat="43.49434" lon="6.80083">
        <ele>404</ele>
        <time>2011-06-03T10:55:02Z</time>
      </trkpt>
      <trkpt lat="43.49434" lon="6.80083">
        <ele>404</ele>
        <time>2011-06-03T10:55:02Z</time>
      </trkpt>
      <trkpt lat="43.49434" lon="6.80079">
        <ele>404</ele>
        <time>2011-06-03T10:55:03Z</time>
      </trkpt>
      <trkpt lat="43.49434" lon="6.80072">
        <ele>405</ele>
        <time>2011-06-03T10:55:04Z</time>
      </trkpt>
      <trkpt lat="43.49433" lon="6.80069">
        <ele>407</ele>
        <time>2011-06-03T10:55:05Z</time>
      </trkpt>
      <trkpt lat="43.49432" lon="6.80066">
        <ele>407</ele>
        <time>2011-06-03T10:55:06Z</time>
      </trkpt>
      <trkpt lat="43.49431" lon="6.80064">
        <ele>408</ele>
        <time>2011-06-03T10:55:07Z</time>
      </trkpt>
      <trkpt lat="43.49429" lon="6.80062">
        <ele>408</ele>
        <time>2011-06-03T10:55:08Z</time>
      </trkpt>
      <trkpt lat="43.49428" lon="6.80059">
        <ele>408</ele>
        <time>2011-06-03T10:55:09Z</time>
      </trkpt>
      <trkpt lat="43.49426" lon="6.80059">
        <ele>409</ele>
        <time>2011-06-03T10:55:10Z</time>
      </trkpt>
      <trkpt lat="43.49423" lon="6.80057">
        <ele>409</ele>
        <time>2011-06-03T10:55:11Z</time>
      </trkpt>
      <trkpt lat="43.49422" lon="6.80056">
        <ele>410</ele>
        <time>2011-06-03T10:55:12Z</time>
      </trkpt>
      <trkpt lat="43.4942" lon="6.80055">
        <ele>410</ele>
        <time>2011-06-03T10:55:13Z</time>
      </trkpt>
      <trkpt lat="43.49419" lon="6.80053">
        <ele>409</ele>
        <time>2011-06-03T10:55:14Z</time>
      </trkpt>
      <trkpt lat="43.49418" lon="6.80052">
        <ele>409</ele>
        <time>2011-06-03T10:55:15Z</time>
      </trkpt>
      <trkpt lat="43.49416" lon="6.8005">
        <ele>409</ele>
        <time>2011-06-03T10:55:16Z</time>
      </trkpt>
      <trkpt lat="43.49414" lon="6.80048">
        <ele>409</ele>
        <time>2011-06-03T10:55:17Z</time>
      </trkpt>
      <trkpt lat="43.49412" lon="6.80047">
        <ele>410</ele>
        <time>2011-06-03T10:55:18Z</time>
      </trkpt>
      <trkpt lat="43.4941" lon="6.80045">
        <ele>410</ele>
        <time>2011-06-03T10:55:19Z</time>
      </trkpt>
      <trkpt lat="43.49407" lon="6.80044">
        <ele>409</ele>
        <time>2011-06-03T10:55:20Z</time>
      </trkpt>
      <trkpt lat="43.49406" lon="6.80042">
        <ele>410</ele>
        <time>2011-06-03T10:55:21Z</time>
      </trkpt>
      <trkpt lat="43.49403" lon="6.8004">
        <ele>411</ele>
        <time>2011-06-03T10:55:22Z</time>
      </trkpt>
      <trkpt lat="43.49401" lon="6.80039">
        <ele>411</ele>
        <time>2011-06-03T10:55:24Z</time>
      </trkpt>
      <trkpt lat="43.49401" lon="6.80039">
        <ele>411.00354003906</ele>
        <time>2011-06-03T10:55:24Z</time>
      </trkpt>
      <trkpt lat="43.494" lon="6.80038">
        <ele>411.36911010742</ele>
        <time>2011-06-03T10:55:25Z</time>
      </trkpt>
      <trkpt lat="43.49397" lon="6.80033">
        <ele>412</ele>
        <time>2011-06-03T10:55:26Z</time>
      </trkpt>
      <trkpt lat="43.49395" lon="6.80032">
        <ele>412</ele>
        <time>2011-06-03T10:55:27Z</time>
      </trkpt>
      <trkpt lat="43.49393" lon="6.8003">
        <ele>412</ele>
        <time>2011-06-03T10:55:28Z</time>
      </trkpt>
      <trkpt lat="43.49391" lon="6.80028">
        <ele>412</ele>
        <time>2011-06-03T10:55:29Z</time>
      </trkpt>
      <trkpt lat="43.49389" lon="6.80026">
        <ele>412</ele>
        <time>2011-06-03T10:55:30Z</time>
      </trkpt>
      <trkpt lat="43.49388" lon="6.80024">
        <ele>412</ele>
        <time>2011-06-03T10:55:31Z</time>
      </trkpt>
      <trkpt lat="43.49386" lon="6.80022">
        <ele>411</ele>
        <time>2011-06-03T10:55:32Z</time>
      </trkpt>
      <trkpt lat="43.49385" lon="6.80019">
        <ele>411</ele>
        <time>2011-06-03T10:55:33Z</time>
      </trkpt>
      <trkpt lat="43.49383" lon="6.80018">
        <ele>412</ele>
        <time>2011-06-03T10:55:34Z</time>
      </trkpt>
      <trkpt lat="43.49381" lon="6.80016">
        <ele>413</ele>
        <time>2011-06-03T10:55:35Z</time>
      </trkpt>
      <trkpt lat="43.49379" lon="6.80014">
        <ele>414</ele>
        <time>2011-06-03T10:55:36Z</time>
      </trkpt>
      <trkpt lat="43.49377" lon="6.80012">
        <ele>415</ele>
        <time>2011-06-03T10:55:37Z</time>
      </trkpt>
      <trkpt lat="43.49375" lon="6.8001">
        <ele>415</ele>
        <time>2011-06-03T10:55:38Z</time>
      </trkpt>
      <trkpt lat="43.49374" lon="6.80009">
        <ele>415</ele>
        <time>2011-06-03T10:55:39Z</time>
      </trkpt>
      <trkpt lat="43.49372" lon="6.80007">
        <ele>415</ele>
        <time>2011-06-03T10:55:40Z</time>
      </trkpt>
      <trkpt lat="43.4937" lon="6.80005">
        <ele>415</ele>
        <time>2011-06-03T10:55:41Z</time>
      </trkpt>
      <trkpt lat="43.49369" lon="6.80004">
        <ele>416</ele>
        <time>2011-06-03T10:55:42Z</time>
      </trkpt>
      <trkpt lat="43.49367" lon="6.80002">
        <ele>416</ele>
        <time>2011-06-03T10:55:43Z</time>
      </trkpt>
      <trkpt lat="43.49366" lon="6.80001">
        <ele>416</ele>
        <time>2011-06-03T10:55:44Z</time>
      </trkpt>
      <trkpt lat="43.49364" lon="6.8">
        <ele>416</ele>
        <time>2011-06-03T10:55:45Z</time>
      </trkpt>
      <trkpt lat="43.49362" lon="6.79999">
        <ele>416</ele>
        <time>2011-06-03T10:55:47Z</time>
      </trkpt>
      <trkpt lat="43.49362" lon="6.79999">
        <ele>416</ele>
        <time>2011-06-03T10:55:47Z</time>
      </trkpt>
      <trkpt lat="43.4936" lon="6.79999">
        <ele>415.56402587891</ele>
        <time>2011-06-03T10:55:48Z</time>
      </trkpt>
      <trkpt lat="43.49355" lon="6.79998">
        <ele>415</ele>
        <time>2011-06-03T10:55:49Z</time>
      </trkpt>
      <trkpt lat="43.49353" lon="6.79997">
        <ele>414</ele>
        <time>2011-06-03T10:55:50Z</time>
      </trkpt>
      <trkpt lat="43.49351" lon="6.79997">
        <ele>414</ele>
        <time>2011-06-03T10:55:51Z</time>
      </trkpt>
      <trkpt lat="43.49349" lon="6.79997">
        <ele>414</ele>
        <time>2011-06-03T10:55:52Z</time>
      </trkpt>
      <trkpt lat="43.49347" lon="6.79996">
        <ele>414</ele>
        <time>2011-06-03T10:55:53Z</time>
      </trkpt>
      <trkpt lat="43.49346" lon="6.79995">
        <ele>414</ele>
        <time>2011-06-03T10:55:54Z</time>
      </trkpt>
      <trkpt lat="43.49344" lon="6.79993">
        <ele>414</ele>
        <time>2011-06-03T10:55:55Z</time>
      </trkpt>
      <trkpt lat="43.49342" lon="6.79991">
        <ele>414</ele>
        <time>2011-06-03T10:55:56Z</time>
      </trkpt>
      <trkpt lat="43.4934" lon="6.79989">
        <ele>414</ele>
        <time>2011-06-03T10:55:57Z</time>
      </trkpt>
      <trkpt lat="43.49338" lon="6.79987">
        <ele>414</ele>
        <time>2011-06-03T10:55:58Z</time>
      </trkpt>
      <trkpt lat="43.49338" lon="6.79983">
        <ele>414</ele>
        <time>2011-06-03T10:55:59Z</time>
      </trkpt>
      <trkpt lat="43.49336" lon="6.79982">
        <ele>413</ele>
        <time>2011-06-03T10:56:00Z</time>
      </trkpt>
      <trkpt lat="43.49334" lon="6.7998">
        <ele>413</ele>
        <time>2011-06-03T10:56:01Z</time>
      </trkpt>
      <trkpt lat="43.49332" lon="6.79978">
        <ele>414</ele>
        <time>2011-06-03T10:56:02Z</time>
      </trkpt>
      <trkpt lat="43.4933" lon="6.79975">
        <ele>414</ele>
        <time>2011-06-03T10:56:03Z</time>
      </trkpt>
      <trkpt lat="43.49327" lon="6.79975">
        <ele>414</ele>
        <time>2011-06-03T10:56:04Z</time>
      </trkpt>
      <trkpt lat="43.49325" lon="6.79974">
        <ele>416</ele>
        <time>2011-06-03T10:56:05Z</time>
      </trkpt>
      <trkpt lat="43.49322" lon="6.79974">
        <ele>417</ele>
        <time>2011-06-03T10:56:06Z</time>
      </trkpt>
      <trkpt lat="43.4932" lon="6.79972">
        <ele>417</ele>
        <time>2011-06-03T10:56:07Z</time>
      </trkpt>
      <trkpt lat="43.49318" lon="6.79971">
        <ele>416</ele>
        <time>2011-06-03T10:56:08Z</time>
      </trkpt>
      <trkpt lat="43.49316" lon="6.79968">
        <ele>416</ele>
        <time>2011-06-03T10:56:10Z</time>
      </trkpt>
      <trkpt lat="43.49316" lon="6.79968">
        <ele>415.99508666992</ele>
        <time>2011-06-03T10:56:10Z</time>
      </trkpt>
      <trkpt lat="43.49314" lon="6.79966">
        <ele>415.43371582031</ele>
        <time>2011-06-03T10:56:11Z</time>
      </trkpt>
      <trkpt lat="43.4931" lon="6.79963">
        <ele>415</ele>
        <time>2011-06-03T10:56:12Z</time>
      </trkpt>
      <trkpt lat="43.49308" lon="6.7996">
        <ele>415</ele>
        <time>2011-06-03T10:56:13Z</time>
      </trkpt>
      <trkpt lat="43.49307" lon="6.79958">
        <ele>414</ele>
        <time>2011-06-03T10:56:14Z</time>
      </trkpt>
      <trkpt lat="43.49305" lon="6.79956">
        <ele>414</ele>
        <time>2011-06-03T10:56:15Z</time>
      </trkpt>
      <trkpt lat="43.49303" lon="6.79955">
        <ele>415</ele>
        <time>2011-06-03T10:56:16Z</time>
      </trkpt>
      <trkpt lat="43.49301" lon="6.79954">
        <ele>414</ele>
        <time>2011-06-03T10:56:17Z</time>
      </trkpt>
      <trkpt lat="43.49298" lon="6.79952">
        <ele>414</ele>
        <time>2011-06-03T10:56:18Z</time>
      </trkpt>
      <trkpt lat="43.49295" lon="6.79951">
        <ele>413</ele>
        <time>2011-06-03T10:56:19Z</time>
      </trkpt>
      <trkpt lat="43.49293" lon="6.7995">
        <ele>413</ele>
        <time>2011-06-03T10:56:20Z</time>
      </trkpt>
      <trkpt lat="43.4929" lon="6.79948">
        <ele>413</ele>
        <time>2011-06-03T10:56:21Z</time>
      </trkpt>
      <trkpt lat="43.49288" lon="6.79946">
        <ele>413</ele>
        <time>2011-06-03T10:56:22Z</time>
      </trkpt>
      <trkpt lat="43.49286" lon="6.79944">
        <ele>413</ele>
        <time>2011-06-03T10:56:23Z</time>
      </trkpt>
      <trkpt lat="43.49285" lon="6.79944">
        <ele>413</ele>
        <time>2011-06-03T10:56:24Z</time>
      </trkpt>
      <trkpt lat="43.49283" lon="6.79943">
        <ele>413</ele>
        <time>2011-06-03T10:56:25Z</time>
      </trkpt>
      <trkpt lat="43.4928" lon="6.79943">
        <ele>413</ele>
        <time>2011-06-03T10:56:26Z</time>
      </trkpt>
      <trkpt lat="43.49277" lon="6.79942">
        <ele>413</ele>
        <time>2011-06-03T10:56:27Z</time>
      </trkpt>
      <trkpt lat="43.49275" lon="6.79941">
        <ele>413</ele>
        <time>2011-06-03T10:56:28Z</time>
      </trkpt>
      <trkpt lat="43.49273" lon="6.79941">
        <ele>413</ele>
        <time>2011-06-03T10:56:29Z</time>
      </trkpt>
      <trkpt lat="43.49271" lon="6.79939">
        <ele>413</ele>
        <time>2011-06-03T10:56:30Z</time>
      </trkpt>
      <trkpt lat="43.49268" lon="6.79938">
        <ele>412</ele>
        <time>2011-06-03T10:56:31Z</time>
      </trkpt>
      <trkpt lat="43.49265" lon="6.79937">
        <ele>412</ele>
        <time>2011-06-03T10:56:33Z</time>
      </trkpt>
      <trkpt lat="43.49265" lon="6.79937">
        <ele>412</ele>
        <time>2011-06-03T10:56:33Z</time>
      </trkpt>
      <trkpt lat="43.49264" lon="6.79937">
        <ele>412</ele>
        <time>2011-06-03T10:56:34Z</time>
      </trkpt>
      <trkpt lat="43.49259" lon="6.79934">
        <ele>412</ele>
        <time>2011-06-03T10:56:35Z</time>
      </trkpt>
      <trkpt lat="43.49257" lon="6.79931">
        <ele>412</ele>
        <time>2011-06-03T10:56:36Z</time>
      </trkpt>
      <trkpt lat="43.49256" lon="6.79928">
        <ele>412</ele>
        <time>2011-06-03T10:56:37Z</time>
      </trkpt>
      <trkpt lat="43.49253" lon="6.79926">
        <ele>411</ele>
        <time>2011-06-03T10:56:38Z</time>
      </trkpt>
      <trkpt lat="43.49251" lon="6.79923">
        <ele>411</ele>
        <time>2011-06-03T10:56:39Z</time>
      </trkpt>
      <trkpt lat="43.49249" lon="6.79922">
        <ele>411</ele>
        <time>2011-06-03T10:56:40Z</time>
      </trkpt>
      <trkpt lat="43.49247" lon="6.7992">
        <ele>411</ele>
        <time>2011-06-03T10:56:41Z</time>
      </trkpt>
      <trkpt lat="43.49244" lon="6.7992">
        <ele>411</ele>
        <time>2011-06-03T10:56:42Z</time>
      </trkpt>
      <trkpt lat="43.49242" lon="6.79919">
        <ele>411</ele>
        <time>2011-06-03T10:56:43Z</time>
      </trkpt>
      <trkpt lat="43.49239" lon="6.79917">
        <ele>411</ele>
        <time>2011-06-03T10:56:44Z</time>
      </trkpt>
      <trkpt lat="43.49237" lon="6.79915">
        <ele>411</ele>
        <time>2011-06-03T10:56:45Z</time>
      </trkpt>
      <trkpt lat="43.49234" lon="6.79914">
        <ele>412</ele>
        <time>2011-06-03T10:56:46Z</time>
      </trkpt>
      <trkpt lat="43.49231" lon="6.79912">
        <ele>412</ele>
        <time>2011-06-03T10:56:47Z</time>
      </trkpt>
      <trkpt lat="43.49229" lon="6.79908">
        <ele>412</ele>
        <time>2011-06-03T10:56:48Z</time>
      </trkpt>
      <trkpt lat="43.49227" lon="6.79905">
        <ele>412</ele>
        <time>2011-06-03T10:56:49Z</time>
      </trkpt>
      <trkpt lat="43.49226" lon="6.79903">
        <ele>412</ele>
        <time>2011-06-03T10:56:50Z</time>
      </trkpt>
      <trkpt lat="43.49223" lon="6.79901">
        <ele>412</ele>
        <time>2011-06-03T10:56:51Z</time>
      </trkpt>
      <trkpt lat="43.49221" lon="6.79897">
        <ele>411</ele>
        <time>2011-06-03T10:56:52Z</time>
      </trkpt>
      <trkpt lat="43.4922" lon="6.79894">
        <ele>411</ele>
        <time>2011-06-03T10:56:53Z</time>
      </trkpt>
      <trkpt lat="43.49219" lon="6.79891">
        <ele>411</ele>
        <time>2011-06-03T10:56:54Z</time>
      </trkpt>
      <trkpt lat="43.49217" lon="6.79887">
        <ele>411</ele>
        <time>2011-06-03T10:56:56Z</time>
      </trkpt>
      <trkpt lat="43.49217" lon="6.79887">
        <ele>411.00274658203</ele>
        <time>2011-06-03T10:56:56Z</time>
      </trkpt>
      <trkpt lat="43.49216" lon="6.79883">
        <ele>411.58563232422</ele>
        <time>2011-06-03T10:56:57Z</time>
      </trkpt>
      <trkpt lat="43.49214" lon="6.79879">
        <ele>412</ele>
        <time>2011-06-03T10:56:58Z</time>
      </trkpt>
      <trkpt lat="43.49213" lon="6.79876">
        <ele>412</ele>
        <time>2011-06-03T10:56:59Z</time>
      </trkpt>
      <trkpt lat="43.49211" lon="6.79873">
        <ele>412</ele>
        <time>2011-06-03T10:57:00Z</time>
      </trkpt>
      <trkpt lat="43.4921" lon="6.7987">
        <ele>412</ele>
        <time>2011-06-03T10:57:01Z</time>
      </trkpt>
      <trkpt lat="43.49208" lon="6.79868">
        <ele>412</ele>
        <time>2011-06-03T10:57:02Z</time>
      </trkpt>
      <trkpt lat="43.49206" lon="6.79865">
        <ele>413</ele>
        <time>2011-06-03T10:57:03Z</time>
      </trkpt>
      <trkpt lat="43.49205" lon="6.79863">
        <ele>412</ele>
        <time>2011-06-03T10:57:04Z</time>
      </trkpt>
      <trkpt lat="43.49203" lon="6.79859">
        <ele>412</ele>
        <time>2011-06-03T10:57:05Z</time>
      </trkpt>
      <trkpt lat="43.49201" lon="6.79857">
        <ele>412</ele>
        <time>2011-06-03T10:57:06Z</time>
      </trkpt>
      <trkpt lat="43.492" lon="6.79853">
        <ele>412</ele>
        <time>2011-06-03T10:57:07Z</time>
      </trkpt>
      <trkpt lat="43.49198" lon="6.79851">
        <ele>412</ele>
        <time>2011-06-03T10:57:08Z</time>
      </trkpt>
      <trkpt lat="43.49196" lon="6.79848">
        <ele>413</ele>
        <time>2011-06-03T10:57:09Z</time>
      </trkpt>
      <trkpt lat="43.49195" lon="6.79846">
        <ele>412</ele>
        <time>2011-06-03T10:57:10Z</time>
      </trkpt>
      <trkpt lat="43.49193" lon="6.79843">
        <ele>412</ele>
        <time>2011-06-03T10:57:11Z</time>
      </trkpt>
      <trkpt lat="43.49192" lon="6.7984">
        <ele>412</ele>
        <time>2011-06-03T10:57:12Z</time>
      </trkpt>
      <trkpt lat="43.49191" lon="6.79837">
        <ele>411</ele>
        <time>2011-06-03T10:57:13Z</time>
      </trkpt>
      <trkpt lat="43.4919" lon="6.79834">
        <ele>412</ele>
        <time>2011-06-03T10:57:14Z</time>
      </trkpt>
      <trkpt lat="43.49189" lon="6.79829">
        <ele>411</ele>
        <time>2011-06-03T10:57:15Z</time>
      </trkpt>
      <trkpt lat="43.49186" lon="6.79827">
        <ele>411</ele>
        <time>2011-06-03T10:57:16Z</time>
      </trkpt>
      <trkpt lat="43.49186" lon="6.79824">
        <ele>410</ele>
        <time>2011-06-03T10:57:17Z</time>
      </trkpt>
      <trkpt lat="43.49184" lon="6.7982">
        <ele>409</ele>
        <time>2011-06-03T10:57:19Z</time>
      </trkpt>
      <trkpt lat="43.49184" lon="6.7982">
        <ele>409</ele>
        <time>2011-06-03T10:57:19Z</time>
      </trkpt>
      <trkpt lat="43.49184" lon="6.7982">
        <ele>409.12484741211</ele>
        <time>2011-06-03T10:57:20Z</time>
      </trkpt>
      <trkpt lat="43.4918" lon="6.79813">
        <ele>409.91156005859</ele>
        <time>2011-06-03T10:57:21Z</time>
      </trkpt>
      <trkpt lat="43.49178" lon="6.7981">
        <ele>410</ele>
        <time>2011-06-03T10:57:22Z</time>
      </trkpt>
      <trkpt lat="43.49176" lon="6.79807">
        <ele>410</ele>
        <time>2011-06-03T10:57:23Z</time>
      </trkpt>
      <trkpt lat="43.49175" lon="6.79805">
        <ele>410</ele>
        <time>2011-06-03T10:57:24Z</time>
      </trkpt>
      <trkpt lat="43.49173" lon="6.79802">
        <ele>411</ele>
        <time>2011-06-03T10:57:25Z</time>
      </trkpt>
      <trkpt lat="43.49172" lon="6.79799">
        <ele>410</ele>
        <time>2011-06-03T10:57:26Z</time>
      </trkpt>
      <trkpt lat="43.49171" lon="6.79796">
        <ele>410</ele>
        <time>2011-06-03T10:57:27Z</time>
      </trkpt>
      <trkpt lat="43.49169" lon="6.79794">
        <ele>410</ele>
        <time>2011-06-03T10:57:28Z</time>
      </trkpt>
      <trkpt lat="43.49168" lon="6.7979">
        <ele>411</ele>
        <time>2011-06-03T10:57:29Z</time>
      </trkpt>
      <trkpt lat="43.49167" lon="6.79788">
        <ele>411</ele>
        <time>2011-06-03T10:57:30Z</time>
      </trkpt>
      <trkpt lat="43.49164" lon="6.79785">
        <ele>411</ele>
        <time>2011-06-03T10:57:31Z</time>
      </trkpt>
      <trkpt lat="43.49163" lon="6.79784">
        <ele>411</ele>
        <time>2011-06-03T10:57:32Z</time>
      </trkpt>
      <trkpt lat="43.49161" lon="6.79782">
        <ele>411</ele>
        <time>2011-06-03T10:57:33Z</time>
      </trkpt>
      <trkpt lat="43.49159" lon="6.79781">
        <ele>412</ele>
        <time>2011-06-03T10:57:34Z</time>
      </trkpt>
      <trkpt lat="43.49157" lon="6.79778">
        <ele>412</ele>
        <time>2011-06-03T10:57:35Z</time>
      </trkpt>
      <trkpt lat="43.49155" lon="6.79776">
        <ele>413</ele>
        <time>2011-06-03T10:57:36Z</time>
      </trkpt>
      <trkpt lat="43.49153" lon="6.79773">
        <ele>413</ele>
        <time>2011-06-03T10:57:37Z</time>
      </trkpt>
      <trkpt lat="43.49151" lon="6.7977">
        <ele>413</ele>
        <time>2011-06-03T10:57:38Z</time>
      </trkpt>
      <trkpt lat="43.4915" lon="6.79767">
        <ele>414</ele>
        <time>2011-06-03T10:57:39Z</time>
      </trkpt>
      <trkpt lat="43.49149" lon="6.79765">
        <ele>414</ele>
        <time>2011-06-03T10:57:40Z</time>
      </trkpt>
      <trkpt lat="43.49147" lon="6.79761">
        <ele>414</ele>
        <time>2011-06-03T10:57:42Z</time>
      </trkpt>
      <trkpt lat="43.49147" lon="6.79761">
        <ele>414</ele>
        <time>2011-06-03T10:57:42Z</time>
      </trkpt>
      <trkpt lat="43.49146" lon="6.79758">
        <ele>414</ele>
        <time>2011-06-03T10:57:43Z</time>
      </trkpt>
      <trkpt lat="43.49142" lon="6.79752">
        <ele>414</ele>
        <time>2011-06-03T10:57:44Z</time>
      </trkpt>
      <trkpt lat="43.4914" lon="6.79751">
        <ele>414</ele>
        <time>2011-06-03T10:57:45Z</time>
      </trkpt>
      <trkpt lat="43.49138" lon="6.79748">
        <ele>413</ele>
        <time>2011-06-03T10:57:46Z</time>
      </trkpt>
      <trkpt lat="43.49136" lon="6.79746">
        <ele>413</ele>
        <time>2011-06-03T10:57:47Z</time>
      </trkpt>
      <trkpt lat="43.49134" lon="6.79743">
        <ele>412</ele>
        <time>2011-06-03T10:57:48Z</time>
      </trkpt>
      <trkpt lat="43.49132" lon="6.79741">
        <ele>412</ele>
        <time>2011-06-03T10:57:49Z</time>
      </trkpt>
      <trkpt lat="43.49131" lon="6.79737">
        <ele>411</ele>
        <time>2011-06-03T10:57:50Z</time>
      </trkpt>
      <trkpt lat="43.49128" lon="6.79734">
        <ele>410</ele>
        <time>2011-06-03T10:57:51Z</time>
      </trkpt>
      <trkpt lat="43.49127" lon="6.79731">
        <ele>410</ele>
        <time>2011-06-03T10:57:52Z</time>
      </trkpt>
      <trkpt lat="43.49125" lon="6.79729">
        <ele>410</ele>
        <time>2011-06-03T10:57:53Z</time>
      </trkpt>
      <trkpt lat="43.49124" lon="6.79726">
        <ele>409</ele>
        <time>2011-06-03T10:57:54Z</time>
      </trkpt>
      <trkpt lat="43.49123" lon="6.79724">
        <ele>409</ele>
        <time>2011-06-03T10:57:55Z</time>
      </trkpt>
      <trkpt lat="43.49121" lon="6.79721">
        <ele>409</ele>
        <time>2011-06-03T10:57:56Z</time>
      </trkpt>
      <trkpt lat="43.49119" lon="6.79716">
        <ele>411</ele>
        <time>2011-06-03T10:57:57Z</time>
      </trkpt>
      <trkpt lat="43.49118" lon="6.79713">
        <ele>411</ele>
        <time>2011-06-03T10:57:58Z</time>
      </trkpt>
      <trkpt lat="43.49117" lon="6.7971">
        <ele>412</ele>
        <time>2011-06-03T10:57:59Z</time>
      </trkpt>
      <trkpt lat="43.49116" lon="6.79706">
        <ele>412</ele>
        <time>2011-06-03T10:58:00Z</time>
      </trkpt>
      <trkpt lat="43.49114" lon="6.79704">
        <ele>412</ele>
        <time>2011-06-03T10:58:01Z</time>
      </trkpt>
      <trkpt lat="43.49113" lon="6.797">
        <ele>411</ele>
        <time>2011-06-03T10:58:02Z</time>
      </trkpt>
      <trkpt lat="43.49112" lon="6.79697">
        <ele>412</ele>
        <time>2011-06-03T10:58:03Z</time>
      </trkpt>
      <trkpt lat="43.49111" lon="6.79695">
        <ele>412</ele>
        <time>2011-06-03T10:58:05Z</time>
      </trkpt>
      <trkpt lat="43.49111" lon="6.79695">
        <ele>412</ele>
        <time>2011-06-03T10:58:05Z</time>
      </trkpt>
      <trkpt lat="43.49111" lon="6.79694">
        <ele>412</ele>
        <time>2011-06-03T10:58:06Z</time>
      </trkpt>
      <trkpt lat="43.49108" lon="6.79687">
        <ele>412.98989868164</ele>
        <time>2011-06-03T10:58:07Z</time>
      </trkpt>
      <trkpt lat="43.49108" lon="6.79683">
        <ele>413</ele>
        <time>2011-06-03T10:58:08Z</time>
      </trkpt>
      <trkpt lat="43.49109" lon="6.79678">
        <ele>413</ele>
        <time>2011-06-03T10:58:09Z</time>
      </trkpt>
      <trkpt lat="43.4911" lon="6.79674">
        <ele>413</ele>
        <time>2011-06-03T10:58:10Z</time>
      </trkpt>
      <trkpt lat="43.49111" lon="6.7967">
        <ele>413</ele>
        <time>2011-06-03T10:58:11Z</time>
      </trkpt>
      <trkpt lat="43.49112" lon="6.79667">
        <ele>414</ele>
        <time>2011-06-03T10:58:12Z</time>
      </trkpt>
      <trkpt lat="43.49111" lon="6.79665">
        <ele>413</ele>
        <time>2011-06-03T10:58:13Z</time>
      </trkpt>
      <trkpt lat="43.4911" lon="6.79663">
        <ele>414</ele>
        <time>2011-06-03T10:58:14Z</time>
      </trkpt>
      <trkpt lat="43.49109" lon="6.7966">
        <ele>414</ele>
        <time>2011-06-03T10:58:15Z</time>
      </trkpt>
      <trkpt lat="43.49109" lon="6.79657">
        <ele>413</ele>
        <time>2011-06-03T10:58:16Z</time>
      </trkpt>
      <trkpt lat="43.49107" lon="6.79654">
        <ele>414</ele>
        <time>2011-06-03T10:58:17Z</time>
      </trkpt>
      <trkpt lat="43.49106" lon="6.7965">
        <ele>414</ele>
        <time>2011-06-03T10:58:18Z</time>
      </trkpt>
      <trkpt lat="43.49104" lon="6.79647">
        <ele>414</ele>
        <time>2011-06-03T10:58:19Z</time>
      </trkpt>
      <trkpt lat="43.49103" lon="6.79643">
        <ele>415</ele>
        <time>2011-06-03T10:58:20Z</time>
      </trkpt>
      <trkpt lat="43.49102" lon="6.79639">
        <ele>415</ele>
        <time>2011-06-03T10:58:21Z</time>
      </trkpt>
      <trkpt lat="43.49102" lon="6.79635">
        <ele>415</ele>
        <time>2011-06-03T10:58:22Z</time>
      </trkpt>
      <trkpt lat="43.49101" lon="6.79632">
        <ele>414</ele>
        <time>2011-06-03T10:58:23Z</time>
      </trkpt>
      <trkpt lat="43.49101" lon="6.79629">
        <ele>413</ele>
        <time>2011-06-03T10:58:24Z</time>
      </trkpt>
      <trkpt lat="43.49099" lon="6.79625">
        <ele>413</ele>
        <time>2011-06-03T10:58:25Z</time>
      </trkpt>
      <trkpt lat="43.49099" lon="6.79621">
        <ele>414</ele>
        <time>2011-06-03T10:58:26Z</time>
      </trkpt>
      <trkpt lat="43.49098" lon="6.79618">
        <ele>414</ele>
        <time>2011-06-03T10:58:29Z</time>
      </trkpt>
      <trkpt lat="43.49098" lon="6.79618">
        <ele>414</ele>
        <time>2011-06-03T10:58:29Z</time>
      </trkpt>
      <trkpt lat="43.49098" lon="6.79617">
        <ele>413.94738769531</ele>
        <time>2011-06-03T10:58:29Z</time>
      </trkpt>
      <trkpt lat="43.49097" lon="6.79611">
        <ele>413.39025878906</ele>
        <time>2011-06-03T10:58:30Z</time>
      </trkpt>
      <trkpt lat="43.49096" lon="6.79604">
        <ele>413</ele>
        <time>2011-06-03T10:58:31Z</time>
      </trkpt>
      <trkpt lat="43.49095" lon="6.796">
        <ele>413</ele>
        <time>2011-06-03T10:58:32Z</time>
      </trkpt>
      <trkpt lat="43.49094" lon="6.79597">
        <ele>412</ele>
        <time>2011-06-03T10:58:33Z</time>
      </trkpt>
      <trkpt lat="43.49092" lon="6.79593">
        <ele>412</ele>
        <time>2011-06-03T10:58:34Z</time>
      </trkpt>
      <trkpt lat="43.49091" lon="6.7959">
        <ele>413</ele>
        <time>2011-06-03T10:58:35Z</time>
      </trkpt>
      <trkpt lat="43.49091" lon="6.79586">
        <ele>413</ele>
        <time>2011-06-03T10:58:36Z</time>
      </trkpt>
      <trkpt lat="43.4909" lon="6.79583">
        <ele>412</ele>
        <time>2011-06-03T10:58:37Z</time>
      </trkpt>
      <trkpt lat="43.49088" lon="6.79581">
        <ele>412</ele>
        <time>2011-06-03T10:58:38Z</time>
      </trkpt>
      <trkpt lat="43.49088" lon="6.79577">
        <ele>412</ele>
        <time>2011-06-03T10:58:39Z</time>
      </trkpt>
      <trkpt lat="43.49087" lon="6.79575">
        <ele>412</ele>
        <time>2011-06-03T10:58:40Z</time>
      </trkpt>
      <trkpt lat="43.49087" lon="6.79572">
        <ele>412</ele>
        <time>2011-06-03T10:58:41Z</time>
      </trkpt>
      <trkpt lat="43.49086" lon="6.79569">
        <ele>412</ele>
        <time>2011-06-03T10:58:42Z</time>
      </trkpt>
      <trkpt lat="43.49086" lon="6.79566">
        <ele>412</ele>
        <time>2011-06-03T10:58:43Z</time>
      </trkpt>
      <trkpt lat="43.49084" lon="6.79564">
        <ele>411</ele>
        <time>2011-06-03T10:58:44Z</time>
      </trkpt>
      <trkpt lat="43.49083" lon="6.79562">
        <ele>412</ele>
        <time>2011-06-03T10:58:45Z</time>
      </trkpt>
      <trkpt lat="43.49081" lon="6.79559">
        <ele>412</ele>
        <time>2011-06-03T10:58:46Z</time>
      </trkpt>
      <trkpt lat="43.4908" lon="6.79555">
        <ele>412</ele>
        <time>2011-06-03T10:58:47Z</time>
      </trkpt>
      <trkpt lat="43.49079" lon="6.79551">
        <ele>412</ele>
        <time>2011-06-03T10:58:48Z</time>
      </trkpt>
      <trkpt lat="43.49077" lon="6.79548">
        <ele>413</ele>
        <time>2011-06-03T10:58:49Z</time>
      </trkpt>
      <trkpt lat="43.49076" lon="6.79545">
        <ele>414</ele>
        <time>2011-06-03T10:58:51Z</time>
      </trkpt>
      <trkpt lat="43.49076" lon="6.79545">
        <ele>414</ele>
        <time>2011-06-03T10:58:51Z</time>
      </trkpt>
      <trkpt lat="43.49075" lon="6.79544">
        <ele>413.81991577148</ele>
        <time>2011-06-03T10:58:52Z</time>
      </trkpt>
      <trkpt lat="43.49073" lon="6.79536">
        <ele>413.12353515625</ele>
        <time>2011-06-03T10:58:53Z</time>
      </trkpt>
      <trkpt lat="43.49072" lon="6.79532">
        <ele>413</ele>
        <time>2011-06-03T10:58:54Z</time>
      </trkpt>
      <trkpt lat="43.4907" lon="6.79529">
        <ele>414</ele>
        <time>2011-06-03T10:58:55Z</time>
      </trkpt>
      <trkpt lat="43.4907" lon="6.79526">
        <ele>414</ele>
        <time>2011-06-03T10:58:56Z</time>
      </trkpt>
      <trkpt lat="43.49069" lon="6.79522">
        <ele>414</ele>
        <time>2011-06-03T10:58:57Z</time>
      </trkpt>
      <trkpt lat="43.49069" lon="6.79519">
        <ele>414</ele>
        <time>2011-06-03T10:58:58Z</time>
      </trkpt>
      <trkpt lat="43.49069" lon="6.79515">
        <ele>414</ele>
        <time>2011-06-03T10:58:59Z</time>
      </trkpt>
      <trkpt lat="43.49069" lon="6.79511">
        <ele>414</ele>
        <time>2011-06-03T10:59:00Z</time>
      </trkpt>
      <trkpt lat="43.49069" lon="6.79508">
        <ele>414</ele>
        <time>2011-06-03T10:59:01Z</time>
      </trkpt>
      <trkpt lat="43.49072" lon="6.79505">
        <ele>414</ele>
        <time>2011-06-03T10:59:02Z</time>
      </trkpt>
      <trkpt lat="43.49073" lon="6.79503">
        <ele>415</ele>
        <time>2011-06-03T10:59:03Z</time>
      </trkpt>
      <trkpt lat="43.49074" lon="6.795">
        <ele>415</ele>
        <time>2011-06-03T10:59:04Z</time>
      </trkpt>
      <trkpt lat="43.49074" lon="6.79497">
        <ele>415</ele>
        <time>2011-06-03T10:59:05Z</time>
      </trkpt>
      <trkpt lat="43.49074" lon="6.79495">
        <ele>415</ele>
        <time>2011-06-03T10:59:06Z</time>
      </trkpt>
      <trkpt lat="43.49073" lon="6.79492">
        <ele>415</ele>
        <time>2011-06-03T10:59:07Z</time>
      </trkpt>
      <trkpt lat="43.49071" lon="6.7949">
        <ele>415</ele>
        <time>2011-06-03T10:59:08Z</time>
      </trkpt>
      <trkpt lat="43.49069" lon="6.79488">
        <ele>415</ele>
        <time>2011-06-03T10:59:09Z</time>
      </trkpt>
      <trkpt lat="43.49067" lon="6.79486">
        <ele>415</ele>
        <time>2011-06-03T10:59:10Z</time>
      </trkpt>
      <trkpt lat="43.49066" lon="6.79486">
        <ele>415</ele>
        <time>2011-06-03T10:59:11Z</time>
      </trkpt>
      <trkpt lat="43.49064" lon="6.79485">
        <ele>415</ele>
        <time>2011-06-03T10:59:12Z</time>
      </trkpt>
      <trkpt lat="43.4906" lon="6.79484">
        <ele>416</ele>
        <time>2011-06-03T10:59:14Z</time>
      </trkpt>
      <trkpt lat="43.4906" lon="6.79484">
        <ele>416</ele>
        <time>2011-06-03T10:59:14Z</time>
      </trkpt>
      <trkpt lat="43.49058" lon="6.79484">
        <ele>416</ele>
        <time>2011-06-03T10:59:15Z</time>
      </trkpt>
      <trkpt lat="43.49053" lon="6.79485">
        <ele>416</ele>
        <time>2011-06-03T10:59:16Z</time>
      </trkpt>
      <trkpt lat="43.49051" lon="6.79485">
        <ele>416</ele>
        <time>2011-06-03T10:59:17Z</time>
      </trkpt>
      <trkpt lat="43.49048" lon="6.79485">
        <ele>415</ele>
        <time>2011-06-03T10:59:18Z</time>
      </trkpt>
      <trkpt lat="43.49045" lon="6.79485">
        <ele>416</ele>
        <time>2011-06-03T10:59:19Z</time>
      </trkpt>
      <trkpt lat="43.49042" lon="6.79486">
        <ele>415</ele>
        <time>2011-06-03T10:59:20Z</time>
      </trkpt>
      <trkpt lat="43.49039" lon="6.79488">
        <ele>415</ele>
        <time>2011-06-03T10:59:21Z</time>
      </trkpt>
      <trkpt lat="43.49037" lon="6.79488">
        <ele>414</ele>
        <time>2011-06-03T10:59:22Z</time>
      </trkpt>
      <trkpt lat="43.49035" lon="6.79489">
        <ele>414</ele>
        <time>2011-06-03T10:59:23Z</time>
      </trkpt>
      <trkpt lat="43.49032" lon="6.79491">
        <ele>414</ele>
        <time>2011-06-03T10:59:24Z</time>
      </trkpt>
      <trkpt lat="43.4903" lon="6.79491">
        <ele>414</ele>
        <time>2011-06-03T10:59:25Z</time>
      </trkpt>
      <trkpt lat="43.49028" lon="6.79493">
        <ele>414</ele>
        <time>2011-06-03T10:59:26Z</time>
      </trkpt>
      <trkpt lat="43.49025" lon="6.79495">
        <ele>415</ele>
        <time>2011-06-03T10:59:27Z</time>
      </trkpt>
      <trkpt lat="43.49023" lon="6.79496">
        <ele>416</ele>
        <time>2011-06-03T10:59:28Z</time>
      </trkpt>
      <trkpt lat="43.49022" lon="6.79497">
        <ele>416</ele>
        <time>2011-06-03T10:59:29Z</time>
      </trkpt>
      <trkpt lat="43.4902" lon="6.79499">
        <ele>416</ele>
        <time>2011-06-03T10:59:30Z</time>
      </trkpt>
      <trkpt lat="43.49017" lon="6.795">
        <ele>415</ele>
        <time>2011-06-03T10:59:31Z</time>
      </trkpt>
      <trkpt lat="43.49014" lon="6.79501">
        <ele>415</ele>
        <time>2011-06-03T10:59:32Z</time>
      </trkpt>
      <trkpt lat="43.4901" lon="6.79502">
        <ele>414</ele>
        <time>2011-06-03T10:59:33Z</time>
      </trkpt>
      <trkpt lat="43.49007" lon="6.79502">
        <ele>413</ele>
        <time>2011-06-03T10:59:34Z</time>
      </trkpt>
      <trkpt lat="43.49003" lon="6.79503">
        <ele>413</ele>
        <time>2011-06-03T10:59:35Z</time>
      </trkpt>
      <trkpt lat="43.49" lon="6.79504">
        <ele>413</ele>
        <time>2011-06-03T10:59:37Z</time>
      </trkpt>
      <trkpt lat="43.49" lon="6.79504">
        <ele>413.00335693359</ele>
        <time>2011-06-03T10:59:37Z</time>
      </trkpt>
      <trkpt lat="43.48998" lon="6.79505">
        <ele>413.00213623047</ele>
        <time>2011-06-03T10:59:38Z</time>
      </trkpt>
      <trkpt lat="43.48991" lon="6.79506">
        <ele>413.00006103516</ele>
        <time>2011-06-03T10:59:39Z</time>
      </trkpt>
      <trkpt lat="43.48987" lon="6.79506">
        <ele>413</ele>
        <time>2011-06-03T10:59:40Z</time>
      </trkpt>
      <trkpt lat="43.48985" lon="6.79505">
        <ele>413</ele>
        <time>2011-06-03T10:59:41Z</time>
      </trkpt>
      <trkpt lat="43.48981" lon="6.79503">
        <ele>414</ele>
        <time>2011-06-03T10:59:42Z</time>
      </trkpt>
      <trkpt lat="43.48978" lon="6.79503">
        <ele>414</ele>
        <time>2011-06-03T10:59:43Z</time>
      </trkpt>
      <trkpt lat="43.48976" lon="6.79501">
        <ele>414</ele>
        <time>2011-06-03T10:59:44Z</time>
      </trkpt>
      <trkpt lat="43.48973" lon="6.795">
        <ele>414</ele>
        <time>2011-06-03T10:59:45Z</time>
      </trkpt>
      <trkpt lat="43.48971" lon="6.79497">
        <ele>414</ele>
        <time>2011-06-03T10:59:46Z</time>
      </trkpt>
      <trkpt lat="43.4897" lon="6.79495">
        <ele>415</ele>
        <time>2011-06-03T10:59:47Z</time>
      </trkpt>
      <trkpt lat="43.48968" lon="6.79493">
        <ele>415</ele>
        <time>2011-06-03T10:59:48Z</time>
      </trkpt>
      <trkpt lat="43.48966" lon="6.7949">
        <ele>415</ele>
        <time>2011-06-03T10:59:49Z</time>
      </trkpt>
      <trkpt lat="43.48965" lon="6.79489">
        <ele>415</ele>
        <time>2011-06-03T10:59:50Z</time>
      </trkpt>
      <trkpt lat="43.48963" lon="6.79486">
        <ele>415</ele>
        <time>2011-06-03T10:59:51Z</time>
      </trkpt>
      <trkpt lat="43.48962" lon="6.79482">
        <ele>415</ele>
        <time>2011-06-03T10:59:52Z</time>
      </trkpt>
      <trkpt lat="43.48959" lon="6.79481">
        <ele>415</ele>
        <time>2011-06-03T10:59:53Z</time>
      </trkpt>
      <trkpt lat="43.48958" lon="6.79478">
        <ele>415</ele>
        <time>2011-06-03T10:59:54Z</time>
      </trkpt>
      <trkpt lat="43.48956" lon="6.79474">
        <ele>415</ele>
        <time>2011-06-03T10:59:55Z</time>
      </trkpt>
      <trkpt lat="43.48954" lon="6.79472">
        <ele>415</ele>
        <time>2011-06-03T10:59:56Z</time>
      </trkpt>
      <trkpt lat="43.48952" lon="6.7947">
        <ele>415</ele>
        <time>2011-06-03T10:59:57Z</time>
      </trkpt>
      <trkpt lat="43.4895" lon="6.79466">
        <ele>415</ele>
        <time>2011-06-03T10:59:58Z</time>
      </trkpt>
      <trkpt lat="43.48948" lon="6.79464">
        <ele>415</ele>
        <time>2011-06-03T11:00:01Z</time>
      </trkpt>
      <trkpt lat="43.48948" lon="6.79464">
        <ele>415</ele>
        <time>2011-06-03T11:00:01Z</time>
      </trkpt>
      <trkpt lat="43.48948" lon="6.79464">
        <ele>415</ele>
        <time>2011-06-03T11:00:01Z</time>
      </trkpt>
      <trkpt lat="43.48946" lon="6.79459">
        <ele>415</ele>
        <time>2011-06-03T11:00:02Z</time>
      </trkpt>
      <trkpt lat="43.48943" lon="6.79451">
        <ele>416</ele>
        <time>2011-06-03T11:00:03Z</time>
      </trkpt>
      <trkpt lat="43.48941" lon="6.79448">
        <ele>417</ele>
        <time>2011-06-03T11:00:04Z</time>
      </trkpt>
      <trkpt lat="43.4894" lon="6.79444">
        <ele>417</ele>
        <time>2011-06-03T11:00:05Z</time>
      </trkpt>
      <trkpt lat="43.4894" lon="6.7944">
        <ele>416</ele>
        <time>2011-06-03T11:00:06Z</time>
      </trkpt>
      <trkpt lat="43.4894" lon="6.79434">
        <ele>416</ele>
        <time>2011-06-03T11:00:07Z</time>
      </trkpt>
      <trkpt lat="43.48939" lon="6.7943">
        <ele>416</ele>
        <time>2011-06-03T11:00:08Z</time>
      </trkpt>
      <trkpt lat="43.48938" lon="6.79427">
        <ele>414</ele>
        <time>2011-06-03T11:00:09Z</time>
      </trkpt>
      <trkpt lat="43.48937" lon="6.79423">
        <ele>413</ele>
        <time>2011-06-03T11:00:10Z</time>
      </trkpt>
      <trkpt lat="43.48936" lon="6.7942">
        <ele>412</ele>
        <time>2011-06-03T11:00:11Z</time>
      </trkpt>
      <trkpt lat="43.48934" lon="6.79417">
        <ele>412</ele>
        <time>2011-06-03T11:00:12Z</time>
      </trkpt>
      <trkpt lat="43.48933" lon="6.79415">
        <ele>411</ele>
        <time>2011-06-03T11:00:13Z</time>
      </trkpt>
      <trkpt lat="43.4893" lon="6.79413">
        <ele>410</ele>
        <time>2011-06-03T11:00:14Z</time>
      </trkpt>
      <trkpt lat="43.48928" lon="6.79413">
        <ele>410</ele>
        <time>2011-06-03T11:00:15Z</time>
      </trkpt>
      <trkpt lat="43.48927" lon="6.79415">
        <ele>410</ele>
        <time>2011-06-03T11:00:16Z</time>
      </trkpt>
      <trkpt lat="43.48925" lon="6.79415">
        <ele>410</ele>
        <time>2011-06-03T11:00:17Z</time>
      </trkpt>
      <trkpt lat="43.48923" lon="6.79416">
        <ele>410</ele>
        <time>2011-06-03T11:00:18Z</time>
      </trkpt>
      <trkpt lat="43.48921" lon="6.79417">
        <ele>410</ele>
        <time>2011-06-03T11:00:19Z</time>
      </trkpt>
      <trkpt lat="43.48919" lon="6.79419">
        <ele>410</ele>
        <time>2011-06-03T11:00:20Z</time>
      </trkpt>
      <trkpt lat="43.48916" lon="6.79421">
        <ele>410</ele>
        <time>2011-06-03T11:00:21Z</time>
      </trkpt>
      <trkpt lat="43.48914" lon="6.79423">
        <ele>409</ele>
        <time>2011-06-03T11:00:22Z</time>
      </trkpt>
      <trkpt lat="43.48911" lon="6.79425">
        <ele>408</ele>
        <time>2011-06-03T11:00:24Z</time>
      </trkpt>
      <trkpt lat="43.48911" lon="6.79425">
        <ele>408.00332641602</ele>
        <time>2011-06-03T11:00:24Z</time>
      </trkpt>
      <trkpt lat="43.4891" lon="6.79428">
        <ele>408.00131225586</ele>
        <time>2011-06-03T11:00:25Z</time>
      </trkpt>
      <trkpt lat="43.48906" lon="6.79433">
        <ele>408</ele>
        <time>2011-06-03T11:00:26Z</time>
      </trkpt>
      <trkpt lat="43.48904" lon="6.79434">
        <ele>408</ele>
        <time>2011-06-03T11:00:27Z</time>
      </trkpt>
      <trkpt lat="43.48902" lon="6.79436">
        <ele>407</ele>
        <time>2011-06-03T11:00:28Z</time>
      </trkpt>
      <trkpt lat="43.489" lon="6.79438">
        <ele>406</ele>
        <time>2011-06-03T11:00:29Z</time>
      </trkpt>
      <trkpt lat="43.48898" lon="6.7944">
        <ele>406</ele>
        <time>2011-06-03T11:00:30Z</time>
      </trkpt>
      <trkpt lat="43.48896" lon="6.79442">
        <ele>406</ele>
        <time>2011-06-03T11:00:31Z</time>
      </trkpt>
      <trkpt lat="43.48892" lon="6.79443">
        <ele>406</ele>
        <time>2011-06-03T11:00:32Z</time>
      </trkpt>
      <trkpt lat="43.48889" lon="6.79445">
        <ele>405</ele>
        <time>2011-06-03T11:00:33Z</time>
      </trkpt>
      <trkpt lat="43.48887" lon="6.79447">
        <ele>404</ele>
        <time>2011-06-03T11:00:34Z</time>
      </trkpt>
      <trkpt lat="43.48885" lon="6.79449">
        <ele>404</ele>
        <time>2011-06-03T11:00:35Z</time>
      </trkpt>
      <trkpt lat="43.48882" lon="6.79451">
        <ele>403</ele>
        <time>2011-06-03T11:00:36Z</time>
      </trkpt>
      <trkpt lat="43.4888" lon="6.79453">
        <ele>403</ele>
        <time>2011-06-03T11:00:37Z</time>
      </trkpt>
      <trkpt lat="43.48877" lon="6.79454">
        <ele>404</ele>
        <time>2011-06-03T11:00:38Z</time>
      </trkpt>
      <trkpt lat="43.48875" lon="6.79456">
        <ele>404</ele>
        <time>2011-06-03T11:00:39Z</time>
      </trkpt>
      <trkpt lat="43.48871" lon="6.79457">
        <ele>405</ele>
        <time>2011-06-03T11:00:40Z</time>
      </trkpt>
      <trkpt lat="43.48869" lon="6.79458">
        <ele>404</ele>
        <time>2011-06-03T11:00:41Z</time>
      </trkpt>
      <trkpt lat="43.48867" lon="6.79459">
        <ele>404</ele>
        <time>2011-06-03T11:00:42Z</time>
      </trkpt>
      <trkpt lat="43.48864" lon="6.79463">
        <ele>404</ele>
        <time>2011-06-03T11:00:43Z</time>
      </trkpt>
      <trkpt lat="43.48863" lon="6.79466">
        <ele>404</ele>
        <time>2011-06-03T11:00:44Z</time>
      </trkpt>
      <trkpt lat="43.4886" lon="6.79468">
        <ele>404</ele>
        <time>2011-06-03T11:00:45Z</time>
      </trkpt>
      <trkpt lat="43.48858" lon="6.79471">
        <ele>405</ele>
        <time>2011-06-03T11:00:47Z</time>
      </trkpt>
      <trkpt lat="43.48858" lon="6.79471">
        <ele>405.00244140625</ele>
        <time>2011-06-03T11:00:47Z</time>
      </trkpt>
      <trkpt lat="43.48857" lon="6.79471">
        <ele>405.15020751953</ele>
        <time>2011-06-03T11:00:48Z</time>
      </trkpt>
      <trkpt lat="43.48851" lon="6.79475">
        <ele>405.71069335938</ele>
        <time>2011-06-03T11:00:49Z</time>
      </trkpt>
      <trkpt lat="43.48846" lon="6.79479">
        <ele>405</ele>
        <time>2011-06-03T11:00:50Z</time>
      </trkpt>
      <trkpt lat="43.48843" lon="6.7948">
        <ele>405</ele>
        <time>2011-06-03T11:00:51Z</time>
      </trkpt>
      <trkpt lat="43.48841" lon="6.79483">
        <ele>406</ele>
        <time>2011-06-03T11:00:52Z</time>
      </trkpt>
      <trkpt lat="43.4884" lon="6.79486">
        <ele>406</ele>
        <time>2011-06-03T11:00:53Z</time>
      </trkpt>
      <trkpt lat="43.48837" lon="6.79489">
        <ele>405</ele>
        <time>2011-06-03T11:00:54Z</time>
      </trkpt>
      <trkpt lat="43.48834" lon="6.79492">
        <ele>405</ele>
        <time>2011-06-03T11:00:55Z</time>
      </trkpt>
      <trkpt lat="43.48832" lon="6.79493">
        <ele>405</ele>
        <time>2011-06-03T11:00:56Z</time>
      </trkpt>
      <trkpt lat="43.4883" lon="6.79495">
        <ele>404</ele>
        <time>2011-06-03T11:00:57Z</time>
      </trkpt>
      <trkpt lat="43.48829" lon="6.79498">
        <ele>403</ele>
        <time>2011-06-03T11:00:58Z</time>
      </trkpt>
      <trkpt lat="43.48827" lon="6.79501">
        <ele>403</ele>
        <time>2011-06-03T11:00:59Z</time>
      </trkpt>
      <trkpt lat="43.48824" lon="6.79503">
        <ele>403</ele>
        <time>2011-06-03T11:01:00Z</time>
      </trkpt>
      <trkpt lat="43.48822" lon="6.79506">
        <ele>403</ele>
        <time>2011-06-03T11:01:01Z</time>
      </trkpt>
      <trkpt lat="43.48821" lon="6.79508">
        <ele>404</ele>
        <time>2011-06-03T11:01:02Z</time>
      </trkpt>
      <trkpt lat="43.48817" lon="6.7951">
        <ele>402</ele>
        <time>2011-06-03T11:01:03Z</time>
      </trkpt>
      <trkpt lat="43.48815" lon="6.79512">
        <ele>402</ele>
        <time>2011-06-03T11:01:04Z</time>
      </trkpt>
      <trkpt lat="43.48812" lon="6.79516">
        <ele>402</ele>
        <time>2011-06-03T11:01:05Z</time>
      </trkpt>
      <trkpt lat="43.4881" lon="6.79518">
        <ele>402</ele>
        <time>2011-06-03T11:01:06Z</time>
      </trkpt>
      <trkpt lat="43.48809" lon="6.79522">
        <ele>401</ele>
        <time>2011-06-03T11:01:07Z</time>
      </trkpt>
      <trkpt lat="43.48808" lon="6.79525">
        <ele>401</ele>
        <time>2011-06-03T11:01:08Z</time>
      </trkpt>
      <trkpt lat="43.48806" lon="6.79528">
        <ele>401</ele>
        <time>2011-06-03T11:01:10Z</time>
      </trkpt>
      <trkpt lat="43.48806" lon="6.79528">
        <ele>401</ele>
        <time>2011-06-03T11:01:10Z</time>
      </trkpt>
      <trkpt lat="43.48805" lon="6.7953">
        <ele>401</ele>
        <time>2011-06-03T11:01:11Z</time>
      </trkpt>
      <trkpt lat="43.48801" lon="6.79536">
        <ele>401</ele>
        <time>2011-06-03T11:01:12Z</time>
      </trkpt>
      <trkpt lat="43.48799" lon="6.79541">
        <ele>402</ele>
        <time>2011-06-03T11:01:13Z</time>
      </trkpt>
      <trkpt lat="43.48796" lon="6.79542">
        <ele>402</ele>
        <time>2011-06-03T11:01:14Z</time>
      </trkpt>
      <trkpt lat="43.48794" lon="6.79543">
        <ele>402</ele>
        <time>2011-06-03T11:01:15Z</time>
      </trkpt>
      <trkpt lat="43.48793" lon="6.79541">
        <ele>403</ele>
        <time>2011-06-03T11:01:16Z</time>
      </trkpt>
      <trkpt lat="43.48792" lon="6.79541">
        <ele>402</ele>
        <time>2011-06-03T11:01:17Z</time>
      </trkpt>
      <trkpt lat="43.48792" lon="6.79537">
        <ele>402</ele>
        <time>2011-06-03T11:01:18Z</time>
      </trkpt>
      <trkpt lat="43.48792" lon="6.79533">
        <ele>402</ele>
        <time>2011-06-03T11:01:19Z</time>
      </trkpt>
      <trkpt lat="43.48792" lon="6.7953">
        <ele>402</ele>
        <time>2011-06-03T11:01:20Z</time>
      </trkpt>
      <trkpt lat="43.48792" lon="6.79526">
        <ele>402</ele>
        <time>2011-06-03T11:01:21Z</time>
      </trkpt>
      <trkpt lat="43.48792" lon="6.79522">
        <ele>402</ele>
        <time>2011-06-03T11:01:22Z</time>
      </trkpt>
      <trkpt lat="43.48792" lon="6.79519">
        <ele>402</ele>
        <time>2011-06-03T11:01:23Z</time>
      </trkpt>
      <trkpt lat="43.48792" lon="6.79516">
        <ele>401</ele>
        <time>2011-06-03T11:01:24Z</time>
      </trkpt>
      <trkpt lat="43.48791" lon="6.79513">
        <ele>401</ele>
        <time>2011-06-03T11:01:25Z</time>
      </trkpt>
      <trkpt lat="43.48791" lon="6.79509">
        <ele>401</ele>
        <time>2011-06-03T11:01:26Z</time>
      </trkpt>
      <trkpt lat="43.48792" lon="6.79504">
        <ele>401</ele>
        <time>2011-06-03T11:01:27Z</time>
      </trkpt>
      <trkpt lat="43.48792" lon="6.79501">
        <ele>402</ele>
        <time>2011-06-03T11:01:28Z</time>
      </trkpt>
      <trkpt lat="43.48792" lon="6.79498">
        <ele>401</ele>
        <time>2011-06-03T11:01:29Z</time>
      </trkpt>
      <trkpt lat="43.48792" lon="6.79495">
        <ele>400</ele>
        <time>2011-06-03T11:01:30Z</time>
      </trkpt>
      <trkpt lat="43.48792" lon="6.79492">
        <ele>400</ele>
        <time>2011-06-03T11:01:31Z</time>
      </trkpt>
      <trkpt lat="43.48792" lon="6.79488">
        <ele>400</ele>
        <time>2011-06-03T11:01:33Z</time>
      </trkpt>
      <trkpt lat="43.48792" lon="6.79488">
        <ele>399.99627685547</ele>
        <time>2011-06-03T11:01:33Z</time>
      </trkpt>
      <trkpt lat="43.48792" lon="6.79486">
        <ele>399.69216918945</ele>
        <time>2011-06-03T11:01:34Z</time>
      </trkpt>
      <trkpt lat="43.48793" lon="6.79479">
        <ele>399</ele>
        <time>2011-06-03T11:01:35Z</time>
      </trkpt>
      <trkpt lat="43.48793" lon="6.79476">
        <ele>399</ele>
        <time>2011-06-03T11:01:36Z</time>
      </trkpt>
      <trkpt lat="43.48792" lon="6.79474">
        <ele>398</ele>
        <time>2011-06-03T11:01:37Z</time>
      </trkpt>
      <trkpt lat="43.48793" lon="6.7947">
        <ele>398</ele>
        <time>2011-06-03T11:01:38Z</time>
      </trkpt>
      <trkpt lat="43.48793" lon="6.79466">
        <ele>397</ele>
        <time>2011-06-03T11:01:39Z</time>
      </trkpt>
      <trkpt lat="43.48793" lon="6.79463">
        <ele>397</ele>
        <time>2011-06-03T11:01:40Z</time>
      </trkpt>
      <trkpt lat="43.48793" lon="6.7946">
        <ele>397</ele>
        <time>2011-06-03T11:01:41Z</time>
      </trkpt>
      <trkpt lat="43.48792" lon="6.79457">
        <ele>396</ele>
        <time>2011-06-03T11:01:42Z</time>
      </trkpt>
      <trkpt lat="43.48791" lon="6.79453">
        <ele>395</ele>
        <time>2011-06-03T11:01:43Z</time>
      </trkpt>
      <trkpt lat="43.48792" lon="6.79451">
        <ele>394</ele>
        <time>2011-06-03T11:01:44Z</time>
      </trkpt>
      <trkpt lat="43.48791" lon="6.79448">
        <ele>394</ele>
        <time>2011-06-03T11:01:45Z</time>
      </trkpt>
      <trkpt lat="43.48792" lon="6.79445">
        <ele>394</ele>
        <time>2011-06-03T11:01:46Z</time>
      </trkpt>
      <trkpt lat="43.4879" lon="6.79442">
        <ele>394</ele>
        <time>2011-06-03T11:01:47Z</time>
      </trkpt>
      <trkpt lat="43.48789" lon="6.79439">
        <ele>394</ele>
        <time>2011-06-03T11:01:48Z</time>
      </trkpt>
      <trkpt lat="43.48789" lon="6.79436">
        <ele>393</ele>
        <time>2011-06-03T11:01:49Z</time>
      </trkpt>
      <trkpt lat="43.48788" lon="6.79431">
        <ele>393</ele>
        <time>2011-06-03T11:01:50Z</time>
      </trkpt>
      <trkpt lat="43.48788" lon="6.79427">
        <ele>392</ele>
        <time>2011-06-03T11:01:51Z</time>
      </trkpt>
      <trkpt lat="43.48788" lon="6.79424">
        <ele>392</ele>
        <time>2011-06-03T11:01:52Z</time>
      </trkpt>
      <trkpt lat="43.48787" lon="6.79421">
        <ele>391</ele>
        <time>2011-06-03T11:01:53Z</time>
      </trkpt>
      <trkpt lat="43.48787" lon="6.79417">
        <ele>391</ele>
        <time>2011-06-03T11:01:54Z</time>
      </trkpt>
      <trkpt lat="43.48787" lon="6.79414">
        <ele>391</ele>
        <time>2011-06-03T11:01:56Z</time>
      </trkpt>
      <trkpt lat="43.48787" lon="6.79414">
        <ele>391</ele>
        <time>2011-06-03T11:01:56Z</time>
      </trkpt>
      <trkpt lat="43.48787" lon="6.79412">
        <ele>390.63708496094</ele>
        <time>2011-06-03T11:01:57Z</time>
      </trkpt>
      <trkpt lat="43.48787" lon="6.79403">
        <ele>390</ele>
        <time>2011-06-03T11:01:58Z</time>
      </trkpt>
      <trkpt lat="43.48787" lon="6.79399">
        <ele>390</ele>
        <time>2011-06-03T11:01:59Z</time>
      </trkpt>
      <trkpt lat="43.48787" lon="6.79396">
        <ele>390</ele>
        <time>2011-06-03T11:02:00Z</time>
      </trkpt>
      <trkpt lat="43.48786" lon="6.79392">
        <ele>389</ele>
        <time>2011-06-03T11:02:01Z</time>
      </trkpt>
      <trkpt lat="43.48786" lon="6.7939">
        <ele>389</ele>
        <time>2011-06-03T11:02:02Z</time>
      </trkpt>
      <trkpt lat="43.48786" lon="6.79385">
        <ele>388</ele>
        <time>2011-06-03T11:02:03Z</time>
      </trkpt>
      <trkpt lat="43.48786" lon="6.79383">
        <ele>388</ele>
        <time>2011-06-03T11:02:04Z</time>
      </trkpt>
      <trkpt lat="43.48785" lon="6.79379">
        <ele>388</ele>
        <time>2011-06-03T11:02:05Z</time>
      </trkpt>
      <trkpt lat="43.48784" lon="6.79377">
        <ele>387</ele>
        <time>2011-06-03T11:02:06Z</time>
      </trkpt>
      <trkpt lat="43.48784" lon="6.79373">
        <ele>387</ele>
        <time>2011-06-03T11:02:07Z</time>
      </trkpt>
      <trkpt lat="43.48783" lon="6.7937">
        <ele>387</ele>
        <time>2011-06-03T11:02:08Z</time>
      </trkpt>
      <trkpt lat="43.48782" lon="6.79367">
        <ele>387</ele>
        <time>2011-06-03T11:02:09Z</time>
      </trkpt>
      <trkpt lat="43.48781" lon="6.79363">
        <ele>386</ele>
        <time>2011-06-03T11:02:10Z</time>
      </trkpt>
      <trkpt lat="43.48781" lon="6.7936">
        <ele>386</ele>
        <time>2011-06-03T11:02:11Z</time>
      </trkpt>
      <trkpt lat="43.48779" lon="6.79355">
        <ele>387</ele>
        <time>2011-06-03T11:02:12Z</time>
      </trkpt>
      <trkpt lat="43.48778" lon="6.7935">
        <ele>387</ele>
        <time>2011-06-03T11:02:13Z</time>
      </trkpt>
      <trkpt lat="43.48776" lon="6.79348">
        <ele>387</ele>
        <time>2011-06-03T11:02:14Z</time>
      </trkpt>
      <trkpt lat="43.48774" lon="6.79345">
        <ele>387</ele>
        <time>2011-06-03T11:02:15Z</time>
      </trkpt>
      <trkpt lat="43.48773" lon="6.79342">
        <ele>387</ele>
        <time>2011-06-03T11:02:16Z</time>
      </trkpt>
      <trkpt lat="43.48773" lon="6.7934">
        <ele>387</ele>
        <time>2011-06-03T11:02:17Z</time>
      </trkpt>
      <trkpt lat="43.48771" lon="6.79337">
        <ele>388</ele>
        <time>2011-06-03T11:02:19Z</time>
      </trkpt>
      <trkpt lat="43.48771" lon="6.79337">
        <ele>388</ele>
        <time>2011-06-03T11:02:19Z</time>
      </trkpt>
      <trkpt lat="43.48771" lon="6.79336">
        <ele>387.8122253418</ele>
        <time>2011-06-03T11:02:20Z</time>
      </trkpt>
      <trkpt lat="43.48769" lon="6.79327">
        <ele>387.11608886719</ele>
        <time>2011-06-03T11:02:21Z</time>
      </trkpt>
      <trkpt lat="43.4877" lon="6.79323">
        <ele>387</ele>
        <time>2011-06-03T11:02:22Z</time>
      </trkpt>
      <trkpt lat="43.4877" lon="6.79319">
        <ele>388</ele>
        <time>2011-06-03T11:02:23Z</time>
      </trkpt>
      <trkpt lat="43.4877" lon="6.79317">
        <ele>387</ele>
        <time>2011-06-03T11:02:24Z</time>
      </trkpt>
      <trkpt lat="43.4877" lon="6.79316">
        <ele>387</ele>
        <time>2011-06-03T11:02:25Z</time>
      </trkpt>
      <trkpt lat="43.48768" lon="6.79316">
        <ele>387</ele>
        <time>2011-06-03T11:02:26Z</time>
      </trkpt>
      <trkpt lat="43.48766" lon="6.79315">
        <ele>386</ele>
        <time>2011-06-03T11:02:27Z</time>
      </trkpt>
      <trkpt lat="43.48764" lon="6.79313">
        <ele>386</ele>
        <time>2011-06-03T11:02:28Z</time>
      </trkpt>
      <trkpt lat="43.48762" lon="6.79312">
        <ele>386</ele>
        <time>2011-06-03T11:02:29Z</time>
      </trkpt>
      <trkpt lat="43.4876" lon="6.79308">
        <ele>384</ele>
        <time>2011-06-03T11:02:30Z</time>
      </trkpt>
      <trkpt lat="43.48758" lon="6.79306">
        <ele>384</ele>
        <time>2011-06-03T11:02:31Z</time>
      </trkpt>
      <trkpt lat="43.48756" lon="6.79306">
        <ele>384</ele>
        <time>2011-06-03T11:02:32Z</time>
      </trkpt>
      <trkpt lat="43.48755" lon="6.79306">
        <ele>384</ele>
        <time>2011-06-03T11:02:33Z</time>
      </trkpt>
      <trkpt lat="43.48755" lon="6.79306">
        <ele>383</ele>
        <time>2011-06-03T11:02:34Z</time>
      </trkpt>
      <trkpt lat="43.48754" lon="6.7931">
        <ele>383</ele>
        <time>2011-06-03T11:02:35Z</time>
      </trkpt>
      <trkpt lat="43.48753" lon="6.79314">
        <ele>382</ele>
        <time>2011-06-03T11:02:36Z</time>
      </trkpt>
      <trkpt lat="43.48753" lon="6.79318">
        <ele>381</ele>
        <time>2011-06-03T11:02:37Z</time>
      </trkpt>
      <trkpt lat="43.48753" lon="6.79321">
        <ele>380</ele>
        <time>2011-06-03T11:02:38Z</time>
      </trkpt>
      <trkpt lat="43.48753" lon="6.79325">
        <ele>379</ele>
        <time>2011-06-03T11:02:39Z</time>
      </trkpt>
      <trkpt lat="43.48753" lon="6.79328">
        <ele>379</ele>
        <time>2011-06-03T11:02:40Z</time>
      </trkpt>
      <trkpt lat="43.48753" lon="6.79331">
        <ele>378</ele>
        <time>2011-06-03T11:02:42Z</time>
      </trkpt>
      <trkpt lat="43.48753" lon="6.79331">
        <ele>378</ele>
        <time>2011-06-03T11:02:42Z</time>
      </trkpt>
      <trkpt lat="43.48753" lon="6.79332">
        <ele>378</ele>
        <time>2011-06-03T11:02:43Z</time>
      </trkpt>
      <trkpt lat="43.48751" lon="6.7934">
        <ele>377.04104614258</ele>
        <time>2011-06-03T11:02:44Z</time>
      </trkpt>
      <trkpt lat="43.48751" lon="6.79344">
        <ele>376</ele>
        <time>2011-06-03T11:02:45Z</time>
      </trkpt>
      <trkpt lat="43.4875" lon="6.79347">
        <ele>375</ele>
        <time>2011-06-03T11:02:46Z</time>
      </trkpt>
      <trkpt lat="43.4875" lon="6.7935">
        <ele>374</ele>
        <time>2011-06-03T11:02:47Z</time>
      </trkpt>
      <trkpt lat="43.48749" lon="6.79353">
        <ele>374</ele>
        <time>2011-06-03T11:02:48Z</time>
      </trkpt>
      <trkpt lat="43.48748" lon="6.79357">
        <ele>374</ele>
        <time>2011-06-03T11:02:49Z</time>
      </trkpt>
      <trkpt lat="43.48745" lon="6.7936">
        <ele>373</ele>
        <time>2011-06-03T11:02:50Z</time>
      </trkpt>
      <trkpt lat="43.48744" lon="6.79362">
        <ele>373</ele>
        <time>2011-06-03T11:02:51Z</time>
      </trkpt>
      <trkpt lat="43.48743" lon="6.79365">
        <ele>373</ele>
        <time>2011-06-03T11:02:52Z</time>
      </trkpt>
      <trkpt lat="43.48742" lon="6.79368">
        <ele>372</ele>
        <time>2011-06-03T11:02:53Z</time>
      </trkpt>
      <trkpt lat="43.48741" lon="6.7937">
        <ele>372</ele>
        <time>2011-06-03T11:02:54Z</time>
      </trkpt>
      <trkpt lat="43.48738" lon="6.79372">
        <ele>371</ele>
        <time>2011-06-03T11:02:55Z</time>
      </trkpt>
      <trkpt lat="43.48736" lon="6.79374">
        <ele>371</ele>
        <time>2011-06-03T11:02:56Z</time>
      </trkpt>
      <trkpt lat="43.48735" lon="6.79375">
        <ele>370</ele>
        <time>2011-06-03T11:02:57Z</time>
      </trkpt>
      <trkpt lat="43.48732" lon="6.79377">
        <ele>369</ele>
        <time>2011-06-03T11:02:58Z</time>
      </trkpt>
      <trkpt lat="43.4873" lon="6.79378">
        <ele>369</ele>
        <time>2011-06-03T11:02:59Z</time>
      </trkpt>
      <trkpt lat="43.48728" lon="6.7938">
        <ele>368</ele>
        <time>2011-06-03T11:03:00Z</time>
      </trkpt>
      <trkpt lat="43.48727" lon="6.79382">
        <ele>368</ele>
        <time>2011-06-03T11:03:01Z</time>
      </trkpt>
      <trkpt lat="43.48726" lon="6.79384">
        <ele>368</ele>
        <time>2011-06-03T11:03:02Z</time>
      </trkpt>
      <trkpt lat="43.48723" lon="6.79385">
        <ele>367</ele>
        <time>2011-06-03T11:03:03Z</time>
      </trkpt>
      <trkpt lat="43.48721" lon="6.79387">
        <ele>367</ele>
        <time>2011-06-03T11:03:05Z</time>
      </trkpt>
      <trkpt lat="43.48721" lon="6.79387">
        <ele>367</ele>
        <time>2011-06-03T11:03:05Z</time>
      </trkpt>
      <trkpt lat="43.48719" lon="6.79388">
        <ele>367</ele>
        <time>2011-06-03T11:03:06Z</time>
      </trkpt>
      <trkpt lat="43.48713" lon="6.79391">
        <ele>367.79794311523</ele>
        <time>2011-06-03T11:03:07Z</time>
      </trkpt>
      <trkpt lat="43.48708" lon="6.79393">
        <ele>366</ele>
        <time>2011-06-03T11:03:08Z</time>
      </trkpt>
      <trkpt lat="43.48706" lon="6.79395">
        <ele>366</ele>
        <time>2011-06-03T11:03:09Z</time>
      </trkpt>
      <trkpt lat="43.48702" lon="6.79396">
        <ele>365</ele>
        <time>2011-06-03T11:03:10Z</time>
      </trkpt>
      <trkpt lat="43.48699" lon="6.79397">
        <ele>365</ele>
        <time>2011-06-03T11:03:11Z</time>
      </trkpt>
      <trkpt lat="43.48698" lon="6.79398">
        <ele>364</ele>
        <time>2011-06-03T11:03:12Z</time>
      </trkpt>
      <trkpt lat="43.48695" lon="6.794">
        <ele>364</ele>
        <time>2011-06-03T11:03:13Z</time>
      </trkpt>
      <trkpt lat="43.48693" lon="6.79401">
        <ele>364</ele>
        <time>2011-06-03T11:03:14Z</time>
      </trkpt>
      <trkpt lat="43.48691" lon="6.79402">
        <ele>364</ele>
        <time>2011-06-03T11:03:15Z</time>
      </trkpt>
      <trkpt lat="43.48687" lon="6.79403">
        <ele>364</ele>
        <time>2011-06-03T11:03:16Z</time>
      </trkpt>
      <trkpt lat="43.48684" lon="6.79404">
        <ele>365</ele>
        <time>2011-06-03T11:03:17Z</time>
      </trkpt>
      <trkpt lat="43.48682" lon="6.79404">
        <ele>364</ele>
        <time>2011-06-03T11:03:18Z</time>
      </trkpt>
      <trkpt lat="43.48679" lon="6.79405">
        <ele>364</ele>
        <time>2011-06-03T11:03:19Z</time>
      </trkpt>
      <trkpt lat="43.48676" lon="6.79405">
        <ele>364</ele>
        <time>2011-06-03T11:03:20Z</time>
      </trkpt>
      <trkpt lat="43.48672" lon="6.79406">
        <ele>364</ele>
        <time>2011-06-03T11:03:21Z</time>
      </trkpt>
      <trkpt lat="43.4867" lon="6.79406">
        <ele>364</ele>
        <time>2011-06-03T11:03:22Z</time>
      </trkpt>
      <trkpt lat="43.48667" lon="6.79406">
        <ele>364</ele>
        <time>2011-06-03T11:03:23Z</time>
      </trkpt>
      <trkpt lat="43.48665" lon="6.79407">
        <ele>364</ele>
        <time>2011-06-03T11:03:24Z</time>
      </trkpt>
      <trkpt lat="43.48661" lon="6.79406">
        <ele>364</ele>
        <time>2011-06-03T11:03:25Z</time>
      </trkpt>
      <trkpt lat="43.48658" lon="6.79406">
        <ele>364</ele>
        <time>2011-06-03T11:03:26Z</time>
      </trkpt>
      <trkpt lat="43.48655" lon="6.79406">
        <ele>364</ele>
        <time>2011-06-03T11:03:29Z</time>
      </trkpt>
      <trkpt lat="43.48655" lon="6.79406">
        <ele>363.99691772461</ele>
        <time>2011-06-03T11:03:29Z</time>
      </trkpt>
      <trkpt lat="43.48655" lon="6.79406">
        <ele>363.99337768555</ele>
        <time>2011-06-03T11:03:29Z</time>
      </trkpt>
      <trkpt lat="43.48652" lon="6.79406">
        <ele>363.17202758789</ele>
        <time>2011-06-03T11:03:30Z</time>
      </trkpt>
      <trkpt lat="43.48644" lon="6.79405">
        <ele>362</ele>
        <time>2011-06-03T11:03:31Z</time>
      </trkpt>
      <trkpt lat="43.48641" lon="6.79405">
        <ele>362</ele>
        <time>2011-06-03T11:03:32Z</time>
      </trkpt>
      <trkpt lat="43.48639" lon="6.79406">
        <ele>362</ele>
        <time>2011-06-03T11:03:33Z</time>
      </trkpt>
      <trkpt lat="43.48635" lon="6.79407">
        <ele>362</ele>
        <time>2011-06-03T11:03:34Z</time>
      </trkpt>
      <trkpt lat="43.48633" lon="6.79407">
        <ele>361</ele>
        <time>2011-06-03T11:03:35Z</time>
      </trkpt>
      <trkpt lat="43.4863" lon="6.79407">
        <ele>362</ele>
        <time>2011-06-03T11:03:36Z</time>
      </trkpt>
      <trkpt lat="43.4863" lon="6.79405">
        <ele>362</ele>
        <time>2011-06-03T11:03:37Z</time>
      </trkpt>
      <trkpt lat="43.48627" lon="6.79404">
        <ele>361</ele>
        <time>2011-06-03T11:03:38Z</time>
      </trkpt>
      <trkpt lat="43.48623" lon="6.79403">
        <ele>361</ele>
        <time>2011-06-03T11:03:39Z</time>
      </trkpt>
      <trkpt lat="43.48621" lon="6.79401">
        <ele>361</ele>
        <time>2011-06-03T11:03:40Z</time>
      </trkpt>
      <trkpt lat="43.48619" lon="6.79399">
        <ele>360</ele>
        <time>2011-06-03T11:03:41Z</time>
      </trkpt>
      <trkpt lat="43.48616" lon="6.79398">
        <ele>360</ele>
        <time>2011-06-03T11:03:42Z</time>
      </trkpt>
      <trkpt lat="43.48612" lon="6.79397">
        <ele>360</ele>
        <time>2011-06-03T11:03:43Z</time>
      </trkpt>
      <trkpt lat="43.48612" lon="6.79396">
        <ele>359</ele>
        <time>2011-06-03T11:03:44Z</time>
      </trkpt>
      <trkpt lat="43.4861" lon="6.79394">
        <ele>357</ele>
        <time>2011-06-03T11:03:45Z</time>
      </trkpt>
      <trkpt lat="43.48607" lon="6.79392">
        <ele>358</ele>
        <time>2011-06-03T11:03:46Z</time>
      </trkpt>
      <trkpt lat="43.48605" lon="6.79391">
        <ele>359</ele>
        <time>2011-06-03T11:03:47Z</time>
      </trkpt>
      <trkpt lat="43.48603" lon="6.79389">
        <ele>358</ele>
        <time>2011-06-03T11:03:48Z</time>
      </trkpt>
      <trkpt lat="43.48601" lon="6.79389">
        <ele>358</ele>
        <time>2011-06-03T11:03:49Z</time>
      </trkpt>
      <trkpt lat="43.48598" lon="6.79387">
        <ele>358</ele>
        <time>2011-06-03T11:03:51Z</time>
      </trkpt>
      <trkpt lat="43.48598" lon="6.79387">
        <ele>358</ele>
        <time>2011-06-03T11:03:51Z</time>
      </trkpt>
      <trkpt lat="43.48597" lon="6.79386">
        <ele>357.72198486328</ele>
        <time>2011-06-03T11:03:52Z</time>
      </trkpt>
      <trkpt lat="43.4859" lon="6.79384">
        <ele>357</ele>
        <time>2011-06-03T11:03:53Z</time>
      </trkpt>
      <trkpt lat="43.48588" lon="6.79382">
        <ele>358</ele>
        <time>2011-06-03T11:03:54Z</time>
      </trkpt>
      <trkpt lat="43.48584" lon="6.7938">
        <ele>358</ele>
        <time>2011-06-03T11:03:55Z</time>
      </trkpt>
      <trkpt lat="43.48582" lon="6.7938">
        <ele>357</ele>
        <time>2011-06-03T11:03:56Z</time>
      </trkpt>
      <trkpt lat="43.4858" lon="6.79378">
        <ele>357</ele>
        <time>2011-06-03T11:03:57Z</time>
      </trkpt>
      <trkpt lat="43.48577" lon="6.79377">
        <ele>357</ele>
        <time>2011-06-03T11:03:58Z</time>
      </trkpt>
      <trkpt lat="43.48575" lon="6.79376">
        <ele>357</ele>
        <time>2011-06-03T11:03:59Z</time>
      </trkpt>
      <trkpt lat="43.48573" lon="6.79375">
        <ele>357</ele>
        <time>2011-06-03T11:04:00Z</time>
      </trkpt>
      <trkpt lat="43.48571" lon="6.79374">
        <ele>357</ele>
        <time>2011-06-03T11:04:01Z</time>
      </trkpt>
      <trkpt lat="43.48569" lon="6.79372">
        <ele>356</ele>
        <time>2011-06-03T11:04:02Z</time>
      </trkpt>
      <trkpt lat="43.48568" lon="6.7937">
        <ele>356</ele>
        <time>2011-06-03T11:04:03Z</time>
      </trkpt>
      <trkpt lat="43.48566" lon="6.79367">
        <ele>355</ele>
        <time>2011-06-03T11:04:04Z</time>
      </trkpt>
      <trkpt lat="43.48565" lon="6.79363">
        <ele>355</ele>
        <time>2011-06-03T11:04:05Z</time>
      </trkpt>
      <trkpt lat="43.48564" lon="6.79361">
        <ele>355</ele>
        <time>2011-06-03T11:04:06Z</time>
      </trkpt>
      <trkpt lat="43.48562" lon="6.79358">
        <ele>354</ele>
        <time>2011-06-03T11:04:07Z</time>
      </trkpt>
      <trkpt lat="43.4856" lon="6.79357">
        <ele>354</ele>
        <time>2011-06-03T11:04:08Z</time>
      </trkpt>
      <trkpt lat="43.48558" lon="6.79355">
        <ele>354</ele>
        <time>2011-06-03T11:04:09Z</time>
      </trkpt>
      <trkpt lat="43.48556" lon="6.79353">
        <ele>354</ele>
        <time>2011-06-03T11:04:10Z</time>
      </trkpt>
      <trkpt lat="43.48554" lon="6.7935">
        <ele>353</ele>
        <time>2011-06-03T11:04:11Z</time>
      </trkpt>
      <trkpt lat="43.48552" lon="6.79348">
        <ele>353</ele>
        <time>2011-06-03T11:04:12Z</time>
      </trkpt>
      <trkpt lat="43.4855" lon="6.79346">
        <ele>353</ele>
        <time>2011-06-03T11:04:14Z</time>
      </trkpt>
      <trkpt lat="43.4855" lon="6.79346">
        <ele>352.99740600586</ele>
        <time>2011-06-03T11:04:14Z</time>
      </trkpt>
      <trkpt lat="43.48549" lon="6.79345">
        <ele>352.99765014648</ele>
        <time>2011-06-03T11:04:15Z</time>
      </trkpt>
      <trkpt lat="43.48545" lon="6.79339">
        <ele>352.28427124023</ele>
        <time>2011-06-03T11:04:16Z</time>
      </trkpt>
      <trkpt lat="43.48542" lon="6.79334">
        <ele>352</ele>
        <time>2011-06-03T11:04:17Z</time>
      </trkpt>
      <trkpt lat="43.48539" lon="6.79333">
        <ele>351</ele>
        <time>2011-06-03T11:04:18Z</time>
      </trkpt>
      <trkpt lat="43.48538" lon="6.79329">
        <ele>351</ele>
        <time>2011-06-03T11:04:19Z</time>
      </trkpt>
      <trkpt lat="43.48536" lon="6.79325">
        <ele>350</ele>
        <time>2011-06-03T11:04:20Z</time>
      </trkpt>
      <trkpt lat="43.48536" lon="6.79321">
        <ele>350</ele>
        <time>2011-06-03T11:04:21Z</time>
      </trkpt>
      <trkpt lat="43.48536" lon="6.79318">
        <ele>350</ele>
        <time>2011-06-03T11:04:22Z</time>
      </trkpt>
      <trkpt lat="43.48536" lon="6.79316">
        <ele>350</ele>
        <time>2011-06-03T11:04:23Z</time>
      </trkpt>
      <trkpt lat="43.48535" lon="6.79312">
        <ele>350</ele>
        <time>2011-06-03T11:04:24Z</time>
      </trkpt>
      <trkpt lat="43.48534" lon="6.79311">
        <ele>351</ele>
        <time>2011-06-03T11:04:25Z</time>
      </trkpt>
      <trkpt lat="43.48532" lon="6.79311">
        <ele>351</ele>
        <time>2011-06-03T11:04:26Z</time>
      </trkpt>
      <trkpt lat="43.48531" lon="6.79312">
        <ele>351</ele>
        <time>2011-06-03T11:04:27Z</time>
      </trkpt>
      <trkpt lat="43.48529" lon="6.79313">
        <ele>351</ele>
        <time>2011-06-03T11:04:28Z</time>
      </trkpt>
      <trkpt lat="43.48527" lon="6.79313">
        <ele>351</ele>
        <time>2011-06-03T11:04:29Z</time>
      </trkpt>
      <trkpt lat="43.48525" lon="6.79313">
        <ele>352</ele>
        <time>2011-06-03T11:04:30Z</time>
      </trkpt>
      <trkpt lat="43.48522" lon="6.79314">
        <ele>351</ele>
        <time>2011-06-03T11:04:31Z</time>
      </trkpt>
      <trkpt lat="43.4852" lon="6.79314">
        <ele>352</ele>
        <time>2011-06-03T11:04:32Z</time>
      </trkpt>
      <trkpt lat="43.48516" lon="6.79315">
        <ele>350</ele>
        <time>2011-06-03T11:04:33Z</time>
      </trkpt>
      <trkpt lat="43.48514" lon="6.79316">
        <ele>351</ele>
        <time>2011-06-03T11:04:34Z</time>
      </trkpt>
      <trkpt lat="43.48511" lon="6.79316">
        <ele>350</ele>
        <time>2011-06-03T11:04:35Z</time>
      </trkpt>
      <trkpt lat="43.48508" lon="6.79316">
        <ele>350</ele>
        <time>2011-06-03T11:04:37Z</time>
      </trkpt>
      <trkpt lat="43.48508" lon="6.79316">
        <ele>349.99575805664</ele>
        <time>2011-06-03T11:04:37Z</time>
      </trkpt>
      <trkpt lat="43.48506" lon="6.79316">
        <ele>349.62121582031</ele>
        <time>2011-06-03T11:04:38Z</time>
      </trkpt>
      <trkpt lat="43.485" lon="6.79316">
        <ele>348.12701416016</ele>
        <time>2011-06-03T11:04:39Z</time>
      </trkpt>
      <trkpt lat="43.48497" lon="6.79315">
        <ele>348</ele>
        <time>2011-06-03T11:04:40Z</time>
      </trkpt>
      <trkpt lat="43.48494" lon="6.79314">
        <ele>347</ele>
        <time>2011-06-03T11:04:41Z</time>
      </trkpt>
      <trkpt lat="43.48492" lon="6.79313">
        <ele>346</ele>
        <time>2011-06-03T11:04:42Z</time>
      </trkpt>
      <trkpt lat="43.4849" lon="6.79312">
        <ele>344</ele>
        <time>2011-06-03T11:04:43Z</time>
      </trkpt>
      <trkpt lat="43.48486" lon="6.79312">
        <ele>344</ele>
        <time>2011-06-03T11:04:44Z</time>
      </trkpt>
      <trkpt lat="43.48484" lon="6.79311">
        <ele>344</ele>
        <time>2011-06-03T11:04:45Z</time>
      </trkpt>
      <trkpt lat="43.48481" lon="6.7931">
        <ele>344</ele>
        <time>2011-06-03T11:04:46Z</time>
      </trkpt>
      <trkpt lat="43.48479" lon="6.79308">
        <ele>345</ele>
        <time>2011-06-03T11:04:47Z</time>
      </trkpt>
      <trkpt lat="43.48478" lon="6.79304">
        <ele>345</ele>
        <time>2011-06-03T11:04:48Z</time>
      </trkpt>
      <trkpt lat="43.48476" lon="6.79301">
        <ele>344</ele>
        <time>2011-06-03T11:04:49Z</time>
      </trkpt>
      <trkpt lat="43.48475" lon="6.79298">
        <ele>344</ele>
        <time>2011-06-03T11:04:50Z</time>
      </trkpt>
      <trkpt lat="43.48473" lon="6.79295">
        <ele>344</ele>
        <time>2011-06-03T11:04:51Z</time>
      </trkpt>
      <trkpt lat="43.48473" lon="6.79292">
        <ele>343</ele>
        <time>2011-06-03T11:04:52Z</time>
      </trkpt>
      <trkpt lat="43.48472" lon="6.79289">
        <ele>343</ele>
        <time>2011-06-03T11:04:53Z</time>
      </trkpt>
      <trkpt lat="43.48472" lon="6.79286">
        <ele>343</ele>
        <time>2011-06-03T11:04:54Z</time>
      </trkpt>
      <trkpt lat="43.48471" lon="6.79281">
        <ele>343</ele>
        <time>2011-06-03T11:04:55Z</time>
      </trkpt>
      <trkpt lat="43.48471" lon="6.79277">
        <ele>343</ele>
        <time>2011-06-03T11:04:56Z</time>
      </trkpt>
      <trkpt lat="43.4847" lon="6.79274">
        <ele>343</ele>
        <time>2011-06-03T11:04:57Z</time>
      </trkpt>
      <trkpt lat="43.4847" lon="6.79271">
        <ele>342</ele>
        <time>2011-06-03T11:04:58Z</time>
      </trkpt>
      <trkpt lat="43.48469" lon="6.79268">
        <ele>343</ele>
        <time>2011-06-03T11:05:01Z</time>
      </trkpt>
      <trkpt lat="43.48469" lon="6.79268">
        <ele>343</ele>
        <time>2011-06-03T11:05:01Z</time>
      </trkpt>
      <trkpt lat="43.48469" lon="6.79268">
        <ele>342.99899291992</ele>
        <time>2011-06-03T11:05:01Z</time>
      </trkpt>
      <trkpt lat="43.48469" lon="6.79264">
        <ele>342.9992980957</ele>
        <time>2011-06-03T11:05:02Z</time>
      </trkpt>
      <trkpt lat="43.48467" lon="6.79254">
        <ele>342.17391967773</ele>
        <time>2011-06-03T11:05:03Z</time>
      </trkpt>
      <trkpt lat="43.48466" lon="6.79249">
        <ele>342</ele>
        <time>2011-06-03T11:05:04Z</time>
      </trkpt>
      <trkpt lat="43.48465" lon="6.79244">
        <ele>341</ele>
        <time>2011-06-03T11:05:05Z</time>
      </trkpt>
      <trkpt lat="43.48464" lon="6.7924">
        <ele>341</ele>
        <time>2011-06-03T11:05:06Z</time>
      </trkpt>
      <trkpt lat="43.48465" lon="6.79237">
        <ele>341</ele>
        <time>2011-06-03T11:05:07Z</time>
      </trkpt>
      <trkpt lat="43.48464" lon="6.79233">
        <ele>340</ele>
        <time>2011-06-03T11:05:08Z</time>
      </trkpt>
      <trkpt lat="43.48464" lon="6.79229">
        <ele>339</ele>
        <time>2011-06-03T11:05:09Z</time>
      </trkpt>
      <trkpt lat="43.48463" lon="6.79224">
        <ele>339</ele>
        <time>2011-06-03T11:05:10Z</time>
      </trkpt>
      <trkpt lat="43.48462" lon="6.79221">
        <ele>339</ele>
        <time>2011-06-03T11:05:11Z</time>
      </trkpt>
      <trkpt lat="43.48461" lon="6.79216">
        <ele>339</ele>
        <time>2011-06-03T11:05:12Z</time>
      </trkpt>
      <trkpt lat="43.4846" lon="6.79213">
        <ele>339</ele>
        <time>2011-06-03T11:05:13Z</time>
      </trkpt>
      <trkpt lat="43.48459" lon="6.79209">
        <ele>339</ele>
        <time>2011-06-03T11:05:14Z</time>
      </trkpt>
      <trkpt lat="43.48458" lon="6.79206">
        <ele>338</ele>
        <time>2011-06-03T11:05:15Z</time>
      </trkpt>
      <trkpt lat="43.48458" lon="6.79201">
        <ele>338</ele>
        <time>2011-06-03T11:05:16Z</time>
      </trkpt>
      <trkpt lat="43.48458" lon="6.79198">
        <ele>338</ele>
        <time>2011-06-03T11:05:17Z</time>
      </trkpt>
      <trkpt lat="43.48457" lon="6.79194">
        <ele>338</ele>
        <time>2011-06-03T11:05:18Z</time>
      </trkpt>
      <trkpt lat="43.48456" lon="6.7919">
        <ele>338</ele>
        <time>2011-06-03T11:05:19Z</time>
      </trkpt>
      <trkpt lat="43.48456" lon="6.79186">
        <ele>338</ele>
        <time>2011-06-03T11:05:20Z</time>
      </trkpt>
      <trkpt lat="43.48455" lon="6.79183">
        <ele>338</ele>
        <time>2011-06-03T11:05:21Z</time>
      </trkpt>
      <trkpt lat="43.48455" lon="6.7918">
        <ele>338</ele>
        <time>2011-06-03T11:05:22Z</time>
      </trkpt>
      <trkpt lat="43.48455" lon="6.79177">
        <ele>338</ele>
        <time>2011-06-03T11:05:24Z</time>
      </trkpt>
      <trkpt lat="43.48455" lon="6.79177">
        <ele>338</ele>
        <time>2011-06-03T11:05:24Z</time>
      </trkpt>
      <trkpt lat="43.48454" lon="6.79175">
        <ele>337.78546142578</ele>
        <time>2011-06-03T11:05:25Z</time>
      </trkpt>
      <trkpt lat="43.48453" lon="6.79167">
        <ele>337.25296020508</ele>
        <time>2011-06-03T11:05:26Z</time>
      </trkpt>
      <trkpt lat="43.48452" lon="6.7916">
        <ele>337</ele>
        <time>2011-06-03T11:05:27Z</time>
      </trkpt>
      <trkpt lat="43.48451" lon="6.79157">
        <ele>337</ele>
        <time>2011-06-03T11:05:28Z</time>
      </trkpt>
      <trkpt lat="43.48451" lon="6.79154">
        <ele>336</ele>
        <time>2011-06-03T11:05:29Z</time>
      </trkpt>
      <trkpt lat="43.48452" lon="6.7915">
        <ele>337</ele>
        <time>2011-06-03T11:05:30Z</time>
      </trkpt>
      <trkpt lat="43.48451" lon="6.79147">
        <ele>337</ele>
        <time>2011-06-03T11:05:31Z</time>
      </trkpt>
      <trkpt lat="43.4845" lon="6.79142">
        <ele>336</ele>
        <time>2011-06-03T11:05:32Z</time>
      </trkpt>
      <trkpt lat="43.48449" lon="6.79138">
        <ele>336</ele>
        <time>2011-06-03T11:05:33Z</time>
      </trkpt>
      <trkpt lat="43.48448" lon="6.79134">
        <ele>335</ele>
        <time>2011-06-03T11:05:34Z</time>
      </trkpt>
      <trkpt lat="43.48448" lon="6.79131">
        <ele>335</ele>
        <time>2011-06-03T11:05:35Z</time>
      </trkpt>
      <trkpt lat="43.48448" lon="6.79127">
        <ele>335</ele>
        <time>2011-06-03T11:05:36Z</time>
      </trkpt>
      <trkpt lat="43.48449" lon="6.79124">
        <ele>335</ele>
        <time>2011-06-03T11:05:37Z</time>
      </trkpt>
      <trkpt lat="43.48449" lon="6.7912">
        <ele>334</ele>
        <time>2011-06-03T11:05:38Z</time>
      </trkpt>
      <trkpt lat="43.48449" lon="6.79117">
        <ele>334</ele>
        <time>2011-06-03T11:05:39Z</time>
      </trkpt>
      <trkpt lat="43.48449" lon="6.79112">
        <ele>334</ele>
        <time>2011-06-03T11:05:40Z</time>
      </trkpt>
      <trkpt lat="43.48449" lon="6.79109">
        <ele>333</ele>
        <time>2011-06-03T11:05:41Z</time>
      </trkpt>
      <trkpt lat="43.48448" lon="6.79105">
        <ele>334</ele>
        <time>2011-06-03T11:05:42Z</time>
      </trkpt>
      <trkpt lat="43.48447" lon="6.79102">
        <ele>334</ele>
        <time>2011-06-03T11:05:43Z</time>
      </trkpt>
      <trkpt lat="43.48446" lon="6.79099">
        <ele>334</ele>
        <time>2011-06-03T11:05:44Z</time>
      </trkpt>
      <trkpt lat="43.48446" lon="6.79095">
        <ele>334</ele>
        <time>2011-06-03T11:05:45Z</time>
      </trkpt>
      <trkpt lat="43.48444" lon="6.79091">
        <ele>334</ele>
        <time>2011-06-03T11:05:48Z</time>
      </trkpt>
      <trkpt lat="43.48444" lon="6.79091">
        <ele>333.99758911133</ele>
        <time>2011-06-03T11:05:48Z</time>
      </trkpt>
      <trkpt lat="43.48444" lon="6.79091">
        <ele>333.97814941406</ele>
        <time>2011-06-03T11:05:48Z</time>
      </trkpt>
      <trkpt lat="43.48445" lon="6.79084">
        <ele>333.41427612305</ele>
        <time>2011-06-03T11:05:49Z</time>
      </trkpt>
      <trkpt lat="43.48447" lon="6.79075">
        <ele>333</ele>
        <time>2011-06-03T11:05:50Z</time>
      </trkpt>
      <trkpt lat="43.48448" lon="6.79071">
        <ele>333</ele>
        <time>2011-06-03T11:05:51Z</time>
      </trkpt>
      <trkpt lat="43.48448" lon="6.79069">
        <ele>334</ele>
        <time>2011-06-03T11:05:52Z</time>
      </trkpt>
      <trkpt lat="43.48448" lon="6.79066">
        <ele>333</ele>
        <time>2011-06-03T11:05:53Z</time>
      </trkpt>
      <trkpt lat="43.48446" lon="6.79063">
        <ele>334</ele>
        <time>2011-06-03T11:05:54Z</time>
      </trkpt>
      <trkpt lat="43.48446" lon="6.79063">
        <ele>334</ele>
        <time>2011-06-03T11:05:55Z</time>
      </trkpt>
      <trkpt lat="43.48445" lon="6.79064">
        <ele>334</ele>
        <time>2011-06-03T11:05:56Z</time>
      </trkpt>
      <trkpt lat="43.48443" lon="6.79066">
        <ele>334</ele>
        <time>2011-06-03T11:05:57Z</time>
      </trkpt>
      <trkpt lat="43.4844" lon="6.79069">
        <ele>334</ele>
        <time>2011-06-03T11:05:58Z</time>
      </trkpt>
      <trkpt lat="43.48439" lon="6.7907">
        <ele>333</ele>
        <time>2011-06-03T11:05:59Z</time>
      </trkpt>
      <trkpt lat="43.48436" lon="6.79071">
        <ele>331</ele>
        <time>2011-06-03T11:06:00Z</time>
      </trkpt>
      <trkpt lat="43.48433" lon="6.79074">
        <ele>330</ele>
        <time>2011-06-03T11:06:01Z</time>
      </trkpt>
      <trkpt lat="43.48431" lon="6.79076">
        <ele>329</ele>
        <time>2011-06-03T11:06:02Z</time>
      </trkpt>
      <trkpt lat="43.48428" lon="6.79077">
        <ele>328</ele>
        <time>2011-06-03T11:06:03Z</time>
      </trkpt>
      <trkpt lat="43.48426" lon="6.79078">
        <ele>327</ele>
        <time>2011-06-03T11:06:04Z</time>
      </trkpt>
      <trkpt lat="43.48423" lon="6.7908">
        <ele>327</ele>
        <time>2011-06-03T11:06:05Z</time>
      </trkpt>
      <trkpt lat="43.4842" lon="6.79082">
        <ele>328</ele>
        <time>2011-06-03T11:06:06Z</time>
      </trkpt>
      <trkpt lat="43.48417" lon="6.79083">
        <ele>328</ele>
        <time>2011-06-03T11:06:07Z</time>
      </trkpt>
      <trkpt lat="43.48414" lon="6.79083">
        <ele>328</ele>
        <time>2011-06-03T11:06:08Z</time>
      </trkpt>
      <trkpt lat="43.48412" lon="6.79083">
        <ele>328</ele>
        <time>2011-06-03T11:06:11Z</time>
      </trkpt>
      <trkpt lat="43.48412" lon="6.79083">
        <ele>328.00677490234</ele>
        <time>2011-06-03T11:06:11Z</time>
      </trkpt>
      <trkpt lat="43.48412" lon="6.79083">
        <ele>328.00668334961</ele>
        <time>2011-06-03T11:06:11Z</time>
      </trkpt>
      <trkpt lat="43.48408" lon="6.79084">
        <ele>327.6042175293</ele>
        <time>2011-06-03T11:06:12Z</time>
      </trkpt>
      <trkpt lat="43.484" lon="6.79086">
        <ele>327.14599609375</ele>
        <time>2011-06-03T11:06:13Z</time>
      </trkpt>
      <trkpt lat="43.48395" lon="6.79089">
        <ele>328</ele>
        <time>2011-06-03T11:06:14Z</time>
      </trkpt>
      <trkpt lat="43.48391" lon="6.7909">
        <ele>328</ele>
        <time>2011-06-03T11:06:15Z</time>
      </trkpt>
      <trkpt lat="43.48388" lon="6.79091">
        <ele>328</ele>
        <time>2011-06-03T11:06:16Z</time>
      </trkpt>
      <trkpt lat="43.48385" lon="6.79091">
        <ele>328</ele>
        <time>2011-06-03T11:06:17Z</time>
      </trkpt>
      <trkpt lat="43.48383" lon="6.79089">
        <ele>328</ele>
        <time>2011-06-03T11:06:18Z</time>
      </trkpt>
      <trkpt lat="43.4838" lon="6.79088">
        <ele>327</ele>
        <time>2011-06-03T11:06:19Z</time>
      </trkpt>
      <trkpt lat="43.48376" lon="6.79088">
        <ele>327</ele>
        <time>2011-06-03T11:06:20Z</time>
      </trkpt>
      <trkpt lat="43.48375" lon="6.79088">
        <ele>327</ele>
        <time>2011-06-03T11:06:21Z</time>
      </trkpt>
      <trkpt lat="43.48373" lon="6.79088">
        <ele>326</ele>
        <time>2011-06-03T11:06:22Z</time>
      </trkpt>
      <trkpt lat="43.48373" lon="6.79088">
        <ele>327</ele>
        <time>2011-06-03T11:06:23Z</time>
      </trkpt>
      <trkpt lat="43.48372" lon="6.79088">
        <ele>326</ele>
        <time>2011-06-03T11:06:24Z</time>
      </trkpt>
      <trkpt lat="43.4837" lon="6.7909">
        <ele>326</ele>
        <time>2011-06-03T11:06:25Z</time>
      </trkpt>
      <trkpt lat="43.48367" lon="6.79092">
        <ele>325</ele>
        <time>2011-06-03T11:06:26Z</time>
      </trkpt>
      <trkpt lat="43.48365" lon="6.79093">
        <ele>324</ele>
        <time>2011-06-03T11:06:27Z</time>
      </trkpt>
      <trkpt lat="43.48363" lon="6.79095">
        <ele>322</ele>
        <time>2011-06-03T11:06:28Z</time>
      </trkpt>
      <trkpt lat="43.48361" lon="6.79096">
        <ele>321</ele>
        <time>2011-06-03T11:06:29Z</time>
      </trkpt>
      <trkpt lat="43.48359" lon="6.79098">
        <ele>321</ele>
        <time>2011-06-03T11:06:30Z</time>
      </trkpt>
      <trkpt lat="43.48356" lon="6.79099">
        <ele>320</ele>
        <time>2011-06-03T11:06:31Z</time>
      </trkpt>
      <trkpt lat="43.48352" lon="6.79101">
        <ele>319</ele>
        <time>2011-06-03T11:06:33Z</time>
      </trkpt>
      <trkpt lat="43.48352" lon="6.79101">
        <ele>318.99627685547</ele>
        <time>2011-06-03T11:06:33Z</time>
      </trkpt>
      <trkpt lat="43.4835" lon="6.79102">
        <ele>318.45346069336</ele>
        <time>2011-06-03T11:06:34Z</time>
      </trkpt>
      <trkpt lat="43.48343" lon="6.79104">
        <ele>316.03967285156</ele>
        <time>2011-06-03T11:06:35Z</time>
      </trkpt>
      <trkpt lat="43.48341" lon="6.79105">
        <ele>315</ele>
        <time>2011-06-03T11:06:36Z</time>
      </trkpt>
      <trkpt lat="43.48338" lon="6.79105">
        <ele>315</ele>
        <time>2011-06-03T11:06:37Z</time>
      </trkpt>
      <trkpt lat="43.48336" lon="6.79105">
        <ele>315</ele>
        <time>2011-06-03T11:06:38Z</time>
      </trkpt>
      <trkpt lat="43.48333" lon="6.79106">
        <ele>315</ele>
        <time>2011-06-03T11:06:39Z</time>
      </trkpt>
      <trkpt lat="43.48331" lon="6.79106">
        <ele>312</ele>
        <time>2011-06-03T11:06:40Z</time>
      </trkpt>
      <trkpt lat="43.48328" lon="6.79106">
        <ele>310</ele>
        <time>2011-06-03T11:06:41Z</time>
      </trkpt>
      <trkpt lat="43.48325" lon="6.79107">
        <ele>310</ele>
        <time>2011-06-03T11:06:42Z</time>
      </trkpt>
      <trkpt lat="43.48322" lon="6.79108">
        <ele>310</ele>
        <time>2011-06-03T11:06:43Z</time>
      </trkpt>
      <trkpt lat="43.48318" lon="6.7911">
        <ele>310</ele>
        <time>2011-06-03T11:06:44Z</time>
      </trkpt>
      <trkpt lat="43.48316" lon="6.79111">
        <ele>309</ele>
        <time>2011-06-03T11:06:45Z</time>
      </trkpt>
      <trkpt lat="43.48313" lon="6.79112">
        <ele>309</ele>
        <time>2011-06-03T11:06:46Z</time>
      </trkpt>
      <trkpt lat="43.48311" lon="6.79113">
        <ele>309</ele>
        <time>2011-06-03T11:06:47Z</time>
      </trkpt>
      <trkpt lat="43.48309" lon="6.79113">
        <ele>308</ele>
        <time>2011-06-03T11:06:48Z</time>
      </trkpt>
      <trkpt lat="43.48307" lon="6.79114">
        <ele>308</ele>
        <time>2011-06-03T11:06:49Z</time>
      </trkpt>
      <trkpt lat="43.48303" lon="6.79115">
        <ele>308</ele>
        <time>2011-06-03T11:06:50Z</time>
      </trkpt>
      <trkpt lat="43.483" lon="6.79115">
        <ele>308</ele>
        <time>2011-06-03T11:06:51Z</time>
      </trkpt>
      <trkpt lat="43.48297" lon="6.79115">
        <ele>309</ele>
        <time>2011-06-03T11:06:52Z</time>
      </trkpt>
      <trkpt lat="43.48295" lon="6.79115">
        <ele>308</ele>
        <time>2011-06-03T11:06:53Z</time>
      </trkpt>
      <trkpt lat="43.48292" lon="6.79117">
        <ele>308</ele>
        <time>2011-06-03T11:06:54Z</time>
      </trkpt>
      <trkpt lat="43.48289" lon="6.79117">
        <ele>308</ele>
        <time>2011-06-03T11:06:57Z</time>
      </trkpt>
      <trkpt lat="43.48289" lon="6.79117">
        <ele>308.00680541992</ele>
        <time>2011-06-03T11:06:57Z</time>
      </trkpt>
      <trkpt lat="43.48289" lon="6.79117">
        <ele>308.00848388672</ele>
        <time>2011-06-03T11:06:57Z</time>
      </trkpt>
      <trkpt lat="43.48285" lon="6.7912">
        <ele>308.00402832031</ele>
        <time>2011-06-03T11:06:58Z</time>
      </trkpt>
      <trkpt lat="43.48278" lon="6.79124">
        <ele>308</ele>
        <time>2011-06-03T11:06:59Z</time>
      </trkpt>
      <trkpt lat="43.48275" lon="6.79125">
        <ele>306</ele>
        <time>2011-06-03T11:07:00Z</time>
      </trkpt>
      <trkpt lat="43.48272" lon="6.79126">
        <ele>306</ele>
        <time>2011-06-03T11:07:01Z</time>
      </trkpt>
      <trkpt lat="43.48271" lon="6.79128">
        <ele>306</ele>
        <time>2011-06-03T11:07:02Z</time>
      </trkpt>
      <trkpt lat="43.48268" lon="6.79131">
        <ele>307</ele>
        <time>2011-06-03T11:07:03Z</time>
      </trkpt>
      <trkpt lat="43.48265" lon="6.79132">
        <ele>307</ele>
        <time>2011-06-03T11:07:04Z</time>
      </trkpt>
      <trkpt lat="43.48263" lon="6.79133">
        <ele>307</ele>
        <time>2011-06-03T11:07:05Z</time>
      </trkpt>
      <trkpt lat="43.48259" lon="6.79134">
        <ele>307</ele>
        <time>2011-06-03T11:07:06Z</time>
      </trkpt>
      <trkpt lat="43.48257" lon="6.79134">
        <ele>307</ele>
        <time>2011-06-03T11:07:07Z</time>
      </trkpt>
      <trkpt lat="43.48253" lon="6.79134">
        <ele>308</ele>
        <time>2011-06-03T11:07:08Z</time>
      </trkpt>
      <trkpt lat="43.4825" lon="6.79133">
        <ele>308</ele>
        <time>2011-06-03T11:07:09Z</time>
      </trkpt>
      <trkpt lat="43.48247" lon="6.79133">
        <ele>308</ele>
        <time>2011-06-03T11:07:10Z</time>
      </trkpt>
      <trkpt lat="43.48244" lon="6.79133">
        <ele>308</ele>
        <time>2011-06-03T11:07:11Z</time>
      </trkpt>
      <trkpt lat="43.48242" lon="6.79133">
        <ele>308</ele>
        <time>2011-06-03T11:07:12Z</time>
      </trkpt>
      <trkpt lat="43.48239" lon="6.79132">
        <ele>307</ele>
        <time>2011-06-03T11:07:13Z</time>
      </trkpt>
      <trkpt lat="43.48236" lon="6.7913">
        <ele>305</ele>
        <time>2011-06-03T11:07:14Z</time>
      </trkpt>
      <trkpt lat="43.48234" lon="6.7913">
        <ele>304</ele>
        <time>2011-06-03T11:07:15Z</time>
      </trkpt>
      <trkpt lat="43.48231" lon="6.79129">
        <ele>302</ele>
        <time>2011-06-03T11:07:16Z</time>
      </trkpt>
      <trkpt lat="43.48229" lon="6.79129">
        <ele>302</ele>
        <time>2011-06-03T11:07:17Z</time>
      </trkpt>
      <trkpt lat="43.48227" lon="6.79128">
        <ele>302</ele>
        <time>2011-06-03T11:07:19Z</time>
      </trkpt>
      <trkpt lat="43.48227" lon="6.79128">
        <ele>302</ele>
        <time>2011-06-03T11:07:19Z</time>
      </trkpt>
      <trkpt lat="43.48225" lon="6.79127">
        <ele>302</ele>
        <time>2011-06-03T11:07:20Z</time>
      </trkpt>
      <trkpt lat="43.4822" lon="6.79126">
        <ele>302.78588867188</ele>
        <time>2011-06-03T11:07:21Z</time>
      </trkpt>
      <trkpt lat="43.48215" lon="6.79125">
        <ele>302</ele>
        <time>2011-06-03T11:07:22Z</time>
      </trkpt>
      <trkpt lat="43.48213" lon="6.79124">
        <ele>302</ele>
        <time>2011-06-03T11:07:23Z</time>
      </trkpt>
      <trkpt lat="43.4821" lon="6.79122">
        <ele>302</ele>
        <time>2011-06-03T11:07:24Z</time>
      </trkpt>
      <trkpt lat="43.48206" lon="6.79121">
        <ele>302</ele>
        <time>2011-06-03T11:07:25Z</time>
      </trkpt>
      <trkpt lat="43.48204" lon="6.79121">
        <ele>302</ele>
        <time>2011-06-03T11:07:26Z</time>
      </trkpt>
      <trkpt lat="43.482" lon="6.79121">
        <ele>302</ele>
        <time>2011-06-03T11:07:27Z</time>
      </trkpt>
      <trkpt lat="43.48198" lon="6.79121">
        <ele>301</ele>
        <time>2011-06-03T11:07:28Z</time>
      </trkpt>
      <trkpt lat="43.48195" lon="6.7912">
        <ele>300</ele>
        <time>2011-06-03T11:07:29Z</time>
      </trkpt>
      <trkpt lat="43.48192" lon="6.7912">
        <ele>300</ele>
        <time>2011-06-03T11:07:30Z</time>
      </trkpt>
      <trkpt lat="43.48189" lon="6.79121">
        <ele>300</ele>
        <time>2011-06-03T11:07:31Z</time>
      </trkpt>
      <trkpt lat="43.48186" lon="6.79121">
        <ele>301</ele>
        <time>2011-06-03T11:07:32Z</time>
      </trkpt>
      <trkpt lat="43.48183" lon="6.79122">
        <ele>301</ele>
        <time>2011-06-03T11:07:33Z</time>
      </trkpt>
      <trkpt lat="43.48179" lon="6.79122">
        <ele>301</ele>
        <time>2011-06-03T11:07:34Z</time>
      </trkpt>
      <trkpt lat="43.48177" lon="6.79121">
        <ele>300</ele>
        <time>2011-06-03T11:07:35Z</time>
      </trkpt>
      <trkpt lat="43.48174" lon="6.7912">
        <ele>300</ele>
        <time>2011-06-03T11:07:36Z</time>
      </trkpt>
      <trkpt lat="43.48171" lon="6.79119">
        <ele>301</ele>
        <time>2011-06-03T11:07:37Z</time>
      </trkpt>
      <trkpt lat="43.48167" lon="6.79118">
        <ele>300</ele>
        <time>2011-06-03T11:07:38Z</time>
      </trkpt>
      <trkpt lat="43.48166" lon="6.79118">
        <ele>298</ele>
        <time>2011-06-03T11:07:39Z</time>
      </trkpt>
      <trkpt lat="43.48163" lon="6.79118">
        <ele>298</ele>
        <time>2011-06-03T11:07:40Z</time>
      </trkpt>
      <trkpt lat="43.4816" lon="6.79118">
        <ele>298</ele>
        <time>2011-06-03T11:07:43Z</time>
      </trkpt>
      <trkpt lat="43.4816" lon="6.79118">
        <ele>298</ele>
        <time>2011-06-03T11:07:43Z</time>
      </trkpt>
      <trkpt lat="43.4816" lon="6.79118">
        <ele>298</ele>
        <time>2011-06-03T11:07:43Z</time>
      </trkpt>
      <trkpt lat="43.48156" lon="6.79117">
        <ele>298</ele>
        <time>2011-06-03T11:07:44Z</time>
      </trkpt>
      <trkpt lat="43.48148" lon="6.79116">
        <ele>298</ele>
        <time>2011-06-03T11:07:45Z</time>
      </trkpt>
      <trkpt lat="43.48144" lon="6.79117">
        <ele>298</ele>
        <time>2011-06-03T11:07:46Z</time>
      </trkpt>
      <trkpt lat="43.4814" lon="6.79117">
        <ele>298</ele>
        <time>2011-06-03T11:07:47Z</time>
      </trkpt>
      <trkpt lat="43.48137" lon="6.79116">
        <ele>298</ele>
        <time>2011-06-03T11:07:48Z</time>
      </trkpt>
      <trkpt lat="43.48135" lon="6.79114">
        <ele>298</ele>
        <time>2011-06-03T11:07:49Z</time>
      </trkpt>
      <trkpt lat="43.48132" lon="6.79112">
        <ele>298</ele>
        <time>2011-06-03T11:07:50Z</time>
      </trkpt>
      <trkpt lat="43.48128" lon="6.79111">
        <ele>298</ele>
        <time>2011-06-03T11:07:51Z</time>
      </trkpt>
      <trkpt lat="43.48126" lon="6.7911">
        <ele>297</ele>
        <time>2011-06-03T11:07:52Z</time>
      </trkpt>
      <trkpt lat="43.48123" lon="6.79109">
        <ele>297</ele>
        <time>2011-06-03T11:07:53Z</time>
      </trkpt>
      <trkpt lat="43.4812" lon="6.7911">
        <ele>297</ele>
        <time>2011-06-03T11:07:54Z</time>
      </trkpt>
      <trkpt lat="43.48117" lon="6.7911">
        <ele>298</ele>
        <time>2011-06-03T11:07:55Z</time>
      </trkpt>
      <trkpt lat="43.48113" lon="6.7911">
        <ele>298</ele>
        <time>2011-06-03T11:07:56Z</time>
      </trkpt>
      <trkpt lat="43.48111" lon="6.7911">
        <ele>298</ele>
        <time>2011-06-03T11:07:57Z</time>
      </trkpt>
      <trkpt lat="43.48109" lon="6.79111">
        <ele>298</ele>
        <time>2011-06-03T11:07:58Z</time>
      </trkpt>
      <trkpt lat="43.48106" lon="6.79111">
        <ele>297</ele>
        <time>2011-06-03T11:07:59Z</time>
      </trkpt>
      <trkpt lat="43.48104" lon="6.79111">
        <ele>296</ele>
        <time>2011-06-03T11:08:00Z</time>
      </trkpt>
      <trkpt lat="43.48102" lon="6.7911">
        <ele>296</ele>
        <time>2011-06-03T11:08:01Z</time>
      </trkpt>
      <trkpt lat="43.481" lon="6.79112">
        <ele>295</ele>
        <time>2011-06-03T11:08:02Z</time>
      </trkpt>
      <trkpt lat="43.48098" lon="6.79113">
        <ele>295</ele>
        <time>2011-06-03T11:08:03Z</time>
      </trkpt>
      <trkpt lat="43.48095" lon="6.79113">
        <ele>294</ele>
        <time>2011-06-03T11:08:06Z</time>
      </trkpt>
      <trkpt lat="43.48095" lon="6.79113">
        <ele>294</ele>
        <time>2011-06-03T11:08:06Z</time>
      </trkpt>
      <trkpt lat="43.48095" lon="6.79113">
        <ele>294.05377197266</ele>
        <time>2011-06-03T11:08:06Z</time>
      </trkpt>
      <trkpt lat="43.4809" lon="6.79117">
        <ele>294.02767944336</ele>
        <time>2011-06-03T11:08:07Z</time>
      </trkpt>
      <trkpt lat="43.48083" lon="6.7912">
        <ele>292.49871826172</ele>
        <time>2011-06-03T11:08:08Z</time>
      </trkpt>
      <trkpt lat="43.48078" lon="6.79123">
        <ele>292</ele>
        <time>2011-06-03T11:08:09Z</time>
      </trkpt>
      <trkpt lat="43.48074" lon="6.79123">
        <ele>291</ele>
        <time>2011-06-03T11:08:10Z</time>
      </trkpt>
      <trkpt lat="43.48071" lon="6.79124">
        <ele>292</ele>
        <time>2011-06-03T11:08:11Z</time>
      </trkpt>
      <trkpt lat="43.48068" lon="6.79125">
        <ele>292</ele>
        <time>2011-06-03T11:08:12Z</time>
      </trkpt>
      <trkpt lat="43.48066" lon="6.79125">
        <ele>293</ele>
        <time>2011-06-03T11:08:13Z</time>
      </trkpt>
      <trkpt lat="43.48063" lon="6.79125">
        <ele>292</ele>
        <time>2011-06-03T11:08:14Z</time>
      </trkpt>
      <trkpt lat="43.4806" lon="6.79125">
        <ele>292</ele>
        <time>2011-06-03T11:08:15Z</time>
      </trkpt>
      <trkpt lat="43.48057" lon="6.79125">
        <ele>291</ele>
        <time>2011-06-03T11:08:16Z</time>
      </trkpt>
      <trkpt lat="43.48054" lon="6.79125">
        <ele>291</ele>
        <time>2011-06-03T11:08:17Z</time>
      </trkpt>
      <trkpt lat="43.48051" lon="6.79125">
        <ele>291</ele>
        <time>2011-06-03T11:08:18Z</time>
      </trkpt>
      <trkpt lat="43.48047" lon="6.79126">
        <ele>291</ele>
        <time>2011-06-03T11:08:19Z</time>
      </trkpt>
      <trkpt lat="43.48045" lon="6.79126">
        <ele>291</ele>
        <time>2011-06-03T11:08:20Z</time>
      </trkpt>
      <trkpt lat="43.48042" lon="6.79126">
        <ele>291</ele>
        <time>2011-06-03T11:08:21Z</time>
      </trkpt>
      <trkpt lat="43.48039" lon="6.79127">
        <ele>290</ele>
        <time>2011-06-03T11:08:22Z</time>
      </trkpt>
      <trkpt lat="43.48037" lon="6.79128">
        <ele>290</ele>
        <time>2011-06-03T11:08:23Z</time>
      </trkpt>
      <trkpt lat="43.48033" lon="6.79129">
        <ele>290</ele>
        <time>2011-06-03T11:08:24Z</time>
      </trkpt>
      <trkpt lat="43.4803" lon="6.79131">
        <ele>289</ele>
        <time>2011-06-03T11:08:25Z</time>
      </trkpt>
      <trkpt lat="43.48027" lon="6.79132">
        <ele>289</ele>
        <time>2011-06-03T11:08:26Z</time>
      </trkpt>
      <trkpt lat="43.48024" lon="6.79132">
        <ele>289</ele>
        <time>2011-06-03T11:08:29Z</time>
      </trkpt>
      <trkpt lat="43.48024" lon="6.79132">
        <ele>289</ele>
        <time>2011-06-03T11:08:29Z</time>
      </trkpt>
      <trkpt lat="43.48024" lon="6.79132">
        <ele>289.02182006836</ele>
        <time>2011-06-03T11:08:29Z</time>
      </trkpt>
      <trkpt lat="43.48019" lon="6.7913">
        <ele>289.61569213867</ele>
        <time>2011-06-03T11:08:30Z</time>
      </trkpt>
      <trkpt lat="43.48014" lon="6.79127">
        <ele>290</ele>
        <time>2011-06-03T11:08:31Z</time>
      </trkpt>
      <trkpt lat="43.48012" lon="6.79127">
        <ele>291</ele>
        <time>2011-06-03T11:08:32Z</time>
      </trkpt>
      <trkpt lat="43.48012" lon="6.79129">
        <ele>291</ele>
        <time>2011-06-03T11:08:33Z</time>
      </trkpt>
      <trkpt lat="43.48011" lon="6.79129">
        <ele>291</ele>
        <time>2011-06-03T11:08:34Z</time>
      </trkpt>
      <trkpt lat="43.4801" lon="6.79129">
        <ele>291</ele>
        <time>2011-06-03T11:08:35Z</time>
      </trkpt>
      <trkpt lat="43.48009" lon="6.7913">
        <ele>291</ele>
        <time>2011-06-03T11:08:36Z</time>
      </trkpt>
      <trkpt lat="43.48009" lon="6.79132">
        <ele>290</ele>
        <time>2011-06-03T11:08:37Z</time>
      </trkpt>
      <trkpt lat="43.48008" lon="6.79133">
        <ele>291</ele>
        <time>2011-06-03T11:08:38Z</time>
      </trkpt>
      <trkpt lat="43.48007" lon="6.79133">
        <ele>291</ele>
        <time>2011-06-03T11:08:39Z</time>
      </trkpt>
      <trkpt lat="43.48007" lon="6.79133">
        <ele>291</ele>
        <time>2011-06-03T11:08:40Z</time>
      </trkpt>
      <trkpt lat="43.48007" lon="6.79133">
        <ele>291</ele>
        <time>2011-06-03T11:08:41Z</time>
      </trkpt>
      <trkpt lat="43.48007" lon="6.79133">
        <ele>291</ele>
        <time>2011-06-03T11:08:42Z</time>
      </trkpt>
      <trkpt lat="43.48006" lon="6.79133">
        <ele>291</ele>
        <time>2011-06-03T11:08:43Z</time>
      </trkpt>
      <trkpt lat="43.48006" lon="6.79133">
        <ele>291</ele>
        <time>2011-06-03T11:08:44Z</time>
      </trkpt>
      <trkpt lat="43.48005" lon="6.79132">
        <ele>291</ele>
        <time>2011-06-03T11:08:45Z</time>
      </trkpt>
      <trkpt lat="43.48003" lon="6.79131">
        <ele>291</ele>
        <time>2011-06-03T11:08:46Z</time>
      </trkpt>
      <trkpt lat="43.48001" lon="6.7913">
        <ele>291</ele>
        <time>2011-06-03T11:08:47Z</time>
      </trkpt>
      <trkpt lat="43.47999" lon="6.79129">
        <ele>291</ele>
        <time>2011-06-03T11:08:48Z</time>
      </trkpt>
      <trkpt lat="43.47997" lon="6.79128">
        <ele>291</ele>
        <time>2011-06-03T11:08:49Z</time>
      </trkpt>
      <trkpt lat="43.47994" lon="6.79127">
        <ele>290</ele>
        <time>2011-06-03T11:08:52Z</time>
      </trkpt>
      <trkpt lat="43.47994" lon="6.79127">
        <ele>290</ele>
        <time>2011-06-03T11:08:52Z</time>
      </trkpt>
      <trkpt lat="43.47994" lon="6.79127">
        <ele>290</ele>
        <time>2011-06-03T11:08:52Z</time>
      </trkpt>
      <trkpt lat="43.47988" lon="6.79124">
        <ele>290</ele>
        <time>2011-06-03T11:08:53Z</time>
      </trkpt>
      <trkpt lat="43.47985" lon="6.79122">
        <ele>289</ele>
        <time>2011-06-03T11:08:54Z</time>
      </trkpt>
      <trkpt lat="43.47983" lon="6.79121">
        <ele>289</ele>
        <time>2011-06-03T11:08:55Z</time>
      </trkpt>
      <trkpt lat="43.4798" lon="6.79121">
        <ele>289</ele>
        <time>2011-06-03T11:08:56Z</time>
      </trkpt>
      <trkpt lat="43.47976" lon="6.79122">
        <ele>288</ele>
        <time>2011-06-03T11:08:57Z</time>
      </trkpt>
      <trkpt lat="43.47974" lon="6.79122">
        <ele>288</ele>
        <time>2011-06-03T11:08:58Z</time>
      </trkpt>
      <trkpt lat="43.47972" lon="6.79122">
        <ele>288</ele>
        <time>2011-06-03T11:08:59Z</time>
      </trkpt>
      <trkpt lat="43.4797" lon="6.7912">
        <ele>288</ele>
        <time>2011-06-03T11:09:00Z</time>
      </trkpt>
      <trkpt lat="43.47968" lon="6.7912">
        <ele>287</ele>
        <time>2011-06-03T11:09:01Z</time>
      </trkpt>
      <trkpt lat="43.47965" lon="6.7912">
        <ele>287</ele>
        <time>2011-06-03T11:09:02Z</time>
      </trkpt>
      <trkpt lat="43.47962" lon="6.79121">
        <ele>287</ele>
        <time>2011-06-03T11:09:03Z</time>
      </trkpt>
      <trkpt lat="43.47961" lon="6.7912">
        <ele>287</ele>
        <time>2011-06-03T11:09:04Z</time>
      </trkpt>
      <trkpt lat="43.47957" lon="6.79121">
        <ele>287</ele>
        <time>2011-06-03T11:09:05Z</time>
      </trkpt>
      <trkpt lat="43.47955" lon="6.79122">
        <ele>286</ele>
        <time>2011-06-03T11:09:06Z</time>
      </trkpt>
      <trkpt lat="43.47952" lon="6.79123">
        <ele>285</ele>
        <time>2011-06-03T11:09:07Z</time>
      </trkpt>
      <trkpt lat="43.47949" lon="6.79124">
        <ele>285</ele>
        <time>2011-06-03T11:09:08Z</time>
      </trkpt>
      <trkpt lat="43.47947" lon="6.79124">
        <ele>285</ele>
        <time>2011-06-03T11:09:09Z</time>
      </trkpt>
      <trkpt lat="43.47944" lon="6.79125">
        <ele>285</ele>
        <time>2011-06-03T11:09:10Z</time>
      </trkpt>
      <trkpt lat="43.47942" lon="6.79126">
        <ele>285</ele>
        <time>2011-06-03T11:09:11Z</time>
      </trkpt>
      <trkpt lat="43.4794" lon="6.79126">
        <ele>284</ele>
        <time>2011-06-03T11:09:12Z</time>
      </trkpt>
      <trkpt lat="43.47938" lon="6.79126">
        <ele>284</ele>
        <time>2011-06-03T11:09:14Z</time>
      </trkpt>
      <trkpt lat="43.47938" lon="6.79126">
        <ele>284</ele>
        <time>2011-06-03T11:09:14Z</time>
      </trkpt>
      <trkpt lat="43.47936" lon="6.79127">
        <ele>283.67077636719</ele>
        <time>2011-06-03T11:09:15Z</time>
      </trkpt>
      <trkpt lat="43.47931" lon="6.79128">
        <ele>283</ele>
        <time>2011-06-03T11:09:16Z</time>
      </trkpt>
      <trkpt lat="43.47928" lon="6.79128">
        <ele>283</ele>
        <time>2011-06-03T11:09:17Z</time>
      </trkpt>
      <trkpt lat="43.47925" lon="6.79129">
        <ele>283</ele>
        <time>2011-06-03T11:09:18Z</time>
      </trkpt>
      <trkpt lat="43.47923" lon="6.7913">
        <ele>282</ele>
        <time>2011-06-03T11:09:19Z</time>
      </trkpt>
      <trkpt lat="43.47919" lon="6.79129">
        <ele>283</ele>
        <time>2011-06-03T11:09:20Z</time>
      </trkpt>
      <trkpt lat="43.47916" lon="6.79129">
        <ele>284</ele>
        <time>2011-06-03T11:09:21Z</time>
      </trkpt>
      <trkpt lat="43.47913" lon="6.79129">
        <ele>284</ele>
        <time>2011-06-03T11:09:22Z</time>
      </trkpt>
      <trkpt lat="43.47911" lon="6.79129">
        <ele>284</ele>
        <time>2011-06-03T11:09:23Z</time>
      </trkpt>
      <trkpt lat="43.4791" lon="6.79129">
        <ele>284</ele>
        <time>2011-06-03T11:09:24Z</time>
      </trkpt>
      <trkpt lat="43.47907" lon="6.79129">
        <ele>283</ele>
        <time>2011-06-03T11:09:25Z</time>
      </trkpt>
      <trkpt lat="43.47905" lon="6.7913">
        <ele>282</ele>
        <time>2011-06-03T11:09:26Z</time>
      </trkpt>
      <trkpt lat="43.47903" lon="6.79128">
        <ele>282</ele>
        <time>2011-06-03T11:09:27Z</time>
      </trkpt>
      <trkpt lat="43.47901" lon="6.79128">
        <ele>282</ele>
        <time>2011-06-03T11:09:28Z</time>
      </trkpt>
      <trkpt lat="43.47898" lon="6.79128">
        <ele>281</ele>
        <time>2011-06-03T11:09:29Z</time>
      </trkpt>
      <trkpt lat="43.47895" lon="6.79127">
        <ele>280</ele>
        <time>2011-06-03T11:09:30Z</time>
      </trkpt>
      <trkpt lat="43.47892" lon="6.79126">
        <ele>279</ele>
        <time>2011-06-03T11:09:31Z</time>
      </trkpt>
      <trkpt lat="43.4789" lon="6.79126">
        <ele>278</ele>
        <time>2011-06-03T11:09:32Z</time>
      </trkpt>
      <trkpt lat="43.47888" lon="6.79124">
        <ele>278</ele>
        <time>2011-06-03T11:09:33Z</time>
      </trkpt>
      <trkpt lat="43.47885" lon="6.79122">
        <ele>277</ele>
        <time>2011-06-03T11:09:34Z</time>
      </trkpt>
      <trkpt lat="43.47884" lon="6.79122">
        <ele>276</ele>
        <time>2011-06-03T11:09:35Z</time>
      </trkpt>
      <trkpt lat="43.47882" lon="6.79121">
        <ele>276</ele>
        <time>2011-06-03T11:09:38Z</time>
      </trkpt>
      <trkpt lat="43.47882" lon="6.79121">
        <ele>275.99795532227</ele>
        <time>2011-06-03T11:09:38Z</time>
      </trkpt>
      <trkpt lat="43.47882" lon="6.79121">
        <ele>275.99523925781</ele>
        <time>2011-06-03T11:09:38Z</time>
      </trkpt>
      <trkpt lat="43.47878" lon="6.7912">
        <ele>274.79244995117</ele>
        <time>2011-06-03T11:09:39Z</time>
      </trkpt>
      <trkpt lat="43.47873" lon="6.79118">
        <ele>274</ele>
        <time>2011-06-03T11:09:40Z</time>
      </trkpt>
      <trkpt lat="43.4787" lon="6.79117">
        <ele>274</ele>
        <time>2011-06-03T11:09:41Z</time>
      </trkpt>
      <trkpt lat="43.47868" lon="6.79115">
        <ele>273</ele>
        <time>2011-06-03T11:09:42Z</time>
      </trkpt>
      <trkpt lat="43.47866" lon="6.79115">
        <ele>273</ele>
        <time>2011-06-03T11:09:43Z</time>
      </trkpt>
      <trkpt lat="43.47863" lon="6.79114">
        <ele>273</ele>
        <time>2011-06-03T11:09:44Z</time>
      </trkpt>
      <trkpt lat="43.47861" lon="6.79112">
        <ele>272</ele>
        <time>2011-06-03T11:09:45Z</time>
      </trkpt>
      <trkpt lat="43.47858" lon="6.7911">
        <ele>272</ele>
        <time>2011-06-03T11:09:46Z</time>
      </trkpt>
      <trkpt lat="43.47857" lon="6.79109">
        <ele>272</ele>
        <time>2011-06-03T11:09:47Z</time>
      </trkpt>
      <trkpt lat="43.47854" lon="6.79107">
        <ele>271</ele>
        <time>2011-06-03T11:09:48Z</time>
      </trkpt>
      <trkpt lat="43.47852" lon="6.79106">
        <ele>270</ele>
        <time>2011-06-03T11:09:49Z</time>
      </trkpt>
      <trkpt lat="43.4785" lon="6.79105">
        <ele>270</ele>
        <time>2011-06-03T11:09:50Z</time>
      </trkpt>
      <trkpt lat="43.47847" lon="6.79104">
        <ele>270</ele>
        <time>2011-06-03T11:09:51Z</time>
      </trkpt>
      <trkpt lat="43.47846" lon="6.79103">
        <ele>270</ele>
        <time>2011-06-03T11:09:52Z</time>
      </trkpt>
      <trkpt lat="43.47843" lon="6.79102">
        <ele>271</ele>
        <time>2011-06-03T11:09:53Z</time>
      </trkpt>
      <trkpt lat="43.4784" lon="6.79102">
        <ele>271</ele>
        <time>2011-06-03T11:09:54Z</time>
      </trkpt>
      <trkpt lat="43.47837" lon="6.79101">
        <ele>271</ele>
        <time>2011-06-03T11:09:55Z</time>
      </trkpt>
      <trkpt lat="43.47835" lon="6.79102">
        <ele>270</ele>
        <time>2011-06-03T11:09:56Z</time>
      </trkpt>
      <trkpt lat="43.47832" lon="6.79102">
        <ele>271</ele>
        <time>2011-06-03T11:09:57Z</time>
      </trkpt>
      <trkpt lat="43.4783" lon="6.79103">
        <ele>270</ele>
        <time>2011-06-03T11:09:58Z</time>
      </trkpt>
      <trkpt lat="43.47827" lon="6.79102">
        <ele>270</ele>
        <time>2011-06-03T11:10:01Z</time>
      </trkpt>
      <trkpt lat="43.47827" lon="6.79102">
        <ele>270</ele>
        <time>2011-06-03T11:10:01Z</time>
      </trkpt>
      <trkpt lat="43.47827" lon="6.79102">
        <ele>270</ele>
        <time>2011-06-03T11:10:01Z</time>
      </trkpt>
      <trkpt lat="43.47825" lon="6.791">
        <ele>269.68145751953</ele>
        <time>2011-06-03T11:10:02Z</time>
      </trkpt>
      <trkpt lat="43.47818" lon="6.79096">
        <ele>268</ele>
        <time>2011-06-03T11:10:03Z</time>
      </trkpt>
      <trkpt lat="43.47817" lon="6.79094">
        <ele>268</ele>
        <time>2011-06-03T11:10:04Z</time>
      </trkpt>
      <trkpt lat="43.47815" lon="6.79092">
        <ele>268</ele>
        <time>2011-06-03T11:10:05Z</time>
      </trkpt>
      <trkpt lat="43.47813" lon="6.79091">
        <ele>267</ele>
        <time>2011-06-03T11:10:06Z</time>
      </trkpt>
      <trkpt lat="43.47811" lon="6.79091">
        <ele>266</ele>
        <time>2011-06-03T11:10:07Z</time>
      </trkpt>
      <trkpt lat="43.47809" lon="6.79089">
        <ele>265</ele>
        <time>2011-06-03T11:10:08Z</time>
      </trkpt>
      <trkpt lat="43.47807" lon="6.79089">
        <ele>265</ele>
        <time>2011-06-03T11:10:09Z</time>
      </trkpt>
      <trkpt lat="43.47804" lon="6.79087">
        <ele>264</ele>
        <time>2011-06-03T11:10:10Z</time>
      </trkpt>
      <trkpt lat="43.47801" lon="6.79086">
        <ele>263</ele>
        <time>2011-06-03T11:10:11Z</time>
      </trkpt>
      <trkpt lat="43.47799" lon="6.79084">
        <ele>263</ele>
        <time>2011-06-03T11:10:12Z</time>
      </trkpt>
      <trkpt lat="43.47796" lon="6.79083">
        <ele>263</ele>
        <time>2011-06-03T11:10:13Z</time>
      </trkpt>
      <trkpt lat="43.47794" lon="6.79081">
        <ele>263</ele>
        <time>2011-06-03T11:10:14Z</time>
      </trkpt>
      <trkpt lat="43.47792" lon="6.79079">
        <ele>263</ele>
        <time>2011-06-03T11:10:15Z</time>
      </trkpt>
      <trkpt lat="43.4779" lon="6.79077">
        <ele>263</ele>
        <time>2011-06-03T11:10:16Z</time>
      </trkpt>
      <trkpt lat="43.47788" lon="6.79074">
        <ele>262</ele>
        <time>2011-06-03T11:10:17Z</time>
      </trkpt>
      <trkpt lat="43.47786" lon="6.79074">
        <ele>261</ele>
        <time>2011-06-03T11:10:18Z</time>
      </trkpt>
      <trkpt lat="43.47783" lon="6.79074">
        <ele>260</ele>
        <time>2011-06-03T11:10:19Z</time>
      </trkpt>
      <trkpt lat="43.47781" lon="6.79072">
        <ele>260</ele>
        <time>2011-06-03T11:10:20Z</time>
      </trkpt>
      <trkpt lat="43.47778" lon="6.79071">
        <ele>260</ele>
        <time>2011-06-03T11:10:21Z</time>
      </trkpt>
      <trkpt lat="43.47776" lon="6.7907">
        <ele>260</ele>
        <time>2011-06-03T11:10:22Z</time>
      </trkpt>
      <trkpt lat="43.47773" lon="6.7907">
        <ele>259</ele>
        <time>2011-06-03T11:10:25Z</time>
      </trkpt>
      <trkpt lat="43.47773" lon="6.7907">
        <ele>258.99703979492</ele>
        <time>2011-06-03T11:10:25Z</time>
      </trkpt>
      <trkpt lat="43.47773" lon="6.7907">
        <ele>258.9709777832</ele>
        <time>2011-06-03T11:10:25Z</time>
      </trkpt>
      <trkpt lat="43.47768" lon="6.79069">
        <ele>258.27337646484</ele>
        <time>2011-06-03T11:10:26Z</time>
      </trkpt>
      <trkpt lat="43.47764" lon="6.79066">
        <ele>258</ele>
        <time>2011-06-03T11:10:27Z</time>
      </trkpt>
      <trkpt lat="43.47762" lon="6.79062">
        <ele>257</ele>
        <time>2011-06-03T11:10:28Z</time>
      </trkpt>
      <trkpt lat="43.4776" lon="6.79059">
        <ele>256</ele>
        <time>2011-06-03T11:10:29Z</time>
      </trkpt>
      <trkpt lat="43.47758" lon="6.79055">
        <ele>255</ele>
        <time>2011-06-03T11:10:30Z</time>
      </trkpt>
      <trkpt lat="43.47758" lon="6.79052">
        <ele>256</ele>
        <time>2011-06-03T11:10:31Z</time>
      </trkpt>
      <trkpt lat="43.47757" lon="6.79048">
        <ele>256</ele>
        <time>2011-06-03T11:10:32Z</time>
      </trkpt>
      <trkpt lat="43.47755" lon="6.79047">
        <ele>256</ele>
        <time>2011-06-03T11:10:33Z</time>
      </trkpt>
      <trkpt lat="43.47753" lon="6.79045">
        <ele>257</ele>
        <time>2011-06-03T11:10:34Z</time>
      </trkpt>
      <trkpt lat="43.47751" lon="6.79044">
        <ele>256</ele>
        <time>2011-06-03T11:10:35Z</time>
      </trkpt>
      <trkpt lat="43.47748" lon="6.79044">
        <ele>256</ele>
        <time>2011-06-03T11:10:36Z</time>
      </trkpt>
      <trkpt lat="43.47745" lon="6.79043">
        <ele>257</ele>
        <time>2011-06-03T11:10:37Z</time>
      </trkpt>
      <trkpt lat="43.47742" lon="6.79043">
        <ele>257</ele>
        <time>2011-06-03T11:10:38Z</time>
      </trkpt>
      <trkpt lat="43.4774" lon="6.79041">
        <ele>257</ele>
        <time>2011-06-03T11:10:39Z</time>
      </trkpt>
      <trkpt lat="43.47737" lon="6.7904">
        <ele>257</ele>
        <time>2011-06-03T11:10:40Z</time>
      </trkpt>
      <trkpt lat="43.47735" lon="6.79039">
        <ele>257</ele>
        <time>2011-06-03T11:10:41Z</time>
      </trkpt>
      <trkpt lat="43.47733" lon="6.79037">
        <ele>256</ele>
        <time>2011-06-03T11:10:42Z</time>
      </trkpt>
      <trkpt lat="43.47732" lon="6.79033">
        <ele>256</ele>
        <time>2011-06-03T11:10:43Z</time>
      </trkpt>
      <trkpt lat="43.4773" lon="6.7903">
        <ele>256</ele>
        <time>2011-06-03T11:10:44Z</time>
      </trkpt>
      <trkpt lat="43.4773" lon="6.79026">
        <ele>255</ele>
        <time>2011-06-03T11:10:45Z</time>
      </trkpt>
      <trkpt lat="43.4773" lon="6.79022">
        <ele>255</ele>
        <time>2011-06-03T11:10:48Z</time>
      </trkpt>
      <trkpt lat="43.4773" lon="6.79022">
        <ele>254.98924255371</ele>
        <time>2011-06-03T11:10:48Z</time>
      </trkpt>
      <trkpt lat="43.4773" lon="6.79022">
        <ele>254.96360778809</ele>
        <time>2011-06-03T11:10:48Z</time>
      </trkpt>
      <trkpt lat="43.47729" lon="6.79015">
        <ele>253.50350952148</ele>
        <time>2011-06-03T11:10:49Z</time>
      </trkpt>
      <trkpt lat="43.47727" lon="6.7901">
        <ele>252</ele>
        <time>2011-06-03T11:10:50Z</time>
      </trkpt>
      <trkpt lat="43.47726" lon="6.79008">
        <ele>252</ele>
        <time>2011-06-03T11:10:51Z</time>
      </trkpt>
      <trkpt lat="43.47725" lon="6.79004">
        <ele>251</ele>
        <time>2011-06-03T11:10:52Z</time>
      </trkpt>
      <trkpt lat="43.47723" lon="6.79001">
        <ele>251</ele>
        <time>2011-06-03T11:10:53Z</time>
      </trkpt>
      <trkpt lat="43.47722" lon="6.78999">
        <ele>250</ele>
        <time>2011-06-03T11:10:54Z</time>
      </trkpt>
      <trkpt lat="43.4772" lon="6.78996">
        <ele>250</ele>
        <time>2011-06-03T11:10:55Z</time>
      </trkpt>
      <trkpt lat="43.47718" lon="6.78994">
        <ele>250</ele>
        <time>2011-06-03T11:10:56Z</time>
      </trkpt>
      <trkpt lat="43.47717" lon="6.78991">
        <ele>250</ele>
        <time>2011-06-03T11:10:57Z</time>
      </trkpt>
      <trkpt lat="43.47715" lon="6.78987">
        <ele>250</ele>
        <time>2011-06-03T11:10:58Z</time>
      </trkpt>
      <trkpt lat="43.47713" lon="6.78984">
        <ele>248</ele>
        <time>2011-06-03T11:10:59Z</time>
      </trkpt>
      <trkpt lat="43.47711" lon="6.7898">
        <ele>248</ele>
        <time>2011-06-03T11:11:00Z</time>
      </trkpt>
      <trkpt lat="43.4771" lon="6.78976">
        <ele>248</ele>
        <time>2011-06-03T11:11:01Z</time>
      </trkpt>
      <trkpt lat="43.47709" lon="6.78973">
        <ele>247</ele>
        <time>2011-06-03T11:11:02Z</time>
      </trkpt>
      <trkpt lat="43.47707" lon="6.78969">
        <ele>247</ele>
        <time>2011-06-03T11:11:03Z</time>
      </trkpt>
      <trkpt lat="43.47706" lon="6.78966">
        <ele>247</ele>
        <time>2011-06-03T11:11:04Z</time>
      </trkpt>
      <trkpt lat="43.47706" lon="6.78963">
        <ele>247</ele>
        <time>2011-06-03T11:11:05Z</time>
      </trkpt>
      <trkpt lat="43.47704" lon="6.78959">
        <ele>246</ele>
        <time>2011-06-03T11:11:06Z</time>
      </trkpt>
      <trkpt lat="43.47702" lon="6.78956">
        <ele>246</ele>
        <time>2011-06-03T11:11:07Z</time>
      </trkpt>
      <trkpt lat="43.47702" lon="6.78952">
        <ele>246</ele>
        <time>2011-06-03T11:11:08Z</time>
      </trkpt>
      <trkpt lat="43.47701" lon="6.78949">
        <ele>245</ele>
        <time>2011-06-03T11:11:11Z</time>
      </trkpt>
      <trkpt lat="43.47701" lon="6.78949">
        <ele>245</ele>
        <time>2011-06-03T11:11:11Z</time>
      </trkpt>
      <trkpt lat="43.47701" lon="6.78948">
        <ele>245</ele>
        <time>2011-06-03T11:11:11Z</time>
      </trkpt>
      <trkpt lat="43.47701" lon="6.78941">
        <ele>245</ele>
        <time>2011-06-03T11:11:12Z</time>
      </trkpt>
      <trkpt lat="43.477" lon="6.78932">
        <ele>245</ele>
        <time>2011-06-03T11:11:13Z</time>
      </trkpt>
      <trkpt lat="43.47699" lon="6.78928">
        <ele>244</ele>
        <time>2011-06-03T11:11:14Z</time>
      </trkpt>
      <trkpt lat="43.47698" lon="6.78924">
        <ele>243</ele>
        <time>2011-06-03T11:11:15Z</time>
      </trkpt>
      <trkpt lat="43.47698" lon="6.7892">
        <ele>242</ele>
        <time>2011-06-03T11:11:16Z</time>
      </trkpt>
      <trkpt lat="43.47698" lon="6.78916">
        <ele>242</ele>
        <time>2011-06-03T11:11:17Z</time>
      </trkpt>
      <trkpt lat="43.47697" lon="6.78913">
        <ele>242</ele>
        <time>2011-06-03T11:11:18Z</time>
      </trkpt>
      <trkpt lat="43.47697" lon="6.78909">
        <ele>243</ele>
        <time>2011-06-03T11:11:19Z</time>
      </trkpt>
      <trkpt lat="43.47697" lon="6.78906">
        <ele>242</ele>
        <time>2011-06-03T11:11:20Z</time>
      </trkpt>
      <trkpt lat="43.47697" lon="6.789">
        <ele>242</ele>
        <time>2011-06-03T11:11:21Z</time>
      </trkpt>
      <trkpt lat="43.47697" lon="6.78898">
        <ele>242.68336486816</ele>
        <time>2011-06-03T11:11:22Z</time>
      </trkpt>
      <trkpt lat="43.47697" lon="6.78893">
        <ele>242</ele>
        <time>2011-06-03T11:11:23Z</time>
      </trkpt>
      <trkpt lat="43.47699" lon="6.7889">
        <ele>242</ele>
        <time>2011-06-03T11:11:24Z</time>
      </trkpt>
      <trkpt lat="43.47701" lon="6.78885">
        <ele>242</ele>
        <time>2011-06-03T11:11:25Z</time>
      </trkpt>
      <trkpt lat="43.47703" lon="6.78881">
        <ele>242</ele>
        <time>2011-06-03T11:11:26Z</time>
      </trkpt>
      <trkpt lat="43.47704" lon="6.78879">
        <ele>242</ele>
        <time>2011-06-03T11:11:27Z</time>
      </trkpt>
      <trkpt lat="43.47706" lon="6.78875">
        <ele>242</ele>
        <time>2011-06-03T11:11:28Z</time>
      </trkpt>
      <trkpt lat="43.47708" lon="6.78871">
        <ele>241</ele>
        <time>2011-06-03T11:11:29Z</time>
      </trkpt>
      <trkpt lat="43.47709" lon="6.78867">
        <ele>241</ele>
        <time>2011-06-03T11:11:30Z</time>
      </trkpt>
      <trkpt lat="43.4771" lon="6.78863">
        <ele>241</ele>
        <time>2011-06-03T11:11:31Z</time>
      </trkpt>
      <trkpt lat="43.47711" lon="6.78859">
        <ele>240</ele>
        <time>2011-06-03T11:11:34Z</time>
      </trkpt>
      <trkpt lat="43.47711" lon="6.78859">
        <ele>240</ele>
        <time>2011-06-03T11:11:34Z</time>
      </trkpt>
      <trkpt lat="43.47711" lon="6.78859">
        <ele>239.92430114746</ele>
        <time>2011-06-03T11:11:34Z</time>
      </trkpt>
      <trkpt lat="43.47713" lon="6.78851">
        <ele>239.18508911133</ele>
        <time>2011-06-03T11:11:35Z</time>
      </trkpt>
      <trkpt lat="43.47714" lon="6.78846">
        <ele>239</ele>
        <time>2011-06-03T11:11:36Z</time>
      </trkpt>
      <trkpt lat="43.47715" lon="6.78842">
        <ele>238</ele>
        <time>2011-06-03T11:11:37Z</time>
      </trkpt>
      <trkpt lat="43.47716" lon="6.78838">
        <ele>238</ele>
        <time>2011-06-03T11:11:38Z</time>
      </trkpt>
      <trkpt lat="43.47716" lon="6.78833">
        <ele>238</ele>
        <time>2011-06-03T11:11:39Z</time>
      </trkpt>
      <trkpt lat="43.47717" lon="6.78828">
        <ele>238</ele>
        <time>2011-06-03T11:11:40Z</time>
      </trkpt>
      <trkpt lat="43.47717" lon="6.78824">
        <ele>238</ele>
        <time>2011-06-03T11:11:41Z</time>
      </trkpt>
      <trkpt lat="43.47717" lon="6.7882">
        <ele>238</ele>
        <time>2011-06-03T11:11:42Z</time>
      </trkpt>
      <trkpt lat="43.47718" lon="6.78817">
        <ele>239</ele>
        <time>2011-06-03T11:11:43Z</time>
      </trkpt>
      <trkpt lat="43.47718" lon="6.78813">
        <ele>238</ele>
        <time>2011-06-03T11:11:44Z</time>
      </trkpt>
      <trkpt lat="43.47719" lon="6.78809">
        <ele>238</ele>
        <time>2011-06-03T11:11:45Z</time>
      </trkpt>
      <trkpt lat="43.47719" lon="6.78805">
        <ele>237</ele>
        <time>2011-06-03T11:11:46Z</time>
      </trkpt>
      <trkpt lat="43.47719" lon="6.78802">
        <ele>236</ele>
        <time>2011-06-03T11:11:47Z</time>
      </trkpt>
      <trkpt lat="43.47718" lon="6.78799">
        <ele>234</ele>
        <time>2011-06-03T11:11:48Z</time>
      </trkpt>
      <trkpt lat="43.47717" lon="6.78795">
        <ele>234</ele>
        <time>2011-06-03T11:11:49Z</time>
      </trkpt>
      <trkpt lat="43.47718" lon="6.78792">
        <ele>233</ele>
        <time>2011-06-03T11:11:50Z</time>
      </trkpt>
      <trkpt lat="43.47718" lon="6.78788">
        <ele>233</ele>
        <time>2011-06-03T11:11:51Z</time>
      </trkpt>
      <trkpt lat="43.47718" lon="6.78785">
        <ele>233</ele>
        <time>2011-06-03T11:11:52Z</time>
      </trkpt>
      <trkpt lat="43.47718" lon="6.78781">
        <ele>232</ele>
        <time>2011-06-03T11:11:53Z</time>
      </trkpt>
      <trkpt lat="43.47718" lon="6.78778">
        <ele>231</ele>
        <time>2011-06-03T11:11:54Z</time>
      </trkpt>
      <trkpt lat="43.47718" lon="6.78773">
        <ele>231</ele>
        <time>2011-06-03T11:11:56Z</time>
      </trkpt>
      <trkpt lat="43.47718" lon="6.78773">
        <ele>231.00321960449</ele>
        <time>2011-06-03T11:11:56Z</time>
      </trkpt>
      <trkpt lat="43.47718" lon="6.78771">
        <ele>231.2670135498</ele>
        <time>2011-06-03T11:11:57Z</time>
      </trkpt>
      <trkpt lat="43.47718" lon="6.78763">
        <ele>231.87953186035</ele>
        <time>2011-06-03T11:11:58Z</time>
      </trkpt>
      <trkpt lat="43.47718" lon="6.78758">
        <ele>232</ele>
        <time>2011-06-03T11:11:59Z</time>
      </trkpt>
      <trkpt lat="43.47718" lon="6.78754">
        <ele>231</ele>
        <time>2011-06-03T11:12:00Z</time>
      </trkpt>
      <trkpt lat="43.47718" lon="6.7875">
        <ele>230</ele>
        <time>2011-06-03T11:12:01Z</time>
      </trkpt>
      <trkpt lat="43.47718" lon="6.78745">
        <ele>230</ele>
        <time>2011-06-03T11:12:02Z</time>
      </trkpt>
      <trkpt lat="43.47717" lon="6.78742">
        <ele>230</ele>
        <time>2011-06-03T11:12:03Z</time>
      </trkpt>
      <trkpt lat="43.47716" lon="6.78738">
        <ele>230</ele>
        <time>2011-06-03T11:12:04Z</time>
      </trkpt>
      <trkpt lat="43.47716" lon="6.78735">
        <ele>229</ele>
        <time>2011-06-03T11:12:05Z</time>
      </trkpt>
      <trkpt lat="43.47715" lon="6.7873">
        <ele>229</ele>
        <time>2011-06-03T11:12:06Z</time>
      </trkpt>
      <trkpt lat="43.47716" lon="6.78726">
        <ele>229</ele>
        <time>2011-06-03T11:12:07Z</time>
      </trkpt>
      <trkpt lat="43.47715" lon="6.78722">
        <ele>229</ele>
        <time>2011-06-03T11:12:08Z</time>
      </trkpt>
      <trkpt lat="43.47716" lon="6.78718">
        <ele>229</ele>
        <time>2011-06-03T11:12:09Z</time>
      </trkpt>
      <trkpt lat="43.47715" lon="6.78714">
        <ele>228</ele>
        <time>2011-06-03T11:12:10Z</time>
      </trkpt>
      <trkpt lat="43.47715" lon="6.78711">
        <ele>228</ele>
        <time>2011-06-03T11:12:11Z</time>
      </trkpt>
      <trkpt lat="43.47713" lon="6.78708">
        <ele>227</ele>
        <time>2011-06-03T11:12:12Z</time>
      </trkpt>
      <trkpt lat="43.47712" lon="6.78705">
        <ele>226</ele>
        <time>2011-06-03T11:12:13Z</time>
      </trkpt>
      <trkpt lat="43.47711" lon="6.78702">
        <ele>226</ele>
        <time>2011-06-03T11:12:14Z</time>
      </trkpt>
      <trkpt lat="43.47708" lon="6.787">
        <ele>225</ele>
        <time>2011-06-03T11:12:15Z</time>
      </trkpt>
      <trkpt lat="43.47707" lon="6.78697">
        <ele>225</ele>
        <time>2011-06-03T11:12:16Z</time>
      </trkpt>
      <trkpt lat="43.47706" lon="6.78694">
        <ele>225</ele>
        <time>2011-06-03T11:12:17Z</time>
      </trkpt>
      <trkpt lat="43.47706" lon="6.7869">
        <ele>225</ele>
        <time>2011-06-03T11:12:20Z</time>
      </trkpt>
      <trkpt lat="43.47706" lon="6.7869">
        <ele>225.00254821777</ele>
        <time>2011-06-03T11:12:20Z</time>
      </trkpt>
      <trkpt lat="43.47706" lon="6.7869">
        <ele>225.00393676758</ele>
        <time>2011-06-03T11:12:20Z</time>
      </trkpt>
      <trkpt lat="43.47706" lon="6.78687">
        <ele>225.52415466309</ele>
        <time>2011-06-03T11:12:21Z</time>
      </trkpt>
      <trkpt lat="43.47706" lon="6.78676">
        <ele>227.22030639648</ele>
        <time>2011-06-03T11:12:22Z</time>
      </trkpt>
      <trkpt lat="43.47707" lon="6.78668">
        <ele>228</ele>
        <time>2011-06-03T11:12:23Z</time>
      </trkpt>
      <trkpt lat="43.47707" lon="6.78664">
        <ele>228</ele>
        <time>2011-06-03T11:12:24Z</time>
      </trkpt>
      <trkpt lat="43.47706" lon="6.78661">
        <ele>228</ele>
        <time>2011-06-03T11:12:25Z</time>
      </trkpt>
      <trkpt lat="43.47706" lon="6.78657">
        <ele>228</ele>
        <time>2011-06-03T11:12:26Z</time>
      </trkpt>
      <trkpt lat="43.47705" lon="6.78654">
        <ele>228</ele>
        <time>2011-06-03T11:12:27Z</time>
      </trkpt>
      <trkpt lat="43.47704" lon="6.78651">
        <ele>227</ele>
        <time>2011-06-03T11:12:28Z</time>
      </trkpt>
      <trkpt lat="43.47703" lon="6.78647">
        <ele>226</ele>
        <time>2011-06-03T11:12:29Z</time>
      </trkpt>
      <trkpt lat="43.47704" lon="6.78642">
        <ele>227</ele>
        <time>2011-06-03T11:12:30Z</time>
      </trkpt>
      <trkpt lat="43.47704" lon="6.78638">
        <ele>226</ele>
        <time>2011-06-03T11:12:31Z</time>
      </trkpt>
      <trkpt lat="43.47704" lon="6.78634">
        <ele>226</ele>
        <time>2011-06-03T11:12:32Z</time>
      </trkpt>
      <trkpt lat="43.47704" lon="6.7863">
        <ele>225</ele>
        <time>2011-06-03T11:12:33Z</time>
      </trkpt>
      <trkpt lat="43.47705" lon="6.78626">
        <ele>225</ele>
        <time>2011-06-03T11:12:34Z</time>
      </trkpt>
      <trkpt lat="43.47706" lon="6.78621">
        <ele>225</ele>
        <time>2011-06-03T11:12:35Z</time>
      </trkpt>
      <trkpt lat="43.47706" lon="6.78617">
        <ele>225</ele>
        <time>2011-06-03T11:12:36Z</time>
      </trkpt>
      <trkpt lat="43.47708" lon="6.78613">
        <ele>225</ele>
        <time>2011-06-03T11:12:37Z</time>
      </trkpt>
      <trkpt lat="43.47708" lon="6.78609">
        <ele>226</ele>
        <time>2011-06-03T11:12:38Z</time>
      </trkpt>
      <trkpt lat="43.47708" lon="6.78606">
        <ele>225</ele>
        <time>2011-06-03T11:12:39Z</time>
      </trkpt>
      <trkpt lat="43.47708" lon="6.78603">
        <ele>224</ele>
        <time>2011-06-03T11:12:40Z</time>
      </trkpt>
      <trkpt lat="43.47707" lon="6.78599">
        <ele>223</ele>
        <time>2011-06-03T11:12:41Z</time>
      </trkpt>
      <trkpt lat="43.47705" lon="6.78596">
        <ele>223</ele>
        <time>2011-06-03T11:12:44Z</time>
      </trkpt>
      <trkpt lat="43.47705" lon="6.78596">
        <ele>222.99784851074</ele>
        <time>2011-06-03T11:12:44Z</time>
      </trkpt>
      <trkpt lat="43.47705" lon="6.78596">
        <ele>222.99482727051</ele>
        <time>2011-06-03T11:12:44Z</time>
      </trkpt>
      <trkpt lat="43.47704" lon="6.78593">
        <ele>222.42756652832</ele>
        <time>2011-06-03T11:12:45Z</time>
      </trkpt>
      <trkpt lat="43.47701" lon="6.78583">
        <ele>221.21855163574</ele>
        <time>2011-06-03T11:12:46Z</time>
      </trkpt>
      <trkpt lat="43.477" lon="6.78578">
        <ele>222</ele>
        <time>2011-06-03T11:12:47Z</time>
      </trkpt>
      <trkpt lat="43.47698" lon="6.78576">
        <ele>221</ele>
        <time>2011-06-03T11:12:48Z</time>
      </trkpt>
      <trkpt lat="43.47696" lon="6.78574">
        <ele>220</ele>
        <time>2011-06-03T11:12:49Z</time>
      </trkpt>
      <trkpt lat="43.47695" lon="6.78571">
        <ele>219</ele>
        <time>2011-06-03T11:12:50Z</time>
      </trkpt>
      <trkpt lat="43.47693" lon="6.78569">
        <ele>219</ele>
        <time>2011-06-03T11:12:51Z</time>
      </trkpt>
      <trkpt lat="43.47691" lon="6.78567">
        <ele>219</ele>
        <time>2011-06-03T11:12:52Z</time>
      </trkpt>
      <trkpt lat="43.4769" lon="6.78564">
        <ele>219</ele>
        <time>2011-06-03T11:12:53Z</time>
      </trkpt>
      <trkpt lat="43.47688" lon="6.78561">
        <ele>219</ele>
        <time>2011-06-03T11:12:54Z</time>
      </trkpt>
      <trkpt lat="43.47685" lon="6.78559">
        <ele>218</ele>
        <time>2011-06-03T11:12:55Z</time>
      </trkpt>
      <trkpt lat="43.47683" lon="6.78556">
        <ele>218</ele>
        <time>2011-06-03T11:12:56Z</time>
      </trkpt>
      <trkpt lat="43.47682" lon="6.78555">
        <ele>217</ele>
        <time>2011-06-03T11:12:57Z</time>
      </trkpt>
      <trkpt lat="43.47679" lon="6.78552">
        <ele>217</ele>
        <time>2011-06-03T11:12:58Z</time>
      </trkpt>
      <trkpt lat="43.47677" lon="6.7855">
        <ele>217</ele>
        <time>2011-06-03T11:12:59Z</time>
      </trkpt>
      <trkpt lat="43.47676" lon="6.78547">
        <ele>218</ele>
        <time>2011-06-03T11:13:00Z</time>
      </trkpt>
      <trkpt lat="43.47674" lon="6.78544">
        <ele>218</ele>
        <time>2011-06-03T11:13:01Z</time>
      </trkpt>
      <trkpt lat="43.47671" lon="6.78541">
        <ele>217</ele>
        <time>2011-06-03T11:13:02Z</time>
      </trkpt>
      <trkpt lat="43.47669" lon="6.78539">
        <ele>218</ele>
        <time>2011-06-03T11:13:03Z</time>
      </trkpt>
      <trkpt lat="43.47668" lon="6.78535">
        <ele>218</ele>
        <time>2011-06-03T11:13:04Z</time>
      </trkpt>
      <trkpt lat="43.47667" lon="6.78533">
        <ele>218</ele>
        <time>2011-06-03T11:13:05Z</time>
      </trkpt>
      <trkpt lat="43.47665" lon="6.78531">
        <ele>218</ele>
        <time>2011-06-03T11:13:07Z</time>
      </trkpt>
      <trkpt lat="43.47665" lon="6.78531">
        <ele>218</ele>
        <time>2011-06-03T11:13:07Z</time>
      </trkpt>
      <trkpt lat="43.47664" lon="6.7853">
        <ele>217.8148651123</ele>
        <time>2011-06-03T11:13:08Z</time>
      </trkpt>
      <trkpt lat="43.4766" lon="6.78524">
        <ele>217.04216003418</ele>
        <time>2011-06-03T11:13:09Z</time>
      </trkpt>
      <trkpt lat="43.47658" lon="6.78522">
        <ele>218</ele>
        <time>2011-06-03T11:13:10Z</time>
      </trkpt>
      <trkpt lat="43.47655" lon="6.7852">
        <ele>218</ele>
        <time>2011-06-03T11:13:11Z</time>
      </trkpt>
      <trkpt lat="43.47653" lon="6.78518">
        <ele>219</ele>
        <time>2011-06-03T11:13:12Z</time>
      </trkpt>
      <trkpt lat="43.47651" lon="6.78517">
        <ele>219</ele>
        <time>2011-06-03T11:13:13Z</time>
      </trkpt>
      <trkpt lat="43.47648" lon="6.78515">
        <ele>221</ele>
        <time>2011-06-03T11:13:14Z</time>
      </trkpt>
      <trkpt lat="43.47646" lon="6.78515">
        <ele>221</ele>
        <time>2011-06-03T11:13:15Z</time>
      </trkpt>
      <trkpt lat="43.47644" lon="6.78514">
        <ele>221</ele>
        <time>2011-06-03T11:13:16Z</time>
      </trkpt>
      <trkpt lat="43.47641" lon="6.78513">
        <ele>221</ele>
        <time>2011-06-03T11:13:17Z</time>
      </trkpt>
      <trkpt lat="43.47638" lon="6.78512">
        <ele>221</ele>
        <time>2011-06-03T11:13:18Z</time>
      </trkpt>
      <trkpt lat="43.47636" lon="6.78511">
        <ele>221</ele>
        <time>2011-06-03T11:13:19Z</time>
      </trkpt>
      <trkpt lat="43.47633" lon="6.7851">
        <ele>221</ele>
        <time>2011-06-03T11:13:20Z</time>
      </trkpt>
      <trkpt lat="43.4763" lon="6.78508">
        <ele>220</ele>
        <time>2011-06-03T11:13:21Z</time>
      </trkpt>
      <trkpt lat="43.47628" lon="6.78507">
        <ele>221</ele>
        <time>2011-06-03T11:13:22Z</time>
      </trkpt>
      <trkpt lat="43.47625" lon="6.78507">
        <ele>221</ele>
        <time>2011-06-03T11:13:23Z</time>
      </trkpt>
      <trkpt lat="43.47623" lon="6.78507">
        <ele>221</ele>
        <time>2011-06-03T11:13:24Z</time>
      </trkpt>
      <trkpt lat="43.47621" lon="6.78507">
        <ele>222</ele>
        <time>2011-06-03T11:13:25Z</time>
      </trkpt>
      <trkpt lat="43.47619" lon="6.78506">
        <ele>221</ele>
        <time>2011-06-03T11:13:26Z</time>
      </trkpt>
      <trkpt lat="43.47616" lon="6.78507">
        <ele>220</ele>
        <time>2011-06-03T11:13:27Z</time>
      </trkpt>
      <trkpt lat="43.47612" lon="6.78507">
        <ele>220</ele>
        <time>2011-06-03T11:13:28Z</time>
      </trkpt>
      <trkpt lat="43.4761" lon="6.78507">
        <ele>220</ele>
        <time>2011-06-03T11:13:31Z</time>
      </trkpt>
      <trkpt lat="43.4761" lon="6.78507">
        <ele>220</ele>
        <time>2011-06-03T11:13:31Z</time>
      </trkpt>
      <trkpt lat="43.47609" lon="6.78507">
        <ele>219.93995666504</ele>
        <time>2011-06-03T11:13:31Z</time>
      </trkpt>
      <trkpt lat="43.47605" lon="6.78506">
        <ele>218.78443908691</ele>
        <time>2011-06-03T11:13:32Z</time>
      </trkpt>
      <trkpt lat="43.47599" lon="6.78506">
        <ele>219</ele>
        <time>2011-06-03T11:13:33Z</time>
      </trkpt>
      <trkpt lat="43.47596" lon="6.78506">
        <ele>219</ele>
        <time>2011-06-03T11:13:34Z</time>
      </trkpt>
      <trkpt lat="43.47594" lon="6.78507">
        <ele>219</ele>
        <time>2011-06-03T11:13:35Z</time>
      </trkpt>
      <trkpt lat="43.47592" lon="6.78507">
        <ele>219</ele>
        <time>2011-06-03T11:13:36Z</time>
      </trkpt>
      <trkpt lat="43.47589" lon="6.78507">
        <ele>219</ele>
        <time>2011-06-03T11:13:37Z</time>
      </trkpt>
      <trkpt lat="43.47586" lon="6.78506">
        <ele>219</ele>
        <time>2011-06-03T11:13:38Z</time>
      </trkpt>
      <trkpt lat="43.47583" lon="6.78506">
        <ele>219</ele>
        <time>2011-06-03T11:13:39Z</time>
      </trkpt>
      <trkpt lat="43.47581" lon="6.78506">
        <ele>219</ele>
        <time>2011-06-03T11:13:40Z</time>
      </trkpt>
      <trkpt lat="43.47579" lon="6.78506">
        <ele>219</ele>
        <time>2011-06-03T11:13:41Z</time>
      </trkpt>
      <trkpt lat="43.47576" lon="6.78507">
        <ele>218</ele>
        <time>2011-06-03T11:13:42Z</time>
      </trkpt>
      <trkpt lat="43.47573" lon="6.78509">
        <ele>217</ele>
        <time>2011-06-03T11:13:43Z</time>
      </trkpt>
      <trkpt lat="43.4757" lon="6.7851">
        <ele>217</ele>
        <time>2011-06-03T11:13:44Z</time>
      </trkpt>
      <trkpt lat="43.47567" lon="6.7851">
        <ele>217</ele>
        <time>2011-06-03T11:13:45Z</time>
      </trkpt>
      <trkpt lat="43.47565" lon="6.78511">
        <ele>216</ele>
        <time>2011-06-03T11:13:46Z</time>
      </trkpt>
      <trkpt lat="43.47564" lon="6.78512">
        <ele>215</ele>
        <time>2011-06-03T11:13:47Z</time>
      </trkpt>
      <trkpt lat="43.47562" lon="6.78514">
        <ele>213</ele>
        <time>2011-06-03T11:13:48Z</time>
      </trkpt>
      <trkpt lat="43.4756" lon="6.78515">
        <ele>213</ele>
        <time>2011-06-03T11:13:49Z</time>
      </trkpt>
      <trkpt lat="43.47558" lon="6.78516">
        <ele>213</ele>
        <time>2011-06-03T11:13:50Z</time>
      </trkpt>
      <trkpt lat="43.47555" lon="6.78518">
        <ele>213</ele>
        <time>2011-06-03T11:13:51Z</time>
      </trkpt>
      <trkpt lat="43.47553" lon="6.78519">
        <ele>214</ele>
        <time>2011-06-03T11:13:53Z</time>
      </trkpt>
      <trkpt lat="43.47553" lon="6.78519">
        <ele>213.99700927734</ele>
        <time>2011-06-03T11:13:53Z</time>
      </trkpt>
      <trkpt lat="43.47552" lon="6.7852">
        <ele>213.99760437012</ele>
        <time>2011-06-03T11:13:54Z</time>
      </trkpt>
      <trkpt lat="43.47548" lon="6.78525">
        <ele>214</ele>
        <time>2011-06-03T11:13:55Z</time>
      </trkpt>
      <trkpt lat="43.47545" lon="6.78527">
        <ele>214</ele>
        <time>2011-06-03T11:13:56Z</time>
      </trkpt>
      <trkpt lat="43.47542" lon="6.78529">
        <ele>214</ele>
        <time>2011-06-03T11:13:57Z</time>
      </trkpt>
      <trkpt lat="43.47539" lon="6.7853">
        <ele>213</ele>
        <time>2011-06-03T11:13:58Z</time>
      </trkpt>
      <trkpt lat="43.47536" lon="6.78531">
        <ele>213</ele>
        <time>2011-06-03T11:13:59Z</time>
      </trkpt>
      <trkpt lat="43.47533" lon="6.78531">
        <ele>213</ele>
        <time>2011-06-03T11:14:00Z</time>
      </trkpt>
      <trkpt lat="43.47529" lon="6.78528">
        <ele>214</ele>
        <time>2011-06-03T11:14:01Z</time>
      </trkpt>
      <trkpt lat="43.47527" lon="6.78527">
        <ele>213</ele>
        <time>2011-06-03T11:14:02Z</time>
      </trkpt>
      <trkpt lat="43.47522" lon="6.78525">
        <ele>213</ele>
        <time>2011-06-03T11:14:05Z</time>
      </trkpt>
      <trkpt lat="43.47521" lon="6.78525">
        <ele>213</ele>
        <time>2011-06-03T11:14:05Z</time>
      </trkpt>
      <trkpt lat="43.47516" lon="6.78525">
        <ele>213</ele>
        <time>2011-06-03T11:14:06Z</time>
      </trkpt>
      <trkpt lat="43.47513" lon="6.78525">
        <ele>213</ele>
        <time>2011-06-03T11:14:07Z</time>
      </trkpt>
      <trkpt lat="43.47511" lon="6.78525">
        <ele>213</ele>
        <time>2011-06-03T11:14:08Z</time>
      </trkpt>
      <trkpt lat="43.47508" lon="6.78526">
        <ele>212</ele>
        <time>2011-06-03T11:14:09Z</time>
      </trkpt>
      <trkpt lat="43.47505" lon="6.78526">
        <ele>212</ele>
        <time>2011-06-03T11:14:10Z</time>
      </trkpt>
      <trkpt lat="43.47502" lon="6.78526">
        <ele>213</ele>
        <time>2011-06-03T11:14:11Z</time>
      </trkpt>
      <trkpt lat="43.47499" lon="6.78526">
        <ele>213</ele>
        <time>2011-06-03T11:14:12Z</time>
      </trkpt>
      <trkpt lat="43.47497" lon="6.78526">
        <ele>213</ele>
        <time>2011-06-03T11:14:13Z</time>
      </trkpt>
      <trkpt lat="43.47494" lon="6.78526">
        <ele>212</ele>
        <time>2011-06-03T11:14:14Z</time>
      </trkpt>
      <trkpt lat="43.47491" lon="6.78527">
        <ele>212</ele>
        <time>2011-06-03T11:14:17Z</time>
      </trkpt>
      <trkpt lat="43.47491" lon="6.78527">
        <ele>212</ele>
        <time>2011-06-03T11:14:17Z</time>
      </trkpt>
      <trkpt lat="43.47491" lon="6.78527">
        <ele>212</ele>
        <time>2011-06-03T11:14:17Z</time>
      </trkpt>
      <trkpt lat="43.47487" lon="6.78527">
        <ele>212</ele>
        <time>2011-06-03T11:14:18Z</time>
      </trkpt>
      <trkpt lat="43.47481" lon="6.78526">
        <ele>212</ele>
        <time>2011-06-03T11:14:19Z</time>
      </trkpt>
      <trkpt lat="43.47478" lon="6.78528">
        <ele>212</ele>
        <time>2011-06-03T11:14:20Z</time>
      </trkpt>
      <trkpt lat="43.47475" lon="6.78529">
        <ele>211</ele>
        <time>2011-06-03T11:14:21Z</time>
      </trkpt>
      <trkpt lat="43.47472" lon="6.78528">
        <ele>211</ele>
        <time>2011-06-03T11:14:22Z</time>
      </trkpt>
      <trkpt lat="43.47471" lon="6.78529">
        <ele>210</ele>
        <time>2011-06-03T11:14:23Z</time>
      </trkpt>
      <trkpt lat="43.47468" lon="6.7853">
        <ele>209</ele>
        <time>2011-06-03T11:14:24Z</time>
      </trkpt>
      <trkpt lat="43.47466" lon="6.7853">
        <ele>209</ele>
        <time>2011-06-03T11:14:25Z</time>
      </trkpt>
      <trkpt lat="43.47464" lon="6.78531">
        <ele>209</ele>
        <time>2011-06-03T11:14:26Z</time>
      </trkpt>
      <trkpt lat="43.4746" lon="6.78532">
        <ele>209</ele>
        <time>2011-06-03T11:14:27Z</time>
      </trkpt>
      <trkpt lat="43.47457" lon="6.78532">
        <ele>209</ele>
        <time>2011-06-03T11:14:28Z</time>
      </trkpt>
      <trkpt lat="43.47454" lon="6.78533">
        <ele>209</ele>
        <time>2011-06-03T11:14:29Z</time>
      </trkpt>
      <trkpt lat="43.47451" lon="6.78535">
        <ele>210</ele>
        <time>2011-06-03T11:14:30Z</time>
      </trkpt>
      <trkpt lat="43.47448" lon="6.78537">
        <ele>211</ele>
        <time>2011-06-03T11:14:31Z</time>
      </trkpt>
      <trkpt lat="43.47445" lon="6.78537">
        <ele>211</ele>
        <time>2011-06-03T11:14:32Z</time>
      </trkpt>
      <trkpt lat="43.47443" lon="6.78538">
        <ele>211</ele>
        <time>2011-06-03T11:14:33Z</time>
      </trkpt>
      <trkpt lat="43.4744" lon="6.78539">
        <ele>211</ele>
        <time>2011-06-03T11:14:34Z</time>
      </trkpt>
      <trkpt lat="43.47438" lon="6.7854">
        <ele>211</ele>
        <time>2011-06-03T11:14:35Z</time>
      </trkpt>
      <trkpt lat="43.47434" lon="6.78542">
        <ele>211</ele>
        <time>2011-06-03T11:14:36Z</time>
      </trkpt>
      <trkpt lat="43.47433" lon="6.78544">
        <ele>210</ele>
        <time>2011-06-03T11:14:37Z</time>
      </trkpt>
      <trkpt lat="43.4743" lon="6.78545">
        <ele>210</ele>
        <time>2011-06-03T11:14:40Z</time>
      </trkpt>
      <trkpt lat="43.4743" lon="6.78545">
        <ele>209.99681091309</ele>
        <time>2011-06-03T11:14:40Z</time>
      </trkpt>
      <trkpt lat="43.4743" lon="6.78545">
        <ele>209.99468994141</ele>
        <time>2011-06-03T11:14:40Z</time>
      </trkpt>
      <trkpt lat="43.47428" lon="6.78548">
        <ele>209.56639099121</ele>
        <time>2011-06-03T11:14:41Z</time>
      </trkpt>
      <trkpt lat="43.47422" lon="6.78553">
        <ele>209</ele>
        <time>2011-06-03T11:14:42Z</time>
      </trkpt>
      <trkpt lat="43.4742" lon="6.78554">
        <ele>209</ele>
        <time>2011-06-03T11:14:43Z</time>
      </trkpt>
      <trkpt lat="43.47418" lon="6.78557">
        <ele>209</ele>
        <time>2011-06-03T11:14:44Z</time>
      </trkpt>
      <trkpt lat="43.47417" lon="6.7856">
        <ele>208</ele>
        <time>2011-06-03T11:14:45Z</time>
      </trkpt>
      <trkpt lat="43.47416" lon="6.78562">
        <ele>208</ele>
        <time>2011-06-03T11:14:46Z</time>
      </trkpt>
      <trkpt lat="43.47414" lon="6.78565">
        <ele>208</ele>
        <time>2011-06-03T11:14:47Z</time>
      </trkpt>
      <trkpt lat="43.47412" lon="6.78568">
        <ele>208</ele>
        <time>2011-06-03T11:14:48Z</time>
      </trkpt>
      <trkpt lat="43.47412" lon="6.78571">
        <ele>208</ele>
        <time>2011-06-03T11:14:49Z</time>
      </trkpt>
      <trkpt lat="43.47411" lon="6.78575">
        <ele>208</ele>
        <time>2011-06-03T11:14:50Z</time>
      </trkpt>
      <trkpt lat="43.47411" lon="6.78577">
        <ele>207</ele>
        <time>2011-06-03T11:14:51Z</time>
      </trkpt>
      <trkpt lat="43.47411" lon="6.7858">
        <ele>206</ele>
        <time>2011-06-03T11:14:52Z</time>
      </trkpt>
      <trkpt lat="43.47412" lon="6.78584">
        <ele>206</ele>
        <time>2011-06-03T11:14:53Z</time>
      </trkpt>
      <trkpt lat="43.47413" lon="6.78587">
        <ele>205</ele>
        <time>2011-06-03T11:14:54Z</time>
      </trkpt>
      <trkpt lat="43.47415" lon="6.7859">
        <ele>203</ele>
        <time>2011-06-03T11:14:55Z</time>
      </trkpt>
      <trkpt lat="43.47417" lon="6.78594">
        <ele>202</ele>
        <time>2011-06-03T11:14:56Z</time>
      </trkpt>
      <trkpt lat="43.47419" lon="6.78596">
        <ele>201</ele>
        <time>2011-06-03T11:14:57Z</time>
      </trkpt>
      <trkpt lat="43.47421" lon="6.78599">
        <ele>201</ele>
        <time>2011-06-03T11:14:58Z</time>
      </trkpt>
      <trkpt lat="43.47421" lon="6.78602">
        <ele>201</ele>
        <time>2011-06-03T11:14:59Z</time>
      </trkpt>
      <trkpt lat="43.47421" lon="6.78606">
        <ele>201</ele>
        <time>2011-06-03T11:15:00Z</time>
      </trkpt>
      <trkpt lat="43.47421" lon="6.7861">
        <ele>201</ele>
        <time>2011-06-03T11:15:01Z</time>
      </trkpt>
      <trkpt lat="43.47421" lon="6.78612">
        <ele>201</ele>
        <time>2011-06-03T11:15:03Z</time>
      </trkpt>
      <trkpt lat="43.47421" lon="6.78612">
        <ele>201</ele>
        <time>2011-06-03T11:15:03Z</time>
      </trkpt>
      <trkpt lat="43.47421" lon="6.78614">
        <ele>200.8371887207</ele>
        <time>2011-06-03T11:15:04Z</time>
      </trkpt>
      <trkpt lat="43.47421" lon="6.78622">
        <ele>200.15467834473</ele>
        <time>2011-06-03T11:15:05Z</time>
      </trkpt>
      <trkpt lat="43.47421" lon="6.78628">
        <ele>200</ele>
        <time>2011-06-03T11:15:06Z</time>
      </trkpt>
      <trkpt lat="43.47423" lon="6.78631">
        <ele>199</ele>
        <time>2011-06-03T11:15:07Z</time>
      </trkpt>
      <trkpt lat="43.47422" lon="6.78635">
        <ele>199</ele>
        <time>2011-06-03T11:15:08Z</time>
      </trkpt>
      <trkpt lat="43.47423" lon="6.78638">
        <ele>199</ele>
        <time>2011-06-03T11:15:09Z</time>
      </trkpt>
      <trkpt lat="43.47424" lon="6.78641">
        <ele>200</ele>
        <time>2011-06-03T11:15:10Z</time>
      </trkpt>
      <trkpt lat="43.47424" lon="6.78644">
        <ele>199</ele>
        <time>2011-06-03T11:15:11Z</time>
      </trkpt>
      <trkpt lat="43.47425" lon="6.78648">
        <ele>199</ele>
        <time>2011-06-03T11:15:12Z</time>
      </trkpt>
      <trkpt lat="43.47425" lon="6.78653">
        <ele>199</ele>
        <time>2011-06-03T11:15:13Z</time>
      </trkpt>
      <trkpt lat="43.47426" lon="6.78656">
        <ele>198</ele>
        <time>2011-06-03T11:15:14Z</time>
      </trkpt>
      <trkpt lat="43.47426" lon="6.78661">
        <ele>198</ele>
        <time>2011-06-03T11:15:15Z</time>
      </trkpt>
      <trkpt lat="43.47426" lon="6.78665">
        <ele>197</ele>
        <time>2011-06-03T11:15:16Z</time>
      </trkpt>
      <trkpt lat="43.47425" lon="6.78668">
        <ele>197</ele>
        <time>2011-06-03T11:15:17Z</time>
      </trkpt>
      <trkpt lat="43.47424" lon="6.78672">
        <ele>196</ele>
        <time>2011-06-03T11:15:18Z</time>
      </trkpt>
      <trkpt lat="43.47424" lon="6.78676">
        <ele>196</ele>
        <time>2011-06-03T11:15:19Z</time>
      </trkpt>
      <trkpt lat="43.47424" lon="6.78679">
        <ele>195</ele>
        <time>2011-06-03T11:15:20Z</time>
      </trkpt>
      <trkpt lat="43.47423" lon="6.78683">
        <ele>196</ele>
        <time>2011-06-03T11:15:21Z</time>
      </trkpt>
      <trkpt lat="43.47423" lon="6.78687">
        <ele>197</ele>
        <time>2011-06-03T11:15:22Z</time>
      </trkpt>
      <trkpt lat="43.47423" lon="6.78691">
        <ele>196</ele>
        <time>2011-06-03T11:15:23Z</time>
      </trkpt>
      <trkpt lat="43.47423" lon="6.78695">
        <ele>197</ele>
        <time>2011-06-03T11:15:24Z</time>
      </trkpt>
      <trkpt lat="43.47423" lon="6.78699">
        <ele>197</ele>
        <time>2011-06-03T11:15:27Z</time>
      </trkpt>
      <trkpt lat="43.47423" lon="6.78699">
        <ele>197</ele>
        <time>2011-06-03T11:15:27Z</time>
      </trkpt>
      <trkpt lat="43.47423" lon="6.78699">
        <ele>196.99781799316</ele>
        <time>2011-06-03T11:15:27Z</time>
      </trkpt>
      <trkpt lat="43.47422" lon="6.78703">
        <ele>196.6541595459</ele>
        <time>2011-06-03T11:15:28Z</time>
      </trkpt>
      <trkpt lat="43.47423" lon="6.78712">
        <ele>196</ele>
        <time>2011-06-03T11:15:29Z</time>
      </trkpt>
      <trkpt lat="43.47423" lon="6.78716">
        <ele>196</ele>
        <time>2011-06-03T11:15:30Z</time>
      </trkpt>
      <trkpt lat="43.47423" lon="6.7872">
        <ele>195</ele>
        <time>2011-06-03T11:15:31Z</time>
      </trkpt>
      <trkpt lat="43.47423" lon="6.78724">
        <ele>196</ele>
        <time>2011-06-03T11:15:32Z</time>
      </trkpt>
      <trkpt lat="43.47424" lon="6.78727">
        <ele>196</ele>
        <time>2011-06-03T11:15:33Z</time>
      </trkpt>
      <trkpt lat="43.47425" lon="6.78731">
        <ele>196</ele>
        <time>2011-06-03T11:15:34Z</time>
      </trkpt>
      <trkpt lat="43.47426" lon="6.78735">
        <ele>195</ele>
        <time>2011-06-03T11:15:35Z</time>
      </trkpt>
      <trkpt lat="43.47426" lon="6.78739">
        <ele>195</ele>
        <time>2011-06-03T11:15:36Z</time>
      </trkpt>
      <trkpt lat="43.47425" lon="6.78744">
        <ele>196</ele>
        <time>2011-06-03T11:15:37Z</time>
      </trkpt>
      <trkpt lat="43.47424" lon="6.78747">
        <ele>195</ele>
        <time>2011-06-03T11:15:38Z</time>
      </trkpt>
      <trkpt lat="43.47423" lon="6.78751">
        <ele>195</ele>
        <time>2011-06-03T11:15:39Z</time>
      </trkpt>
      <trkpt lat="43.47421" lon="6.78753">
        <ele>195</ele>
        <time>2011-06-03T11:15:40Z</time>
      </trkpt>
      <trkpt lat="43.47418" lon="6.78755">
        <ele>195</ele>
        <time>2011-06-03T11:15:41Z</time>
      </trkpt>
      <trkpt lat="43.47416" lon="6.78757">
        <ele>194</ele>
        <time>2011-06-03T11:15:42Z</time>
      </trkpt>
      <trkpt lat="43.47413" lon="6.78758">
        <ele>194</ele>
        <time>2011-06-03T11:15:43Z</time>
      </trkpt>
      <trkpt lat="43.47411" lon="6.78761">
        <ele>194</ele>
        <time>2011-06-03T11:15:44Z</time>
      </trkpt>
      <trkpt lat="43.47408" lon="6.78763">
        <ele>194</ele>
        <time>2011-06-03T11:15:45Z</time>
      </trkpt>
      <trkpt lat="43.47404" lon="6.78763">
        <ele>192</ele>
        <time>2011-06-03T11:15:46Z</time>
      </trkpt>
      <trkpt lat="43.47402" lon="6.78764">
        <ele>191</ele>
        <time>2011-06-03T11:15:47Z</time>
      </trkpt>
      <trkpt lat="43.47398" lon="6.78766">
        <ele>191</ele>
        <time>2011-06-03T11:15:48Z</time>
      </trkpt>
      <trkpt lat="43.47398" lon="6.78769">
        <ele>190</ele>
        <time>2011-06-03T11:15:51Z</time>
      </trkpt>
      <trkpt lat="43.47398" lon="6.78769">
        <ele>190</ele>
        <time>2011-06-03T11:15:51Z</time>
      </trkpt>
      <trkpt lat="43.47398" lon="6.78769">
        <ele>190</ele>
        <time>2011-06-03T11:15:51Z</time>
      </trkpt>
      <trkpt lat="43.47396" lon="6.78775">
        <ele>190</ele>
        <time>2011-06-03T11:15:52Z</time>
      </trkpt>
      <trkpt lat="43.47396" lon="6.78782">
        <ele>190</ele>
        <time>2011-06-03T11:15:53Z</time>
      </trkpt>
      <trkpt lat="43.47398" lon="6.78785">
        <ele>190</ele>
        <time>2011-06-03T11:15:54Z</time>
      </trkpt>
      <trkpt lat="43.47401" lon="6.78788">
        <ele>190</ele>
        <time>2011-06-03T11:15:55Z</time>
      </trkpt>
      <trkpt lat="43.47402" lon="6.78791">
        <ele>190</ele>
        <time>2011-06-03T11:15:56Z</time>
      </trkpt>
      <trkpt lat="43.47404" lon="6.78794">
        <ele>189</ele>
        <time>2011-06-03T11:15:57Z</time>
      </trkpt>
      <trkpt lat="43.47406" lon="6.78797">
        <ele>189</ele>
        <time>2011-06-03T11:15:58Z</time>
      </trkpt>
      <trkpt lat="43.47408" lon="6.78799">
        <ele>189</ele>
        <time>2011-06-03T11:15:59Z</time>
      </trkpt>
      <trkpt lat="43.4741" lon="6.78802">
        <ele>189</ele>
        <time>2011-06-03T11:16:00Z</time>
      </trkpt>
      <trkpt lat="43.47411" lon="6.78803">
        <ele>190</ele>
        <time>2011-06-03T11:16:01Z</time>
      </trkpt>
      <trkpt lat="43.47414" lon="6.78804">
        <ele>190</ele>
        <time>2011-06-03T11:16:02Z</time>
      </trkpt>
      <trkpt lat="43.47416" lon="6.78805">
        <ele>190</ele>
        <time>2011-06-03T11:16:03Z</time>
      </trkpt>
      <trkpt lat="43.47419" lon="6.78808">
        <ele>190</ele>
        <time>2011-06-03T11:16:04Z</time>
      </trkpt>
      <trkpt lat="43.47421" lon="6.7881">
        <ele>189</ele>
        <time>2011-06-03T11:16:05Z</time>
      </trkpt>
      <trkpt lat="43.47424" lon="6.78812">
        <ele>189</ele>
        <time>2011-06-03T11:16:06Z</time>
      </trkpt>
      <trkpt lat="43.47426" lon="6.78813">
        <ele>189</ele>
        <time>2011-06-03T11:16:07Z</time>
      </trkpt>
      <trkpt lat="43.47427" lon="6.78815">
        <ele>190</ele>
        <time>2011-06-03T11:16:08Z</time>
      </trkpt>
      <trkpt lat="43.4743" lon="6.78817">
        <ele>190</ele>
        <time>2011-06-03T11:16:09Z</time>
      </trkpt>
      <trkpt lat="43.47432" lon="6.78819">
        <ele>189</ele>
        <time>2011-06-03T11:16:10Z</time>
      </trkpt>
      <trkpt lat="43.47434" lon="6.78822">
        <ele>189</ele>
        <time>2011-06-03T11:16:11Z</time>
      </trkpt>
      <trkpt lat="43.47436" lon="6.78824">
        <ele>188</ele>
        <time>2011-06-03T11:16:14Z</time>
      </trkpt>
      <trkpt lat="43.47436" lon="6.78824">
        <ele>188</ele>
        <time>2011-06-03T11:16:14Z</time>
      </trkpt>
      <trkpt lat="43.47437" lon="6.78824">
        <ele>187.99850463867</ele>
        <time>2011-06-03T11:16:14Z</time>
      </trkpt>
      <trkpt lat="43.47439" lon="6.78825">
        <ele>187.6043548584</ele>
        <time>2011-06-03T11:16:15Z</time>
      </trkpt>
      <trkpt lat="43.47446" lon="6.78828">
        <ele>187</ele>
        <time>2011-06-03T11:16:16Z</time>
      </trkpt>
      <trkpt lat="43.47448" lon="6.7883">
        <ele>187</ele>
        <time>2011-06-03T11:16:17Z</time>
      </trkpt>
      <trkpt lat="43.4745" lon="6.78833">
        <ele>186</ele>
        <time>2011-06-03T11:16:18Z</time>
      </trkpt>
      <trkpt lat="43.47453" lon="6.78835">
        <ele>186</ele>
        <time>2011-06-03T11:16:19Z</time>
      </trkpt>
      <trkpt lat="43.47455" lon="6.78838">
        <ele>185</ele>
        <time>2011-06-03T11:16:20Z</time>
      </trkpt>
      <trkpt lat="43.47456" lon="6.78841">
        <ele>185</ele>
        <time>2011-06-03T11:16:21Z</time>
      </trkpt>
      <trkpt lat="43.47457" lon="6.78844">
        <ele>185</ele>
        <time>2011-06-03T11:16:22Z</time>
      </trkpt>
      <trkpt lat="43.47456" lon="6.78847">
        <ele>186</ele>
        <time>2011-06-03T11:16:23Z</time>
      </trkpt>
      <trkpt lat="43.47455" lon="6.78849">
        <ele>186</ele>
        <time>2011-06-03T11:16:24Z</time>
      </trkpt>
      <trkpt lat="43.47453" lon="6.78852">
        <ele>185</ele>
        <time>2011-06-03T11:16:25Z</time>
      </trkpt>
      <trkpt lat="43.47449" lon="6.78854">
        <ele>185</ele>
        <time>2011-06-03T11:16:26Z</time>
      </trkpt>
      <trkpt lat="43.47447" lon="6.78857">
        <ele>185</ele>
        <time>2011-06-03T11:16:27Z</time>
      </trkpt>
      <trkpt lat="43.47445" lon="6.78859">
        <ele>185</ele>
        <time>2011-06-03T11:16:28Z</time>
      </trkpt>
      <trkpt lat="43.47442" lon="6.78861">
        <ele>185</ele>
        <time>2011-06-03T11:16:29Z</time>
      </trkpt>
      <trkpt lat="43.4744" lon="6.78863">
        <ele>185</ele>
        <time>2011-06-03T11:16:30Z</time>
      </trkpt>
      <trkpt lat="43.47438" lon="6.78866">
        <ele>185</ele>
        <time>2011-06-03T11:16:31Z</time>
      </trkpt>
      <trkpt lat="43.47435" lon="6.78868">
        <ele>185</ele>
        <time>2011-06-03T11:16:32Z</time>
      </trkpt>
      <trkpt lat="43.47433" lon="6.7887">
        <ele>184</ele>
        <time>2011-06-03T11:16:33Z</time>
      </trkpt>
      <trkpt lat="43.47429" lon="6.78871">
        <ele>184</ele>
        <time>2011-06-03T11:16:34Z</time>
      </trkpt>
      <trkpt lat="43.47426" lon="6.78872">
        <ele>184</ele>
        <time>2011-06-03T11:16:35Z</time>
      </trkpt>
      <trkpt lat="43.47423" lon="6.78874">
        <ele>183</ele>
        <time>2011-06-03T11:16:38Z</time>
      </trkpt>
      <trkpt lat="43.47423" lon="6.78874">
        <ele>183.00393676758</ele>
        <time>2011-06-03T11:16:38Z</time>
      </trkpt>
      <trkpt lat="43.47423" lon="6.78874">
        <ele>183.00392150879</ele>
        <time>2011-06-03T11:16:38Z</time>
      </trkpt>
      <trkpt lat="43.47419" lon="6.78875">
        <ele>183.55068969727</ele>
        <time>2011-06-03T11:16:39Z</time>
      </trkpt>
      <trkpt lat="43.47413" lon="6.78877">
        <ele>184</ele>
        <time>2011-06-03T11:16:40Z</time>
      </trkpt>
      <trkpt lat="43.47411" lon="6.7888">
        <ele>183</ele>
        <time>2011-06-03T11:16:41Z</time>
      </trkpt>
      <trkpt lat="43.47408" lon="6.78881">
        <ele>183</ele>
        <time>2011-06-03T11:16:42Z</time>
      </trkpt>
      <trkpt lat="43.47406" lon="6.78883">
        <ele>183</ele>
        <time>2011-06-03T11:16:43Z</time>
      </trkpt>
      <trkpt lat="43.47403" lon="6.78885">
        <ele>183</ele>
        <time>2011-06-03T11:16:44Z</time>
      </trkpt>
      <trkpt lat="43.47401" lon="6.78887">
        <ele>184</ele>
        <time>2011-06-03T11:16:45Z</time>
      </trkpt>
      <trkpt lat="43.47398" lon="6.78889">
        <ele>183</ele>
        <time>2011-06-03T11:16:46Z</time>
      </trkpt>
      <trkpt lat="43.47396" lon="6.78891">
        <ele>183</ele>
        <time>2011-06-03T11:16:47Z</time>
      </trkpt>
      <trkpt lat="43.47394" lon="6.78893">
        <ele>183</ele>
        <time>2011-06-03T11:16:48Z</time>
      </trkpt>
      <trkpt lat="43.47391" lon="6.78895">
        <ele>182</ele>
        <time>2011-06-03T11:16:49Z</time>
      </trkpt>
      <trkpt lat="43.47389" lon="6.78898">
        <ele>182</ele>
        <time>2011-06-03T11:16:50Z</time>
      </trkpt>
      <trkpt lat="43.47387" lon="6.789">
        <ele>182</ele>
        <time>2011-06-03T11:16:51Z</time>
      </trkpt>
      <trkpt lat="43.47385" lon="6.78902">
        <ele>182</ele>
        <time>2011-06-03T11:16:52Z</time>
      </trkpt>
      <trkpt lat="43.47382" lon="6.78904">
        <ele>181</ele>
        <time>2011-06-03T11:16:53Z</time>
      </trkpt>
      <trkpt lat="43.47381" lon="6.78907">
        <ele>182</ele>
        <time>2011-06-03T11:16:54Z</time>
      </trkpt>
      <trkpt lat="43.47379" lon="6.7891">
        <ele>182</ele>
        <time>2011-06-03T11:16:55Z</time>
      </trkpt>
      <trkpt lat="43.47378" lon="6.78913">
        <ele>181</ele>
        <time>2011-06-03T11:16:56Z</time>
      </trkpt>
      <trkpt lat="43.47376" lon="6.78916">
        <ele>181</ele>
        <time>2011-06-03T11:16:57Z</time>
      </trkpt>
      <trkpt lat="43.47375" lon="6.7892">
        <ele>181</ele>
        <time>2011-06-03T11:16:58Z</time>
      </trkpt>
      <trkpt lat="43.47374" lon="6.78922">
        <ele>181</ele>
        <time>2011-06-03T11:17:02Z</time>
      </trkpt>
      <trkpt lat="43.47374" lon="6.78922">
        <ele>181</ele>
        <time>2011-06-03T11:17:02Z</time>
      </trkpt>
      <trkpt lat="43.47374" lon="6.78922">
        <ele>181</ele>
        <time>2011-06-03T11:17:02Z</time>
      </trkpt>
      <trkpt lat="43.47374" lon="6.78923">
        <ele>180.96714782715</ele>
        <time>2011-06-03T11:17:02Z</time>
      </trkpt>
      <trkpt lat="43.47371" lon="6.78929">
        <ele>180.51293945312</ele>
        <time>2011-06-03T11:17:03Z</time>
      </trkpt>
      <trkpt lat="43.47367" lon="6.78938">
        <ele>180.04875183105</ele>
        <time>2011-06-03T11:17:04Z</time>
      </trkpt>
      <trkpt lat="43.47365" lon="6.78941">
        <ele>180</ele>
        <time>2011-06-03T11:17:05Z</time>
      </trkpt>
      <trkpt lat="43.47365" lon="6.78943">
        <ele>180</ele>
        <time>2011-06-03T11:17:06Z</time>
      </trkpt>
      <trkpt lat="43.47364" lon="6.78947">
        <ele>180</ele>
        <time>2011-06-03T11:17:07Z</time>
      </trkpt>
      <trkpt lat="43.47363" lon="6.7895">
        <ele>181</ele>
        <time>2011-06-03T11:17:08Z</time>
      </trkpt>
      <trkpt lat="43.47362" lon="6.78952">
        <ele>181</ele>
        <time>2011-06-03T11:17:09Z</time>
      </trkpt>
      <trkpt lat="43.47362" lon="6.78957">
        <ele>180</ele>
        <time>2011-06-03T11:17:10Z</time>
      </trkpt>
      <trkpt lat="43.47362" lon="6.7896">
        <ele>180</ele>
        <time>2011-06-03T11:17:11Z</time>
      </trkpt>
      <trkpt lat="43.47362" lon="6.78964">
        <ele>181</ele>
        <time>2011-06-03T11:17:12Z</time>
      </trkpt>
      <trkpt lat="43.47362" lon="6.78967">
        <ele>181</ele>
        <time>2011-06-03T11:17:13Z</time>
      </trkpt>
      <trkpt lat="43.47362" lon="6.78971">
        <ele>181</ele>
        <time>2011-06-03T11:17:14Z</time>
      </trkpt>
      <trkpt lat="43.47362" lon="6.78973">
        <ele>180</ele>
        <time>2011-06-03T11:17:15Z</time>
      </trkpt>
      <trkpt lat="43.47363" lon="6.78976">
        <ele>179</ele>
        <time>2011-06-03T11:17:16Z</time>
      </trkpt>
      <trkpt lat="43.47364" lon="6.78979">
        <ele>179</ele>
        <time>2011-06-03T11:17:17Z</time>
      </trkpt>
      <trkpt lat="43.47364" lon="6.78981">
        <ele>179</ele>
        <time>2011-06-03T11:17:18Z</time>
      </trkpt>
      <trkpt lat="43.47365" lon="6.78985">
        <ele>179</ele>
        <time>2011-06-03T11:17:19Z</time>
      </trkpt>
      <trkpt lat="43.47366" lon="6.78987">
        <ele>179</ele>
        <time>2011-06-03T11:17:20Z</time>
      </trkpt>
      <trkpt lat="43.47367" lon="6.7899">
        <ele>179</ele>
        <time>2011-06-03T11:17:21Z</time>
      </trkpt>
      <trkpt lat="43.47368" lon="6.78992">
        <ele>179</ele>
        <time>2011-06-03T11:17:22Z</time>
      </trkpt>
      <trkpt lat="43.47369" lon="6.78995">
        <ele>179</ele>
        <time>2011-06-03T11:17:25Z</time>
      </trkpt>
      <trkpt lat="43.47369" lon="6.78995">
        <ele>179</ele>
        <time>2011-06-03T11:17:25Z</time>
      </trkpt>
      <trkpt lat="43.47369" lon="6.78995">
        <ele>179</ele>
        <time>2011-06-03T11:17:25Z</time>
      </trkpt>
      <trkpt lat="43.47372" lon="6.78998">
        <ele>179</ele>
        <time>2011-06-03T11:17:26Z</time>
      </trkpt>
      <trkpt lat="43.47376" lon="6.79003">
        <ele>179</ele>
        <time>2011-06-03T11:17:27Z</time>
      </trkpt>
      <trkpt lat="43.47377" lon="6.79006">
        <ele>179</ele>
        <time>2011-06-03T11:17:28Z</time>
      </trkpt>
      <trkpt lat="43.47378" lon="6.7901">
        <ele>178</ele>
        <time>2011-06-03T11:17:29Z</time>
      </trkpt>
      <trkpt lat="43.47379" lon="6.79011">
        <ele>179</ele>
        <time>2011-06-03T11:17:30Z</time>
      </trkpt>
      <trkpt lat="43.4738" lon="6.79015">
        <ele>179</ele>
        <time>2011-06-03T11:17:31Z</time>
      </trkpt>
      <trkpt lat="43.47381" lon="6.79017">
        <ele>179</ele>
        <time>2011-06-03T11:17:32Z</time>
      </trkpt>
      <trkpt lat="43.47383" lon="6.7902">
        <ele>179</ele>
        <time>2011-06-03T11:17:33Z</time>
      </trkpt>
      <trkpt lat="43.47384" lon="6.79022">
        <ele>179</ele>
        <time>2011-06-03T11:17:34Z</time>
      </trkpt>
      <trkpt lat="43.47386" lon="6.79025">
        <ele>179</ele>
        <time>2011-06-03T11:17:35Z</time>
      </trkpt>
      <trkpt lat="43.47386" lon="6.79027">
        <ele>180</ele>
        <time>2011-06-03T11:17:36Z</time>
      </trkpt>
      <trkpt lat="43.47387" lon="6.7903">
        <ele>180</ele>
        <time>2011-06-03T11:17:37Z</time>
      </trkpt>
      <trkpt lat="43.47389" lon="6.79033">
        <ele>180</ele>
        <time>2011-06-03T11:17:38Z</time>
      </trkpt>
      <trkpt lat="43.4739" lon="6.79034">
        <ele>180</ele>
        <time>2011-06-03T11:17:39Z</time>
      </trkpt>
      <trkpt lat="43.47391" lon="6.79037">
        <ele>180</ele>
        <time>2011-06-03T11:17:40Z</time>
      </trkpt>
      <trkpt lat="43.47392" lon="6.79039">
        <ele>180</ele>
        <time>2011-06-03T11:17:41Z</time>
      </trkpt>
      <trkpt lat="43.47395" lon="6.79043">
        <ele>180</ele>
        <time>2011-06-03T11:17:42Z</time>
      </trkpt>
      <trkpt lat="43.47397" lon="6.79045">
        <ele>181</ele>
        <time>2011-06-03T11:17:43Z</time>
      </trkpt>
      <trkpt lat="43.47397" lon="6.79048">
        <ele>182</ele>
        <time>2011-06-03T11:17:44Z</time>
      </trkpt>
      <trkpt lat="43.47399" lon="6.79051">
        <ele>182</ele>
        <time>2011-06-03T11:17:45Z</time>
      </trkpt>
      <trkpt lat="43.47401" lon="6.79054">
        <ele>183</ele>
        <time>2011-06-03T11:17:48Z</time>
      </trkpt>
      <trkpt lat="43.47401" lon="6.79054">
        <ele>183</ele>
        <time>2011-06-03T11:17:48Z</time>
      </trkpt>
      <trkpt lat="43.47401" lon="6.79054">
        <ele>183.00180053711</ele>
        <time>2011-06-03T11:17:48Z</time>
      </trkpt>
      <trkpt lat="43.47402" lon="6.79055">
        <ele>183.18684387207</ele>
        <time>2011-06-03T11:17:49Z</time>
      </trkpt>
      <trkpt lat="43.47406" lon="6.79063">
        <ele>182.24528503418</ele>
        <time>2011-06-03T11:17:50Z</time>
      </trkpt>
      <trkpt lat="43.47408" lon="6.79067">
        <ele>181</ele>
        <time>2011-06-03T11:17:51Z</time>
      </trkpt>
      <trkpt lat="43.4741" lon="6.7907">
        <ele>181</ele>
        <time>2011-06-03T11:17:52Z</time>
      </trkpt>
      <trkpt lat="43.47411" lon="6.79072">
        <ele>181</ele>
        <time>2011-06-03T11:17:53Z</time>
      </trkpt>
      <trkpt lat="43.47413" lon="6.79074">
        <ele>181</ele>
        <time>2011-06-03T11:17:54Z</time>
      </trkpt>
      <trkpt lat="43.47414" lon="6.79076">
        <ele>182</ele>
        <time>2011-06-03T11:17:55Z</time>
      </trkpt>
      <trkpt lat="43.47416" lon="6.79078">
        <ele>181</ele>
        <time>2011-06-03T11:17:56Z</time>
      </trkpt>
      <trkpt lat="43.47419" lon="6.7908">
        <ele>182</ele>
        <time>2011-06-03T11:17:57Z</time>
      </trkpt>
      <trkpt lat="43.47421" lon="6.79082">
        <ele>183</ele>
        <time>2011-06-03T11:17:58Z</time>
      </trkpt>
      <trkpt lat="43.47421" lon="6.79084">
        <ele>183</ele>
        <time>2011-06-03T11:17:59Z</time>
      </trkpt>
      <trkpt lat="43.47423" lon="6.79087">
        <ele>183</ele>
        <time>2011-06-03T11:18:00Z</time>
      </trkpt>
      <trkpt lat="43.47424" lon="6.79089">
        <ele>184</ele>
        <time>2011-06-03T11:18:01Z</time>
      </trkpt>
      <trkpt lat="43.47426" lon="6.79091">
        <ele>183</ele>
        <time>2011-06-03T11:18:02Z</time>
      </trkpt>
      <trkpt lat="43.47427" lon="6.79093">
        <ele>184</ele>
        <time>2011-06-03T11:18:03Z</time>
      </trkpt>
      <trkpt lat="43.47428" lon="6.79095">
        <ele>184</ele>
        <time>2011-06-03T11:18:04Z</time>
      </trkpt>
      <trkpt lat="43.47429" lon="6.79098">
        <ele>184</ele>
        <time>2011-06-03T11:18:05Z</time>
      </trkpt>
      <trkpt lat="43.4743" lon="6.791">
        <ele>184</ele>
        <time>2011-06-03T11:18:06Z</time>
      </trkpt>
      <trkpt lat="43.47431" lon="6.79103">
        <ele>184</ele>
        <time>2011-06-03T11:18:07Z</time>
      </trkpt>
      <trkpt lat="43.47431" lon="6.79105">
        <ele>183</ele>
        <time>2011-06-03T11:18:08Z</time>
      </trkpt>
      <trkpt lat="43.47431" lon="6.79106">
        <ele>183</ele>
        <time>2011-06-03T11:18:09Z</time>
      </trkpt>
      <trkpt lat="43.47431" lon="6.79107">
        <ele>184</ele>
        <time>2011-06-03T11:18:12Z</time>
      </trkpt>
      <trkpt lat="43.47431" lon="6.79107">
        <ele>184</ele>
        <time>2011-06-03T11:18:12Z</time>
      </trkpt>
      <trkpt lat="43.47431" lon="6.79107">
        <ele>183.99838256836</ele>
        <time>2011-06-03T11:18:12Z</time>
      </trkpt>
      <trkpt lat="43.47431" lon="6.7911">
        <ele>183.48695373535</ele>
        <time>2011-06-03T11:18:13Z</time>
      </trkpt>
      <trkpt lat="43.4743" lon="6.79114">
        <ele>184</ele>
        <time>2011-06-03T11:18:14Z</time>
      </trkpt>
      <trkpt lat="43.47429" lon="6.79116">
        <ele>184</ele>
        <time>2011-06-03T11:18:15Z</time>
      </trkpt>
      <trkpt lat="43.47428" lon="6.79118">
        <ele>184</ele>
        <time>2011-06-03T11:18:16Z</time>
      </trkpt>
      <trkpt lat="43.47427" lon="6.79119">
        <ele>184</ele>
        <time>2011-06-03T11:18:17Z</time>
      </trkpt>
      <trkpt lat="43.47426" lon="6.7912">
        <ele>184</ele>
        <time>2011-06-03T11:18:18Z</time>
      </trkpt>
      <trkpt lat="43.47426" lon="6.79121">
        <ele>184</ele>
        <time>2011-06-03T11:18:19Z</time>
      </trkpt>
      <trkpt lat="43.47424" lon="6.79122">
        <ele>184</ele>
        <time>2011-06-03T11:18:20Z</time>
      </trkpt>
      <trkpt lat="43.47424" lon="6.79122">
        <ele>184</ele>
        <time>2011-06-03T11:18:21Z</time>
      </trkpt>
      <trkpt lat="43.47423" lon="6.79123">
        <ele>184</ele>
        <time>2011-06-03T11:18:22Z</time>
      </trkpt>
      <trkpt lat="43.47422" lon="6.79124">
        <ele>184</ele>
        <time>2011-06-03T11:18:23Z</time>
      </trkpt>
      <trkpt lat="43.47421" lon="6.79125">
        <ele>184</ele>
        <time>2011-06-03T11:18:24Z</time>
      </trkpt>
      <trkpt lat="43.4742" lon="6.79126">
        <ele>184</ele>
        <time>2011-06-03T11:18:25Z</time>
      </trkpt>
      <trkpt lat="43.47419" lon="6.79127">
        <ele>185</ele>
        <time>2011-06-03T11:18:26Z</time>
      </trkpt>
      <trkpt lat="43.47418" lon="6.79127">
        <ele>185</ele>
        <time>2011-06-03T11:18:27Z</time>
      </trkpt>
      <trkpt lat="43.47417" lon="6.79128">
        <ele>185</ele>
        <time>2011-06-03T11:18:28Z</time>
      </trkpt>
      <trkpt lat="43.47417" lon="6.79129">
        <ele>185</ele>
        <time>2011-06-03T11:18:29Z</time>
      </trkpt>
      <trkpt lat="43.47414" lon="6.79128">
        <ele>185</ele>
        <time>2011-06-03T11:18:30Z</time>
      </trkpt>
      <trkpt lat="43.47413" lon="6.7913">
        <ele>185</ele>
        <time>2011-06-03T11:18:31Z</time>
      </trkpt>
      <trkpt lat="43.47412" lon="6.7913">
        <ele>184</ele>
        <time>2011-06-03T11:18:32Z</time>
      </trkpt>
      <trkpt lat="43.47411" lon="6.79131">
        <ele>185</ele>
        <time>2011-06-03T11:18:33Z</time>
      </trkpt>
      <trkpt lat="43.4741" lon="6.79132">
        <ele>185</ele>
        <time>2011-06-03T11:18:35Z</time>
      </trkpt>
      <trkpt lat="43.4741" lon="6.79132">
        <ele>185.00140380859</ele>
        <time>2011-06-03T11:18:35Z</time>
      </trkpt>
      <trkpt lat="43.47409" lon="6.79133">
        <ele>185.16944885254</ele>
        <time>2011-06-03T11:18:36Z</time>
      </trkpt>
      <trkpt lat="43.47405" lon="6.79136">
        <ele>184</ele>
        <time>2011-06-03T11:18:37Z</time>
      </trkpt>
      <trkpt lat="43.47402" lon="6.79136">
        <ele>184</ele>
        <time>2011-06-03T11:18:38Z</time>
      </trkpt>
      <trkpt lat="43.47399" lon="6.79137">
        <ele>184</ele>
        <time>2011-06-03T11:18:39Z</time>
      </trkpt>
      <trkpt lat="43.47398" lon="6.79137">
        <ele>184</ele>
        <time>2011-06-03T11:18:40Z</time>
      </trkpt>
      <trkpt lat="43.47398" lon="6.79139">
        <ele>184</ele>
        <time>2011-06-03T11:18:41Z</time>
      </trkpt>
      <trkpt lat="43.47398" lon="6.7914">
        <ele>184</ele>
        <time>2011-06-03T11:18:42Z</time>
      </trkpt>
      <trkpt lat="43.47397" lon="6.7914">
        <ele>183</ele>
        <time>2011-06-03T11:18:43Z</time>
      </trkpt>
      <trkpt lat="43.47396" lon="6.79142">
        <ele>182</ele>
        <time>2011-06-03T11:18:44Z</time>
      </trkpt>
      <trkpt lat="43.47396" lon="6.79143">
        <ele>183</ele>
        <time>2011-06-03T11:18:45Z</time>
      </trkpt>
      <trkpt lat="43.47395" lon="6.79145">
        <ele>182</ele>
        <time>2011-06-03T11:18:46Z</time>
      </trkpt>
      <trkpt lat="43.47395" lon="6.79146">
        <ele>182</ele>
        <time>2011-06-03T11:18:47Z</time>
      </trkpt>
      <trkpt lat="43.47392" lon="6.79147">
        <ele>183</ele>
        <time>2011-06-03T11:18:48Z</time>
      </trkpt>
      <trkpt lat="43.47391" lon="6.79149">
        <ele>183</ele>
        <time>2011-06-03T11:18:49Z</time>
      </trkpt>
      <trkpt lat="43.47389" lon="6.7915">
        <ele>184</ele>
        <time>2011-06-03T11:18:50Z</time>
      </trkpt>
      <trkpt lat="43.47388" lon="6.79151">
        <ele>184</ele>
        <time>2011-06-03T11:18:51Z</time>
      </trkpt>
      <trkpt lat="43.47387" lon="6.79151">
        <ele>184</ele>
        <time>2011-06-03T11:18:52Z</time>
      </trkpt>
      <trkpt lat="43.47386" lon="6.79152">
        <ele>185</ele>
        <time>2011-06-03T11:18:53Z</time>
      </trkpt>
      <trkpt lat="43.47384" lon="6.79152">
        <ele>184</ele>
        <time>2011-06-03T11:18:54Z</time>
      </trkpt>
      <trkpt lat="43.47381" lon="6.79151">
        <ele>185</ele>
        <time>2011-06-03T11:18:55Z</time>
      </trkpt>
      <trkpt lat="43.4738" lon="6.79151">
        <ele>185</ele>
        <time>2011-06-03T11:18:56Z</time>
      </trkpt>
      <trkpt lat="43.47379" lon="6.7915">
        <ele>186</ele>
        <time>2011-06-03T11:18:59Z</time>
      </trkpt>
      <trkpt lat="43.47379" lon="6.7915">
        <ele>186</ele>
        <time>2011-06-03T11:18:59Z</time>
      </trkpt>
      <trkpt lat="43.47379" lon="6.7915">
        <ele>185.99795532227</ele>
        <time>2011-06-03T11:18:59Z</time>
      </trkpt>
      <trkpt lat="43.47375" lon="6.79148">
        <ele>185.01596069336</ele>
        <time>2011-06-03T11:19:00Z</time>
      </trkpt>
      <trkpt lat="43.47375" lon="6.79149">
        <ele>186</ele>
        <time>2011-06-03T11:19:01Z</time>
      </trkpt>
      <trkpt lat="43.47373" lon="6.7915">
        <ele>186</ele>
        <time>2011-06-03T11:19:02Z</time>
      </trkpt>
      <trkpt lat="43.47373" lon="6.7915">
        <ele>187</ele>
        <time>2011-06-03T11:19:03Z</time>
      </trkpt>
      <trkpt lat="43.47372" lon="6.7915">
        <ele>187</ele>
        <time>2011-06-03T11:19:04Z</time>
      </trkpt>
      <trkpt lat="43.47371" lon="6.79151">
        <ele>187</ele>
        <time>2011-06-03T11:19:05Z</time>
      </trkpt>
      <trkpt lat="43.47369" lon="6.79152">
        <ele>187</ele>
        <time>2011-06-03T11:19:06Z</time>
      </trkpt>
      <trkpt lat="43.47368" lon="6.79153">
        <ele>187</ele>
        <time>2011-06-03T11:19:07Z</time>
      </trkpt>
      <trkpt lat="43.47367" lon="6.79154">
        <ele>187</ele>
        <time>2011-06-03T11:19:08Z</time>
      </trkpt>
      <trkpt lat="43.47366" lon="6.79155">
        <ele>187</ele>
        <time>2011-06-03T11:19:09Z</time>
      </trkpt>
      <trkpt lat="43.47365" lon="6.79155">
        <ele>187</ele>
        <time>2011-06-03T11:19:10Z</time>
      </trkpt>
      <trkpt lat="43.47365" lon="6.79156">
        <ele>187</ele>
        <time>2011-06-03T11:19:11Z</time>
      </trkpt>
      <trkpt lat="43.47364" lon="6.79157">
        <ele>187</ele>
        <time>2011-06-03T11:19:12Z</time>
      </trkpt>
      <trkpt lat="43.47362" lon="6.79158">
        <ele>187</ele>
        <time>2011-06-03T11:19:13Z</time>
      </trkpt>
      <trkpt lat="43.47361" lon="6.7916">
        <ele>187</ele>
        <time>2011-06-03T11:19:14Z</time>
      </trkpt>
      <trkpt lat="43.4736" lon="6.79162">
        <ele>186</ele>
        <time>2011-06-03T11:19:15Z</time>
      </trkpt>
      <trkpt lat="43.47359" lon="6.79163">
        <ele>186</ele>
        <time>2011-06-03T11:19:16Z</time>
      </trkpt>
      <trkpt lat="43.47359" lon="6.79165">
        <ele>186</ele>
        <time>2011-06-03T11:19:17Z</time>
      </trkpt>
      <trkpt lat="43.47358" lon="6.79166">
        <ele>187</ele>
        <time>2011-06-03T11:19:18Z</time>
      </trkpt>
      <trkpt lat="43.47358" lon="6.79168">
        <ele>187</ele>
        <time>2011-06-03T11:19:19Z</time>
      </trkpt>
      <trkpt lat="43.47357" lon="6.79169">
        <ele>188</ele>
        <time>2011-06-03T11:19:22Z</time>
      </trkpt>
      <trkpt lat="43.47357" lon="6.79169">
        <ele>188</ele>
        <time>2011-06-03T11:19:22Z</time>
      </trkpt>
      <trkpt lat="43.47357" lon="6.79169">
        <ele>188.08818054199</ele>
        <time>2011-06-03T11:19:22Z</time>
      </trkpt>
      <trkpt lat="43.47357" lon="6.79174">
        <ele>189</ele>
        <time>2011-06-03T11:19:23Z</time>
      </trkpt>
      <trkpt lat="43.47355" lon="6.79176">
        <ele>188</ele>
        <time>2011-06-03T11:19:24Z</time>
      </trkpt>
      <trkpt lat="43.47355" lon="6.79178">
        <ele>188</ele>
        <time>2011-06-03T11:19:25Z</time>
      </trkpt>
      <trkpt lat="43.47355" lon="6.79179">
        <ele>188</ele>
        <time>2011-06-03T11:19:26Z</time>
      </trkpt>
      <trkpt lat="43.47355" lon="6.79181">
        <ele>188</ele>
        <time>2011-06-03T11:19:27Z</time>
      </trkpt>
      <trkpt lat="43.47356" lon="6.79182">
        <ele>187</ele>
        <time>2011-06-03T11:19:28Z</time>
      </trkpt>
      <trkpt lat="43.47357" lon="6.79184">
        <ele>187</ele>
        <time>2011-06-03T11:19:29Z</time>
      </trkpt>
      <trkpt lat="43.47355" lon="6.79186">
        <ele>189</ele>
        <time>2011-06-03T11:19:30Z</time>
      </trkpt>
      <trkpt lat="43.47355" lon="6.79188">
        <ele>189</ele>
        <time>2011-06-03T11:19:31Z</time>
      </trkpt>
      <trkpt lat="43.47355" lon="6.7919">
        <ele>189</ele>
        <time>2011-06-03T11:19:32Z</time>
      </trkpt>
      <trkpt lat="43.47355" lon="6.79191">
        <ele>189</ele>
        <time>2011-06-03T11:19:33Z</time>
      </trkpt>
      <trkpt lat="43.47355" lon="6.79193">
        <ele>189</ele>
        <time>2011-06-03T11:19:34Z</time>
      </trkpt>
      <trkpt lat="43.47355" lon="6.79195">
        <ele>189</ele>
        <time>2011-06-03T11:19:35Z</time>
      </trkpt>
      <trkpt lat="43.47355" lon="6.79198">
        <ele>188</ele>
        <time>2011-06-03T11:19:36Z</time>
      </trkpt>
      <trkpt lat="43.47355" lon="6.792">
        <ele>189</ele>
        <time>2011-06-03T11:19:37Z</time>
      </trkpt>
      <trkpt lat="43.47356" lon="6.79201">
        <ele>189</ele>
        <time>2011-06-03T11:19:38Z</time>
      </trkpt>
      <trkpt lat="43.47357" lon="6.79203">
        <ele>190</ele>
        <time>2011-06-03T11:19:39Z</time>
      </trkpt>
      <trkpt lat="43.47356" lon="6.79205">
        <ele>191</ele>
        <time>2011-06-03T11:19:40Z</time>
      </trkpt>
      <trkpt lat="43.47355" lon="6.79208">
        <ele>191</ele>
        <time>2011-06-03T11:19:41Z</time>
      </trkpt>
      <trkpt lat="43.47354" lon="6.79209">
        <ele>191</ele>
        <time>2011-06-03T11:19:42Z</time>
      </trkpt>
      <trkpt lat="43.47354" lon="6.79211">
        <ele>191</ele>
        <time>2011-06-03T11:19:45Z</time>
      </trkpt>
      <trkpt lat="43.47354" lon="6.79211">
        <ele>191</ele>
        <time>2011-06-03T11:19:45Z</time>
      </trkpt>
      <trkpt lat="43.47354" lon="6.79211">
        <ele>191</ele>
        <time>2011-06-03T11:19:45Z</time>
      </trkpt>
      <trkpt lat="43.47354" lon="6.79212">
        <ele>191</ele>
        <time>2011-06-03T11:19:46Z</time>
      </trkpt>
      <trkpt lat="43.47351" lon="6.79216">
        <ele>191</ele>
        <time>2011-06-03T11:19:47Z</time>
      </trkpt>
      <trkpt lat="43.47349" lon="6.79217">
        <ele>191</ele>
        <time>2011-06-03T11:19:48Z</time>
      </trkpt>
      <trkpt lat="43.47348" lon="6.79218">
        <ele>192</ele>
        <time>2011-06-03T11:19:49Z</time>
      </trkpt>
      <trkpt lat="43.47346" lon="6.79218">
        <ele>192</ele>
        <time>2011-06-03T11:19:50Z</time>
      </trkpt>
      <trkpt lat="43.47345" lon="6.79218">
        <ele>192</ele>
        <time>2011-06-03T11:19:51Z</time>
      </trkpt>
      <trkpt lat="43.47344" lon="6.79219">
        <ele>192</ele>
        <time>2011-06-03T11:19:52Z</time>
      </trkpt>
      <trkpt lat="43.47342" lon="6.79219">
        <ele>192</ele>
        <time>2011-06-03T11:19:53Z</time>
      </trkpt>
      <trkpt lat="43.47341" lon="6.7922">
        <ele>192</ele>
        <time>2011-06-03T11:19:54Z</time>
      </trkpt>
      <trkpt lat="43.47339" lon="6.7922">
        <ele>191</ele>
        <time>2011-06-03T11:19:55Z</time>
      </trkpt>
      <trkpt lat="43.47338" lon="6.79221">
        <ele>191</ele>
        <time>2011-06-03T11:19:56Z</time>
      </trkpt>
      <trkpt lat="43.47337" lon="6.79221">
        <ele>191</ele>
        <time>2011-06-03T11:19:57Z</time>
      </trkpt>
      <trkpt lat="43.47336" lon="6.79222">
        <ele>191</ele>
        <time>2011-06-03T11:19:58Z</time>
      </trkpt>
      <trkpt lat="43.47335" lon="6.79223">
        <ele>191</ele>
        <time>2011-06-03T11:19:59Z</time>
      </trkpt>
      <trkpt lat="43.47333" lon="6.79224">
        <ele>191</ele>
        <time>2011-06-03T11:20:00Z</time>
      </trkpt>
      <trkpt lat="43.47332" lon="6.79225">
        <ele>191</ele>
        <time>2011-06-03T11:20:01Z</time>
      </trkpt>
      <trkpt lat="43.4733" lon="6.79227">
        <ele>191</ele>
        <time>2011-06-03T11:20:02Z</time>
      </trkpt>
      <trkpt lat="43.47329" lon="6.79229">
        <ele>191</ele>
        <time>2011-06-03T11:20:03Z</time>
      </trkpt>
      <trkpt lat="43.47328" lon="6.79231">
        <ele>191</ele>
        <time>2011-06-03T11:20:04Z</time>
      </trkpt>
      <trkpt lat="43.47327" lon="6.79231">
        <ele>190</ele>
        <time>2011-06-03T11:20:05Z</time>
      </trkpt>
      <trkpt lat="43.47325" lon="6.79233">
        <ele>190</ele>
        <time>2011-06-03T11:20:06Z</time>
      </trkpt>
      <trkpt lat="43.47324" lon="6.79235">
        <ele>190</ele>
        <time>2011-06-03T11:20:09Z</time>
      </trkpt>
      <trkpt lat="43.47324" lon="6.79235">
        <ele>190</ele>
        <time>2011-06-03T11:20:09Z</time>
      </trkpt>
      <trkpt lat="43.47324" lon="6.79235">
        <ele>190</ele>
        <time>2011-06-03T11:20:09Z</time>
      </trkpt>
      <trkpt lat="43.47321" lon="6.79233">
        <ele>189.24368286133</ele>
        <time>2011-06-03T11:20:10Z</time>
      </trkpt>
      <trkpt lat="43.4732" lon="6.79233">
        <ele>190</ele>
        <time>2011-06-03T11:20:11Z</time>
      </trkpt>
      <trkpt lat="43.47318" lon="6.79234">
        <ele>190</ele>
        <time>2011-06-03T11:20:12Z</time>
      </trkpt>
      <trkpt lat="43.47318" lon="6.79235">
        <ele>190</ele>
        <time>2011-06-03T11:20:13Z</time>
      </trkpt>
      <trkpt lat="43.47317" lon="6.79236">
        <ele>190</ele>
        <time>2011-06-03T11:20:14Z</time>
      </trkpt>
      <trkpt lat="43.47316" lon="6.79236">
        <ele>191</ele>
        <time>2011-06-03T11:20:15Z</time>
      </trkpt>
      <trkpt lat="43.47314" lon="6.79236">
        <ele>191</ele>
        <time>2011-06-03T11:20:16Z</time>
      </trkpt>
      <trkpt lat="43.47313" lon="6.79237">
        <ele>191</ele>
        <time>2011-06-03T11:20:17Z</time>
      </trkpt>
      <trkpt lat="43.47312" lon="6.79237">
        <ele>192</ele>
        <time>2011-06-03T11:20:18Z</time>
      </trkpt>
      <trkpt lat="43.47311" lon="6.79239">
        <ele>192</ele>
        <time>2011-06-03T11:20:19Z</time>
      </trkpt>
      <trkpt lat="43.4731" lon="6.79239">
        <ele>192</ele>
        <time>2011-06-03T11:20:20Z</time>
      </trkpt>
      <trkpt lat="43.47308" lon="6.7924">
        <ele>192</ele>
        <time>2011-06-03T11:20:21Z</time>
      </trkpt>
      <trkpt lat="43.47307" lon="6.79243">
        <ele>193</ele>
        <time>2011-06-03T11:20:22Z</time>
      </trkpt>
      <trkpt lat="43.47306" lon="6.79244">
        <ele>194</ele>
        <time>2011-06-03T11:20:23Z</time>
      </trkpt>
      <trkpt lat="43.47305" lon="6.79245">
        <ele>194</ele>
        <time>2011-06-03T11:20:24Z</time>
      </trkpt>
      <trkpt lat="43.47305" lon="6.79246">
        <ele>194</ele>
        <time>2011-06-03T11:20:25Z</time>
      </trkpt>
      <trkpt lat="43.47304" lon="6.79247">
        <ele>195</ele>
        <time>2011-06-03T11:20:26Z</time>
      </trkpt>
      <trkpt lat="43.47302" lon="6.79248">
        <ele>194</ele>
        <time>2011-06-03T11:20:27Z</time>
      </trkpt>
      <trkpt lat="43.47301" lon="6.79248">
        <ele>194</ele>
        <time>2011-06-03T11:20:28Z</time>
      </trkpt>
      <trkpt lat="43.473" lon="6.79249">
        <ele>194</ele>
        <time>2011-06-03T11:20:29Z</time>
      </trkpt>
      <trkpt lat="43.47298" lon="6.7925">
        <ele>194</ele>
        <time>2011-06-03T11:20:32Z</time>
      </trkpt>
      <trkpt lat="43.47298" lon="6.7925">
        <ele>193.99653625488</ele>
        <time>2011-06-03T11:20:32Z</time>
      </trkpt>
      <trkpt lat="43.47298" lon="6.7925">
        <ele>193.99688720703</ele>
        <time>2011-06-03T11:20:32Z</time>
      </trkpt>
      <trkpt lat="43.47295" lon="6.79253">
        <ele>194</ele>
        <time>2011-06-03T11:20:33Z</time>
      </trkpt>
      <trkpt lat="43.47294" lon="6.79253">
        <ele>194</ele>
        <time>2011-06-03T11:20:34Z</time>
      </trkpt>
      <trkpt lat="43.47293" lon="6.79255">
        <ele>195</ele>
        <time>2011-06-03T11:20:35Z</time>
      </trkpt>
      <trkpt lat="43.47292" lon="6.79256">
        <ele>194</ele>
        <time>2011-06-03T11:20:36Z</time>
      </trkpt>
      <trkpt lat="43.47291" lon="6.79257">
        <ele>194</ele>
        <time>2011-06-03T11:20:37Z</time>
      </trkpt>
      <trkpt lat="43.4729" lon="6.79259">
        <ele>195</ele>
        <time>2011-06-03T11:20:38Z</time>
      </trkpt>
      <trkpt lat="43.47288" lon="6.7926">
        <ele>195</ele>
        <time>2011-06-03T11:20:39Z</time>
      </trkpt>
      <trkpt lat="43.47287" lon="6.79261">
        <ele>194</ele>
        <time>2011-06-03T11:20:40Z</time>
      </trkpt>
      <trkpt lat="43.47286" lon="6.79262">
        <ele>194</ele>
        <time>2011-06-03T11:20:41Z</time>
      </trkpt>
      <trkpt lat="43.47285" lon="6.79263">
        <ele>195</ele>
        <time>2011-06-03T11:20:42Z</time>
      </trkpt>
      <trkpt lat="43.47283" lon="6.79264">
        <ele>195</ele>
        <time>2011-06-03T11:20:43Z</time>
      </trkpt>
      <trkpt lat="43.47283" lon="6.79265">
        <ele>195</ele>
        <time>2011-06-03T11:20:44Z</time>
      </trkpt>
      <trkpt lat="43.47282" lon="6.79266">
        <ele>196</ele>
        <time>2011-06-03T11:20:45Z</time>
      </trkpt>
      <trkpt lat="43.47281" lon="6.79267">
        <ele>196</ele>
        <time>2011-06-03T11:20:46Z</time>
      </trkpt>
      <trkpt lat="43.4728" lon="6.79267">
        <ele>195</ele>
        <time>2011-06-03T11:20:47Z</time>
      </trkpt>
      <trkpt lat="43.4728" lon="6.79268">
        <ele>195</ele>
        <time>2011-06-03T11:20:48Z</time>
      </trkpt>
      <trkpt lat="43.47279" lon="6.7927">
        <ele>195</ele>
        <time>2011-06-03T11:20:49Z</time>
      </trkpt>
      <trkpt lat="43.47278" lon="6.79271">
        <ele>195</ele>
        <time>2011-06-03T11:20:50Z</time>
      </trkpt>
      <trkpt lat="43.47277" lon="6.79273">
        <ele>195</ele>
        <time>2011-06-03T11:20:51Z</time>
      </trkpt>
      <trkpt lat="43.47276" lon="6.79273">
        <ele>195</ele>
        <time>2011-06-03T11:20:52Z</time>
      </trkpt>
      <trkpt lat="43.47274" lon="6.79273">
        <ele>196</ele>
        <time>2011-06-03T11:20:55Z</time>
      </trkpt>
      <trkpt lat="43.47274" lon="6.79273">
        <ele>196</ele>
        <time>2011-06-03T11:20:55Z</time>
      </trkpt>
      <trkpt lat="43.47274" lon="6.79273">
        <ele>196.00221252441</ele>
        <time>2011-06-03T11:20:55Z</time>
      </trkpt>
      <trkpt lat="43.47272" lon="6.79275">
        <ele>196.6522064209</ele>
        <time>2011-06-03T11:20:56Z</time>
      </trkpt>
      <trkpt lat="43.47269" lon="6.79277">
        <ele>197</ele>
        <time>2011-06-03T11:20:57Z</time>
      </trkpt>
      <trkpt lat="43.47268" lon="6.79279">
        <ele>197</ele>
        <time>2011-06-03T11:20:58Z</time>
      </trkpt>
      <trkpt lat="43.47266" lon="6.79279">
        <ele>198</ele>
        <time>2011-06-03T11:20:59Z</time>
      </trkpt>
      <trkpt lat="43.47266" lon="6.7928">
        <ele>199</ele>
        <time>2011-06-03T11:21:00Z</time>
      </trkpt>
      <trkpt lat="43.47265" lon="6.79281">
        <ele>199</ele>
        <time>2011-06-03T11:21:01Z</time>
      </trkpt>
      <trkpt lat="43.47263" lon="6.79282">
        <ele>200</ele>
        <time>2011-06-03T11:21:02Z</time>
      </trkpt>
      <trkpt lat="43.47262" lon="6.79283">
        <ele>200</ele>
        <time>2011-06-03T11:21:03Z</time>
      </trkpt>
      <trkpt lat="43.47261" lon="6.79284">
        <ele>200</ele>
        <time>2011-06-03T11:21:04Z</time>
      </trkpt>
      <trkpt lat="43.47259" lon="6.79284">
        <ele>200</ele>
        <time>2011-06-03T11:21:05Z</time>
      </trkpt>
      <trkpt lat="43.47258" lon="6.79284">
        <ele>199</ele>
        <time>2011-06-03T11:21:06Z</time>
      </trkpt>
      <trkpt lat="43.47257" lon="6.79285">
        <ele>199</ele>
        <time>2011-06-03T11:21:07Z</time>
      </trkpt>
      <trkpt lat="43.47256" lon="6.79284">
        <ele>199</ele>
        <time>2011-06-03T11:21:08Z</time>
      </trkpt>
      <trkpt lat="43.47255" lon="6.79284">
        <ele>199</ele>
        <time>2011-06-03T11:21:09Z</time>
      </trkpt>
      <trkpt lat="43.47254" lon="6.79286">
        <ele>200</ele>
        <time>2011-06-03T11:21:10Z</time>
      </trkpt>
      <trkpt lat="43.47252" lon="6.79286">
        <ele>200</ele>
        <time>2011-06-03T11:21:11Z</time>
      </trkpt>
      <trkpt lat="43.47251" lon="6.79286">
        <ele>200</ele>
        <time>2011-06-03T11:21:12Z</time>
      </trkpt>
      <trkpt lat="43.47248" lon="6.79286">
        <ele>200</ele>
        <time>2011-06-03T11:21:13Z</time>
      </trkpt>
      <trkpt lat="43.47246" lon="6.79286">
        <ele>200</ele>
        <time>2011-06-03T11:21:14Z</time>
      </trkpt>
      <trkpt lat="43.47244" lon="6.79285">
        <ele>200</ele>
        <time>2011-06-03T11:21:15Z</time>
      </trkpt>
      <trkpt lat="43.47242" lon="6.79284">
        <ele>200</ele>
        <time>2011-06-03T11:21:18Z</time>
      </trkpt>
      <trkpt lat="43.47242" lon="6.79284">
        <ele>200</ele>
        <time>2011-06-03T11:21:18Z</time>
      </trkpt>
      <trkpt lat="43.47242" lon="6.79284">
        <ele>200</ele>
        <time>2011-06-03T11:21:18Z</time>
      </trkpt>
      <trkpt lat="43.4724" lon="6.79282">
        <ele>200</ele>
        <time>2011-06-03T11:21:19Z</time>
      </trkpt>
      <trkpt lat="43.47234" lon="6.79277">
        <ele>200</ele>
        <time>2011-06-03T11:21:20Z</time>
      </trkpt>
      <trkpt lat="43.4723" lon="6.79272">
        <ele>201</ele>
        <time>2011-06-03T11:21:21Z</time>
      </trkpt>
      <trkpt lat="43.47228" lon="6.79269">
        <ele>203</ele>
        <time>2011-06-03T11:21:22Z</time>
      </trkpt>
      <trkpt lat="43.47226" lon="6.79266">
        <ele>203</ele>
        <time>2011-06-03T11:21:23Z</time>
      </trkpt>
      <trkpt lat="43.47223" lon="6.79262">
        <ele>203</ele>
        <time>2011-06-03T11:21:24Z</time>
      </trkpt>
      <trkpt lat="43.47221" lon="6.7926">
        <ele>204</ele>
        <time>2011-06-03T11:21:25Z</time>
      </trkpt>
      <trkpt lat="43.47219" lon="6.79257">
        <ele>204</ele>
        <time>2011-06-03T11:21:26Z</time>
      </trkpt>
      <trkpt lat="43.47217" lon="6.79255">
        <ele>204</ele>
        <time>2011-06-03T11:21:27Z</time>
      </trkpt>
      <trkpt lat="43.47215" lon="6.79252">
        <ele>203</ele>
        <time>2011-06-03T11:21:28Z</time>
      </trkpt>
      <trkpt lat="43.47213" lon="6.79249">
        <ele>203</ele>
        <time>2011-06-03T11:21:29Z</time>
      </trkpt>
      <trkpt lat="43.47212" lon="6.79246">
        <ele>202</ele>
        <time>2011-06-03T11:21:30Z</time>
      </trkpt>
      <trkpt lat="43.47213" lon="6.79242">
        <ele>202</ele>
        <time>2011-06-03T11:21:31Z</time>
      </trkpt>
      <trkpt lat="43.47211" lon="6.79237">
        <ele>201</ele>
        <time>2011-06-03T11:21:32Z</time>
      </trkpt>
      <trkpt lat="43.47211" lon="6.79234">
        <ele>201</ele>
        <time>2011-06-03T11:21:33Z</time>
      </trkpt>
      <trkpt lat="43.4721" lon="6.7923">
        <ele>201</ele>
        <time>2011-06-03T11:21:34Z</time>
      </trkpt>
      <trkpt lat="43.47208" lon="6.79227">
        <ele>200</ele>
        <time>2011-06-03T11:21:35Z</time>
      </trkpt>
      <trkpt lat="43.47208" lon="6.79223">
        <ele>200</ele>
        <time>2011-06-03T11:21:36Z</time>
      </trkpt>
      <trkpt lat="43.47209" lon="6.79219">
        <ele>199</ele>
        <time>2011-06-03T11:21:37Z</time>
      </trkpt>
      <trkpt lat="43.4721" lon="6.79214">
        <ele>199</ele>
        <time>2011-06-03T11:21:38Z</time>
      </trkpt>
      <trkpt lat="43.47211" lon="6.79212">
        <ele>198</ele>
        <time>2011-06-03T11:21:39Z</time>
      </trkpt>
      <trkpt lat="43.47213" lon="6.79208">
        <ele>197</ele>
        <time>2011-06-03T11:21:42Z</time>
      </trkpt>
      <trkpt lat="43.47213" lon="6.79208">
        <ele>197</ele>
        <time>2011-06-03T11:21:42Z</time>
      </trkpt>
      <trkpt lat="43.47213" lon="6.79208">
        <ele>196.99819946289</ele>
        <time>2011-06-03T11:21:42Z</time>
      </trkpt>
      <trkpt lat="43.47213" lon="6.79201">
        <ele>196.42903137207</ele>
        <time>2011-06-03T11:21:43Z</time>
      </trkpt>
      <trkpt lat="43.47215" lon="6.79191">
        <ele>194</ele>
        <time>2011-06-03T11:21:44Z</time>
      </trkpt>
      <trkpt lat="43.47215" lon="6.79187">
        <ele>193</ele>
        <time>2011-06-03T11:21:45Z</time>
      </trkpt>
      <trkpt lat="43.47215" lon="6.79184">
        <ele>192</ele>
        <time>2011-06-03T11:21:46Z</time>
      </trkpt>
      <trkpt lat="43.47215" lon="6.7918">
        <ele>192</ele>
        <time>2011-06-03T11:21:47Z</time>
      </trkpt>
      <trkpt lat="43.47215" lon="6.79177">
        <ele>191</ele>
        <time>2011-06-03T11:21:48Z</time>
      </trkpt>
      <trkpt lat="43.47214" lon="6.79174">
        <ele>190</ele>
        <time>2011-06-03T11:21:49Z</time>
      </trkpt>
      <trkpt lat="43.47214" lon="6.79171">
        <ele>190</ele>
        <time>2011-06-03T11:21:50Z</time>
      </trkpt>
      <trkpt lat="43.47214" lon="6.79167">
        <ele>190</ele>
        <time>2011-06-03T11:21:51Z</time>
      </trkpt>
      <trkpt lat="43.47214" lon="6.79163">
        <ele>190</ele>
        <time>2011-06-03T11:21:52Z</time>
      </trkpt>
      <trkpt lat="43.47214" lon="6.7916">
        <ele>190</ele>
        <time>2011-06-03T11:21:53Z</time>
      </trkpt>
      <trkpt lat="43.47215" lon="6.79156">
        <ele>190</ele>
        <time>2011-06-03T11:21:54Z</time>
      </trkpt>
      <trkpt lat="43.47215" lon="6.79152">
        <ele>191</ele>
        <time>2011-06-03T11:21:55Z</time>
      </trkpt>
      <trkpt lat="43.47215" lon="6.79149">
        <ele>190</ele>
        <time>2011-06-03T11:21:56Z</time>
      </trkpt>
      <trkpt lat="43.47214" lon="6.79146">
        <ele>190</ele>
        <time>2011-06-03T11:21:57Z</time>
      </trkpt>
      <trkpt lat="43.47214" lon="6.79141">
        <ele>190</ele>
        <time>2011-06-03T11:21:58Z</time>
      </trkpt>
      <trkpt lat="43.47214" lon="6.79137">
        <ele>190</ele>
        <time>2011-06-03T11:21:59Z</time>
      </trkpt>
      <trkpt lat="43.47215" lon="6.79135">
        <ele>190</ele>
        <time>2011-06-03T11:22:00Z</time>
      </trkpt>
      <trkpt lat="43.47215" lon="6.7913">
        <ele>190</ele>
        <time>2011-06-03T11:22:01Z</time>
      </trkpt>
      <trkpt lat="43.47215" lon="6.79126">
        <ele>190</ele>
        <time>2011-06-03T11:22:02Z</time>
      </trkpt>
      <trkpt lat="43.47214" lon="6.79124">
        <ele>191</ele>
        <time>2011-06-03T11:22:05Z</time>
      </trkpt>
      <trkpt lat="43.47214" lon="6.79124">
        <ele>191</ele>
        <time>2011-06-03T11:22:05Z</time>
      </trkpt>
      <trkpt lat="43.47214" lon="6.79124">
        <ele>191</ele>
        <time>2011-06-03T11:22:05Z</time>
      </trkpt>
      <trkpt lat="43.47214" lon="6.79122">
        <ele>191</ele>
        <time>2011-06-03T11:22:06Z</time>
      </trkpt>
      <trkpt lat="43.47213" lon="6.79115">
        <ele>190.46296691895</ele>
        <time>2011-06-03T11:22:07Z</time>
      </trkpt>
      <trkpt lat="43.47212" lon="6.79105">
        <ele>190.05070495605</ele>
        <time>2011-06-03T11:22:08Z</time>
      </trkpt>
      <trkpt lat="43.4721" lon="6.79099">
        <ele>190</ele>
        <time>2011-06-03T11:22:09Z</time>
      </trkpt>
      <trkpt lat="43.4721" lon="6.79096">
        <ele>190</ele>
        <time>2011-06-03T11:22:10Z</time>
      </trkpt>
      <trkpt lat="43.47208" lon="6.79093">
        <ele>190</ele>
        <time>2011-06-03T11:22:11Z</time>
      </trkpt>
      <trkpt lat="43.47206" lon="6.79093">
        <ele>190</ele>
        <time>2011-06-03T11:22:12Z</time>
      </trkpt>
      <trkpt lat="43.47203" lon="6.79092">
        <ele>191</ele>
        <time>2011-06-03T11:22:13Z</time>
      </trkpt>
      <trkpt lat="43.47202" lon="6.79089">
        <ele>191</ele>
        <time>2011-06-03T11:22:14Z</time>
      </trkpt>
      <trkpt lat="43.472" lon="6.79093">
        <ele>191</ele>
        <time>2011-06-03T11:22:15Z</time>
      </trkpt>
      <trkpt lat="43.47198" lon="6.79095">
        <ele>191</ele>
        <time>2011-06-03T11:22:16Z</time>
      </trkpt>
      <trkpt lat="43.47197" lon="6.79098">
        <ele>190</ele>
        <time>2011-06-03T11:22:17Z</time>
      </trkpt>
      <trkpt lat="43.47195" lon="6.79102">
        <ele>190</ele>
        <time>2011-06-03T11:22:18Z</time>
      </trkpt>
      <trkpt lat="43.47193" lon="6.79104">
        <ele>190</ele>
        <time>2011-06-03T11:22:19Z</time>
      </trkpt>
      <trkpt lat="43.47191" lon="6.79107">
        <ele>190</ele>
        <time>2011-06-03T11:22:20Z</time>
      </trkpt>
      <trkpt lat="43.4719" lon="6.7911">
        <ele>191</ele>
        <time>2011-06-03T11:22:21Z</time>
      </trkpt>
      <trkpt lat="43.47188" lon="6.79113">
        <ele>191</ele>
        <time>2011-06-03T11:22:22Z</time>
      </trkpt>
      <trkpt lat="43.47187" lon="6.79117">
        <ele>191</ele>
        <time>2011-06-03T11:22:23Z</time>
      </trkpt>
      <trkpt lat="43.47185" lon="6.79119">
        <ele>191</ele>
        <time>2011-06-03T11:22:24Z</time>
      </trkpt>
      <trkpt lat="43.47184" lon="6.79121">
        <ele>191</ele>
        <time>2011-06-03T11:22:25Z</time>
      </trkpt>
      <trkpt lat="43.47183" lon="6.79124">
        <ele>191</ele>
        <time>2011-06-03T11:22:26Z</time>
      </trkpt>
      <trkpt lat="43.47182" lon="6.79127">
        <ele>190</ele>
        <time>2011-06-03T11:22:29Z</time>
      </trkpt>
      <trkpt lat="43.47182" lon="6.79127">
        <ele>190</ele>
        <time>2011-06-03T11:22:29Z</time>
      </trkpt>
      <trkpt lat="43.47182" lon="6.79127">
        <ele>190</ele>
        <time>2011-06-03T11:22:29Z</time>
      </trkpt>
      <trkpt lat="43.47179" lon="6.79128">
        <ele>190</ele>
        <time>2011-06-03T11:22:30Z</time>
      </trkpt>
      <trkpt lat="43.47172" lon="6.7913">
        <ele>190</ele>
        <time>2011-06-03T11:22:31Z</time>
      </trkpt>
      <trkpt lat="43.47168" lon="6.79132">
        <ele>190</ele>
        <time>2011-06-03T11:22:32Z</time>
      </trkpt>
      <trkpt lat="43.47165" lon="6.79133">
        <ele>190</ele>
        <time>2011-06-03T11:22:33Z</time>
      </trkpt>
      <trkpt lat="43.47163" lon="6.79133">
        <ele>190</ele>
        <time>2011-06-03T11:22:34Z</time>
      </trkpt>
      <trkpt lat="43.4716" lon="6.79134">
        <ele>190</ele>
        <time>2011-06-03T11:22:35Z</time>
      </trkpt>
      <trkpt lat="43.47158" lon="6.79134">
        <ele>190</ele>
        <time>2011-06-03T11:22:36Z</time>
      </trkpt>
      <trkpt lat="43.47155" lon="6.79135">
        <ele>190</ele>
        <time>2011-06-03T11:22:37Z</time>
      </trkpt>
      <trkpt lat="43.47153" lon="6.79137">
        <ele>189</ele>
        <time>2011-06-03T11:22:38Z</time>
      </trkpt>
      <trkpt lat="43.4715" lon="6.79138">
        <ele>189</ele>
        <time>2011-06-03T11:22:39Z</time>
      </trkpt>
      <trkpt lat="43.47148" lon="6.79139">
        <ele>189</ele>
        <time>2011-06-03T11:22:40Z</time>
      </trkpt>
      <trkpt lat="43.47146" lon="6.79141">
        <ele>189</ele>
        <time>2011-06-03T11:22:41Z</time>
      </trkpt>
      <trkpt lat="43.47143" lon="6.79143">
        <ele>189</ele>
        <time>2011-06-03T11:22:42Z</time>
      </trkpt>
      <trkpt lat="43.4714" lon="6.79142">
        <ele>188</ele>
        <time>2011-06-03T11:22:43Z</time>
      </trkpt>
      <trkpt lat="43.47138" lon="6.79139">
        <ele>187</ele>
        <time>2011-06-03T11:22:44Z</time>
      </trkpt>
      <trkpt lat="43.47136" lon="6.79135">
        <ele>187</ele>
        <time>2011-06-03T11:22:45Z</time>
      </trkpt>
      <trkpt lat="43.47133" lon="6.79131">
        <ele>186</ele>
        <time>2011-06-03T11:22:46Z</time>
      </trkpt>
      <trkpt lat="43.47132" lon="6.79129">
        <ele>186</ele>
        <time>2011-06-03T11:22:47Z</time>
      </trkpt>
      <trkpt lat="43.4713" lon="6.79127">
        <ele>185</ele>
        <time>2011-06-03T11:22:48Z</time>
      </trkpt>
      <trkpt lat="43.47127" lon="6.79126">
        <ele>184</ele>
        <time>2011-06-03T11:22:49Z</time>
      </trkpt>
      <trkpt lat="43.47125" lon="6.79124">
        <ele>185</ele>
        <time>2011-06-03T11:22:50Z</time>
      </trkpt>
      <trkpt lat="43.47123" lon="6.79123">
        <ele>185</ele>
        <time>2011-06-03T11:22:53Z</time>
      </trkpt>
      <trkpt lat="43.47123" lon="6.79123">
        <ele>185</ele>
        <time>2011-06-03T11:22:53Z</time>
      </trkpt>
      <trkpt lat="43.47123" lon="6.79123">
        <ele>185</ele>
        <time>2011-06-03T11:22:53Z</time>
      </trkpt>
      <trkpt lat="43.47118" lon="6.79121">
        <ele>185.66067504883</ele>
        <time>2011-06-03T11:22:54Z</time>
      </trkpt>
      <trkpt lat="43.47113" lon="6.79118">
        <ele>186</ele>
        <time>2011-06-03T11:22:55Z</time>
      </trkpt>
      <trkpt lat="43.4711" lon="6.79116">
        <ele>187</ele>
        <time>2011-06-03T11:22:56Z</time>
      </trkpt>
      <trkpt lat="43.47108" lon="6.79113">
        <ele>186</ele>
        <time>2011-06-03T11:22:57Z</time>
      </trkpt>
      <trkpt lat="43.47106" lon="6.79111">
        <ele>186</ele>
        <time>2011-06-03T11:22:58Z</time>
      </trkpt>
      <trkpt lat="43.47104" lon="6.79107">
        <ele>185</ele>
        <time>2011-06-03T11:22:59Z</time>
      </trkpt>
      <trkpt lat="43.47102" lon="6.79105">
        <ele>186</ele>
        <time>2011-06-03T11:23:00Z</time>
      </trkpt>
      <trkpt lat="43.471" lon="6.79103">
        <ele>186</ele>
        <time>2011-06-03T11:23:01Z</time>
      </trkpt>
      <trkpt lat="43.47098" lon="6.79101">
        <ele>184</ele>
        <time>2011-06-03T11:23:02Z</time>
      </trkpt>
      <trkpt lat="43.47096" lon="6.79099">
        <ele>182</ele>
        <time>2011-06-03T11:23:03Z</time>
      </trkpt>
      <trkpt lat="43.47095" lon="6.79097">
        <ele>181</ele>
        <time>2011-06-03T11:23:04Z</time>
      </trkpt>
      <trkpt lat="43.47093" lon="6.79096">
        <ele>180</ele>
        <time>2011-06-03T11:23:05Z</time>
      </trkpt>
      <trkpt lat="43.4709" lon="6.79093">
        <ele>179</ele>
        <time>2011-06-03T11:23:06Z</time>
      </trkpt>
      <trkpt lat="43.47088" lon="6.79091">
        <ele>179</ele>
        <time>2011-06-03T11:23:07Z</time>
      </trkpt>
      <trkpt lat="43.47085" lon="6.79089">
        <ele>179</ele>
        <time>2011-06-03T11:23:08Z</time>
      </trkpt>
      <trkpt lat="43.47082" lon="6.79087">
        <ele>179</ele>
        <time>2011-06-03T11:23:09Z</time>
      </trkpt>
      <trkpt lat="43.4708" lon="6.79083">
        <ele>178</ele>
        <time>2011-06-03T11:23:10Z</time>
      </trkpt>
      <trkpt lat="43.47079" lon="6.7908">
        <ele>178</ele>
        <time>2011-06-03T11:23:11Z</time>
      </trkpt>
      <trkpt lat="43.47077" lon="6.79077">
        <ele>178</ele>
        <time>2011-06-03T11:23:12Z</time>
      </trkpt>
      <trkpt lat="43.47074" lon="6.79074">
        <ele>178</ele>
        <time>2011-06-03T11:23:13Z</time>
      </trkpt>
      <trkpt lat="43.47072" lon="6.79071">
        <ele>178</ele>
        <time>2011-06-03T11:23:16Z</time>
      </trkpt>
      <trkpt lat="43.47072" lon="6.79071">
        <ele>177.99676513672</ele>
        <time>2011-06-03T11:23:16Z</time>
      </trkpt>
      <trkpt lat="43.47072" lon="6.79071">
        <ele>177.99322509766</ele>
        <time>2011-06-03T11:23:16Z</time>
      </trkpt>
      <trkpt lat="43.4707" lon="6.79068">
        <ele>177.4337310791</ele>
        <time>2011-06-03T11:23:17Z</time>
      </trkpt>
      <trkpt lat="43.47066" lon="6.7906">
        <ele>176.35527038574</ele>
        <time>2011-06-03T11:23:18Z</time>
      </trkpt>
      <trkpt lat="43.47063" lon="6.79054">
        <ele>176</ele>
        <time>2011-06-03T11:23:19Z</time>
      </trkpt>
      <trkpt lat="43.47063" lon="6.79048">
        <ele>175</ele>
        <time>2011-06-03T11:23:20Z</time>
      </trkpt>
      <trkpt lat="43.47063" lon="6.79044">
        <ele>174</ele>
        <time>2011-06-03T11:23:21Z</time>
      </trkpt>
      <trkpt lat="43.47063" lon="6.7904">
        <ele>174</ele>
        <time>2011-06-03T11:23:22Z</time>
      </trkpt>
      <trkpt lat="43.47062" lon="6.79035">
        <ele>173</ele>
        <time>2011-06-03T11:23:23Z</time>
      </trkpt>
      <trkpt lat="43.47061" lon="6.79031">
        <ele>173</ele>
        <time>2011-06-03T11:23:24Z</time>
      </trkpt>
      <trkpt lat="43.4706" lon="6.79028">
        <ele>173</ele>
        <time>2011-06-03T11:23:25Z</time>
      </trkpt>
      <trkpt lat="43.4706" lon="6.79025">
        <ele>173</ele>
        <time>2011-06-03T11:23:26Z</time>
      </trkpt>
      <trkpt lat="43.47058" lon="6.79021">
        <ele>172</ele>
        <time>2011-06-03T11:23:27Z</time>
      </trkpt>
      <trkpt lat="43.47058" lon="6.79017">
        <ele>172</ele>
        <time>2011-06-03T11:23:28Z</time>
      </trkpt>
      <trkpt lat="43.47057" lon="6.79014">
        <ele>171</ele>
        <time>2011-06-03T11:23:29Z</time>
      </trkpt>
      <trkpt lat="43.47053" lon="6.79012">
        <ele>172</ele>
        <time>2011-06-03T11:23:30Z</time>
      </trkpt>
      <trkpt lat="43.47052" lon="6.79009">
        <ele>171</ele>
        <time>2011-06-03T11:23:31Z</time>
      </trkpt>
      <trkpt lat="43.4705" lon="6.79007">
        <ele>172</ele>
        <time>2011-06-03T11:23:32Z</time>
      </trkpt>
      <trkpt lat="43.47049" lon="6.79003">
        <ele>172</ele>
        <time>2011-06-03T11:23:33Z</time>
      </trkpt>
      <trkpt lat="43.47048" lon="6.79">
        <ele>171</ele>
        <time>2011-06-03T11:23:34Z</time>
      </trkpt>
      <trkpt lat="43.47046" lon="6.78996">
        <ele>171</ele>
        <time>2011-06-03T11:23:35Z</time>
      </trkpt>
      <trkpt lat="43.47045" lon="6.78996">
        <ele>172</ele>
        <time>2011-06-03T11:23:36Z</time>
      </trkpt>
      <trkpt lat="43.47043" lon="6.78993">
        <ele>172</ele>
        <time>2011-06-03T11:23:37Z</time>
      </trkpt>
      <trkpt lat="43.47042" lon="6.78989">
        <ele>172</ele>
        <time>2011-06-03T11:23:40Z</time>
      </trkpt>
      <trkpt lat="43.47042" lon="6.78989">
        <ele>172</ele>
        <time>2011-06-03T11:23:40Z</time>
      </trkpt>
      <trkpt lat="43.47042" lon="6.78989">
        <ele>172</ele>
        <time>2011-06-03T11:23:40Z</time>
      </trkpt>
      <trkpt lat="43.47039" lon="6.78987">
        <ele>172</ele>
        <time>2011-06-03T11:23:41Z</time>
      </trkpt>
      <trkpt lat="43.47034" lon="6.78983">
        <ele>172</ele>
        <time>2011-06-03T11:23:42Z</time>
      </trkpt>
      <trkpt lat="43.47029" lon="6.78982">
        <ele>172</ele>
        <time>2011-06-03T11:23:43Z</time>
      </trkpt>
      <trkpt lat="43.47027" lon="6.78981">
        <ele>172</ele>
        <time>2011-06-03T11:23:44Z</time>
      </trkpt>
      <trkpt lat="43.47024" lon="6.7898">
        <ele>172</ele>
        <time>2011-06-03T11:23:45Z</time>
      </trkpt>
      <trkpt lat="43.47022" lon="6.78978">
        <ele>172</ele>
        <time>2011-06-03T11:23:46Z</time>
      </trkpt>
      <trkpt lat="43.47019" lon="6.78977">
        <ele>172</ele>
        <time>2011-06-03T11:23:47Z</time>
      </trkpt>
      <trkpt lat="43.47016" lon="6.78975">
        <ele>172</ele>
        <time>2011-06-03T11:23:48Z</time>
      </trkpt>
      <trkpt lat="43.47013" lon="6.78973">
        <ele>172</ele>
        <time>2011-06-03T11:23:49Z</time>
      </trkpt>
      <trkpt lat="43.47011" lon="6.78971">
        <ele>172</ele>
        <time>2011-06-03T11:23:50Z</time>
      </trkpt>
      <trkpt lat="43.47008" lon="6.78968">
        <ele>172</ele>
        <time>2011-06-03T11:23:51Z</time>
      </trkpt>
      <trkpt lat="43.47006" lon="6.78965">
        <ele>172</ele>
        <time>2011-06-03T11:23:52Z</time>
      </trkpt>
      <trkpt lat="43.47004" lon="6.78962">
        <ele>172</ele>
        <time>2011-06-03T11:23:53Z</time>
      </trkpt>
      <trkpt lat="43.47001" lon="6.7896">
        <ele>172</ele>
        <time>2011-06-03T11:23:54Z</time>
      </trkpt>
      <trkpt lat="43.46998" lon="6.78958">
        <ele>171</ele>
        <time>2011-06-03T11:23:55Z</time>
      </trkpt>
      <trkpt lat="43.46996" lon="6.78957">
        <ele>171</ele>
        <time>2011-06-03T11:23:56Z</time>
      </trkpt>
      <trkpt lat="43.46993" lon="6.78955">
        <ele>171</ele>
        <time>2011-06-03T11:23:57Z</time>
      </trkpt>
      <trkpt lat="43.4699" lon="6.78953">
        <ele>171</ele>
        <time>2011-06-03T11:23:58Z</time>
      </trkpt>
      <trkpt lat="43.46987" lon="6.78951">
        <ele>170</ele>
        <time>2011-06-03T11:23:59Z</time>
      </trkpt>
      <trkpt lat="43.46985" lon="6.7895">
        <ele>170</ele>
        <time>2011-06-03T11:24:00Z</time>
      </trkpt>
      <trkpt lat="43.46982" lon="6.78949">
        <ele>171</ele>
        <time>2011-06-03T11:24:01Z</time>
      </trkpt>
      <trkpt lat="43.46979" lon="6.78946">
        <ele>170</ele>
        <time>2011-06-03T11:24:04Z</time>
      </trkpt>
      <trkpt lat="43.46979" lon="6.78946">
        <ele>170</ele>
        <time>2011-06-03T11:24:04Z</time>
      </trkpt>
      <trkpt lat="43.46979" lon="6.78946">
        <ele>170</ele>
        <time>2011-06-03T11:24:04Z</time>
      </trkpt>
      <trkpt lat="43.46976" lon="6.78946">
        <ele>170</ele>
        <time>2011-06-03T11:24:05Z</time>
      </trkpt>
      <trkpt lat="43.46969" lon="6.78945">
        <ele>170</ele>
        <time>2011-06-03T11:24:06Z</time>
      </trkpt>
      <trkpt lat="43.46967" lon="6.78945">
        <ele>170</ele>
        <time>2011-06-03T11:24:07Z</time>
      </trkpt>
      <trkpt lat="43.46963" lon="6.78945">
        <ele>170</ele>
        <time>2011-06-03T11:24:08Z</time>
      </trkpt>
      <trkpt lat="43.4696" lon="6.78945">
        <ele>170</ele>
        <time>2011-06-03T11:24:09Z</time>
      </trkpt>
      <trkpt lat="43.46957" lon="6.78945">
        <ele>169</ele>
        <time>2011-06-03T11:24:10Z</time>
      </trkpt>
      <trkpt lat="43.46954" lon="6.78945">
        <ele>169</ele>
        <time>2011-06-03T11:24:11Z</time>
      </trkpt>
      <trkpt lat="43.46952" lon="6.78945">
        <ele>169</ele>
        <time>2011-06-03T11:24:12Z</time>
      </trkpt>
      <trkpt lat="43.46949" lon="6.78946">
        <ele>169</ele>
        <time>2011-06-03T11:24:13Z</time>
      </trkpt>
      <trkpt lat="43.46947" lon="6.78946">
        <ele>168</ele>
        <time>2011-06-03T11:24:14Z</time>
      </trkpt>
      <trkpt lat="43.46944" lon="6.78945">
        <ele>168</ele>
        <time>2011-06-03T11:24:15Z</time>
      </trkpt>
      <trkpt lat="43.46942" lon="6.78946">
        <ele>168</ele>
        <time>2011-06-03T11:24:16Z</time>
      </trkpt>
      <trkpt lat="43.4694" lon="6.78946">
        <ele>167</ele>
        <time>2011-06-03T11:24:17Z</time>
      </trkpt>
      <trkpt lat="43.46938" lon="6.78948">
        <ele>168</ele>
        <time>2011-06-03T11:24:18Z</time>
      </trkpt>
      <trkpt lat="43.46935" lon="6.7895">
        <ele>168</ele>
        <time>2011-06-03T11:24:19Z</time>
      </trkpt>
      <trkpt lat="43.46933" lon="6.78951">
        <ele>168</ele>
        <time>2011-06-03T11:24:20Z</time>
      </trkpt>
      <trkpt lat="43.4693" lon="6.78953">
        <ele>167</ele>
        <time>2011-06-03T11:24:21Z</time>
      </trkpt>
      <trkpt lat="43.46926" lon="6.78954">
        <ele>167</ele>
        <time>2011-06-03T11:24:22Z</time>
      </trkpt>
      <trkpt lat="43.46923" lon="6.78955">
        <ele>167</ele>
        <time>2011-06-03T11:24:23Z</time>
      </trkpt>
      <trkpt lat="43.46919" lon="6.78955">
        <ele>167</ele>
        <time>2011-06-03T11:24:24Z</time>
      </trkpt>
      <trkpt lat="43.46917" lon="6.78957">
        <ele>167</ele>
        <time>2011-06-03T11:24:27Z</time>
      </trkpt>
      <trkpt lat="43.46917" lon="6.78957">
        <ele>167</ele>
        <time>2011-06-03T11:24:27Z</time>
      </trkpt>
      <trkpt lat="43.46917" lon="6.78957">
        <ele>167</ele>
        <time>2011-06-03T11:24:27Z</time>
      </trkpt>
      <trkpt lat="43.46914" lon="6.78959">
        <ele>167.35205078125</ele>
        <time>2011-06-03T11:24:28Z</time>
      </trkpt>
      <trkpt lat="43.46908" lon="6.78965">
        <ele>167.92265319824</ele>
        <time>2011-06-03T11:24:29Z</time>
      </trkpt>
      <trkpt lat="43.46905" lon="6.78966">
        <ele>167</ele>
        <time>2011-06-03T11:24:30Z</time>
      </trkpt>
      <trkpt lat="43.46903" lon="6.78968">
        <ele>168</ele>
        <time>2011-06-03T11:24:31Z</time>
      </trkpt>
      <trkpt lat="43.46901" lon="6.7897">
        <ele>168</ele>
        <time>2011-06-03T11:24:32Z</time>
      </trkpt>
      <trkpt lat="43.469" lon="6.78972">
        <ele>168</ele>
        <time>2011-06-03T11:24:33Z</time>
      </trkpt>
      <trkpt lat="43.46899" lon="6.78975">
        <ele>167</ele>
        <time>2011-06-03T11:24:34Z</time>
      </trkpt>
      <trkpt lat="43.46897" lon="6.78977">
        <ele>167</ele>
        <time>2011-06-03T11:24:35Z</time>
      </trkpt>
      <trkpt lat="43.46896" lon="6.7898">
        <ele>167</ele>
        <time>2011-06-03T11:24:36Z</time>
      </trkpt>
      <trkpt lat="43.46895" lon="6.78982">
        <ele>167</ele>
        <time>2011-06-03T11:24:37Z</time>
      </trkpt>
      <trkpt lat="43.46894" lon="6.78986">
        <ele>168</ele>
        <time>2011-06-03T11:24:38Z</time>
      </trkpt>
      <trkpt lat="43.46893" lon="6.78989">
        <ele>168</ele>
        <time>2011-06-03T11:24:39Z</time>
      </trkpt>
      <trkpt lat="43.46892" lon="6.78991">
        <ele>168</ele>
        <time>2011-06-03T11:24:40Z</time>
      </trkpt>
      <trkpt lat="43.46889" lon="6.78994">
        <ele>168</ele>
        <time>2011-06-03T11:24:41Z</time>
      </trkpt>
      <trkpt lat="43.46886" lon="6.78996">
        <ele>167</ele>
        <time>2011-06-03T11:24:42Z</time>
      </trkpt>
      <trkpt lat="43.46884" lon="6.78999">
        <ele>167</ele>
        <time>2011-06-03T11:24:43Z</time>
      </trkpt>
      <trkpt lat="43.46882" lon="6.79002">
        <ele>168</ele>
        <time>2011-06-03T11:24:44Z</time>
      </trkpt>
      <trkpt lat="43.4688" lon="6.79005">
        <ele>167</ele>
        <time>2011-06-03T11:24:45Z</time>
      </trkpt>
      <trkpt lat="43.46877" lon="6.79009">
        <ele>167</ele>
        <time>2011-06-03T11:24:46Z</time>
      </trkpt>
      <trkpt lat="43.46875" lon="6.79012">
        <ele>167</ele>
        <time>2011-06-03T11:24:47Z</time>
      </trkpt>
      <trkpt lat="43.46873" lon="6.79016">
        <ele>167</ele>
        <time>2011-06-03T11:24:48Z</time>
      </trkpt>
      <trkpt lat="43.46871" lon="6.79019">
        <ele>167</ele>
        <time>2011-06-03T11:24:51Z</time>
      </trkpt>
      <trkpt lat="43.46871" lon="6.79019">
        <ele>167</ele>
        <time>2011-06-03T11:24:51Z</time>
      </trkpt>
      <trkpt lat="43.46871" lon="6.79019">
        <ele>166.99844360352</ele>
        <time>2011-06-03T11:24:51Z</time>
      </trkpt>
      <trkpt lat="43.4687" lon="6.79022">
        <ele>166.71963500977</ele>
        <time>2011-06-03T11:24:52Z</time>
      </trkpt>
      <trkpt lat="43.46867" lon="6.79032">
        <ele>166.14834594727</ele>
        <time>2011-06-03T11:24:53Z</time>
      </trkpt>
      <trkpt lat="43.46865" lon="6.79037">
        <ele>165</ele>
        <time>2011-06-03T11:24:54Z</time>
      </trkpt>
      <trkpt lat="43.46863" lon="6.7904">
        <ele>166</ele>
        <time>2011-06-03T11:24:55Z</time>
      </trkpt>
      <trkpt lat="43.46861" lon="6.79043">
        <ele>166</ele>
        <time>2011-06-03T11:24:56Z</time>
      </trkpt>
      <trkpt lat="43.46861" lon="6.79047">
        <ele>165</ele>
        <time>2011-06-03T11:24:57Z</time>
      </trkpt>
      <trkpt lat="43.4686" lon="6.7905">
        <ele>165</ele>
        <time>2011-06-03T11:24:58Z</time>
      </trkpt>
      <trkpt lat="43.4686" lon="6.79053">
        <ele>165</ele>
        <time>2011-06-03T11:24:59Z</time>
      </trkpt>
      <trkpt lat="43.46861" lon="6.79056">
        <ele>164</ele>
        <time>2011-06-03T11:25:00Z</time>
      </trkpt>
      <trkpt lat="43.46861" lon="6.7906">
        <ele>164</ele>
        <time>2011-06-03T11:25:01Z</time>
      </trkpt>
      <trkpt lat="43.46859" lon="6.79063">
        <ele>163</ele>
        <time>2011-06-03T11:25:02Z</time>
      </trkpt>
      <trkpt lat="43.46859" lon="6.79068">
        <ele>163</ele>
        <time>2011-06-03T11:25:03Z</time>
      </trkpt>
      <trkpt lat="43.4686" lon="6.79071">
        <ele>162</ele>
        <time>2011-06-03T11:25:04Z</time>
      </trkpt>
      <trkpt lat="43.4686" lon="6.79075">
        <ele>162</ele>
        <time>2011-06-03T11:25:05Z</time>
      </trkpt>
      <trkpt lat="43.46861" lon="6.79078">
        <ele>162</ele>
        <time>2011-06-03T11:25:06Z</time>
      </trkpt>
      <trkpt lat="43.46861" lon="6.79082">
        <ele>162</ele>
        <time>2011-06-03T11:25:07Z</time>
      </trkpt>
      <trkpt lat="43.46862" lon="6.79085">
        <ele>162</ele>
        <time>2011-06-03T11:25:08Z</time>
      </trkpt>
      <trkpt lat="43.46864" lon="6.79089">
        <ele>162</ele>
        <time>2011-06-03T11:25:09Z</time>
      </trkpt>
      <trkpt lat="43.46865" lon="6.79092">
        <ele>161</ele>
        <time>2011-06-03T11:25:10Z</time>
      </trkpt>
      <trkpt lat="43.46866" lon="6.79096">
        <ele>160</ele>
        <time>2011-06-03T11:25:11Z</time>
      </trkpt>
      <trkpt lat="43.46867" lon="6.79099">
        <ele>160</ele>
        <time>2011-06-03T11:25:12Z</time>
      </trkpt>
      <trkpt lat="43.46869" lon="6.79101">
        <ele>160</ele>
        <time>2011-06-03T11:25:15Z</time>
      </trkpt>
      <trkpt lat="43.46869" lon="6.79101">
        <ele>160.00164794922</ele>
        <time>2011-06-03T11:25:15Z</time>
      </trkpt>
      <trkpt lat="43.46869" lon="6.79101">
        <ele>160.00163269043</ele>
        <time>2011-06-03T11:25:15Z</time>
      </trkpt>
      <trkpt lat="43.4687" lon="6.79103">
        <ele>160.0012512207</ele>
        <time>2011-06-03T11:25:16Z</time>
      </trkpt>
      <trkpt lat="43.46875" lon="6.79107">
        <ele>160.00042724609</ele>
        <time>2011-06-03T11:25:17Z</time>
      </trkpt>
      <trkpt lat="43.46879" lon="6.79112">
        <ele>161</ele>
        <time>2011-06-03T11:25:18Z</time>
      </trkpt>
      <trkpt lat="43.46882" lon="6.79113">
        <ele>161</ele>
        <time>2011-06-03T11:25:19Z</time>
      </trkpt>
      <trkpt lat="43.46884" lon="6.79115">
        <ele>162</ele>
        <time>2011-06-03T11:25:20Z</time>
      </trkpt>
      <trkpt lat="43.46887" lon="6.79117">
        <ele>162</ele>
        <time>2011-06-03T11:25:21Z</time>
      </trkpt>
      <trkpt lat="43.46889" lon="6.79118">
        <ele>161</ele>
        <time>2011-06-03T11:25:22Z</time>
      </trkpt>
      <trkpt lat="43.46892" lon="6.7912">
        <ele>161</ele>
        <time>2011-06-03T11:25:23Z</time>
      </trkpt>
      <trkpt lat="43.46895" lon="6.79121">
        <ele>160</ele>
        <time>2011-06-03T11:25:24Z</time>
      </trkpt>
      <trkpt lat="43.46896" lon="6.79122">
        <ele>160</ele>
        <time>2011-06-03T11:25:25Z</time>
      </trkpt>
      <trkpt lat="43.46899" lon="6.79124">
        <ele>160</ele>
        <time>2011-06-03T11:25:26Z</time>
      </trkpt>
      <trkpt lat="43.46902" lon="6.79125">
        <ele>160</ele>
        <time>2011-06-03T11:25:27Z</time>
      </trkpt>
      <trkpt lat="43.46904" lon="6.79126">
        <ele>160</ele>
        <time>2011-06-03T11:25:28Z</time>
      </trkpt>
      <trkpt lat="43.46906" lon="6.79128">
        <ele>160</ele>
        <time>2011-06-03T11:25:29Z</time>
      </trkpt>
      <trkpt lat="43.46908" lon="6.7913">
        <ele>160</ele>
        <time>2011-06-03T11:25:30Z</time>
      </trkpt>
      <trkpt lat="43.46909" lon="6.79134">
        <ele>160</ele>
        <time>2011-06-03T11:25:31Z</time>
      </trkpt>
      <trkpt lat="43.46908" lon="6.79138">
        <ele>160</ele>
        <time>2011-06-03T11:25:32Z</time>
      </trkpt>
      <trkpt lat="43.46907" lon="6.79141">
        <ele>160</ele>
        <time>2011-06-03T11:25:33Z</time>
      </trkpt>
      <trkpt lat="43.46906" lon="6.79143">
        <ele>159</ele>
        <time>2011-06-03T11:25:34Z</time>
      </trkpt>
      <trkpt lat="43.46905" lon="6.79147">
        <ele>159</ele>
        <time>2011-06-03T11:25:35Z</time>
      </trkpt>
      <trkpt lat="43.46903" lon="6.79149">
        <ele>159</ele>
        <time>2011-06-03T11:25:36Z</time>
      </trkpt>
      <trkpt lat="43.46902" lon="6.79152">
        <ele>159</ele>
        <time>2011-06-03T11:25:40Z</time>
      </trkpt>
      <trkpt lat="43.46902" lon="6.79152">
        <ele>159</ele>
        <time>2011-06-03T11:25:40Z</time>
      </trkpt>
      <trkpt lat="43.46902" lon="6.79153">
        <ele>159</ele>
        <time>2011-06-03T11:25:40Z</time>
      </trkpt>
      <trkpt lat="43.46902" lon="6.79153">
        <ele>159</ele>
        <time>2011-06-03T11:25:40Z</time>
      </trkpt>
      <trkpt lat="43.469" lon="6.79156">
        <ele>159</ele>
        <time>2011-06-03T11:25:41Z</time>
      </trkpt>
      <trkpt lat="43.46894" lon="6.79163">
        <ele>159</ele>
        <time>2011-06-03T11:25:42Z</time>
      </trkpt>
      <trkpt lat="43.4689" lon="6.79168">
        <ele>158</ele>
        <time>2011-06-03T11:25:43Z</time>
      </trkpt>
      <trkpt lat="43.46888" lon="6.79171">
        <ele>158</ele>
        <time>2011-06-03T11:25:44Z</time>
      </trkpt>
      <trkpt lat="43.46887" lon="6.79173">
        <ele>158</ele>
        <time>2011-06-03T11:25:45Z</time>
      </trkpt>
      <trkpt lat="43.46884" lon="6.79176">
        <ele>158</ele>
        <time>2011-06-03T11:25:46Z</time>
      </trkpt>
      <trkpt lat="43.46882" lon="6.79179">
        <ele>158</ele>
        <time>2011-06-03T11:25:47Z</time>
      </trkpt>
      <trkpt lat="43.46879" lon="6.79181">
        <ele>158</ele>
        <time>2011-06-03T11:25:48Z</time>
      </trkpt>
      <trkpt lat="43.46876" lon="6.79184">
        <ele>158</ele>
        <time>2011-06-03T11:25:49Z</time>
      </trkpt>
      <trkpt lat="43.46874" lon="6.79187">
        <ele>158</ele>
        <time>2011-06-03T11:25:50Z</time>
      </trkpt>
      <trkpt lat="43.46872" lon="6.7919">
        <ele>158</ele>
        <time>2011-06-03T11:25:51Z</time>
      </trkpt>
      <trkpt lat="43.4687" lon="6.79192">
        <ele>158</ele>
        <time>2011-06-03T11:25:52Z</time>
      </trkpt>
      <trkpt lat="43.46867" lon="6.79195">
        <ele>157</ele>
        <time>2011-06-03T11:25:53Z</time>
      </trkpt>
      <trkpt lat="43.46865" lon="6.792">
        <ele>156</ele>
        <time>2011-06-03T11:25:54Z</time>
      </trkpt>
      <trkpt lat="43.46864" lon="6.79203">
        <ele>156</ele>
        <time>2011-06-03T11:25:55Z</time>
      </trkpt>
      <trkpt lat="43.46862" lon="6.79205">
        <ele>155</ele>
        <time>2011-06-03T11:25:56Z</time>
      </trkpt>
      <trkpt lat="43.46862" lon="6.79208">
        <ele>155</ele>
        <time>2011-06-03T11:25:57Z</time>
      </trkpt>
      <trkpt lat="43.4686" lon="6.79212">
        <ele>155</ele>
        <time>2011-06-03T11:25:58Z</time>
      </trkpt>
      <trkpt lat="43.46859" lon="6.79216">
        <ele>155</ele>
        <time>2011-06-03T11:25:59Z</time>
      </trkpt>
      <trkpt lat="43.46857" lon="6.7922">
        <ele>155</ele>
        <time>2011-06-03T11:26:00Z</time>
      </trkpt>
      <trkpt lat="43.46856" lon="6.79222">
        <ele>154</ele>
        <time>2011-06-03T11:26:04Z</time>
      </trkpt>
      <trkpt lat="43.46856" lon="6.79222">
        <ele>154</ele>
        <time>2011-06-03T11:26:04Z</time>
      </trkpt>
      <trkpt lat="43.46856" lon="6.79222">
        <ele>154.0009765625</ele>
        <time>2011-06-03T11:26:04Z</time>
      </trkpt>
      <trkpt lat="43.46856" lon="6.79222">
        <ele>154.0016784668</ele>
        <time>2011-06-03T11:26:04Z</time>
      </trkpt>
      <trkpt lat="43.46855" lon="6.79224">
        <ele>154.1434173584</ele>
        <time>2011-06-03T11:26:05Z</time>
      </trkpt>
      <trkpt lat="43.46852" lon="6.79232">
        <ele>154.58898925781</ele>
        <time>2011-06-03T11:26:06Z</time>
      </trkpt>
      <trkpt lat="43.46848" lon="6.79241">
        <ele>154.95663452148</ele>
        <time>2011-06-03T11:26:07Z</time>
      </trkpt>
      <trkpt lat="43.46846" lon="6.79245">
        <ele>155</ele>
        <time>2011-06-03T11:26:08Z</time>
      </trkpt>
      <trkpt lat="43.46842" lon="6.79245">
        <ele>155</ele>
        <time>2011-06-03T11:26:09Z</time>
      </trkpt>
      <trkpt lat="43.46839" lon="6.79247">
        <ele>154</ele>
        <time>2011-06-03T11:26:10Z</time>
      </trkpt>
      <trkpt lat="43.46837" lon="6.79248">
        <ele>154</ele>
        <time>2011-06-03T11:26:11Z</time>
      </trkpt>
      <trkpt lat="43.46834" lon="6.7925">
        <ele>154</ele>
        <time>2011-06-03T11:26:12Z</time>
      </trkpt>
      <trkpt lat="43.46832" lon="6.79251">
        <ele>154</ele>
        <time>2011-06-03T11:26:13Z</time>
      </trkpt>
      <trkpt lat="43.46829" lon="6.79252">
        <ele>154</ele>
        <time>2011-06-03T11:26:14Z</time>
      </trkpt>
      <trkpt lat="43.46826" lon="6.7925">
        <ele>155</ele>
        <time>2011-06-03T11:26:15Z</time>
      </trkpt>
      <trkpt lat="43.46823" lon="6.7925">
        <ele>155</ele>
        <time>2011-06-03T11:26:16Z</time>
      </trkpt>
      <trkpt lat="43.46821" lon="6.79249">
        <ele>154</ele>
        <time>2011-06-03T11:26:17Z</time>
      </trkpt>
      <trkpt lat="43.46819" lon="6.79249">
        <ele>155</ele>
        <time>2011-06-03T11:26:18Z</time>
      </trkpt>
      <trkpt lat="43.46816" lon="6.79247">
        <ele>156</ele>
        <time>2011-06-03T11:26:19Z</time>
      </trkpt>
      <trkpt lat="43.46814" lon="6.79247">
        <ele>157</ele>
        <time>2011-06-03T11:26:20Z</time>
      </trkpt>
      <trkpt lat="43.46812" lon="6.79246">
        <ele>157</ele>
        <time>2011-06-03T11:26:21Z</time>
      </trkpt>
      <trkpt lat="43.46809" lon="6.79246">
        <ele>158</ele>
        <time>2011-06-03T11:26:22Z</time>
      </trkpt>
      <trkpt lat="43.46807" lon="6.79241">
        <ele>158</ele>
        <time>2011-06-03T11:26:23Z</time>
      </trkpt>
      <trkpt lat="43.46805" lon="6.79238">
        <ele>158</ele>
        <time>2011-06-03T11:26:24Z</time>
      </trkpt>
      <trkpt lat="43.46803" lon="6.79236">
        <ele>159</ele>
        <time>2011-06-03T11:26:25Z</time>
      </trkpt>
      <trkpt lat="43.46801" lon="6.79233">
        <ele>159</ele>
        <time>2011-06-03T11:26:28Z</time>
      </trkpt>
      <trkpt lat="43.46801" lon="6.79233">
        <ele>159</ele>
        <time>2011-06-03T11:26:28Z</time>
      </trkpt>
      <trkpt lat="43.46801" lon="6.79233">
        <ele>159.0015411377</ele>
        <time>2011-06-03T11:26:28Z</time>
      </trkpt>
      <trkpt lat="43.468" lon="6.79229">
        <ele>159.35829162598</ele>
        <time>2011-06-03T11:26:29Z</time>
      </trkpt>
      <trkpt lat="43.46797" lon="6.79219">
        <ele>159.91375732422</ele>
        <time>2011-06-03T11:26:30Z</time>
      </trkpt>
      <trkpt lat="43.46795" lon="6.79214">
        <ele>159</ele>
        <time>2011-06-03T11:26:31Z</time>
      </trkpt>
      <trkpt lat="43.46794" lon="6.79209">
        <ele>159</ele>
        <time>2011-06-03T11:26:32Z</time>
      </trkpt>
      <trkpt lat="43.46793" lon="6.79206">
        <ele>159</ele>
        <time>2011-06-03T11:26:33Z</time>
      </trkpt>
      <trkpt lat="43.46792" lon="6.79203">
        <ele>158</ele>
        <time>2011-06-03T11:26:34Z</time>
      </trkpt>
      <trkpt lat="43.46791" lon="6.792">
        <ele>158</ele>
        <time>2011-06-03T11:26:35Z</time>
      </trkpt>
      <trkpt lat="43.4679" lon="6.79195">
        <ele>158</ele>
        <time>2011-06-03T11:26:36Z</time>
      </trkpt>
      <trkpt lat="43.46789" lon="6.79192">
        <ele>157</ele>
        <time>2011-06-03T11:26:37Z</time>
      </trkpt>
      <trkpt lat="43.46787" lon="6.79188">
        <ele>157</ele>
        <time>2011-06-03T11:26:38Z</time>
      </trkpt>
      <trkpt lat="43.46786" lon="6.79185">
        <ele>157</ele>
        <time>2011-06-03T11:26:39Z</time>
      </trkpt>
      <trkpt lat="43.46784" lon="6.79183">
        <ele>157</ele>
        <time>2011-06-03T11:26:40Z</time>
      </trkpt>
      <trkpt lat="43.46782" lon="6.7918">
        <ele>157</ele>
        <time>2011-06-03T11:26:41Z</time>
      </trkpt>
      <trkpt lat="43.4678" lon="6.79177">
        <ele>157</ele>
        <time>2011-06-03T11:26:42Z</time>
      </trkpt>
      <trkpt lat="43.46779" lon="6.79174">
        <ele>156</ele>
        <time>2011-06-03T11:26:43Z</time>
      </trkpt>
      <trkpt lat="43.46777" lon="6.79173">
        <ele>157</ele>
        <time>2011-06-03T11:26:44Z</time>
      </trkpt>
      <trkpt lat="43.46775" lon="6.7917">
        <ele>157</ele>
        <time>2011-06-03T11:26:45Z</time>
      </trkpt>
      <trkpt lat="43.46772" lon="6.79168">
        <ele>156</ele>
        <time>2011-06-03T11:26:46Z</time>
      </trkpt>
      <trkpt lat="43.4677" lon="6.79165">
        <ele>156</ele>
        <time>2011-06-03T11:26:47Z</time>
      </trkpt>
      <trkpt lat="43.46769" lon="6.79163">
        <ele>156</ele>
        <time>2011-06-03T11:26:48Z</time>
      </trkpt>
      <trkpt lat="43.46767" lon="6.7916">
        <ele>157</ele>
        <time>2011-06-03T11:26:49Z</time>
      </trkpt>
      <trkpt lat="43.46766" lon="6.79156">
        <ele>157</ele>
        <time>2011-06-03T11:26:52Z</time>
      </trkpt>
      <trkpt lat="43.46766" lon="6.79156">
        <ele>157.0032043457</ele>
        <time>2011-06-03T11:26:52Z</time>
      </trkpt>
      <trkpt lat="43.46766" lon="6.79156">
        <ele>157.0046081543</ele>
        <time>2011-06-03T11:26:52Z</time>
      </trkpt>
      <trkpt lat="43.46765" lon="6.79153">
        <ele>157.00366210938</ele>
        <time>2011-06-03T11:26:53Z</time>
      </trkpt>
      <trkpt lat="43.46763" lon="6.79145">
        <ele>157.00134277344</ele>
        <time>2011-06-03T11:26:54Z</time>
      </trkpt>
      <trkpt lat="43.46761" lon="6.79136">
        <ele>156</ele>
        <time>2011-06-03T11:26:55Z</time>
      </trkpt>
      <trkpt lat="43.46761" lon="6.79133">
        <ele>156</ele>
        <time>2011-06-03T11:26:56Z</time>
      </trkpt>
      <trkpt lat="43.4676" lon="6.79128">
        <ele>157</ele>
        <time>2011-06-03T11:26:57Z</time>
      </trkpt>
      <trkpt lat="43.46759" lon="6.79124">
        <ele>156</ele>
        <time>2011-06-03T11:26:58Z</time>
      </trkpt>
      <trkpt lat="43.46759" lon="6.79119">
        <ele>156</ele>
        <time>2011-06-03T11:26:59Z</time>
      </trkpt>
      <trkpt lat="43.46758" lon="6.79115">
        <ele>155</ele>
        <time>2011-06-03T11:27:00Z</time>
      </trkpt>
      <trkpt lat="43.46758" lon="6.79111">
        <ele>155</ele>
        <time>2011-06-03T11:27:01Z</time>
      </trkpt>
      <trkpt lat="43.46758" lon="6.79107">
        <ele>154</ele>
        <time>2011-06-03T11:27:02Z</time>
      </trkpt>
      <trkpt lat="43.46757" lon="6.79105">
        <ele>154</ele>
        <time>2011-06-03T11:27:03Z</time>
      </trkpt>
      <trkpt lat="43.46756" lon="6.79103">
        <ele>155</ele>
        <time>2011-06-03T11:27:04Z</time>
      </trkpt>
      <trkpt lat="43.46755" lon="6.79099">
        <ele>155</ele>
        <time>2011-06-03T11:27:05Z</time>
      </trkpt>
      <trkpt lat="43.46754" lon="6.79095">
        <ele>155</ele>
        <time>2011-06-03T11:27:06Z</time>
      </trkpt>
      <trkpt lat="43.46753" lon="6.79091">
        <ele>155</ele>
        <time>2011-06-03T11:27:07Z</time>
      </trkpt>
      <trkpt lat="43.46751" lon="6.79089">
        <ele>155</ele>
        <time>2011-06-03T11:27:08Z</time>
      </trkpt>
      <trkpt lat="43.46749" lon="6.79085">
        <ele>155</ele>
        <time>2011-06-03T11:27:09Z</time>
      </trkpt>
      <trkpt lat="43.46747" lon="6.79083">
        <ele>155</ele>
        <time>2011-06-03T11:27:10Z</time>
      </trkpt>
      <trkpt lat="43.46746" lon="6.79081">
        <ele>155</ele>
        <time>2011-06-03T11:27:11Z</time>
      </trkpt>
      <trkpt lat="43.46745" lon="6.79076">
        <ele>154</ele>
        <time>2011-06-03T11:27:12Z</time>
      </trkpt>
      <trkpt lat="43.46744" lon="6.79073">
        <ele>154</ele>
        <time>2011-06-03T11:27:13Z</time>
      </trkpt>
      <trkpt lat="43.46742" lon="6.7907">
        <ele>155</ele>
        <time>2011-06-03T11:27:16Z</time>
      </trkpt>
      <trkpt lat="43.46742" lon="6.7907">
        <ele>155</ele>
        <time>2011-06-03T11:27:16Z</time>
      </trkpt>
      <trkpt lat="43.46742" lon="6.7907">
        <ele>155.00189208984</ele>
        <time>2011-06-03T11:27:16Z</time>
      </trkpt>
      <trkpt lat="43.4674" lon="6.79067">
        <ele>155.33636474609</ele>
        <time>2011-06-03T11:27:17Z</time>
      </trkpt>
      <trkpt lat="43.46736" lon="6.79061">
        <ele>156.79803466797</ele>
        <time>2011-06-03T11:27:18Z</time>
      </trkpt>
      <trkpt lat="43.46734" lon="6.79058">
        <ele>157</ele>
        <time>2011-06-03T11:27:19Z</time>
      </trkpt>
      <trkpt lat="43.46732" lon="6.79055">
        <ele>157</ele>
        <time>2011-06-03T11:27:20Z</time>
      </trkpt>
      <trkpt lat="43.46731" lon="6.79052">
        <ele>157</ele>
        <time>2011-06-03T11:27:21Z</time>
      </trkpt>
      <trkpt lat="43.46729" lon="6.79049">
        <ele>157</ele>
        <time>2011-06-03T11:27:22Z</time>
      </trkpt>
      <trkpt lat="43.46728" lon="6.79047">
        <ele>157</ele>
        <time>2011-06-03T11:27:23Z</time>
      </trkpt>
      <trkpt lat="43.46726" lon="6.79046">
        <ele>157</ele>
        <time>2011-06-03T11:27:24Z</time>
      </trkpt>
      <trkpt lat="43.46725" lon="6.79044">
        <ele>157</ele>
        <time>2011-06-03T11:27:25Z</time>
      </trkpt>
      <trkpt lat="43.46724" lon="6.79041">
        <ele>156</ele>
        <time>2011-06-03T11:27:26Z</time>
      </trkpt>
      <trkpt lat="43.46721" lon="6.79039">
        <ele>157</ele>
        <time>2011-06-03T11:27:27Z</time>
      </trkpt>
      <trkpt lat="43.46719" lon="6.79036">
        <ele>158</ele>
        <time>2011-06-03T11:27:28Z</time>
      </trkpt>
      <trkpt lat="43.46718" lon="6.79033">
        <ele>158</ele>
        <time>2011-06-03T11:27:29Z</time>
      </trkpt>
      <trkpt lat="43.46716" lon="6.79031">
        <ele>158</ele>
        <time>2011-06-03T11:27:30Z</time>
      </trkpt>
      <trkpt lat="43.46714" lon="6.79029">
        <ele>159</ele>
        <time>2011-06-03T11:27:31Z</time>
      </trkpt>
      <trkpt lat="43.46711" lon="6.79026">
        <ele>159</ele>
        <time>2011-06-03T11:27:32Z</time>
      </trkpt>
      <trkpt lat="43.4671" lon="6.79024">
        <ele>159</ele>
        <time>2011-06-03T11:27:33Z</time>
      </trkpt>
      <trkpt lat="43.46707" lon="6.79021">
        <ele>159</ele>
        <time>2011-06-03T11:27:34Z</time>
      </trkpt>
      <trkpt lat="43.46705" lon="6.79018">
        <ele>159</ele>
        <time>2011-06-03T11:27:35Z</time>
      </trkpt>
      <trkpt lat="43.46704" lon="6.79016">
        <ele>159</ele>
        <time>2011-06-03T11:27:36Z</time>
      </trkpt>
      <trkpt lat="43.46702" lon="6.79014">
        <ele>158</ele>
        <time>2011-06-03T11:27:37Z</time>
      </trkpt>
      <trkpt lat="43.467" lon="6.7901">
        <ele>159</ele>
        <time>2011-06-03T11:27:40Z</time>
      </trkpt>
      <trkpt lat="43.467" lon="6.7901">
        <ele>159</ele>
        <time>2011-06-03T11:27:40Z</time>
      </trkpt>
      <trkpt lat="43.467" lon="6.7901">
        <ele>159</ele>
        <time>2011-06-03T11:27:40Z</time>
      </trkpt>
      <trkpt lat="43.46698" lon="6.79005">
        <ele>159</ele>
        <time>2011-06-03T11:27:41Z</time>
      </trkpt>
      <trkpt lat="43.46695" lon="6.78997">
        <ele>158</ele>
        <time>2011-06-03T11:27:42Z</time>
      </trkpt>
      <trkpt lat="43.46693" lon="6.78995">
        <ele>158</ele>
        <time>2011-06-03T11:27:43Z</time>
      </trkpt>
      <trkpt lat="43.46691" lon="6.78992">
        <ele>158</ele>
        <time>2011-06-03T11:27:44Z</time>
      </trkpt>
      <trkpt lat="43.46689" lon="6.78988">
        <ele>158</ele>
        <time>2011-06-03T11:27:45Z</time>
      </trkpt>
      <trkpt lat="43.46687" lon="6.78985">
        <ele>158</ele>
        <time>2011-06-03T11:27:46Z</time>
      </trkpt>
      <trkpt lat="43.46686" lon="6.78982">
        <ele>157</ele>
        <time>2011-06-03T11:27:47Z</time>
      </trkpt>
      <trkpt lat="43.46685" lon="6.78979">
        <ele>158</ele>
        <time>2011-06-03T11:27:48Z</time>
      </trkpt>
      <trkpt lat="43.46683" lon="6.78977">
        <ele>158</ele>
        <time>2011-06-03T11:27:49Z</time>
      </trkpt>
      <trkpt lat="43.46681" lon="6.78975">
        <ele>158</ele>
        <time>2011-06-03T11:27:50Z</time>
      </trkpt>
      <trkpt lat="43.46679" lon="6.78973">
        <ele>158</ele>
        <time>2011-06-03T11:27:51Z</time>
      </trkpt>
      <trkpt lat="43.46678" lon="6.78972">
        <ele>157</ele>
        <time>2011-06-03T11:27:52Z</time>
      </trkpt>
      <trkpt lat="43.46678" lon="6.7897">
        <ele>158</ele>
        <time>2011-06-03T11:27:53Z</time>
      </trkpt>
      <trkpt lat="43.46677" lon="6.78968">
        <ele>157</ele>
        <time>2011-06-03T11:27:54Z</time>
      </trkpt>
      <trkpt lat="43.46676" lon="6.78967">
        <ele>158</ele>
        <time>2011-06-03T11:27:55Z</time>
      </trkpt>
      <trkpt lat="43.46675" lon="6.78965">
        <ele>158</ele>
        <time>2011-06-03T11:27:56Z</time>
      </trkpt>
      <trkpt lat="43.46675" lon="6.78964">
        <ele>158</ele>
        <time>2011-06-03T11:27:57Z</time>
      </trkpt>
      <trkpt lat="43.46674" lon="6.78963">
        <ele>159</ele>
        <time>2011-06-03T11:27:58Z</time>
      </trkpt>
      <trkpt lat="43.46673" lon="6.78959">
        <ele>159</ele>
        <time>2011-06-03T11:27:59Z</time>
      </trkpt>
      <trkpt lat="43.46672" lon="6.78958">
        <ele>158</ele>
        <time>2011-06-03T11:28:00Z</time>
      </trkpt>
      <trkpt lat="43.46672" lon="6.78957">
        <ele>158</ele>
        <time>2011-06-03T11:28:04Z</time>
      </trkpt>
      <trkpt lat="43.46671" lon="6.78956">
        <ele>158</ele>
        <time>2011-06-03T11:28:04Z</time>
      </trkpt>
      <trkpt lat="43.46671" lon="6.78955">
        <ele>158</ele>
        <time>2011-06-03T11:28:04Z</time>
      </trkpt>
      <trkpt lat="43.46671" lon="6.78954">
        <ele>158</ele>
        <time>2011-06-03T11:28:06Z</time>
      </trkpt>
      <trkpt lat="43.4667" lon="6.78952">
        <ele>158</ele>
        <time>2011-06-03T11:28:06Z</time>
      </trkpt>
      <trkpt lat="43.46669" lon="6.78951">
        <ele>158</ele>
        <time>2011-06-03T11:28:06Z</time>
      </trkpt>
      <trkpt lat="43.46667" lon="6.78948">
        <ele>158</ele>
        <time>2011-06-03T11:28:07Z</time>
      </trkpt>
      <trkpt lat="43.46666" lon="6.78948">
        <ele>157</ele>
        <time>2011-06-03T11:28:08Z</time>
      </trkpt>
      <trkpt lat="43.46659" lon="6.78942">
        <ele>158</ele>
        <time>2011-06-03T11:28:16Z</time>
      </trkpt>
      <trkpt lat="43.46659" lon="6.78942">
        <ele>158</ele>
        <time>2011-06-03T11:28:16Z</time>
      </trkpt>
      <trkpt lat="43.46658" lon="6.78942">
        <ele>158</ele>
        <time>2011-06-03T11:28:17Z</time>
      </trkpt>
      <trkpt lat="43.46658" lon="6.78941">
        <ele>158</ele>
        <time>2011-06-03T11:28:18Z</time>
      </trkpt>
      <trkpt lat="43.46657" lon="6.7894">
        <ele>157</ele>
        <time>2011-06-03T11:28:19Z</time>
      </trkpt>
      <trkpt lat="43.46655" lon="6.7894">
        <ele>157</ele>
        <time>2011-06-03T11:28:20Z</time>
      </trkpt>
      <trkpt lat="43.46654" lon="6.7894">
        <ele>157</ele>
        <time>2011-06-03T11:28:21Z</time>
      </trkpt>
      <trkpt lat="43.46654" lon="6.78939">
        <ele>157</ele>
        <time>2011-06-03T11:28:22Z</time>
      </trkpt>
    </trkseg>
  </trk>
</gpx>